<?xml version="1.0" encoding="UTF-8" standalone="no" ?>
<gpx xmlns="http://www.topografix.com/GPX/1/1" xmlns:xsi="http://www.w3.org/2001/XMLSchema-instance" xsi:schemaLocation="http://www.topografix.com/GPX/1/1 http://www.topografix.com/GPX/1/1/gpx.xsd" version="1.1" creator="VisuGPX - https://www.visugpx.com">
  <metadata>
    <name>Tour du lac de Vesoles - Hérault</name>
  </metadata>
  <trk>
    <name><![CDATA[Track]]></name>
    <trkseg>
      <trkpt lat="43.55349" lon="2.78675">
        <ele>992.2</ele>
        <time>2021-06-30T14:23:33.000+02:00</time>
      </trkpt>
      <trkpt lat="43.55349" lon="2.78675">
        <ele>992.2</ele>
        <time>2021-06-30T14:23:34.000+02:00</time>
      </trkpt>
      <trkpt lat="43.55349" lon="2.78675">
        <ele>992.2</ele>
        <time>2021-06-30T14:23:35.000+02:00</time>
      </trkpt>
      <trkpt lat="43.55349" lon="2.78676">
        <ele>992.2</ele>
        <time>2021-06-30T14:23:36.000+02:00</time>
      </trkpt>
      <trkpt lat="43.55349" lon="2.78676">
        <ele>992.2</ele>
        <time>2021-06-30T14:23:37.000+02:00</time>
      </trkpt>
      <trkpt lat="43.55349" lon="2.78676">
        <ele>992.2</ele>
        <time>2021-06-30T14:23:38.000+02:00</time>
      </trkpt>
      <trkpt lat="43.55349" lon="2.78676">
        <ele>992.2</ele>
        <time>2021-06-30T14:23:39.000+02:00</time>
      </trkpt>
      <trkpt lat="43.55349" lon="2.78676">
        <ele>992.2</ele>
        <time>2021-06-30T14:23:40.000+02:00</time>
      </trkpt>
      <trkpt lat="43.55349" lon="2.78676">
        <ele>992.2</ele>
        <time>2021-06-30T14:23:41.000+02:00</time>
      </trkpt>
      <trkpt lat="43.55349" lon="2.78676">
        <ele>992.2</ele>
        <time>2021-06-30T14:23:42.000+02:00</time>
      </trkpt>
      <trkpt lat="43.55349" lon="2.78676">
        <ele>992.2</ele>
        <time>2021-06-30T14:23:43.000+02:00</time>
      </trkpt>
      <trkpt lat="43.55349" lon="2.78676">
        <ele>992.2</ele>
        <time>2021-06-30T14:23:44.000+02:00</time>
      </trkpt>
      <trkpt lat="43.55349" lon="2.78676">
        <ele>992.2</ele>
        <time>2021-06-30T14:23:45.000+02:00</time>
      </trkpt>
      <trkpt lat="43.55349" lon="2.78676">
        <ele>992.2</ele>
        <time>2021-06-30T14:23:46.000+02:00</time>
      </trkpt>
      <trkpt lat="43.55349" lon="2.78676">
        <ele>992.2</ele>
        <time>2021-06-30T14:23:47.000+02:00</time>
      </trkpt>
      <trkpt lat="43.55349" lon="2.78676">
        <ele>992.2</ele>
        <time>2021-06-30T14:23:48.000+02:00</time>
      </trkpt>
      <trkpt lat="43.5535" lon="2.78676">
        <ele>992.2</ele>
        <time>2021-06-30T14:23:49.000+02:00</time>
      </trkpt>
      <trkpt lat="43.5535" lon="2.78676">
        <ele>992.2</ele>
        <time>2021-06-30T14:23:50.000+02:00</time>
      </trkpt>
      <trkpt lat="43.5535" lon="2.78676">
        <ele>992.2</ele>
        <time>2021-06-30T14:23:51.000+02:00</time>
      </trkpt>
      <trkpt lat="43.5535" lon="2.78676">
        <ele>992.2</ele>
        <time>2021-06-30T14:23:52.000+02:00</time>
      </trkpt>
      <trkpt lat="43.5535" lon="2.78676">
        <ele>992.2</ele>
        <time>2021-06-30T14:23:53.000+02:00</time>
      </trkpt>
      <trkpt lat="43.5535" lon="2.78676">
        <ele>992.2</ele>
        <time>2021-06-30T14:23:54.000+02:00</time>
      </trkpt>
      <trkpt lat="43.5535" lon="2.78676">
        <ele>992.2</ele>
        <time>2021-06-30T14:23:55.000+02:00</time>
      </trkpt>
      <trkpt lat="43.5535" lon="2.78676">
        <ele>992.2</ele>
        <time>2021-06-30T14:23:56.000+02:00</time>
      </trkpt>
      <trkpt lat="43.5535" lon="2.78676">
        <ele>992.2</ele>
        <time>2021-06-30T14:23:57.000+02:00</time>
      </trkpt>
      <trkpt lat="43.5535" lon="2.78675">
        <ele>992.2</ele>
        <time>2021-06-30T14:23:58.000+02:00</time>
      </trkpt>
      <trkpt lat="43.55351" lon="2.78675">
        <ele>992.1</ele>
        <time>2021-06-30T14:23:59.000+02:00</time>
      </trkpt>
      <trkpt lat="43.55351" lon="2.78675">
        <ele>992.1</ele>
        <time>2021-06-30T14:24:00.000+02:00</time>
      </trkpt>
      <trkpt lat="43.55352" lon="2.78675">
        <ele>992.1</ele>
        <time>2021-06-30T14:24:01.000+02:00</time>
      </trkpt>
      <trkpt lat="43.55352" lon="2.78675">
        <ele>992.1</ele>
        <time>2021-06-30T14:24:02.000+02:00</time>
      </trkpt>
      <trkpt lat="43.55352" lon="2.78675">
        <ele>992.1</ele>
        <time>2021-06-30T14:24:03.000+02:00</time>
      </trkpt>
      <trkpt lat="43.55352" lon="2.78674">
        <ele>992.1</ele>
        <time>2021-06-30T14:24:04.000+02:00</time>
      </trkpt>
      <trkpt lat="43.55353" lon="2.78674">
        <ele>992.1</ele>
        <time>2021-06-30T14:24:05.000+02:00</time>
      </trkpt>
      <trkpt lat="43.55353" lon="2.78673">
        <ele>992.1</ele>
        <time>2021-06-30T14:24:06.000+02:00</time>
      </trkpt>
      <trkpt lat="43.55352" lon="2.78673">
        <ele>992.1</ele>
        <time>2021-06-30T14:24:07.000+02:00</time>
      </trkpt>
      <trkpt lat="43.55352" lon="2.78673">
        <ele>992.1</ele>
        <time>2021-06-30T14:24:08.000+02:00</time>
      </trkpt>
      <trkpt lat="43.55352" lon="2.78673">
        <ele>992.1</ele>
        <time>2021-06-30T14:24:09.000+02:00</time>
      </trkpt>
      <trkpt lat="43.55352" lon="2.78673">
        <ele>992.1</ele>
        <time>2021-06-30T14:24:10.000+02:00</time>
      </trkpt>
      <trkpt lat="43.55353" lon="2.78672">
        <ele>992</ele>
        <time>2021-06-30T14:24:11.000+02:00</time>
      </trkpt>
      <trkpt lat="43.55354" lon="2.78672">
        <ele>992</ele>
        <time>2021-06-30T14:24:12.000+02:00</time>
      </trkpt>
      <trkpt lat="43.55355" lon="2.78672">
        <ele>992</ele>
        <time>2021-06-30T14:24:13.000+02:00</time>
      </trkpt>
      <trkpt lat="43.55356" lon="2.78674">
        <ele>991.9</ele>
        <time>2021-06-30T14:24:14.000+02:00</time>
      </trkpt>
      <trkpt lat="43.55358" lon="2.78676">
        <ele>991.8</ele>
        <time>2021-06-30T14:24:15.000+02:00</time>
      </trkpt>
      <trkpt lat="43.55357" lon="2.78677">
        <ele>991.8</ele>
        <time>2021-06-30T14:24:16.000+02:00</time>
      </trkpt>
      <trkpt lat="43.55356" lon="2.78678">
        <ele>991.9</ele>
        <time>2021-06-30T14:24:17.000+02:00</time>
      </trkpt>
      <trkpt lat="43.55355" lon="2.78679">
        <ele>991.9</ele>
        <time>2021-06-30T14:24:18.000+02:00</time>
      </trkpt>
      <trkpt lat="43.55354" lon="2.78681">
        <ele>992</ele>
        <time>2021-06-30T14:24:19.000+02:00</time>
      </trkpt>
      <trkpt lat="43.55354" lon="2.78681">
        <ele>992</ele>
        <time>2021-06-30T14:24:20.000+02:00</time>
      </trkpt>
      <trkpt lat="43.55354" lon="2.78681">
        <ele>992</ele>
        <time>2021-06-30T14:24:21.000+02:00</time>
      </trkpt>
      <trkpt lat="43.55354" lon="2.78681">
        <ele>992</ele>
        <time>2021-06-30T14:24:22.000+02:00</time>
      </trkpt>
      <trkpt lat="43.55354" lon="2.78681">
        <ele>992</ele>
        <time>2021-06-30T14:24:23.000+02:00</time>
      </trkpt>
      <trkpt lat="43.55354" lon="2.78681">
        <ele>991.9</ele>
        <time>2021-06-30T14:24:24.000+02:00</time>
      </trkpt>
      <trkpt lat="43.55354" lon="2.78681">
        <ele>992</ele>
        <time>2021-06-30T14:24:25.000+02:00</time>
      </trkpt>
      <trkpt lat="43.55353" lon="2.78683">
        <ele>992</ele>
        <time>2021-06-30T14:24:26.000+02:00</time>
      </trkpt>
      <trkpt lat="43.55353" lon="2.78684">
        <ele>992</ele>
        <time>2021-06-30T14:24:27.000+02:00</time>
      </trkpt>
      <trkpt lat="43.55353" lon="2.78684">
        <ele>992</ele>
        <time>2021-06-30T14:24:28.000+02:00</time>
      </trkpt>
      <trkpt lat="43.55353" lon="2.78684">
        <ele>992</ele>
        <time>2021-06-30T14:24:29.000+02:00</time>
      </trkpt>
      <trkpt lat="43.55353" lon="2.78684">
        <ele>992</ele>
        <time>2021-06-30T14:24:30.000+02:00</time>
      </trkpt>
      <trkpt lat="43.55353" lon="2.78682">
        <ele>992</ele>
        <time>2021-06-30T14:24:31.000+02:00</time>
      </trkpt>
      <trkpt lat="43.55353" lon="2.78681">
        <ele>992</ele>
        <time>2021-06-30T14:24:32.000+02:00</time>
      </trkpt>
      <trkpt lat="43.55353" lon="2.78681">
        <ele>992</ele>
        <time>2021-06-30T14:24:33.000+02:00</time>
      </trkpt>
      <trkpt lat="43.55352" lon="2.78681">
        <ele>992</ele>
        <time>2021-06-30T14:24:34.000+02:00</time>
      </trkpt>
      <trkpt lat="43.55352" lon="2.7868">
        <ele>992.1</ele>
        <time>2021-06-30T14:24:35.000+02:00</time>
      </trkpt>
      <trkpt lat="43.55352" lon="2.78679">
        <ele>992.1</ele>
        <time>2021-06-30T14:24:36.000+02:00</time>
      </trkpt>
      <trkpt lat="43.55351" lon="2.78678">
        <ele>992.1</ele>
        <time>2021-06-30T14:24:37.000+02:00</time>
      </trkpt>
      <trkpt lat="43.55351" lon="2.78677">
        <ele>992.1</ele>
        <time>2021-06-30T14:24:38.000+02:00</time>
      </trkpt>
      <trkpt lat="43.5535" lon="2.78677">
        <ele>992.2</ele>
        <time>2021-06-30T14:24:39.000+02:00</time>
      </trkpt>
      <trkpt lat="43.55349" lon="2.78675">
        <ele>992.2</ele>
        <time>2021-06-30T14:24:40.000+02:00</time>
      </trkpt>
      <trkpt lat="43.55349" lon="2.78675">
        <ele>992.3</ele>
        <time>2021-06-30T14:24:41.000+02:00</time>
      </trkpt>
      <trkpt lat="43.55347" lon="2.78673">
        <ele>992.3</ele>
        <time>2021-06-30T14:24:42.000+02:00</time>
      </trkpt>
      <trkpt lat="43.55347" lon="2.78672">
        <ele>992.3</ele>
        <time>2021-06-30T14:24:43.000+02:00</time>
      </trkpt>
      <trkpt lat="43.55347" lon="2.78671">
        <ele>992.4</ele>
        <time>2021-06-30T14:24:44.000+02:00</time>
      </trkpt>
      <trkpt lat="43.55346" lon="2.78668">
        <ele>992.4</ele>
        <time>2021-06-30T14:24:45.000+02:00</time>
      </trkpt>
      <trkpt lat="43.55345" lon="2.78666">
        <ele>992.5</ele>
        <time>2021-06-30T14:24:46.000+02:00</time>
      </trkpt>
      <trkpt lat="43.55345" lon="2.78666">
        <ele>992.5</ele>
        <time>2021-06-30T14:24:47.000+02:00</time>
      </trkpt>
      <trkpt lat="43.55345" lon="2.78665">
        <ele>992.5</ele>
        <time>2021-06-30T14:24:48.000+02:00</time>
      </trkpt>
      <trkpt lat="43.55345" lon="2.78665">
        <ele>992.5</ele>
        <time>2021-06-30T14:24:49.000+02:00</time>
      </trkpt>
      <trkpt lat="43.55345" lon="2.78665">
        <ele>992.5</ele>
        <time>2021-06-30T14:24:50.000+02:00</time>
      </trkpt>
      <trkpt lat="43.55344" lon="2.78664">
        <ele>992.5</ele>
        <time>2021-06-30T14:24:51.000+02:00</time>
      </trkpt>
      <trkpt lat="43.55344" lon="2.78664">
        <ele>992.5</ele>
        <time>2021-06-30T14:24:52.000+02:00</time>
      </trkpt>
      <trkpt lat="43.55344" lon="2.78664">
        <ele>992.5</ele>
        <time>2021-06-30T14:24:53.000+02:00</time>
      </trkpt>
      <trkpt lat="43.55344" lon="2.78666">
        <ele>992.5</ele>
        <time>2021-06-30T14:24:54.000+02:00</time>
      </trkpt>
      <trkpt lat="43.55343" lon="2.78667">
        <ele>992.5</ele>
        <time>2021-06-30T14:24:55.000+02:00</time>
      </trkpt>
      <trkpt lat="43.55343" lon="2.78668">
        <ele>992.5</ele>
        <time>2021-06-30T14:24:56.000+02:00</time>
      </trkpt>
      <trkpt lat="43.55343" lon="2.78669">
        <ele>992.5</ele>
        <time>2021-06-30T14:24:57.000+02:00</time>
      </trkpt>
      <trkpt lat="43.55343" lon="2.7867">
        <ele>992.5</ele>
        <time>2021-06-30T14:24:58.000+02:00</time>
      </trkpt>
      <trkpt lat="43.55343" lon="2.78671">
        <ele>992.5</ele>
        <time>2021-06-30T14:24:59.000+02:00</time>
      </trkpt>
      <trkpt lat="43.55343" lon="2.78671">
        <ele>992.5</ele>
        <time>2021-06-30T14:25:00.000+02:00</time>
      </trkpt>
      <trkpt lat="43.55343" lon="2.78672">
        <ele>992.5</ele>
        <time>2021-06-30T14:25:01.000+02:00</time>
      </trkpt>
      <trkpt lat="43.55343" lon="2.78672">
        <ele>992.5</ele>
        <time>2021-06-30T14:25:02.000+02:00</time>
      </trkpt>
      <trkpt lat="43.55343" lon="2.78673">
        <ele>992.5</ele>
        <time>2021-06-30T14:25:03.000+02:00</time>
      </trkpt>
      <trkpt lat="43.55343" lon="2.78674">
        <ele>992.5</ele>
        <time>2021-06-30T14:25:04.000+02:00</time>
      </trkpt>
      <trkpt lat="43.55343" lon="2.78674">
        <ele>992.5</ele>
        <time>2021-06-30T14:25:05.000+02:00</time>
      </trkpt>
      <trkpt lat="43.55343" lon="2.78675">
        <ele>992.5</ele>
        <time>2021-06-30T14:25:06.000+02:00</time>
      </trkpt>
      <trkpt lat="43.55343" lon="2.78676">
        <ele>992.5</ele>
        <time>2021-06-30T14:25:07.000+02:00</time>
      </trkpt>
      <trkpt lat="43.55343" lon="2.78676">
        <ele>992.5</ele>
        <time>2021-06-30T14:25:08.000+02:00</time>
      </trkpt>
      <trkpt lat="43.55343" lon="2.78677">
        <ele>992.5</ele>
        <time>2021-06-30T14:25:09.000+02:00</time>
      </trkpt>
      <trkpt lat="43.55344" lon="2.78678">
        <ele>992.5</ele>
        <time>2021-06-30T14:25:10.000+02:00</time>
      </trkpt>
      <trkpt lat="43.55343" lon="2.78679">
        <ele>992.5</ele>
        <time>2021-06-30T14:25:11.000+02:00</time>
      </trkpt>
      <trkpt lat="43.55343" lon="2.7868">
        <ele>992.5</ele>
        <time>2021-06-30T14:25:12.000+02:00</time>
      </trkpt>
      <trkpt lat="43.55343" lon="2.78682">
        <ele>992.5</ele>
        <time>2021-06-30T14:25:13.000+02:00</time>
      </trkpt>
      <trkpt lat="43.55343" lon="2.78683">
        <ele>992.5</ele>
        <time>2021-06-30T14:25:14.000+02:00</time>
      </trkpt>
      <trkpt lat="43.55343" lon="2.78684">
        <ele>992.5</ele>
        <time>2021-06-30T14:25:15.000+02:00</time>
      </trkpt>
      <trkpt lat="43.55342" lon="2.78685">
        <ele>992.5</ele>
        <time>2021-06-30T14:25:16.000+02:00</time>
      </trkpt>
      <trkpt lat="43.55342" lon="2.78686">
        <ele>992.6</ele>
        <time>2021-06-30T14:25:17.000+02:00</time>
      </trkpt>
      <trkpt lat="43.55342" lon="2.78686">
        <ele>992.5</ele>
        <time>2021-06-30T14:25:18.000+02:00</time>
      </trkpt>
      <trkpt lat="43.55342" lon="2.78686">
        <ele>992.5</ele>
        <time>2021-06-30T14:25:19.000+02:00</time>
      </trkpt>
      <trkpt lat="43.55342" lon="2.78687">
        <ele>992.5</ele>
        <time>2021-06-30T14:25:20.000+02:00</time>
      </trkpt>
      <trkpt lat="43.55343" lon="2.78688">
        <ele>992.5</ele>
        <time>2021-06-30T14:25:21.000+02:00</time>
      </trkpt>
      <trkpt lat="43.55344" lon="2.78689">
        <ele>992.5</ele>
        <time>2021-06-30T14:25:22.000+02:00</time>
      </trkpt>
      <trkpt lat="43.55344" lon="2.7869">
        <ele>992.4</ele>
        <time>2021-06-30T14:25:23.000+02:00</time>
      </trkpt>
      <trkpt lat="43.55345" lon="2.78691">
        <ele>992.4</ele>
        <time>2021-06-30T14:25:24.000+02:00</time>
      </trkpt>
      <trkpt lat="43.55345" lon="2.78692">
        <ele>992.4</ele>
        <time>2021-06-30T14:25:25.000+02:00</time>
      </trkpt>
      <trkpt lat="43.55346" lon="2.78693">
        <ele>992.4</ele>
        <time>2021-06-30T14:25:26.000+02:00</time>
      </trkpt>
      <trkpt lat="43.55346" lon="2.78694">
        <ele>992.4</ele>
        <time>2021-06-30T14:25:27.000+02:00</time>
      </trkpt>
      <trkpt lat="43.55346" lon="2.78695">
        <ele>992.3</ele>
        <time>2021-06-30T14:25:28.000+02:00</time>
      </trkpt>
      <trkpt lat="43.55347" lon="2.78696">
        <ele>992.3</ele>
        <time>2021-06-30T14:25:29.000+02:00</time>
      </trkpt>
      <trkpt lat="43.55347" lon="2.78698">
        <ele>992.3</ele>
        <time>2021-06-30T14:25:30.000+02:00</time>
      </trkpt>
      <trkpt lat="43.55348" lon="2.787">
        <ele>992.2</ele>
        <time>2021-06-30T14:25:31.000+02:00</time>
      </trkpt>
      <trkpt lat="43.55348" lon="2.78701">
        <ele>992.2</ele>
        <time>2021-06-30T14:25:32.000+02:00</time>
      </trkpt>
      <trkpt lat="43.55348" lon="2.78702">
        <ele>992.2</ele>
        <time>2021-06-30T14:25:33.000+02:00</time>
      </trkpt>
      <trkpt lat="43.55348" lon="2.78702">
        <ele>992.2</ele>
        <time>2021-06-30T14:25:34.000+02:00</time>
      </trkpt>
      <trkpt lat="43.55347" lon="2.78704">
        <ele>992.2</ele>
        <time>2021-06-30T14:25:35.000+02:00</time>
      </trkpt>
      <trkpt lat="43.55347" lon="2.78706">
        <ele>992.3</ele>
        <time>2021-06-30T14:25:36.000+02:00</time>
      </trkpt>
      <trkpt lat="43.55348" lon="2.78709">
        <ele>992.2</ele>
        <time>2021-06-30T14:25:37.000+02:00</time>
      </trkpt>
      <trkpt lat="43.55348" lon="2.7871">
        <ele>992.2</ele>
        <time>2021-06-30T14:25:38.000+02:00</time>
      </trkpt>
      <trkpt lat="43.55348" lon="2.78712">
        <ele>992.2</ele>
        <time>2021-06-30T14:25:39.000+02:00</time>
      </trkpt>
      <trkpt lat="43.55348" lon="2.78715">
        <ele>992.2</ele>
        <time>2021-06-30T14:25:40.000+02:00</time>
      </trkpt>
      <trkpt lat="43.55348" lon="2.78718">
        <ele>992.2</ele>
        <time>2021-06-30T14:25:41.000+02:00</time>
      </trkpt>
      <trkpt lat="43.55349" lon="2.7872">
        <ele>992.1</ele>
        <time>2021-06-30T14:25:42.000+02:00</time>
      </trkpt>
      <trkpt lat="43.55349" lon="2.78722">
        <ele>992.1</ele>
        <time>2021-06-30T14:25:43.000+02:00</time>
      </trkpt>
      <trkpt lat="43.5535" lon="2.78723">
        <ele>992.1</ele>
        <time>2021-06-30T14:25:44.000+02:00</time>
      </trkpt>
      <trkpt lat="43.55351" lon="2.78725">
        <ele>992</ele>
        <time>2021-06-30T14:25:45.000+02:00</time>
      </trkpt>
      <trkpt lat="43.55351" lon="2.78727">
        <ele>992</ele>
        <time>2021-06-30T14:25:46.000+02:00</time>
      </trkpt>
      <trkpt lat="43.55352" lon="2.78731">
        <ele>991.9</ele>
        <time>2021-06-30T14:25:47.000+02:00</time>
      </trkpt>
      <trkpt lat="43.55353" lon="2.78734">
        <ele>991.9</ele>
        <time>2021-06-30T14:25:48.000+02:00</time>
      </trkpt>
      <trkpt lat="43.55353" lon="2.78734">
        <ele>991.9</ele>
        <time>2021-06-30T14:25:49.000+02:00</time>
      </trkpt>
      <trkpt lat="43.55353" lon="2.78734">
        <ele>991.9</ele>
        <time>2021-06-30T14:25:50.000+02:00</time>
      </trkpt>
      <trkpt lat="43.55353" lon="2.78736">
        <ele>991.9</ele>
        <time>2021-06-30T14:25:51.000+02:00</time>
      </trkpt>
      <trkpt lat="43.55353" lon="2.78737">
        <ele>991.9</ele>
        <time>2021-06-30T14:25:52.000+02:00</time>
      </trkpt>
      <trkpt lat="43.55352" lon="2.78737">
        <ele>991.9</ele>
        <time>2021-06-30T14:25:53.000+02:00</time>
      </trkpt>
      <trkpt lat="43.55352" lon="2.78738">
        <ele>991.9</ele>
        <time>2021-06-30T14:25:54.000+02:00</time>
      </trkpt>
      <trkpt lat="43.55352" lon="2.78738">
        <ele>991.9</ele>
        <time>2021-06-30T14:25:55.000+02:00</time>
      </trkpt>
      <trkpt lat="43.55352" lon="2.7874">
        <ele>991.9</ele>
        <time>2021-06-30T14:25:56.000+02:00</time>
      </trkpt>
      <trkpt lat="43.55352" lon="2.78741">
        <ele>991.9</ele>
        <time>2021-06-30T14:25:57.000+02:00</time>
      </trkpt>
      <trkpt lat="43.55352" lon="2.78742">
        <ele>991.9</ele>
        <time>2021-06-30T14:25:58.000+02:00</time>
      </trkpt>
      <trkpt lat="43.55352" lon="2.78742">
        <ele>991.9</ele>
        <time>2021-06-30T14:25:59.000+02:00</time>
      </trkpt>
      <trkpt lat="43.55352" lon="2.78742">
        <ele>991.9</ele>
        <time>2021-06-30T14:26:00.000+02:00</time>
      </trkpt>
      <trkpt lat="43.55352" lon="2.78743">
        <ele>991.9</ele>
        <time>2021-06-30T14:26:01.000+02:00</time>
      </trkpt>
      <trkpt lat="43.55352" lon="2.78744">
        <ele>991.9</ele>
        <time>2021-06-30T14:26:02.000+02:00</time>
      </trkpt>
      <trkpt lat="43.55352" lon="2.78745">
        <ele>991.9</ele>
        <time>2021-06-30T14:26:03.000+02:00</time>
      </trkpt>
      <trkpt lat="43.55353" lon="2.78746">
        <ele>991.8</ele>
        <time>2021-06-30T14:26:04.000+02:00</time>
      </trkpt>
      <trkpt lat="43.55353" lon="2.78746">
        <ele>991.8</ele>
        <time>2021-06-30T14:26:05.000+02:00</time>
      </trkpt>
      <trkpt lat="43.55353" lon="2.78747">
        <ele>991.8</ele>
        <time>2021-06-30T14:26:06.000+02:00</time>
      </trkpt>
      <trkpt lat="43.55354" lon="2.78748">
        <ele>991.8</ele>
        <time>2021-06-30T14:26:07.000+02:00</time>
      </trkpt>
      <trkpt lat="43.55354" lon="2.7875">
        <ele>991.8</ele>
        <time>2021-06-30T14:26:08.000+02:00</time>
      </trkpt>
      <trkpt lat="43.55354" lon="2.7875">
        <ele>991.7</ele>
        <time>2021-06-30T14:26:09.000+02:00</time>
      </trkpt>
      <trkpt lat="43.55354" lon="2.7875">
        <ele>991.7</ele>
        <time>2021-06-30T14:26:10.000+02:00</time>
      </trkpt>
      <trkpt lat="43.55354" lon="2.78752">
        <ele>991.7</ele>
        <time>2021-06-30T14:26:11.000+02:00</time>
      </trkpt>
      <trkpt lat="43.55354" lon="2.78754">
        <ele>991.6</ele>
        <time>2021-06-30T14:26:12.000+02:00</time>
      </trkpt>
      <trkpt lat="43.55354" lon="2.78755">
        <ele>991.6</ele>
        <time>2021-06-30T14:26:13.000+02:00</time>
      </trkpt>
      <trkpt lat="43.55354" lon="2.78757">
        <ele>991.5</ele>
        <time>2021-06-30T14:26:14.000+02:00</time>
      </trkpt>
      <trkpt lat="43.55353" lon="2.78759">
        <ele>991.4</ele>
        <time>2021-06-30T14:26:15.000+02:00</time>
      </trkpt>
      <trkpt lat="43.55354" lon="2.7876">
        <ele>991.4</ele>
        <time>2021-06-30T14:26:16.000+02:00</time>
      </trkpt>
      <trkpt lat="43.55354" lon="2.78761">
        <ele>991.3</ele>
        <time>2021-06-30T14:26:17.000+02:00</time>
      </trkpt>
      <trkpt lat="43.55354" lon="2.78763">
        <ele>991.3</ele>
        <time>2021-06-30T14:26:18.000+02:00</time>
      </trkpt>
      <trkpt lat="43.55353" lon="2.78764">
        <ele>991.2</ele>
        <time>2021-06-30T14:26:19.000+02:00</time>
      </trkpt>
      <trkpt lat="43.55353" lon="2.78764">
        <ele>991.2</ele>
        <time>2021-06-30T14:26:20.000+02:00</time>
      </trkpt>
      <trkpt lat="43.55353" lon="2.78765">
        <ele>991.1</ele>
        <time>2021-06-30T14:26:21.000+02:00</time>
      </trkpt>
      <trkpt lat="43.55353" lon="2.78767">
        <ele>991.1</ele>
        <time>2021-06-30T14:26:22.000+02:00</time>
      </trkpt>
      <trkpt lat="43.55353" lon="2.78769">
        <ele>991</ele>
        <time>2021-06-30T14:26:23.000+02:00</time>
      </trkpt>
      <trkpt lat="43.55354" lon="2.7877">
        <ele>990.9</ele>
        <time>2021-06-30T14:26:24.000+02:00</time>
      </trkpt>
      <trkpt lat="43.55354" lon="2.78771">
        <ele>990.9</ele>
        <time>2021-06-30T14:26:25.000+02:00</time>
      </trkpt>
      <trkpt lat="43.55353" lon="2.78773">
        <ele>990.8</ele>
        <time>2021-06-30T14:26:26.000+02:00</time>
      </trkpt>
      <trkpt lat="43.55353" lon="2.78775">
        <ele>990.8</ele>
        <time>2021-06-30T14:26:27.000+02:00</time>
      </trkpt>
      <trkpt lat="43.55352" lon="2.78776">
        <ele>990.8</ele>
        <time>2021-06-30T14:26:28.000+02:00</time>
      </trkpt>
      <trkpt lat="43.55352" lon="2.78778">
        <ele>990.7</ele>
        <time>2021-06-30T14:26:29.000+02:00</time>
      </trkpt>
      <trkpt lat="43.55351" lon="2.7878">
        <ele>990.7</ele>
        <time>2021-06-30T14:26:30.000+02:00</time>
      </trkpt>
      <trkpt lat="43.55351" lon="2.78781">
        <ele>990.7</ele>
        <time>2021-06-30T14:26:31.000+02:00</time>
      </trkpt>
      <trkpt lat="43.5535" lon="2.78783">
        <ele>990.6</ele>
        <time>2021-06-30T14:26:32.000+02:00</time>
      </trkpt>
      <trkpt lat="43.5535" lon="2.78784">
        <ele>990.6</ele>
        <time>2021-06-30T14:26:33.000+02:00</time>
      </trkpt>
      <trkpt lat="43.55349" lon="2.78785">
        <ele>990.6</ele>
        <time>2021-06-30T14:26:34.000+02:00</time>
      </trkpt>
      <trkpt lat="43.55347" lon="2.78786">
        <ele>990.7</ele>
        <time>2021-06-30T14:26:35.000+02:00</time>
      </trkpt>
      <trkpt lat="43.55347" lon="2.78789">
        <ele>990.7</ele>
        <time>2021-06-30T14:26:36.000+02:00</time>
      </trkpt>
      <trkpt lat="43.55346" lon="2.78791">
        <ele>990.6</ele>
        <time>2021-06-30T14:26:37.000+02:00</time>
      </trkpt>
      <trkpt lat="43.55345" lon="2.78792">
        <ele>990.7</ele>
        <time>2021-06-30T14:26:38.000+02:00</time>
      </trkpt>
      <trkpt lat="43.55343" lon="2.78794">
        <ele>990.7</ele>
        <time>2021-06-30T14:26:39.000+02:00</time>
      </trkpt>
      <trkpt lat="43.55341" lon="2.78794">
        <ele>990.8</ele>
        <time>2021-06-30T14:26:40.000+02:00</time>
      </trkpt>
      <trkpt lat="43.55341" lon="2.78795">
        <ele>990.8</ele>
        <time>2021-06-30T14:26:41.000+02:00</time>
      </trkpt>
      <trkpt lat="43.55339" lon="2.78797">
        <ele>990.9</ele>
        <time>2021-06-30T14:26:42.000+02:00</time>
      </trkpt>
      <trkpt lat="43.55337" lon="2.78799">
        <ele>990.9</ele>
        <time>2021-06-30T14:26:43.000+02:00</time>
      </trkpt>
      <trkpt lat="43.55336" lon="2.788">
        <ele>991</ele>
        <time>2021-06-30T14:26:44.000+02:00</time>
      </trkpt>
      <trkpt lat="43.55335" lon="2.78801">
        <ele>991</ele>
        <time>2021-06-30T14:26:45.000+02:00</time>
      </trkpt>
      <trkpt lat="43.55334" lon="2.78804">
        <ele>991</ele>
        <time>2021-06-30T14:26:46.000+02:00</time>
      </trkpt>
      <trkpt lat="43.55333" lon="2.78806">
        <ele>991</ele>
        <time>2021-06-30T14:26:47.000+02:00</time>
      </trkpt>
      <trkpt lat="43.55332" lon="2.78807">
        <ele>991.1</ele>
        <time>2021-06-30T14:26:48.000+02:00</time>
      </trkpt>
      <trkpt lat="43.55331" lon="2.78808">
        <ele>991.2</ele>
        <time>2021-06-30T14:26:49.000+02:00</time>
      </trkpt>
      <trkpt lat="43.5533" lon="2.7881">
        <ele>991.3</ele>
        <time>2021-06-30T14:26:50.000+02:00</time>
      </trkpt>
      <trkpt lat="43.55328" lon="2.78812">
        <ele>991.4</ele>
        <time>2021-06-30T14:26:51.000+02:00</time>
      </trkpt>
      <trkpt lat="43.55328" lon="2.78814">
        <ele>991.4</ele>
        <time>2021-06-30T14:26:52.000+02:00</time>
      </trkpt>
      <trkpt lat="43.55327" lon="2.78815">
        <ele>991.4</ele>
        <time>2021-06-30T14:26:53.000+02:00</time>
      </trkpt>
      <trkpt lat="43.55325" lon="2.78816">
        <ele>991.6</ele>
        <time>2021-06-30T14:26:54.000+02:00</time>
      </trkpt>
      <trkpt lat="43.55323" lon="2.78816">
        <ele>991.9</ele>
        <time>2021-06-30T14:26:55.000+02:00</time>
      </trkpt>
      <trkpt lat="43.55323" lon="2.78821">
        <ele>991.7</ele>
        <time>2021-06-30T14:26:56.000+02:00</time>
      </trkpt>
      <trkpt lat="43.55322" lon="2.78825">
        <ele>991.8</ele>
        <time>2021-06-30T14:26:57.000+02:00</time>
      </trkpt>
      <trkpt lat="43.55321" lon="2.78827">
        <ele>991.8</ele>
        <time>2021-06-30T14:26:58.000+02:00</time>
      </trkpt>
      <trkpt lat="43.5532" lon="2.78831">
        <ele>991.9</ele>
        <time>2021-06-30T14:26:59.000+02:00</time>
      </trkpt>
      <trkpt lat="43.5532" lon="2.78834">
        <ele>991.8</ele>
        <time>2021-06-30T14:27:00.000+02:00</time>
      </trkpt>
      <trkpt lat="43.5532" lon="2.78836">
        <ele>991.7</ele>
        <time>2021-06-30T14:27:01.000+02:00</time>
      </trkpt>
      <trkpt lat="43.5532" lon="2.78836">
        <ele>991.7</ele>
        <time>2021-06-30T14:27:02.000+02:00</time>
      </trkpt>
      <trkpt lat="43.55319" lon="2.78839">
        <ele>991.6</ele>
        <time>2021-06-30T14:27:03.000+02:00</time>
      </trkpt>
      <trkpt lat="43.5532" lon="2.7884">
        <ele>991.5</ele>
        <time>2021-06-30T14:27:04.000+02:00</time>
      </trkpt>
      <trkpt lat="43.55319" lon="2.78841">
        <ele>991.5</ele>
        <time>2021-06-30T14:27:05.000+02:00</time>
      </trkpt>
      <trkpt lat="43.55319" lon="2.78843">
        <ele>991.5</ele>
        <time>2021-06-30T14:27:06.000+02:00</time>
      </trkpt>
      <trkpt lat="43.55318" lon="2.78845">
        <ele>991.6</ele>
        <time>2021-06-30T14:27:07.000+02:00</time>
      </trkpt>
      <trkpt lat="43.55316" lon="2.78851">
        <ele>991.6</ele>
        <time>2021-06-30T14:27:08.000+02:00</time>
      </trkpt>
      <trkpt lat="43.55312" lon="2.78856">
        <ele>991.8</ele>
        <time>2021-06-30T14:27:09.000+02:00</time>
      </trkpt>
      <trkpt lat="43.5531" lon="2.78858">
        <ele>992</ele>
        <time>2021-06-30T14:27:10.000+02:00</time>
      </trkpt>
      <trkpt lat="43.5531" lon="2.7886">
        <ele>992.1</ele>
        <time>2021-06-30T14:27:11.000+02:00</time>
      </trkpt>
      <trkpt lat="43.55309" lon="2.78861">
        <ele>992.1</ele>
        <time>2021-06-30T14:27:12.000+02:00</time>
      </trkpt>
      <trkpt lat="43.55308" lon="2.78862">
        <ele>992.2</ele>
        <time>2021-06-30T14:27:13.000+02:00</time>
      </trkpt>
      <trkpt lat="43.55307" lon="2.78863">
        <ele>992.3</ele>
        <time>2021-06-30T14:27:14.000+02:00</time>
      </trkpt>
      <trkpt lat="43.55307" lon="2.78863">
        <ele>992.3</ele>
        <time>2021-06-30T14:27:15.000+02:00</time>
      </trkpt>
      <trkpt lat="43.55306" lon="2.78864">
        <ele>992.4</ele>
        <time>2021-06-30T14:27:16.000+02:00</time>
      </trkpt>
      <trkpt lat="43.55305" lon="2.78864">
        <ele>992.5</ele>
        <time>2021-06-30T14:27:17.000+02:00</time>
      </trkpt>
      <trkpt lat="43.55304" lon="2.78865">
        <ele>992.6</ele>
        <time>2021-06-30T14:27:18.000+02:00</time>
      </trkpt>
      <trkpt lat="43.55303" lon="2.78866">
        <ele>992.7</ele>
        <time>2021-06-30T14:27:19.000+02:00</time>
      </trkpt>
      <trkpt lat="43.55303" lon="2.78867">
        <ele>992.7</ele>
        <time>2021-06-30T14:27:20.000+02:00</time>
      </trkpt>
      <trkpt lat="43.55302" lon="2.78868">
        <ele>992.8</ele>
        <time>2021-06-30T14:27:21.000+02:00</time>
      </trkpt>
      <trkpt lat="43.55301" lon="2.78869">
        <ele>992.9</ele>
        <time>2021-06-30T14:27:22.000+02:00</time>
      </trkpt>
      <trkpt lat="43.553" lon="2.7887">
        <ele>993</ele>
        <time>2021-06-30T14:27:23.000+02:00</time>
      </trkpt>
      <trkpt lat="43.55299" lon="2.78871">
        <ele>993</ele>
        <time>2021-06-30T14:27:24.000+02:00</time>
      </trkpt>
      <trkpt lat="43.55299" lon="2.78872">
        <ele>993.1</ele>
        <time>2021-06-30T14:27:25.000+02:00</time>
      </trkpt>
      <trkpt lat="43.55299" lon="2.78873">
        <ele>993.1</ele>
        <time>2021-06-30T14:27:26.000+02:00</time>
      </trkpt>
      <trkpt lat="43.55298" lon="2.78874">
        <ele>993.1</ele>
        <time>2021-06-30T14:27:27.000+02:00</time>
      </trkpt>
      <trkpt lat="43.55298" lon="2.78876">
        <ele>993.1</ele>
        <time>2021-06-30T14:27:28.000+02:00</time>
      </trkpt>
      <trkpt lat="43.55297" lon="2.78877">
        <ele>993.1</ele>
        <time>2021-06-30T14:27:29.000+02:00</time>
      </trkpt>
      <trkpt lat="43.55297" lon="2.78879">
        <ele>993</ele>
        <time>2021-06-30T14:27:30.000+02:00</time>
      </trkpt>
      <trkpt lat="43.55297" lon="2.78881">
        <ele>993</ele>
        <time>2021-06-30T14:27:31.000+02:00</time>
      </trkpt>
      <trkpt lat="43.55296" lon="2.78883">
        <ele>993</ele>
        <time>2021-06-30T14:27:32.000+02:00</time>
      </trkpt>
      <trkpt lat="43.55296" lon="2.78885">
        <ele>993</ele>
        <time>2021-06-30T14:27:33.000+02:00</time>
      </trkpt>
      <trkpt lat="43.55295" lon="2.78886">
        <ele>993.1</ele>
        <time>2021-06-30T14:27:34.000+02:00</time>
      </trkpt>
      <trkpt lat="43.55294" lon="2.78888">
        <ele>993.2</ele>
        <time>2021-06-30T14:27:35.000+02:00</time>
      </trkpt>
      <trkpt lat="43.55294" lon="2.78891">
        <ele>993.1</ele>
        <time>2021-06-30T14:27:36.000+02:00</time>
      </trkpt>
      <trkpt lat="43.55293" lon="2.78893">
        <ele>993.2</ele>
        <time>2021-06-30T14:27:37.000+02:00</time>
      </trkpt>
      <trkpt lat="43.55292" lon="2.78895">
        <ele>993.2</ele>
        <time>2021-06-30T14:27:38.000+02:00</time>
      </trkpt>
      <trkpt lat="43.55292" lon="2.78896">
        <ele>993.2</ele>
        <time>2021-06-30T14:27:39.000+02:00</time>
      </trkpt>
      <trkpt lat="43.55291" lon="2.78898">
        <ele>993.3</ele>
        <time>2021-06-30T14:27:40.000+02:00</time>
      </trkpt>
      <trkpt lat="43.5529" lon="2.78899">
        <ele>993.4</ele>
        <time>2021-06-30T14:27:41.000+02:00</time>
      </trkpt>
      <trkpt lat="43.55289" lon="2.789">
        <ele>993.4</ele>
        <time>2021-06-30T14:27:42.000+02:00</time>
      </trkpt>
      <trkpt lat="43.55288" lon="2.78902">
        <ele>993.5</ele>
        <time>2021-06-30T14:27:43.000+02:00</time>
      </trkpt>
      <trkpt lat="43.55287" lon="2.78903">
        <ele>993.6</ele>
        <time>2021-06-30T14:27:44.000+02:00</time>
      </trkpt>
      <trkpt lat="43.55286" lon="2.78905">
        <ele>993.7</ele>
        <time>2021-06-30T14:27:45.000+02:00</time>
      </trkpt>
      <trkpt lat="43.55285" lon="2.78906">
        <ele>993.8</ele>
        <time>2021-06-30T14:27:46.000+02:00</time>
      </trkpt>
      <trkpt lat="43.55284" lon="2.78907">
        <ele>994</ele>
        <time>2021-06-30T14:27:47.000+02:00</time>
      </trkpt>
      <trkpt lat="43.55283" lon="2.78909">
        <ele>994</ele>
        <time>2021-06-30T14:27:48.000+02:00</time>
      </trkpt>
      <trkpt lat="43.55283" lon="2.78909">
        <ele>994.1</ele>
        <time>2021-06-30T14:27:49.000+02:00</time>
      </trkpt>
      <trkpt lat="43.55283" lon="2.7891">
        <ele>994.1</ele>
        <time>2021-06-30T14:27:50.000+02:00</time>
      </trkpt>
      <trkpt lat="43.55282" lon="2.78911">
        <ele>994.1</ele>
        <time>2021-06-30T14:27:51.000+02:00</time>
      </trkpt>
      <trkpt lat="43.55282" lon="2.78912">
        <ele>994.2</ele>
        <time>2021-06-30T14:27:52.000+02:00</time>
      </trkpt>
      <trkpt lat="43.55282" lon="2.78913">
        <ele>994.2</ele>
        <time>2021-06-30T14:27:53.000+02:00</time>
      </trkpt>
      <trkpt lat="43.55281" lon="2.78914">
        <ele>994.3</ele>
        <time>2021-06-30T14:27:54.000+02:00</time>
      </trkpt>
      <trkpt lat="43.5528" lon="2.78916">
        <ele>994.3</ele>
        <time>2021-06-30T14:27:55.000+02:00</time>
      </trkpt>
      <trkpt lat="43.5528" lon="2.78917">
        <ele>994.3</ele>
        <time>2021-06-30T14:27:56.000+02:00</time>
      </trkpt>
      <trkpt lat="43.5528" lon="2.78918">
        <ele>994.2</ele>
        <time>2021-06-30T14:27:57.000+02:00</time>
      </trkpt>
      <trkpt lat="43.55279" lon="2.7892">
        <ele>994</ele>
        <time>2021-06-30T14:27:58.000+02:00</time>
      </trkpt>
      <trkpt lat="43.55279" lon="2.78922">
        <ele>993.7</ele>
        <time>2021-06-30T14:27:59.000+02:00</time>
      </trkpt>
      <trkpt lat="43.55279" lon="2.78924">
        <ele>993.5</ele>
        <time>2021-06-30T14:28:00.000+02:00</time>
      </trkpt>
      <trkpt lat="43.55279" lon="2.78926">
        <ele>993.4</ele>
        <time>2021-06-30T14:28:01.000+02:00</time>
      </trkpt>
      <trkpt lat="43.55278" lon="2.78927">
        <ele>993.2</ele>
        <time>2021-06-30T14:28:02.000+02:00</time>
      </trkpt>
      <trkpt lat="43.55278" lon="2.78928">
        <ele>993.2</ele>
        <time>2021-06-30T14:28:03.000+02:00</time>
      </trkpt>
      <trkpt lat="43.55277" lon="2.78929">
        <ele>993.1</ele>
        <time>2021-06-30T14:28:04.000+02:00</time>
      </trkpt>
      <trkpt lat="43.55277" lon="2.7893">
        <ele>993.1</ele>
        <time>2021-06-30T14:28:05.000+02:00</time>
      </trkpt>
      <trkpt lat="43.55276" lon="2.78931">
        <ele>993.1</ele>
        <time>2021-06-30T14:28:06.000+02:00</time>
      </trkpt>
      <trkpt lat="43.55276" lon="2.78931">
        <ele>993.1</ele>
        <time>2021-06-30T14:28:07.000+02:00</time>
      </trkpt>
      <trkpt lat="43.55275" lon="2.78932">
        <ele>993</ele>
        <time>2021-06-30T14:28:08.000+02:00</time>
      </trkpt>
      <trkpt lat="43.55275" lon="2.78933">
        <ele>992.9</ele>
        <time>2021-06-30T14:28:09.000+02:00</time>
      </trkpt>
      <trkpt lat="43.55275" lon="2.78935">
        <ele>992.7</ele>
        <time>2021-06-30T14:28:10.000+02:00</time>
      </trkpt>
      <trkpt lat="43.55275" lon="2.78937">
        <ele>992.6</ele>
        <time>2021-06-30T14:28:11.000+02:00</time>
      </trkpt>
      <trkpt lat="43.55275" lon="2.78938">
        <ele>992.3</ele>
        <time>2021-06-30T14:28:12.000+02:00</time>
      </trkpt>
      <trkpt lat="43.55275" lon="2.7894">
        <ele>992.2</ele>
        <time>2021-06-30T14:28:13.000+02:00</time>
      </trkpt>
      <trkpt lat="43.55274" lon="2.78941">
        <ele>992.1</ele>
        <time>2021-06-30T14:28:14.000+02:00</time>
      </trkpt>
      <trkpt lat="43.55273" lon="2.78942">
        <ele>992</ele>
        <time>2021-06-30T14:28:15.000+02:00</time>
      </trkpt>
      <trkpt lat="43.55272" lon="2.78943">
        <ele>992</ele>
        <time>2021-06-30T14:28:16.000+02:00</time>
      </trkpt>
      <trkpt lat="43.55272" lon="2.78945">
        <ele>992</ele>
        <time>2021-06-30T14:28:17.000+02:00</time>
      </trkpt>
      <trkpt lat="43.55271" lon="2.78946">
        <ele>991.9</ele>
        <time>2021-06-30T14:28:18.000+02:00</time>
      </trkpt>
      <trkpt lat="43.5527" lon="2.78947">
        <ele>991.8</ele>
        <time>2021-06-30T14:28:19.000+02:00</time>
      </trkpt>
      <trkpt lat="43.55269" lon="2.78949">
        <ele>991.7</ele>
        <time>2021-06-30T14:28:20.000+02:00</time>
      </trkpt>
      <trkpt lat="43.55269" lon="2.7895">
        <ele>991.6</ele>
        <time>2021-06-30T14:28:21.000+02:00</time>
      </trkpt>
      <trkpt lat="43.55268" lon="2.78952">
        <ele>991.4</ele>
        <time>2021-06-30T14:28:22.000+02:00</time>
      </trkpt>
      <trkpt lat="43.55268" lon="2.78954">
        <ele>991.3</ele>
        <time>2021-06-30T14:28:23.000+02:00</time>
      </trkpt>
      <trkpt lat="43.55267" lon="2.78955">
        <ele>991.2</ele>
        <time>2021-06-30T14:28:24.000+02:00</time>
      </trkpt>
      <trkpt lat="43.55267" lon="2.78957">
        <ele>991</ele>
        <time>2021-06-30T14:28:25.000+02:00</time>
      </trkpt>
      <trkpt lat="43.55267" lon="2.78958">
        <ele>990.8</ele>
        <time>2021-06-30T14:28:26.000+02:00</time>
      </trkpt>
      <trkpt lat="43.55266" lon="2.7896">
        <ele>990.6</ele>
        <time>2021-06-30T14:28:27.000+02:00</time>
      </trkpt>
      <trkpt lat="43.55266" lon="2.78961">
        <ele>990.5</ele>
        <time>2021-06-30T14:28:28.000+02:00</time>
      </trkpt>
      <trkpt lat="43.55265" lon="2.78963">
        <ele>990.3</ele>
        <time>2021-06-30T14:28:29.000+02:00</time>
      </trkpt>
      <trkpt lat="43.55265" lon="2.78965">
        <ele>990.1</ele>
        <time>2021-06-30T14:28:30.000+02:00</time>
      </trkpt>
      <trkpt lat="43.55264" lon="2.78967">
        <ele>989.9</ele>
        <time>2021-06-30T14:28:31.000+02:00</time>
      </trkpt>
      <trkpt lat="43.55264" lon="2.78969">
        <ele>989.7</ele>
        <time>2021-06-30T14:28:32.000+02:00</time>
      </trkpt>
      <trkpt lat="43.55264" lon="2.78971">
        <ele>989.5</ele>
        <time>2021-06-30T14:28:33.000+02:00</time>
      </trkpt>
      <trkpt lat="43.55263" lon="2.78972">
        <ele>989.3</ele>
        <time>2021-06-30T14:28:34.000+02:00</time>
      </trkpt>
      <trkpt lat="43.55263" lon="2.78974">
        <ele>989.2</ele>
        <time>2021-06-30T14:28:35.000+02:00</time>
      </trkpt>
      <trkpt lat="43.55262" lon="2.78975">
        <ele>989</ele>
        <time>2021-06-30T14:28:36.000+02:00</time>
      </trkpt>
      <trkpt lat="43.55262" lon="2.78977">
        <ele>988.9</ele>
        <time>2021-06-30T14:28:37.000+02:00</time>
      </trkpt>
      <trkpt lat="43.55261" lon="2.78978">
        <ele>988.8</ele>
        <time>2021-06-30T14:28:38.000+02:00</time>
      </trkpt>
      <trkpt lat="43.55261" lon="2.78979">
        <ele>988.7</ele>
        <time>2021-06-30T14:28:39.000+02:00</time>
      </trkpt>
      <trkpt lat="43.5526" lon="2.78981">
        <ele>988.5</ele>
        <time>2021-06-30T14:28:40.000+02:00</time>
      </trkpt>
      <trkpt lat="43.5526" lon="2.78983">
        <ele>988.3</ele>
        <time>2021-06-30T14:28:41.000+02:00</time>
      </trkpt>
      <trkpt lat="43.5526" lon="2.78984">
        <ele>988.2</ele>
        <time>2021-06-30T14:28:42.000+02:00</time>
      </trkpt>
      <trkpt lat="43.5526" lon="2.78985">
        <ele>988</ele>
        <time>2021-06-30T14:28:43.000+02:00</time>
      </trkpt>
      <trkpt lat="43.5526" lon="2.78985">
        <ele>988</ele>
        <time>2021-06-30T14:28:44.000+02:00</time>
      </trkpt>
      <trkpt lat="43.55259" lon="2.78986">
        <ele>987.9</ele>
        <time>2021-06-30T14:28:45.000+02:00</time>
      </trkpt>
      <trkpt lat="43.55259" lon="2.78987">
        <ele>987.9</ele>
        <time>2021-06-30T14:28:46.000+02:00</time>
      </trkpt>
      <trkpt lat="43.55259" lon="2.78987">
        <ele>987.8</ele>
        <time>2021-06-30T14:28:47.000+02:00</time>
      </trkpt>
      <trkpt lat="43.55258" lon="2.78988">
        <ele>987.7</ele>
        <time>2021-06-30T14:28:48.000+02:00</time>
      </trkpt>
      <trkpt lat="43.55258" lon="2.7899">
        <ele>987.5</ele>
        <time>2021-06-30T14:28:49.000+02:00</time>
      </trkpt>
      <trkpt lat="43.55258" lon="2.78991">
        <ele>987.4</ele>
        <time>2021-06-30T14:28:50.000+02:00</time>
      </trkpt>
      <trkpt lat="43.55258" lon="2.78991">
        <ele>987.5</ele>
        <time>2021-06-30T14:28:51.000+02:00</time>
      </trkpt>
      <trkpt lat="43.55257" lon="2.78992">
        <ele>987.4</ele>
        <time>2021-06-30T14:28:52.000+02:00</time>
      </trkpt>
      <trkpt lat="43.55256" lon="2.78994">
        <ele>987.2</ele>
        <time>2021-06-30T14:28:53.000+02:00</time>
      </trkpt>
      <trkpt lat="43.55256" lon="2.78995">
        <ele>987.1</ele>
        <time>2021-06-30T14:28:54.000+02:00</time>
      </trkpt>
      <trkpt lat="43.55256" lon="2.78996">
        <ele>986.9</ele>
        <time>2021-06-30T14:28:55.000+02:00</time>
      </trkpt>
      <trkpt lat="43.55255" lon="2.78998">
        <ele>986.7</ele>
        <time>2021-06-30T14:28:56.000+02:00</time>
      </trkpt>
      <trkpt lat="43.55255" lon="2.78999">
        <ele>986.6</ele>
        <time>2021-06-30T14:28:57.000+02:00</time>
      </trkpt>
      <trkpt lat="43.55254" lon="2.79">
        <ele>986.5</ele>
        <time>2021-06-30T14:28:58.000+02:00</time>
      </trkpt>
      <trkpt lat="43.55254" lon="2.79001">
        <ele>986.5</ele>
        <time>2021-06-30T14:28:59.000+02:00</time>
      </trkpt>
      <trkpt lat="43.55254" lon="2.79002">
        <ele>986.5</ele>
        <time>2021-06-30T14:29:00.000+02:00</time>
      </trkpt>
      <trkpt lat="43.55253" lon="2.79004">
        <ele>986.4</ele>
        <time>2021-06-30T14:29:01.000+02:00</time>
      </trkpt>
      <trkpt lat="43.55253" lon="2.79005">
        <ele>986.4</ele>
        <time>2021-06-30T14:29:02.000+02:00</time>
      </trkpt>
      <trkpt lat="43.55253" lon="2.79006">
        <ele>986.3</ele>
        <time>2021-06-30T14:29:03.000+02:00</time>
      </trkpt>
      <trkpt lat="43.55252" lon="2.79008">
        <ele>986.3</ele>
        <time>2021-06-30T14:29:04.000+02:00</time>
      </trkpt>
      <trkpt lat="43.55252" lon="2.79009">
        <ele>986.2</ele>
        <time>2021-06-30T14:29:05.000+02:00</time>
      </trkpt>
      <trkpt lat="43.55251" lon="2.7901">
        <ele>986.2</ele>
        <time>2021-06-30T14:29:06.000+02:00</time>
      </trkpt>
      <trkpt lat="43.55251" lon="2.79011">
        <ele>986.2</ele>
        <time>2021-06-30T14:29:07.000+02:00</time>
      </trkpt>
      <trkpt lat="43.55251" lon="2.79013">
        <ele>986.2</ele>
        <time>2021-06-30T14:29:08.000+02:00</time>
      </trkpt>
      <trkpt lat="43.5525" lon="2.79014">
        <ele>986.1</ele>
        <time>2021-06-30T14:29:09.000+02:00</time>
      </trkpt>
      <trkpt lat="43.5525" lon="2.79015">
        <ele>986.1</ele>
        <time>2021-06-30T14:29:10.000+02:00</time>
      </trkpt>
      <trkpt lat="43.55249" lon="2.79016">
        <ele>986.1</ele>
        <time>2021-06-30T14:29:11.000+02:00</time>
      </trkpt>
      <trkpt lat="43.55249" lon="2.79017">
        <ele>986</ele>
        <time>2021-06-30T14:29:12.000+02:00</time>
      </trkpt>
      <trkpt lat="43.55248" lon="2.79019">
        <ele>986</ele>
        <time>2021-06-30T14:29:13.000+02:00</time>
      </trkpt>
      <trkpt lat="43.55248" lon="2.7902">
        <ele>985.9</ele>
        <time>2021-06-30T14:29:14.000+02:00</time>
      </trkpt>
      <trkpt lat="43.55247" lon="2.79021">
        <ele>985.8</ele>
        <time>2021-06-30T14:29:15.000+02:00</time>
      </trkpt>
      <trkpt lat="43.55247" lon="2.79023">
        <ele>985.8</ele>
        <time>2021-06-30T14:29:16.000+02:00</time>
      </trkpt>
      <trkpt lat="43.55246" lon="2.79024">
        <ele>985.7</ele>
        <time>2021-06-30T14:29:17.000+02:00</time>
      </trkpt>
      <trkpt lat="43.55246" lon="2.79025">
        <ele>985.7</ele>
        <time>2021-06-30T14:29:18.000+02:00</time>
      </trkpt>
      <trkpt lat="43.55246" lon="2.79026">
        <ele>985.6</ele>
        <time>2021-06-30T14:29:19.000+02:00</time>
      </trkpt>
      <trkpt lat="43.55245" lon="2.79028">
        <ele>985.5</ele>
        <time>2021-06-30T14:29:20.000+02:00</time>
      </trkpt>
      <trkpt lat="43.55244" lon="2.79029">
        <ele>985.5</ele>
        <time>2021-06-30T14:29:21.000+02:00</time>
      </trkpt>
      <trkpt lat="43.55244" lon="2.79031">
        <ele>985.4</ele>
        <time>2021-06-30T14:29:22.000+02:00</time>
      </trkpt>
      <trkpt lat="43.55243" lon="2.79032">
        <ele>985.3</ele>
        <time>2021-06-30T14:29:23.000+02:00</time>
      </trkpt>
      <trkpt lat="43.55243" lon="2.79033">
        <ele>985.2</ele>
        <time>2021-06-30T14:29:24.000+02:00</time>
      </trkpt>
      <trkpt lat="43.55242" lon="2.79035">
        <ele>985.2</ele>
        <time>2021-06-30T14:29:25.000+02:00</time>
      </trkpt>
      <trkpt lat="43.55242" lon="2.79036">
        <ele>985.1</ele>
        <time>2021-06-30T14:29:26.000+02:00</time>
      </trkpt>
      <trkpt lat="43.55241" lon="2.79037">
        <ele>985.1</ele>
        <time>2021-06-30T14:29:27.000+02:00</time>
      </trkpt>
      <trkpt lat="43.5524" lon="2.79039">
        <ele>985</ele>
        <time>2021-06-30T14:29:28.000+02:00</time>
      </trkpt>
      <trkpt lat="43.5524" lon="2.7904">
        <ele>984.9</ele>
        <time>2021-06-30T14:29:29.000+02:00</time>
      </trkpt>
      <trkpt lat="43.55239" lon="2.79041">
        <ele>984.9</ele>
        <time>2021-06-30T14:29:30.000+02:00</time>
      </trkpt>
      <trkpt lat="43.55239" lon="2.79042">
        <ele>984.8</ele>
        <time>2021-06-30T14:29:31.000+02:00</time>
      </trkpt>
      <trkpt lat="43.55238" lon="2.79043">
        <ele>984.8</ele>
        <time>2021-06-30T14:29:32.000+02:00</time>
      </trkpt>
      <trkpt lat="43.55237" lon="2.79044">
        <ele>984.7</ele>
        <time>2021-06-30T14:29:33.000+02:00</time>
      </trkpt>
      <trkpt lat="43.55237" lon="2.79045">
        <ele>984.7</ele>
        <time>2021-06-30T14:29:34.000+02:00</time>
      </trkpt>
      <trkpt lat="43.55237" lon="2.79045">
        <ele>984.6</ele>
        <time>2021-06-30T14:29:35.000+02:00</time>
      </trkpt>
      <trkpt lat="43.55236" lon="2.79045">
        <ele>984.7</ele>
        <time>2021-06-30T14:29:36.000+02:00</time>
      </trkpt>
      <trkpt lat="43.55236" lon="2.79045">
        <ele>984.7</ele>
        <time>2021-06-30T14:29:37.000+02:00</time>
      </trkpt>
      <trkpt lat="43.55236" lon="2.79045">
        <ele>984.7</ele>
        <time>2021-06-30T14:29:38.000+02:00</time>
      </trkpt>
      <trkpt lat="43.55236" lon="2.79045">
        <ele>984.7</ele>
        <time>2021-06-30T14:29:39.000+02:00</time>
      </trkpt>
      <trkpt lat="43.55236" lon="2.79045">
        <ele>984.7</ele>
        <time>2021-06-30T14:29:40.000+02:00</time>
      </trkpt>
      <trkpt lat="43.55236" lon="2.79045">
        <ele>984.7</ele>
        <time>2021-06-30T14:29:41.000+02:00</time>
      </trkpt>
      <trkpt lat="43.55236" lon="2.79045">
        <ele>984.7</ele>
        <time>2021-06-30T14:29:42.000+02:00</time>
      </trkpt>
      <trkpt lat="43.55236" lon="2.79045">
        <ele>984.7</ele>
        <time>2021-06-30T14:29:43.000+02:00</time>
      </trkpt>
      <trkpt lat="43.55236" lon="2.79045">
        <ele>984.7</ele>
        <time>2021-06-30T14:29:44.000+02:00</time>
      </trkpt>
      <trkpt lat="43.55236" lon="2.79045">
        <ele>984.7</ele>
        <time>2021-06-30T14:29:45.000+02:00</time>
      </trkpt>
      <trkpt lat="43.55236" lon="2.79045">
        <ele>984.7</ele>
        <time>2021-06-30T14:29:46.000+02:00</time>
      </trkpt>
      <trkpt lat="43.55236" lon="2.79045">
        <ele>984.7</ele>
        <time>2021-06-30T14:29:47.000+02:00</time>
      </trkpt>
      <trkpt lat="43.55236" lon="2.79045">
        <ele>984.7</ele>
        <time>2021-06-30T14:29:48.000+02:00</time>
      </trkpt>
      <trkpt lat="43.55236" lon="2.79045">
        <ele>984.7</ele>
        <time>2021-06-30T14:29:49.000+02:00</time>
      </trkpt>
      <trkpt lat="43.55236" lon="2.79045">
        <ele>984.7</ele>
        <time>2021-06-30T14:29:50.000+02:00</time>
      </trkpt>
      <trkpt lat="43.55236" lon="2.79045">
        <ele>984.7</ele>
        <time>2021-06-30T14:29:51.000+02:00</time>
      </trkpt>
      <trkpt lat="43.55236" lon="2.79045">
        <ele>984.7</ele>
        <time>2021-06-30T14:29:52.000+02:00</time>
      </trkpt>
      <trkpt lat="43.55236" lon="2.79045">
        <ele>984.7</ele>
        <time>2021-06-30T14:29:53.000+02:00</time>
      </trkpt>
      <trkpt lat="43.55236" lon="2.79045">
        <ele>984.7</ele>
        <time>2021-06-30T14:29:54.000+02:00</time>
      </trkpt>
      <trkpt lat="43.55236" lon="2.79045">
        <ele>984.7</ele>
        <time>2021-06-30T14:29:55.000+02:00</time>
      </trkpt>
      <trkpt lat="43.55236" lon="2.79046">
        <ele>984.7</ele>
        <time>2021-06-30T14:29:56.000+02:00</time>
      </trkpt>
      <trkpt lat="43.55235" lon="2.79046">
        <ele>984.6</ele>
        <time>2021-06-30T14:29:57.000+02:00</time>
      </trkpt>
      <trkpt lat="43.55235" lon="2.79046">
        <ele>984.6</ele>
        <time>2021-06-30T14:29:58.000+02:00</time>
      </trkpt>
      <trkpt lat="43.55235" lon="2.79047">
        <ele>984.6</ele>
        <time>2021-06-30T14:29:59.000+02:00</time>
      </trkpt>
      <trkpt lat="43.55234" lon="2.79048">
        <ele>984.5</ele>
        <time>2021-06-30T14:30:00.000+02:00</time>
      </trkpt>
      <trkpt lat="43.55235" lon="2.79049">
        <ele>984.4</ele>
        <time>2021-06-30T14:30:01.000+02:00</time>
      </trkpt>
      <trkpt lat="43.55236" lon="2.7905">
        <ele>984.4</ele>
        <time>2021-06-30T14:30:02.000+02:00</time>
      </trkpt>
      <trkpt lat="43.55236" lon="2.79049">
        <ele>984.4</ele>
        <time>2021-06-30T14:30:03.000+02:00</time>
      </trkpt>
      <trkpt lat="43.55235" lon="2.79051">
        <ele>984.3</ele>
        <time>2021-06-30T14:30:04.000+02:00</time>
      </trkpt>
      <trkpt lat="43.55236" lon="2.79052">
        <ele>984.2</ele>
        <time>2021-06-30T14:30:05.000+02:00</time>
      </trkpt>
      <trkpt lat="43.55235" lon="2.79053">
        <ele>984.2</ele>
        <time>2021-06-30T14:30:06.000+02:00</time>
      </trkpt>
      <trkpt lat="43.55235" lon="2.79053">
        <ele>984.1</ele>
        <time>2021-06-30T14:30:07.000+02:00</time>
      </trkpt>
      <trkpt lat="43.55235" lon="2.79054">
        <ele>984.1</ele>
        <time>2021-06-30T14:30:08.000+02:00</time>
      </trkpt>
      <trkpt lat="43.55234" lon="2.79054">
        <ele>984.1</ele>
        <time>2021-06-30T14:30:09.000+02:00</time>
      </trkpt>
      <trkpt lat="43.55234" lon="2.79053">
        <ele>984.1</ele>
        <time>2021-06-30T14:30:10.000+02:00</time>
      </trkpt>
      <trkpt lat="43.55234" lon="2.79055">
        <ele>984.1</ele>
        <time>2021-06-30T14:30:11.000+02:00</time>
      </trkpt>
      <trkpt lat="43.55233" lon="2.79056">
        <ele>984</ele>
        <time>2021-06-30T14:30:12.000+02:00</time>
      </trkpt>
      <trkpt lat="43.55233" lon="2.79057">
        <ele>983.9</ele>
        <time>2021-06-30T14:30:13.000+02:00</time>
      </trkpt>
      <trkpt lat="43.55233" lon="2.79059">
        <ele>983.8</ele>
        <time>2021-06-30T14:30:14.000+02:00</time>
      </trkpt>
      <trkpt lat="43.55232" lon="2.79061">
        <ele>983.7</ele>
        <time>2021-06-30T14:30:15.000+02:00</time>
      </trkpt>
      <trkpt lat="43.55232" lon="2.79062">
        <ele>983.6</ele>
        <time>2021-06-30T14:30:16.000+02:00</time>
      </trkpt>
      <trkpt lat="43.55231" lon="2.79063">
        <ele>983.5</ele>
        <time>2021-06-30T14:30:17.000+02:00</time>
      </trkpt>
      <trkpt lat="43.5523" lon="2.79064">
        <ele>983.5</ele>
        <time>2021-06-30T14:30:18.000+02:00</time>
      </trkpt>
      <trkpt lat="43.5523" lon="2.79065">
        <ele>983.4</ele>
        <time>2021-06-30T14:30:19.000+02:00</time>
      </trkpt>
      <trkpt lat="43.5523" lon="2.79066">
        <ele>983.3</ele>
        <time>2021-06-30T14:30:20.000+02:00</time>
      </trkpt>
      <trkpt lat="43.5523" lon="2.79067">
        <ele>983.2</ele>
        <time>2021-06-30T14:30:21.000+02:00</time>
      </trkpt>
      <trkpt lat="43.55229" lon="2.79068">
        <ele>983.1</ele>
        <time>2021-06-30T14:30:22.000+02:00</time>
      </trkpt>
      <trkpt lat="43.55229" lon="2.79069">
        <ele>983.1</ele>
        <time>2021-06-30T14:30:23.000+02:00</time>
      </trkpt>
      <trkpt lat="43.55229" lon="2.7907">
        <ele>983</ele>
        <time>2021-06-30T14:30:24.000+02:00</time>
      </trkpt>
      <trkpt lat="43.55229" lon="2.79071">
        <ele>982.9</ele>
        <time>2021-06-30T14:30:25.000+02:00</time>
      </trkpt>
      <trkpt lat="43.55229" lon="2.7907">
        <ele>983</ele>
        <time>2021-06-30T14:30:26.000+02:00</time>
      </trkpt>
      <trkpt lat="43.55229" lon="2.79071">
        <ele>983</ele>
        <time>2021-06-30T14:30:27.000+02:00</time>
      </trkpt>
      <trkpt lat="43.55229" lon="2.79071">
        <ele>982.9</ele>
        <time>2021-06-30T14:30:28.000+02:00</time>
      </trkpt>
      <trkpt lat="43.5523" lon="2.79072">
        <ele>982.8</ele>
        <time>2021-06-30T14:30:29.000+02:00</time>
      </trkpt>
      <trkpt lat="43.5523" lon="2.79074">
        <ele>982.7</ele>
        <time>2021-06-30T14:30:30.000+02:00</time>
      </trkpt>
      <trkpt lat="43.5523" lon="2.79075">
        <ele>982.6</ele>
        <time>2021-06-30T14:30:31.000+02:00</time>
      </trkpt>
      <trkpt lat="43.55231" lon="2.79077">
        <ele>982.5</ele>
        <time>2021-06-30T14:30:32.000+02:00</time>
      </trkpt>
      <trkpt lat="43.5523" lon="2.79079">
        <ele>982.3</ele>
        <time>2021-06-30T14:30:33.000+02:00</time>
      </trkpt>
      <trkpt lat="43.55229" lon="2.79083">
        <ele>982</ele>
        <time>2021-06-30T14:30:34.000+02:00</time>
      </trkpt>
      <trkpt lat="43.55227" lon="2.79084">
        <ele>982</ele>
        <time>2021-06-30T14:30:35.000+02:00</time>
      </trkpt>
      <trkpt lat="43.55227" lon="2.79084">
        <ele>982</ele>
        <time>2021-06-30T14:30:36.000+02:00</time>
      </trkpt>
      <trkpt lat="43.55229" lon="2.79084">
        <ele>982</ele>
        <time>2021-06-30T14:30:37.000+02:00</time>
      </trkpt>
      <trkpt lat="43.55228" lon="2.79083">
        <ele>982</ele>
        <time>2021-06-30T14:30:38.000+02:00</time>
      </trkpt>
      <trkpt lat="43.55227" lon="2.79083">
        <ele>982.1</ele>
        <time>2021-06-30T14:30:39.000+02:00</time>
      </trkpt>
      <trkpt lat="43.55227" lon="2.79083">
        <ele>982</ele>
        <time>2021-06-30T14:30:40.000+02:00</time>
      </trkpt>
      <trkpt lat="43.55227" lon="2.79083">
        <ele>982</ele>
        <time>2021-06-30T14:30:41.000+02:00</time>
      </trkpt>
      <trkpt lat="43.55226" lon="2.79083">
        <ele>982</ele>
        <time>2021-06-30T14:30:42.000+02:00</time>
      </trkpt>
      <trkpt lat="43.55226" lon="2.79083">
        <ele>982</ele>
        <time>2021-06-30T14:30:43.000+02:00</time>
      </trkpt>
      <trkpt lat="43.55223" lon="2.79079">
        <ele>982.4</ele>
        <time>2021-06-30T14:30:44.000+02:00</time>
      </trkpt>
      <trkpt lat="43.55221" lon="2.79078">
        <ele>982.5</ele>
        <time>2021-06-30T14:30:45.000+02:00</time>
      </trkpt>
      <trkpt lat="43.55222" lon="2.79077">
        <ele>982.5</ele>
        <time>2021-06-30T14:30:46.000+02:00</time>
      </trkpt>
      <trkpt lat="43.55221" lon="2.79077">
        <ele>982.5</ele>
        <time>2021-06-30T14:30:47.000+02:00</time>
      </trkpt>
      <trkpt lat="43.5522" lon="2.79078">
        <ele>982.4</ele>
        <time>2021-06-30T14:30:48.000+02:00</time>
      </trkpt>
      <trkpt lat="43.5522" lon="2.79081">
        <ele>982.2</ele>
        <time>2021-06-30T14:30:49.000+02:00</time>
      </trkpt>
      <trkpt lat="43.55221" lon="2.79083">
        <ele>982</ele>
        <time>2021-06-30T14:30:50.000+02:00</time>
      </trkpt>
      <trkpt lat="43.5522" lon="2.79085">
        <ele>981.9</ele>
        <time>2021-06-30T14:30:51.000+02:00</time>
      </trkpt>
      <trkpt lat="43.5522" lon="2.79086">
        <ele>981.8</ele>
        <time>2021-06-30T14:30:52.000+02:00</time>
      </trkpt>
      <trkpt lat="43.55219" lon="2.79087">
        <ele>981.8</ele>
        <time>2021-06-30T14:30:53.000+02:00</time>
      </trkpt>
      <trkpt lat="43.55219" lon="2.79088">
        <ele>981.8</ele>
        <time>2021-06-30T14:30:54.000+02:00</time>
      </trkpt>
      <trkpt lat="43.55219" lon="2.7909">
        <ele>981.7</ele>
        <time>2021-06-30T14:30:55.000+02:00</time>
      </trkpt>
      <trkpt lat="43.55218" lon="2.79091">
        <ele>981.6</ele>
        <time>2021-06-30T14:30:56.000+02:00</time>
      </trkpt>
      <trkpt lat="43.55218" lon="2.79092">
        <ele>981.5</ele>
        <time>2021-06-30T14:30:57.000+02:00</time>
      </trkpt>
      <trkpt lat="43.55218" lon="2.79094">
        <ele>981.4</ele>
        <time>2021-06-30T14:30:58.000+02:00</time>
      </trkpt>
      <trkpt lat="43.55217" lon="2.79095">
        <ele>981.4</ele>
        <time>2021-06-30T14:30:59.000+02:00</time>
      </trkpt>
      <trkpt lat="43.55217" lon="2.79097">
        <ele>981.3</ele>
        <time>2021-06-30T14:31:00.000+02:00</time>
      </trkpt>
      <trkpt lat="43.55216" lon="2.79098">
        <ele>981.2</ele>
        <time>2021-06-30T14:31:01.000+02:00</time>
      </trkpt>
      <trkpt lat="43.55216" lon="2.79099">
        <ele>981.1</ele>
        <time>2021-06-30T14:31:02.000+02:00</time>
      </trkpt>
      <trkpt lat="43.55215" lon="2.79101">
        <ele>981.1</ele>
        <time>2021-06-30T14:31:03.000+02:00</time>
      </trkpt>
      <trkpt lat="43.55214" lon="2.79102">
        <ele>981</ele>
        <time>2021-06-30T14:31:04.000+02:00</time>
      </trkpt>
      <trkpt lat="43.55214" lon="2.79103">
        <ele>980.9</ele>
        <time>2021-06-30T14:31:05.000+02:00</time>
      </trkpt>
      <trkpt lat="43.55214" lon="2.79105">
        <ele>980.9</ele>
        <time>2021-06-30T14:31:06.000+02:00</time>
      </trkpt>
      <trkpt lat="43.55214" lon="2.79105">
        <ele>980.8</ele>
        <time>2021-06-30T14:31:07.000+02:00</time>
      </trkpt>
      <trkpt lat="43.55214" lon="2.79106">
        <ele>980.8</ele>
        <time>2021-06-30T14:31:08.000+02:00</time>
      </trkpt>
      <trkpt lat="43.55214" lon="2.79108">
        <ele>980.7</ele>
        <time>2021-06-30T14:31:09.000+02:00</time>
      </trkpt>
      <trkpt lat="43.55213" lon="2.79108">
        <ele>980.7</ele>
        <time>2021-06-30T14:31:10.000+02:00</time>
      </trkpt>
      <trkpt lat="43.55213" lon="2.7911">
        <ele>980.6</ele>
        <time>2021-06-30T14:31:11.000+02:00</time>
      </trkpt>
      <trkpt lat="43.55213" lon="2.79111">
        <ele>980.5</ele>
        <time>2021-06-30T14:31:12.000+02:00</time>
      </trkpt>
      <trkpt lat="43.55213" lon="2.79112">
        <ele>980.4</ele>
        <time>2021-06-30T14:31:13.000+02:00</time>
      </trkpt>
      <trkpt lat="43.55213" lon="2.79114">
        <ele>980.4</ele>
        <time>2021-06-30T14:31:14.000+02:00</time>
      </trkpt>
      <trkpt lat="43.55213" lon="2.79116">
        <ele>980.3</ele>
        <time>2021-06-30T14:31:15.000+02:00</time>
      </trkpt>
      <trkpt lat="43.55213" lon="2.79117">
        <ele>980.2</ele>
        <time>2021-06-30T14:31:16.000+02:00</time>
      </trkpt>
      <trkpt lat="43.55213" lon="2.79117">
        <ele>980.2</ele>
        <time>2021-06-30T14:31:17.000+02:00</time>
      </trkpt>
      <trkpt lat="43.55213" lon="2.79118">
        <ele>980.2</ele>
        <time>2021-06-30T14:31:18.000+02:00</time>
      </trkpt>
      <trkpt lat="43.55213" lon="2.79119">
        <ele>980.1</ele>
        <time>2021-06-30T14:31:19.000+02:00</time>
      </trkpt>
      <trkpt lat="43.55213" lon="2.7912">
        <ele>980</ele>
        <time>2021-06-30T14:31:20.000+02:00</time>
      </trkpt>
      <trkpt lat="43.55213" lon="2.79121">
        <ele>980</ele>
        <time>2021-06-30T14:31:21.000+02:00</time>
      </trkpt>
      <trkpt lat="43.55213" lon="2.79122">
        <ele>980</ele>
        <time>2021-06-30T14:31:22.000+02:00</time>
      </trkpt>
      <trkpt lat="43.55213" lon="2.79122">
        <ele>979.9</ele>
        <time>2021-06-30T14:31:23.000+02:00</time>
      </trkpt>
      <trkpt lat="43.55213" lon="2.79123">
        <ele>979.9</ele>
        <time>2021-06-30T14:31:24.000+02:00</time>
      </trkpt>
      <trkpt lat="43.55213" lon="2.79123">
        <ele>979.9</ele>
        <time>2021-06-30T14:31:25.000+02:00</time>
      </trkpt>
      <trkpt lat="43.55212" lon="2.79124">
        <ele>979.8</ele>
        <time>2021-06-30T14:31:26.000+02:00</time>
      </trkpt>
      <trkpt lat="43.55212" lon="2.79126">
        <ele>979.7</ele>
        <time>2021-06-30T14:31:27.000+02:00</time>
      </trkpt>
      <trkpt lat="43.55212" lon="2.79125">
        <ele>979.7</ele>
        <time>2021-06-30T14:31:28.000+02:00</time>
      </trkpt>
      <trkpt lat="43.55212" lon="2.79125">
        <ele>979.8</ele>
        <time>2021-06-30T14:31:29.000+02:00</time>
      </trkpt>
      <trkpt lat="43.55212" lon="2.79125">
        <ele>979.8</ele>
        <time>2021-06-30T14:31:30.000+02:00</time>
      </trkpt>
      <trkpt lat="43.55212" lon="2.79126">
        <ele>979.7</ele>
        <time>2021-06-30T14:31:31.000+02:00</time>
      </trkpt>
      <trkpt lat="43.55211" lon="2.79127">
        <ele>979.7</ele>
        <time>2021-06-30T14:31:32.000+02:00</time>
      </trkpt>
      <trkpt lat="43.55211" lon="2.79128">
        <ele>979.6</ele>
        <time>2021-06-30T14:31:33.000+02:00</time>
      </trkpt>
      <trkpt lat="43.55211" lon="2.79129">
        <ele>979.6</ele>
        <time>2021-06-30T14:31:34.000+02:00</time>
      </trkpt>
      <trkpt lat="43.5521" lon="2.79129">
        <ele>979.5</ele>
        <time>2021-06-30T14:31:35.000+02:00</time>
      </trkpt>
      <trkpt lat="43.5521" lon="2.7913">
        <ele>979.5</ele>
        <time>2021-06-30T14:31:36.000+02:00</time>
      </trkpt>
      <trkpt lat="43.55209" lon="2.79131">
        <ele>979.4</ele>
        <time>2021-06-30T14:31:37.000+02:00</time>
      </trkpt>
      <trkpt lat="43.55208" lon="2.79133">
        <ele>979.3</ele>
        <time>2021-06-30T14:31:38.000+02:00</time>
      </trkpt>
      <trkpt lat="43.55208" lon="2.79133">
        <ele>979.3</ele>
        <time>2021-06-30T14:31:39.000+02:00</time>
      </trkpt>
      <trkpt lat="43.55207" lon="2.79135">
        <ele>979.2</ele>
        <time>2021-06-30T14:31:40.000+02:00</time>
      </trkpt>
      <trkpt lat="43.55207" lon="2.79136">
        <ele>979.1</ele>
        <time>2021-06-30T14:31:41.000+02:00</time>
      </trkpt>
      <trkpt lat="43.55206" lon="2.79136">
        <ele>979.1</ele>
        <time>2021-06-30T14:31:42.000+02:00</time>
      </trkpt>
      <trkpt lat="43.55206" lon="2.79138">
        <ele>979.1</ele>
        <time>2021-06-30T14:31:43.000+02:00</time>
      </trkpt>
      <trkpt lat="43.55205" lon="2.7914">
        <ele>978.9</ele>
        <time>2021-06-30T14:31:44.000+02:00</time>
      </trkpt>
      <trkpt lat="43.55204" lon="2.7914">
        <ele>978.9</ele>
        <time>2021-06-30T14:31:45.000+02:00</time>
      </trkpt>
      <trkpt lat="43.55204" lon="2.79141">
        <ele>978.9</ele>
        <time>2021-06-30T14:31:46.000+02:00</time>
      </trkpt>
      <trkpt lat="43.55204" lon="2.79141">
        <ele>978.9</ele>
        <time>2021-06-30T14:31:47.000+02:00</time>
      </trkpt>
      <trkpt lat="43.55203" lon="2.79142">
        <ele>978.8</ele>
        <time>2021-06-30T14:31:48.000+02:00</time>
      </trkpt>
      <trkpt lat="43.55202" lon="2.79142">
        <ele>978.8</ele>
        <time>2021-06-30T14:31:49.000+02:00</time>
      </trkpt>
      <trkpt lat="43.552" lon="2.79141">
        <ele>978.8</ele>
        <time>2021-06-30T14:31:50.000+02:00</time>
      </trkpt>
      <trkpt lat="43.552" lon="2.79141">
        <ele>978.8</ele>
        <time>2021-06-30T14:31:51.000+02:00</time>
      </trkpt>
      <trkpt lat="43.552" lon="2.79141">
        <ele>978.8</ele>
        <time>2021-06-30T14:31:52.000+02:00</time>
      </trkpt>
      <trkpt lat="43.552" lon="2.79141">
        <ele>978.8</ele>
        <time>2021-06-30T14:31:53.000+02:00</time>
      </trkpt>
      <trkpt lat="43.552" lon="2.79141">
        <ele>978.8</ele>
        <time>2021-06-30T14:31:54.000+02:00</time>
      </trkpt>
      <trkpt lat="43.552" lon="2.79141">
        <ele>978.8</ele>
        <time>2021-06-30T14:31:55.000+02:00</time>
      </trkpt>
      <trkpt lat="43.552" lon="2.7914">
        <ele>978.8</ele>
        <time>2021-06-30T14:31:56.000+02:00</time>
      </trkpt>
      <trkpt lat="43.552" lon="2.7914">
        <ele>978.8</ele>
        <time>2021-06-30T14:31:57.000+02:00</time>
      </trkpt>
      <trkpt lat="43.552" lon="2.7914">
        <ele>978.9</ele>
        <time>2021-06-30T14:31:58.000+02:00</time>
      </trkpt>
      <trkpt lat="43.55199" lon="2.7914">
        <ele>978.9</ele>
        <time>2021-06-30T14:31:59.000+02:00</time>
      </trkpt>
      <trkpt lat="43.55199" lon="2.7914">
        <ele>978.9</ele>
        <time>2021-06-30T14:32:00.000+02:00</time>
      </trkpt>
      <trkpt lat="43.55199" lon="2.7914">
        <ele>978.9</ele>
        <time>2021-06-30T14:32:01.000+02:00</time>
      </trkpt>
      <trkpt lat="43.55199" lon="2.7914">
        <ele>978.9</ele>
        <time>2021-06-30T14:32:02.000+02:00</time>
      </trkpt>
      <trkpt lat="43.55199" lon="2.7914">
        <ele>978.9</ele>
        <time>2021-06-30T14:32:03.000+02:00</time>
      </trkpt>
      <trkpt lat="43.55199" lon="2.7914">
        <ele>978.9</ele>
        <time>2021-06-30T14:32:04.000+02:00</time>
      </trkpt>
      <trkpt lat="43.55199" lon="2.79139">
        <ele>978.9</ele>
        <time>2021-06-30T14:32:05.000+02:00</time>
      </trkpt>
      <trkpt lat="43.55198" lon="2.79139">
        <ele>978.9</ele>
        <time>2021-06-30T14:32:06.000+02:00</time>
      </trkpt>
      <trkpt lat="43.55198" lon="2.79139">
        <ele>978.9</ele>
        <time>2021-06-30T14:32:07.000+02:00</time>
      </trkpt>
      <trkpt lat="43.55198" lon="2.79138">
        <ele>978.9</ele>
        <time>2021-06-30T14:32:08.000+02:00</time>
      </trkpt>
      <trkpt lat="43.55198" lon="2.79138">
        <ele>979</ele>
        <time>2021-06-30T14:32:09.000+02:00</time>
      </trkpt>
      <trkpt lat="43.55198" lon="2.79138">
        <ele>979</ele>
        <time>2021-06-30T14:32:10.000+02:00</time>
      </trkpt>
      <trkpt lat="43.55198" lon="2.79138">
        <ele>979</ele>
        <time>2021-06-30T14:32:11.000+02:00</time>
      </trkpt>
      <trkpt lat="43.55198" lon="2.79137">
        <ele>979</ele>
        <time>2021-06-30T14:32:12.000+02:00</time>
      </trkpt>
      <trkpt lat="43.55198" lon="2.79136">
        <ele>979.1</ele>
        <time>2021-06-30T14:32:13.000+02:00</time>
      </trkpt>
      <trkpt lat="43.55198" lon="2.79135">
        <ele>979.1</ele>
        <time>2021-06-30T14:32:14.000+02:00</time>
      </trkpt>
      <trkpt lat="43.55198" lon="2.79135">
        <ele>979.1</ele>
        <time>2021-06-30T14:32:15.000+02:00</time>
      </trkpt>
      <trkpt lat="43.55198" lon="2.79135">
        <ele>979.1</ele>
        <time>2021-06-30T14:32:16.000+02:00</time>
      </trkpt>
      <trkpt lat="43.55198" lon="2.79135">
        <ele>979.1</ele>
        <time>2021-06-30T14:32:17.000+02:00</time>
      </trkpt>
      <trkpt lat="43.55198" lon="2.79135">
        <ele>979.1</ele>
        <time>2021-06-30T14:32:18.000+02:00</time>
      </trkpt>
      <trkpt lat="43.55198" lon="2.79135">
        <ele>979.1</ele>
        <time>2021-06-30T14:32:19.000+02:00</time>
      </trkpt>
      <trkpt lat="43.55198" lon="2.79135">
        <ele>979.1</ele>
        <time>2021-06-30T14:32:20.000+02:00</time>
      </trkpt>
      <trkpt lat="43.55198" lon="2.79135">
        <ele>979.1</ele>
        <time>2021-06-30T14:32:21.000+02:00</time>
      </trkpt>
      <trkpt lat="43.55198" lon="2.79135">
        <ele>979.1</ele>
        <time>2021-06-30T14:32:22.000+02:00</time>
      </trkpt>
      <trkpt lat="43.55198" lon="2.79134">
        <ele>979.2</ele>
        <time>2021-06-30T14:32:23.000+02:00</time>
      </trkpt>
      <trkpt lat="43.55198" lon="2.79134">
        <ele>979.2</ele>
        <time>2021-06-30T14:32:24.000+02:00</time>
      </trkpt>
      <trkpt lat="43.55199" lon="2.79133">
        <ele>979.2</ele>
        <time>2021-06-30T14:32:25.000+02:00</time>
      </trkpt>
      <trkpt lat="43.552" lon="2.79133">
        <ele>979.3</ele>
        <time>2021-06-30T14:32:26.000+02:00</time>
      </trkpt>
      <trkpt lat="43.552" lon="2.79132">
        <ele>979.3</ele>
        <time>2021-06-30T14:32:27.000+02:00</time>
      </trkpt>
      <trkpt lat="43.552" lon="2.79132">
        <ele>979.3</ele>
        <time>2021-06-30T14:32:28.000+02:00</time>
      </trkpt>
      <trkpt lat="43.55201" lon="2.79132">
        <ele>979.3</ele>
        <time>2021-06-30T14:32:29.000+02:00</time>
      </trkpt>
      <trkpt lat="43.55201" lon="2.79133">
        <ele>979.3</ele>
        <time>2021-06-30T14:32:30.000+02:00</time>
      </trkpt>
      <trkpt lat="43.55201" lon="2.79133">
        <ele>979.3</ele>
        <time>2021-06-30T14:32:31.000+02:00</time>
      </trkpt>
      <trkpt lat="43.55202" lon="2.79133">
        <ele>979.3</ele>
        <time>2021-06-30T14:32:32.000+02:00</time>
      </trkpt>
      <trkpt lat="43.55202" lon="2.79134">
        <ele>979.2</ele>
        <time>2021-06-30T14:32:33.000+02:00</time>
      </trkpt>
      <trkpt lat="43.55202" lon="2.79134">
        <ele>979.2</ele>
        <time>2021-06-30T14:32:34.000+02:00</time>
      </trkpt>
      <trkpt lat="43.55202" lon="2.79135">
        <ele>979.2</ele>
        <time>2021-06-30T14:32:35.000+02:00</time>
      </trkpt>
      <trkpt lat="43.55203" lon="2.79136">
        <ele>979.1</ele>
        <time>2021-06-30T14:32:36.000+02:00</time>
      </trkpt>
      <trkpt lat="43.55204" lon="2.79137">
        <ele>979.1</ele>
        <time>2021-06-30T14:32:37.000+02:00</time>
      </trkpt>
      <trkpt lat="43.55204" lon="2.79138">
        <ele>979</ele>
        <time>2021-06-30T14:32:38.000+02:00</time>
      </trkpt>
      <trkpt lat="43.55204" lon="2.79139">
        <ele>978.9</ele>
        <time>2021-06-30T14:32:39.000+02:00</time>
      </trkpt>
      <trkpt lat="43.55204" lon="2.79141">
        <ele>978.8</ele>
        <time>2021-06-30T14:32:40.000+02:00</time>
      </trkpt>
      <trkpt lat="43.55204" lon="2.79143">
        <ele>978.8</ele>
        <time>2021-06-30T14:32:41.000+02:00</time>
      </trkpt>
      <trkpt lat="43.55204" lon="2.79144">
        <ele>978.7</ele>
        <time>2021-06-30T14:32:42.000+02:00</time>
      </trkpt>
      <trkpt lat="43.55203" lon="2.79145">
        <ele>978.6</ele>
        <time>2021-06-30T14:32:43.000+02:00</time>
      </trkpt>
      <trkpt lat="43.55203" lon="2.79147">
        <ele>978.5</ele>
        <time>2021-06-30T14:32:44.000+02:00</time>
      </trkpt>
      <trkpt lat="43.55202" lon="2.79149">
        <ele>978.4</ele>
        <time>2021-06-30T14:32:45.000+02:00</time>
      </trkpt>
      <trkpt lat="43.55202" lon="2.7915">
        <ele>978.3</ele>
        <time>2021-06-30T14:32:46.000+02:00</time>
      </trkpt>
      <trkpt lat="43.55202" lon="2.79152">
        <ele>978.2</ele>
        <time>2021-06-30T14:32:47.000+02:00</time>
      </trkpt>
      <trkpt lat="43.55201" lon="2.79154">
        <ele>978.1</ele>
        <time>2021-06-30T14:32:48.000+02:00</time>
      </trkpt>
      <trkpt lat="43.552" lon="2.79155">
        <ele>978</ele>
        <time>2021-06-30T14:32:49.000+02:00</time>
      </trkpt>
      <trkpt lat="43.552" lon="2.79156">
        <ele>978</ele>
        <time>2021-06-30T14:32:50.000+02:00</time>
      </trkpt>
      <trkpt lat="43.55199" lon="2.79158">
        <ele>977.9</ele>
        <time>2021-06-30T14:32:51.000+02:00</time>
      </trkpt>
      <trkpt lat="43.55199" lon="2.79159">
        <ele>977.8</ele>
        <time>2021-06-30T14:32:52.000+02:00</time>
      </trkpt>
      <trkpt lat="43.55198" lon="2.79161">
        <ele>977.7</ele>
        <time>2021-06-30T14:32:53.000+02:00</time>
      </trkpt>
      <trkpt lat="43.55197" lon="2.79162">
        <ele>977.6</ele>
        <time>2021-06-30T14:32:54.000+02:00</time>
      </trkpt>
      <trkpt lat="43.55197" lon="2.79163">
        <ele>977.6</ele>
        <time>2021-06-30T14:32:55.000+02:00</time>
      </trkpt>
      <trkpt lat="43.55197" lon="2.79163">
        <ele>977.6</ele>
        <time>2021-06-30T14:32:56.000+02:00</time>
      </trkpt>
      <trkpt lat="43.55196" lon="2.79165">
        <ele>977.5</ele>
        <time>2021-06-30T14:32:57.000+02:00</time>
      </trkpt>
      <trkpt lat="43.55196" lon="2.79166">
        <ele>977.4</ele>
        <time>2021-06-30T14:32:58.000+02:00</time>
      </trkpt>
      <trkpt lat="43.55196" lon="2.79167">
        <ele>977.3</ele>
        <time>2021-06-30T14:32:59.000+02:00</time>
      </trkpt>
      <trkpt lat="43.55195" lon="2.79169">
        <ele>977.2</ele>
        <time>2021-06-30T14:33:00.000+02:00</time>
      </trkpt>
      <trkpt lat="43.55195" lon="2.79171">
        <ele>977.2</ele>
        <time>2021-06-30T14:33:01.000+02:00</time>
      </trkpt>
      <trkpt lat="43.55194" lon="2.79172">
        <ele>977.1</ele>
        <time>2021-06-30T14:33:02.000+02:00</time>
      </trkpt>
      <trkpt lat="43.55193" lon="2.79173">
        <ele>977.1</ele>
        <time>2021-06-30T14:33:03.000+02:00</time>
      </trkpt>
      <trkpt lat="43.55192" lon="2.79174">
        <ele>977.1</ele>
        <time>2021-06-30T14:33:04.000+02:00</time>
      </trkpt>
      <trkpt lat="43.55192" lon="2.79175">
        <ele>977</ele>
        <time>2021-06-30T14:33:05.000+02:00</time>
      </trkpt>
      <trkpt lat="43.55191" lon="2.79176">
        <ele>977</ele>
        <time>2021-06-30T14:33:06.000+02:00</time>
      </trkpt>
      <trkpt lat="43.55191" lon="2.79177">
        <ele>976.9</ele>
        <time>2021-06-30T14:33:07.000+02:00</time>
      </trkpt>
      <trkpt lat="43.5519" lon="2.79179">
        <ele>976.9</ele>
        <time>2021-06-30T14:33:08.000+02:00</time>
      </trkpt>
      <trkpt lat="43.5519" lon="2.79181">
        <ele>976.8</ele>
        <time>2021-06-30T14:33:09.000+02:00</time>
      </trkpt>
      <trkpt lat="43.55189" lon="2.79182">
        <ele>976.7</ele>
        <time>2021-06-30T14:33:10.000+02:00</time>
      </trkpt>
      <trkpt lat="43.55189" lon="2.79184">
        <ele>976.7</ele>
        <time>2021-06-30T14:33:11.000+02:00</time>
      </trkpt>
      <trkpt lat="43.55189" lon="2.79185">
        <ele>976.6</ele>
        <time>2021-06-30T14:33:12.000+02:00</time>
      </trkpt>
      <trkpt lat="43.55188" lon="2.79187">
        <ele>976.6</ele>
        <time>2021-06-30T14:33:13.000+02:00</time>
      </trkpt>
      <trkpt lat="43.55188" lon="2.79188">
        <ele>976.5</ele>
        <time>2021-06-30T14:33:14.000+02:00</time>
      </trkpt>
      <trkpt lat="43.55188" lon="2.7919">
        <ele>976.5</ele>
        <time>2021-06-30T14:33:15.000+02:00</time>
      </trkpt>
      <trkpt lat="43.55187" lon="2.79191">
        <ele>976.4</ele>
        <time>2021-06-30T14:33:16.000+02:00</time>
      </trkpt>
      <trkpt lat="43.55187" lon="2.79193">
        <ele>976.4</ele>
        <time>2021-06-30T14:33:17.000+02:00</time>
      </trkpt>
      <trkpt lat="43.55186" lon="2.79194">
        <ele>976.3</ele>
        <time>2021-06-30T14:33:18.000+02:00</time>
      </trkpt>
      <trkpt lat="43.55186" lon="2.79196">
        <ele>976.3</ele>
        <time>2021-06-30T14:33:19.000+02:00</time>
      </trkpt>
      <trkpt lat="43.55186" lon="2.79198">
        <ele>976.2</ele>
        <time>2021-06-30T14:33:20.000+02:00</time>
      </trkpt>
      <trkpt lat="43.55185" lon="2.79199">
        <ele>976.2</ele>
        <time>2021-06-30T14:33:21.000+02:00</time>
      </trkpt>
      <trkpt lat="43.55185" lon="2.79201">
        <ele>976.1</ele>
        <time>2021-06-30T14:33:22.000+02:00</time>
      </trkpt>
      <trkpt lat="43.55185" lon="2.79203">
        <ele>976.1</ele>
        <time>2021-06-30T14:33:23.000+02:00</time>
      </trkpt>
      <trkpt lat="43.55185" lon="2.79205">
        <ele>976</ele>
        <time>2021-06-30T14:33:24.000+02:00</time>
      </trkpt>
      <trkpt lat="43.55185" lon="2.79207">
        <ele>975.9</ele>
        <time>2021-06-30T14:33:25.000+02:00</time>
      </trkpt>
      <trkpt lat="43.55185" lon="2.79208">
        <ele>975.9</ele>
        <time>2021-06-30T14:33:26.000+02:00</time>
      </trkpt>
      <trkpt lat="43.55184" lon="2.79209">
        <ele>975.9</ele>
        <time>2021-06-30T14:33:27.000+02:00</time>
      </trkpt>
      <trkpt lat="43.55183" lon="2.7921">
        <ele>975.9</ele>
        <time>2021-06-30T14:33:28.000+02:00</time>
      </trkpt>
      <trkpt lat="43.55183" lon="2.79211">
        <ele>975.8</ele>
        <time>2021-06-30T14:33:29.000+02:00</time>
      </trkpt>
      <trkpt lat="43.55182" lon="2.79212">
        <ele>975.8</ele>
        <time>2021-06-30T14:33:30.000+02:00</time>
      </trkpt>
      <trkpt lat="43.55182" lon="2.79213">
        <ele>975.8</ele>
        <time>2021-06-30T14:33:31.000+02:00</time>
      </trkpt>
      <trkpt lat="43.55182" lon="2.79214">
        <ele>975.7</ele>
        <time>2021-06-30T14:33:32.000+02:00</time>
      </trkpt>
      <trkpt lat="43.55181" lon="2.79216">
        <ele>975.7</ele>
        <time>2021-06-30T14:33:33.000+02:00</time>
      </trkpt>
      <trkpt lat="43.55181" lon="2.79217">
        <ele>975.7</ele>
        <time>2021-06-30T14:33:34.000+02:00</time>
      </trkpt>
      <trkpt lat="43.5518" lon="2.79218">
        <ele>975.6</ele>
        <time>2021-06-30T14:33:35.000+02:00</time>
      </trkpt>
      <trkpt lat="43.5518" lon="2.79218">
        <ele>975.6</ele>
        <time>2021-06-30T14:33:36.000+02:00</time>
      </trkpt>
      <trkpt lat="43.5518" lon="2.79219">
        <ele>975.6</ele>
        <time>2021-06-30T14:33:37.000+02:00</time>
      </trkpt>
      <trkpt lat="43.55179" lon="2.7922">
        <ele>975.6</ele>
        <time>2021-06-30T14:33:38.000+02:00</time>
      </trkpt>
      <trkpt lat="43.55179" lon="2.79222">
        <ele>975.5</ele>
        <time>2021-06-30T14:33:39.000+02:00</time>
      </trkpt>
      <trkpt lat="43.55178" lon="2.79222">
        <ele>975.5</ele>
        <time>2021-06-30T14:33:40.000+02:00</time>
      </trkpt>
      <trkpt lat="43.55178" lon="2.79223">
        <ele>975.5</ele>
        <time>2021-06-30T14:33:41.000+02:00</time>
      </trkpt>
      <trkpt lat="43.55177" lon="2.79224">
        <ele>975.5</ele>
        <time>2021-06-30T14:33:42.000+02:00</time>
      </trkpt>
      <trkpt lat="43.55177" lon="2.79224">
        <ele>975.5</ele>
        <time>2021-06-30T14:33:43.000+02:00</time>
      </trkpt>
      <trkpt lat="43.55177" lon="2.79225">
        <ele>975.5</ele>
        <time>2021-06-30T14:33:44.000+02:00</time>
      </trkpt>
      <trkpt lat="43.55177" lon="2.79226">
        <ele>975.4</ele>
        <time>2021-06-30T14:33:45.000+02:00</time>
      </trkpt>
      <trkpt lat="43.55176" lon="2.79226">
        <ele>975.4</ele>
        <time>2021-06-30T14:33:46.000+02:00</time>
      </trkpt>
      <trkpt lat="43.55175" lon="2.79227">
        <ele>975.4</ele>
        <time>2021-06-30T14:33:47.000+02:00</time>
      </trkpt>
      <trkpt lat="43.55175" lon="2.79227">
        <ele>975.4</ele>
        <time>2021-06-30T14:33:48.000+02:00</time>
      </trkpt>
      <trkpt lat="43.55174" lon="2.79227">
        <ele>975.4</ele>
        <time>2021-06-30T14:33:49.000+02:00</time>
      </trkpt>
      <trkpt lat="43.55173" lon="2.79227">
        <ele>975.5</ele>
        <time>2021-06-30T14:33:50.000+02:00</time>
      </trkpt>
      <trkpt lat="43.55172" lon="2.79226">
        <ele>975.5</ele>
        <time>2021-06-30T14:33:51.000+02:00</time>
      </trkpt>
      <trkpt lat="43.5517" lon="2.79227">
        <ele>975.5</ele>
        <time>2021-06-30T14:33:52.000+02:00</time>
      </trkpt>
      <trkpt lat="43.55169" lon="2.79226">
        <ele>975.5</ele>
        <time>2021-06-30T14:33:53.000+02:00</time>
      </trkpt>
      <trkpt lat="43.55168" lon="2.79226">
        <ele>975.5</ele>
        <time>2021-06-30T14:33:54.000+02:00</time>
      </trkpt>
      <trkpt lat="43.55167" lon="2.79226">
        <ele>975.6</ele>
        <time>2021-06-30T14:33:55.000+02:00</time>
      </trkpt>
      <trkpt lat="43.55166" lon="2.79226">
        <ele>975.4</ele>
        <time>2021-06-30T14:33:56.000+02:00</time>
      </trkpt>
      <trkpt lat="43.55165" lon="2.79226">
        <ele>975.1</ele>
        <time>2021-06-30T14:33:57.000+02:00</time>
      </trkpt>
      <trkpt lat="43.55165" lon="2.79226">
        <ele>974.9</ele>
        <time>2021-06-30T14:33:58.000+02:00</time>
      </trkpt>
      <trkpt lat="43.55164" lon="2.79226">
        <ele>974.8</ele>
        <time>2021-06-30T14:33:59.000+02:00</time>
      </trkpt>
      <trkpt lat="43.55164" lon="2.79226">
        <ele>974.6</ele>
        <time>2021-06-30T14:34:00.000+02:00</time>
      </trkpt>
      <trkpt lat="43.55163" lon="2.79227">
        <ele>974.2</ele>
        <time>2021-06-30T14:34:01.000+02:00</time>
      </trkpt>
      <trkpt lat="43.55161" lon="2.79228">
        <ele>973.5</ele>
        <time>2021-06-30T14:34:02.000+02:00</time>
      </trkpt>
      <trkpt lat="43.55159" lon="2.79229">
        <ele>973</ele>
        <time>2021-06-30T14:34:03.000+02:00</time>
      </trkpt>
      <trkpt lat="43.55159" lon="2.79229">
        <ele>972.6</ele>
        <time>2021-06-30T14:34:04.000+02:00</time>
      </trkpt>
      <trkpt lat="43.55157" lon="2.79229">
        <ele>972.3</ele>
        <time>2021-06-30T14:34:05.000+02:00</time>
      </trkpt>
      <trkpt lat="43.55157" lon="2.79229">
        <ele>972.1</ele>
        <time>2021-06-30T14:34:06.000+02:00</time>
      </trkpt>
      <trkpt lat="43.55156" lon="2.79228">
        <ele>971.6</ele>
        <time>2021-06-30T14:34:07.000+02:00</time>
      </trkpt>
      <trkpt lat="43.55154" lon="2.79229">
        <ele>971.2</ele>
        <time>2021-06-30T14:34:08.000+02:00</time>
      </trkpt>
      <trkpt lat="43.55153" lon="2.79229">
        <ele>970.8</ele>
        <time>2021-06-30T14:34:09.000+02:00</time>
      </trkpt>
      <trkpt lat="43.55153" lon="2.79229">
        <ele>970.6</ele>
        <time>2021-06-30T14:34:10.000+02:00</time>
      </trkpt>
      <trkpt lat="43.55152" lon="2.79229">
        <ele>970.4</ele>
        <time>2021-06-30T14:34:11.000+02:00</time>
      </trkpt>
      <trkpt lat="43.55151" lon="2.79229">
        <ele>969.9</ele>
        <time>2021-06-30T14:34:12.000+02:00</time>
      </trkpt>
      <trkpt lat="43.55149" lon="2.79229">
        <ele>969.4</ele>
        <time>2021-06-30T14:34:13.000+02:00</time>
      </trkpt>
      <trkpt lat="43.55148" lon="2.79229">
        <ele>969.1</ele>
        <time>2021-06-30T14:34:14.000+02:00</time>
      </trkpt>
      <trkpt lat="43.55147" lon="2.79229">
        <ele>968.5</ele>
        <time>2021-06-30T14:34:15.000+02:00</time>
      </trkpt>
      <trkpt lat="43.55146" lon="2.79229">
        <ele>968.2</ele>
        <time>2021-06-30T14:34:16.000+02:00</time>
      </trkpt>
      <trkpt lat="43.55145" lon="2.79229">
        <ele>967.8</ele>
        <time>2021-06-30T14:34:17.000+02:00</time>
      </trkpt>
      <trkpt lat="43.55144" lon="2.79229">
        <ele>967.5</ele>
        <time>2021-06-30T14:34:18.000+02:00</time>
      </trkpt>
      <trkpt lat="43.55143" lon="2.79228">
        <ele>967.3</ele>
        <time>2021-06-30T14:34:19.000+02:00</time>
      </trkpt>
      <trkpt lat="43.55143" lon="2.79228">
        <ele>967.2</ele>
        <time>2021-06-30T14:34:20.000+02:00</time>
      </trkpt>
      <trkpt lat="43.55142" lon="2.79228">
        <ele>967.1</ele>
        <time>2021-06-30T14:34:21.000+02:00</time>
      </trkpt>
      <trkpt lat="43.55142" lon="2.79228">
        <ele>966.9</ele>
        <time>2021-06-30T14:34:22.000+02:00</time>
      </trkpt>
      <trkpt lat="43.55141" lon="2.79228">
        <ele>966.7</ele>
        <time>2021-06-30T14:34:23.000+02:00</time>
      </trkpt>
      <trkpt lat="43.55141" lon="2.79228">
        <ele>966.6</ele>
        <time>2021-06-30T14:34:24.000+02:00</time>
      </trkpt>
      <trkpt lat="43.55141" lon="2.79227">
        <ele>966.6</ele>
        <time>2021-06-30T14:34:25.000+02:00</time>
      </trkpt>
      <trkpt lat="43.55141" lon="2.79227">
        <ele>966.5</ele>
        <time>2021-06-30T14:34:26.000+02:00</time>
      </trkpt>
      <trkpt lat="43.5514" lon="2.79227">
        <ele>966.4</ele>
        <time>2021-06-30T14:34:27.000+02:00</time>
      </trkpt>
      <trkpt lat="43.5514" lon="2.79227">
        <ele>966.4</ele>
        <time>2021-06-30T14:34:28.000+02:00</time>
      </trkpt>
      <trkpt lat="43.5514" lon="2.79227">
        <ele>966.3</ele>
        <time>2021-06-30T14:34:29.000+02:00</time>
      </trkpt>
      <trkpt lat="43.55139" lon="2.79227">
        <ele>966</ele>
        <time>2021-06-30T14:34:30.000+02:00</time>
      </trkpt>
      <trkpt lat="43.55137" lon="2.79226">
        <ele>965.3</ele>
        <time>2021-06-30T14:34:31.000+02:00</time>
      </trkpt>
      <trkpt lat="43.55136" lon="2.79225">
        <ele>965.1</ele>
        <time>2021-06-30T14:34:32.000+02:00</time>
      </trkpt>
      <trkpt lat="43.55136" lon="2.79225">
        <ele>964.9</ele>
        <time>2021-06-30T14:34:33.000+02:00</time>
      </trkpt>
      <trkpt lat="43.55135" lon="2.79225">
        <ele>964.8</ele>
        <time>2021-06-30T14:34:34.000+02:00</time>
      </trkpt>
      <trkpt lat="43.55135" lon="2.79225">
        <ele>964.7</ele>
        <time>2021-06-30T14:34:35.000+02:00</time>
      </trkpt>
      <trkpt lat="43.55135" lon="2.79224">
        <ele>964.7</ele>
        <time>2021-06-30T14:34:36.000+02:00</time>
      </trkpt>
      <trkpt lat="43.55135" lon="2.79224">
        <ele>964.6</ele>
        <time>2021-06-30T14:34:37.000+02:00</time>
      </trkpt>
      <trkpt lat="43.55134" lon="2.79224">
        <ele>964.5</ele>
        <time>2021-06-30T14:34:38.000+02:00</time>
      </trkpt>
      <trkpt lat="43.55134" lon="2.79224">
        <ele>964.5</ele>
        <time>2021-06-30T14:34:39.000+02:00</time>
      </trkpt>
      <trkpt lat="43.55134" lon="2.79224">
        <ele>964.5</ele>
        <time>2021-06-30T14:34:40.000+02:00</time>
      </trkpt>
      <trkpt lat="43.55134" lon="2.79223">
        <ele>964.4</ele>
        <time>2021-06-30T14:34:41.000+02:00</time>
      </trkpt>
      <trkpt lat="43.55133" lon="2.79223">
        <ele>964.2</ele>
        <time>2021-06-30T14:34:42.000+02:00</time>
      </trkpt>
      <trkpt lat="43.55132" lon="2.79222">
        <ele>964</ele>
        <time>2021-06-30T14:34:43.000+02:00</time>
      </trkpt>
      <trkpt lat="43.55132" lon="2.79222">
        <ele>963.9</ele>
        <time>2021-06-30T14:34:44.000+02:00</time>
      </trkpt>
      <trkpt lat="43.55132" lon="2.79221">
        <ele>963.9</ele>
        <time>2021-06-30T14:34:45.000+02:00</time>
      </trkpt>
      <trkpt lat="43.55132" lon="2.7922">
        <ele>963.9</ele>
        <time>2021-06-30T14:34:46.000+02:00</time>
      </trkpt>
      <trkpt lat="43.55131" lon="2.7922">
        <ele>963.8</ele>
        <time>2021-06-30T14:34:47.000+02:00</time>
      </trkpt>
      <trkpt lat="43.55131" lon="2.7922">
        <ele>963.8</ele>
        <time>2021-06-30T14:34:48.000+02:00</time>
      </trkpt>
      <trkpt lat="43.55131" lon="2.79219">
        <ele>963.8</ele>
        <time>2021-06-30T14:34:49.000+02:00</time>
      </trkpt>
      <trkpt lat="43.55131" lon="2.7922">
        <ele>963.8</ele>
        <time>2021-06-30T14:34:50.000+02:00</time>
      </trkpt>
      <trkpt lat="43.55131" lon="2.79219">
        <ele>963.8</ele>
        <time>2021-06-30T14:34:51.000+02:00</time>
      </trkpt>
      <trkpt lat="43.55131" lon="2.79219">
        <ele>963.8</ele>
        <time>2021-06-30T14:34:52.000+02:00</time>
      </trkpt>
      <trkpt lat="43.55131" lon="2.79219">
        <ele>963.8</ele>
        <time>2021-06-30T14:34:53.000+02:00</time>
      </trkpt>
      <trkpt lat="43.55131" lon="2.79219">
        <ele>963.8</ele>
        <time>2021-06-30T14:34:54.000+02:00</time>
      </trkpt>
      <trkpt lat="43.55131" lon="2.79219">
        <ele>963.8</ele>
        <time>2021-06-30T14:34:55.000+02:00</time>
      </trkpt>
      <trkpt lat="43.55131" lon="2.79219">
        <ele>963.8</ele>
        <time>2021-06-30T14:34:56.000+02:00</time>
      </trkpt>
      <trkpt lat="43.55131" lon="2.79219">
        <ele>963.8</ele>
        <time>2021-06-30T14:34:57.000+02:00</time>
      </trkpt>
      <trkpt lat="43.55131" lon="2.79219">
        <ele>963.8</ele>
        <time>2021-06-30T14:34:58.000+02:00</time>
      </trkpt>
      <trkpt lat="43.55131" lon="2.79219">
        <ele>963.8</ele>
        <time>2021-06-30T14:34:59.000+02:00</time>
      </trkpt>
      <trkpt lat="43.55131" lon="2.79219">
        <ele>963.8</ele>
        <time>2021-06-30T14:35:00.000+02:00</time>
      </trkpt>
      <trkpt lat="43.55131" lon="2.79219">
        <ele>963.8</ele>
        <time>2021-06-30T14:35:01.000+02:00</time>
      </trkpt>
      <trkpt lat="43.55131" lon="2.79219">
        <ele>963.8</ele>
        <time>2021-06-30T14:35:02.000+02:00</time>
      </trkpt>
      <trkpt lat="43.55131" lon="2.79219">
        <ele>963.8</ele>
        <time>2021-06-30T14:35:03.000+02:00</time>
      </trkpt>
      <trkpt lat="43.55131" lon="2.79219">
        <ele>963.8</ele>
        <time>2021-06-30T14:35:04.000+02:00</time>
      </trkpt>
      <trkpt lat="43.55131" lon="2.79218">
        <ele>963.8</ele>
        <time>2021-06-30T14:35:05.000+02:00</time>
      </trkpt>
      <trkpt lat="43.55131" lon="2.79218">
        <ele>963.9</ele>
        <time>2021-06-30T14:35:06.000+02:00</time>
      </trkpt>
      <trkpt lat="43.55131" lon="2.79218">
        <ele>963.9</ele>
        <time>2021-06-30T14:35:07.000+02:00</time>
      </trkpt>
      <trkpt lat="43.55131" lon="2.79218">
        <ele>963.9</ele>
        <time>2021-06-30T14:35:08.000+02:00</time>
      </trkpt>
      <trkpt lat="43.55131" lon="2.79218">
        <ele>963.9</ele>
        <time>2021-06-30T14:35:09.000+02:00</time>
      </trkpt>
      <trkpt lat="43.55131" lon="2.79218">
        <ele>963.9</ele>
        <time>2021-06-30T14:35:10.000+02:00</time>
      </trkpt>
      <trkpt lat="43.55131" lon="2.79217">
        <ele>963.9</ele>
        <time>2021-06-30T14:35:11.000+02:00</time>
      </trkpt>
      <trkpt lat="43.55131" lon="2.79216">
        <ele>964</ele>
        <time>2021-06-30T14:35:12.000+02:00</time>
      </trkpt>
      <trkpt lat="43.55131" lon="2.79215">
        <ele>964</ele>
        <time>2021-06-30T14:35:13.000+02:00</time>
      </trkpt>
      <trkpt lat="43.55131" lon="2.79215">
        <ele>964.1</ele>
        <time>2021-06-30T14:35:14.000+02:00</time>
      </trkpt>
      <trkpt lat="43.55131" lon="2.79215">
        <ele>964.1</ele>
        <time>2021-06-30T14:35:15.000+02:00</time>
      </trkpt>
      <trkpt lat="43.55131" lon="2.79215">
        <ele>964.1</ele>
        <time>2021-06-30T14:35:16.000+02:00</time>
      </trkpt>
      <trkpt lat="43.55131" lon="2.79215">
        <ele>964.1</ele>
        <time>2021-06-30T14:35:17.000+02:00</time>
      </trkpt>
      <trkpt lat="43.55131" lon="2.79215">
        <ele>964.1</ele>
        <time>2021-06-30T14:35:18.000+02:00</time>
      </trkpt>
      <trkpt lat="43.55131" lon="2.79215">
        <ele>964.1</ele>
        <time>2021-06-30T14:35:19.000+02:00</time>
      </trkpt>
      <trkpt lat="43.55131" lon="2.79216">
        <ele>964</ele>
        <time>2021-06-30T14:35:20.000+02:00</time>
      </trkpt>
      <trkpt lat="43.55132" lon="2.79215">
        <ele>964.3</ele>
        <time>2021-06-30T14:35:21.000+02:00</time>
      </trkpt>
      <trkpt lat="43.55132" lon="2.79215">
        <ele>964.3</ele>
        <time>2021-06-30T14:35:22.000+02:00</time>
      </trkpt>
      <trkpt lat="43.55132" lon="2.79215">
        <ele>964.5</ele>
        <time>2021-06-30T14:35:23.000+02:00</time>
      </trkpt>
      <trkpt lat="43.55133" lon="2.79215">
        <ele>964.7</ele>
        <time>2021-06-30T14:35:24.000+02:00</time>
      </trkpt>
      <trkpt lat="43.55133" lon="2.79216">
        <ele>964.7</ele>
        <time>2021-06-30T14:35:25.000+02:00</time>
      </trkpt>
      <trkpt lat="43.55134" lon="2.79216">
        <ele>965.1</ele>
        <time>2021-06-30T14:35:26.000+02:00</time>
      </trkpt>
      <trkpt lat="43.55135" lon="2.79216">
        <ele>965.2</ele>
        <time>2021-06-30T14:35:27.000+02:00</time>
      </trkpt>
      <trkpt lat="43.55135" lon="2.79216">
        <ele>965.5</ele>
        <time>2021-06-30T14:35:28.000+02:00</time>
      </trkpt>
      <trkpt lat="43.55136" lon="2.79216">
        <ele>965.6</ele>
        <time>2021-06-30T14:35:29.000+02:00</time>
      </trkpt>
      <trkpt lat="43.55137" lon="2.79217">
        <ele>965.9</ele>
        <time>2021-06-30T14:35:30.000+02:00</time>
      </trkpt>
      <trkpt lat="43.55137" lon="2.79217">
        <ele>966.1</ele>
        <time>2021-06-30T14:35:31.000+02:00</time>
      </trkpt>
      <trkpt lat="43.55139" lon="2.79218">
        <ele>966.4</ele>
        <time>2021-06-30T14:35:32.000+02:00</time>
      </trkpt>
      <trkpt lat="43.5514" lon="2.79219">
        <ele>966.8</ele>
        <time>2021-06-30T14:35:33.000+02:00</time>
      </trkpt>
      <trkpt lat="43.55141" lon="2.79221">
        <ele>967.1</ele>
        <time>2021-06-30T14:35:34.000+02:00</time>
      </trkpt>
      <trkpt lat="43.55142" lon="2.79222">
        <ele>967.4</ele>
        <time>2021-06-30T14:35:35.000+02:00</time>
      </trkpt>
      <trkpt lat="43.55143" lon="2.79223">
        <ele>967.7</ele>
        <time>2021-06-30T14:35:36.000+02:00</time>
      </trkpt>
      <trkpt lat="43.55144" lon="2.79223">
        <ele>967.9</ele>
        <time>2021-06-30T14:35:37.000+02:00</time>
      </trkpt>
      <trkpt lat="43.55145" lon="2.79224">
        <ele>968.2</ele>
        <time>2021-06-30T14:35:38.000+02:00</time>
      </trkpt>
      <trkpt lat="43.55146" lon="2.79225">
        <ele>968.5</ele>
        <time>2021-06-30T14:35:39.000+02:00</time>
      </trkpt>
      <trkpt lat="43.55147" lon="2.79227">
        <ele>968.7</ele>
        <time>2021-06-30T14:35:40.000+02:00</time>
      </trkpt>
      <trkpt lat="43.55148" lon="2.79228">
        <ele>969</ele>
        <time>2021-06-30T14:35:41.000+02:00</time>
      </trkpt>
      <trkpt lat="43.55149" lon="2.79229">
        <ele>969.4</ele>
        <time>2021-06-30T14:35:42.000+02:00</time>
      </trkpt>
      <trkpt lat="43.5515" lon="2.7923">
        <ele>969.8</ele>
        <time>2021-06-30T14:35:43.000+02:00</time>
      </trkpt>
      <trkpt lat="43.55151" lon="2.7923">
        <ele>970</ele>
        <time>2021-06-30T14:35:44.000+02:00</time>
      </trkpt>
      <trkpt lat="43.55152" lon="2.79231">
        <ele>970.2</ele>
        <time>2021-06-30T14:35:45.000+02:00</time>
      </trkpt>
      <trkpt lat="43.55153" lon="2.79231">
        <ele>970.7</ele>
        <time>2021-06-30T14:35:46.000+02:00</time>
      </trkpt>
      <trkpt lat="43.55154" lon="2.79232">
        <ele>971.1</ele>
        <time>2021-06-30T14:35:47.000+02:00</time>
      </trkpt>
      <trkpt lat="43.55156" lon="2.79231">
        <ele>971.6</ele>
        <time>2021-06-30T14:35:48.000+02:00</time>
      </trkpt>
      <trkpt lat="43.55157" lon="2.7923">
        <ele>972</ele>
        <time>2021-06-30T14:35:49.000+02:00</time>
      </trkpt>
      <trkpt lat="43.55158" lon="2.79229">
        <ele>972.4</ele>
        <time>2021-06-30T14:35:50.000+02:00</time>
      </trkpt>
      <trkpt lat="43.55159" lon="2.79228">
        <ele>972.7</ele>
        <time>2021-06-30T14:35:51.000+02:00</time>
      </trkpt>
      <trkpt lat="43.55159" lon="2.79228">
        <ele>972.9</ele>
        <time>2021-06-30T14:35:52.000+02:00</time>
      </trkpt>
      <trkpt lat="43.5516" lon="2.79228">
        <ele>973.2</ele>
        <time>2021-06-30T14:35:53.000+02:00</time>
      </trkpt>
      <trkpt lat="43.5516" lon="2.79227">
        <ele>973.3</ele>
        <time>2021-06-30T14:35:54.000+02:00</time>
      </trkpt>
      <trkpt lat="43.55161" lon="2.79228">
        <ele>973.5</ele>
        <time>2021-06-30T14:35:55.000+02:00</time>
      </trkpt>
      <trkpt lat="43.55162" lon="2.79228">
        <ele>973.7</ele>
        <time>2021-06-30T14:35:56.000+02:00</time>
      </trkpt>
      <trkpt lat="43.55162" lon="2.79229">
        <ele>973.9</ele>
        <time>2021-06-30T14:35:57.000+02:00</time>
      </trkpt>
      <trkpt lat="43.55162" lon="2.79229">
        <ele>974</ele>
        <time>2021-06-30T14:35:58.000+02:00</time>
      </trkpt>
      <trkpt lat="43.55163" lon="2.7923">
        <ele>974.2</ele>
        <time>2021-06-30T14:35:59.000+02:00</time>
      </trkpt>
      <trkpt lat="43.55164" lon="2.7923">
        <ele>974.5</ele>
        <time>2021-06-30T14:36:00.000+02:00</time>
      </trkpt>
      <trkpt lat="43.55165" lon="2.79231">
        <ele>974.8</ele>
        <time>2021-06-30T14:36:01.000+02:00</time>
      </trkpt>
      <trkpt lat="43.55166" lon="2.79232">
        <ele>975</ele>
        <time>2021-06-30T14:36:02.000+02:00</time>
      </trkpt>
      <trkpt lat="43.55166" lon="2.79233">
        <ele>975.3</ele>
        <time>2021-06-30T14:36:03.000+02:00</time>
      </trkpt>
      <trkpt lat="43.55167" lon="2.79234">
        <ele>975.3</ele>
        <time>2021-06-30T14:36:04.000+02:00</time>
      </trkpt>
      <trkpt lat="43.55167" lon="2.79234">
        <ele>975.4</ele>
        <time>2021-06-30T14:36:05.000+02:00</time>
      </trkpt>
      <trkpt lat="43.55167" lon="2.79234">
        <ele>975.4</ele>
        <time>2021-06-30T14:36:06.000+02:00</time>
      </trkpt>
      <trkpt lat="43.55168" lon="2.79234">
        <ele>975.4</ele>
        <time>2021-06-30T14:36:07.000+02:00</time>
      </trkpt>
      <trkpt lat="43.55169" lon="2.79235">
        <ele>975.3</ele>
        <time>2021-06-30T14:36:08.000+02:00</time>
      </trkpt>
      <trkpt lat="43.5517" lon="2.79236">
        <ele>975.3</ele>
        <time>2021-06-30T14:36:09.000+02:00</time>
      </trkpt>
      <trkpt lat="43.5517" lon="2.79238">
        <ele>975.2</ele>
        <time>2021-06-30T14:36:10.000+02:00</time>
      </trkpt>
      <trkpt lat="43.5517" lon="2.79238">
        <ele>975.2</ele>
        <time>2021-06-30T14:36:11.000+02:00</time>
      </trkpt>
      <trkpt lat="43.55169" lon="2.79239">
        <ele>975.2</ele>
        <time>2021-06-30T14:36:12.000+02:00</time>
      </trkpt>
      <trkpt lat="43.55169" lon="2.7924">
        <ele>975.2</ele>
        <time>2021-06-30T14:36:13.000+02:00</time>
      </trkpt>
      <trkpt lat="43.55168" lon="2.79242">
        <ele>975.2</ele>
        <time>2021-06-30T14:36:14.000+02:00</time>
      </trkpt>
      <trkpt lat="43.55167" lon="2.79243">
        <ele>975.2</ele>
        <time>2021-06-30T14:36:15.000+02:00</time>
      </trkpt>
      <trkpt lat="43.55167" lon="2.79244">
        <ele>975.1</ele>
        <time>2021-06-30T14:36:16.000+02:00</time>
      </trkpt>
      <trkpt lat="43.55166" lon="2.79245">
        <ele>975</ele>
        <time>2021-06-30T14:36:17.000+02:00</time>
      </trkpt>
      <trkpt lat="43.55166" lon="2.79247">
        <ele>974.9</ele>
        <time>2021-06-30T14:36:18.000+02:00</time>
      </trkpt>
      <trkpt lat="43.55166" lon="2.79248">
        <ele>974.9</ele>
        <time>2021-06-30T14:36:19.000+02:00</time>
      </trkpt>
      <trkpt lat="43.55166" lon="2.79249">
        <ele>974.7</ele>
        <time>2021-06-30T14:36:20.000+02:00</time>
      </trkpt>
      <trkpt lat="43.55166" lon="2.7925">
        <ele>974.7</ele>
        <time>2021-06-30T14:36:21.000+02:00</time>
      </trkpt>
      <trkpt lat="43.55166" lon="2.79251">
        <ele>974.5</ele>
        <time>2021-06-30T14:36:22.000+02:00</time>
      </trkpt>
      <trkpt lat="43.55165" lon="2.79251">
        <ele>974.2</ele>
        <time>2021-06-30T14:36:23.000+02:00</time>
      </trkpt>
      <trkpt lat="43.55165" lon="2.79252">
        <ele>973.9</ele>
        <time>2021-06-30T14:36:24.000+02:00</time>
      </trkpt>
      <trkpt lat="43.55165" lon="2.79253">
        <ele>973.9</ele>
        <time>2021-06-30T14:36:25.000+02:00</time>
      </trkpt>
      <trkpt lat="43.55165" lon="2.79253">
        <ele>973.8</ele>
        <time>2021-06-30T14:36:26.000+02:00</time>
      </trkpt>
      <trkpt lat="43.55165" lon="2.79253">
        <ele>973.6</ele>
        <time>2021-06-30T14:36:27.000+02:00</time>
      </trkpt>
      <trkpt lat="43.55165" lon="2.79254">
        <ele>973.4</ele>
        <time>2021-06-30T14:36:28.000+02:00</time>
      </trkpt>
      <trkpt lat="43.55164" lon="2.79255">
        <ele>973.1</ele>
        <time>2021-06-30T14:36:29.000+02:00</time>
      </trkpt>
      <trkpt lat="43.55164" lon="2.79257">
        <ele>972.5</ele>
        <time>2021-06-30T14:36:30.000+02:00</time>
      </trkpt>
      <trkpt lat="43.55163" lon="2.79258">
        <ele>971.9</ele>
        <time>2021-06-30T14:36:31.000+02:00</time>
      </trkpt>
      <trkpt lat="43.55162" lon="2.79259">
        <ele>971.5</ele>
        <time>2021-06-30T14:36:32.000+02:00</time>
      </trkpt>
      <trkpt lat="43.55162" lon="2.79261">
        <ele>970.9</ele>
        <time>2021-06-30T14:36:33.000+02:00</time>
      </trkpt>
      <trkpt lat="43.5516" lon="2.79262">
        <ele>970.2</ele>
        <time>2021-06-30T14:36:34.000+02:00</time>
      </trkpt>
      <trkpt lat="43.55159" lon="2.79264">
        <ele>969.5</ele>
        <time>2021-06-30T14:36:35.000+02:00</time>
      </trkpt>
      <trkpt lat="43.55158" lon="2.79266">
        <ele>968.7</ele>
        <time>2021-06-30T14:36:36.000+02:00</time>
      </trkpt>
      <trkpt lat="43.55158" lon="2.79267">
        <ele>968.4</ele>
        <time>2021-06-30T14:36:37.000+02:00</time>
      </trkpt>
      <trkpt lat="43.55158" lon="2.79267">
        <ele>968.3</ele>
        <time>2021-06-30T14:36:38.000+02:00</time>
      </trkpt>
      <trkpt lat="43.55158" lon="2.79267">
        <ele>968.1</ele>
        <time>2021-06-30T14:36:39.000+02:00</time>
      </trkpt>
      <trkpt lat="43.55158" lon="2.79268">
        <ele>967.9</ele>
        <time>2021-06-30T14:36:40.000+02:00</time>
      </trkpt>
      <trkpt lat="43.55158" lon="2.79269">
        <ele>967.6</ele>
        <time>2021-06-30T14:36:41.000+02:00</time>
      </trkpt>
      <trkpt lat="43.55157" lon="2.7927">
        <ele>967.2</ele>
        <time>2021-06-30T14:36:42.000+02:00</time>
      </trkpt>
      <trkpt lat="43.55156" lon="2.79269">
        <ele>967.1</ele>
        <time>2021-06-30T14:36:43.000+02:00</time>
      </trkpt>
      <trkpt lat="43.55156" lon="2.7927">
        <ele>966.9</ele>
        <time>2021-06-30T14:36:44.000+02:00</time>
      </trkpt>
      <trkpt lat="43.55156" lon="2.79269">
        <ele>966.9</ele>
        <time>2021-06-30T14:36:45.000+02:00</time>
      </trkpt>
      <trkpt lat="43.55156" lon="2.79268">
        <ele>967.2</ele>
        <time>2021-06-30T14:36:46.000+02:00</time>
      </trkpt>
      <trkpt lat="43.55157" lon="2.79267">
        <ele>968</ele>
        <time>2021-06-30T14:36:47.000+02:00</time>
      </trkpt>
      <trkpt lat="43.55157" lon="2.79266">
        <ele>967.9</ele>
        <time>2021-06-30T14:36:48.000+02:00</time>
      </trkpt>
      <trkpt lat="43.55157" lon="2.79265">
        <ele>968.2</ele>
        <time>2021-06-30T14:36:49.000+02:00</time>
      </trkpt>
      <trkpt lat="43.55157" lon="2.79263">
        <ele>968.8</ele>
        <time>2021-06-30T14:36:50.000+02:00</time>
      </trkpt>
      <trkpt lat="43.55159" lon="2.79261">
        <ele>969.7</ele>
        <time>2021-06-30T14:36:51.000+02:00</time>
      </trkpt>
      <trkpt lat="43.55159" lon="2.79261">
        <ele>970</ele>
        <time>2021-06-30T14:36:52.000+02:00</time>
      </trkpt>
      <trkpt lat="43.55159" lon="2.7926">
        <ele>970</ele>
        <time>2021-06-30T14:36:53.000+02:00</time>
      </trkpt>
      <trkpt lat="43.55158" lon="2.79259">
        <ele>970</ele>
        <time>2021-06-30T14:36:54.000+02:00</time>
      </trkpt>
      <trkpt lat="43.55158" lon="2.79257">
        <ele>970.1</ele>
        <time>2021-06-30T14:36:55.000+02:00</time>
      </trkpt>
      <trkpt lat="43.55159" lon="2.79256">
        <ele>970.6</ele>
        <time>2021-06-30T14:36:56.000+02:00</time>
      </trkpt>
      <trkpt lat="43.55159" lon="2.79254">
        <ele>971.4</ele>
        <time>2021-06-30T14:36:57.000+02:00</time>
      </trkpt>
      <trkpt lat="43.5516" lon="2.79253">
        <ele>971.6</ele>
        <time>2021-06-30T14:36:58.000+02:00</time>
      </trkpt>
      <trkpt lat="43.5516" lon="2.79251">
        <ele>972.1</ele>
        <time>2021-06-30T14:36:59.000+02:00</time>
      </trkpt>
      <trkpt lat="43.5516" lon="2.7925">
        <ele>972.5</ele>
        <time>2021-06-30T14:37:00.000+02:00</time>
      </trkpt>
      <trkpt lat="43.55161" lon="2.79247">
        <ele>972.9</ele>
        <time>2021-06-30T14:37:01.000+02:00</time>
      </trkpt>
      <trkpt lat="43.55161" lon="2.79245">
        <ele>973</ele>
        <time>2021-06-30T14:37:02.000+02:00</time>
      </trkpt>
      <trkpt lat="43.55163" lon="2.79243">
        <ele>973.7</ele>
        <time>2021-06-30T14:37:03.000+02:00</time>
      </trkpt>
      <trkpt lat="43.55164" lon="2.7924">
        <ele>974.1</ele>
        <time>2021-06-30T14:37:04.000+02:00</time>
      </trkpt>
      <trkpt lat="43.55166" lon="2.7924">
        <ele>974.8</ele>
        <time>2021-06-30T14:37:05.000+02:00</time>
      </trkpt>
      <trkpt lat="43.55167" lon="2.79239">
        <ele>975.3</ele>
        <time>2021-06-30T14:37:06.000+02:00</time>
      </trkpt>
      <trkpt lat="43.55169" lon="2.79236">
        <ele>975.3</ele>
        <time>2021-06-30T14:37:07.000+02:00</time>
      </trkpt>
      <trkpt lat="43.5517" lon="2.79237">
        <ele>975.2</ele>
        <time>2021-06-30T14:37:08.000+02:00</time>
      </trkpt>
      <trkpt lat="43.5517" lon="2.79238">
        <ele>975.2</ele>
        <time>2021-06-30T14:37:09.000+02:00</time>
      </trkpt>
      <trkpt lat="43.55171" lon="2.79238">
        <ele>975.2</ele>
        <time>2021-06-30T14:37:10.000+02:00</time>
      </trkpt>
      <trkpt lat="43.55171" lon="2.79238">
        <ele>975.2</ele>
        <time>2021-06-30T14:37:11.000+02:00</time>
      </trkpt>
      <trkpt lat="43.55171" lon="2.79238">
        <ele>975.2</ele>
        <time>2021-06-30T14:37:12.000+02:00</time>
      </trkpt>
      <trkpt lat="43.55171" lon="2.79237">
        <ele>975.2</ele>
        <time>2021-06-30T14:37:13.000+02:00</time>
      </trkpt>
      <trkpt lat="43.55172" lon="2.79236">
        <ele>975.2</ele>
        <time>2021-06-30T14:37:14.000+02:00</time>
      </trkpt>
      <trkpt lat="43.55173" lon="2.79235">
        <ele>975.2</ele>
        <time>2021-06-30T14:37:15.000+02:00</time>
      </trkpt>
      <trkpt lat="43.55173" lon="2.79235">
        <ele>975.2</ele>
        <time>2021-06-30T14:37:16.000+02:00</time>
      </trkpt>
      <trkpt lat="43.55174" lon="2.79234">
        <ele>975.3</ele>
        <time>2021-06-30T14:37:17.000+02:00</time>
      </trkpt>
      <trkpt lat="43.55175" lon="2.79233">
        <ele>975.3</ele>
        <time>2021-06-30T14:37:18.000+02:00</time>
      </trkpt>
      <trkpt lat="43.55176" lon="2.79233">
        <ele>975.3</ele>
        <time>2021-06-30T14:37:19.000+02:00</time>
      </trkpt>
      <trkpt lat="43.55177" lon="2.79233">
        <ele>975.2</ele>
        <time>2021-06-30T14:37:20.000+02:00</time>
      </trkpt>
      <trkpt lat="43.55178" lon="2.79233">
        <ele>975.2</ele>
        <time>2021-06-30T14:37:21.000+02:00</time>
      </trkpt>
      <trkpt lat="43.55179" lon="2.79233">
        <ele>975.2</ele>
        <time>2021-06-30T14:37:22.000+02:00</time>
      </trkpt>
      <trkpt lat="43.5518" lon="2.79233">
        <ele>975.2</ele>
        <time>2021-06-30T14:37:23.000+02:00</time>
      </trkpt>
      <trkpt lat="43.55181" lon="2.79233">
        <ele>975.2</ele>
        <time>2021-06-30T14:37:24.000+02:00</time>
      </trkpt>
      <trkpt lat="43.55182" lon="2.79233">
        <ele>975.1</ele>
        <time>2021-06-30T14:37:25.000+02:00</time>
      </trkpt>
      <trkpt lat="43.55183" lon="2.79234">
        <ele>975.1</ele>
        <time>2021-06-30T14:37:26.000+02:00</time>
      </trkpt>
      <trkpt lat="43.55184" lon="2.79234">
        <ele>975.1</ele>
        <time>2021-06-30T14:37:27.000+02:00</time>
      </trkpt>
      <trkpt lat="43.55184" lon="2.79236">
        <ele>975</ele>
        <time>2021-06-30T14:37:28.000+02:00</time>
      </trkpt>
      <trkpt lat="43.55185" lon="2.79236">
        <ele>975</ele>
        <time>2021-06-30T14:37:29.000+02:00</time>
      </trkpt>
      <trkpt lat="43.55185" lon="2.79236">
        <ele>975</ele>
        <time>2021-06-30T14:37:30.000+02:00</time>
      </trkpt>
      <trkpt lat="43.55186" lon="2.79236">
        <ele>975</ele>
        <time>2021-06-30T14:37:31.000+02:00</time>
      </trkpt>
      <trkpt lat="43.55187" lon="2.79236">
        <ele>975</ele>
        <time>2021-06-30T14:37:32.000+02:00</time>
      </trkpt>
      <trkpt lat="43.55189" lon="2.79236">
        <ele>974.9</ele>
        <time>2021-06-30T14:37:33.000+02:00</time>
      </trkpt>
      <trkpt lat="43.55189" lon="2.79236">
        <ele>974.9</ele>
        <time>2021-06-30T14:37:34.000+02:00</time>
      </trkpt>
      <trkpt lat="43.5519" lon="2.79235">
        <ele>974.9</ele>
        <time>2021-06-30T14:37:35.000+02:00</time>
      </trkpt>
      <trkpt lat="43.5519" lon="2.79235">
        <ele>974.9</ele>
        <time>2021-06-30T14:37:36.000+02:00</time>
      </trkpt>
      <trkpt lat="43.55191" lon="2.79236">
        <ele>974.9</ele>
        <time>2021-06-30T14:37:37.000+02:00</time>
      </trkpt>
      <trkpt lat="43.55191" lon="2.79236">
        <ele>974.9</ele>
        <time>2021-06-30T14:37:38.000+02:00</time>
      </trkpt>
      <trkpt lat="43.55191" lon="2.79236">
        <ele>974.9</ele>
        <time>2021-06-30T14:37:39.000+02:00</time>
      </trkpt>
      <trkpt lat="43.55191" lon="2.79236">
        <ele>974.9</ele>
        <time>2021-06-30T14:37:40.000+02:00</time>
      </trkpt>
      <trkpt lat="43.55191" lon="2.79235">
        <ele>974.9</ele>
        <time>2021-06-30T14:37:41.000+02:00</time>
      </trkpt>
      <trkpt lat="43.55191" lon="2.79235">
        <ele>974.9</ele>
        <time>2021-06-30T14:37:42.000+02:00</time>
      </trkpt>
      <trkpt lat="43.55191" lon="2.79235">
        <ele>974.9</ele>
        <time>2021-06-30T14:37:43.000+02:00</time>
      </trkpt>
      <trkpt lat="43.55191" lon="2.79235">
        <ele>974.9</ele>
        <time>2021-06-30T14:37:44.000+02:00</time>
      </trkpt>
      <trkpt lat="43.55191" lon="2.79236">
        <ele>974.9</ele>
        <time>2021-06-30T14:37:45.000+02:00</time>
      </trkpt>
      <trkpt lat="43.55191" lon="2.79235">
        <ele>974.9</ele>
        <time>2021-06-30T14:37:46.000+02:00</time>
      </trkpt>
      <trkpt lat="43.55191" lon="2.79236">
        <ele>974.9</ele>
        <time>2021-06-30T14:37:47.000+02:00</time>
      </trkpt>
      <trkpt lat="43.55191" lon="2.79236">
        <ele>974.9</ele>
        <time>2021-06-30T14:37:48.000+02:00</time>
      </trkpt>
      <trkpt lat="43.55191" lon="2.79236">
        <ele>974.9</ele>
        <time>2021-06-30T14:37:49.000+02:00</time>
      </trkpt>
      <trkpt lat="43.55191" lon="2.79236">
        <ele>974.9</ele>
        <time>2021-06-30T14:37:50.000+02:00</time>
      </trkpt>
      <trkpt lat="43.55191" lon="2.79236">
        <ele>974.9</ele>
        <time>2021-06-30T14:37:51.000+02:00</time>
      </trkpt>
      <trkpt lat="43.55191" lon="2.79236">
        <ele>974.9</ele>
        <time>2021-06-30T14:37:52.000+02:00</time>
      </trkpt>
      <trkpt lat="43.55191" lon="2.79235">
        <ele>974.9</ele>
        <time>2021-06-30T14:37:53.000+02:00</time>
      </trkpt>
      <trkpt lat="43.55191" lon="2.79235">
        <ele>974.9</ele>
        <time>2021-06-30T14:37:54.000+02:00</time>
      </trkpt>
      <trkpt lat="43.55191" lon="2.79235">
        <ele>974.9</ele>
        <time>2021-06-30T14:37:55.000+02:00</time>
      </trkpt>
      <trkpt lat="43.55191" lon="2.79235">
        <ele>974.9</ele>
        <time>2021-06-30T14:37:56.000+02:00</time>
      </trkpt>
      <trkpt lat="43.55191" lon="2.79235">
        <ele>974.9</ele>
        <time>2021-06-30T14:37:57.000+02:00</time>
      </trkpt>
      <trkpt lat="43.55191" lon="2.79235">
        <ele>974.9</ele>
        <time>2021-06-30T14:37:58.000+02:00</time>
      </trkpt>
      <trkpt lat="43.55191" lon="2.79235">
        <ele>974.9</ele>
        <time>2021-06-30T14:37:59.000+02:00</time>
      </trkpt>
      <trkpt lat="43.55191" lon="2.79235">
        <ele>974.9</ele>
        <time>2021-06-30T14:38:00.000+02:00</time>
      </trkpt>
      <trkpt lat="43.55191" lon="2.79235">
        <ele>974.9</ele>
        <time>2021-06-30T14:38:01.000+02:00</time>
      </trkpt>
      <trkpt lat="43.55191" lon="2.79235">
        <ele>974.9</ele>
        <time>2021-06-30T14:38:02.000+02:00</time>
      </trkpt>
      <trkpt lat="43.55191" lon="2.79235">
        <ele>974.9</ele>
        <time>2021-06-30T14:38:03.000+02:00</time>
      </trkpt>
      <trkpt lat="43.55191" lon="2.79235">
        <ele>974.9</ele>
        <time>2021-06-30T14:38:04.000+02:00</time>
      </trkpt>
      <trkpt lat="43.55191" lon="2.79234">
        <ele>974.9</ele>
        <time>2021-06-30T14:38:05.000+02:00</time>
      </trkpt>
      <trkpt lat="43.55191" lon="2.79234">
        <ele>975</ele>
        <time>2021-06-30T14:38:06.000+02:00</time>
      </trkpt>
      <trkpt lat="43.55191" lon="2.79234">
        <ele>975</ele>
        <time>2021-06-30T14:38:07.000+02:00</time>
      </trkpt>
      <trkpt lat="43.55191" lon="2.79234">
        <ele>975</ele>
        <time>2021-06-30T14:38:08.000+02:00</time>
      </trkpt>
      <trkpt lat="43.55191" lon="2.79234">
        <ele>975</ele>
        <time>2021-06-30T14:38:09.000+02:00</time>
      </trkpt>
      <trkpt lat="43.55192" lon="2.79234">
        <ele>975</ele>
        <time>2021-06-30T14:38:10.000+02:00</time>
      </trkpt>
      <trkpt lat="43.55192" lon="2.79233">
        <ele>975</ele>
        <time>2021-06-30T14:38:11.000+02:00</time>
      </trkpt>
      <trkpt lat="43.55192" lon="2.79234">
        <ele>975</ele>
        <time>2021-06-30T14:38:12.000+02:00</time>
      </trkpt>
      <trkpt lat="43.55192" lon="2.79234">
        <ele>975</ele>
        <time>2021-06-30T14:38:13.000+02:00</time>
      </trkpt>
      <trkpt lat="43.55192" lon="2.79233">
        <ele>975</ele>
        <time>2021-06-30T14:38:14.000+02:00</time>
      </trkpt>
      <trkpt lat="43.55192" lon="2.79233">
        <ele>975</ele>
        <time>2021-06-30T14:38:15.000+02:00</time>
      </trkpt>
      <trkpt lat="43.55192" lon="2.79233">
        <ele>975</ele>
        <time>2021-06-30T14:38:16.000+02:00</time>
      </trkpt>
      <trkpt lat="43.55192" lon="2.79233">
        <ele>975</ele>
        <time>2021-06-30T14:38:17.000+02:00</time>
      </trkpt>
      <trkpt lat="43.55192" lon="2.79233">
        <ele>975</ele>
        <time>2021-06-30T14:38:18.000+02:00</time>
      </trkpt>
      <trkpt lat="43.55192" lon="2.79233">
        <ele>975</ele>
        <time>2021-06-30T14:38:19.000+02:00</time>
      </trkpt>
      <trkpt lat="43.55192" lon="2.79233">
        <ele>975</ele>
        <time>2021-06-30T14:38:20.000+02:00</time>
      </trkpt>
      <trkpt lat="43.55192" lon="2.79233">
        <ele>975</ele>
        <time>2021-06-30T14:38:21.000+02:00</time>
      </trkpt>
      <trkpt lat="43.55192" lon="2.79233">
        <ele>975</ele>
        <time>2021-06-30T14:38:22.000+02:00</time>
      </trkpt>
      <trkpt lat="43.55192" lon="2.79233">
        <ele>975</ele>
        <time>2021-06-30T14:38:23.000+02:00</time>
      </trkpt>
      <trkpt lat="43.55192" lon="2.79234">
        <ele>975</ele>
        <time>2021-06-30T14:38:24.000+02:00</time>
      </trkpt>
      <trkpt lat="43.55192" lon="2.79234">
        <ele>975</ele>
        <time>2021-06-30T14:38:25.000+02:00</time>
      </trkpt>
      <trkpt lat="43.55192" lon="2.79234">
        <ele>974.9</ele>
        <time>2021-06-30T14:38:26.000+02:00</time>
      </trkpt>
      <trkpt lat="43.55192" lon="2.79235">
        <ele>974.9</ele>
        <time>2021-06-30T14:38:27.000+02:00</time>
      </trkpt>
      <trkpt lat="43.55192" lon="2.79235">
        <ele>974.9</ele>
        <time>2021-06-30T14:38:28.000+02:00</time>
      </trkpt>
      <trkpt lat="43.55192" lon="2.79235">
        <ele>974.9</ele>
        <time>2021-06-30T14:38:29.000+02:00</time>
      </trkpt>
      <trkpt lat="43.55192" lon="2.79235">
        <ele>974.9</ele>
        <time>2021-06-30T14:38:30.000+02:00</time>
      </trkpt>
      <trkpt lat="43.55192" lon="2.79235">
        <ele>974.9</ele>
        <time>2021-06-30T14:38:31.000+02:00</time>
      </trkpt>
      <trkpt lat="43.55193" lon="2.79238">
        <ele>974.8</ele>
        <time>2021-06-30T14:38:32.000+02:00</time>
      </trkpt>
      <trkpt lat="43.55193" lon="2.79239">
        <ele>974.7</ele>
        <time>2021-06-30T14:38:33.000+02:00</time>
      </trkpt>
      <trkpt lat="43.55193" lon="2.79242">
        <ele>974.7</ele>
        <time>2021-06-30T14:38:34.000+02:00</time>
      </trkpt>
      <trkpt lat="43.55193" lon="2.79243">
        <ele>974.6</ele>
        <time>2021-06-30T14:38:35.000+02:00</time>
      </trkpt>
      <trkpt lat="43.55193" lon="2.79244">
        <ele>974.6</ele>
        <time>2021-06-30T14:38:36.000+02:00</time>
      </trkpt>
      <trkpt lat="43.55193" lon="2.79244">
        <ele>974.6</ele>
        <time>2021-06-30T14:38:37.000+02:00</time>
      </trkpt>
      <trkpt lat="43.55194" lon="2.79245">
        <ele>974.5</ele>
        <time>2021-06-30T14:38:38.000+02:00</time>
      </trkpt>
      <trkpt lat="43.55194" lon="2.79246">
        <ele>974.5</ele>
        <time>2021-06-30T14:38:39.000+02:00</time>
      </trkpt>
      <trkpt lat="43.55195" lon="2.79247">
        <ele>974.4</ele>
        <time>2021-06-30T14:38:40.000+02:00</time>
      </trkpt>
      <trkpt lat="43.55195" lon="2.79248">
        <ele>974.4</ele>
        <time>2021-06-30T14:38:41.000+02:00</time>
      </trkpt>
      <trkpt lat="43.55196" lon="2.79248">
        <ele>974.4</ele>
        <time>2021-06-30T14:38:42.000+02:00</time>
      </trkpt>
      <trkpt lat="43.55197" lon="2.79249">
        <ele>974.3</ele>
        <time>2021-06-30T14:38:43.000+02:00</time>
      </trkpt>
      <trkpt lat="43.55197" lon="2.7925">
        <ele>974.2</ele>
        <time>2021-06-30T14:38:44.000+02:00</time>
      </trkpt>
      <trkpt lat="43.55198" lon="2.7925">
        <ele>974.2</ele>
        <time>2021-06-30T14:38:45.000+02:00</time>
      </trkpt>
      <trkpt lat="43.552" lon="2.79251">
        <ele>974</ele>
        <time>2021-06-30T14:38:46.000+02:00</time>
      </trkpt>
      <trkpt lat="43.55201" lon="2.79252">
        <ele>973.9</ele>
        <time>2021-06-30T14:38:47.000+02:00</time>
      </trkpt>
      <trkpt lat="43.55202" lon="2.79252">
        <ele>973.8</ele>
        <time>2021-06-30T14:38:48.000+02:00</time>
      </trkpt>
      <trkpt lat="43.55203" lon="2.79253">
        <ele>973.7</ele>
        <time>2021-06-30T14:38:49.000+02:00</time>
      </trkpt>
      <trkpt lat="43.55204" lon="2.79254">
        <ele>973.5</ele>
        <time>2021-06-30T14:38:50.000+02:00</time>
      </trkpt>
      <trkpt lat="43.55205" lon="2.79254">
        <ele>973.4</ele>
        <time>2021-06-30T14:38:51.000+02:00</time>
      </trkpt>
      <trkpt lat="43.55205" lon="2.79255">
        <ele>973.3</ele>
        <time>2021-06-30T14:38:52.000+02:00</time>
      </trkpt>
      <trkpt lat="43.55206" lon="2.79255">
        <ele>973.2</ele>
        <time>2021-06-30T14:38:53.000+02:00</time>
      </trkpt>
      <trkpt lat="43.55208" lon="2.79256">
        <ele>973.1</ele>
        <time>2021-06-30T14:38:54.000+02:00</time>
      </trkpt>
      <trkpt lat="43.55209" lon="2.79257">
        <ele>972.8</ele>
        <time>2021-06-30T14:38:55.000+02:00</time>
      </trkpt>
      <trkpt lat="43.5521" lon="2.79258">
        <ele>972.7</ele>
        <time>2021-06-30T14:38:56.000+02:00</time>
      </trkpt>
      <trkpt lat="43.55211" lon="2.79259">
        <ele>972.5</ele>
        <time>2021-06-30T14:38:57.000+02:00</time>
      </trkpt>
      <trkpt lat="43.55212" lon="2.7926">
        <ele>972.4</ele>
        <time>2021-06-30T14:38:58.000+02:00</time>
      </trkpt>
      <trkpt lat="43.55213" lon="2.79261">
        <ele>972.2</ele>
        <time>2021-06-30T14:38:59.000+02:00</time>
      </trkpt>
      <trkpt lat="43.55214" lon="2.79261">
        <ele>972.1</ele>
        <time>2021-06-30T14:39:00.000+02:00</time>
      </trkpt>
      <trkpt lat="43.55215" lon="2.79262">
        <ele>972</ele>
        <time>2021-06-30T14:39:01.000+02:00</time>
      </trkpt>
      <trkpt lat="43.55216" lon="2.79262">
        <ele>971.9</ele>
        <time>2021-06-30T14:39:02.000+02:00</time>
      </trkpt>
      <trkpt lat="43.55217" lon="2.79263">
        <ele>971.7</ele>
        <time>2021-06-30T14:39:03.000+02:00</time>
      </trkpt>
      <trkpt lat="43.55218" lon="2.79264">
        <ele>971.6</ele>
        <time>2021-06-30T14:39:04.000+02:00</time>
      </trkpt>
      <trkpt lat="43.55219" lon="2.79265">
        <ele>971.4</ele>
        <time>2021-06-30T14:39:05.000+02:00</time>
      </trkpt>
      <trkpt lat="43.5522" lon="2.79266">
        <ele>971.2</ele>
        <time>2021-06-30T14:39:06.000+02:00</time>
      </trkpt>
      <trkpt lat="43.55221" lon="2.79267">
        <ele>971.1</ele>
        <time>2021-06-30T14:39:07.000+02:00</time>
      </trkpt>
      <trkpt lat="43.55222" lon="2.79268">
        <ele>970.9</ele>
        <time>2021-06-30T14:39:08.000+02:00</time>
      </trkpt>
      <trkpt lat="43.55222" lon="2.79269">
        <ele>970.8</ele>
        <time>2021-06-30T14:39:09.000+02:00</time>
      </trkpt>
      <trkpt lat="43.55223" lon="2.7927">
        <ele>970.7</ele>
        <time>2021-06-30T14:39:10.000+02:00</time>
      </trkpt>
      <trkpt lat="43.55224" lon="2.79271">
        <ele>970.5</ele>
        <time>2021-06-30T14:39:11.000+02:00</time>
      </trkpt>
      <trkpt lat="43.55225" lon="2.79272">
        <ele>970.2</ele>
        <time>2021-06-30T14:39:12.000+02:00</time>
      </trkpt>
      <trkpt lat="43.55227" lon="2.79274">
        <ele>970</ele>
        <time>2021-06-30T14:39:13.000+02:00</time>
      </trkpt>
      <trkpt lat="43.55228" lon="2.79275">
        <ele>969.8</ele>
        <time>2021-06-30T14:39:14.000+02:00</time>
      </trkpt>
      <trkpt lat="43.55229" lon="2.79277">
        <ele>969.6</ele>
        <time>2021-06-30T14:39:15.000+02:00</time>
      </trkpt>
      <trkpt lat="43.5523" lon="2.79278">
        <ele>969.5</ele>
        <time>2021-06-30T14:39:16.000+02:00</time>
      </trkpt>
      <trkpt lat="43.55231" lon="2.79279">
        <ele>969.2</ele>
        <time>2021-06-30T14:39:17.000+02:00</time>
      </trkpt>
      <trkpt lat="43.55232" lon="2.7928">
        <ele>969.1</ele>
        <time>2021-06-30T14:39:18.000+02:00</time>
      </trkpt>
      <trkpt lat="43.55233" lon="2.79281">
        <ele>968.9</ele>
        <time>2021-06-30T14:39:19.000+02:00</time>
      </trkpt>
      <trkpt lat="43.55234" lon="2.79283">
        <ele>968.7</ele>
        <time>2021-06-30T14:39:20.000+02:00</time>
      </trkpt>
      <trkpt lat="43.55236" lon="2.79284">
        <ele>968.5</ele>
        <time>2021-06-30T14:39:21.000+02:00</time>
      </trkpt>
      <trkpt lat="43.55237" lon="2.79285">
        <ele>968.4</ele>
        <time>2021-06-30T14:39:22.000+02:00</time>
      </trkpt>
      <trkpt lat="43.55238" lon="2.79286">
        <ele>968.2</ele>
        <time>2021-06-30T14:39:23.000+02:00</time>
      </trkpt>
      <trkpt lat="43.55239" lon="2.79287">
        <ele>968.2</ele>
        <time>2021-06-30T14:39:24.000+02:00</time>
      </trkpt>
      <trkpt lat="43.55239" lon="2.79287">
        <ele>968.1</ele>
        <time>2021-06-30T14:39:25.000+02:00</time>
      </trkpt>
      <trkpt lat="43.55239" lon="2.79287">
        <ele>968.1</ele>
        <time>2021-06-30T14:39:26.000+02:00</time>
      </trkpt>
      <trkpt lat="43.5524" lon="2.79287">
        <ele>968.1</ele>
        <time>2021-06-30T14:39:27.000+02:00</time>
      </trkpt>
      <trkpt lat="43.55242" lon="2.79288">
        <ele>968</ele>
        <time>2021-06-30T14:39:28.000+02:00</time>
      </trkpt>
      <trkpt lat="43.55243" lon="2.79288">
        <ele>968</ele>
        <time>2021-06-30T14:39:29.000+02:00</time>
      </trkpt>
      <trkpt lat="43.55244" lon="2.79288">
        <ele>967.9</ele>
        <time>2021-06-30T14:39:30.000+02:00</time>
      </trkpt>
      <trkpt lat="43.55244" lon="2.79288">
        <ele>967.9</ele>
        <time>2021-06-30T14:39:31.000+02:00</time>
      </trkpt>
      <trkpt lat="43.55245" lon="2.79289">
        <ele>967.9</ele>
        <time>2021-06-30T14:39:32.000+02:00</time>
      </trkpt>
      <trkpt lat="43.55246" lon="2.79289">
        <ele>967.8</ele>
        <time>2021-06-30T14:39:33.000+02:00</time>
      </trkpt>
      <trkpt lat="43.55247" lon="2.79289">
        <ele>967.8</ele>
        <time>2021-06-30T14:39:34.000+02:00</time>
      </trkpt>
      <trkpt lat="43.55248" lon="2.7929">
        <ele>967.7</ele>
        <time>2021-06-30T14:39:35.000+02:00</time>
      </trkpt>
      <trkpt lat="43.55249" lon="2.7929">
        <ele>967.7</ele>
        <time>2021-06-30T14:39:36.000+02:00</time>
      </trkpt>
      <trkpt lat="43.55251" lon="2.7929">
        <ele>967.7</ele>
        <time>2021-06-30T14:39:37.000+02:00</time>
      </trkpt>
      <trkpt lat="43.55252" lon="2.7929">
        <ele>967.7</ele>
        <time>2021-06-30T14:39:38.000+02:00</time>
      </trkpt>
      <trkpt lat="43.55254" lon="2.79289">
        <ele>967.7</ele>
        <time>2021-06-30T14:39:39.000+02:00</time>
      </trkpt>
      <trkpt lat="43.55254" lon="2.79289">
        <ele>967.7</ele>
        <time>2021-06-30T14:39:40.000+02:00</time>
      </trkpt>
      <trkpt lat="43.55254" lon="2.79289">
        <ele>967.8</ele>
        <time>2021-06-30T14:39:41.000+02:00</time>
      </trkpt>
      <trkpt lat="43.55254" lon="2.79289">
        <ele>967.8</ele>
        <time>2021-06-30T14:39:42.000+02:00</time>
      </trkpt>
      <trkpt lat="43.55255" lon="2.79289">
        <ele>967.7</ele>
        <time>2021-06-30T14:39:43.000+02:00</time>
      </trkpt>
      <trkpt lat="43.55256" lon="2.79289">
        <ele>967.7</ele>
        <time>2021-06-30T14:39:44.000+02:00</time>
      </trkpt>
      <trkpt lat="43.55257" lon="2.7929">
        <ele>967.6</ele>
        <time>2021-06-30T14:39:45.000+02:00</time>
      </trkpt>
      <trkpt lat="43.55258" lon="2.7929">
        <ele>967.5</ele>
        <time>2021-06-30T14:39:46.000+02:00</time>
      </trkpt>
      <trkpt lat="43.55259" lon="2.79291">
        <ele>967.5</ele>
        <time>2021-06-30T14:39:47.000+02:00</time>
      </trkpt>
      <trkpt lat="43.55261" lon="2.7929">
        <ele>967.5</ele>
        <time>2021-06-30T14:39:48.000+02:00</time>
      </trkpt>
      <trkpt lat="43.55262" lon="2.7929">
        <ele>967.4</ele>
        <time>2021-06-30T14:39:49.000+02:00</time>
      </trkpt>
      <trkpt lat="43.55263" lon="2.7929">
        <ele>967.5</ele>
        <time>2021-06-30T14:39:50.000+02:00</time>
      </trkpt>
      <trkpt lat="43.55264" lon="2.7929">
        <ele>967.4</ele>
        <time>2021-06-30T14:39:51.000+02:00</time>
      </trkpt>
      <trkpt lat="43.55265" lon="2.7929">
        <ele>967.4</ele>
        <time>2021-06-30T14:39:52.000+02:00</time>
      </trkpt>
      <trkpt lat="43.55266" lon="2.7929">
        <ele>967.4</ele>
        <time>2021-06-30T14:39:53.000+02:00</time>
      </trkpt>
      <trkpt lat="43.55267" lon="2.79291">
        <ele>967.3</ele>
        <time>2021-06-30T14:39:54.000+02:00</time>
      </trkpt>
      <trkpt lat="43.55268" lon="2.79291">
        <ele>967.3</ele>
        <time>2021-06-30T14:39:55.000+02:00</time>
      </trkpt>
      <trkpt lat="43.55269" lon="2.79291">
        <ele>967.3</ele>
        <time>2021-06-30T14:39:56.000+02:00</time>
      </trkpt>
      <trkpt lat="43.5527" lon="2.79291">
        <ele>967.2</ele>
        <time>2021-06-30T14:39:57.000+02:00</time>
      </trkpt>
      <trkpt lat="43.5527" lon="2.79291">
        <ele>967.2</ele>
        <time>2021-06-30T14:39:58.000+02:00</time>
      </trkpt>
      <trkpt lat="43.55271" lon="2.79291">
        <ele>967.2</ele>
        <time>2021-06-30T14:39:59.000+02:00</time>
      </trkpt>
      <trkpt lat="43.55271" lon="2.79291">
        <ele>967.2</ele>
        <time>2021-06-30T14:40:00.000+02:00</time>
      </trkpt>
      <trkpt lat="43.5527" lon="2.79292">
        <ele>967.1</ele>
        <time>2021-06-30T14:40:01.000+02:00</time>
      </trkpt>
      <trkpt lat="43.55271" lon="2.79291">
        <ele>967.2</ele>
        <time>2021-06-30T14:40:02.000+02:00</time>
      </trkpt>
      <trkpt lat="43.55271" lon="2.79291">
        <ele>967.1</ele>
        <time>2021-06-30T14:40:03.000+02:00</time>
      </trkpt>
      <trkpt lat="43.55272" lon="2.79292">
        <ele>967</ele>
        <time>2021-06-30T14:40:04.000+02:00</time>
      </trkpt>
      <trkpt lat="43.55273" lon="2.79293">
        <ele>966.9</ele>
        <time>2021-06-30T14:40:05.000+02:00</time>
      </trkpt>
      <trkpt lat="43.55273" lon="2.79293">
        <ele>966.9</ele>
        <time>2021-06-30T14:40:06.000+02:00</time>
      </trkpt>
      <trkpt lat="43.55274" lon="2.79294">
        <ele>966.8</ele>
        <time>2021-06-30T14:40:07.000+02:00</time>
      </trkpt>
      <trkpt lat="43.55274" lon="2.79295">
        <ele>966.7</ele>
        <time>2021-06-30T14:40:08.000+02:00</time>
      </trkpt>
      <trkpt lat="43.55276" lon="2.79296">
        <ele>966.5</ele>
        <time>2021-06-30T14:40:09.000+02:00</time>
      </trkpt>
      <trkpt lat="43.55276" lon="2.79297">
        <ele>966.4</ele>
        <time>2021-06-30T14:40:10.000+02:00</time>
      </trkpt>
      <trkpt lat="43.55277" lon="2.79298">
        <ele>966.3</ele>
        <time>2021-06-30T14:40:11.000+02:00</time>
      </trkpt>
      <trkpt lat="43.55278" lon="2.79299">
        <ele>966.1</ele>
        <time>2021-06-30T14:40:12.000+02:00</time>
      </trkpt>
      <trkpt lat="43.55279" lon="2.793">
        <ele>966</ele>
        <time>2021-06-30T14:40:13.000+02:00</time>
      </trkpt>
      <trkpt lat="43.55279" lon="2.79301">
        <ele>965.8</ele>
        <time>2021-06-30T14:40:14.000+02:00</time>
      </trkpt>
      <trkpt lat="43.5528" lon="2.79302">
        <ele>965.8</ele>
        <time>2021-06-30T14:40:15.000+02:00</time>
      </trkpt>
      <trkpt lat="43.5528" lon="2.79303">
        <ele>965.7</ele>
        <time>2021-06-30T14:40:16.000+02:00</time>
      </trkpt>
      <trkpt lat="43.5528" lon="2.79303">
        <ele>965.6</ele>
        <time>2021-06-30T14:40:17.000+02:00</time>
      </trkpt>
      <trkpt lat="43.55279" lon="2.79303">
        <ele>965.6</ele>
        <time>2021-06-30T14:40:18.000+02:00</time>
      </trkpt>
      <trkpt lat="43.55279" lon="2.79303">
        <ele>965.6</ele>
        <time>2021-06-30T14:40:19.000+02:00</time>
      </trkpt>
      <trkpt lat="43.55279" lon="2.79303">
        <ele>965.6</ele>
        <time>2021-06-30T14:40:20.000+02:00</time>
      </trkpt>
      <trkpt lat="43.5528" lon="2.79304">
        <ele>965.5</ele>
        <time>2021-06-30T14:40:21.000+02:00</time>
      </trkpt>
      <trkpt lat="43.5528" lon="2.79305">
        <ele>965.4</ele>
        <time>2021-06-30T14:40:22.000+02:00</time>
      </trkpt>
      <trkpt lat="43.5528" lon="2.79305">
        <ele>965.4</ele>
        <time>2021-06-30T14:40:23.000+02:00</time>
      </trkpt>
      <trkpt lat="43.5528" lon="2.79307">
        <ele>965.1</ele>
        <time>2021-06-30T14:40:24.000+02:00</time>
      </trkpt>
      <trkpt lat="43.55281" lon="2.79309">
        <ele>964.9</ele>
        <time>2021-06-30T14:40:25.000+02:00</time>
      </trkpt>
      <trkpt lat="43.55281" lon="2.79311">
        <ele>964.7</ele>
        <time>2021-06-30T14:40:26.000+02:00</time>
      </trkpt>
      <trkpt lat="43.55281" lon="2.79312">
        <ele>964.5</ele>
        <time>2021-06-30T14:40:27.000+02:00</time>
      </trkpt>
      <trkpt lat="43.55282" lon="2.79314">
        <ele>964.3</ele>
        <time>2021-06-30T14:40:28.000+02:00</time>
      </trkpt>
      <trkpt lat="43.55282" lon="2.79314">
        <ele>964.2</ele>
        <time>2021-06-30T14:40:29.000+02:00</time>
      </trkpt>
      <trkpt lat="43.55282" lon="2.79315">
        <ele>964.1</ele>
        <time>2021-06-30T14:40:30.000+02:00</time>
      </trkpt>
      <trkpt lat="43.55283" lon="2.79316">
        <ele>964</ele>
        <time>2021-06-30T14:40:31.000+02:00</time>
      </trkpt>
      <trkpt lat="43.55283" lon="2.79316">
        <ele>964</ele>
        <time>2021-06-30T14:40:32.000+02:00</time>
      </trkpt>
      <trkpt lat="43.55283" lon="2.79317">
        <ele>964</ele>
        <time>2021-06-30T14:40:33.000+02:00</time>
      </trkpt>
      <trkpt lat="43.55283" lon="2.79317">
        <ele>963.9</ele>
        <time>2021-06-30T14:40:34.000+02:00</time>
      </trkpt>
      <trkpt lat="43.55284" lon="2.79318">
        <ele>963.8</ele>
        <time>2021-06-30T14:40:35.000+02:00</time>
      </trkpt>
      <trkpt lat="43.55284" lon="2.79318">
        <ele>963.7</ele>
        <time>2021-06-30T14:40:36.000+02:00</time>
      </trkpt>
      <trkpt lat="43.55285" lon="2.79319">
        <ele>963.6</ele>
        <time>2021-06-30T14:40:37.000+02:00</time>
      </trkpt>
      <trkpt lat="43.55285" lon="2.7932">
        <ele>963.5</ele>
        <time>2021-06-30T14:40:38.000+02:00</time>
      </trkpt>
      <trkpt lat="43.55287" lon="2.79321">
        <ele>963.5</ele>
        <time>2021-06-30T14:40:39.000+02:00</time>
      </trkpt>
      <trkpt lat="43.55288" lon="2.79321">
        <ele>963.4</ele>
        <time>2021-06-30T14:40:40.000+02:00</time>
      </trkpt>
      <trkpt lat="43.55289" lon="2.79321">
        <ele>963.4</ele>
        <time>2021-06-30T14:40:41.000+02:00</time>
      </trkpt>
      <trkpt lat="43.5529" lon="2.79322">
        <ele>963.3</ele>
        <time>2021-06-30T14:40:42.000+02:00</time>
      </trkpt>
      <trkpt lat="43.55291" lon="2.79322">
        <ele>963.3</ele>
        <time>2021-06-30T14:40:43.000+02:00</time>
      </trkpt>
      <trkpt lat="43.55292" lon="2.79323">
        <ele>963.2</ele>
        <time>2021-06-30T14:40:44.000+02:00</time>
      </trkpt>
      <trkpt lat="43.55293" lon="2.79324">
        <ele>963.1</ele>
        <time>2021-06-30T14:40:45.000+02:00</time>
      </trkpt>
      <trkpt lat="43.55294" lon="2.79325">
        <ele>962.9</ele>
        <time>2021-06-30T14:40:46.000+02:00</time>
      </trkpt>
      <trkpt lat="43.55295" lon="2.79326">
        <ele>962.8</ele>
        <time>2021-06-30T14:40:47.000+02:00</time>
      </trkpt>
      <trkpt lat="43.55296" lon="2.79327">
        <ele>962.7</ele>
        <time>2021-06-30T14:40:48.000+02:00</time>
      </trkpt>
      <trkpt lat="43.55297" lon="2.79328">
        <ele>962.6</ele>
        <time>2021-06-30T14:40:49.000+02:00</time>
      </trkpt>
      <trkpt lat="43.55297" lon="2.7933">
        <ele>962.4</ele>
        <time>2021-06-30T14:40:50.000+02:00</time>
      </trkpt>
      <trkpt lat="43.55297" lon="2.79332">
        <ele>962.2</ele>
        <time>2021-06-30T14:40:51.000+02:00</time>
      </trkpt>
      <trkpt lat="43.55298" lon="2.79335">
        <ele>961.9</ele>
        <time>2021-06-30T14:40:52.000+02:00</time>
      </trkpt>
      <trkpt lat="43.55299" lon="2.79337">
        <ele>961.7</ele>
        <time>2021-06-30T14:40:53.000+02:00</time>
      </trkpt>
      <trkpt lat="43.55299" lon="2.79339">
        <ele>961.6</ele>
        <time>2021-06-30T14:40:54.000+02:00</time>
      </trkpt>
      <trkpt lat="43.553" lon="2.7934">
        <ele>961.5</ele>
        <time>2021-06-30T14:40:55.000+02:00</time>
      </trkpt>
      <trkpt lat="43.553" lon="2.79343">
        <ele>961.4</ele>
        <time>2021-06-30T14:40:56.000+02:00</time>
      </trkpt>
      <trkpt lat="43.553" lon="2.79344">
        <ele>961.3</ele>
        <time>2021-06-30T14:40:57.000+02:00</time>
      </trkpt>
      <trkpt lat="43.553" lon="2.79346">
        <ele>961.2</ele>
        <time>2021-06-30T14:40:58.000+02:00</time>
      </trkpt>
      <trkpt lat="43.553" lon="2.79347">
        <ele>961.1</ele>
        <time>2021-06-30T14:40:59.000+02:00</time>
      </trkpt>
      <trkpt lat="43.553" lon="2.79348">
        <ele>961</ele>
        <time>2021-06-30T14:41:00.000+02:00</time>
      </trkpt>
      <trkpt lat="43.55299" lon="2.7935">
        <ele>960.9</ele>
        <time>2021-06-30T14:41:01.000+02:00</time>
      </trkpt>
      <trkpt lat="43.553" lon="2.79351">
        <ele>960.8</ele>
        <time>2021-06-30T14:41:02.000+02:00</time>
      </trkpt>
      <trkpt lat="43.553" lon="2.79352">
        <ele>960.7</ele>
        <time>2021-06-30T14:41:03.000+02:00</time>
      </trkpt>
      <trkpt lat="43.553" lon="2.79353">
        <ele>960.7</ele>
        <time>2021-06-30T14:41:04.000+02:00</time>
      </trkpt>
      <trkpt lat="43.553" lon="2.79353">
        <ele>960.7</ele>
        <time>2021-06-30T14:41:05.000+02:00</time>
      </trkpt>
      <trkpt lat="43.553" lon="2.79354">
        <ele>960.6</ele>
        <time>2021-06-30T14:41:06.000+02:00</time>
      </trkpt>
      <trkpt lat="43.553" lon="2.79355">
        <ele>960.6</ele>
        <time>2021-06-30T14:41:07.000+02:00</time>
      </trkpt>
      <trkpt lat="43.553" lon="2.79356">
        <ele>960.5</ele>
        <time>2021-06-30T14:41:08.000+02:00</time>
      </trkpt>
      <trkpt lat="43.55299" lon="2.79356">
        <ele>960.5</ele>
        <time>2021-06-30T14:41:09.000+02:00</time>
      </trkpt>
      <trkpt lat="43.55299" lon="2.79357">
        <ele>960.4</ele>
        <time>2021-06-30T14:41:10.000+02:00</time>
      </trkpt>
      <trkpt lat="43.55299" lon="2.79359">
        <ele>960.3</ele>
        <time>2021-06-30T14:41:11.000+02:00</time>
      </trkpt>
      <trkpt lat="43.55299" lon="2.7936">
        <ele>960.2</ele>
        <time>2021-06-30T14:41:12.000+02:00</time>
      </trkpt>
      <trkpt lat="43.55299" lon="2.79362">
        <ele>960.1</ele>
        <time>2021-06-30T14:41:13.000+02:00</time>
      </trkpt>
      <trkpt lat="43.55299" lon="2.79363">
        <ele>960</ele>
        <time>2021-06-30T14:41:14.000+02:00</time>
      </trkpt>
      <trkpt lat="43.55299" lon="2.79364">
        <ele>959.9</ele>
        <time>2021-06-30T14:41:15.000+02:00</time>
      </trkpt>
      <trkpt lat="43.55298" lon="2.79365">
        <ele>959.9</ele>
        <time>2021-06-30T14:41:16.000+02:00</time>
      </trkpt>
      <trkpt lat="43.55298" lon="2.79367">
        <ele>959.8</ele>
        <time>2021-06-30T14:41:17.000+02:00</time>
      </trkpt>
      <trkpt lat="43.55297" lon="2.79368">
        <ele>959.6</ele>
        <time>2021-06-30T14:41:18.000+02:00</time>
      </trkpt>
      <trkpt lat="43.55297" lon="2.79369">
        <ele>959.6</ele>
        <time>2021-06-30T14:41:19.000+02:00</time>
      </trkpt>
      <trkpt lat="43.55297" lon="2.7937">
        <ele>959.6</ele>
        <time>2021-06-30T14:41:20.000+02:00</time>
      </trkpt>
      <trkpt lat="43.55297" lon="2.79371">
        <ele>959.5</ele>
        <time>2021-06-30T14:41:21.000+02:00</time>
      </trkpt>
      <trkpt lat="43.55297" lon="2.79372">
        <ele>959.4</ele>
        <time>2021-06-30T14:41:22.000+02:00</time>
      </trkpt>
      <trkpt lat="43.55297" lon="2.79375">
        <ele>959.2</ele>
        <time>2021-06-30T14:41:23.000+02:00</time>
      </trkpt>
      <trkpt lat="43.55297" lon="2.79377">
        <ele>959.1</ele>
        <time>2021-06-30T14:41:24.000+02:00</time>
      </trkpt>
      <trkpt lat="43.55297" lon="2.79379">
        <ele>959</ele>
        <time>2021-06-30T14:41:25.000+02:00</time>
      </trkpt>
      <trkpt lat="43.55297" lon="2.79381">
        <ele>958.8</ele>
        <time>2021-06-30T14:41:26.000+02:00</time>
      </trkpt>
      <trkpt lat="43.55297" lon="2.79383">
        <ele>958.7</ele>
        <time>2021-06-30T14:41:27.000+02:00</time>
      </trkpt>
      <trkpt lat="43.55297" lon="2.79385">
        <ele>958.6</ele>
        <time>2021-06-30T14:41:28.000+02:00</time>
      </trkpt>
      <trkpt lat="43.55296" lon="2.79386">
        <ele>958.5</ele>
        <time>2021-06-30T14:41:29.000+02:00</time>
      </trkpt>
      <trkpt lat="43.55296" lon="2.79388">
        <ele>958.4</ele>
        <time>2021-06-30T14:41:30.000+02:00</time>
      </trkpt>
      <trkpt lat="43.55296" lon="2.79389">
        <ele>958.3</ele>
        <time>2021-06-30T14:41:31.000+02:00</time>
      </trkpt>
      <trkpt lat="43.55296" lon="2.7939">
        <ele>958.2</ele>
        <time>2021-06-30T14:41:32.000+02:00</time>
      </trkpt>
      <trkpt lat="43.55296" lon="2.79391">
        <ele>958.2</ele>
        <time>2021-06-30T14:41:33.000+02:00</time>
      </trkpt>
      <trkpt lat="43.55295" lon="2.79392">
        <ele>958.1</ele>
        <time>2021-06-30T14:41:34.000+02:00</time>
      </trkpt>
      <trkpt lat="43.55295" lon="2.79393">
        <ele>958.1</ele>
        <time>2021-06-30T14:41:35.000+02:00</time>
      </trkpt>
      <trkpt lat="43.55295" lon="2.79394">
        <ele>958</ele>
        <time>2021-06-30T14:41:36.000+02:00</time>
      </trkpt>
      <trkpt lat="43.55295" lon="2.79396">
        <ele>957.9</ele>
        <time>2021-06-30T14:41:37.000+02:00</time>
      </trkpt>
      <trkpt lat="43.55295" lon="2.79396">
        <ele>957.8</ele>
        <time>2021-06-30T14:41:38.000+02:00</time>
      </trkpt>
      <trkpt lat="43.55295" lon="2.79396">
        <ele>957.9</ele>
        <time>2021-06-30T14:41:39.000+02:00</time>
      </trkpt>
      <trkpt lat="43.55295" lon="2.79396">
        <ele>957.9</ele>
        <time>2021-06-30T14:41:40.000+02:00</time>
      </trkpt>
      <trkpt lat="43.55295" lon="2.79396">
        <ele>957.9</ele>
        <time>2021-06-30T14:41:41.000+02:00</time>
      </trkpt>
      <trkpt lat="43.55295" lon="2.79396">
        <ele>957.9</ele>
        <time>2021-06-30T14:41:42.000+02:00</time>
      </trkpt>
      <trkpt lat="43.55295" lon="2.79396">
        <ele>957.9</ele>
        <time>2021-06-30T14:41:43.000+02:00</time>
      </trkpt>
      <trkpt lat="43.55295" lon="2.79396">
        <ele>957.8</ele>
        <time>2021-06-30T14:41:44.000+02:00</time>
      </trkpt>
      <trkpt lat="43.55295" lon="2.79396">
        <ele>957.8</ele>
        <time>2021-06-30T14:41:45.000+02:00</time>
      </trkpt>
      <trkpt lat="43.55295" lon="2.79397">
        <ele>957.8</ele>
        <time>2021-06-30T14:41:46.000+02:00</time>
      </trkpt>
      <trkpt lat="43.55294" lon="2.79398">
        <ele>957.7</ele>
        <time>2021-06-30T14:41:47.000+02:00</time>
      </trkpt>
      <trkpt lat="43.55294" lon="2.794">
        <ele>957.6</ele>
        <time>2021-06-30T14:41:48.000+02:00</time>
      </trkpt>
      <trkpt lat="43.55294" lon="2.79401">
        <ele>957.5</ele>
        <time>2021-06-30T14:41:49.000+02:00</time>
      </trkpt>
      <trkpt lat="43.55294" lon="2.79402">
        <ele>957.4</ele>
        <time>2021-06-30T14:41:50.000+02:00</time>
      </trkpt>
      <trkpt lat="43.55294" lon="2.79404">
        <ele>957.3</ele>
        <time>2021-06-30T14:41:51.000+02:00</time>
      </trkpt>
      <trkpt lat="43.55293" lon="2.79406">
        <ele>957.2</ele>
        <time>2021-06-30T14:41:52.000+02:00</time>
      </trkpt>
      <trkpt lat="43.55292" lon="2.79407">
        <ele>957.1</ele>
        <time>2021-06-30T14:41:53.000+02:00</time>
      </trkpt>
      <trkpt lat="43.55292" lon="2.79409">
        <ele>957</ele>
        <time>2021-06-30T14:41:54.000+02:00</time>
      </trkpt>
      <trkpt lat="43.55291" lon="2.79411">
        <ele>956.9</ele>
        <time>2021-06-30T14:41:55.000+02:00</time>
      </trkpt>
      <trkpt lat="43.5529" lon="2.79413">
        <ele>956.8</ele>
        <time>2021-06-30T14:41:56.000+02:00</time>
      </trkpt>
      <trkpt lat="43.5529" lon="2.79414">
        <ele>956.7</ele>
        <time>2021-06-30T14:41:57.000+02:00</time>
      </trkpt>
      <trkpt lat="43.5529" lon="2.79415">
        <ele>956.6</ele>
        <time>2021-06-30T14:41:58.000+02:00</time>
      </trkpt>
      <trkpt lat="43.5529" lon="2.79416">
        <ele>956.5</ele>
        <time>2021-06-30T14:41:59.000+02:00</time>
      </trkpt>
      <trkpt lat="43.5529" lon="2.79417">
        <ele>956.6</ele>
        <time>2021-06-30T14:42:00.000+02:00</time>
      </trkpt>
      <trkpt lat="43.5529" lon="2.79419">
        <ele>956.8</ele>
        <time>2021-06-30T14:42:01.000+02:00</time>
      </trkpt>
      <trkpt lat="43.5529" lon="2.7942">
        <ele>957</ele>
        <time>2021-06-30T14:42:02.000+02:00</time>
      </trkpt>
      <trkpt lat="43.5529" lon="2.79421">
        <ele>957.1</ele>
        <time>2021-06-30T14:42:03.000+02:00</time>
      </trkpt>
      <trkpt lat="43.55291" lon="2.79423">
        <ele>957.4</ele>
        <time>2021-06-30T14:42:04.000+02:00</time>
      </trkpt>
      <trkpt lat="43.55291" lon="2.79424">
        <ele>957.4</ele>
        <time>2021-06-30T14:42:05.000+02:00</time>
      </trkpt>
      <trkpt lat="43.55291" lon="2.79424">
        <ele>957.5</ele>
        <time>2021-06-30T14:42:06.000+02:00</time>
      </trkpt>
      <trkpt lat="43.55291" lon="2.79425">
        <ele>957.6</ele>
        <time>2021-06-30T14:42:07.000+02:00</time>
      </trkpt>
      <trkpt lat="43.55291" lon="2.79426">
        <ele>957.7</ele>
        <time>2021-06-30T14:42:08.000+02:00</time>
      </trkpt>
      <trkpt lat="43.55291" lon="2.79426">
        <ele>957.8</ele>
        <time>2021-06-30T14:42:09.000+02:00</time>
      </trkpt>
      <trkpt lat="43.55291" lon="2.79428">
        <ele>957.9</ele>
        <time>2021-06-30T14:42:10.000+02:00</time>
      </trkpt>
      <trkpt lat="43.55291" lon="2.79427">
        <ele>957.9</ele>
        <time>2021-06-30T14:42:11.000+02:00</time>
      </trkpt>
      <trkpt lat="43.55291" lon="2.79427">
        <ele>957.9</ele>
        <time>2021-06-30T14:42:12.000+02:00</time>
      </trkpt>
      <trkpt lat="43.55292" lon="2.79427">
        <ele>957.9</ele>
        <time>2021-06-30T14:42:13.000+02:00</time>
      </trkpt>
      <trkpt lat="43.55292" lon="2.79427">
        <ele>957.9</ele>
        <time>2021-06-30T14:42:14.000+02:00</time>
      </trkpt>
      <trkpt lat="43.55292" lon="2.79427">
        <ele>957.8</ele>
        <time>2021-06-30T14:42:15.000+02:00</time>
      </trkpt>
      <trkpt lat="43.55292" lon="2.79426">
        <ele>957.8</ele>
        <time>2021-06-30T14:42:16.000+02:00</time>
      </trkpt>
      <trkpt lat="43.55293" lon="2.79426">
        <ele>957.7</ele>
        <time>2021-06-30T14:42:17.000+02:00</time>
      </trkpt>
      <trkpt lat="43.55294" lon="2.79426">
        <ele>957.7</ele>
        <time>2021-06-30T14:42:18.000+02:00</time>
      </trkpt>
      <trkpt lat="43.55294" lon="2.79426">
        <ele>957.7</ele>
        <time>2021-06-30T14:42:19.000+02:00</time>
      </trkpt>
      <trkpt lat="43.55294" lon="2.79426">
        <ele>957.6</ele>
        <time>2021-06-30T14:42:20.000+02:00</time>
      </trkpt>
      <trkpt lat="43.55294" lon="2.79426">
        <ele>957.6</ele>
        <time>2021-06-30T14:42:21.000+02:00</time>
      </trkpt>
      <trkpt lat="43.55294" lon="2.79426">
        <ele>957.6</ele>
        <time>2021-06-30T14:42:22.000+02:00</time>
      </trkpt>
      <trkpt lat="43.55294" lon="2.79426">
        <ele>957.6</ele>
        <time>2021-06-30T14:42:23.000+02:00</time>
      </trkpt>
      <trkpt lat="43.55295" lon="2.79426">
        <ele>957.6</ele>
        <time>2021-06-30T14:42:24.000+02:00</time>
      </trkpt>
      <trkpt lat="43.55295" lon="2.79426">
        <ele>957.6</ele>
        <time>2021-06-30T14:42:25.000+02:00</time>
      </trkpt>
      <trkpt lat="43.55295" lon="2.79426">
        <ele>957.6</ele>
        <time>2021-06-30T14:42:26.000+02:00</time>
      </trkpt>
      <trkpt lat="43.55295" lon="2.79425">
        <ele>957.6</ele>
        <time>2021-06-30T14:42:27.000+02:00</time>
      </trkpt>
      <trkpt lat="43.55295" lon="2.79425">
        <ele>957.6</ele>
        <time>2021-06-30T14:42:28.000+02:00</time>
      </trkpt>
      <trkpt lat="43.55295" lon="2.79426">
        <ele>957.6</ele>
        <time>2021-06-30T14:42:29.000+02:00</time>
      </trkpt>
      <trkpt lat="43.55295" lon="2.79425">
        <ele>957.6</ele>
        <time>2021-06-30T14:42:30.000+02:00</time>
      </trkpt>
      <trkpt lat="43.55296" lon="2.79425">
        <ele>957.6</ele>
        <time>2021-06-30T14:42:31.000+02:00</time>
      </trkpt>
      <trkpt lat="43.55296" lon="2.79425">
        <ele>957.6</ele>
        <time>2021-06-30T14:42:32.000+02:00</time>
      </trkpt>
      <trkpt lat="43.55296" lon="2.79425">
        <ele>957.6</ele>
        <time>2021-06-30T14:42:33.000+02:00</time>
      </trkpt>
      <trkpt lat="43.55296" lon="2.79425">
        <ele>957.6</ele>
        <time>2021-06-30T14:42:34.000+02:00</time>
      </trkpt>
      <trkpt lat="43.55296" lon="2.79425">
        <ele>957.6</ele>
        <time>2021-06-30T14:42:35.000+02:00</time>
      </trkpt>
      <trkpt lat="43.55296" lon="2.79425">
        <ele>957.6</ele>
        <time>2021-06-30T14:42:36.000+02:00</time>
      </trkpt>
      <trkpt lat="43.55296" lon="2.79425">
        <ele>957.5</ele>
        <time>2021-06-30T14:42:37.000+02:00</time>
      </trkpt>
      <trkpt lat="43.55297" lon="2.79423">
        <ele>957.3</ele>
        <time>2021-06-30T14:42:38.000+02:00</time>
      </trkpt>
      <trkpt lat="43.55298" lon="2.79422">
        <ele>957.2</ele>
        <time>2021-06-30T14:42:39.000+02:00</time>
      </trkpt>
      <trkpt lat="43.55298" lon="2.79422">
        <ele>957.2</ele>
        <time>2021-06-30T14:42:40.000+02:00</time>
      </trkpt>
      <trkpt lat="43.55299" lon="2.79422">
        <ele>957.2</ele>
        <time>2021-06-30T14:42:41.000+02:00</time>
      </trkpt>
      <trkpt lat="43.55299" lon="2.79422">
        <ele>957.2</ele>
        <time>2021-06-30T14:42:42.000+02:00</time>
      </trkpt>
      <trkpt lat="43.55299" lon="2.79422">
        <ele>957.1</ele>
        <time>2021-06-30T14:42:43.000+02:00</time>
      </trkpt>
      <trkpt lat="43.55299" lon="2.79422">
        <ele>957.1</ele>
        <time>2021-06-30T14:42:44.000+02:00</time>
      </trkpt>
      <trkpt lat="43.55299" lon="2.79422">
        <ele>957.1</ele>
        <time>2021-06-30T14:42:45.000+02:00</time>
      </trkpt>
      <trkpt lat="43.553" lon="2.79422">
        <ele>957.1</ele>
        <time>2021-06-30T14:42:46.000+02:00</time>
      </trkpt>
      <trkpt lat="43.553" lon="2.79421">
        <ele>957</ele>
        <time>2021-06-30T14:42:47.000+02:00</time>
      </trkpt>
      <trkpt lat="43.553" lon="2.79421">
        <ele>957</ele>
        <time>2021-06-30T14:42:48.000+02:00</time>
      </trkpt>
      <trkpt lat="43.553" lon="2.79421">
        <ele>957</ele>
        <time>2021-06-30T14:42:49.000+02:00</time>
      </trkpt>
      <trkpt lat="43.55299" lon="2.79422">
        <ele>957.1</ele>
        <time>2021-06-30T14:42:50.000+02:00</time>
      </trkpt>
      <trkpt lat="43.55299" lon="2.79422">
        <ele>957.1</ele>
        <time>2021-06-30T14:42:51.000+02:00</time>
      </trkpt>
      <trkpt lat="43.55299" lon="2.79422">
        <ele>957.1</ele>
        <time>2021-06-30T14:42:52.000+02:00</time>
      </trkpt>
      <trkpt lat="43.55299" lon="2.79422">
        <ele>957.1</ele>
        <time>2021-06-30T14:42:53.000+02:00</time>
      </trkpt>
      <trkpt lat="43.55299" lon="2.79422">
        <ele>957.1</ele>
        <time>2021-06-30T14:42:54.000+02:00</time>
      </trkpt>
      <trkpt lat="43.553" lon="2.79422">
        <ele>957.1</ele>
        <time>2021-06-30T14:42:55.000+02:00</time>
      </trkpt>
      <trkpt lat="43.553" lon="2.79422">
        <ele>957.1</ele>
        <time>2021-06-30T14:42:56.000+02:00</time>
      </trkpt>
      <trkpt lat="43.553" lon="2.79422">
        <ele>957.1</ele>
        <time>2021-06-30T14:42:57.000+02:00</time>
      </trkpt>
      <trkpt lat="43.553" lon="2.79422">
        <ele>957.1</ele>
        <time>2021-06-30T14:42:58.000+02:00</time>
      </trkpt>
      <trkpt lat="43.553" lon="2.79422">
        <ele>957.1</ele>
        <time>2021-06-30T14:42:59.000+02:00</time>
      </trkpt>
      <trkpt lat="43.553" lon="2.79422">
        <ele>957.1</ele>
        <time>2021-06-30T14:43:00.000+02:00</time>
      </trkpt>
      <trkpt lat="43.553" lon="2.79422">
        <ele>957.1</ele>
        <time>2021-06-30T14:43:01.000+02:00</time>
      </trkpt>
      <trkpt lat="43.553" lon="2.79422">
        <ele>957.1</ele>
        <time>2021-06-30T14:43:02.000+02:00</time>
      </trkpt>
      <trkpt lat="43.553" lon="2.79422">
        <ele>957.1</ele>
        <time>2021-06-30T14:43:03.000+02:00</time>
      </trkpt>
      <trkpt lat="43.553" lon="2.79422">
        <ele>957.1</ele>
        <time>2021-06-30T14:43:04.000+02:00</time>
      </trkpt>
      <trkpt lat="43.553" lon="2.79422">
        <ele>957.1</ele>
        <time>2021-06-30T14:43:05.000+02:00</time>
      </trkpt>
      <trkpt lat="43.553" lon="2.79422">
        <ele>957</ele>
        <time>2021-06-30T14:43:06.000+02:00</time>
      </trkpt>
      <trkpt lat="43.553" lon="2.79422">
        <ele>957</ele>
        <time>2021-06-30T14:43:07.000+02:00</time>
      </trkpt>
      <trkpt lat="43.553" lon="2.79421">
        <ele>957</ele>
        <time>2021-06-30T14:43:08.000+02:00</time>
      </trkpt>
      <trkpt lat="43.553" lon="2.79421">
        <ele>957</ele>
        <time>2021-06-30T14:43:09.000+02:00</time>
      </trkpt>
      <trkpt lat="43.553" lon="2.79421">
        <ele>957</ele>
        <time>2021-06-30T14:43:10.000+02:00</time>
      </trkpt>
      <trkpt lat="43.553" lon="2.79422">
        <ele>957</ele>
        <time>2021-06-30T14:43:11.000+02:00</time>
      </trkpt>
      <trkpt lat="43.553" lon="2.79422">
        <ele>957.1</ele>
        <time>2021-06-30T14:43:12.000+02:00</time>
      </trkpt>
      <trkpt lat="43.553" lon="2.79422">
        <ele>957.1</ele>
        <time>2021-06-30T14:43:13.000+02:00</time>
      </trkpt>
      <trkpt lat="43.553" lon="2.79422">
        <ele>957.1</ele>
        <time>2021-06-30T14:43:14.000+02:00</time>
      </trkpt>
      <trkpt lat="43.553" lon="2.79422">
        <ele>957.1</ele>
        <time>2021-06-30T14:43:15.000+02:00</time>
      </trkpt>
      <trkpt lat="43.553" lon="2.79422">
        <ele>957.1</ele>
        <time>2021-06-30T14:43:16.000+02:00</time>
      </trkpt>
      <trkpt lat="43.553" lon="2.79422">
        <ele>957.1</ele>
        <time>2021-06-30T14:43:17.000+02:00</time>
      </trkpt>
      <trkpt lat="43.553" lon="2.79422">
        <ele>957.1</ele>
        <time>2021-06-30T14:43:18.000+02:00</time>
      </trkpt>
      <trkpt lat="43.553" lon="2.79422">
        <ele>957.1</ele>
        <time>2021-06-30T14:43:19.000+02:00</time>
      </trkpt>
      <trkpt lat="43.553" lon="2.79422">
        <ele>957.1</ele>
        <time>2021-06-30T14:43:20.000+02:00</time>
      </trkpt>
      <trkpt lat="43.553" lon="2.79422">
        <ele>957.1</ele>
        <time>2021-06-30T14:43:21.000+02:00</time>
      </trkpt>
      <trkpt lat="43.553" lon="2.79422">
        <ele>957.1</ele>
        <time>2021-06-30T14:43:22.000+02:00</time>
      </trkpt>
      <trkpt lat="43.553" lon="2.79422">
        <ele>957.2</ele>
        <time>2021-06-30T14:43:23.000+02:00</time>
      </trkpt>
      <trkpt lat="43.55299" lon="2.79422">
        <ele>957.2</ele>
        <time>2021-06-30T14:43:24.000+02:00</time>
      </trkpt>
      <trkpt lat="43.55299" lon="2.79422">
        <ele>957.2</ele>
        <time>2021-06-30T14:43:25.000+02:00</time>
      </trkpt>
      <trkpt lat="43.55299" lon="2.79423">
        <ele>957.2</ele>
        <time>2021-06-30T14:43:26.000+02:00</time>
      </trkpt>
      <trkpt lat="43.55299" lon="2.79423">
        <ele>957.2</ele>
        <time>2021-06-30T14:43:27.000+02:00</time>
      </trkpt>
      <trkpt lat="43.55299" lon="2.79423">
        <ele>957.2</ele>
        <time>2021-06-30T14:43:28.000+02:00</time>
      </trkpt>
      <trkpt lat="43.55299" lon="2.79423">
        <ele>957.2</ele>
        <time>2021-06-30T14:43:29.000+02:00</time>
      </trkpt>
      <trkpt lat="43.55299" lon="2.79423">
        <ele>957.2</ele>
        <time>2021-06-30T14:43:30.000+02:00</time>
      </trkpt>
      <trkpt lat="43.55299" lon="2.79423">
        <ele>957.2</ele>
        <time>2021-06-30T14:43:31.000+02:00</time>
      </trkpt>
      <trkpt lat="43.55299" lon="2.79423">
        <ele>957.2</ele>
        <time>2021-06-30T14:43:32.000+02:00</time>
      </trkpt>
      <trkpt lat="43.55299" lon="2.79423">
        <ele>957.2</ele>
        <time>2021-06-30T14:43:33.000+02:00</time>
      </trkpt>
      <trkpt lat="43.55299" lon="2.79423">
        <ele>957.2</ele>
        <time>2021-06-30T14:43:34.000+02:00</time>
      </trkpt>
      <trkpt lat="43.55299" lon="2.79423">
        <ele>957.2</ele>
        <time>2021-06-30T14:43:35.000+02:00</time>
      </trkpt>
      <trkpt lat="43.55299" lon="2.79423">
        <ele>957.2</ele>
        <time>2021-06-30T14:43:36.000+02:00</time>
      </trkpt>
      <trkpt lat="43.55299" lon="2.79423">
        <ele>957.2</ele>
        <time>2021-06-30T14:43:37.000+02:00</time>
      </trkpt>
      <trkpt lat="43.55299" lon="2.79423">
        <ele>957.2</ele>
        <time>2021-06-30T14:43:38.000+02:00</time>
      </trkpt>
      <trkpt lat="43.55299" lon="2.79423">
        <ele>957.3</ele>
        <time>2021-06-30T14:43:39.000+02:00</time>
      </trkpt>
      <trkpt lat="43.55299" lon="2.79423">
        <ele>957.3</ele>
        <time>2021-06-30T14:43:40.000+02:00</time>
      </trkpt>
      <trkpt lat="43.55299" lon="2.79423">
        <ele>957.3</ele>
        <time>2021-06-30T14:43:41.000+02:00</time>
      </trkpt>
      <trkpt lat="43.55299" lon="2.79424">
        <ele>957.3</ele>
        <time>2021-06-30T14:43:42.000+02:00</time>
      </trkpt>
      <trkpt lat="43.55299" lon="2.79424">
        <ele>957.3</ele>
        <time>2021-06-30T14:43:43.000+02:00</time>
      </trkpt>
      <trkpt lat="43.55299" lon="2.79424">
        <ele>957.3</ele>
        <time>2021-06-30T14:43:44.000+02:00</time>
      </trkpt>
      <trkpt lat="43.55299" lon="2.79424">
        <ele>957.3</ele>
        <time>2021-06-30T14:43:45.000+02:00</time>
      </trkpt>
      <trkpt lat="43.55299" lon="2.79424">
        <ele>957.4</ele>
        <time>2021-06-30T14:43:46.000+02:00</time>
      </trkpt>
      <trkpt lat="43.55299" lon="2.79424">
        <ele>957.4</ele>
        <time>2021-06-30T14:43:47.000+02:00</time>
      </trkpt>
      <trkpt lat="43.55299" lon="2.79424">
        <ele>957.4</ele>
        <time>2021-06-30T14:43:48.000+02:00</time>
      </trkpt>
      <trkpt lat="43.55299" lon="2.79424">
        <ele>957.4</ele>
        <time>2021-06-30T14:43:49.000+02:00</time>
      </trkpt>
      <trkpt lat="43.55299" lon="2.79424">
        <ele>957.4</ele>
        <time>2021-06-30T14:43:50.000+02:00</time>
      </trkpt>
      <trkpt lat="43.55299" lon="2.79425">
        <ele>957.5</ele>
        <time>2021-06-30T14:43:51.000+02:00</time>
      </trkpt>
      <trkpt lat="43.55299" lon="2.79425">
        <ele>957.5</ele>
        <time>2021-06-30T14:43:52.000+02:00</time>
      </trkpt>
      <trkpt lat="43.55299" lon="2.79425">
        <ele>957.5</ele>
        <time>2021-06-30T14:43:53.000+02:00</time>
      </trkpt>
      <trkpt lat="43.55299" lon="2.79425">
        <ele>957.5</ele>
        <time>2021-06-30T14:43:54.000+02:00</time>
      </trkpt>
      <trkpt lat="43.55299" lon="2.79425">
        <ele>957.5</ele>
        <time>2021-06-30T14:43:55.000+02:00</time>
      </trkpt>
      <trkpt lat="43.55299" lon="2.79425">
        <ele>957.5</ele>
        <time>2021-06-30T14:43:56.000+02:00</time>
      </trkpt>
      <trkpt lat="43.55299" lon="2.79425">
        <ele>957.5</ele>
        <time>2021-06-30T14:43:57.000+02:00</time>
      </trkpt>
      <trkpt lat="43.55299" lon="2.79425">
        <ele>957.5</ele>
        <time>2021-06-30T14:43:58.000+02:00</time>
      </trkpt>
      <trkpt lat="43.55299" lon="2.79425">
        <ele>957.5</ele>
        <time>2021-06-30T14:43:59.000+02:00</time>
      </trkpt>
      <trkpt lat="43.55299" lon="2.79425">
        <ele>957.5</ele>
        <time>2021-06-30T14:44:00.000+02:00</time>
      </trkpt>
      <trkpt lat="43.55299" lon="2.79425">
        <ele>957.5</ele>
        <time>2021-06-30T14:44:01.000+02:00</time>
      </trkpt>
      <trkpt lat="43.55299" lon="2.79425">
        <ele>957.5</ele>
        <time>2021-06-30T14:44:02.000+02:00</time>
      </trkpt>
      <trkpt lat="43.55299" lon="2.79425">
        <ele>957.5</ele>
        <time>2021-06-30T14:44:03.000+02:00</time>
      </trkpt>
      <trkpt lat="43.55299" lon="2.79425">
        <ele>957.5</ele>
        <time>2021-06-30T14:44:04.000+02:00</time>
      </trkpt>
      <trkpt lat="43.55299" lon="2.79425">
        <ele>957.5</ele>
        <time>2021-06-30T14:44:05.000+02:00</time>
      </trkpt>
      <trkpt lat="43.55299" lon="2.79425">
        <ele>957.5</ele>
        <time>2021-06-30T14:44:06.000+02:00</time>
      </trkpt>
      <trkpt lat="43.55299" lon="2.79425">
        <ele>957.5</ele>
        <time>2021-06-30T14:44:07.000+02:00</time>
      </trkpt>
      <trkpt lat="43.55299" lon="2.79425">
        <ele>957.5</ele>
        <time>2021-06-30T14:44:08.000+02:00</time>
      </trkpt>
      <trkpt lat="43.55299" lon="2.79425">
        <ele>957.5</ele>
        <time>2021-06-30T14:44:09.000+02:00</time>
      </trkpt>
      <trkpt lat="43.55299" lon="2.79425">
        <ele>957.5</ele>
        <time>2021-06-30T14:44:10.000+02:00</time>
      </trkpt>
      <trkpt lat="43.55299" lon="2.79425">
        <ele>957.5</ele>
        <time>2021-06-30T14:44:11.000+02:00</time>
      </trkpt>
      <trkpt lat="43.55299" lon="2.79425">
        <ele>957.5</ele>
        <time>2021-06-30T14:44:12.000+02:00</time>
      </trkpt>
      <trkpt lat="43.55299" lon="2.79425">
        <ele>957.5</ele>
        <time>2021-06-30T14:44:13.000+02:00</time>
      </trkpt>
      <trkpt lat="43.55299" lon="2.79425">
        <ele>957.5</ele>
        <time>2021-06-30T14:44:14.000+02:00</time>
      </trkpt>
      <trkpt lat="43.55299" lon="2.79425">
        <ele>957.5</ele>
        <time>2021-06-30T14:44:15.000+02:00</time>
      </trkpt>
      <trkpt lat="43.55299" lon="2.79425">
        <ele>957.5</ele>
        <time>2021-06-30T14:44:16.000+02:00</time>
      </trkpt>
      <trkpt lat="43.55299" lon="2.79425">
        <ele>957.6</ele>
        <time>2021-06-30T14:44:17.000+02:00</time>
      </trkpt>
      <trkpt lat="43.55299" lon="2.79425">
        <ele>957.6</ele>
        <time>2021-06-30T14:44:18.000+02:00</time>
      </trkpt>
      <trkpt lat="43.55299" lon="2.79425">
        <ele>957.6</ele>
        <time>2021-06-30T14:44:19.000+02:00</time>
      </trkpt>
      <trkpt lat="43.55299" lon="2.79425">
        <ele>957.6</ele>
        <time>2021-06-30T14:44:20.000+02:00</time>
      </trkpt>
      <trkpt lat="43.55299" lon="2.79425">
        <ele>957.6</ele>
        <time>2021-06-30T14:44:21.000+02:00</time>
      </trkpt>
      <trkpt lat="43.55299" lon="2.79425">
        <ele>957.6</ele>
        <time>2021-06-30T14:44:22.000+02:00</time>
      </trkpt>
      <trkpt lat="43.55299" lon="2.79425">
        <ele>957.6</ele>
        <time>2021-06-30T14:44:23.000+02:00</time>
      </trkpt>
      <trkpt lat="43.55299" lon="2.79426">
        <ele>957.6</ele>
        <time>2021-06-30T14:44:24.000+02:00</time>
      </trkpt>
      <trkpt lat="43.55299" lon="2.79426">
        <ele>957.6</ele>
        <time>2021-06-30T14:44:25.000+02:00</time>
      </trkpt>
      <trkpt lat="43.55299" lon="2.79426">
        <ele>957.6</ele>
        <time>2021-06-30T14:44:26.000+02:00</time>
      </trkpt>
      <trkpt lat="43.55299" lon="2.79426">
        <ele>957.6</ele>
        <time>2021-06-30T14:44:27.000+02:00</time>
      </trkpt>
      <trkpt lat="43.55299" lon="2.79426">
        <ele>957.6</ele>
        <time>2021-06-30T14:44:28.000+02:00</time>
      </trkpt>
      <trkpt lat="43.55299" lon="2.79426">
        <ele>957.6</ele>
        <time>2021-06-30T14:44:29.000+02:00</time>
      </trkpt>
      <trkpt lat="43.55299" lon="2.79426">
        <ele>957.6</ele>
        <time>2021-06-30T14:44:30.000+02:00</time>
      </trkpt>
      <trkpt lat="43.55299" lon="2.79426">
        <ele>957.6</ele>
        <time>2021-06-30T14:44:31.000+02:00</time>
      </trkpt>
      <trkpt lat="43.55299" lon="2.79426">
        <ele>957.7</ele>
        <time>2021-06-30T14:44:32.000+02:00</time>
      </trkpt>
      <trkpt lat="43.55299" lon="2.79426">
        <ele>957.7</ele>
        <time>2021-06-30T14:44:33.000+02:00</time>
      </trkpt>
      <trkpt lat="43.55299" lon="2.79426">
        <ele>957.7</ele>
        <time>2021-06-30T14:44:34.000+02:00</time>
      </trkpt>
      <trkpt lat="43.55299" lon="2.79426">
        <ele>957.7</ele>
        <time>2021-06-30T14:44:35.000+02:00</time>
      </trkpt>
      <trkpt lat="43.55299" lon="2.79426">
        <ele>957.7</ele>
        <time>2021-06-30T14:44:36.000+02:00</time>
      </trkpt>
      <trkpt lat="43.55299" lon="2.79426">
        <ele>957.7</ele>
        <time>2021-06-30T14:44:37.000+02:00</time>
      </trkpt>
      <trkpt lat="43.55299" lon="2.79426">
        <ele>957.7</ele>
        <time>2021-06-30T14:44:38.000+02:00</time>
      </trkpt>
      <trkpt lat="43.55299" lon="2.79426">
        <ele>957.7</ele>
        <time>2021-06-30T14:44:39.000+02:00</time>
      </trkpt>
      <trkpt lat="43.55299" lon="2.79426">
        <ele>957.7</ele>
        <time>2021-06-30T14:44:40.000+02:00</time>
      </trkpt>
      <trkpt lat="43.55299" lon="2.79426">
        <ele>957.7</ele>
        <time>2021-06-30T14:44:41.000+02:00</time>
      </trkpt>
      <trkpt lat="43.55299" lon="2.79426">
        <ele>957.7</ele>
        <time>2021-06-30T14:44:42.000+02:00</time>
      </trkpt>
      <trkpt lat="43.55299" lon="2.79426">
        <ele>957.7</ele>
        <time>2021-06-30T14:44:43.000+02:00</time>
      </trkpt>
      <trkpt lat="43.553" lon="2.79426">
        <ele>957.7</ele>
        <time>2021-06-30T14:44:44.000+02:00</time>
      </trkpt>
      <trkpt lat="43.553" lon="2.79426">
        <ele>957.7</ele>
        <time>2021-06-30T14:44:45.000+02:00</time>
      </trkpt>
      <trkpt lat="43.553" lon="2.79426">
        <ele>957.7</ele>
        <time>2021-06-30T14:44:46.000+02:00</time>
      </trkpt>
      <trkpt lat="43.553" lon="2.79426">
        <ele>957.7</ele>
        <time>2021-06-30T14:44:47.000+02:00</time>
      </trkpt>
      <trkpt lat="43.553" lon="2.79426">
        <ele>957.7</ele>
        <time>2021-06-30T14:44:48.000+02:00</time>
      </trkpt>
      <trkpt lat="43.553" lon="2.79426">
        <ele>957.7</ele>
        <time>2021-06-30T14:44:49.000+02:00</time>
      </trkpt>
      <trkpt lat="43.553" lon="2.79427">
        <ele>957.7</ele>
        <time>2021-06-30T14:44:50.000+02:00</time>
      </trkpt>
      <trkpt lat="43.553" lon="2.79427">
        <ele>957.7</ele>
        <time>2021-06-30T14:44:51.000+02:00</time>
      </trkpt>
      <trkpt lat="43.553" lon="2.79427">
        <ele>957.7</ele>
        <time>2021-06-30T14:44:52.000+02:00</time>
      </trkpt>
      <trkpt lat="43.553" lon="2.79427">
        <ele>957.8</ele>
        <time>2021-06-30T14:44:53.000+02:00</time>
      </trkpt>
      <trkpt lat="43.553" lon="2.79427">
        <ele>957.7</ele>
        <time>2021-06-30T14:44:54.000+02:00</time>
      </trkpt>
      <trkpt lat="43.553" lon="2.79427">
        <ele>957.7</ele>
        <time>2021-06-30T14:44:55.000+02:00</time>
      </trkpt>
      <trkpt lat="43.553" lon="2.79427">
        <ele>957.8</ele>
        <time>2021-06-30T14:44:56.000+02:00</time>
      </trkpt>
      <trkpt lat="43.553" lon="2.79427">
        <ele>957.8</ele>
        <time>2021-06-30T14:44:57.000+02:00</time>
      </trkpt>
      <trkpt lat="43.553" lon="2.79427">
        <ele>957.8</ele>
        <time>2021-06-30T14:44:58.000+02:00</time>
      </trkpt>
      <trkpt lat="43.553" lon="2.79427">
        <ele>957.8</ele>
        <time>2021-06-30T14:44:59.000+02:00</time>
      </trkpt>
      <trkpt lat="43.553" lon="2.79427">
        <ele>957.8</ele>
        <time>2021-06-30T14:45:00.000+02:00</time>
      </trkpt>
      <trkpt lat="43.553" lon="2.79427">
        <ele>957.8</ele>
        <time>2021-06-30T14:45:01.000+02:00</time>
      </trkpt>
      <trkpt lat="43.553" lon="2.79427">
        <ele>957.8</ele>
        <time>2021-06-30T14:45:02.000+02:00</time>
      </trkpt>
      <trkpt lat="43.553" lon="2.79427">
        <ele>957.8</ele>
        <time>2021-06-30T14:45:03.000+02:00</time>
      </trkpt>
      <trkpt lat="43.553" lon="2.79427">
        <ele>957.8</ele>
        <time>2021-06-30T14:45:04.000+02:00</time>
      </trkpt>
      <trkpt lat="43.553" lon="2.79427">
        <ele>957.8</ele>
        <time>2021-06-30T14:45:05.000+02:00</time>
      </trkpt>
      <trkpt lat="43.553" lon="2.79428">
        <ele>957.8</ele>
        <time>2021-06-30T14:45:06.000+02:00</time>
      </trkpt>
      <trkpt lat="43.553" lon="2.79428">
        <ele>957.8</ele>
        <time>2021-06-30T14:45:07.000+02:00</time>
      </trkpt>
      <trkpt lat="43.553" lon="2.79428">
        <ele>957.8</ele>
        <time>2021-06-30T14:45:08.000+02:00</time>
      </trkpt>
      <trkpt lat="43.553" lon="2.79428">
        <ele>957.8</ele>
        <time>2021-06-30T14:45:09.000+02:00</time>
      </trkpt>
      <trkpt lat="43.553" lon="2.79428">
        <ele>957.8</ele>
        <time>2021-06-30T14:45:10.000+02:00</time>
      </trkpt>
      <trkpt lat="43.553" lon="2.79428">
        <ele>957.8</ele>
        <time>2021-06-30T14:45:11.000+02:00</time>
      </trkpt>
      <trkpt lat="43.553" lon="2.79428">
        <ele>957.8</ele>
        <time>2021-06-30T14:45:12.000+02:00</time>
      </trkpt>
      <trkpt lat="43.55299" lon="2.79428">
        <ele>957.8</ele>
        <time>2021-06-30T14:45:13.000+02:00</time>
      </trkpt>
      <trkpt lat="43.55299" lon="2.79428">
        <ele>957.9</ele>
        <time>2021-06-30T14:45:14.000+02:00</time>
      </trkpt>
      <trkpt lat="43.55299" lon="2.79428">
        <ele>957.9</ele>
        <time>2021-06-30T14:45:15.000+02:00</time>
      </trkpt>
      <trkpt lat="43.55299" lon="2.79428">
        <ele>957.9</ele>
        <time>2021-06-30T14:45:16.000+02:00</time>
      </trkpt>
      <trkpt lat="43.55299" lon="2.79428">
        <ele>957.9</ele>
        <time>2021-06-30T14:45:17.000+02:00</time>
      </trkpt>
      <trkpt lat="43.55299" lon="2.79428">
        <ele>957.9</ele>
        <time>2021-06-30T14:45:18.000+02:00</time>
      </trkpt>
      <trkpt lat="43.55299" lon="2.79428">
        <ele>957.9</ele>
        <time>2021-06-30T14:45:19.000+02:00</time>
      </trkpt>
      <trkpt lat="43.55299" lon="2.79428">
        <ele>957.9</ele>
        <time>2021-06-30T14:45:20.000+02:00</time>
      </trkpt>
      <trkpt lat="43.55299" lon="2.79428">
        <ele>957.9</ele>
        <time>2021-06-30T14:45:21.000+02:00</time>
      </trkpt>
      <trkpt lat="43.553" lon="2.79428">
        <ele>957.9</ele>
        <time>2021-06-30T14:45:22.000+02:00</time>
      </trkpt>
      <trkpt lat="43.553" lon="2.79429">
        <ele>958</ele>
        <time>2021-06-30T14:45:23.000+02:00</time>
      </trkpt>
      <trkpt lat="43.553" lon="2.79429">
        <ele>958</ele>
        <time>2021-06-30T14:45:24.000+02:00</time>
      </trkpt>
      <trkpt lat="43.553" lon="2.79429">
        <ele>958</ele>
        <time>2021-06-30T14:45:25.000+02:00</time>
      </trkpt>
      <trkpt lat="43.553" lon="2.79429">
        <ele>958</ele>
        <time>2021-06-30T14:45:26.000+02:00</time>
      </trkpt>
      <trkpt lat="43.553" lon="2.79429">
        <ele>958</ele>
        <time>2021-06-30T14:45:27.000+02:00</time>
      </trkpt>
      <trkpt lat="43.553" lon="2.79429">
        <ele>958</ele>
        <time>2021-06-30T14:45:28.000+02:00</time>
      </trkpt>
      <trkpt lat="43.553" lon="2.79429">
        <ele>958</ele>
        <time>2021-06-30T14:45:29.000+02:00</time>
      </trkpt>
      <trkpt lat="43.553" lon="2.79429">
        <ele>958</ele>
        <time>2021-06-30T14:45:30.000+02:00</time>
      </trkpt>
      <trkpt lat="43.553" lon="2.79429">
        <ele>958</ele>
        <time>2021-06-30T14:45:31.000+02:00</time>
      </trkpt>
      <trkpt lat="43.553" lon="2.79429">
        <ele>958</ele>
        <time>2021-06-30T14:45:32.000+02:00</time>
      </trkpt>
      <trkpt lat="43.553" lon="2.79429">
        <ele>958.1</ele>
        <time>2021-06-30T14:45:33.000+02:00</time>
      </trkpt>
      <trkpt lat="43.553" lon="2.79429">
        <ele>958.1</ele>
        <time>2021-06-30T14:45:34.000+02:00</time>
      </trkpt>
      <trkpt lat="43.553" lon="2.79429">
        <ele>958.1</ele>
        <time>2021-06-30T14:45:35.000+02:00</time>
      </trkpt>
      <trkpt lat="43.553" lon="2.79429">
        <ele>958.1</ele>
        <time>2021-06-30T14:45:36.000+02:00</time>
      </trkpt>
      <trkpt lat="43.553" lon="2.79429">
        <ele>958.1</ele>
        <time>2021-06-30T14:45:37.000+02:00</time>
      </trkpt>
      <trkpt lat="43.553" lon="2.7943">
        <ele>958.1</ele>
        <time>2021-06-30T14:45:38.000+02:00</time>
      </trkpt>
      <trkpt lat="43.553" lon="2.7943">
        <ele>958.1</ele>
        <time>2021-06-30T14:45:39.000+02:00</time>
      </trkpt>
      <trkpt lat="43.553" lon="2.7943">
        <ele>958.1</ele>
        <time>2021-06-30T14:45:40.000+02:00</time>
      </trkpt>
      <trkpt lat="43.553" lon="2.7943">
        <ele>958.1</ele>
        <time>2021-06-30T14:45:41.000+02:00</time>
      </trkpt>
      <trkpt lat="43.553" lon="2.7943">
        <ele>958.1</ele>
        <time>2021-06-30T14:45:42.000+02:00</time>
      </trkpt>
      <trkpt lat="43.553" lon="2.7943">
        <ele>958.2</ele>
        <time>2021-06-30T14:45:43.000+02:00</time>
      </trkpt>
      <trkpt lat="43.553" lon="2.7943">
        <ele>958.2</ele>
        <time>2021-06-30T14:45:44.000+02:00</time>
      </trkpt>
      <trkpt lat="43.553" lon="2.7943">
        <ele>958.2</ele>
        <time>2021-06-30T14:45:45.000+02:00</time>
      </trkpt>
      <trkpt lat="43.553" lon="2.7943">
        <ele>958.2</ele>
        <time>2021-06-30T14:45:46.000+02:00</time>
      </trkpt>
      <trkpt lat="43.553" lon="2.7943">
        <ele>958.2</ele>
        <time>2021-06-30T14:45:47.000+02:00</time>
      </trkpt>
      <trkpt lat="43.553" lon="2.7943">
        <ele>958.2</ele>
        <time>2021-06-30T14:45:48.000+02:00</time>
      </trkpt>
      <trkpt lat="43.553" lon="2.7943">
        <ele>958.2</ele>
        <time>2021-06-30T14:45:49.000+02:00</time>
      </trkpt>
      <trkpt lat="43.553" lon="2.7943">
        <ele>958.2</ele>
        <time>2021-06-30T14:45:50.000+02:00</time>
      </trkpt>
      <trkpt lat="43.553" lon="2.79431">
        <ele>958.2</ele>
        <time>2021-06-30T14:45:51.000+02:00</time>
      </trkpt>
      <trkpt lat="43.553" lon="2.79431">
        <ele>958.2</ele>
        <time>2021-06-30T14:45:52.000+02:00</time>
      </trkpt>
      <trkpt lat="43.553" lon="2.79431">
        <ele>958.2</ele>
        <time>2021-06-30T14:45:53.000+02:00</time>
      </trkpt>
      <trkpt lat="43.553" lon="2.79431">
        <ele>958.2</ele>
        <time>2021-06-30T14:45:54.000+02:00</time>
      </trkpt>
      <trkpt lat="43.55301" lon="2.79431">
        <ele>958.2</ele>
        <time>2021-06-30T14:45:55.000+02:00</time>
      </trkpt>
      <trkpt lat="43.55301" lon="2.79431">
        <ele>958.2</ele>
        <time>2021-06-30T14:45:56.000+02:00</time>
      </trkpt>
      <trkpt lat="43.55301" lon="2.79431">
        <ele>958.3</ele>
        <time>2021-06-30T14:45:57.000+02:00</time>
      </trkpt>
      <trkpt lat="43.55301" lon="2.79431">
        <ele>958.3</ele>
        <time>2021-06-30T14:45:58.000+02:00</time>
      </trkpt>
      <trkpt lat="43.55301" lon="2.79431">
        <ele>958.3</ele>
        <time>2021-06-30T14:45:59.000+02:00</time>
      </trkpt>
      <trkpt lat="43.55301" lon="2.79431">
        <ele>958.3</ele>
        <time>2021-06-30T14:46:00.000+02:00</time>
      </trkpt>
      <trkpt lat="43.55301" lon="2.79431">
        <ele>958.3</ele>
        <time>2021-06-30T14:46:01.000+02:00</time>
      </trkpt>
      <trkpt lat="43.55301" lon="2.79431">
        <ele>958.3</ele>
        <time>2021-06-30T14:46:02.000+02:00</time>
      </trkpt>
      <trkpt lat="43.55301" lon="2.79431">
        <ele>958.3</ele>
        <time>2021-06-30T14:46:03.000+02:00</time>
      </trkpt>
      <trkpt lat="43.55301" lon="2.79431">
        <ele>958.3</ele>
        <time>2021-06-30T14:46:04.000+02:00</time>
      </trkpt>
      <trkpt lat="43.55301" lon="2.79431">
        <ele>958.3</ele>
        <time>2021-06-30T14:46:05.000+02:00</time>
      </trkpt>
      <trkpt lat="43.55301" lon="2.79431">
        <ele>958.3</ele>
        <time>2021-06-30T14:46:06.000+02:00</time>
      </trkpt>
      <trkpt lat="43.55301" lon="2.79431">
        <ele>958.3</ele>
        <time>2021-06-30T14:46:07.000+02:00</time>
      </trkpt>
      <trkpt lat="43.55301" lon="2.79431">
        <ele>958.3</ele>
        <time>2021-06-30T14:46:08.000+02:00</time>
      </trkpt>
      <trkpt lat="43.55301" lon="2.79431">
        <ele>958.3</ele>
        <time>2021-06-30T14:46:09.000+02:00</time>
      </trkpt>
      <trkpt lat="43.55301" lon="2.79431">
        <ele>958.3</ele>
        <time>2021-06-30T14:46:10.000+02:00</time>
      </trkpt>
      <trkpt lat="43.55301" lon="2.79431">
        <ele>958.3</ele>
        <time>2021-06-30T14:46:11.000+02:00</time>
      </trkpt>
      <trkpt lat="43.55301" lon="2.79431">
        <ele>958.3</ele>
        <time>2021-06-30T14:46:12.000+02:00</time>
      </trkpt>
      <trkpt lat="43.55301" lon="2.79431">
        <ele>958.3</ele>
        <time>2021-06-30T14:46:13.000+02:00</time>
      </trkpt>
      <trkpt lat="43.55301" lon="2.79431">
        <ele>958.3</ele>
        <time>2021-06-30T14:46:14.000+02:00</time>
      </trkpt>
      <trkpt lat="43.55301" lon="2.79431">
        <ele>958.3</ele>
        <time>2021-06-30T14:46:15.000+02:00</time>
      </trkpt>
      <trkpt lat="43.55301" lon="2.79431">
        <ele>958.3</ele>
        <time>2021-06-30T14:46:16.000+02:00</time>
      </trkpt>
      <trkpt lat="43.55301" lon="2.79431">
        <ele>958.3</ele>
        <time>2021-06-30T14:46:17.000+02:00</time>
      </trkpt>
      <trkpt lat="43.55301" lon="2.79431">
        <ele>958.3</ele>
        <time>2021-06-30T14:46:18.000+02:00</time>
      </trkpt>
      <trkpt lat="43.55301" lon="2.79431">
        <ele>958.3</ele>
        <time>2021-06-30T14:46:19.000+02:00</time>
      </trkpt>
      <trkpt lat="43.55301" lon="2.79431">
        <ele>958.3</ele>
        <time>2021-06-30T14:46:20.000+02:00</time>
      </trkpt>
      <trkpt lat="43.55301" lon="2.79431">
        <ele>958.3</ele>
        <time>2021-06-30T14:46:21.000+02:00</time>
      </trkpt>
      <trkpt lat="43.55301" lon="2.79431">
        <ele>958.3</ele>
        <time>2021-06-30T14:46:22.000+02:00</time>
      </trkpt>
      <trkpt lat="43.55301" lon="2.79431">
        <ele>958.3</ele>
        <time>2021-06-30T14:46:23.000+02:00</time>
      </trkpt>
      <trkpt lat="43.55301" lon="2.79431">
        <ele>958.3</ele>
        <time>2021-06-30T14:46:24.000+02:00</time>
      </trkpt>
      <trkpt lat="43.553" lon="2.79431">
        <ele>958.3</ele>
        <time>2021-06-30T14:46:25.000+02:00</time>
      </trkpt>
      <trkpt lat="43.553" lon="2.79431">
        <ele>958.2</ele>
        <time>2021-06-30T14:46:26.000+02:00</time>
      </trkpt>
      <trkpt lat="43.553" lon="2.7943">
        <ele>958.2</ele>
        <time>2021-06-30T14:46:27.000+02:00</time>
      </trkpt>
      <trkpt lat="43.553" lon="2.7943">
        <ele>958.2</ele>
        <time>2021-06-30T14:46:28.000+02:00</time>
      </trkpt>
      <trkpt lat="43.553" lon="2.7943">
        <ele>958.2</ele>
        <time>2021-06-30T14:46:29.000+02:00</time>
      </trkpt>
      <trkpt lat="43.553" lon="2.7943">
        <ele>958.1</ele>
        <time>2021-06-30T14:46:30.000+02:00</time>
      </trkpt>
      <trkpt lat="43.553" lon="2.7943">
        <ele>958.1</ele>
        <time>2021-06-30T14:46:31.000+02:00</time>
      </trkpt>
      <trkpt lat="43.553" lon="2.79429">
        <ele>958.1</ele>
        <time>2021-06-30T14:46:32.000+02:00</time>
      </trkpt>
      <trkpt lat="43.55299" lon="2.79429">
        <ele>958.1</ele>
        <time>2021-06-30T14:46:33.000+02:00</time>
      </trkpt>
      <trkpt lat="43.55299" lon="2.79429">
        <ele>958</ele>
        <time>2021-06-30T14:46:34.000+02:00</time>
      </trkpt>
      <trkpt lat="43.55299" lon="2.79429">
        <ele>958</ele>
        <time>2021-06-30T14:46:35.000+02:00</time>
      </trkpt>
      <trkpt lat="43.55299" lon="2.79429">
        <ele>958</ele>
        <time>2021-06-30T14:46:36.000+02:00</time>
      </trkpt>
      <trkpt lat="43.55299" lon="2.79429">
        <ele>958</ele>
        <time>2021-06-30T14:46:37.000+02:00</time>
      </trkpt>
      <trkpt lat="43.55299" lon="2.79429">
        <ele>958</ele>
        <time>2021-06-30T14:46:38.000+02:00</time>
      </trkpt>
      <trkpt lat="43.55299" lon="2.79429">
        <ele>958</ele>
        <time>2021-06-30T14:46:39.000+02:00</time>
      </trkpt>
      <trkpt lat="43.55299" lon="2.79429">
        <ele>958</ele>
        <time>2021-06-30T14:46:40.000+02:00</time>
      </trkpt>
      <trkpt lat="43.55299" lon="2.79429">
        <ele>958</ele>
        <time>2021-06-30T14:46:41.000+02:00</time>
      </trkpt>
      <trkpt lat="43.55299" lon="2.79429">
        <ele>958</ele>
        <time>2021-06-30T14:46:42.000+02:00</time>
      </trkpt>
      <trkpt lat="43.55299" lon="2.79429">
        <ele>958</ele>
        <time>2021-06-30T14:46:43.000+02:00</time>
      </trkpt>
      <trkpt lat="43.55299" lon="2.79429">
        <ele>958</ele>
        <time>2021-06-30T14:46:44.000+02:00</time>
      </trkpt>
      <trkpt lat="43.55299" lon="2.79429">
        <ele>958</ele>
        <time>2021-06-30T14:46:45.000+02:00</time>
      </trkpt>
      <trkpt lat="43.55299" lon="2.79429">
        <ele>958</ele>
        <time>2021-06-30T14:46:46.000+02:00</time>
      </trkpt>
      <trkpt lat="43.553" lon="2.79429">
        <ele>958</ele>
        <time>2021-06-30T14:46:47.000+02:00</time>
      </trkpt>
      <trkpt lat="43.55299" lon="2.79429">
        <ele>958</ele>
        <time>2021-06-30T14:46:48.000+02:00</time>
      </trkpt>
      <trkpt lat="43.55299" lon="2.79429">
        <ele>958</ele>
        <time>2021-06-30T14:46:49.000+02:00</time>
      </trkpt>
      <trkpt lat="43.55299" lon="2.79429">
        <ele>958</ele>
        <time>2021-06-30T14:46:50.000+02:00</time>
      </trkpt>
      <trkpt lat="43.55299" lon="2.79429">
        <ele>958</ele>
        <time>2021-06-30T14:46:51.000+02:00</time>
      </trkpt>
      <trkpt lat="43.55299" lon="2.79429">
        <ele>958</ele>
        <time>2021-06-30T14:46:52.000+02:00</time>
      </trkpt>
      <trkpt lat="43.55299" lon="2.79429">
        <ele>958</ele>
        <time>2021-06-30T14:46:53.000+02:00</time>
      </trkpt>
      <trkpt lat="43.55299" lon="2.79429">
        <ele>958</ele>
        <time>2021-06-30T14:46:54.000+02:00</time>
      </trkpt>
      <trkpt lat="43.55299" lon="2.79428">
        <ele>958</ele>
        <time>2021-06-30T14:46:55.000+02:00</time>
      </trkpt>
      <trkpt lat="43.55299" lon="2.79428">
        <ele>957.9</ele>
        <time>2021-06-30T14:46:56.000+02:00</time>
      </trkpt>
      <trkpt lat="43.55299" lon="2.79428">
        <ele>957.9</ele>
        <time>2021-06-30T14:46:57.000+02:00</time>
      </trkpt>
      <trkpt lat="43.55299" lon="2.79428">
        <ele>957.9</ele>
        <time>2021-06-30T14:46:58.000+02:00</time>
      </trkpt>
      <trkpt lat="43.55299" lon="2.79428">
        <ele>957.9</ele>
        <time>2021-06-30T14:46:59.000+02:00</time>
      </trkpt>
      <trkpt lat="43.55299" lon="2.79428">
        <ele>957.9</ele>
        <time>2021-06-30T14:47:00.000+02:00</time>
      </trkpt>
      <trkpt lat="43.55299" lon="2.79428">
        <ele>957.9</ele>
        <time>2021-06-30T14:47:01.000+02:00</time>
      </trkpt>
      <trkpt lat="43.55299" lon="2.79428">
        <ele>957.9</ele>
        <time>2021-06-30T14:47:02.000+02:00</time>
      </trkpt>
      <trkpt lat="43.55299" lon="2.79428">
        <ele>957.9</ele>
        <time>2021-06-30T14:47:03.000+02:00</time>
      </trkpt>
      <trkpt lat="43.55299" lon="2.79428">
        <ele>957.9</ele>
        <time>2021-06-30T14:47:04.000+02:00</time>
      </trkpt>
      <trkpt lat="43.55299" lon="2.79428">
        <ele>957.9</ele>
        <time>2021-06-30T14:47:05.000+02:00</time>
      </trkpt>
      <trkpt lat="43.55299" lon="2.79428">
        <ele>957.9</ele>
        <time>2021-06-30T14:47:06.000+02:00</time>
      </trkpt>
      <trkpt lat="43.55299" lon="2.79428">
        <ele>957.9</ele>
        <time>2021-06-30T14:47:07.000+02:00</time>
      </trkpt>
      <trkpt lat="43.55299" lon="2.79428">
        <ele>957.9</ele>
        <time>2021-06-30T14:47:08.000+02:00</time>
      </trkpt>
      <trkpt lat="43.55299" lon="2.79428">
        <ele>957.9</ele>
        <time>2021-06-30T14:47:09.000+02:00</time>
      </trkpt>
      <trkpt lat="43.55299" lon="2.79428">
        <ele>958</ele>
        <time>2021-06-30T14:47:10.000+02:00</time>
      </trkpt>
      <trkpt lat="43.55299" lon="2.79428">
        <ele>958</ele>
        <time>2021-06-30T14:47:11.000+02:00</time>
      </trkpt>
      <trkpt lat="43.55299" lon="2.79429">
        <ele>958</ele>
        <time>2021-06-30T14:47:12.000+02:00</time>
      </trkpt>
      <trkpt lat="43.55299" lon="2.79429">
        <ele>958</ele>
        <time>2021-06-30T14:47:13.000+02:00</time>
      </trkpt>
      <trkpt lat="43.55299" lon="2.79429">
        <ele>958</ele>
        <time>2021-06-30T14:47:14.000+02:00</time>
      </trkpt>
      <trkpt lat="43.55299" lon="2.79429">
        <ele>958</ele>
        <time>2021-06-30T14:47:15.000+02:00</time>
      </trkpt>
      <trkpt lat="43.55299" lon="2.79429">
        <ele>958</ele>
        <time>2021-06-30T14:47:16.000+02:00</time>
      </trkpt>
      <trkpt lat="43.55299" lon="2.79429">
        <ele>958</ele>
        <time>2021-06-30T14:47:17.000+02:00</time>
      </trkpt>
      <trkpt lat="43.55299" lon="2.79429">
        <ele>958</ele>
        <time>2021-06-30T14:47:18.000+02:00</time>
      </trkpt>
      <trkpt lat="43.55299" lon="2.79429">
        <ele>958</ele>
        <time>2021-06-30T14:47:19.000+02:00</time>
      </trkpt>
      <trkpt lat="43.55299" lon="2.79429">
        <ele>958</ele>
        <time>2021-06-30T14:47:20.000+02:00</time>
      </trkpt>
      <trkpt lat="43.55299" lon="2.79429">
        <ele>958</ele>
        <time>2021-06-30T14:47:21.000+02:00</time>
      </trkpt>
      <trkpt lat="43.55299" lon="2.79428">
        <ele>958</ele>
        <time>2021-06-30T14:47:22.000+02:00</time>
      </trkpt>
      <trkpt lat="43.55299" lon="2.79428">
        <ele>958</ele>
        <time>2021-06-30T14:47:23.000+02:00</time>
      </trkpt>
      <trkpt lat="43.55299" lon="2.79428">
        <ele>958</ele>
        <time>2021-06-30T14:47:24.000+02:00</time>
      </trkpt>
      <trkpt lat="43.55299" lon="2.79428">
        <ele>958</ele>
        <time>2021-06-30T14:47:25.000+02:00</time>
      </trkpt>
      <trkpt lat="43.55299" lon="2.79429">
        <ele>958</ele>
        <time>2021-06-30T14:47:26.000+02:00</time>
      </trkpt>
      <trkpt lat="43.55299" lon="2.79429">
        <ele>958</ele>
        <time>2021-06-30T14:47:27.000+02:00</time>
      </trkpt>
      <trkpt lat="43.55299" lon="2.79429">
        <ele>958</ele>
        <time>2021-06-30T14:47:28.000+02:00</time>
      </trkpt>
      <trkpt lat="43.55299" lon="2.79429">
        <ele>958</ele>
        <time>2021-06-30T14:47:29.000+02:00</time>
      </trkpt>
      <trkpt lat="43.55299" lon="2.79429">
        <ele>958</ele>
        <time>2021-06-30T14:47:30.000+02:00</time>
      </trkpt>
      <trkpt lat="43.55299" lon="2.79429">
        <ele>958.1</ele>
        <time>2021-06-30T14:47:31.000+02:00</time>
      </trkpt>
      <trkpt lat="43.55299" lon="2.79429">
        <ele>958.1</ele>
        <time>2021-06-30T14:47:32.000+02:00</time>
      </trkpt>
      <trkpt lat="43.55299" lon="2.79429">
        <ele>958.1</ele>
        <time>2021-06-30T14:47:33.000+02:00</time>
      </trkpt>
      <trkpt lat="43.55299" lon="2.79429">
        <ele>958.1</ele>
        <time>2021-06-30T14:47:34.000+02:00</time>
      </trkpt>
      <trkpt lat="43.55299" lon="2.79429">
        <ele>958.1</ele>
        <time>2021-06-30T14:47:35.000+02:00</time>
      </trkpt>
      <trkpt lat="43.55299" lon="2.79429">
        <ele>958.1</ele>
        <time>2021-06-30T14:47:36.000+02:00</time>
      </trkpt>
      <trkpt lat="43.55299" lon="2.79429">
        <ele>958.1</ele>
        <time>2021-06-30T14:47:37.000+02:00</time>
      </trkpt>
      <trkpt lat="43.55299" lon="2.7943">
        <ele>958.1</ele>
        <time>2021-06-30T14:47:38.000+02:00</time>
      </trkpt>
      <trkpt lat="43.55299" lon="2.7943">
        <ele>958.1</ele>
        <time>2021-06-30T14:47:39.000+02:00</time>
      </trkpt>
      <trkpt lat="43.55299" lon="2.7943">
        <ele>958.1</ele>
        <time>2021-06-30T14:47:40.000+02:00</time>
      </trkpt>
      <trkpt lat="43.55299" lon="2.7943">
        <ele>958.1</ele>
        <time>2021-06-30T14:47:41.000+02:00</time>
      </trkpt>
      <trkpt lat="43.55299" lon="2.7943">
        <ele>958.2</ele>
        <time>2021-06-30T14:47:42.000+02:00</time>
      </trkpt>
      <trkpt lat="43.55299" lon="2.7943">
        <ele>958.1</ele>
        <time>2021-06-30T14:47:43.000+02:00</time>
      </trkpt>
      <trkpt lat="43.55299" lon="2.7943">
        <ele>958.1</ele>
        <time>2021-06-30T14:47:44.000+02:00</time>
      </trkpt>
      <trkpt lat="43.55299" lon="2.7943">
        <ele>958.2</ele>
        <time>2021-06-30T14:47:45.000+02:00</time>
      </trkpt>
      <trkpt lat="43.55299" lon="2.7943">
        <ele>958.2</ele>
        <time>2021-06-30T14:47:46.000+02:00</time>
      </trkpt>
      <trkpt lat="43.55299" lon="2.7943">
        <ele>958.2</ele>
        <time>2021-06-30T14:47:47.000+02:00</time>
      </trkpt>
      <trkpt lat="43.55299" lon="2.7943">
        <ele>958.2</ele>
        <time>2021-06-30T14:47:48.000+02:00</time>
      </trkpt>
      <trkpt lat="43.55299" lon="2.79431">
        <ele>958.2</ele>
        <time>2021-06-30T14:47:49.000+02:00</time>
      </trkpt>
      <trkpt lat="43.55299" lon="2.79431">
        <ele>958.3</ele>
        <time>2021-06-30T14:47:50.000+02:00</time>
      </trkpt>
      <trkpt lat="43.55299" lon="2.79431">
        <ele>958.3</ele>
        <time>2021-06-30T14:47:51.000+02:00</time>
      </trkpt>
      <trkpt lat="43.55299" lon="2.79431">
        <ele>958.3</ele>
        <time>2021-06-30T14:47:52.000+02:00</time>
      </trkpt>
      <trkpt lat="43.55299" lon="2.79431">
        <ele>958.3</ele>
        <time>2021-06-30T14:47:53.000+02:00</time>
      </trkpt>
      <trkpt lat="43.55299" lon="2.79431">
        <ele>958.3</ele>
        <time>2021-06-30T14:47:54.000+02:00</time>
      </trkpt>
      <trkpt lat="43.55299" lon="2.79431">
        <ele>958.3</ele>
        <time>2021-06-30T14:47:55.000+02:00</time>
      </trkpt>
      <trkpt lat="43.55299" lon="2.79431">
        <ele>958.3</ele>
        <time>2021-06-30T14:47:56.000+02:00</time>
      </trkpt>
      <trkpt lat="43.55299" lon="2.79431">
        <ele>958.3</ele>
        <time>2021-06-30T14:47:57.000+02:00</time>
      </trkpt>
      <trkpt lat="43.55299" lon="2.79431">
        <ele>958.3</ele>
        <time>2021-06-30T14:47:58.000+02:00</time>
      </trkpt>
      <trkpt lat="43.55299" lon="2.79431">
        <ele>958.3</ele>
        <time>2021-06-30T14:47:59.000+02:00</time>
      </trkpt>
      <trkpt lat="43.55298" lon="2.79431">
        <ele>958.3</ele>
        <time>2021-06-30T14:48:00.000+02:00</time>
      </trkpt>
      <trkpt lat="43.55298" lon="2.79431">
        <ele>958.3</ele>
        <time>2021-06-30T14:48:01.000+02:00</time>
      </trkpt>
      <trkpt lat="43.55299" lon="2.7943">
        <ele>958.2</ele>
        <time>2021-06-30T14:48:02.000+02:00</time>
      </trkpt>
      <trkpt lat="43.55299" lon="2.7943">
        <ele>958.2</ele>
        <time>2021-06-30T14:48:03.000+02:00</time>
      </trkpt>
      <trkpt lat="43.55299" lon="2.7943">
        <ele>958.1</ele>
        <time>2021-06-30T14:48:04.000+02:00</time>
      </trkpt>
      <trkpt lat="43.55299" lon="2.7943">
        <ele>958.1</ele>
        <time>2021-06-30T14:48:05.000+02:00</time>
      </trkpt>
      <trkpt lat="43.55299" lon="2.7943">
        <ele>958.1</ele>
        <time>2021-06-30T14:48:06.000+02:00</time>
      </trkpt>
      <trkpt lat="43.55299" lon="2.7943">
        <ele>958.1</ele>
        <time>2021-06-30T14:48:07.000+02:00</time>
      </trkpt>
      <trkpt lat="43.55299" lon="2.79429">
        <ele>958.1</ele>
        <time>2021-06-30T14:48:08.000+02:00</time>
      </trkpt>
      <trkpt lat="43.553" lon="2.79429">
        <ele>958.1</ele>
        <time>2021-06-30T14:48:09.000+02:00</time>
      </trkpt>
      <trkpt lat="43.553" lon="2.79429">
        <ele>958</ele>
        <time>2021-06-30T14:48:10.000+02:00</time>
      </trkpt>
      <trkpt lat="43.553" lon="2.79429">
        <ele>958</ele>
        <time>2021-06-30T14:48:11.000+02:00</time>
      </trkpt>
      <trkpt lat="43.553" lon="2.79429">
        <ele>958.1</ele>
        <time>2021-06-30T14:48:12.000+02:00</time>
      </trkpt>
      <trkpt lat="43.55301" lon="2.7943">
        <ele>958.1</ele>
        <time>2021-06-30T14:48:13.000+02:00</time>
      </trkpt>
      <trkpt lat="43.55301" lon="2.7943">
        <ele>958.2</ele>
        <time>2021-06-30T14:48:14.000+02:00</time>
      </trkpt>
      <trkpt lat="43.55302" lon="2.7943">
        <ele>958.2</ele>
        <time>2021-06-30T14:48:15.000+02:00</time>
      </trkpt>
      <trkpt lat="43.55302" lon="2.7943">
        <ele>958.1</ele>
        <time>2021-06-30T14:48:16.000+02:00</time>
      </trkpt>
      <trkpt lat="43.55302" lon="2.7943">
        <ele>958.1</ele>
        <time>2021-06-30T14:48:17.000+02:00</time>
      </trkpt>
      <trkpt lat="43.55302" lon="2.7943">
        <ele>958.1</ele>
        <time>2021-06-30T14:48:18.000+02:00</time>
      </trkpt>
      <trkpt lat="43.55302" lon="2.7943">
        <ele>958.1</ele>
        <time>2021-06-30T14:48:19.000+02:00</time>
      </trkpt>
      <trkpt lat="43.55302" lon="2.7943">
        <ele>958.1</ele>
        <time>2021-06-30T14:48:20.000+02:00</time>
      </trkpt>
      <trkpt lat="43.55302" lon="2.7943">
        <ele>958.1</ele>
        <time>2021-06-30T14:48:21.000+02:00</time>
      </trkpt>
      <trkpt lat="43.55302" lon="2.7943">
        <ele>958.1</ele>
        <time>2021-06-30T14:48:22.000+02:00</time>
      </trkpt>
      <trkpt lat="43.55302" lon="2.7943">
        <ele>958.1</ele>
        <time>2021-06-30T14:48:23.000+02:00</time>
      </trkpt>
      <trkpt lat="43.55302" lon="2.7943">
        <ele>958.1</ele>
        <time>2021-06-30T14:48:24.000+02:00</time>
      </trkpt>
      <trkpt lat="43.55302" lon="2.7943">
        <ele>958.1</ele>
        <time>2021-06-30T14:48:25.000+02:00</time>
      </trkpt>
      <trkpt lat="43.55302" lon="2.7943">
        <ele>958.1</ele>
        <time>2021-06-30T14:48:26.000+02:00</time>
      </trkpt>
      <trkpt lat="43.55302" lon="2.7943">
        <ele>958.1</ele>
        <time>2021-06-30T14:48:27.000+02:00</time>
      </trkpt>
      <trkpt lat="43.55302" lon="2.79429">
        <ele>958.1</ele>
        <time>2021-06-30T14:48:28.000+02:00</time>
      </trkpt>
      <trkpt lat="43.55302" lon="2.79429">
        <ele>958.1</ele>
        <time>2021-06-30T14:48:29.000+02:00</time>
      </trkpt>
      <trkpt lat="43.55302" lon="2.79429">
        <ele>958.1</ele>
        <time>2021-06-30T14:48:30.000+02:00</time>
      </trkpt>
      <trkpt lat="43.55302" lon="2.79429">
        <ele>958.1</ele>
        <time>2021-06-30T14:48:31.000+02:00</time>
      </trkpt>
      <trkpt lat="43.55302" lon="2.79429">
        <ele>958.1</ele>
        <time>2021-06-30T14:48:32.000+02:00</time>
      </trkpt>
      <trkpt lat="43.55302" lon="2.79429">
        <ele>958</ele>
        <time>2021-06-30T14:48:33.000+02:00</time>
      </trkpt>
      <trkpt lat="43.55302" lon="2.79429">
        <ele>958.1</ele>
        <time>2021-06-30T14:48:34.000+02:00</time>
      </trkpt>
      <trkpt lat="43.55302" lon="2.79429">
        <ele>958.1</ele>
        <time>2021-06-30T14:48:35.000+02:00</time>
      </trkpt>
      <trkpt lat="43.55302" lon="2.79429">
        <ele>958.1</ele>
        <time>2021-06-30T14:48:36.000+02:00</time>
      </trkpt>
      <trkpt lat="43.55302" lon="2.7943">
        <ele>958.1</ele>
        <time>2021-06-30T14:48:37.000+02:00</time>
      </trkpt>
      <trkpt lat="43.55302" lon="2.7943">
        <ele>958.1</ele>
        <time>2021-06-30T14:48:38.000+02:00</time>
      </trkpt>
      <trkpt lat="43.55303" lon="2.7943">
        <ele>958.1</ele>
        <time>2021-06-30T14:48:39.000+02:00</time>
      </trkpt>
      <trkpt lat="43.55303" lon="2.7943">
        <ele>958.1</ele>
        <time>2021-06-30T14:48:40.000+02:00</time>
      </trkpt>
      <trkpt lat="43.55303" lon="2.7943">
        <ele>958.1</ele>
        <time>2021-06-30T14:48:41.000+02:00</time>
      </trkpt>
      <trkpt lat="43.55303" lon="2.7943">
        <ele>958.1</ele>
        <time>2021-06-30T14:48:42.000+02:00</time>
      </trkpt>
      <trkpt lat="43.55303" lon="2.7943">
        <ele>958.1</ele>
        <time>2021-06-30T14:48:43.000+02:00</time>
      </trkpt>
      <trkpt lat="43.55303" lon="2.7943">
        <ele>958.1</ele>
        <time>2021-06-30T14:48:44.000+02:00</time>
      </trkpt>
      <trkpt lat="43.55303" lon="2.7943">
        <ele>958.2</ele>
        <time>2021-06-30T14:48:45.000+02:00</time>
      </trkpt>
      <trkpt lat="43.55303" lon="2.79431">
        <ele>958.3</ele>
        <time>2021-06-30T14:48:46.000+02:00</time>
      </trkpt>
      <trkpt lat="43.55303" lon="2.79432">
        <ele>958.4</ele>
        <time>2021-06-30T14:48:47.000+02:00</time>
      </trkpt>
      <trkpt lat="43.55303" lon="2.79433">
        <ele>958.5</ele>
        <time>2021-06-30T14:48:48.000+02:00</time>
      </trkpt>
      <trkpt lat="43.55303" lon="2.79434">
        <ele>958.7</ele>
        <time>2021-06-30T14:48:49.000+02:00</time>
      </trkpt>
      <trkpt lat="43.55303" lon="2.79436">
        <ele>958.9</ele>
        <time>2021-06-30T14:48:50.000+02:00</time>
      </trkpt>
      <trkpt lat="43.55303" lon="2.79436">
        <ele>959</ele>
        <time>2021-06-30T14:48:51.000+02:00</time>
      </trkpt>
      <trkpt lat="43.55303" lon="2.79438">
        <ele>959.1</ele>
        <time>2021-06-30T14:48:52.000+02:00</time>
      </trkpt>
      <trkpt lat="43.55303" lon="2.79439">
        <ele>959.3</ele>
        <time>2021-06-30T14:48:53.000+02:00</time>
      </trkpt>
      <trkpt lat="43.55303" lon="2.7944">
        <ele>959.5</ele>
        <time>2021-06-30T14:48:54.000+02:00</time>
      </trkpt>
      <trkpt lat="43.55303" lon="2.79442">
        <ele>959.7</ele>
        <time>2021-06-30T14:48:55.000+02:00</time>
      </trkpt>
      <trkpt lat="43.55302" lon="2.79444">
        <ele>960</ele>
        <time>2021-06-30T14:48:56.000+02:00</time>
      </trkpt>
      <trkpt lat="43.55302" lon="2.79445">
        <ele>960.1</ele>
        <time>2021-06-30T14:48:57.000+02:00</time>
      </trkpt>
      <trkpt lat="43.55302" lon="2.79447">
        <ele>960.3</ele>
        <time>2021-06-30T14:48:58.000+02:00</time>
      </trkpt>
      <trkpt lat="43.55303" lon="2.79448">
        <ele>960.5</ele>
        <time>2021-06-30T14:48:59.000+02:00</time>
      </trkpt>
      <trkpt lat="43.55303" lon="2.79449">
        <ele>960.7</ele>
        <time>2021-06-30T14:49:00.000+02:00</time>
      </trkpt>
      <trkpt lat="43.55303" lon="2.7945">
        <ele>960.8</ele>
        <time>2021-06-30T14:49:01.000+02:00</time>
      </trkpt>
      <trkpt lat="43.55303" lon="2.79452">
        <ele>961</ele>
        <time>2021-06-30T14:49:02.000+02:00</time>
      </trkpt>
      <trkpt lat="43.55303" lon="2.79453">
        <ele>961.2</ele>
        <time>2021-06-30T14:49:03.000+02:00</time>
      </trkpt>
      <trkpt lat="43.55304" lon="2.79455">
        <ele>961.5</ele>
        <time>2021-06-30T14:49:04.000+02:00</time>
      </trkpt>
      <trkpt lat="43.55304" lon="2.79457">
        <ele>961.7</ele>
        <time>2021-06-30T14:49:05.000+02:00</time>
      </trkpt>
      <trkpt lat="43.55304" lon="2.79459">
        <ele>961.9</ele>
        <time>2021-06-30T14:49:06.000+02:00</time>
      </trkpt>
      <trkpt lat="43.55305" lon="2.7946">
        <ele>962.1</ele>
        <time>2021-06-30T14:49:07.000+02:00</time>
      </trkpt>
      <trkpt lat="43.55305" lon="2.79462">
        <ele>962.3</ele>
        <time>2021-06-30T14:49:08.000+02:00</time>
      </trkpt>
      <trkpt lat="43.55305" lon="2.79464">
        <ele>962.6</ele>
        <time>2021-06-30T14:49:09.000+02:00</time>
      </trkpt>
      <trkpt lat="43.55306" lon="2.79466">
        <ele>962.9</ele>
        <time>2021-06-30T14:49:10.000+02:00</time>
      </trkpt>
      <trkpt lat="43.55306" lon="2.79468">
        <ele>963.1</ele>
        <time>2021-06-30T14:49:11.000+02:00</time>
      </trkpt>
      <trkpt lat="43.55306" lon="2.7947">
        <ele>963.3</ele>
        <time>2021-06-30T14:49:12.000+02:00</time>
      </trkpt>
      <trkpt lat="43.55306" lon="2.79471">
        <ele>963.5</ele>
        <time>2021-06-30T14:49:13.000+02:00</time>
      </trkpt>
      <trkpt lat="43.55306" lon="2.79472">
        <ele>963.6</ele>
        <time>2021-06-30T14:49:14.000+02:00</time>
      </trkpt>
      <trkpt lat="43.55305" lon="2.79473">
        <ele>963.8</ele>
        <time>2021-06-30T14:49:15.000+02:00</time>
      </trkpt>
      <trkpt lat="43.55305" lon="2.79474">
        <ele>964</ele>
        <time>2021-06-30T14:49:16.000+02:00</time>
      </trkpt>
      <trkpt lat="43.55305" lon="2.79476">
        <ele>964.2</ele>
        <time>2021-06-30T14:49:17.000+02:00</time>
      </trkpt>
      <trkpt lat="43.55305" lon="2.79478">
        <ele>964.4</ele>
        <time>2021-06-30T14:49:18.000+02:00</time>
      </trkpt>
      <trkpt lat="43.55305" lon="2.79479">
        <ele>964.6</ele>
        <time>2021-06-30T14:49:19.000+02:00</time>
      </trkpt>
      <trkpt lat="43.55305" lon="2.79481">
        <ele>964.8</ele>
        <time>2021-06-30T14:49:20.000+02:00</time>
      </trkpt>
      <trkpt lat="43.55304" lon="2.79483">
        <ele>965.1</ele>
        <time>2021-06-30T14:49:21.000+02:00</time>
      </trkpt>
      <trkpt lat="43.55304" lon="2.79485">
        <ele>965.3</ele>
        <time>2021-06-30T14:49:22.000+02:00</time>
      </trkpt>
      <trkpt lat="43.55304" lon="2.79486">
        <ele>965.5</ele>
        <time>2021-06-30T14:49:23.000+02:00</time>
      </trkpt>
      <trkpt lat="43.55304" lon="2.79488">
        <ele>965.7</ele>
        <time>2021-06-30T14:49:24.000+02:00</time>
      </trkpt>
      <trkpt lat="43.55305" lon="2.79489">
        <ele>965.9</ele>
        <time>2021-06-30T14:49:25.000+02:00</time>
      </trkpt>
      <trkpt lat="43.55305" lon="2.79491">
        <ele>966.1</ele>
        <time>2021-06-30T14:49:26.000+02:00</time>
      </trkpt>
      <trkpt lat="43.55305" lon="2.79492">
        <ele>966.3</ele>
        <time>2021-06-30T14:49:27.000+02:00</time>
      </trkpt>
      <trkpt lat="43.55305" lon="2.79494">
        <ele>966.6</ele>
        <time>2021-06-30T14:49:28.000+02:00</time>
      </trkpt>
      <trkpt lat="43.55305" lon="2.79496">
        <ele>966.8</ele>
        <time>2021-06-30T14:49:29.000+02:00</time>
      </trkpt>
      <trkpt lat="43.55305" lon="2.79498">
        <ele>967.1</ele>
        <time>2021-06-30T14:49:30.000+02:00</time>
      </trkpt>
      <trkpt lat="43.55305" lon="2.795">
        <ele>967.3</ele>
        <time>2021-06-30T14:49:31.000+02:00</time>
      </trkpt>
      <trkpt lat="43.55305" lon="2.79502">
        <ele>967.5</ele>
        <time>2021-06-30T14:49:32.000+02:00</time>
      </trkpt>
      <trkpt lat="43.55304" lon="2.79504">
        <ele>967.7</ele>
        <time>2021-06-30T14:49:33.000+02:00</time>
      </trkpt>
      <trkpt lat="43.55304" lon="2.79506">
        <ele>967.8</ele>
        <time>2021-06-30T14:49:34.000+02:00</time>
      </trkpt>
      <trkpt lat="43.55304" lon="2.79509">
        <ele>968</ele>
        <time>2021-06-30T14:49:35.000+02:00</time>
      </trkpt>
      <trkpt lat="43.55305" lon="2.7951">
        <ele>968.1</ele>
        <time>2021-06-30T14:49:36.000+02:00</time>
      </trkpt>
      <trkpt lat="43.55305" lon="2.79511">
        <ele>968.2</ele>
        <time>2021-06-30T14:49:37.000+02:00</time>
      </trkpt>
      <trkpt lat="43.55306" lon="2.79513">
        <ele>968.3</ele>
        <time>2021-06-30T14:49:38.000+02:00</time>
      </trkpt>
      <trkpt lat="43.55306" lon="2.79514">
        <ele>968.4</ele>
        <time>2021-06-30T14:49:39.000+02:00</time>
      </trkpt>
      <trkpt lat="43.55306" lon="2.79514">
        <ele>968.4</ele>
        <time>2021-06-30T14:49:40.000+02:00</time>
      </trkpt>
      <trkpt lat="43.55306" lon="2.79515">
        <ele>968.5</ele>
        <time>2021-06-30T14:49:41.000+02:00</time>
      </trkpt>
      <trkpt lat="43.55307" lon="2.79516">
        <ele>968.5</ele>
        <time>2021-06-30T14:49:42.000+02:00</time>
      </trkpt>
      <trkpt lat="43.55307" lon="2.79516">
        <ele>968.5</ele>
        <time>2021-06-30T14:49:43.000+02:00</time>
      </trkpt>
      <trkpt lat="43.55307" lon="2.79518">
        <ele>968.6</ele>
        <time>2021-06-30T14:49:44.000+02:00</time>
      </trkpt>
      <trkpt lat="43.55308" lon="2.79518">
        <ele>968.7</ele>
        <time>2021-06-30T14:49:45.000+02:00</time>
      </trkpt>
      <trkpt lat="43.55308" lon="2.79519">
        <ele>968.7</ele>
        <time>2021-06-30T14:49:46.000+02:00</time>
      </trkpt>
      <trkpt lat="43.55309" lon="2.7952">
        <ele>968.8</ele>
        <time>2021-06-30T14:49:47.000+02:00</time>
      </trkpt>
      <trkpt lat="43.5531" lon="2.7952">
        <ele>968.8</ele>
        <time>2021-06-30T14:49:48.000+02:00</time>
      </trkpt>
      <trkpt lat="43.5531" lon="2.79521">
        <ele>968.8</ele>
        <time>2021-06-30T14:49:49.000+02:00</time>
      </trkpt>
      <trkpt lat="43.55311" lon="2.79522">
        <ele>968.9</ele>
        <time>2021-06-30T14:49:50.000+02:00</time>
      </trkpt>
      <trkpt lat="43.55311" lon="2.79522">
        <ele>968.9</ele>
        <time>2021-06-30T14:49:51.000+02:00</time>
      </trkpt>
      <trkpt lat="43.55312" lon="2.79523">
        <ele>968.9</ele>
        <time>2021-06-30T14:49:52.000+02:00</time>
      </trkpt>
      <trkpt lat="43.55312" lon="2.79523">
        <ele>968.9</ele>
        <time>2021-06-30T14:49:53.000+02:00</time>
      </trkpt>
      <trkpt lat="43.55313" lon="2.79524">
        <ele>969</ele>
        <time>2021-06-30T14:49:54.000+02:00</time>
      </trkpt>
      <trkpt lat="43.55314" lon="2.79525">
        <ele>969</ele>
        <time>2021-06-30T14:49:55.000+02:00</time>
      </trkpt>
      <trkpt lat="43.55315" lon="2.79526">
        <ele>969.1</ele>
        <time>2021-06-30T14:49:56.000+02:00</time>
      </trkpt>
      <trkpt lat="43.55316" lon="2.79527">
        <ele>969.1</ele>
        <time>2021-06-30T14:49:57.000+02:00</time>
      </trkpt>
      <trkpt lat="43.55317" lon="2.79528">
        <ele>969.1</ele>
        <time>2021-06-30T14:49:58.000+02:00</time>
      </trkpt>
      <trkpt lat="43.55318" lon="2.79529">
        <ele>969.2</ele>
        <time>2021-06-30T14:49:59.000+02:00</time>
      </trkpt>
      <trkpt lat="43.55319" lon="2.7953">
        <ele>969.2</ele>
        <time>2021-06-30T14:50:00.000+02:00</time>
      </trkpt>
      <trkpt lat="43.5532" lon="2.79531">
        <ele>969.3</ele>
        <time>2021-06-30T14:50:01.000+02:00</time>
      </trkpt>
      <trkpt lat="43.55321" lon="2.79532">
        <ele>969.3</ele>
        <time>2021-06-30T14:50:02.000+02:00</time>
      </trkpt>
      <trkpt lat="43.55322" lon="2.79533">
        <ele>969.3</ele>
        <time>2021-06-30T14:50:03.000+02:00</time>
      </trkpt>
      <trkpt lat="43.55323" lon="2.79535">
        <ele>969.4</ele>
        <time>2021-06-30T14:50:04.000+02:00</time>
      </trkpt>
      <trkpt lat="43.55324" lon="2.79535">
        <ele>969.4</ele>
        <time>2021-06-30T14:50:05.000+02:00</time>
      </trkpt>
      <trkpt lat="43.55325" lon="2.79537">
        <ele>969.5</ele>
        <time>2021-06-30T14:50:06.000+02:00</time>
      </trkpt>
      <trkpt lat="43.55326" lon="2.79538">
        <ele>969.5</ele>
        <time>2021-06-30T14:50:07.000+02:00</time>
      </trkpt>
      <trkpt lat="43.55328" lon="2.79539">
        <ele>969.5</ele>
        <time>2021-06-30T14:50:08.000+02:00</time>
      </trkpt>
      <trkpt lat="43.55328" lon="2.7954">
        <ele>969.6</ele>
        <time>2021-06-30T14:50:09.000+02:00</time>
      </trkpt>
      <trkpt lat="43.55329" lon="2.79541">
        <ele>969.6</ele>
        <time>2021-06-30T14:50:10.000+02:00</time>
      </trkpt>
      <trkpt lat="43.55331" lon="2.79542">
        <ele>969.6</ele>
        <time>2021-06-30T14:50:11.000+02:00</time>
      </trkpt>
      <trkpt lat="43.55332" lon="2.79543">
        <ele>969.7</ele>
        <time>2021-06-30T14:50:12.000+02:00</time>
      </trkpt>
      <trkpt lat="43.55333" lon="2.79544">
        <ele>969.7</ele>
        <time>2021-06-30T14:50:13.000+02:00</time>
      </trkpt>
      <trkpt lat="43.55334" lon="2.79546">
        <ele>969.7</ele>
        <time>2021-06-30T14:50:14.000+02:00</time>
      </trkpt>
      <trkpt lat="43.55334" lon="2.79548">
        <ele>969.8</ele>
        <time>2021-06-30T14:50:15.000+02:00</time>
      </trkpt>
      <trkpt lat="43.55334" lon="2.79549">
        <ele>969.8</ele>
        <time>2021-06-30T14:50:16.000+02:00</time>
      </trkpt>
      <trkpt lat="43.55335" lon="2.79549">
        <ele>969.9</ele>
        <time>2021-06-30T14:50:17.000+02:00</time>
      </trkpt>
      <trkpt lat="43.55335" lon="2.7955">
        <ele>969.9</ele>
        <time>2021-06-30T14:50:18.000+02:00</time>
      </trkpt>
      <trkpt lat="43.55335" lon="2.7955">
        <ele>969.9</ele>
        <time>2021-06-30T14:50:19.000+02:00</time>
      </trkpt>
      <trkpt lat="43.55335" lon="2.79552">
        <ele>970</ele>
        <time>2021-06-30T14:50:20.000+02:00</time>
      </trkpt>
      <trkpt lat="43.55335" lon="2.79554">
        <ele>970.1</ele>
        <time>2021-06-30T14:50:21.000+02:00</time>
      </trkpt>
      <trkpt lat="43.55335" lon="2.79555">
        <ele>970.1</ele>
        <time>2021-06-30T14:50:22.000+02:00</time>
      </trkpt>
      <trkpt lat="43.55335" lon="2.79557">
        <ele>970.3</ele>
        <time>2021-06-30T14:50:23.000+02:00</time>
      </trkpt>
      <trkpt lat="43.55335" lon="2.79558">
        <ele>970.3</ele>
        <time>2021-06-30T14:50:24.000+02:00</time>
      </trkpt>
      <trkpt lat="43.55335" lon="2.79558">
        <ele>970.3</ele>
        <time>2021-06-30T14:50:25.000+02:00</time>
      </trkpt>
      <trkpt lat="43.55335" lon="2.79559">
        <ele>970.4</ele>
        <time>2021-06-30T14:50:26.000+02:00</time>
      </trkpt>
      <trkpt lat="43.55335" lon="2.7956">
        <ele>970.5</ele>
        <time>2021-06-30T14:50:27.000+02:00</time>
      </trkpt>
      <trkpt lat="43.55335" lon="2.79562">
        <ele>970.6</ele>
        <time>2021-06-30T14:50:28.000+02:00</time>
      </trkpt>
      <trkpt lat="43.55335" lon="2.79562">
        <ele>970.6</ele>
        <time>2021-06-30T14:50:29.000+02:00</time>
      </trkpt>
      <trkpt lat="43.55335" lon="2.79563">
        <ele>970.6</ele>
        <time>2021-06-30T14:50:30.000+02:00</time>
      </trkpt>
      <trkpt lat="43.55335" lon="2.79563">
        <ele>970.6</ele>
        <time>2021-06-30T14:50:31.000+02:00</time>
      </trkpt>
      <trkpt lat="43.55335" lon="2.79563">
        <ele>970.6</ele>
        <time>2021-06-30T14:50:32.000+02:00</time>
      </trkpt>
      <trkpt lat="43.55335" lon="2.79564">
        <ele>970.6</ele>
        <time>2021-06-30T14:50:33.000+02:00</time>
      </trkpt>
      <trkpt lat="43.55335" lon="2.79564">
        <ele>970.7</ele>
        <time>2021-06-30T14:50:34.000+02:00</time>
      </trkpt>
      <trkpt lat="43.55335" lon="2.79565">
        <ele>970.7</ele>
        <time>2021-06-30T14:50:35.000+02:00</time>
      </trkpt>
      <trkpt lat="43.55335" lon="2.79566">
        <ele>970.8</ele>
        <time>2021-06-30T14:50:36.000+02:00</time>
      </trkpt>
      <trkpt lat="43.55335" lon="2.79567">
        <ele>970.9</ele>
        <time>2021-06-30T14:50:37.000+02:00</time>
      </trkpt>
      <trkpt lat="43.55335" lon="2.79567">
        <ele>970.9</ele>
        <time>2021-06-30T14:50:38.000+02:00</time>
      </trkpt>
      <trkpt lat="43.55334" lon="2.79568">
        <ele>971</ele>
        <time>2021-06-30T14:50:39.000+02:00</time>
      </trkpt>
      <trkpt lat="43.55334" lon="2.79569">
        <ele>971.1</ele>
        <time>2021-06-30T14:50:40.000+02:00</time>
      </trkpt>
      <trkpt lat="43.55334" lon="2.79571">
        <ele>971.2</ele>
        <time>2021-06-30T14:50:41.000+02:00</time>
      </trkpt>
      <trkpt lat="43.55334" lon="2.79573">
        <ele>971.3</ele>
        <time>2021-06-30T14:50:42.000+02:00</time>
      </trkpt>
      <trkpt lat="43.55334" lon="2.79574">
        <ele>971.4</ele>
        <time>2021-06-30T14:50:43.000+02:00</time>
      </trkpt>
      <trkpt lat="43.55334" lon="2.79575">
        <ele>971.4</ele>
        <time>2021-06-30T14:50:44.000+02:00</time>
      </trkpt>
      <trkpt lat="43.55334" lon="2.79576">
        <ele>971.5</ele>
        <time>2021-06-30T14:50:45.000+02:00</time>
      </trkpt>
      <trkpt lat="43.55334" lon="2.79578">
        <ele>971.6</ele>
        <time>2021-06-30T14:50:46.000+02:00</time>
      </trkpt>
      <trkpt lat="43.55333" lon="2.7958">
        <ele>971.8</ele>
        <time>2021-06-30T14:50:47.000+02:00</time>
      </trkpt>
      <trkpt lat="43.55333" lon="2.79581">
        <ele>971.9</ele>
        <time>2021-06-30T14:50:48.000+02:00</time>
      </trkpt>
      <trkpt lat="43.55333" lon="2.79582">
        <ele>972</ele>
        <time>2021-06-30T14:50:49.000+02:00</time>
      </trkpt>
      <trkpt lat="43.55333" lon="2.79583">
        <ele>972</ele>
        <time>2021-06-30T14:50:50.000+02:00</time>
      </trkpt>
      <trkpt lat="43.55332" lon="2.79583">
        <ele>972</ele>
        <time>2021-06-30T14:50:51.000+02:00</time>
      </trkpt>
      <trkpt lat="43.55332" lon="2.79584">
        <ele>972.1</ele>
        <time>2021-06-30T14:50:52.000+02:00</time>
      </trkpt>
      <trkpt lat="43.55332" lon="2.79585">
        <ele>972.2</ele>
        <time>2021-06-30T14:50:53.000+02:00</time>
      </trkpt>
      <trkpt lat="43.55331" lon="2.79586">
        <ele>972.3</ele>
        <time>2021-06-30T14:50:54.000+02:00</time>
      </trkpt>
      <trkpt lat="43.55331" lon="2.79587">
        <ele>972.4</ele>
        <time>2021-06-30T14:50:55.000+02:00</time>
      </trkpt>
      <trkpt lat="43.55331" lon="2.79587">
        <ele>972.4</ele>
        <time>2021-06-30T14:50:56.000+02:00</time>
      </trkpt>
      <trkpt lat="43.55332" lon="2.79587">
        <ele>972.4</ele>
        <time>2021-06-30T14:50:57.000+02:00</time>
      </trkpt>
      <trkpt lat="43.55331" lon="2.79589">
        <ele>972.6</ele>
        <time>2021-06-30T14:50:58.000+02:00</time>
      </trkpt>
      <trkpt lat="43.55331" lon="2.79591">
        <ele>972.7</ele>
        <time>2021-06-30T14:50:59.000+02:00</time>
      </trkpt>
      <trkpt lat="43.55331" lon="2.79593">
        <ele>972.9</ele>
        <time>2021-06-30T14:51:00.000+02:00</time>
      </trkpt>
      <trkpt lat="43.55331" lon="2.79594">
        <ele>973</ele>
        <time>2021-06-30T14:51:01.000+02:00</time>
      </trkpt>
      <trkpt lat="43.55332" lon="2.79595">
        <ele>973</ele>
        <time>2021-06-30T14:51:02.000+02:00</time>
      </trkpt>
      <trkpt lat="43.55331" lon="2.79596">
        <ele>973</ele>
        <time>2021-06-30T14:51:03.000+02:00</time>
      </trkpt>
      <trkpt lat="43.55331" lon="2.79596">
        <ele>973.1</ele>
        <time>2021-06-30T14:51:04.000+02:00</time>
      </trkpt>
      <trkpt lat="43.55332" lon="2.79597">
        <ele>973.1</ele>
        <time>2021-06-30T14:51:05.000+02:00</time>
      </trkpt>
      <trkpt lat="43.55332" lon="2.79599">
        <ele>973.2</ele>
        <time>2021-06-30T14:51:06.000+02:00</time>
      </trkpt>
      <trkpt lat="43.55332" lon="2.79601">
        <ele>973.3</ele>
        <time>2021-06-30T14:51:07.000+02:00</time>
      </trkpt>
      <trkpt lat="43.55333" lon="2.79601">
        <ele>973.3</ele>
        <time>2021-06-30T14:51:08.000+02:00</time>
      </trkpt>
      <trkpt lat="43.55333" lon="2.79601">
        <ele>973.3</ele>
        <time>2021-06-30T14:51:09.000+02:00</time>
      </trkpt>
      <trkpt lat="43.55333" lon="2.79603">
        <ele>973.4</ele>
        <time>2021-06-30T14:51:10.000+02:00</time>
      </trkpt>
      <trkpt lat="43.55334" lon="2.79603">
        <ele>973.4</ele>
        <time>2021-06-30T14:51:11.000+02:00</time>
      </trkpt>
      <trkpt lat="43.55334" lon="2.79605">
        <ele>973.4</ele>
        <time>2021-06-30T14:51:12.000+02:00</time>
      </trkpt>
      <trkpt lat="43.55334" lon="2.79607">
        <ele>973.6</ele>
        <time>2021-06-30T14:51:13.000+02:00</time>
      </trkpt>
      <trkpt lat="43.55334" lon="2.79609">
        <ele>973.8</ele>
        <time>2021-06-30T14:51:14.000+02:00</time>
      </trkpt>
      <trkpt lat="43.55334" lon="2.79611">
        <ele>973.9</ele>
        <time>2021-06-30T14:51:15.000+02:00</time>
      </trkpt>
      <trkpt lat="43.55334" lon="2.79613">
        <ele>974.1</ele>
        <time>2021-06-30T14:51:16.000+02:00</time>
      </trkpt>
      <trkpt lat="43.55333" lon="2.79616">
        <ele>974.4</ele>
        <time>2021-06-30T14:51:17.000+02:00</time>
      </trkpt>
      <trkpt lat="43.55333" lon="2.79618">
        <ele>974.6</ele>
        <time>2021-06-30T14:51:18.000+02:00</time>
      </trkpt>
      <trkpt lat="43.55333" lon="2.79621">
        <ele>974.8</ele>
        <time>2021-06-30T14:51:19.000+02:00</time>
      </trkpt>
      <trkpt lat="43.55332" lon="2.79624">
        <ele>975</ele>
        <time>2021-06-30T14:51:20.000+02:00</time>
      </trkpt>
      <trkpt lat="43.55332" lon="2.79626">
        <ele>975.2</ele>
        <time>2021-06-30T14:51:21.000+02:00</time>
      </trkpt>
      <trkpt lat="43.55331" lon="2.79627">
        <ele>975.4</ele>
        <time>2021-06-30T14:51:22.000+02:00</time>
      </trkpt>
      <trkpt lat="43.5533" lon="2.79628">
        <ele>975.6</ele>
        <time>2021-06-30T14:51:23.000+02:00</time>
      </trkpt>
      <trkpt lat="43.5533" lon="2.7963">
        <ele>975.7</ele>
        <time>2021-06-30T14:51:24.000+02:00</time>
      </trkpt>
      <trkpt lat="43.55329" lon="2.79632">
        <ele>975.9</ele>
        <time>2021-06-30T14:51:25.000+02:00</time>
      </trkpt>
      <trkpt lat="43.55328" lon="2.79633">
        <ele>976.2</ele>
        <time>2021-06-30T14:51:26.000+02:00</time>
      </trkpt>
      <trkpt lat="43.55327" lon="2.79636">
        <ele>976.5</ele>
        <time>2021-06-30T14:51:27.000+02:00</time>
      </trkpt>
      <trkpt lat="43.55327" lon="2.79638">
        <ele>976.6</ele>
        <time>2021-06-30T14:51:28.000+02:00</time>
      </trkpt>
      <trkpt lat="43.55326" lon="2.79639">
        <ele>976.8</ele>
        <time>2021-06-30T14:51:29.000+02:00</time>
      </trkpt>
      <trkpt lat="43.55325" lon="2.7964">
        <ele>977.1</ele>
        <time>2021-06-30T14:51:30.000+02:00</time>
      </trkpt>
      <trkpt lat="43.55325" lon="2.79642">
        <ele>977.2</ele>
        <time>2021-06-30T14:51:31.000+02:00</time>
      </trkpt>
      <trkpt lat="43.55324" lon="2.79643">
        <ele>977.5</ele>
        <time>2021-06-30T14:51:32.000+02:00</time>
      </trkpt>
      <trkpt lat="43.55323" lon="2.79644">
        <ele>977.6</ele>
        <time>2021-06-30T14:51:33.000+02:00</time>
      </trkpt>
      <trkpt lat="43.55323" lon="2.79645">
        <ele>977.7</ele>
        <time>2021-06-30T14:51:34.000+02:00</time>
      </trkpt>
      <trkpt lat="43.55322" lon="2.79647">
        <ele>977.9</ele>
        <time>2021-06-30T14:51:35.000+02:00</time>
      </trkpt>
      <trkpt lat="43.55321" lon="2.79649">
        <ele>978.2</ele>
        <time>2021-06-30T14:51:36.000+02:00</time>
      </trkpt>
      <trkpt lat="43.5532" lon="2.7965">
        <ele>978.4</ele>
        <time>2021-06-30T14:51:37.000+02:00</time>
      </trkpt>
      <trkpt lat="43.5532" lon="2.79651">
        <ele>978.6</ele>
        <time>2021-06-30T14:51:38.000+02:00</time>
      </trkpt>
      <trkpt lat="43.5532" lon="2.79652">
        <ele>978.7</ele>
        <time>2021-06-30T14:51:39.000+02:00</time>
      </trkpt>
      <trkpt lat="43.55319" lon="2.79653">
        <ele>978.8</ele>
        <time>2021-06-30T14:51:40.000+02:00</time>
      </trkpt>
      <trkpt lat="43.55319" lon="2.79654">
        <ele>979</ele>
        <time>2021-06-30T14:51:41.000+02:00</time>
      </trkpt>
      <trkpt lat="43.55318" lon="2.79655">
        <ele>979.2</ele>
        <time>2021-06-30T14:51:42.000+02:00</time>
      </trkpt>
      <trkpt lat="43.55318" lon="2.79657">
        <ele>979.4</ele>
        <time>2021-06-30T14:51:43.000+02:00</time>
      </trkpt>
      <trkpt lat="43.55318" lon="2.79659">
        <ele>979.6</ele>
        <time>2021-06-30T14:51:44.000+02:00</time>
      </trkpt>
      <trkpt lat="43.55317" lon="2.7966">
        <ele>979.8</ele>
        <time>2021-06-30T14:51:45.000+02:00</time>
      </trkpt>
      <trkpt lat="43.55316" lon="2.79662">
        <ele>980.1</ele>
        <time>2021-06-30T14:51:46.000+02:00</time>
      </trkpt>
      <trkpt lat="43.55316" lon="2.79664">
        <ele>980.3</ele>
        <time>2021-06-30T14:51:47.000+02:00</time>
      </trkpt>
      <trkpt lat="43.55316" lon="2.79665">
        <ele>980.4</ele>
        <time>2021-06-30T14:51:48.000+02:00</time>
      </trkpt>
      <trkpt lat="43.55315" lon="2.79666">
        <ele>980.6</ele>
        <time>2021-06-30T14:51:49.000+02:00</time>
      </trkpt>
      <trkpt lat="43.55315" lon="2.79667">
        <ele>980.6</ele>
        <time>2021-06-30T14:51:50.000+02:00</time>
      </trkpt>
      <trkpt lat="43.55315" lon="2.79668">
        <ele>980.7</ele>
        <time>2021-06-30T14:51:51.000+02:00</time>
      </trkpt>
      <trkpt lat="43.55315" lon="2.79669">
        <ele>980.7</ele>
        <time>2021-06-30T14:51:52.000+02:00</time>
      </trkpt>
      <trkpt lat="43.55314" lon="2.7967">
        <ele>980.8</ele>
        <time>2021-06-30T14:51:53.000+02:00</time>
      </trkpt>
      <trkpt lat="43.55314" lon="2.7967">
        <ele>980.8</ele>
        <time>2021-06-30T14:51:54.000+02:00</time>
      </trkpt>
      <trkpt lat="43.55315" lon="2.79671">
        <ele>980.7</ele>
        <time>2021-06-30T14:51:55.000+02:00</time>
      </trkpt>
      <trkpt lat="43.55314" lon="2.79673">
        <ele>980.8</ele>
        <time>2021-06-30T14:51:56.000+02:00</time>
      </trkpt>
      <trkpt lat="43.55314" lon="2.79674">
        <ele>980.8</ele>
        <time>2021-06-30T14:51:57.000+02:00</time>
      </trkpt>
      <trkpt lat="43.55314" lon="2.79676">
        <ele>980.9</ele>
        <time>2021-06-30T14:51:58.000+02:00</time>
      </trkpt>
      <trkpt lat="43.55314" lon="2.79677">
        <ele>980.9</ele>
        <time>2021-06-30T14:51:59.000+02:00</time>
      </trkpt>
      <trkpt lat="43.55314" lon="2.79678">
        <ele>980.9</ele>
        <time>2021-06-30T14:52:00.000+02:00</time>
      </trkpt>
      <trkpt lat="43.55314" lon="2.79678">
        <ele>980.8</ele>
        <time>2021-06-30T14:52:01.000+02:00</time>
      </trkpt>
      <trkpt lat="43.55314" lon="2.7968">
        <ele>980.9</ele>
        <time>2021-06-30T14:52:02.000+02:00</time>
      </trkpt>
      <trkpt lat="43.55314" lon="2.79681">
        <ele>980.8</ele>
        <time>2021-06-30T14:52:03.000+02:00</time>
      </trkpt>
      <trkpt lat="43.55314" lon="2.79681">
        <ele>980.9</ele>
        <time>2021-06-30T14:52:04.000+02:00</time>
      </trkpt>
      <trkpt lat="43.55314" lon="2.79682">
        <ele>980.9</ele>
        <time>2021-06-30T14:52:05.000+02:00</time>
      </trkpt>
      <trkpt lat="43.55313" lon="2.79683">
        <ele>981</ele>
        <time>2021-06-30T14:52:06.000+02:00</time>
      </trkpt>
      <trkpt lat="43.55312" lon="2.79684">
        <ele>981.2</ele>
        <time>2021-06-30T14:52:07.000+02:00</time>
      </trkpt>
      <trkpt lat="43.55311" lon="2.79686">
        <ele>981.4</ele>
        <time>2021-06-30T14:52:08.000+02:00</time>
      </trkpt>
      <trkpt lat="43.55309" lon="2.79687">
        <ele>981.7</ele>
        <time>2021-06-30T14:52:09.000+02:00</time>
      </trkpt>
      <trkpt lat="43.55308" lon="2.79689">
        <ele>981.8</ele>
        <time>2021-06-30T14:52:10.000+02:00</time>
      </trkpt>
      <trkpt lat="43.55307" lon="2.7969">
        <ele>982</ele>
        <time>2021-06-30T14:52:11.000+02:00</time>
      </trkpt>
      <trkpt lat="43.55306" lon="2.79691">
        <ele>982.2</ele>
        <time>2021-06-30T14:52:12.000+02:00</time>
      </trkpt>
      <trkpt lat="43.55305" lon="2.79691">
        <ele>982.3</ele>
        <time>2021-06-30T14:52:13.000+02:00</time>
      </trkpt>
      <trkpt lat="43.55304" lon="2.79693">
        <ele>982.4</ele>
        <time>2021-06-30T14:52:14.000+02:00</time>
      </trkpt>
      <trkpt lat="43.55304" lon="2.79693">
        <ele>982.4</ele>
        <time>2021-06-30T14:52:15.000+02:00</time>
      </trkpt>
      <trkpt lat="43.55304" lon="2.79694">
        <ele>982.5</ele>
        <time>2021-06-30T14:52:16.000+02:00</time>
      </trkpt>
      <trkpt lat="43.55303" lon="2.79696">
        <ele>982.6</ele>
        <time>2021-06-30T14:52:17.000+02:00</time>
      </trkpt>
      <trkpt lat="43.55303" lon="2.79697">
        <ele>982.6</ele>
        <time>2021-06-30T14:52:18.000+02:00</time>
      </trkpt>
      <trkpt lat="43.55302" lon="2.79699">
        <ele>982.7</ele>
        <time>2021-06-30T14:52:19.000+02:00</time>
      </trkpt>
      <trkpt lat="43.55303" lon="2.79701">
        <ele>982.6</ele>
        <time>2021-06-30T14:52:20.000+02:00</time>
      </trkpt>
      <trkpt lat="43.55304" lon="2.79703">
        <ele>982.5</ele>
        <time>2021-06-30T14:52:21.000+02:00</time>
      </trkpt>
      <trkpt lat="43.55304" lon="2.79703">
        <ele>982.5</ele>
        <time>2021-06-30T14:52:22.000+02:00</time>
      </trkpt>
      <trkpt lat="43.55304" lon="2.79703">
        <ele>982.5</ele>
        <time>2021-06-30T14:52:23.000+02:00</time>
      </trkpt>
      <trkpt lat="43.55305" lon="2.79704">
        <ele>982.4</ele>
        <time>2021-06-30T14:52:24.000+02:00</time>
      </trkpt>
      <trkpt lat="43.55305" lon="2.79704">
        <ele>982.4</ele>
        <time>2021-06-30T14:52:25.000+02:00</time>
      </trkpt>
      <trkpt lat="43.55305" lon="2.79706">
        <ele>982.4</ele>
        <time>2021-06-30T14:52:26.000+02:00</time>
      </trkpt>
      <trkpt lat="43.55305" lon="2.79707">
        <ele>982.4</ele>
        <time>2021-06-30T14:52:27.000+02:00</time>
      </trkpt>
      <trkpt lat="43.55305" lon="2.79707">
        <ele>982.4</ele>
        <time>2021-06-30T14:52:28.000+02:00</time>
      </trkpt>
      <trkpt lat="43.55306" lon="2.79708">
        <ele>982.3</ele>
        <time>2021-06-30T14:52:29.000+02:00</time>
      </trkpt>
      <trkpt lat="43.55306" lon="2.79708">
        <ele>982.3</ele>
        <time>2021-06-30T14:52:30.000+02:00</time>
      </trkpt>
      <trkpt lat="43.55306" lon="2.79708">
        <ele>982.3</ele>
        <time>2021-06-30T14:52:31.000+02:00</time>
      </trkpt>
      <trkpt lat="43.55306" lon="2.79708">
        <ele>982.3</ele>
        <time>2021-06-30T14:52:32.000+02:00</time>
      </trkpt>
      <trkpt lat="43.55306" lon="2.79708">
        <ele>982.3</ele>
        <time>2021-06-30T14:52:33.000+02:00</time>
      </trkpt>
      <trkpt lat="43.55305" lon="2.79708">
        <ele>982.3</ele>
        <time>2021-06-30T14:52:34.000+02:00</time>
      </trkpt>
      <trkpt lat="43.55305" lon="2.79708">
        <ele>982.3</ele>
        <time>2021-06-30T14:52:35.000+02:00</time>
      </trkpt>
      <trkpt lat="43.55306" lon="2.79708">
        <ele>982.3</ele>
        <time>2021-06-30T14:52:36.000+02:00</time>
      </trkpt>
      <trkpt lat="43.55306" lon="2.79708">
        <ele>982.3</ele>
        <time>2021-06-30T14:52:37.000+02:00</time>
      </trkpt>
      <trkpt lat="43.55306" lon="2.79709">
        <ele>982.3</ele>
        <time>2021-06-30T14:52:38.000+02:00</time>
      </trkpt>
      <trkpt lat="43.55306" lon="2.7971">
        <ele>982.3</ele>
        <time>2021-06-30T14:52:39.000+02:00</time>
      </trkpt>
      <trkpt lat="43.55306" lon="2.79712">
        <ele>982.3</ele>
        <time>2021-06-30T14:52:40.000+02:00</time>
      </trkpt>
      <trkpt lat="43.55306" lon="2.79712">
        <ele>982.3</ele>
        <time>2021-06-30T14:52:41.000+02:00</time>
      </trkpt>
      <trkpt lat="43.55306" lon="2.79713">
        <ele>982.3</ele>
        <time>2021-06-30T14:52:42.000+02:00</time>
      </trkpt>
      <trkpt lat="43.55306" lon="2.79714">
        <ele>982.3</ele>
        <time>2021-06-30T14:52:43.000+02:00</time>
      </trkpt>
      <trkpt lat="43.55306" lon="2.79714">
        <ele>982.3</ele>
        <time>2021-06-30T14:52:44.000+02:00</time>
      </trkpt>
      <trkpt lat="43.55306" lon="2.79714">
        <ele>982.3</ele>
        <time>2021-06-30T14:52:45.000+02:00</time>
      </trkpt>
      <trkpt lat="43.55306" lon="2.79717">
        <ele>982.4</ele>
        <time>2021-06-30T14:52:46.000+02:00</time>
      </trkpt>
      <trkpt lat="43.55306" lon="2.79718">
        <ele>982.4</ele>
        <time>2021-06-30T14:52:47.000+02:00</time>
      </trkpt>
      <trkpt lat="43.55306" lon="2.79718">
        <ele>982.4</ele>
        <time>2021-06-30T14:52:48.000+02:00</time>
      </trkpt>
      <trkpt lat="43.55305" lon="2.79719">
        <ele>982.4</ele>
        <time>2021-06-30T14:52:49.000+02:00</time>
      </trkpt>
      <trkpt lat="43.55305" lon="2.7972">
        <ele>982.5</ele>
        <time>2021-06-30T14:52:50.000+02:00</time>
      </trkpt>
      <trkpt lat="43.55304" lon="2.79722">
        <ele>982.6</ele>
        <time>2021-06-30T14:52:51.000+02:00</time>
      </trkpt>
      <trkpt lat="43.55304" lon="2.79725">
        <ele>982.7</ele>
        <time>2021-06-30T14:52:52.000+02:00</time>
      </trkpt>
      <trkpt lat="43.55304" lon="2.79728">
        <ele>982.8</ele>
        <time>2021-06-30T14:52:53.000+02:00</time>
      </trkpt>
      <trkpt lat="43.55303" lon="2.79729">
        <ele>982.8</ele>
        <time>2021-06-30T14:52:54.000+02:00</time>
      </trkpt>
      <trkpt lat="43.55303" lon="2.7973">
        <ele>982.8</ele>
        <time>2021-06-30T14:52:55.000+02:00</time>
      </trkpt>
      <trkpt lat="43.55303" lon="2.79731">
        <ele>982.8</ele>
        <time>2021-06-30T14:52:56.000+02:00</time>
      </trkpt>
      <trkpt lat="43.55303" lon="2.79732">
        <ele>982.8</ele>
        <time>2021-06-30T14:52:57.000+02:00</time>
      </trkpt>
      <trkpt lat="43.55303" lon="2.79732">
        <ele>982.9</ele>
        <time>2021-06-30T14:52:58.000+02:00</time>
      </trkpt>
      <trkpt lat="43.55304" lon="2.79733">
        <ele>982.8</ele>
        <time>2021-06-30T14:52:59.000+02:00</time>
      </trkpt>
      <trkpt lat="43.55303" lon="2.79734">
        <ele>982.9</ele>
        <time>2021-06-30T14:53:00.000+02:00</time>
      </trkpt>
      <trkpt lat="43.55303" lon="2.79734">
        <ele>982.9</ele>
        <time>2021-06-30T14:53:01.000+02:00</time>
      </trkpt>
      <trkpt lat="43.55303" lon="2.79735">
        <ele>982.9</ele>
        <time>2021-06-30T14:53:02.000+02:00</time>
      </trkpt>
      <trkpt lat="43.55303" lon="2.79737">
        <ele>982.9</ele>
        <time>2021-06-30T14:53:03.000+02:00</time>
      </trkpt>
      <trkpt lat="43.55303" lon="2.79739">
        <ele>982.9</ele>
        <time>2021-06-30T14:53:04.000+02:00</time>
      </trkpt>
      <trkpt lat="43.55303" lon="2.79741">
        <ele>982.9</ele>
        <time>2021-06-30T14:53:05.000+02:00</time>
      </trkpt>
      <trkpt lat="43.55303" lon="2.79741">
        <ele>983</ele>
        <time>2021-06-30T14:53:06.000+02:00</time>
      </trkpt>
      <trkpt lat="43.55303" lon="2.79743">
        <ele>983</ele>
        <time>2021-06-30T14:53:07.000+02:00</time>
      </trkpt>
      <trkpt lat="43.55302" lon="2.79746">
        <ele>983.1</ele>
        <time>2021-06-30T14:53:08.000+02:00</time>
      </trkpt>
      <trkpt lat="43.55301" lon="2.79748">
        <ele>983.2</ele>
        <time>2021-06-30T14:53:09.000+02:00</time>
      </trkpt>
      <trkpt lat="43.553" lon="2.79751">
        <ele>983.4</ele>
        <time>2021-06-30T14:53:10.000+02:00</time>
      </trkpt>
      <trkpt lat="43.55299" lon="2.79751">
        <ele>983.5</ele>
        <time>2021-06-30T14:53:11.000+02:00</time>
      </trkpt>
      <trkpt lat="43.55299" lon="2.79751">
        <ele>983.5</ele>
        <time>2021-06-30T14:53:12.000+02:00</time>
      </trkpt>
      <trkpt lat="43.55298" lon="2.79752">
        <ele>983.7</ele>
        <time>2021-06-30T14:53:13.000+02:00</time>
      </trkpt>
      <trkpt lat="43.55297" lon="2.79754">
        <ele>983.9</ele>
        <time>2021-06-30T14:53:14.000+02:00</time>
      </trkpt>
      <trkpt lat="43.55296" lon="2.79755">
        <ele>984</ele>
        <time>2021-06-30T14:53:15.000+02:00</time>
      </trkpt>
      <trkpt lat="43.55295" lon="2.79756">
        <ele>984.1</ele>
        <time>2021-06-30T14:53:16.000+02:00</time>
      </trkpt>
      <trkpt lat="43.55295" lon="2.79758">
        <ele>984.1</ele>
        <time>2021-06-30T14:53:17.000+02:00</time>
      </trkpt>
      <trkpt lat="43.55295" lon="2.79759">
        <ele>984.2</ele>
        <time>2021-06-30T14:53:18.000+02:00</time>
      </trkpt>
      <trkpt lat="43.55295" lon="2.7976">
        <ele>984.2</ele>
        <time>2021-06-30T14:53:19.000+02:00</time>
      </trkpt>
      <trkpt lat="43.55295" lon="2.79763">
        <ele>984.3</ele>
        <time>2021-06-30T14:53:20.000+02:00</time>
      </trkpt>
      <trkpt lat="43.55294" lon="2.79764">
        <ele>984.4</ele>
        <time>2021-06-30T14:53:21.000+02:00</time>
      </trkpt>
      <trkpt lat="43.55292" lon="2.79765">
        <ele>984.6</ele>
        <time>2021-06-30T14:53:22.000+02:00</time>
      </trkpt>
      <trkpt lat="43.55291" lon="2.79765">
        <ele>984.7</ele>
        <time>2021-06-30T14:53:23.000+02:00</time>
      </trkpt>
      <trkpt lat="43.5529" lon="2.79766">
        <ele>984.9</ele>
        <time>2021-06-30T14:53:24.000+02:00</time>
      </trkpt>
      <trkpt lat="43.5529" lon="2.79768">
        <ele>984.9</ele>
        <time>2021-06-30T14:53:25.000+02:00</time>
      </trkpt>
      <trkpt lat="43.5529" lon="2.79769">
        <ele>985</ele>
        <time>2021-06-30T14:53:26.000+02:00</time>
      </trkpt>
      <trkpt lat="43.5529" lon="2.7977">
        <ele>984.9</ele>
        <time>2021-06-30T14:53:27.000+02:00</time>
      </trkpt>
      <trkpt lat="43.5529" lon="2.79772">
        <ele>985</ele>
        <time>2021-06-30T14:53:28.000+02:00</time>
      </trkpt>
      <trkpt lat="43.5529" lon="2.79773">
        <ele>985</ele>
        <time>2021-06-30T14:53:29.000+02:00</time>
      </trkpt>
      <trkpt lat="43.55289" lon="2.79773">
        <ele>985.1</ele>
        <time>2021-06-30T14:53:30.000+02:00</time>
      </trkpt>
      <trkpt lat="43.55289" lon="2.79774">
        <ele>985.2</ele>
        <time>2021-06-30T14:53:31.000+02:00</time>
      </trkpt>
      <trkpt lat="43.55288" lon="2.79776">
        <ele>985.3</ele>
        <time>2021-06-30T14:53:32.000+02:00</time>
      </trkpt>
      <trkpt lat="43.55287" lon="2.79777">
        <ele>985.4</ele>
        <time>2021-06-30T14:53:33.000+02:00</time>
      </trkpt>
      <trkpt lat="43.55286" lon="2.79778">
        <ele>985.5</ele>
        <time>2021-06-30T14:53:34.000+02:00</time>
      </trkpt>
      <trkpt lat="43.55286" lon="2.79779">
        <ele>985.6</ele>
        <time>2021-06-30T14:53:35.000+02:00</time>
      </trkpt>
      <trkpt lat="43.55285" lon="2.79781">
        <ele>985.7</ele>
        <time>2021-06-30T14:53:36.000+02:00</time>
      </trkpt>
      <trkpt lat="43.55284" lon="2.79782">
        <ele>985.8</ele>
        <time>2021-06-30T14:53:37.000+02:00</time>
      </trkpt>
      <trkpt lat="43.55283" lon="2.79783">
        <ele>985.9</ele>
        <time>2021-06-30T14:53:38.000+02:00</time>
      </trkpt>
      <trkpt lat="43.55283" lon="2.79784">
        <ele>986</ele>
        <time>2021-06-30T14:53:39.000+02:00</time>
      </trkpt>
      <trkpt lat="43.55281" lon="2.79786">
        <ele>986.2</ele>
        <time>2021-06-30T14:53:40.000+02:00</time>
      </trkpt>
      <trkpt lat="43.55281" lon="2.79787">
        <ele>986.3</ele>
        <time>2021-06-30T14:53:41.000+02:00</time>
      </trkpt>
      <trkpt lat="43.5528" lon="2.79788">
        <ele>986.3</ele>
        <time>2021-06-30T14:53:42.000+02:00</time>
      </trkpt>
      <trkpt lat="43.5528" lon="2.79792">
        <ele>986.4</ele>
        <time>2021-06-30T14:53:43.000+02:00</time>
      </trkpt>
      <trkpt lat="43.55279" lon="2.79793">
        <ele>986.5</ele>
        <time>2021-06-30T14:53:44.000+02:00</time>
      </trkpt>
      <trkpt lat="43.55279" lon="2.79794">
        <ele>986.6</ele>
        <time>2021-06-30T14:53:45.000+02:00</time>
      </trkpt>
      <trkpt lat="43.55278" lon="2.79795">
        <ele>986.7</ele>
        <time>2021-06-30T14:53:46.000+02:00</time>
      </trkpt>
      <trkpt lat="43.55277" lon="2.79796">
        <ele>986.7</ele>
        <time>2021-06-30T14:53:47.000+02:00</time>
      </trkpt>
      <trkpt lat="43.55276" lon="2.79798">
        <ele>986.9</ele>
        <time>2021-06-30T14:53:48.000+02:00</time>
      </trkpt>
      <trkpt lat="43.55275" lon="2.79799">
        <ele>987.1</ele>
        <time>2021-06-30T14:53:49.000+02:00</time>
      </trkpt>
      <trkpt lat="43.55274" lon="2.798">
        <ele>987.2</ele>
        <time>2021-06-30T14:53:50.000+02:00</time>
      </trkpt>
      <trkpt lat="43.55272" lon="2.79801">
        <ele>987.4</ele>
        <time>2021-06-30T14:53:51.000+02:00</time>
      </trkpt>
      <trkpt lat="43.55271" lon="2.79801">
        <ele>987.5</ele>
        <time>2021-06-30T14:53:52.000+02:00</time>
      </trkpt>
      <trkpt lat="43.55271" lon="2.79802">
        <ele>987.5</ele>
        <time>2021-06-30T14:53:53.000+02:00</time>
      </trkpt>
      <trkpt lat="43.5527" lon="2.79804">
        <ele>987.6</ele>
        <time>2021-06-30T14:53:54.000+02:00</time>
      </trkpt>
      <trkpt lat="43.55269" lon="2.79806">
        <ele>987.8</ele>
        <time>2021-06-30T14:53:55.000+02:00</time>
      </trkpt>
      <trkpt lat="43.55269" lon="2.79808">
        <ele>987.9</ele>
        <time>2021-06-30T14:53:56.000+02:00</time>
      </trkpt>
      <trkpt lat="43.55268" lon="2.7981">
        <ele>988</ele>
        <time>2021-06-30T14:53:57.000+02:00</time>
      </trkpt>
      <trkpt lat="43.55267" lon="2.79811">
        <ele>988</ele>
        <time>2021-06-30T14:53:58.000+02:00</time>
      </trkpt>
      <trkpt lat="43.55267" lon="2.79813">
        <ele>988.1</ele>
        <time>2021-06-30T14:53:59.000+02:00</time>
      </trkpt>
      <trkpt lat="43.55266" lon="2.79815">
        <ele>988.2</ele>
        <time>2021-06-30T14:54:00.000+02:00</time>
      </trkpt>
      <trkpt lat="43.55266" lon="2.79817">
        <ele>988.2</ele>
        <time>2021-06-30T14:54:01.000+02:00</time>
      </trkpt>
      <trkpt lat="43.55265" lon="2.79818">
        <ele>988.4</ele>
        <time>2021-06-30T14:54:02.000+02:00</time>
      </trkpt>
      <trkpt lat="43.55264" lon="2.79819">
        <ele>988.4</ele>
        <time>2021-06-30T14:54:03.000+02:00</time>
      </trkpt>
      <trkpt lat="43.55264" lon="2.7982">
        <ele>988.5</ele>
        <time>2021-06-30T14:54:04.000+02:00</time>
      </trkpt>
      <trkpt lat="43.55263" lon="2.79821">
        <ele>988.5</ele>
        <time>2021-06-30T14:54:05.000+02:00</time>
      </trkpt>
      <trkpt lat="43.55262" lon="2.79822">
        <ele>988.6</ele>
        <time>2021-06-30T14:54:06.000+02:00</time>
      </trkpt>
      <trkpt lat="43.55261" lon="2.79824">
        <ele>988.8</ele>
        <time>2021-06-30T14:54:07.000+02:00</time>
      </trkpt>
      <trkpt lat="43.5526" lon="2.79825">
        <ele>988.9</ele>
        <time>2021-06-30T14:54:08.000+02:00</time>
      </trkpt>
      <trkpt lat="43.5526" lon="2.79826">
        <ele>988.9</ele>
        <time>2021-06-30T14:54:09.000+02:00</time>
      </trkpt>
      <trkpt lat="43.55259" lon="2.79827">
        <ele>989</ele>
        <time>2021-06-30T14:54:10.000+02:00</time>
      </trkpt>
      <trkpt lat="43.55258" lon="2.79829">
        <ele>989.1</ele>
        <time>2021-06-30T14:54:11.000+02:00</time>
      </trkpt>
      <trkpt lat="43.55258" lon="2.7983">
        <ele>989.1</ele>
        <time>2021-06-30T14:54:12.000+02:00</time>
      </trkpt>
      <trkpt lat="43.55258" lon="2.79833">
        <ele>989.2</ele>
        <time>2021-06-30T14:54:13.000+02:00</time>
      </trkpt>
      <trkpt lat="43.55258" lon="2.79834">
        <ele>989.2</ele>
        <time>2021-06-30T14:54:14.000+02:00</time>
      </trkpt>
      <trkpt lat="43.55258" lon="2.79835">
        <ele>989.2</ele>
        <time>2021-06-30T14:54:15.000+02:00</time>
      </trkpt>
      <trkpt lat="43.55258" lon="2.79836">
        <ele>989.2</ele>
        <time>2021-06-30T14:54:16.000+02:00</time>
      </trkpt>
      <trkpt lat="43.55258" lon="2.79838">
        <ele>989.1</ele>
        <time>2021-06-30T14:54:17.000+02:00</time>
      </trkpt>
      <trkpt lat="43.55258" lon="2.79839">
        <ele>989.1</ele>
        <time>2021-06-30T14:54:18.000+02:00</time>
      </trkpt>
      <trkpt lat="43.55259" lon="2.79839">
        <ele>989</ele>
        <time>2021-06-30T14:54:19.000+02:00</time>
      </trkpt>
      <trkpt lat="43.55259" lon="2.79839">
        <ele>989</ele>
        <time>2021-06-30T14:54:20.000+02:00</time>
      </trkpt>
      <trkpt lat="43.5526" lon="2.79839">
        <ele>988.9</ele>
        <time>2021-06-30T14:54:21.000+02:00</time>
      </trkpt>
      <trkpt lat="43.55259" lon="2.79841">
        <ele>988.9</ele>
        <time>2021-06-30T14:54:22.000+02:00</time>
      </trkpt>
      <trkpt lat="43.55259" lon="2.79841">
        <ele>988.9</ele>
        <time>2021-06-30T14:54:23.000+02:00</time>
      </trkpt>
      <trkpt lat="43.55259" lon="2.79842">
        <ele>989</ele>
        <time>2021-06-30T14:54:24.000+02:00</time>
      </trkpt>
      <trkpt lat="43.55258" lon="2.79843">
        <ele>989</ele>
        <time>2021-06-30T14:54:25.000+02:00</time>
      </trkpt>
      <trkpt lat="43.55258" lon="2.79843">
        <ele>989</ele>
        <time>2021-06-30T14:54:26.000+02:00</time>
      </trkpt>
      <trkpt lat="43.55259" lon="2.79844">
        <ele>989</ele>
        <time>2021-06-30T14:54:27.000+02:00</time>
      </trkpt>
      <trkpt lat="43.55259" lon="2.79846">
        <ele>989</ele>
        <time>2021-06-30T14:54:28.000+02:00</time>
      </trkpt>
      <trkpt lat="43.55258" lon="2.79847">
        <ele>989</ele>
        <time>2021-06-30T14:54:29.000+02:00</time>
      </trkpt>
      <trkpt lat="43.55258" lon="2.79848">
        <ele>989</ele>
        <time>2021-06-30T14:54:30.000+02:00</time>
      </trkpt>
      <trkpt lat="43.55258" lon="2.7985">
        <ele>989</ele>
        <time>2021-06-30T14:54:31.000+02:00</time>
      </trkpt>
      <trkpt lat="43.55257" lon="2.79851">
        <ele>989</ele>
        <time>2021-06-30T14:54:32.000+02:00</time>
      </trkpt>
      <trkpt lat="43.55257" lon="2.79852">
        <ele>989.1</ele>
        <time>2021-06-30T14:54:33.000+02:00</time>
      </trkpt>
      <trkpt lat="43.55256" lon="2.79854">
        <ele>989</ele>
        <time>2021-06-30T14:54:34.000+02:00</time>
      </trkpt>
      <trkpt lat="43.55257" lon="2.79858">
        <ele>989</ele>
        <time>2021-06-30T14:54:35.000+02:00</time>
      </trkpt>
      <trkpt lat="43.55257" lon="2.79862">
        <ele>988.9</ele>
        <time>2021-06-30T14:54:36.000+02:00</time>
      </trkpt>
      <trkpt lat="43.55257" lon="2.79863">
        <ele>988.9</ele>
        <time>2021-06-30T14:54:37.000+02:00</time>
      </trkpt>
      <trkpt lat="43.55256" lon="2.79864">
        <ele>988.9</ele>
        <time>2021-06-30T14:54:38.000+02:00</time>
      </trkpt>
      <trkpt lat="43.55256" lon="2.79865">
        <ele>988.9</ele>
        <time>2021-06-30T14:54:39.000+02:00</time>
      </trkpt>
      <trkpt lat="43.55255" lon="2.79866">
        <ele>989</ele>
        <time>2021-06-30T14:54:40.000+02:00</time>
      </trkpt>
      <trkpt lat="43.55255" lon="2.79869">
        <ele>988.9</ele>
        <time>2021-06-30T14:54:41.000+02:00</time>
      </trkpt>
      <trkpt lat="43.55255" lon="2.7987">
        <ele>988.9</ele>
        <time>2021-06-30T14:54:42.000+02:00</time>
      </trkpt>
      <trkpt lat="43.55254" lon="2.79872">
        <ele>988.9</ele>
        <time>2021-06-30T14:54:43.000+02:00</time>
      </trkpt>
      <trkpt lat="43.55254" lon="2.79872">
        <ele>988.9</ele>
        <time>2021-06-30T14:54:44.000+02:00</time>
      </trkpt>
      <trkpt lat="43.55253" lon="2.79874">
        <ele>988.9</ele>
        <time>2021-06-30T14:54:45.000+02:00</time>
      </trkpt>
      <trkpt lat="43.55253" lon="2.79876">
        <ele>988.9</ele>
        <time>2021-06-30T14:54:46.000+02:00</time>
      </trkpt>
      <trkpt lat="43.55252" lon="2.79877">
        <ele>988.9</ele>
        <time>2021-06-30T14:54:47.000+02:00</time>
      </trkpt>
      <trkpt lat="43.55252" lon="2.79878">
        <ele>988.9</ele>
        <time>2021-06-30T14:54:48.000+02:00</time>
      </trkpt>
      <trkpt lat="43.55252" lon="2.79879">
        <ele>988.8</ele>
        <time>2021-06-30T14:54:49.000+02:00</time>
      </trkpt>
      <trkpt lat="43.55252" lon="2.79879">
        <ele>988.8</ele>
        <time>2021-06-30T14:54:50.000+02:00</time>
      </trkpt>
      <trkpt lat="43.55252" lon="2.7988">
        <ele>988.8</ele>
        <time>2021-06-30T14:54:51.000+02:00</time>
      </trkpt>
      <trkpt lat="43.55252" lon="2.7988">
        <ele>988.8</ele>
        <time>2021-06-30T14:54:52.000+02:00</time>
      </trkpt>
      <trkpt lat="43.55252" lon="2.7988">
        <ele>988.8</ele>
        <time>2021-06-30T14:54:53.000+02:00</time>
      </trkpt>
      <trkpt lat="43.55251" lon="2.7988">
        <ele>988.8</ele>
        <time>2021-06-30T14:54:54.000+02:00</time>
      </trkpt>
      <trkpt lat="43.55251" lon="2.79881">
        <ele>988.8</ele>
        <time>2021-06-30T14:54:55.000+02:00</time>
      </trkpt>
      <trkpt lat="43.55252" lon="2.79882">
        <ele>988.8</ele>
        <time>2021-06-30T14:54:56.000+02:00</time>
      </trkpt>
      <trkpt lat="43.55252" lon="2.79882">
        <ele>988.8</ele>
        <time>2021-06-30T14:54:57.000+02:00</time>
      </trkpt>
      <trkpt lat="43.55252" lon="2.79882">
        <ele>988.8</ele>
        <time>2021-06-30T14:54:58.000+02:00</time>
      </trkpt>
      <trkpt lat="43.55253" lon="2.79883">
        <ele>988.7</ele>
        <time>2021-06-30T14:54:59.000+02:00</time>
      </trkpt>
      <trkpt lat="43.55254" lon="2.79884">
        <ele>988.7</ele>
        <time>2021-06-30T14:55:00.000+02:00</time>
      </trkpt>
      <trkpt lat="43.55255" lon="2.79885">
        <ele>988.7</ele>
        <time>2021-06-30T14:55:01.000+02:00</time>
      </trkpt>
      <trkpt lat="43.55256" lon="2.79886">
        <ele>988.6</ele>
        <time>2021-06-30T14:55:02.000+02:00</time>
      </trkpt>
      <trkpt lat="43.55256" lon="2.79886">
        <ele>988.6</ele>
        <time>2021-06-30T14:55:03.000+02:00</time>
      </trkpt>
      <trkpt lat="43.55257" lon="2.79887">
        <ele>988.6</ele>
        <time>2021-06-30T14:55:04.000+02:00</time>
      </trkpt>
      <trkpt lat="43.55257" lon="2.79889">
        <ele>988.6</ele>
        <time>2021-06-30T14:55:05.000+02:00</time>
      </trkpt>
      <trkpt lat="43.55257" lon="2.7989">
        <ele>988.6</ele>
        <time>2021-06-30T14:55:06.000+02:00</time>
      </trkpt>
      <trkpt lat="43.55258" lon="2.79891">
        <ele>988.6</ele>
        <time>2021-06-30T14:55:07.000+02:00</time>
      </trkpt>
      <trkpt lat="43.55258" lon="2.79891">
        <ele>988.5</ele>
        <time>2021-06-30T14:55:08.000+02:00</time>
      </trkpt>
      <trkpt lat="43.55258" lon="2.79891">
        <ele>988.5</ele>
        <time>2021-06-30T14:55:09.000+02:00</time>
      </trkpt>
      <trkpt lat="43.55259" lon="2.79891">
        <ele>988.5</ele>
        <time>2021-06-30T14:55:10.000+02:00</time>
      </trkpt>
      <trkpt lat="43.55259" lon="2.79891">
        <ele>988.5</ele>
        <time>2021-06-30T14:55:11.000+02:00</time>
      </trkpt>
      <trkpt lat="43.5526" lon="2.79891">
        <ele>988.5</ele>
        <time>2021-06-30T14:55:12.000+02:00</time>
      </trkpt>
      <trkpt lat="43.5526" lon="2.79891">
        <ele>988.5</ele>
        <time>2021-06-30T14:55:13.000+02:00</time>
      </trkpt>
      <trkpt lat="43.5526" lon="2.79891">
        <ele>988.5</ele>
        <time>2021-06-30T14:55:14.000+02:00</time>
      </trkpt>
      <trkpt lat="43.55261" lon="2.79891">
        <ele>988.5</ele>
        <time>2021-06-30T14:55:15.000+02:00</time>
      </trkpt>
      <trkpt lat="43.55261" lon="2.7989">
        <ele>988.5</ele>
        <time>2021-06-30T14:55:16.000+02:00</time>
      </trkpt>
      <trkpt lat="43.55262" lon="2.7989">
        <ele>988.5</ele>
        <time>2021-06-30T14:55:17.000+02:00</time>
      </trkpt>
      <trkpt lat="43.55262" lon="2.7989">
        <ele>988.5</ele>
        <time>2021-06-30T14:55:18.000+02:00</time>
      </trkpt>
      <trkpt lat="43.55263" lon="2.79891">
        <ele>988.5</ele>
        <time>2021-06-30T14:55:19.000+02:00</time>
      </trkpt>
      <trkpt lat="43.55263" lon="2.79891">
        <ele>988.5</ele>
        <time>2021-06-30T14:55:20.000+02:00</time>
      </trkpt>
      <trkpt lat="43.55264" lon="2.79891">
        <ele>988.5</ele>
        <time>2021-06-30T14:55:21.000+02:00</time>
      </trkpt>
      <trkpt lat="43.55266" lon="2.79891">
        <ele>988.5</ele>
        <time>2021-06-30T14:55:22.000+02:00</time>
      </trkpt>
      <trkpt lat="43.55266" lon="2.79891">
        <ele>988.5</ele>
        <time>2021-06-30T14:55:23.000+02:00</time>
      </trkpt>
      <trkpt lat="43.55267" lon="2.7989">
        <ele>988.5</ele>
        <time>2021-06-30T14:55:24.000+02:00</time>
      </trkpt>
      <trkpt lat="43.55267" lon="2.7989">
        <ele>988.5</ele>
        <time>2021-06-30T14:55:25.000+02:00</time>
      </trkpt>
      <trkpt lat="43.55268" lon="2.7989">
        <ele>988.5</ele>
        <time>2021-06-30T14:55:26.000+02:00</time>
      </trkpt>
      <trkpt lat="43.55268" lon="2.79889">
        <ele>988.5</ele>
        <time>2021-06-30T14:55:27.000+02:00</time>
      </trkpt>
      <trkpt lat="43.55269" lon="2.79889">
        <ele>988.4</ele>
        <time>2021-06-30T14:55:28.000+02:00</time>
      </trkpt>
      <trkpt lat="43.5527" lon="2.79888">
        <ele>988.4</ele>
        <time>2021-06-30T14:55:29.000+02:00</time>
      </trkpt>
      <trkpt lat="43.5527" lon="2.79887">
        <ele>988.4</ele>
        <time>2021-06-30T14:55:30.000+02:00</time>
      </trkpt>
      <trkpt lat="43.55272" lon="2.79887">
        <ele>988.4</ele>
        <time>2021-06-30T14:55:31.000+02:00</time>
      </trkpt>
      <trkpt lat="43.55273" lon="2.79886">
        <ele>988.3</ele>
        <time>2021-06-30T14:55:32.000+02:00</time>
      </trkpt>
      <trkpt lat="43.55273" lon="2.79885">
        <ele>988.3</ele>
        <time>2021-06-30T14:55:33.000+02:00</time>
      </trkpt>
      <trkpt lat="43.55274" lon="2.79885">
        <ele>988.3</ele>
        <time>2021-06-30T14:55:34.000+02:00</time>
      </trkpt>
      <trkpt lat="43.55275" lon="2.79883">
        <ele>988.2</ele>
        <time>2021-06-30T14:55:35.000+02:00</time>
      </trkpt>
      <trkpt lat="43.55276" lon="2.79883">
        <ele>988.2</ele>
        <time>2021-06-30T14:55:36.000+02:00</time>
      </trkpt>
      <trkpt lat="43.55277" lon="2.79884">
        <ele>988.2</ele>
        <time>2021-06-30T14:55:37.000+02:00</time>
      </trkpt>
      <trkpt lat="43.55278" lon="2.79883">
        <ele>988.2</ele>
        <time>2021-06-30T14:55:38.000+02:00</time>
      </trkpt>
      <trkpt lat="43.55279" lon="2.79884">
        <ele>988.2</ele>
        <time>2021-06-30T14:55:39.000+02:00</time>
      </trkpt>
      <trkpt lat="43.55281" lon="2.79885">
        <ele>988.2</ele>
        <time>2021-06-30T14:55:40.000+02:00</time>
      </trkpt>
      <trkpt lat="43.55283" lon="2.79885">
        <ele>988.1</ele>
        <time>2021-06-30T14:55:41.000+02:00</time>
      </trkpt>
      <trkpt lat="43.55285" lon="2.79885">
        <ele>988.1</ele>
        <time>2021-06-30T14:55:42.000+02:00</time>
      </trkpt>
      <trkpt lat="43.55286" lon="2.79886">
        <ele>988.1</ele>
        <time>2021-06-30T14:55:43.000+02:00</time>
      </trkpt>
      <trkpt lat="43.55289" lon="2.79887">
        <ele>988.1</ele>
        <time>2021-06-30T14:55:44.000+02:00</time>
      </trkpt>
      <trkpt lat="43.5529" lon="2.79887">
        <ele>988.1</ele>
        <time>2021-06-30T14:55:45.000+02:00</time>
      </trkpt>
      <trkpt lat="43.55292" lon="2.79888">
        <ele>988.1</ele>
        <time>2021-06-30T14:55:46.000+02:00</time>
      </trkpt>
      <trkpt lat="43.55293" lon="2.79889">
        <ele>988.1</ele>
        <time>2021-06-30T14:55:47.000+02:00</time>
      </trkpt>
      <trkpt lat="43.55295" lon="2.7989">
        <ele>988.2</ele>
        <time>2021-06-30T14:55:48.000+02:00</time>
      </trkpt>
      <trkpt lat="43.55296" lon="2.79891">
        <ele>988.3</ele>
        <time>2021-06-30T14:55:49.000+02:00</time>
      </trkpt>
      <trkpt lat="43.55297" lon="2.79892">
        <ele>988.3</ele>
        <time>2021-06-30T14:55:50.000+02:00</time>
      </trkpt>
      <trkpt lat="43.55297" lon="2.79893">
        <ele>988.3</ele>
        <time>2021-06-30T14:55:51.000+02:00</time>
      </trkpt>
      <trkpt lat="43.55298" lon="2.79894">
        <ele>988.4</ele>
        <time>2021-06-30T14:55:52.000+02:00</time>
      </trkpt>
      <trkpt lat="43.55299" lon="2.79893">
        <ele>988.3</ele>
        <time>2021-06-30T14:55:53.000+02:00</time>
      </trkpt>
      <trkpt lat="43.553" lon="2.79893">
        <ele>988.3</ele>
        <time>2021-06-30T14:55:54.000+02:00</time>
      </trkpt>
      <trkpt lat="43.55301" lon="2.79893">
        <ele>988.3</ele>
        <time>2021-06-30T14:55:55.000+02:00</time>
      </trkpt>
      <trkpt lat="43.55301" lon="2.79893">
        <ele>988.3</ele>
        <time>2021-06-30T14:55:56.000+02:00</time>
      </trkpt>
      <trkpt lat="43.55301" lon="2.79892">
        <ele>988.3</ele>
        <time>2021-06-30T14:55:57.000+02:00</time>
      </trkpt>
      <trkpt lat="43.55301" lon="2.79893">
        <ele>988.3</ele>
        <time>2021-06-30T14:55:58.000+02:00</time>
      </trkpt>
      <trkpt lat="43.55302" lon="2.79894">
        <ele>988.3</ele>
        <time>2021-06-30T14:55:59.000+02:00</time>
      </trkpt>
      <trkpt lat="43.55303" lon="2.79893">
        <ele>988.3</ele>
        <time>2021-06-30T14:56:00.000+02:00</time>
      </trkpt>
      <trkpt lat="43.55303" lon="2.79893">
        <ele>988.3</ele>
        <time>2021-06-30T14:56:01.000+02:00</time>
      </trkpt>
      <trkpt lat="43.55304" lon="2.79892">
        <ele>988.3</ele>
        <time>2021-06-30T14:56:02.000+02:00</time>
      </trkpt>
      <trkpt lat="43.55304" lon="2.79892">
        <ele>988.3</ele>
        <time>2021-06-30T14:56:03.000+02:00</time>
      </trkpt>
      <trkpt lat="43.55305" lon="2.79891">
        <ele>988.2</ele>
        <time>2021-06-30T14:56:04.000+02:00</time>
      </trkpt>
      <trkpt lat="43.55307" lon="2.79891">
        <ele>988.1</ele>
        <time>2021-06-30T14:56:05.000+02:00</time>
      </trkpt>
      <trkpt lat="43.55308" lon="2.7989">
        <ele>988</ele>
        <time>2021-06-30T14:56:06.000+02:00</time>
      </trkpt>
      <trkpt lat="43.5531" lon="2.79888">
        <ele>987.9</ele>
        <time>2021-06-30T14:56:07.000+02:00</time>
      </trkpt>
      <trkpt lat="43.55312" lon="2.79886">
        <ele>987.7</ele>
        <time>2021-06-30T14:56:08.000+02:00</time>
      </trkpt>
      <trkpt lat="43.55313" lon="2.79886">
        <ele>987.7</ele>
        <time>2021-06-30T14:56:09.000+02:00</time>
      </trkpt>
      <trkpt lat="43.55315" lon="2.79884">
        <ele>987.5</ele>
        <time>2021-06-30T14:56:10.000+02:00</time>
      </trkpt>
      <trkpt lat="43.55316" lon="2.79883">
        <ele>987.3</ele>
        <time>2021-06-30T14:56:11.000+02:00</time>
      </trkpt>
      <trkpt lat="43.55317" lon="2.79881">
        <ele>987.1</ele>
        <time>2021-06-30T14:56:12.000+02:00</time>
      </trkpt>
      <trkpt lat="43.55319" lon="2.7988">
        <ele>987</ele>
        <time>2021-06-30T14:56:13.000+02:00</time>
      </trkpt>
      <trkpt lat="43.5532" lon="2.79879">
        <ele>986.9</ele>
        <time>2021-06-30T14:56:14.000+02:00</time>
      </trkpt>
      <trkpt lat="43.55321" lon="2.79878">
        <ele>986.8</ele>
        <time>2021-06-30T14:56:15.000+02:00</time>
      </trkpt>
      <trkpt lat="43.55322" lon="2.79878">
        <ele>986.7</ele>
        <time>2021-06-30T14:56:16.000+02:00</time>
      </trkpt>
      <trkpt lat="43.55323" lon="2.79878">
        <ele>986.6</ele>
        <time>2021-06-30T14:56:17.000+02:00</time>
      </trkpt>
      <trkpt lat="43.55324" lon="2.79877">
        <ele>986.6</ele>
        <time>2021-06-30T14:56:18.000+02:00</time>
      </trkpt>
      <trkpt lat="43.55324" lon="2.79878">
        <ele>986.6</ele>
        <time>2021-06-30T14:56:19.000+02:00</time>
      </trkpt>
      <trkpt lat="43.55325" lon="2.79878">
        <ele>986.6</ele>
        <time>2021-06-30T14:56:20.000+02:00</time>
      </trkpt>
      <trkpt lat="43.55326" lon="2.79878">
        <ele>986.6</ele>
        <time>2021-06-30T14:56:21.000+02:00</time>
      </trkpt>
      <trkpt lat="43.55327" lon="2.79877">
        <ele>986.5</ele>
        <time>2021-06-30T14:56:22.000+02:00</time>
      </trkpt>
      <trkpt lat="43.55328" lon="2.79878">
        <ele>986.5</ele>
        <time>2021-06-30T14:56:23.000+02:00</time>
      </trkpt>
      <trkpt lat="43.5533" lon="2.79879">
        <ele>986.5</ele>
        <time>2021-06-30T14:56:24.000+02:00</time>
      </trkpt>
      <trkpt lat="43.55331" lon="2.79879">
        <ele>986.6</ele>
        <time>2021-06-30T14:56:25.000+02:00</time>
      </trkpt>
      <trkpt lat="43.55332" lon="2.7988">
        <ele>986.6</ele>
        <time>2021-06-30T14:56:26.000+02:00</time>
      </trkpt>
      <trkpt lat="43.55333" lon="2.7988">
        <ele>986.6</ele>
        <time>2021-06-30T14:56:27.000+02:00</time>
      </trkpt>
      <trkpt lat="43.55334" lon="2.7988">
        <ele>986.6</ele>
        <time>2021-06-30T14:56:28.000+02:00</time>
      </trkpt>
      <trkpt lat="43.55334" lon="2.7988">
        <ele>986.6</ele>
        <time>2021-06-30T14:56:29.000+02:00</time>
      </trkpt>
      <trkpt lat="43.55336" lon="2.7988">
        <ele>986.6</ele>
        <time>2021-06-30T14:56:30.000+02:00</time>
      </trkpt>
      <trkpt lat="43.55336" lon="2.7988">
        <ele>986.6</ele>
        <time>2021-06-30T14:56:31.000+02:00</time>
      </trkpt>
      <trkpt lat="43.55337" lon="2.7988">
        <ele>986.6</ele>
        <time>2021-06-30T14:56:32.000+02:00</time>
      </trkpt>
      <trkpt lat="43.55338" lon="2.79881">
        <ele>986.7</ele>
        <time>2021-06-30T14:56:33.000+02:00</time>
      </trkpt>
      <trkpt lat="43.5534" lon="2.79881">
        <ele>986.7</ele>
        <time>2021-06-30T14:56:34.000+02:00</time>
      </trkpt>
      <trkpt lat="43.55341" lon="2.79881">
        <ele>986.6</ele>
        <time>2021-06-30T14:56:35.000+02:00</time>
      </trkpt>
      <trkpt lat="43.55343" lon="2.7988">
        <ele>986.6</ele>
        <time>2021-06-30T14:56:36.000+02:00</time>
      </trkpt>
      <trkpt lat="43.55348" lon="2.79881">
        <ele>986.6</ele>
        <time>2021-06-30T14:56:37.000+02:00</time>
      </trkpt>
      <trkpt lat="43.55351" lon="2.79882">
        <ele>986.6</ele>
        <time>2021-06-30T14:56:38.000+02:00</time>
      </trkpt>
      <trkpt lat="43.55354" lon="2.79883">
        <ele>986.7</ele>
        <time>2021-06-30T14:56:39.000+02:00</time>
      </trkpt>
      <trkpt lat="43.55356" lon="2.79882">
        <ele>986.7</ele>
        <time>2021-06-30T14:56:40.000+02:00</time>
      </trkpt>
      <trkpt lat="43.55358" lon="2.79883">
        <ele>986.7</ele>
        <time>2021-06-30T14:56:41.000+02:00</time>
      </trkpt>
      <trkpt lat="43.5536" lon="2.79884">
        <ele>986.8</ele>
        <time>2021-06-30T14:56:42.000+02:00</time>
      </trkpt>
      <trkpt lat="43.55362" lon="2.79885">
        <ele>986.9</ele>
        <time>2021-06-30T14:56:43.000+02:00</time>
      </trkpt>
      <trkpt lat="43.55363" lon="2.79885">
        <ele>986.9</ele>
        <time>2021-06-30T14:56:44.000+02:00</time>
      </trkpt>
      <trkpt lat="43.55364" lon="2.79886">
        <ele>987</ele>
        <time>2021-06-30T14:56:45.000+02:00</time>
      </trkpt>
      <trkpt lat="43.55365" lon="2.79887">
        <ele>987.1</ele>
        <time>2021-06-30T14:56:46.000+02:00</time>
      </trkpt>
      <trkpt lat="43.55366" lon="2.79887">
        <ele>987.1</ele>
        <time>2021-06-30T14:56:47.000+02:00</time>
      </trkpt>
      <trkpt lat="43.55368" lon="2.79888">
        <ele>987.1</ele>
        <time>2021-06-30T14:56:48.000+02:00</time>
      </trkpt>
      <trkpt lat="43.55369" lon="2.79888">
        <ele>987.1</ele>
        <time>2021-06-30T14:56:49.000+02:00</time>
      </trkpt>
      <trkpt lat="43.5537" lon="2.79888">
        <ele>987.2</ele>
        <time>2021-06-30T14:56:50.000+02:00</time>
      </trkpt>
      <trkpt lat="43.55371" lon="2.79888">
        <ele>987.2</ele>
        <time>2021-06-30T14:56:51.000+02:00</time>
      </trkpt>
      <trkpt lat="43.55372" lon="2.79888">
        <ele>987.1</ele>
        <time>2021-06-30T14:56:52.000+02:00</time>
      </trkpt>
      <trkpt lat="43.55373" lon="2.79887">
        <ele>987</ele>
        <time>2021-06-30T14:56:53.000+02:00</time>
      </trkpt>
      <trkpt lat="43.55375" lon="2.79888">
        <ele>987</ele>
        <time>2021-06-30T14:56:54.000+02:00</time>
      </trkpt>
      <trkpt lat="43.55376" lon="2.79888">
        <ele>987</ele>
        <time>2021-06-30T14:56:55.000+02:00</time>
      </trkpt>
      <trkpt lat="43.55378" lon="2.79888">
        <ele>987</ele>
        <time>2021-06-30T14:56:56.000+02:00</time>
      </trkpt>
      <trkpt lat="43.55379" lon="2.79888">
        <ele>987</ele>
        <time>2021-06-30T14:56:57.000+02:00</time>
      </trkpt>
      <trkpt lat="43.5538" lon="2.79886">
        <ele>986.9</ele>
        <time>2021-06-30T14:56:58.000+02:00</time>
      </trkpt>
      <trkpt lat="43.55381" lon="2.79886">
        <ele>986.8</ele>
        <time>2021-06-30T14:56:59.000+02:00</time>
      </trkpt>
      <trkpt lat="43.55383" lon="2.79886">
        <ele>986.8</ele>
        <time>2021-06-30T14:57:00.000+02:00</time>
      </trkpt>
      <trkpt lat="43.55384" lon="2.79886">
        <ele>986.7</ele>
        <time>2021-06-30T14:57:01.000+02:00</time>
      </trkpt>
      <trkpt lat="43.55385" lon="2.79884">
        <ele>986.6</ele>
        <time>2021-06-30T14:57:02.000+02:00</time>
      </trkpt>
      <trkpt lat="43.55386" lon="2.79883">
        <ele>986.5</ele>
        <time>2021-06-30T14:57:03.000+02:00</time>
      </trkpt>
      <trkpt lat="43.55388" lon="2.79883">
        <ele>986.4</ele>
        <time>2021-06-30T14:57:04.000+02:00</time>
      </trkpt>
      <trkpt lat="43.55389" lon="2.79883">
        <ele>986.4</ele>
        <time>2021-06-30T14:57:05.000+02:00</time>
      </trkpt>
      <trkpt lat="43.5539" lon="2.79884">
        <ele>986.5</ele>
        <time>2021-06-30T14:57:06.000+02:00</time>
      </trkpt>
      <trkpt lat="43.55392" lon="2.79883">
        <ele>986.4</ele>
        <time>2021-06-30T14:57:07.000+02:00</time>
      </trkpt>
      <trkpt lat="43.55392" lon="2.79883">
        <ele>986.4</ele>
        <time>2021-06-30T14:57:08.000+02:00</time>
      </trkpt>
      <trkpt lat="43.55394" lon="2.79883">
        <ele>986.4</ele>
        <time>2021-06-30T14:57:09.000+02:00</time>
      </trkpt>
      <trkpt lat="43.55395" lon="2.79883">
        <ele>986.4</ele>
        <time>2021-06-30T14:57:10.000+02:00</time>
      </trkpt>
      <trkpt lat="43.55396" lon="2.79883">
        <ele>986.4</ele>
        <time>2021-06-30T14:57:11.000+02:00</time>
      </trkpt>
      <trkpt lat="43.55397" lon="2.79883">
        <ele>986.4</ele>
        <time>2021-06-30T14:57:12.000+02:00</time>
      </trkpt>
      <trkpt lat="43.55398" lon="2.79884">
        <ele>986.4</ele>
        <time>2021-06-30T14:57:13.000+02:00</time>
      </trkpt>
      <trkpt lat="43.554" lon="2.79885">
        <ele>986.5</ele>
        <time>2021-06-30T14:57:14.000+02:00</time>
      </trkpt>
      <trkpt lat="43.55401" lon="2.79885">
        <ele>986.5</ele>
        <time>2021-06-30T14:57:15.000+02:00</time>
      </trkpt>
      <trkpt lat="43.55401" lon="2.79885">
        <ele>986.5</ele>
        <time>2021-06-30T14:57:16.000+02:00</time>
      </trkpt>
      <trkpt lat="43.55403" lon="2.79886">
        <ele>986.5</ele>
        <time>2021-06-30T14:57:17.000+02:00</time>
      </trkpt>
      <trkpt lat="43.55404" lon="2.79885">
        <ele>986.5</ele>
        <time>2021-06-30T14:57:18.000+02:00</time>
      </trkpt>
      <trkpt lat="43.55404" lon="2.79885">
        <ele>986.5</ele>
        <time>2021-06-30T14:57:19.000+02:00</time>
      </trkpt>
      <trkpt lat="43.55405" lon="2.79886">
        <ele>986.5</ele>
        <time>2021-06-30T14:57:20.000+02:00</time>
      </trkpt>
      <trkpt lat="43.55406" lon="2.79886">
        <ele>986.6</ele>
        <time>2021-06-30T14:57:21.000+02:00</time>
      </trkpt>
      <trkpt lat="43.55407" lon="2.79886">
        <ele>986.6</ele>
        <time>2021-06-30T14:57:22.000+02:00</time>
      </trkpt>
      <trkpt lat="43.55408" lon="2.79887">
        <ele>986.6</ele>
        <time>2021-06-30T14:57:23.000+02:00</time>
      </trkpt>
      <trkpt lat="43.55409" lon="2.79888">
        <ele>986.7</ele>
        <time>2021-06-30T14:57:24.000+02:00</time>
      </trkpt>
      <trkpt lat="43.5541" lon="2.79889">
        <ele>986.7</ele>
        <time>2021-06-30T14:57:25.000+02:00</time>
      </trkpt>
      <trkpt lat="43.55411" lon="2.79889">
        <ele>986.8</ele>
        <time>2021-06-30T14:57:26.000+02:00</time>
      </trkpt>
      <trkpt lat="43.55412" lon="2.7989">
        <ele>986.8</ele>
        <time>2021-06-30T14:57:27.000+02:00</time>
      </trkpt>
      <trkpt lat="43.55413" lon="2.79891">
        <ele>986.9</ele>
        <time>2021-06-30T14:57:28.000+02:00</time>
      </trkpt>
      <trkpt lat="43.55414" lon="2.79892">
        <ele>986.9</ele>
        <time>2021-06-30T14:57:29.000+02:00</time>
      </trkpt>
      <trkpt lat="43.55415" lon="2.79891">
        <ele>986.9</ele>
        <time>2021-06-30T14:57:30.000+02:00</time>
      </trkpt>
      <trkpt lat="43.55416" lon="2.79892">
        <ele>986.9</ele>
        <time>2021-06-30T14:57:31.000+02:00</time>
      </trkpt>
      <trkpt lat="43.55416" lon="2.79892">
        <ele>986.9</ele>
        <time>2021-06-30T14:57:32.000+02:00</time>
      </trkpt>
      <trkpt lat="43.55417" lon="2.79892">
        <ele>986.9</ele>
        <time>2021-06-30T14:57:33.000+02:00</time>
      </trkpt>
      <trkpt lat="43.55418" lon="2.79893">
        <ele>986.9</ele>
        <time>2021-06-30T14:57:34.000+02:00</time>
      </trkpt>
      <trkpt lat="43.55419" lon="2.79893">
        <ele>986.8</ele>
        <time>2021-06-30T14:57:35.000+02:00</time>
      </trkpt>
      <trkpt lat="43.55419" lon="2.79893">
        <ele>986.8</ele>
        <time>2021-06-30T14:57:36.000+02:00</time>
      </trkpt>
      <trkpt lat="43.5542" lon="2.79893">
        <ele>986.8</ele>
        <time>2021-06-30T14:57:37.000+02:00</time>
      </trkpt>
      <trkpt lat="43.55421" lon="2.79894">
        <ele>986.8</ele>
        <time>2021-06-30T14:57:38.000+02:00</time>
      </trkpt>
      <trkpt lat="43.55422" lon="2.79894">
        <ele>986.7</ele>
        <time>2021-06-30T14:57:39.000+02:00</time>
      </trkpt>
      <trkpt lat="43.55422" lon="2.79895">
        <ele>986.7</ele>
        <time>2021-06-30T14:57:40.000+02:00</time>
      </trkpt>
      <trkpt lat="43.55423" lon="2.79895">
        <ele>986.7</ele>
        <time>2021-06-30T14:57:41.000+02:00</time>
      </trkpt>
      <trkpt lat="43.55424" lon="2.79896">
        <ele>986.7</ele>
        <time>2021-06-30T14:57:42.000+02:00</time>
      </trkpt>
      <trkpt lat="43.55425" lon="2.79897">
        <ele>986.7</ele>
        <time>2021-06-30T14:57:43.000+02:00</time>
      </trkpt>
      <trkpt lat="43.55426" lon="2.79897">
        <ele>986.6</ele>
        <time>2021-06-30T14:57:44.000+02:00</time>
      </trkpt>
      <trkpt lat="43.55426" lon="2.79898">
        <ele>986.6</ele>
        <time>2021-06-30T14:57:45.000+02:00</time>
      </trkpt>
      <trkpt lat="43.55427" lon="2.79898">
        <ele>986.6</ele>
        <time>2021-06-30T14:57:46.000+02:00</time>
      </trkpt>
      <trkpt lat="43.55429" lon="2.79899">
        <ele>986.5</ele>
        <time>2021-06-30T14:57:47.000+02:00</time>
      </trkpt>
      <trkpt lat="43.55429" lon="2.79899">
        <ele>986.6</ele>
        <time>2021-06-30T14:57:48.000+02:00</time>
      </trkpt>
      <trkpt lat="43.55429" lon="2.79899">
        <ele>986.5</ele>
        <time>2021-06-30T14:57:49.000+02:00</time>
      </trkpt>
      <trkpt lat="43.5543" lon="2.79899">
        <ele>986.5</ele>
        <time>2021-06-30T14:57:50.000+02:00</time>
      </trkpt>
      <trkpt lat="43.5543" lon="2.79899">
        <ele>986.5</ele>
        <time>2021-06-30T14:57:51.000+02:00</time>
      </trkpt>
      <trkpt lat="43.5543" lon="2.79899">
        <ele>986.5</ele>
        <time>2021-06-30T14:57:52.000+02:00</time>
      </trkpt>
      <trkpt lat="43.5543" lon="2.79899">
        <ele>986.5</ele>
        <time>2021-06-30T14:57:53.000+02:00</time>
      </trkpt>
      <trkpt lat="43.5543" lon="2.79899">
        <ele>986.5</ele>
        <time>2021-06-30T14:57:54.000+02:00</time>
      </trkpt>
      <trkpt lat="43.5543" lon="2.799">
        <ele>986.5</ele>
        <time>2021-06-30T14:57:55.000+02:00</time>
      </trkpt>
      <trkpt lat="43.55431" lon="2.799">
        <ele>986.5</ele>
        <time>2021-06-30T14:57:56.000+02:00</time>
      </trkpt>
      <trkpt lat="43.5543" lon="2.79901">
        <ele>986.6</ele>
        <time>2021-06-30T14:57:57.000+02:00</time>
      </trkpt>
      <trkpt lat="43.5543" lon="2.79901">
        <ele>986.6</ele>
        <time>2021-06-30T14:57:58.000+02:00</time>
      </trkpt>
      <trkpt lat="43.55431" lon="2.79901">
        <ele>986.6</ele>
        <time>2021-06-30T14:57:59.000+02:00</time>
      </trkpt>
      <trkpt lat="43.55432" lon="2.79901">
        <ele>986.5</ele>
        <time>2021-06-30T14:58:00.000+02:00</time>
      </trkpt>
      <trkpt lat="43.55432" lon="2.79901">
        <ele>986.5</ele>
        <time>2021-06-30T14:58:01.000+02:00</time>
      </trkpt>
      <trkpt lat="43.55433" lon="2.79902">
        <ele>986.5</ele>
        <time>2021-06-30T14:58:02.000+02:00</time>
      </trkpt>
      <trkpt lat="43.55433" lon="2.79902">
        <ele>986.4</ele>
        <time>2021-06-30T14:58:03.000+02:00</time>
      </trkpt>
      <trkpt lat="43.55434" lon="2.79901">
        <ele>986.3</ele>
        <time>2021-06-30T14:58:04.000+02:00</time>
      </trkpt>
      <trkpt lat="43.55435" lon="2.79901">
        <ele>986.3</ele>
        <time>2021-06-30T14:58:05.000+02:00</time>
      </trkpt>
      <trkpt lat="43.55436" lon="2.79901">
        <ele>986.2</ele>
        <time>2021-06-30T14:58:06.000+02:00</time>
      </trkpt>
      <trkpt lat="43.55437" lon="2.79901">
        <ele>986.2</ele>
        <time>2021-06-30T14:58:07.000+02:00</time>
      </trkpt>
      <trkpt lat="43.55438" lon="2.799">
        <ele>985.9</ele>
        <time>2021-06-30T14:58:08.000+02:00</time>
      </trkpt>
      <trkpt lat="43.55441" lon="2.79899">
        <ele>985.6</ele>
        <time>2021-06-30T14:58:09.000+02:00</time>
      </trkpt>
      <trkpt lat="43.55443" lon="2.79898">
        <ele>985.3</ele>
        <time>2021-06-30T14:58:10.000+02:00</time>
      </trkpt>
      <trkpt lat="43.55444" lon="2.79897">
        <ele>985.1</ele>
        <time>2021-06-30T14:58:11.000+02:00</time>
      </trkpt>
      <trkpt lat="43.55445" lon="2.79895">
        <ele>984.9</ele>
        <time>2021-06-30T14:58:12.000+02:00</time>
      </trkpt>
      <trkpt lat="43.55446" lon="2.79896">
        <ele>984.9</ele>
        <time>2021-06-30T14:58:13.000+02:00</time>
      </trkpt>
      <trkpt lat="43.55446" lon="2.79896">
        <ele>984.8</ele>
        <time>2021-06-30T14:58:14.000+02:00</time>
      </trkpt>
      <trkpt lat="43.55448" lon="2.79895">
        <ele>984.6</ele>
        <time>2021-06-30T14:58:15.000+02:00</time>
      </trkpt>
      <trkpt lat="43.55449" lon="2.79894">
        <ele>984.5</ele>
        <time>2021-06-30T14:58:16.000+02:00</time>
      </trkpt>
      <trkpt lat="43.5545" lon="2.79893">
        <ele>984.3</ele>
        <time>2021-06-30T14:58:17.000+02:00</time>
      </trkpt>
      <trkpt lat="43.5545" lon="2.79893">
        <ele>984.2</ele>
        <time>2021-06-30T14:58:18.000+02:00</time>
      </trkpt>
      <trkpt lat="43.55451" lon="2.79892">
        <ele>984.1</ele>
        <time>2021-06-30T14:58:19.000+02:00</time>
      </trkpt>
      <trkpt lat="43.55452" lon="2.79892">
        <ele>984</ele>
        <time>2021-06-30T14:58:20.000+02:00</time>
      </trkpt>
      <trkpt lat="43.55453" lon="2.79892">
        <ele>983.9</ele>
        <time>2021-06-30T14:58:21.000+02:00</time>
      </trkpt>
      <trkpt lat="43.55454" lon="2.79892">
        <ele>983.9</ele>
        <time>2021-06-30T14:58:22.000+02:00</time>
      </trkpt>
      <trkpt lat="43.55455" lon="2.79892">
        <ele>983.8</ele>
        <time>2021-06-30T14:58:23.000+02:00</time>
      </trkpt>
      <trkpt lat="43.55456" lon="2.79892">
        <ele>983.7</ele>
        <time>2021-06-30T14:58:24.000+02:00</time>
      </trkpt>
      <trkpt lat="43.55458" lon="2.79892">
        <ele>983.6</ele>
        <time>2021-06-30T14:58:25.000+02:00</time>
      </trkpt>
      <trkpt lat="43.55459" lon="2.79893">
        <ele>983.5</ele>
        <time>2021-06-30T14:58:26.000+02:00</time>
      </trkpt>
      <trkpt lat="43.5546" lon="2.79893">
        <ele>983.4</ele>
        <time>2021-06-30T14:58:27.000+02:00</time>
      </trkpt>
      <trkpt lat="43.55462" lon="2.79894">
        <ele>983.3</ele>
        <time>2021-06-30T14:58:28.000+02:00</time>
      </trkpt>
      <trkpt lat="43.55464" lon="2.79894">
        <ele>983.3</ele>
        <time>2021-06-30T14:58:29.000+02:00</time>
      </trkpt>
      <trkpt lat="43.55466" lon="2.79895">
        <ele>983.2</ele>
        <time>2021-06-30T14:58:30.000+02:00</time>
      </trkpt>
      <trkpt lat="43.55467" lon="2.79895">
        <ele>983.1</ele>
        <time>2021-06-30T14:58:31.000+02:00</time>
      </trkpt>
      <trkpt lat="43.55468" lon="2.79895">
        <ele>983</ele>
        <time>2021-06-30T14:58:32.000+02:00</time>
      </trkpt>
      <trkpt lat="43.55469" lon="2.79895">
        <ele>982.9</ele>
        <time>2021-06-30T14:58:33.000+02:00</time>
      </trkpt>
      <trkpt lat="43.55471" lon="2.79895">
        <ele>982.8</ele>
        <time>2021-06-30T14:58:34.000+02:00</time>
      </trkpt>
      <trkpt lat="43.55472" lon="2.79895">
        <ele>982.7</ele>
        <time>2021-06-30T14:58:35.000+02:00</time>
      </trkpt>
      <trkpt lat="43.55473" lon="2.79895">
        <ele>982.7</ele>
        <time>2021-06-30T14:58:36.000+02:00</time>
      </trkpt>
      <trkpt lat="43.55474" lon="2.79896">
        <ele>982.6</ele>
        <time>2021-06-30T14:58:37.000+02:00</time>
      </trkpt>
      <trkpt lat="43.55474" lon="2.79896">
        <ele>982.6</ele>
        <time>2021-06-30T14:58:38.000+02:00</time>
      </trkpt>
      <trkpt lat="43.55475" lon="2.79896">
        <ele>982.6</ele>
        <time>2021-06-30T14:58:39.000+02:00</time>
      </trkpt>
      <trkpt lat="43.55475" lon="2.79897">
        <ele>982.6</ele>
        <time>2021-06-30T14:58:40.000+02:00</time>
      </trkpt>
      <trkpt lat="43.55476" lon="2.79896">
        <ele>982.5</ele>
        <time>2021-06-30T14:58:41.000+02:00</time>
      </trkpt>
      <trkpt lat="43.55477" lon="2.79896">
        <ele>982.4</ele>
        <time>2021-06-30T14:58:42.000+02:00</time>
      </trkpt>
      <trkpt lat="43.55478" lon="2.79895">
        <ele>982.2</ele>
        <time>2021-06-30T14:58:43.000+02:00</time>
      </trkpt>
      <trkpt lat="43.55479" lon="2.79895">
        <ele>982.1</ele>
        <time>2021-06-30T14:58:44.000+02:00</time>
      </trkpt>
      <trkpt lat="43.5548" lon="2.79894">
        <ele>981.9</ele>
        <time>2021-06-30T14:58:45.000+02:00</time>
      </trkpt>
      <trkpt lat="43.55481" lon="2.79893">
        <ele>981.7</ele>
        <time>2021-06-30T14:58:46.000+02:00</time>
      </trkpt>
      <trkpt lat="43.55481" lon="2.79892">
        <ele>981.5</ele>
        <time>2021-06-30T14:58:47.000+02:00</time>
      </trkpt>
      <trkpt lat="43.55482" lon="2.79891">
        <ele>981.5</ele>
        <time>2021-06-30T14:58:48.000+02:00</time>
      </trkpt>
      <trkpt lat="43.55482" lon="2.79891">
        <ele>981.4</ele>
        <time>2021-06-30T14:58:49.000+02:00</time>
      </trkpt>
      <trkpt lat="43.55483" lon="2.79891">
        <ele>981.3</ele>
        <time>2021-06-30T14:58:50.000+02:00</time>
      </trkpt>
      <trkpt lat="43.55483" lon="2.79891">
        <ele>981.3</ele>
        <time>2021-06-30T14:58:51.000+02:00</time>
      </trkpt>
      <trkpt lat="43.55484" lon="2.7989">
        <ele>981.2</ele>
        <time>2021-06-30T14:58:52.000+02:00</time>
      </trkpt>
      <trkpt lat="43.55485" lon="2.79889">
        <ele>980.9</ele>
        <time>2021-06-30T14:58:53.000+02:00</time>
      </trkpt>
      <trkpt lat="43.55487" lon="2.79887">
        <ele>980.5</ele>
        <time>2021-06-30T14:58:54.000+02:00</time>
      </trkpt>
      <trkpt lat="43.55488" lon="2.79886">
        <ele>980.3</ele>
        <time>2021-06-30T14:58:55.000+02:00</time>
      </trkpt>
      <trkpt lat="43.5549" lon="2.79885">
        <ele>980.1</ele>
        <time>2021-06-30T14:58:56.000+02:00</time>
      </trkpt>
      <trkpt lat="43.55491" lon="2.79885">
        <ele>980</ele>
        <time>2021-06-30T14:58:57.000+02:00</time>
      </trkpt>
      <trkpt lat="43.55493" lon="2.79884">
        <ele>979.7</ele>
        <time>2021-06-30T14:58:58.000+02:00</time>
      </trkpt>
      <trkpt lat="43.55494" lon="2.79884">
        <ele>979.6</ele>
        <time>2021-06-30T14:58:59.000+02:00</time>
      </trkpt>
      <trkpt lat="43.55495" lon="2.79883">
        <ele>979.4</ele>
        <time>2021-06-30T14:59:00.000+02:00</time>
      </trkpt>
      <trkpt lat="43.55496" lon="2.79883">
        <ele>979.3</ele>
        <time>2021-06-30T14:59:01.000+02:00</time>
      </trkpt>
      <trkpt lat="43.55497" lon="2.79883">
        <ele>979.2</ele>
        <time>2021-06-30T14:59:02.000+02:00</time>
      </trkpt>
      <trkpt lat="43.55498" lon="2.79882">
        <ele>978.9</ele>
        <time>2021-06-30T14:59:03.000+02:00</time>
      </trkpt>
      <trkpt lat="43.555" lon="2.79881">
        <ele>978.7</ele>
        <time>2021-06-30T14:59:04.000+02:00</time>
      </trkpt>
      <trkpt lat="43.55502" lon="2.7988">
        <ele>978.5</ele>
        <time>2021-06-30T14:59:05.000+02:00</time>
      </trkpt>
      <trkpt lat="43.55504" lon="2.79879">
        <ele>978.3</ele>
        <time>2021-06-30T14:59:06.000+02:00</time>
      </trkpt>
      <trkpt lat="43.55505" lon="2.79879">
        <ele>978.2</ele>
        <time>2021-06-30T14:59:07.000+02:00</time>
      </trkpt>
      <trkpt lat="43.55507" lon="2.7988">
        <ele>978.2</ele>
        <time>2021-06-30T14:59:08.000+02:00</time>
      </trkpt>
      <trkpt lat="43.55508" lon="2.7988">
        <ele>978.1</ele>
        <time>2021-06-30T14:59:09.000+02:00</time>
      </trkpt>
      <trkpt lat="43.55509" lon="2.79879">
        <ele>978</ele>
        <time>2021-06-30T14:59:10.000+02:00</time>
      </trkpt>
      <trkpt lat="43.55511" lon="2.79879">
        <ele>977.9</ele>
        <time>2021-06-30T14:59:11.000+02:00</time>
      </trkpt>
      <trkpt lat="43.55512" lon="2.79879">
        <ele>977.8</ele>
        <time>2021-06-30T14:59:12.000+02:00</time>
      </trkpt>
      <trkpt lat="43.55513" lon="2.79879">
        <ele>977.8</ele>
        <time>2021-06-30T14:59:13.000+02:00</time>
      </trkpt>
      <trkpt lat="43.55514" lon="2.79879">
        <ele>977.7</ele>
        <time>2021-06-30T14:59:14.000+02:00</time>
      </trkpt>
      <trkpt lat="43.55515" lon="2.79878">
        <ele>977.6</ele>
        <time>2021-06-30T14:59:15.000+02:00</time>
      </trkpt>
      <trkpt lat="43.55517" lon="2.79879">
        <ele>977.5</ele>
        <time>2021-06-30T14:59:16.000+02:00</time>
      </trkpt>
      <trkpt lat="43.55518" lon="2.79878">
        <ele>977.4</ele>
        <time>2021-06-30T14:59:17.000+02:00</time>
      </trkpt>
      <trkpt lat="43.55519" lon="2.79878">
        <ele>977.3</ele>
        <time>2021-06-30T14:59:18.000+02:00</time>
      </trkpt>
      <trkpt lat="43.5552" lon="2.79877">
        <ele>977.1</ele>
        <time>2021-06-30T14:59:19.000+02:00</time>
      </trkpt>
      <trkpt lat="43.55522" lon="2.79877">
        <ele>977</ele>
        <time>2021-06-30T14:59:20.000+02:00</time>
      </trkpt>
      <trkpt lat="43.55523" lon="2.79876">
        <ele>976.9</ele>
        <time>2021-06-30T14:59:21.000+02:00</time>
      </trkpt>
      <trkpt lat="43.55524" lon="2.79875">
        <ele>976.7</ele>
        <time>2021-06-30T14:59:22.000+02:00</time>
      </trkpt>
      <trkpt lat="43.55525" lon="2.79875">
        <ele>976.6</ele>
        <time>2021-06-30T14:59:23.000+02:00</time>
      </trkpt>
      <trkpt lat="43.55526" lon="2.79874">
        <ele>976.5</ele>
        <time>2021-06-30T14:59:24.000+02:00</time>
      </trkpt>
      <trkpt lat="43.55527" lon="2.79874">
        <ele>976.4</ele>
        <time>2021-06-30T14:59:25.000+02:00</time>
      </trkpt>
      <trkpt lat="43.55528" lon="2.79873">
        <ele>976.3</ele>
        <time>2021-06-30T14:59:26.000+02:00</time>
      </trkpt>
      <trkpt lat="43.55529" lon="2.79873">
        <ele>976.2</ele>
        <time>2021-06-30T14:59:27.000+02:00</time>
      </trkpt>
      <trkpt lat="43.5553" lon="2.79873">
        <ele>976.1</ele>
        <time>2021-06-30T14:59:28.000+02:00</time>
      </trkpt>
      <trkpt lat="43.55531" lon="2.79873">
        <ele>976</ele>
        <time>2021-06-30T14:59:29.000+02:00</time>
      </trkpt>
      <trkpt lat="43.55532" lon="2.79873">
        <ele>976</ele>
        <time>2021-06-30T14:59:30.000+02:00</time>
      </trkpt>
      <trkpt lat="43.55533" lon="2.79872">
        <ele>975.9</ele>
        <time>2021-06-30T14:59:31.000+02:00</time>
      </trkpt>
      <trkpt lat="43.55533" lon="2.79872">
        <ele>975.9</ele>
        <time>2021-06-30T14:59:32.000+02:00</time>
      </trkpt>
      <trkpt lat="43.55534" lon="2.79872">
        <ele>975.8</ele>
        <time>2021-06-30T14:59:33.000+02:00</time>
      </trkpt>
      <trkpt lat="43.55536" lon="2.79872">
        <ele>975.8</ele>
        <time>2021-06-30T14:59:34.000+02:00</time>
      </trkpt>
      <trkpt lat="43.55537" lon="2.79872">
        <ele>975.7</ele>
        <time>2021-06-30T14:59:35.000+02:00</time>
      </trkpt>
      <trkpt lat="43.55538" lon="2.79872">
        <ele>975.6</ele>
        <time>2021-06-30T14:59:36.000+02:00</time>
      </trkpt>
      <trkpt lat="43.5554" lon="2.79872">
        <ele>975.5</ele>
        <time>2021-06-30T14:59:37.000+02:00</time>
      </trkpt>
      <trkpt lat="43.55541" lon="2.79872">
        <ele>975.4</ele>
        <time>2021-06-30T14:59:38.000+02:00</time>
      </trkpt>
      <trkpt lat="43.55542" lon="2.79871">
        <ele>975.3</ele>
        <time>2021-06-30T14:59:39.000+02:00</time>
      </trkpt>
      <trkpt lat="43.55542" lon="2.79871">
        <ele>975.2</ele>
        <time>2021-06-30T14:59:40.000+02:00</time>
      </trkpt>
      <trkpt lat="43.55543" lon="2.7987">
        <ele>975.1</ele>
        <time>2021-06-30T14:59:41.000+02:00</time>
      </trkpt>
      <trkpt lat="43.55545" lon="2.7987">
        <ele>975</ele>
        <time>2021-06-30T14:59:42.000+02:00</time>
      </trkpt>
      <trkpt lat="43.55546" lon="2.79869">
        <ele>974.8</ele>
        <time>2021-06-30T14:59:43.000+02:00</time>
      </trkpt>
      <trkpt lat="43.55547" lon="2.79869">
        <ele>974.8</ele>
        <time>2021-06-30T14:59:44.000+02:00</time>
      </trkpt>
      <trkpt lat="43.55548" lon="2.79869">
        <ele>974.7</ele>
        <time>2021-06-30T14:59:45.000+02:00</time>
      </trkpt>
      <trkpt lat="43.55549" lon="2.79869">
        <ele>974.7</ele>
        <time>2021-06-30T14:59:46.000+02:00</time>
      </trkpt>
      <trkpt lat="43.5555" lon="2.79869">
        <ele>974.6</ele>
        <time>2021-06-30T14:59:47.000+02:00</time>
      </trkpt>
      <trkpt lat="43.55551" lon="2.79868">
        <ele>974.5</ele>
        <time>2021-06-30T14:59:48.000+02:00</time>
      </trkpt>
      <trkpt lat="43.55552" lon="2.79868">
        <ele>974.4</ele>
        <time>2021-06-30T14:59:49.000+02:00</time>
      </trkpt>
      <trkpt lat="43.55553" lon="2.79868">
        <ele>974.3</ele>
        <time>2021-06-30T14:59:50.000+02:00</time>
      </trkpt>
      <trkpt lat="43.55554" lon="2.79867">
        <ele>974.2</ele>
        <time>2021-06-30T14:59:51.000+02:00</time>
      </trkpt>
      <trkpt lat="43.55554" lon="2.79867">
        <ele>974.1</ele>
        <time>2021-06-30T14:59:52.000+02:00</time>
      </trkpt>
      <trkpt lat="43.55556" lon="2.79866">
        <ele>974</ele>
        <time>2021-06-30T14:59:53.000+02:00</time>
      </trkpt>
      <trkpt lat="43.55557" lon="2.79866">
        <ele>973.9</ele>
        <time>2021-06-30T14:59:54.000+02:00</time>
      </trkpt>
      <trkpt lat="43.55558" lon="2.79866">
        <ele>973.9</ele>
        <time>2021-06-30T14:59:55.000+02:00</time>
      </trkpt>
      <trkpt lat="43.55558" lon="2.79866">
        <ele>973.8</ele>
        <time>2021-06-30T14:59:56.000+02:00</time>
      </trkpt>
      <trkpt lat="43.5556" lon="2.79866">
        <ele>973.7</ele>
        <time>2021-06-30T14:59:57.000+02:00</time>
      </trkpt>
      <trkpt lat="43.55561" lon="2.79866">
        <ele>973.7</ele>
        <time>2021-06-30T14:59:58.000+02:00</time>
      </trkpt>
      <trkpt lat="43.55562" lon="2.79866">
        <ele>973.6</ele>
        <time>2021-06-30T14:59:59.000+02:00</time>
      </trkpt>
      <trkpt lat="43.55562" lon="2.79865">
        <ele>973.6</ele>
        <time>2021-06-30T15:00:00.000+02:00</time>
      </trkpt>
      <trkpt lat="43.55563" lon="2.79865">
        <ele>973.5</ele>
        <time>2021-06-30T15:00:01.000+02:00</time>
      </trkpt>
      <trkpt lat="43.55564" lon="2.79865">
        <ele>973.4</ele>
        <time>2021-06-30T15:00:02.000+02:00</time>
      </trkpt>
      <trkpt lat="43.55565" lon="2.79865">
        <ele>973.3</ele>
        <time>2021-06-30T15:00:03.000+02:00</time>
      </trkpt>
      <trkpt lat="43.55567" lon="2.79864">
        <ele>973.2</ele>
        <time>2021-06-30T15:00:04.000+02:00</time>
      </trkpt>
      <trkpt lat="43.55569" lon="2.79864">
        <ele>973.1</ele>
        <time>2021-06-30T15:00:05.000+02:00</time>
      </trkpt>
      <trkpt lat="43.5557" lon="2.79864">
        <ele>973.1</ele>
        <time>2021-06-30T15:00:06.000+02:00</time>
      </trkpt>
      <trkpt lat="43.55571" lon="2.79865">
        <ele>973.1</ele>
        <time>2021-06-30T15:00:07.000+02:00</time>
      </trkpt>
      <trkpt lat="43.55571" lon="2.79865">
        <ele>973.1</ele>
        <time>2021-06-30T15:00:08.000+02:00</time>
      </trkpt>
      <trkpt lat="43.55573" lon="2.79866">
        <ele>973.1</ele>
        <time>2021-06-30T15:00:09.000+02:00</time>
      </trkpt>
      <trkpt lat="43.55574" lon="2.79866">
        <ele>973</ele>
        <time>2021-06-30T15:00:10.000+02:00</time>
      </trkpt>
      <trkpt lat="43.55575" lon="2.79866">
        <ele>972.9</ele>
        <time>2021-06-30T15:00:11.000+02:00</time>
      </trkpt>
      <trkpt lat="43.55576" lon="2.79866">
        <ele>972.9</ele>
        <time>2021-06-30T15:00:12.000+02:00</time>
      </trkpt>
      <trkpt lat="43.55577" lon="2.79866">
        <ele>972.8</ele>
        <time>2021-06-30T15:00:13.000+02:00</time>
      </trkpt>
      <trkpt lat="43.55578" lon="2.79865">
        <ele>972.7</ele>
        <time>2021-06-30T15:00:14.000+02:00</time>
      </trkpt>
      <trkpt lat="43.55579" lon="2.79865">
        <ele>972.7</ele>
        <time>2021-06-30T15:00:15.000+02:00</time>
      </trkpt>
      <trkpt lat="43.55579" lon="2.79864">
        <ele>972.6</ele>
        <time>2021-06-30T15:00:16.000+02:00</time>
      </trkpt>
      <trkpt lat="43.55579" lon="2.79863">
        <ele>972.5</ele>
        <time>2021-06-30T15:00:17.000+02:00</time>
      </trkpt>
      <trkpt lat="43.55579" lon="2.79863">
        <ele>972.4</ele>
        <time>2021-06-30T15:00:18.000+02:00</time>
      </trkpt>
      <trkpt lat="43.5558" lon="2.79863">
        <ele>972.4</ele>
        <time>2021-06-30T15:00:19.000+02:00</time>
      </trkpt>
      <trkpt lat="43.55581" lon="2.79863">
        <ele>972.3</ele>
        <time>2021-06-30T15:00:20.000+02:00</time>
      </trkpt>
      <trkpt lat="43.55582" lon="2.79862">
        <ele>972.1</ele>
        <time>2021-06-30T15:00:21.000+02:00</time>
      </trkpt>
      <trkpt lat="43.55584" lon="2.79862">
        <ele>972.1</ele>
        <time>2021-06-30T15:00:22.000+02:00</time>
      </trkpt>
      <trkpt lat="43.55584" lon="2.79862">
        <ele>972</ele>
        <time>2021-06-30T15:00:23.000+02:00</time>
      </trkpt>
      <trkpt lat="43.55585" lon="2.79861">
        <ele>972</ele>
        <time>2021-06-30T15:00:24.000+02:00</time>
      </trkpt>
      <trkpt lat="43.55586" lon="2.79861">
        <ele>971.9</ele>
        <time>2021-06-30T15:00:25.000+02:00</time>
      </trkpt>
      <trkpt lat="43.55587" lon="2.7986">
        <ele>971.8</ele>
        <time>2021-06-30T15:00:26.000+02:00</time>
      </trkpt>
      <trkpt lat="43.55588" lon="2.7986">
        <ele>971.7</ele>
        <time>2021-06-30T15:00:27.000+02:00</time>
      </trkpt>
      <trkpt lat="43.55589" lon="2.7986">
        <ele>971.6</ele>
        <time>2021-06-30T15:00:28.000+02:00</time>
      </trkpt>
      <trkpt lat="43.5559" lon="2.7986">
        <ele>971.5</ele>
        <time>2021-06-30T15:00:29.000+02:00</time>
      </trkpt>
      <trkpt lat="43.55591" lon="2.7986">
        <ele>971.5</ele>
        <time>2021-06-30T15:00:30.000+02:00</time>
      </trkpt>
      <trkpt lat="43.55592" lon="2.7986">
        <ele>971.4</ele>
        <time>2021-06-30T15:00:31.000+02:00</time>
      </trkpt>
      <trkpt lat="43.55593" lon="2.7986">
        <ele>971.4</ele>
        <time>2021-06-30T15:00:32.000+02:00</time>
      </trkpt>
      <trkpt lat="43.55594" lon="2.7986">
        <ele>971.4</ele>
        <time>2021-06-30T15:00:33.000+02:00</time>
      </trkpt>
      <trkpt lat="43.55595" lon="2.7986">
        <ele>971.3</ele>
        <time>2021-06-30T15:00:34.000+02:00</time>
      </trkpt>
      <trkpt lat="43.55596" lon="2.7986">
        <ele>971.3</ele>
        <time>2021-06-30T15:00:35.000+02:00</time>
      </trkpt>
      <trkpt lat="43.55597" lon="2.7986">
        <ele>971.2</ele>
        <time>2021-06-30T15:00:36.000+02:00</time>
      </trkpt>
      <trkpt lat="43.55598" lon="2.7986">
        <ele>971.1</ele>
        <time>2021-06-30T15:00:37.000+02:00</time>
      </trkpt>
      <trkpt lat="43.55599" lon="2.79859">
        <ele>971.1</ele>
        <time>2021-06-30T15:00:38.000+02:00</time>
      </trkpt>
      <trkpt lat="43.556" lon="2.79859">
        <ele>971</ele>
        <time>2021-06-30T15:00:39.000+02:00</time>
      </trkpt>
      <trkpt lat="43.55601" lon="2.79859">
        <ele>970.9</ele>
        <time>2021-06-30T15:00:40.000+02:00</time>
      </trkpt>
      <trkpt lat="43.55602" lon="2.79859">
        <ele>970.9</ele>
        <time>2021-06-30T15:00:41.000+02:00</time>
      </trkpt>
      <trkpt lat="43.55604" lon="2.7986">
        <ele>970.9</ele>
        <time>2021-06-30T15:00:42.000+02:00</time>
      </trkpt>
      <trkpt lat="43.55605" lon="2.7986">
        <ele>970.8</ele>
        <time>2021-06-30T15:00:43.000+02:00</time>
      </trkpt>
      <trkpt lat="43.55606" lon="2.7986">
        <ele>970.8</ele>
        <time>2021-06-30T15:00:44.000+02:00</time>
      </trkpt>
      <trkpt lat="43.55607" lon="2.79861">
        <ele>970.8</ele>
        <time>2021-06-30T15:00:45.000+02:00</time>
      </trkpt>
      <trkpt lat="43.55608" lon="2.79861">
        <ele>970.8</ele>
        <time>2021-06-30T15:00:46.000+02:00</time>
      </trkpt>
      <trkpt lat="43.55609" lon="2.7986">
        <ele>970.7</ele>
        <time>2021-06-30T15:00:47.000+02:00</time>
      </trkpt>
      <trkpt lat="43.5561" lon="2.7986">
        <ele>970.6</ele>
        <time>2021-06-30T15:00:48.000+02:00</time>
      </trkpt>
      <trkpt lat="43.55611" lon="2.7986">
        <ele>970.6</ele>
        <time>2021-06-30T15:00:49.000+02:00</time>
      </trkpt>
      <trkpt lat="43.55612" lon="2.7986">
        <ele>970.5</ele>
        <time>2021-06-30T15:00:50.000+02:00</time>
      </trkpt>
      <trkpt lat="43.55613" lon="2.7986">
        <ele>970.5</ele>
        <time>2021-06-30T15:00:51.000+02:00</time>
      </trkpt>
      <trkpt lat="43.55614" lon="2.7986">
        <ele>970.4</ele>
        <time>2021-06-30T15:00:52.000+02:00</time>
      </trkpt>
      <trkpt lat="43.55615" lon="2.7986">
        <ele>970.4</ele>
        <time>2021-06-30T15:00:53.000+02:00</time>
      </trkpt>
      <trkpt lat="43.55616" lon="2.7986">
        <ele>970.3</ele>
        <time>2021-06-30T15:00:54.000+02:00</time>
      </trkpt>
      <trkpt lat="43.55618" lon="2.79859">
        <ele>970.2</ele>
        <time>2021-06-30T15:00:55.000+02:00</time>
      </trkpt>
      <trkpt lat="43.55618" lon="2.79859">
        <ele>970.1</ele>
        <time>2021-06-30T15:00:56.000+02:00</time>
      </trkpt>
      <trkpt lat="43.5562" lon="2.79859">
        <ele>970.1</ele>
        <time>2021-06-30T15:00:57.000+02:00</time>
      </trkpt>
      <trkpt lat="43.5562" lon="2.79859">
        <ele>970</ele>
        <time>2021-06-30T15:00:58.000+02:00</time>
      </trkpt>
      <trkpt lat="43.55622" lon="2.79859">
        <ele>969.9</ele>
        <time>2021-06-30T15:00:59.000+02:00</time>
      </trkpt>
      <trkpt lat="43.55622" lon="2.79859">
        <ele>969.9</ele>
        <time>2021-06-30T15:01:00.000+02:00</time>
      </trkpt>
      <trkpt lat="43.55623" lon="2.79859">
        <ele>969.9</ele>
        <time>2021-06-30T15:01:01.000+02:00</time>
      </trkpt>
      <trkpt lat="43.55624" lon="2.79859">
        <ele>969.9</ele>
        <time>2021-06-30T15:01:02.000+02:00</time>
      </trkpt>
      <trkpt lat="43.55625" lon="2.7986">
        <ele>969.9</ele>
        <time>2021-06-30T15:01:03.000+02:00</time>
      </trkpt>
      <trkpt lat="43.55625" lon="2.79859">
        <ele>969.8</ele>
        <time>2021-06-30T15:01:04.000+02:00</time>
      </trkpt>
      <trkpt lat="43.55626" lon="2.79859">
        <ele>969.8</ele>
        <time>2021-06-30T15:01:05.000+02:00</time>
      </trkpt>
      <trkpt lat="43.55626" lon="2.79859">
        <ele>969.7</ele>
        <time>2021-06-30T15:01:06.000+02:00</time>
      </trkpt>
      <trkpt lat="43.55627" lon="2.79859">
        <ele>969.7</ele>
        <time>2021-06-30T15:01:07.000+02:00</time>
      </trkpt>
      <trkpt lat="43.55627" lon="2.79859">
        <ele>969.7</ele>
        <time>2021-06-30T15:01:08.000+02:00</time>
      </trkpt>
      <trkpt lat="43.55627" lon="2.79859">
        <ele>969.7</ele>
        <time>2021-06-30T15:01:09.000+02:00</time>
      </trkpt>
      <trkpt lat="43.55627" lon="2.79859">
        <ele>969.7</ele>
        <time>2021-06-30T15:01:10.000+02:00</time>
      </trkpt>
      <trkpt lat="43.55628" lon="2.79859">
        <ele>969.7</ele>
        <time>2021-06-30T15:01:11.000+02:00</time>
      </trkpt>
      <trkpt lat="43.55629" lon="2.79859">
        <ele>969.6</ele>
        <time>2021-06-30T15:01:12.000+02:00</time>
      </trkpt>
      <trkpt lat="43.55629" lon="2.79859">
        <ele>969.6</ele>
        <time>2021-06-30T15:01:13.000+02:00</time>
      </trkpt>
      <trkpt lat="43.5563" lon="2.79859">
        <ele>969.5</ele>
        <time>2021-06-30T15:01:14.000+02:00</time>
      </trkpt>
      <trkpt lat="43.55631" lon="2.79859">
        <ele>969.5</ele>
        <time>2021-06-30T15:01:15.000+02:00</time>
      </trkpt>
      <trkpt lat="43.55632" lon="2.79859">
        <ele>969.5</ele>
        <time>2021-06-30T15:01:16.000+02:00</time>
      </trkpt>
      <trkpt lat="43.55633" lon="2.79859">
        <ele>969.4</ele>
        <time>2021-06-30T15:01:17.000+02:00</time>
      </trkpt>
      <trkpt lat="43.55634" lon="2.79859">
        <ele>969.4</ele>
        <time>2021-06-30T15:01:18.000+02:00</time>
      </trkpt>
      <trkpt lat="43.55636" lon="2.79859">
        <ele>969.3</ele>
        <time>2021-06-30T15:01:19.000+02:00</time>
      </trkpt>
      <trkpt lat="43.55637" lon="2.7986">
        <ele>969.3</ele>
        <time>2021-06-30T15:01:20.000+02:00</time>
      </trkpt>
      <trkpt lat="43.55638" lon="2.7986">
        <ele>969.3</ele>
        <time>2021-06-30T15:01:21.000+02:00</time>
      </trkpt>
      <trkpt lat="43.55639" lon="2.7986">
        <ele>969.3</ele>
        <time>2021-06-30T15:01:22.000+02:00</time>
      </trkpt>
      <trkpt lat="43.5564" lon="2.7986">
        <ele>969.2</ele>
        <time>2021-06-30T15:01:23.000+02:00</time>
      </trkpt>
      <trkpt lat="43.55641" lon="2.7986">
        <ele>969.1</ele>
        <time>2021-06-30T15:01:24.000+02:00</time>
      </trkpt>
      <trkpt lat="43.55642" lon="2.7986">
        <ele>969.1</ele>
        <time>2021-06-30T15:01:25.000+02:00</time>
      </trkpt>
      <trkpt lat="43.55644" lon="2.79861">
        <ele>969.1</ele>
        <time>2021-06-30T15:01:26.000+02:00</time>
      </trkpt>
      <trkpt lat="43.55644" lon="2.79861">
        <ele>969.1</ele>
        <time>2021-06-30T15:01:27.000+02:00</time>
      </trkpt>
      <trkpt lat="43.55645" lon="2.79861">
        <ele>969</ele>
        <time>2021-06-30T15:01:28.000+02:00</time>
      </trkpt>
      <trkpt lat="43.55646" lon="2.79861">
        <ele>969</ele>
        <time>2021-06-30T15:01:29.000+02:00</time>
      </trkpt>
      <trkpt lat="43.55647" lon="2.79861">
        <ele>968.9</ele>
        <time>2021-06-30T15:01:30.000+02:00</time>
      </trkpt>
      <trkpt lat="43.55648" lon="2.79861">
        <ele>968.9</ele>
        <time>2021-06-30T15:01:31.000+02:00</time>
      </trkpt>
      <trkpt lat="43.55649" lon="2.79861">
        <ele>968.8</ele>
        <time>2021-06-30T15:01:32.000+02:00</time>
      </trkpt>
      <trkpt lat="43.5565" lon="2.79861">
        <ele>968.8</ele>
        <time>2021-06-30T15:01:33.000+02:00</time>
      </trkpt>
      <trkpt lat="43.55651" lon="2.79861">
        <ele>968.8</ele>
        <time>2021-06-30T15:01:34.000+02:00</time>
      </trkpt>
      <trkpt lat="43.55652" lon="2.79862">
        <ele>968.8</ele>
        <time>2021-06-30T15:01:35.000+02:00</time>
      </trkpt>
      <trkpt lat="43.55653" lon="2.79862">
        <ele>968.7</ele>
        <time>2021-06-30T15:01:36.000+02:00</time>
      </trkpt>
      <trkpt lat="43.55654" lon="2.79862">
        <ele>968.7</ele>
        <time>2021-06-30T15:01:37.000+02:00</time>
      </trkpt>
      <trkpt lat="43.55655" lon="2.79862">
        <ele>968.7</ele>
        <time>2021-06-30T15:01:38.000+02:00</time>
      </trkpt>
      <trkpt lat="43.55656" lon="2.79862">
        <ele>968.6</ele>
        <time>2021-06-30T15:01:39.000+02:00</time>
      </trkpt>
      <trkpt lat="43.55656" lon="2.79862">
        <ele>968.6</ele>
        <time>2021-06-30T15:01:40.000+02:00</time>
      </trkpt>
      <trkpt lat="43.55657" lon="2.79863">
        <ele>968.6</ele>
        <time>2021-06-30T15:01:41.000+02:00</time>
      </trkpt>
      <trkpt lat="43.55658" lon="2.79862">
        <ele>968.5</ele>
        <time>2021-06-30T15:01:42.000+02:00</time>
      </trkpt>
      <trkpt lat="43.55659" lon="2.79862">
        <ele>968.4</ele>
        <time>2021-06-30T15:01:43.000+02:00</time>
      </trkpt>
      <trkpt lat="43.5566" lon="2.79862">
        <ele>968.4</ele>
        <time>2021-06-30T15:01:44.000+02:00</time>
      </trkpt>
      <trkpt lat="43.55661" lon="2.79863">
        <ele>968.4</ele>
        <time>2021-06-30T15:01:45.000+02:00</time>
      </trkpt>
      <trkpt lat="43.55662" lon="2.79863">
        <ele>968.4</ele>
        <time>2021-06-30T15:01:46.000+02:00</time>
      </trkpt>
      <trkpt lat="43.55663" lon="2.79864">
        <ele>968.3</ele>
        <time>2021-06-30T15:01:47.000+02:00</time>
      </trkpt>
      <trkpt lat="43.55664" lon="2.79864">
        <ele>968.3</ele>
        <time>2021-06-30T15:01:48.000+02:00</time>
      </trkpt>
      <trkpt lat="43.55665" lon="2.79864">
        <ele>968.3</ele>
        <time>2021-06-30T15:01:49.000+02:00</time>
      </trkpt>
      <trkpt lat="43.55666" lon="2.79864">
        <ele>968.2</ele>
        <time>2021-06-30T15:01:50.000+02:00</time>
      </trkpt>
      <trkpt lat="43.55667" lon="2.79864">
        <ele>968.2</ele>
        <time>2021-06-30T15:01:51.000+02:00</time>
      </trkpt>
      <trkpt lat="43.55668" lon="2.79864">
        <ele>968.2</ele>
        <time>2021-06-30T15:01:52.000+02:00</time>
      </trkpt>
      <trkpt lat="43.5567" lon="2.79865">
        <ele>968.1</ele>
        <time>2021-06-30T15:01:53.000+02:00</time>
      </trkpt>
      <trkpt lat="43.55671" lon="2.79866">
        <ele>968.1</ele>
        <time>2021-06-30T15:01:54.000+02:00</time>
      </trkpt>
      <trkpt lat="43.55672" lon="2.79866">
        <ele>968.1</ele>
        <time>2021-06-30T15:01:55.000+02:00</time>
      </trkpt>
      <trkpt lat="43.55673" lon="2.79867">
        <ele>968.1</ele>
        <time>2021-06-30T15:01:56.000+02:00</time>
      </trkpt>
      <trkpt lat="43.55674" lon="2.79867">
        <ele>968.1</ele>
        <time>2021-06-30T15:01:57.000+02:00</time>
      </trkpt>
      <trkpt lat="43.55674" lon="2.79867">
        <ele>968.1</ele>
        <time>2021-06-30T15:01:58.000+02:00</time>
      </trkpt>
      <trkpt lat="43.55675" lon="2.79868">
        <ele>968</ele>
        <time>2021-06-30T15:01:59.000+02:00</time>
      </trkpt>
      <trkpt lat="43.55676" lon="2.79868">
        <ele>968</ele>
        <time>2021-06-30T15:02:00.000+02:00</time>
      </trkpt>
      <trkpt lat="43.55677" lon="2.79868">
        <ele>968</ele>
        <time>2021-06-30T15:02:01.000+02:00</time>
      </trkpt>
      <trkpt lat="43.55677" lon="2.79869">
        <ele>968</ele>
        <time>2021-06-30T15:02:02.000+02:00</time>
      </trkpt>
      <trkpt lat="43.55677" lon="2.79868">
        <ele>968</ele>
        <time>2021-06-30T15:02:03.000+02:00</time>
      </trkpt>
      <trkpt lat="43.55677" lon="2.79868">
        <ele>968</ele>
        <time>2021-06-30T15:02:04.000+02:00</time>
      </trkpt>
      <trkpt lat="43.55677" lon="2.79868">
        <ele>968</ele>
        <time>2021-06-30T15:02:05.000+02:00</time>
      </trkpt>
      <trkpt lat="43.55677" lon="2.79868">
        <ele>968</ele>
        <time>2021-06-30T15:02:06.000+02:00</time>
      </trkpt>
      <trkpt lat="43.55677" lon="2.79868">
        <ele>968</ele>
        <time>2021-06-30T15:02:07.000+02:00</time>
      </trkpt>
      <trkpt lat="43.55677" lon="2.79868">
        <ele>968</ele>
        <time>2021-06-30T15:02:08.000+02:00</time>
      </trkpt>
      <trkpt lat="43.55677" lon="2.79868">
        <ele>968</ele>
        <time>2021-06-30T15:02:09.000+02:00</time>
      </trkpt>
      <trkpt lat="43.55677" lon="2.79868">
        <ele>968</ele>
        <time>2021-06-30T15:02:10.000+02:00</time>
      </trkpt>
      <trkpt lat="43.55677" lon="2.79868">
        <ele>968</ele>
        <time>2021-06-30T15:02:11.000+02:00</time>
      </trkpt>
      <trkpt lat="43.55677" lon="2.79868">
        <ele>968</ele>
        <time>2021-06-30T15:02:12.000+02:00</time>
      </trkpt>
      <trkpt lat="43.55677" lon="2.79868">
        <ele>968</ele>
        <time>2021-06-30T15:02:13.000+02:00</time>
      </trkpt>
      <trkpt lat="43.55677" lon="2.79868">
        <ele>968</ele>
        <time>2021-06-30T15:02:14.000+02:00</time>
      </trkpt>
      <trkpt lat="43.55677" lon="2.79868">
        <ele>968</ele>
        <time>2021-06-30T15:02:15.000+02:00</time>
      </trkpt>
      <trkpt lat="43.55677" lon="2.79868">
        <ele>968</ele>
        <time>2021-06-30T15:02:16.000+02:00</time>
      </trkpt>
      <trkpt lat="43.55677" lon="2.79868">
        <ele>968</ele>
        <time>2021-06-30T15:02:17.000+02:00</time>
      </trkpt>
      <trkpt lat="43.55677" lon="2.79867">
        <ele>968</ele>
        <time>2021-06-30T15:02:18.000+02:00</time>
      </trkpt>
      <trkpt lat="43.55677" lon="2.79867">
        <ele>967.9</ele>
        <time>2021-06-30T15:02:19.000+02:00</time>
      </trkpt>
      <trkpt lat="43.55677" lon="2.79867">
        <ele>967.9</ele>
        <time>2021-06-30T15:02:20.000+02:00</time>
      </trkpt>
      <trkpt lat="43.55677" lon="2.79867">
        <ele>967.9</ele>
        <time>2021-06-30T15:02:21.000+02:00</time>
      </trkpt>
      <trkpt lat="43.55678" lon="2.79867">
        <ele>967.9</ele>
        <time>2021-06-30T15:02:22.000+02:00</time>
      </trkpt>
      <trkpt lat="43.55678" lon="2.79867">
        <ele>967.8</ele>
        <time>2021-06-30T15:02:23.000+02:00</time>
      </trkpt>
      <trkpt lat="43.55679" lon="2.79867">
        <ele>967.8</ele>
        <time>2021-06-30T15:02:24.000+02:00</time>
      </trkpt>
      <trkpt lat="43.55679" lon="2.79867">
        <ele>967.8</ele>
        <time>2021-06-30T15:02:25.000+02:00</time>
      </trkpt>
      <trkpt lat="43.5568" lon="2.79868">
        <ele>967.8</ele>
        <time>2021-06-30T15:02:26.000+02:00</time>
      </trkpt>
      <trkpt lat="43.55681" lon="2.79868">
        <ele>967.8</ele>
        <time>2021-06-30T15:02:27.000+02:00</time>
      </trkpt>
      <trkpt lat="43.55681" lon="2.79869">
        <ele>967.8</ele>
        <time>2021-06-30T15:02:28.000+02:00</time>
      </trkpt>
      <trkpt lat="43.55682" lon="2.7987">
        <ele>967.8</ele>
        <time>2021-06-30T15:02:29.000+02:00</time>
      </trkpt>
      <trkpt lat="43.55683" lon="2.7987">
        <ele>967.8</ele>
        <time>2021-06-30T15:02:30.000+02:00</time>
      </trkpt>
      <trkpt lat="43.55683" lon="2.79871">
        <ele>967.8</ele>
        <time>2021-06-30T15:02:31.000+02:00</time>
      </trkpt>
      <trkpt lat="43.55685" lon="2.79871">
        <ele>967.8</ele>
        <time>2021-06-30T15:02:32.000+02:00</time>
      </trkpt>
      <trkpt lat="43.55686" lon="2.79872">
        <ele>967.8</ele>
        <time>2021-06-30T15:02:33.000+02:00</time>
      </trkpt>
      <trkpt lat="43.55687" lon="2.79873">
        <ele>967.8</ele>
        <time>2021-06-30T15:02:34.000+02:00</time>
      </trkpt>
      <trkpt lat="43.55688" lon="2.79874">
        <ele>967.8</ele>
        <time>2021-06-30T15:02:35.000+02:00</time>
      </trkpt>
      <trkpt lat="43.55689" lon="2.79875">
        <ele>967.8</ele>
        <time>2021-06-30T15:02:36.000+02:00</time>
      </trkpt>
      <trkpt lat="43.5569" lon="2.79876">
        <ele>967.8</ele>
        <time>2021-06-30T15:02:37.000+02:00</time>
      </trkpt>
      <trkpt lat="43.55691" lon="2.79877">
        <ele>967.8</ele>
        <time>2021-06-30T15:02:38.000+02:00</time>
      </trkpt>
      <trkpt lat="43.55692" lon="2.79877">
        <ele>967.8</ele>
        <time>2021-06-30T15:02:39.000+02:00</time>
      </trkpt>
      <trkpt lat="43.55693" lon="2.79879">
        <ele>967.8</ele>
        <time>2021-06-30T15:02:40.000+02:00</time>
      </trkpt>
      <trkpt lat="43.55694" lon="2.7988">
        <ele>967.8</ele>
        <time>2021-06-30T15:02:41.000+02:00</time>
      </trkpt>
      <trkpt lat="43.55695" lon="2.79882">
        <ele>967.9</ele>
        <time>2021-06-30T15:02:42.000+02:00</time>
      </trkpt>
      <trkpt lat="43.55697" lon="2.79883">
        <ele>967.9</ele>
        <time>2021-06-30T15:02:43.000+02:00</time>
      </trkpt>
      <trkpt lat="43.55698" lon="2.79884">
        <ele>967.9</ele>
        <time>2021-06-30T15:02:44.000+02:00</time>
      </trkpt>
      <trkpt lat="43.55699" lon="2.79885">
        <ele>967.9</ele>
        <time>2021-06-30T15:02:45.000+02:00</time>
      </trkpt>
      <trkpt lat="43.557" lon="2.79886">
        <ele>967.8</ele>
        <time>2021-06-30T15:02:46.000+02:00</time>
      </trkpt>
      <trkpt lat="43.55701" lon="2.79886">
        <ele>967.8</ele>
        <time>2021-06-30T15:02:47.000+02:00</time>
      </trkpt>
      <trkpt lat="43.55701" lon="2.79886">
        <ele>967.8</ele>
        <time>2021-06-30T15:02:48.000+02:00</time>
      </trkpt>
      <trkpt lat="43.55701" lon="2.79887">
        <ele>967.8</ele>
        <time>2021-06-30T15:02:49.000+02:00</time>
      </trkpt>
      <trkpt lat="43.55702" lon="2.79887">
        <ele>967.8</ele>
        <time>2021-06-30T15:02:50.000+02:00</time>
      </trkpt>
      <trkpt lat="43.55703" lon="2.79888">
        <ele>967.8</ele>
        <time>2021-06-30T15:02:51.000+02:00</time>
      </trkpt>
      <trkpt lat="43.55704" lon="2.79889">
        <ele>967.8</ele>
        <time>2021-06-30T15:02:52.000+02:00</time>
      </trkpt>
      <trkpt lat="43.55704" lon="2.7989">
        <ele>967.8</ele>
        <time>2021-06-30T15:02:53.000+02:00</time>
      </trkpt>
      <trkpt lat="43.55705" lon="2.79891">
        <ele>967.8</ele>
        <time>2021-06-30T15:02:54.000+02:00</time>
      </trkpt>
      <trkpt lat="43.55706" lon="2.79892">
        <ele>967.8</ele>
        <time>2021-06-30T15:02:55.000+02:00</time>
      </trkpt>
      <trkpt lat="43.55708" lon="2.79892">
        <ele>967.7</ele>
        <time>2021-06-30T15:02:56.000+02:00</time>
      </trkpt>
      <trkpt lat="43.55709" lon="2.79893">
        <ele>967.7</ele>
        <time>2021-06-30T15:02:57.000+02:00</time>
      </trkpt>
      <trkpt lat="43.5571" lon="2.79895">
        <ele>967.7</ele>
        <time>2021-06-30T15:02:58.000+02:00</time>
      </trkpt>
      <trkpt lat="43.5571" lon="2.79895">
        <ele>967.7</ele>
        <time>2021-06-30T15:02:59.000+02:00</time>
      </trkpt>
      <trkpt lat="43.55711" lon="2.79896">
        <ele>967.7</ele>
        <time>2021-06-30T15:03:00.000+02:00</time>
      </trkpt>
      <trkpt lat="43.55712" lon="2.79896">
        <ele>967.7</ele>
        <time>2021-06-30T15:03:01.000+02:00</time>
      </trkpt>
      <trkpt lat="43.55712" lon="2.79897">
        <ele>967.7</ele>
        <time>2021-06-30T15:03:02.000+02:00</time>
      </trkpt>
      <trkpt lat="43.55713" lon="2.79898">
        <ele>967.7</ele>
        <time>2021-06-30T15:03:03.000+02:00</time>
      </trkpt>
      <trkpt lat="43.55714" lon="2.79899">
        <ele>967.7</ele>
        <time>2021-06-30T15:03:04.000+02:00</time>
      </trkpt>
      <trkpt lat="43.55715" lon="2.79901">
        <ele>967.7</ele>
        <time>2021-06-30T15:03:05.000+02:00</time>
      </trkpt>
      <trkpt lat="43.55715" lon="2.79902">
        <ele>967.7</ele>
        <time>2021-06-30T15:03:06.000+02:00</time>
      </trkpt>
      <trkpt lat="43.55716" lon="2.79902">
        <ele>967.7</ele>
        <time>2021-06-30T15:03:07.000+02:00</time>
      </trkpt>
      <trkpt lat="43.55716" lon="2.79903">
        <ele>967.7</ele>
        <time>2021-06-30T15:03:08.000+02:00</time>
      </trkpt>
      <trkpt lat="43.55717" lon="2.79904">
        <ele>967.7</ele>
        <time>2021-06-30T15:03:09.000+02:00</time>
      </trkpt>
      <trkpt lat="43.55718" lon="2.79906">
        <ele>967.8</ele>
        <time>2021-06-30T15:03:10.000+02:00</time>
      </trkpt>
      <trkpt lat="43.55719" lon="2.79907">
        <ele>967.8</ele>
        <time>2021-06-30T15:03:11.000+02:00</time>
      </trkpt>
      <trkpt lat="43.55719" lon="2.79908">
        <ele>967.8</ele>
        <time>2021-06-30T15:03:12.000+02:00</time>
      </trkpt>
      <trkpt lat="43.5572" lon="2.79909">
        <ele>967.8</ele>
        <time>2021-06-30T15:03:13.000+02:00</time>
      </trkpt>
      <trkpt lat="43.55721" lon="2.7991">
        <ele>967.8</ele>
        <time>2021-06-30T15:03:14.000+02:00</time>
      </trkpt>
      <trkpt lat="43.55721" lon="2.79911">
        <ele>967.8</ele>
        <time>2021-06-30T15:03:15.000+02:00</time>
      </trkpt>
      <trkpt lat="43.55722" lon="2.79912">
        <ele>967.8</ele>
        <time>2021-06-30T15:03:16.000+02:00</time>
      </trkpt>
      <trkpt lat="43.55723" lon="2.79913">
        <ele>967.8</ele>
        <time>2021-06-30T15:03:17.000+02:00</time>
      </trkpt>
      <trkpt lat="43.55723" lon="2.79914">
        <ele>967.8</ele>
        <time>2021-06-30T15:03:18.000+02:00</time>
      </trkpt>
      <trkpt lat="43.55724" lon="2.79915">
        <ele>967.8</ele>
        <time>2021-06-30T15:03:19.000+02:00</time>
      </trkpt>
      <trkpt lat="43.55724" lon="2.79916">
        <ele>967.8</ele>
        <time>2021-06-30T15:03:20.000+02:00</time>
      </trkpt>
      <trkpt lat="43.55724" lon="2.79917">
        <ele>967.8</ele>
        <time>2021-06-30T15:03:21.000+02:00</time>
      </trkpt>
      <trkpt lat="43.55725" lon="2.79917">
        <ele>967.9</ele>
        <time>2021-06-30T15:03:22.000+02:00</time>
      </trkpt>
      <trkpt lat="43.55725" lon="2.79918">
        <ele>967.9</ele>
        <time>2021-06-30T15:03:23.000+02:00</time>
      </trkpt>
      <trkpt lat="43.55725" lon="2.7992">
        <ele>968</ele>
        <time>2021-06-30T15:03:24.000+02:00</time>
      </trkpt>
      <trkpt lat="43.55726" lon="2.7992">
        <ele>968</ele>
        <time>2021-06-30T15:03:25.000+02:00</time>
      </trkpt>
      <trkpt lat="43.55726" lon="2.79921">
        <ele>968.1</ele>
        <time>2021-06-30T15:03:26.000+02:00</time>
      </trkpt>
      <trkpt lat="43.55727" lon="2.79922">
        <ele>968.1</ele>
        <time>2021-06-30T15:03:27.000+02:00</time>
      </trkpt>
      <trkpt lat="43.55727" lon="2.79923">
        <ele>968.2</ele>
        <time>2021-06-30T15:03:28.000+02:00</time>
      </trkpt>
      <trkpt lat="43.55728" lon="2.79924">
        <ele>968.2</ele>
        <time>2021-06-30T15:03:29.000+02:00</time>
      </trkpt>
      <trkpt lat="43.5573" lon="2.79926">
        <ele>968.2</ele>
        <time>2021-06-30T15:03:30.000+02:00</time>
      </trkpt>
      <trkpt lat="43.55731" lon="2.79927">
        <ele>968.2</ele>
        <time>2021-06-30T15:03:31.000+02:00</time>
      </trkpt>
      <trkpt lat="43.55733" lon="2.79929">
        <ele>968.2</ele>
        <time>2021-06-30T15:03:32.000+02:00</time>
      </trkpt>
      <trkpt lat="43.55734" lon="2.79931">
        <ele>968.3</ele>
        <time>2021-06-30T15:03:33.000+02:00</time>
      </trkpt>
      <trkpt lat="43.55735" lon="2.79932">
        <ele>968.3</ele>
        <time>2021-06-30T15:03:34.000+02:00</time>
      </trkpt>
      <trkpt lat="43.55736" lon="2.79933">
        <ele>968.3</ele>
        <time>2021-06-30T15:03:35.000+02:00</time>
      </trkpt>
      <trkpt lat="43.55736" lon="2.79934">
        <ele>968.4</ele>
        <time>2021-06-30T15:03:36.000+02:00</time>
      </trkpt>
      <trkpt lat="43.55736" lon="2.79935">
        <ele>968.5</ele>
        <time>2021-06-30T15:03:37.000+02:00</time>
      </trkpt>
      <trkpt lat="43.55737" lon="2.79936">
        <ele>968.5</ele>
        <time>2021-06-30T15:03:38.000+02:00</time>
      </trkpt>
      <trkpt lat="43.55737" lon="2.79937">
        <ele>968.5</ele>
        <time>2021-06-30T15:03:39.000+02:00</time>
      </trkpt>
      <trkpt lat="43.55738" lon="2.79938">
        <ele>968.5</ele>
        <time>2021-06-30T15:03:40.000+02:00</time>
      </trkpt>
      <trkpt lat="43.55739" lon="2.7994">
        <ele>968.5</ele>
        <time>2021-06-30T15:03:41.000+02:00</time>
      </trkpt>
      <trkpt lat="43.5574" lon="2.79941">
        <ele>968.6</ele>
        <time>2021-06-30T15:03:42.000+02:00</time>
      </trkpt>
      <trkpt lat="43.5574" lon="2.79942">
        <ele>968.6</ele>
        <time>2021-06-30T15:03:43.000+02:00</time>
      </trkpt>
      <trkpt lat="43.55741" lon="2.79943">
        <ele>968.7</ele>
        <time>2021-06-30T15:03:44.000+02:00</time>
      </trkpt>
      <trkpt lat="43.55741" lon="2.79944">
        <ele>968.8</ele>
        <time>2021-06-30T15:03:45.000+02:00</time>
      </trkpt>
      <trkpt lat="43.55741" lon="2.79945">
        <ele>968.8</ele>
        <time>2021-06-30T15:03:46.000+02:00</time>
      </trkpt>
      <trkpt lat="43.55741" lon="2.79946">
        <ele>968.9</ele>
        <time>2021-06-30T15:03:47.000+02:00</time>
      </trkpt>
      <trkpt lat="43.55741" lon="2.79947">
        <ele>968.9</ele>
        <time>2021-06-30T15:03:48.000+02:00</time>
      </trkpt>
      <trkpt lat="43.55742" lon="2.79948">
        <ele>969</ele>
        <time>2021-06-30T15:03:49.000+02:00</time>
      </trkpt>
      <trkpt lat="43.55742" lon="2.79949">
        <ele>969</ele>
        <time>2021-06-30T15:03:50.000+02:00</time>
      </trkpt>
      <trkpt lat="43.55742" lon="2.79951">
        <ele>969.2</ele>
        <time>2021-06-30T15:03:51.000+02:00</time>
      </trkpt>
      <trkpt lat="43.55742" lon="2.79952">
        <ele>969.2</ele>
        <time>2021-06-30T15:03:52.000+02:00</time>
      </trkpt>
      <trkpt lat="43.55743" lon="2.79953">
        <ele>969.2</ele>
        <time>2021-06-30T15:03:53.000+02:00</time>
      </trkpt>
      <trkpt lat="43.55743" lon="2.79954">
        <ele>969.3</ele>
        <time>2021-06-30T15:03:54.000+02:00</time>
      </trkpt>
      <trkpt lat="43.55744" lon="2.79955">
        <ele>969.3</ele>
        <time>2021-06-30T15:03:55.000+02:00</time>
      </trkpt>
      <trkpt lat="43.55744" lon="2.79956">
        <ele>969.3</ele>
        <time>2021-06-30T15:03:56.000+02:00</time>
      </trkpt>
      <trkpt lat="43.55744" lon="2.79956">
        <ele>969.4</ele>
        <time>2021-06-30T15:03:57.000+02:00</time>
      </trkpt>
      <trkpt lat="43.55745" lon="2.79957">
        <ele>969.4</ele>
        <time>2021-06-30T15:03:58.000+02:00</time>
      </trkpt>
      <trkpt lat="43.55745" lon="2.79958">
        <ele>969.4</ele>
        <time>2021-06-30T15:03:59.000+02:00</time>
      </trkpt>
      <trkpt lat="43.55746" lon="2.79959">
        <ele>969.4</ele>
        <time>2021-06-30T15:04:00.000+02:00</time>
      </trkpt>
      <trkpt lat="43.55747" lon="2.7996">
        <ele>969.4</ele>
        <time>2021-06-30T15:04:01.000+02:00</time>
      </trkpt>
      <trkpt lat="43.55748" lon="2.79962">
        <ele>969.5</ele>
        <time>2021-06-30T15:04:02.000+02:00</time>
      </trkpt>
      <trkpt lat="43.55748" lon="2.79964">
        <ele>969.6</ele>
        <time>2021-06-30T15:04:03.000+02:00</time>
      </trkpt>
      <trkpt lat="43.55749" lon="2.79966">
        <ele>969.6</ele>
        <time>2021-06-30T15:04:04.000+02:00</time>
      </trkpt>
      <trkpt lat="43.5575" lon="2.79967">
        <ele>969.7</ele>
        <time>2021-06-30T15:04:05.000+02:00</time>
      </trkpt>
      <trkpt lat="43.55751" lon="2.79969">
        <ele>969.7</ele>
        <time>2021-06-30T15:04:06.000+02:00</time>
      </trkpt>
      <trkpt lat="43.55752" lon="2.7997">
        <ele>969.7</ele>
        <time>2021-06-30T15:04:07.000+02:00</time>
      </trkpt>
      <trkpt lat="43.55752" lon="2.79971">
        <ele>969.8</ele>
        <time>2021-06-30T15:04:08.000+02:00</time>
      </trkpt>
      <trkpt lat="43.55753" lon="2.79972">
        <ele>969.8</ele>
        <time>2021-06-30T15:04:09.000+02:00</time>
      </trkpt>
      <trkpt lat="43.55753" lon="2.79973">
        <ele>969.8</ele>
        <time>2021-06-30T15:04:10.000+02:00</time>
      </trkpt>
      <trkpt lat="43.55753" lon="2.79973">
        <ele>969.8</ele>
        <time>2021-06-30T15:04:11.000+02:00</time>
      </trkpt>
      <trkpt lat="43.55754" lon="2.79974">
        <ele>969.9</ele>
        <time>2021-06-30T15:04:12.000+02:00</time>
      </trkpt>
      <trkpt lat="43.55754" lon="2.79974">
        <ele>969.9</ele>
        <time>2021-06-30T15:04:13.000+02:00</time>
      </trkpt>
      <trkpt lat="43.55754" lon="2.79975">
        <ele>969.9</ele>
        <time>2021-06-30T15:04:14.000+02:00</time>
      </trkpt>
      <trkpt lat="43.55754" lon="2.79976">
        <ele>970</ele>
        <time>2021-06-30T15:04:15.000+02:00</time>
      </trkpt>
      <trkpt lat="43.55754" lon="2.79976">
        <ele>970</ele>
        <time>2021-06-30T15:04:16.000+02:00</time>
      </trkpt>
      <trkpt lat="43.55754" lon="2.79977">
        <ele>970.1</ele>
        <time>2021-06-30T15:04:17.000+02:00</time>
      </trkpt>
      <trkpt lat="43.55754" lon="2.79978">
        <ele>970.1</ele>
        <time>2021-06-30T15:04:18.000+02:00</time>
      </trkpt>
      <trkpt lat="43.55754" lon="2.79979">
        <ele>970.2</ele>
        <time>2021-06-30T15:04:19.000+02:00</time>
      </trkpt>
      <trkpt lat="43.55755" lon="2.7998">
        <ele>970.2</ele>
        <time>2021-06-30T15:04:20.000+02:00</time>
      </trkpt>
      <trkpt lat="43.55756" lon="2.79981">
        <ele>970.2</ele>
        <time>2021-06-30T15:04:21.000+02:00</time>
      </trkpt>
      <trkpt lat="43.55756" lon="2.79982">
        <ele>970.2</ele>
        <time>2021-06-30T15:04:22.000+02:00</time>
      </trkpt>
      <trkpt lat="43.55756" lon="2.79982">
        <ele>970.3</ele>
        <time>2021-06-30T15:04:23.000+02:00</time>
      </trkpt>
      <trkpt lat="43.55757" lon="2.79983">
        <ele>970.3</ele>
        <time>2021-06-30T15:04:24.000+02:00</time>
      </trkpt>
      <trkpt lat="43.55757" lon="2.79983">
        <ele>970.3</ele>
        <time>2021-06-30T15:04:25.000+02:00</time>
      </trkpt>
      <trkpt lat="43.55758" lon="2.79984">
        <ele>970.3</ele>
        <time>2021-06-30T15:04:26.000+02:00</time>
      </trkpt>
      <trkpt lat="43.55758" lon="2.79984">
        <ele>970.3</ele>
        <time>2021-06-30T15:04:27.000+02:00</time>
      </trkpt>
      <trkpt lat="43.55759" lon="2.79985">
        <ele>970.3</ele>
        <time>2021-06-30T15:04:28.000+02:00</time>
      </trkpt>
      <trkpt lat="43.55759" lon="2.79986">
        <ele>970.3</ele>
        <time>2021-06-30T15:04:29.000+02:00</time>
      </trkpt>
      <trkpt lat="43.55759" lon="2.79985">
        <ele>970.2</ele>
        <time>2021-06-30T15:04:30.000+02:00</time>
      </trkpt>
      <trkpt lat="43.5576" lon="2.79985">
        <ele>970.2</ele>
        <time>2021-06-30T15:04:31.000+02:00</time>
      </trkpt>
      <trkpt lat="43.5576" lon="2.79985">
        <ele>970.2</ele>
        <time>2021-06-30T15:04:32.000+02:00</time>
      </trkpt>
      <trkpt lat="43.5576" lon="2.79985">
        <ele>970.2</ele>
        <time>2021-06-30T15:04:33.000+02:00</time>
      </trkpt>
      <trkpt lat="43.5576" lon="2.79983">
        <ele>970</ele>
        <time>2021-06-30T15:04:34.000+02:00</time>
      </trkpt>
      <trkpt lat="43.55761" lon="2.79983">
        <ele>970</ele>
        <time>2021-06-30T15:04:35.000+02:00</time>
      </trkpt>
      <trkpt lat="43.55761" lon="2.79982">
        <ele>969.9</ele>
        <time>2021-06-30T15:04:36.000+02:00</time>
      </trkpt>
      <trkpt lat="43.55761" lon="2.79982">
        <ele>969.9</ele>
        <time>2021-06-30T15:04:37.000+02:00</time>
      </trkpt>
      <trkpt lat="43.5576" lon="2.79982">
        <ele>969.9</ele>
        <time>2021-06-30T15:04:38.000+02:00</time>
      </trkpt>
      <trkpt lat="43.5576" lon="2.79982">
        <ele>969.9</ele>
        <time>2021-06-30T15:04:39.000+02:00</time>
      </trkpt>
      <trkpt lat="43.5576" lon="2.79981">
        <ele>969.9</ele>
        <time>2021-06-30T15:04:40.000+02:00</time>
      </trkpt>
      <trkpt lat="43.55761" lon="2.79981">
        <ele>969.9</ele>
        <time>2021-06-30T15:04:41.000+02:00</time>
      </trkpt>
      <trkpt lat="43.55761" lon="2.79981">
        <ele>969.9</ele>
        <time>2021-06-30T15:04:42.000+02:00</time>
      </trkpt>
      <trkpt lat="43.55762" lon="2.7998">
        <ele>969.7</ele>
        <time>2021-06-30T15:04:43.000+02:00</time>
      </trkpt>
      <trkpt lat="43.55763" lon="2.7998">
        <ele>969.6</ele>
        <time>2021-06-30T15:04:44.000+02:00</time>
      </trkpt>
      <trkpt lat="43.55763" lon="2.7998">
        <ele>969.6</ele>
        <time>2021-06-30T15:04:45.000+02:00</time>
      </trkpt>
      <trkpt lat="43.55763" lon="2.7998">
        <ele>969.6</ele>
        <time>2021-06-30T15:04:46.000+02:00</time>
      </trkpt>
      <trkpt lat="43.55764" lon="2.7998">
        <ele>969.5</ele>
        <time>2021-06-30T15:04:47.000+02:00</time>
      </trkpt>
      <trkpt lat="43.55764" lon="2.79979">
        <ele>969.5</ele>
        <time>2021-06-30T15:04:48.000+02:00</time>
      </trkpt>
      <trkpt lat="43.55764" lon="2.79979">
        <ele>969.5</ele>
        <time>2021-06-30T15:04:49.000+02:00</time>
      </trkpt>
      <trkpt lat="43.55765" lon="2.79977">
        <ele>969.3</ele>
        <time>2021-06-30T15:04:50.000+02:00</time>
      </trkpt>
      <trkpt lat="43.55765" lon="2.79977">
        <ele>969.3</ele>
        <time>2021-06-30T15:04:51.000+02:00</time>
      </trkpt>
      <trkpt lat="43.55765" lon="2.79976">
        <ele>969.2</ele>
        <time>2021-06-30T15:04:52.000+02:00</time>
      </trkpt>
      <trkpt lat="43.55765" lon="2.79976">
        <ele>969.2</ele>
        <time>2021-06-30T15:04:53.000+02:00</time>
      </trkpt>
      <trkpt lat="43.55766" lon="2.79975">
        <ele>969.1</ele>
        <time>2021-06-30T15:04:54.000+02:00</time>
      </trkpt>
      <trkpt lat="43.55766" lon="2.79975">
        <ele>969.1</ele>
        <time>2021-06-30T15:04:55.000+02:00</time>
      </trkpt>
      <trkpt lat="43.55766" lon="2.79975">
        <ele>969.1</ele>
        <time>2021-06-30T15:04:56.000+02:00</time>
      </trkpt>
      <trkpt lat="43.55766" lon="2.79975">
        <ele>969.1</ele>
        <time>2021-06-30T15:04:57.000+02:00</time>
      </trkpt>
      <trkpt lat="43.55766" lon="2.79975">
        <ele>969.1</ele>
        <time>2021-06-30T15:04:58.000+02:00</time>
      </trkpt>
      <trkpt lat="43.55767" lon="2.79974">
        <ele>969</ele>
        <time>2021-06-30T15:04:59.000+02:00</time>
      </trkpt>
      <trkpt lat="43.55767" lon="2.79974">
        <ele>969</ele>
        <time>2021-06-30T15:05:00.000+02:00</time>
      </trkpt>
      <trkpt lat="43.55767" lon="2.79974">
        <ele>969</ele>
        <time>2021-06-30T15:05:01.000+02:00</time>
      </trkpt>
      <trkpt lat="43.55767" lon="2.79974">
        <ele>969</ele>
        <time>2021-06-30T15:05:02.000+02:00</time>
      </trkpt>
      <trkpt lat="43.55767" lon="2.79974">
        <ele>968.9</ele>
        <time>2021-06-30T15:05:03.000+02:00</time>
      </trkpt>
      <trkpt lat="43.55767" lon="2.79974">
        <ele>968.9</ele>
        <time>2021-06-30T15:05:04.000+02:00</time>
      </trkpt>
      <trkpt lat="43.55767" lon="2.79974">
        <ele>968.9</ele>
        <time>2021-06-30T15:05:05.000+02:00</time>
      </trkpt>
      <trkpt lat="43.55767" lon="2.79973">
        <ele>968.9</ele>
        <time>2021-06-30T15:05:06.000+02:00</time>
      </trkpt>
      <trkpt lat="43.55768" lon="2.79971">
        <ele>968.7</ele>
        <time>2021-06-30T15:05:07.000+02:00</time>
      </trkpt>
      <trkpt lat="43.55769" lon="2.79968">
        <ele>968.4</ele>
        <time>2021-06-30T15:05:08.000+02:00</time>
      </trkpt>
      <trkpt lat="43.55768" lon="2.79968">
        <ele>968.5</ele>
        <time>2021-06-30T15:05:09.000+02:00</time>
      </trkpt>
      <trkpt lat="43.55768" lon="2.79968">
        <ele>968.5</ele>
        <time>2021-06-30T15:05:10.000+02:00</time>
      </trkpt>
      <trkpt lat="43.55768" lon="2.79967">
        <ele>968.5</ele>
        <time>2021-06-30T15:05:11.000+02:00</time>
      </trkpt>
      <trkpt lat="43.55768" lon="2.79967">
        <ele>968.5</ele>
        <time>2021-06-30T15:05:12.000+02:00</time>
      </trkpt>
      <trkpt lat="43.55768" lon="2.79967">
        <ele>968.4</ele>
        <time>2021-06-30T15:05:13.000+02:00</time>
      </trkpt>
      <trkpt lat="43.55768" lon="2.79967">
        <ele>968.4</ele>
        <time>2021-06-30T15:05:14.000+02:00</time>
      </trkpt>
      <trkpt lat="43.55769" lon="2.79967">
        <ele>968.4</ele>
        <time>2021-06-30T15:05:15.000+02:00</time>
      </trkpt>
      <trkpt lat="43.55769" lon="2.79968">
        <ele>968.4</ele>
        <time>2021-06-30T15:05:16.000+02:00</time>
      </trkpt>
      <trkpt lat="43.5577" lon="2.79968">
        <ele>968.4</ele>
        <time>2021-06-30T15:05:17.000+02:00</time>
      </trkpt>
      <trkpt lat="43.5577" lon="2.79968">
        <ele>968.4</ele>
        <time>2021-06-30T15:05:18.000+02:00</time>
      </trkpt>
      <trkpt lat="43.5577" lon="2.79969">
        <ele>968.5</ele>
        <time>2021-06-30T15:05:19.000+02:00</time>
      </trkpt>
      <trkpt lat="43.55769" lon="2.7997">
        <ele>968.6</ele>
        <time>2021-06-30T15:05:20.000+02:00</time>
      </trkpt>
      <trkpt lat="43.55769" lon="2.79971">
        <ele>968.7</ele>
        <time>2021-06-30T15:05:21.000+02:00</time>
      </trkpt>
      <trkpt lat="43.55769" lon="2.79972">
        <ele>968.7</ele>
        <time>2021-06-30T15:05:22.000+02:00</time>
      </trkpt>
      <trkpt lat="43.55769" lon="2.79972">
        <ele>968.7</ele>
        <time>2021-06-30T15:05:23.000+02:00</time>
      </trkpt>
      <trkpt lat="43.55768" lon="2.79972">
        <ele>968.7</ele>
        <time>2021-06-30T15:05:24.000+02:00</time>
      </trkpt>
      <trkpt lat="43.55768" lon="2.79972">
        <ele>968.7</ele>
        <time>2021-06-30T15:05:25.000+02:00</time>
      </trkpt>
      <trkpt lat="43.55768" lon="2.79971">
        <ele>968.7</ele>
        <time>2021-06-30T15:05:26.000+02:00</time>
      </trkpt>
      <trkpt lat="43.55768" lon="2.79971">
        <ele>968.7</ele>
        <time>2021-06-30T15:05:27.000+02:00</time>
      </trkpt>
      <trkpt lat="43.55768" lon="2.79971">
        <ele>968.7</ele>
        <time>2021-06-30T15:05:28.000+02:00</time>
      </trkpt>
      <trkpt lat="43.55768" lon="2.79971">
        <ele>968.7</ele>
        <time>2021-06-30T15:05:29.000+02:00</time>
      </trkpt>
      <trkpt lat="43.55768" lon="2.79971">
        <ele>968.7</ele>
        <time>2021-06-30T15:05:30.000+02:00</time>
      </trkpt>
      <trkpt lat="43.55768" lon="2.79971">
        <ele>968.7</ele>
        <time>2021-06-30T15:05:31.000+02:00</time>
      </trkpt>
      <trkpt lat="43.55768" lon="2.79971">
        <ele>968.7</ele>
        <time>2021-06-30T15:05:32.000+02:00</time>
      </trkpt>
      <trkpt lat="43.55768" lon="2.79971">
        <ele>968.7</ele>
        <time>2021-06-30T15:05:33.000+02:00</time>
      </trkpt>
      <trkpt lat="43.55768" lon="2.79971">
        <ele>968.7</ele>
        <time>2021-06-30T15:05:34.000+02:00</time>
      </trkpt>
      <trkpt lat="43.55768" lon="2.79971">
        <ele>968.7</ele>
        <time>2021-06-30T15:05:35.000+02:00</time>
      </trkpt>
      <trkpt lat="43.55768" lon="2.79971">
        <ele>968.7</ele>
        <time>2021-06-30T15:05:36.000+02:00</time>
      </trkpt>
      <trkpt lat="43.55768" lon="2.79971">
        <ele>968.7</ele>
        <time>2021-06-30T15:05:37.000+02:00</time>
      </trkpt>
      <trkpt lat="43.55768" lon="2.79971">
        <ele>968.7</ele>
        <time>2021-06-30T15:05:38.000+02:00</time>
      </trkpt>
      <trkpt lat="43.55768" lon="2.79971">
        <ele>968.7</ele>
        <time>2021-06-30T15:05:39.000+02:00</time>
      </trkpt>
      <trkpt lat="43.55768" lon="2.79971">
        <ele>968.7</ele>
        <time>2021-06-30T15:05:40.000+02:00</time>
      </trkpt>
      <trkpt lat="43.55768" lon="2.79971">
        <ele>968.7</ele>
        <time>2021-06-30T15:05:41.000+02:00</time>
      </trkpt>
      <trkpt lat="43.55768" lon="2.79971">
        <ele>968.7</ele>
        <time>2021-06-30T15:05:42.000+02:00</time>
      </trkpt>
      <trkpt lat="43.55768" lon="2.79971">
        <ele>968.7</ele>
        <time>2021-06-30T15:05:43.000+02:00</time>
      </trkpt>
      <trkpt lat="43.55768" lon="2.7997">
        <ele>968.7</ele>
        <time>2021-06-30T15:05:44.000+02:00</time>
      </trkpt>
      <trkpt lat="43.55768" lon="2.7997">
        <ele>968.7</ele>
        <time>2021-06-30T15:05:45.000+02:00</time>
      </trkpt>
      <trkpt lat="43.55768" lon="2.7997">
        <ele>968.7</ele>
        <time>2021-06-30T15:05:46.000+02:00</time>
      </trkpt>
      <trkpt lat="43.55768" lon="2.7997">
        <ele>968.7</ele>
        <time>2021-06-30T15:05:47.000+02:00</time>
      </trkpt>
      <trkpt lat="43.55768" lon="2.7997">
        <ele>968.7</ele>
        <time>2021-06-30T15:05:48.000+02:00</time>
      </trkpt>
      <trkpt lat="43.55768" lon="2.7997">
        <ele>968.7</ele>
        <time>2021-06-30T15:05:49.000+02:00</time>
      </trkpt>
      <trkpt lat="43.55768" lon="2.7997">
        <ele>968.7</ele>
        <time>2021-06-30T15:05:50.000+02:00</time>
      </trkpt>
      <trkpt lat="43.55768" lon="2.7997">
        <ele>968.7</ele>
        <time>2021-06-30T15:05:51.000+02:00</time>
      </trkpt>
      <trkpt lat="43.55768" lon="2.7997">
        <ele>968.6</ele>
        <time>2021-06-30T15:05:52.000+02:00</time>
      </trkpt>
      <trkpt lat="43.55767" lon="2.7997">
        <ele>968.6</ele>
        <time>2021-06-30T15:05:53.000+02:00</time>
      </trkpt>
      <trkpt lat="43.55767" lon="2.7997">
        <ele>968.6</ele>
        <time>2021-06-30T15:05:54.000+02:00</time>
      </trkpt>
      <trkpt lat="43.55767" lon="2.79969">
        <ele>968.6</ele>
        <time>2021-06-30T15:05:55.000+02:00</time>
      </trkpt>
      <trkpt lat="43.55767" lon="2.79969">
        <ele>968.6</ele>
        <time>2021-06-30T15:05:56.000+02:00</time>
      </trkpt>
      <trkpt lat="43.55767" lon="2.79969">
        <ele>968.6</ele>
        <time>2021-06-30T15:05:57.000+02:00</time>
      </trkpt>
      <trkpt lat="43.55767" lon="2.79969">
        <ele>968.6</ele>
        <time>2021-06-30T15:05:58.000+02:00</time>
      </trkpt>
      <trkpt lat="43.55767" lon="2.79969">
        <ele>968.6</ele>
        <time>2021-06-30T15:05:59.000+02:00</time>
      </trkpt>
      <trkpt lat="43.55767" lon="2.79969">
        <ele>968.6</ele>
        <time>2021-06-30T15:06:00.000+02:00</time>
      </trkpt>
      <trkpt lat="43.55767" lon="2.79969">
        <ele>968.6</ele>
        <time>2021-06-30T15:06:01.000+02:00</time>
      </trkpt>
      <trkpt lat="43.55767" lon="2.79969">
        <ele>968.6</ele>
        <time>2021-06-30T15:06:02.000+02:00</time>
      </trkpt>
      <trkpt lat="43.55767" lon="2.79969">
        <ele>968.6</ele>
        <time>2021-06-30T15:06:03.000+02:00</time>
      </trkpt>
      <trkpt lat="43.55767" lon="2.79969">
        <ele>968.7</ele>
        <time>2021-06-30T15:06:04.000+02:00</time>
      </trkpt>
      <trkpt lat="43.55767" lon="2.79969">
        <ele>968.7</ele>
        <time>2021-06-30T15:06:05.000+02:00</time>
      </trkpt>
      <trkpt lat="43.55767" lon="2.79969">
        <ele>968.7</ele>
        <time>2021-06-30T15:06:06.000+02:00</time>
      </trkpt>
      <trkpt lat="43.55767" lon="2.79969">
        <ele>968.7</ele>
        <time>2021-06-30T15:06:07.000+02:00</time>
      </trkpt>
      <trkpt lat="43.55767" lon="2.79969">
        <ele>968.6</ele>
        <time>2021-06-30T15:06:08.000+02:00</time>
      </trkpt>
      <trkpt lat="43.55767" lon="2.79969">
        <ele>968.6</ele>
        <time>2021-06-30T15:06:09.000+02:00</time>
      </trkpt>
      <trkpt lat="43.55767" lon="2.79969">
        <ele>968.7</ele>
        <time>2021-06-30T15:06:10.000+02:00</time>
      </trkpt>
      <trkpt lat="43.55767" lon="2.79969">
        <ele>968.7</ele>
        <time>2021-06-30T15:06:11.000+02:00</time>
      </trkpt>
      <trkpt lat="43.55767" lon="2.79969">
        <ele>968.7</ele>
        <time>2021-06-30T15:06:12.000+02:00</time>
      </trkpt>
      <trkpt lat="43.55767" lon="2.79969">
        <ele>968.7</ele>
        <time>2021-06-30T15:06:13.000+02:00</time>
      </trkpt>
      <trkpt lat="43.55767" lon="2.79969">
        <ele>968.7</ele>
        <time>2021-06-30T15:06:14.000+02:00</time>
      </trkpt>
      <trkpt lat="43.55767" lon="2.79968">
        <ele>968.6</ele>
        <time>2021-06-30T15:06:15.000+02:00</time>
      </trkpt>
      <trkpt lat="43.55767" lon="2.79968">
        <ele>968.6</ele>
        <time>2021-06-30T15:06:16.000+02:00</time>
      </trkpt>
      <trkpt lat="43.55766" lon="2.79968">
        <ele>968.6</ele>
        <time>2021-06-30T15:06:17.000+02:00</time>
      </trkpt>
      <trkpt lat="43.55766" lon="2.79967">
        <ele>968.6</ele>
        <time>2021-06-30T15:06:18.000+02:00</time>
      </trkpt>
      <trkpt lat="43.55766" lon="2.79967">
        <ele>968.6</ele>
        <time>2021-06-30T15:06:19.000+02:00</time>
      </trkpt>
      <trkpt lat="43.55766" lon="2.79967">
        <ele>968.5</ele>
        <time>2021-06-30T15:06:20.000+02:00</time>
      </trkpt>
      <trkpt lat="43.55766" lon="2.79967">
        <ele>968.5</ele>
        <time>2021-06-30T15:06:21.000+02:00</time>
      </trkpt>
      <trkpt lat="43.55767" lon="2.79967">
        <ele>968.5</ele>
        <time>2021-06-30T15:06:22.000+02:00</time>
      </trkpt>
      <trkpt lat="43.55767" lon="2.79967">
        <ele>968.5</ele>
        <time>2021-06-30T15:06:23.000+02:00</time>
      </trkpt>
      <trkpt lat="43.55767" lon="2.79967">
        <ele>968.5</ele>
        <time>2021-06-30T15:06:24.000+02:00</time>
      </trkpt>
      <trkpt lat="43.55767" lon="2.79967">
        <ele>968.5</ele>
        <time>2021-06-30T15:06:25.000+02:00</time>
      </trkpt>
      <trkpt lat="43.55767" lon="2.79967">
        <ele>968.5</ele>
        <time>2021-06-30T15:06:26.000+02:00</time>
      </trkpt>
      <trkpt lat="43.55767" lon="2.79967">
        <ele>968.5</ele>
        <time>2021-06-30T15:06:27.000+02:00</time>
      </trkpt>
      <trkpt lat="43.55767" lon="2.79967">
        <ele>968.5</ele>
        <time>2021-06-30T15:06:28.000+02:00</time>
      </trkpt>
      <trkpt lat="43.55767" lon="2.79968">
        <ele>968.5</ele>
        <time>2021-06-30T15:06:29.000+02:00</time>
      </trkpt>
      <trkpt lat="43.55767" lon="2.79968">
        <ele>968.5</ele>
        <time>2021-06-30T15:06:30.000+02:00</time>
      </trkpt>
      <trkpt lat="43.55767" lon="2.79968">
        <ele>968.6</ele>
        <time>2021-06-30T15:06:31.000+02:00</time>
      </trkpt>
      <trkpt lat="43.55768" lon="2.79968">
        <ele>968.6</ele>
        <time>2021-06-30T15:06:32.000+02:00</time>
      </trkpt>
      <trkpt lat="43.55768" lon="2.79968">
        <ele>968.5</ele>
        <time>2021-06-30T15:06:33.000+02:00</time>
      </trkpt>
      <trkpt lat="43.55767" lon="2.79968">
        <ele>968.6</ele>
        <time>2021-06-30T15:06:34.000+02:00</time>
      </trkpt>
      <trkpt lat="43.55767" lon="2.79967">
        <ele>968.5</ele>
        <time>2021-06-30T15:06:35.000+02:00</time>
      </trkpt>
      <trkpt lat="43.55767" lon="2.79967">
        <ele>968.5</ele>
        <time>2021-06-30T15:06:36.000+02:00</time>
      </trkpt>
      <trkpt lat="43.55767" lon="2.79967">
        <ele>968.5</ele>
        <time>2021-06-30T15:06:37.000+02:00</time>
      </trkpt>
      <trkpt lat="43.55767" lon="2.79967">
        <ele>968.5</ele>
        <time>2021-06-30T15:06:38.000+02:00</time>
      </trkpt>
      <trkpt lat="43.55767" lon="2.79967">
        <ele>968.5</ele>
        <time>2021-06-30T15:06:39.000+02:00</time>
      </trkpt>
      <trkpt lat="43.55767" lon="2.79967">
        <ele>968.5</ele>
        <time>2021-06-30T15:06:40.000+02:00</time>
      </trkpt>
      <trkpt lat="43.55767" lon="2.79967">
        <ele>968.5</ele>
        <time>2021-06-30T15:06:41.000+02:00</time>
      </trkpt>
      <trkpt lat="43.55767" lon="2.79967">
        <ele>968.5</ele>
        <time>2021-06-30T15:06:42.000+02:00</time>
      </trkpt>
      <trkpt lat="43.55767" lon="2.79968">
        <ele>968.5</ele>
        <time>2021-06-30T15:06:43.000+02:00</time>
      </trkpt>
      <trkpt lat="43.55767" lon="2.79968">
        <ele>968.6</ele>
        <time>2021-06-30T15:06:44.000+02:00</time>
      </trkpt>
      <trkpt lat="43.55767" lon="2.79968">
        <ele>968.6</ele>
        <time>2021-06-30T15:06:45.000+02:00</time>
      </trkpt>
      <trkpt lat="43.55767" lon="2.79968">
        <ele>968.6</ele>
        <time>2021-06-30T15:06:46.000+02:00</time>
      </trkpt>
      <trkpt lat="43.55767" lon="2.79968">
        <ele>968.6</ele>
        <time>2021-06-30T15:06:47.000+02:00</time>
      </trkpt>
      <trkpt lat="43.55767" lon="2.79968">
        <ele>968.6</ele>
        <time>2021-06-30T15:06:48.000+02:00</time>
      </trkpt>
      <trkpt lat="43.55767" lon="2.79968">
        <ele>968.6</ele>
        <time>2021-06-30T15:06:49.000+02:00</time>
      </trkpt>
      <trkpt lat="43.55767" lon="2.79968">
        <ele>968.6</ele>
        <time>2021-06-30T15:06:50.000+02:00</time>
      </trkpt>
      <trkpt lat="43.55767" lon="2.79968">
        <ele>968.6</ele>
        <time>2021-06-30T15:06:51.000+02:00</time>
      </trkpt>
      <trkpt lat="43.55767" lon="2.79968">
        <ele>968.6</ele>
        <time>2021-06-30T15:06:52.000+02:00</time>
      </trkpt>
      <trkpt lat="43.55767" lon="2.79968">
        <ele>968.6</ele>
        <time>2021-06-30T15:06:53.000+02:00</time>
      </trkpt>
      <trkpt lat="43.55767" lon="2.79968">
        <ele>968.6</ele>
        <time>2021-06-30T15:06:54.000+02:00</time>
      </trkpt>
      <trkpt lat="43.55767" lon="2.79968">
        <ele>968.6</ele>
        <time>2021-06-30T15:06:55.000+02:00</time>
      </trkpt>
      <trkpt lat="43.55767" lon="2.79968">
        <ele>968.6</ele>
        <time>2021-06-30T15:06:56.000+02:00</time>
      </trkpt>
      <trkpt lat="43.55767" lon="2.79968">
        <ele>968.6</ele>
        <time>2021-06-30T15:06:57.000+02:00</time>
      </trkpt>
      <trkpt lat="43.55767" lon="2.79968">
        <ele>968.6</ele>
        <time>2021-06-30T15:06:58.000+02:00</time>
      </trkpt>
      <trkpt lat="43.55767" lon="2.79968">
        <ele>968.6</ele>
        <time>2021-06-30T15:06:59.000+02:00</time>
      </trkpt>
      <trkpt lat="43.55767" lon="2.79968">
        <ele>968.6</ele>
        <time>2021-06-30T15:07:00.000+02:00</time>
      </trkpt>
      <trkpt lat="43.55767" lon="2.79968">
        <ele>968.6</ele>
        <time>2021-06-30T15:07:01.000+02:00</time>
      </trkpt>
      <trkpt lat="43.55767" lon="2.79968">
        <ele>968.6</ele>
        <time>2021-06-30T15:07:02.000+02:00</time>
      </trkpt>
      <trkpt lat="43.55767" lon="2.79968">
        <ele>968.6</ele>
        <time>2021-06-30T15:07:03.000+02:00</time>
      </trkpt>
      <trkpt lat="43.55767" lon="2.79968">
        <ele>968.6</ele>
        <time>2021-06-30T15:07:04.000+02:00</time>
      </trkpt>
      <trkpt lat="43.55767" lon="2.79968">
        <ele>968.6</ele>
        <time>2021-06-30T15:07:05.000+02:00</time>
      </trkpt>
      <trkpt lat="43.55767" lon="2.79968">
        <ele>968.6</ele>
        <time>2021-06-30T15:07:06.000+02:00</time>
      </trkpt>
      <trkpt lat="43.55766" lon="2.79968">
        <ele>968.6</ele>
        <time>2021-06-30T15:07:07.000+02:00</time>
      </trkpt>
      <trkpt lat="43.55766" lon="2.79968">
        <ele>968.6</ele>
        <time>2021-06-30T15:07:08.000+02:00</time>
      </trkpt>
      <trkpt lat="43.55766" lon="2.79968">
        <ele>968.6</ele>
        <time>2021-06-30T15:07:09.000+02:00</time>
      </trkpt>
      <trkpt lat="43.55766" lon="2.79968">
        <ele>968.6</ele>
        <time>2021-06-30T15:07:10.000+02:00</time>
      </trkpt>
      <trkpt lat="43.55766" lon="2.79968">
        <ele>968.6</ele>
        <time>2021-06-30T15:07:11.000+02:00</time>
      </trkpt>
      <trkpt lat="43.55766" lon="2.79968">
        <ele>968.6</ele>
        <time>2021-06-30T15:07:12.000+02:00</time>
      </trkpt>
      <trkpt lat="43.55766" lon="2.79968">
        <ele>968.6</ele>
        <time>2021-06-30T15:07:13.000+02:00</time>
      </trkpt>
      <trkpt lat="43.55766" lon="2.79968">
        <ele>968.6</ele>
        <time>2021-06-30T15:07:14.000+02:00</time>
      </trkpt>
      <trkpt lat="43.55766" lon="2.79969">
        <ele>968.7</ele>
        <time>2021-06-30T15:07:15.000+02:00</time>
      </trkpt>
      <trkpt lat="43.55766" lon="2.79969">
        <ele>968.7</ele>
        <time>2021-06-30T15:07:16.000+02:00</time>
      </trkpt>
      <trkpt lat="43.55766" lon="2.79969">
        <ele>968.7</ele>
        <time>2021-06-30T15:07:17.000+02:00</time>
      </trkpt>
      <trkpt lat="43.55766" lon="2.79969">
        <ele>968.7</ele>
        <time>2021-06-30T15:07:18.000+02:00</time>
      </trkpt>
      <trkpt lat="43.55766" lon="2.79969">
        <ele>968.7</ele>
        <time>2021-06-30T15:07:19.000+02:00</time>
      </trkpt>
      <trkpt lat="43.55766" lon="2.79969">
        <ele>968.7</ele>
        <time>2021-06-30T15:07:20.000+02:00</time>
      </trkpt>
      <trkpt lat="43.55766" lon="2.79969">
        <ele>968.7</ele>
        <time>2021-06-30T15:07:21.000+02:00</time>
      </trkpt>
      <trkpt lat="43.55766" lon="2.79969">
        <ele>968.7</ele>
        <time>2021-06-30T15:07:22.000+02:00</time>
      </trkpt>
      <trkpt lat="43.55766" lon="2.7997">
        <ele>968.7</ele>
        <time>2021-06-30T15:07:23.000+02:00</time>
      </trkpt>
      <trkpt lat="43.55766" lon="2.7997">
        <ele>968.7</ele>
        <time>2021-06-30T15:07:24.000+02:00</time>
      </trkpt>
      <trkpt lat="43.55766" lon="2.7997">
        <ele>968.8</ele>
        <time>2021-06-30T15:07:25.000+02:00</time>
      </trkpt>
      <trkpt lat="43.55766" lon="2.7997">
        <ele>968.8</ele>
        <time>2021-06-30T15:07:26.000+02:00</time>
      </trkpt>
      <trkpt lat="43.55766" lon="2.7997">
        <ele>968.8</ele>
        <time>2021-06-30T15:07:27.000+02:00</time>
      </trkpt>
      <trkpt lat="43.55766" lon="2.7997">
        <ele>968.8</ele>
        <time>2021-06-30T15:07:28.000+02:00</time>
      </trkpt>
      <trkpt lat="43.55766" lon="2.7997">
        <ele>968.8</ele>
        <time>2021-06-30T15:07:29.000+02:00</time>
      </trkpt>
      <trkpt lat="43.55766" lon="2.7997">
        <ele>968.8</ele>
        <time>2021-06-30T15:07:30.000+02:00</time>
      </trkpt>
      <trkpt lat="43.55766" lon="2.7997">
        <ele>968.8</ele>
        <time>2021-06-30T15:07:31.000+02:00</time>
      </trkpt>
      <trkpt lat="43.55766" lon="2.7997">
        <ele>968.8</ele>
        <time>2021-06-30T15:07:32.000+02:00</time>
      </trkpt>
      <trkpt lat="43.55766" lon="2.7997">
        <ele>968.8</ele>
        <time>2021-06-30T15:07:33.000+02:00</time>
      </trkpt>
      <trkpt lat="43.55766" lon="2.7997">
        <ele>968.8</ele>
        <time>2021-06-30T15:07:34.000+02:00</time>
      </trkpt>
      <trkpt lat="43.55766" lon="2.7997">
        <ele>968.8</ele>
        <time>2021-06-30T15:07:35.000+02:00</time>
      </trkpt>
      <trkpt lat="43.55766" lon="2.7997">
        <ele>968.8</ele>
        <time>2021-06-30T15:07:36.000+02:00</time>
      </trkpt>
      <trkpt lat="43.55766" lon="2.7997">
        <ele>968.8</ele>
        <time>2021-06-30T15:07:37.000+02:00</time>
      </trkpt>
      <trkpt lat="43.55766" lon="2.7997">
        <ele>968.8</ele>
        <time>2021-06-30T15:07:38.000+02:00</time>
      </trkpt>
      <trkpt lat="43.55766" lon="2.7997">
        <ele>968.8</ele>
        <time>2021-06-30T15:07:39.000+02:00</time>
      </trkpt>
      <trkpt lat="43.55766" lon="2.7997">
        <ele>968.8</ele>
        <time>2021-06-30T15:07:40.000+02:00</time>
      </trkpt>
      <trkpt lat="43.55766" lon="2.7997">
        <ele>968.8</ele>
        <time>2021-06-30T15:07:41.000+02:00</time>
      </trkpt>
      <trkpt lat="43.55766" lon="2.7997">
        <ele>968.8</ele>
        <time>2021-06-30T15:07:42.000+02:00</time>
      </trkpt>
      <trkpt lat="43.55766" lon="2.7997">
        <ele>968.8</ele>
        <time>2021-06-30T15:07:43.000+02:00</time>
      </trkpt>
      <trkpt lat="43.55766" lon="2.79971">
        <ele>968.8</ele>
        <time>2021-06-30T15:07:44.000+02:00</time>
      </trkpt>
      <trkpt lat="43.55766" lon="2.79971">
        <ele>968.8</ele>
        <time>2021-06-30T15:07:45.000+02:00</time>
      </trkpt>
      <trkpt lat="43.55766" lon="2.7997">
        <ele>968.8</ele>
        <time>2021-06-30T15:07:46.000+02:00</time>
      </trkpt>
      <trkpt lat="43.55766" lon="2.7997">
        <ele>968.8</ele>
        <time>2021-06-30T15:07:47.000+02:00</time>
      </trkpt>
      <trkpt lat="43.55766" lon="2.7997">
        <ele>968.8</ele>
        <time>2021-06-30T15:07:48.000+02:00</time>
      </trkpt>
      <trkpt lat="43.55766" lon="2.7997">
        <ele>968.8</ele>
        <time>2021-06-30T15:07:49.000+02:00</time>
      </trkpt>
      <trkpt lat="43.55766" lon="2.7997">
        <ele>968.8</ele>
        <time>2021-06-30T15:07:50.000+02:00</time>
      </trkpt>
      <trkpt lat="43.55766" lon="2.7997">
        <ele>968.8</ele>
        <time>2021-06-30T15:07:51.000+02:00</time>
      </trkpt>
      <trkpt lat="43.55765" lon="2.7997">
        <ele>968.8</ele>
        <time>2021-06-30T15:07:52.000+02:00</time>
      </trkpt>
      <trkpt lat="43.55765" lon="2.7997">
        <ele>968.9</ele>
        <time>2021-06-30T15:07:53.000+02:00</time>
      </trkpt>
      <trkpt lat="43.55764" lon="2.79971">
        <ele>968.9</ele>
        <time>2021-06-30T15:07:54.000+02:00</time>
      </trkpt>
      <trkpt lat="43.55763" lon="2.79971">
        <ele>969</ele>
        <time>2021-06-30T15:07:55.000+02:00</time>
      </trkpt>
      <trkpt lat="43.55763" lon="2.79972">
        <ele>969.1</ele>
        <time>2021-06-30T15:07:56.000+02:00</time>
      </trkpt>
      <trkpt lat="43.55761" lon="2.79973">
        <ele>969.3</ele>
        <time>2021-06-30T15:07:57.000+02:00</time>
      </trkpt>
      <trkpt lat="43.55761" lon="2.79973">
        <ele>969.3</ele>
        <time>2021-06-30T15:07:58.000+02:00</time>
      </trkpt>
      <trkpt lat="43.55761" lon="2.79975">
        <ele>969.4</ele>
        <time>2021-06-30T15:07:59.000+02:00</time>
      </trkpt>
      <trkpt lat="43.55761" lon="2.79975">
        <ele>969.4</ele>
        <time>2021-06-30T15:08:00.000+02:00</time>
      </trkpt>
      <trkpt lat="43.55761" lon="2.79975">
        <ele>969.5</ele>
        <time>2021-06-30T15:08:01.000+02:00</time>
      </trkpt>
      <trkpt lat="43.55761" lon="2.79975">
        <ele>969.4</ele>
        <time>2021-06-30T15:08:02.000+02:00</time>
      </trkpt>
      <trkpt lat="43.55761" lon="2.79975">
        <ele>969.4</ele>
        <time>2021-06-30T15:08:03.000+02:00</time>
      </trkpt>
      <trkpt lat="43.55761" lon="2.79975">
        <ele>969.5</ele>
        <time>2021-06-30T15:08:04.000+02:00</time>
      </trkpt>
      <trkpt lat="43.55761" lon="2.79975">
        <ele>969.5</ele>
        <time>2021-06-30T15:08:05.000+02:00</time>
      </trkpt>
      <trkpt lat="43.5576" lon="2.79976">
        <ele>969.5</ele>
        <time>2021-06-30T15:08:06.000+02:00</time>
      </trkpt>
      <trkpt lat="43.5576" lon="2.79976">
        <ele>969.6</ele>
        <time>2021-06-30T15:08:07.000+02:00</time>
      </trkpt>
      <trkpt lat="43.5576" lon="2.79976">
        <ele>969.6</ele>
        <time>2021-06-30T15:08:08.000+02:00</time>
      </trkpt>
      <trkpt lat="43.5576" lon="2.79978">
        <ele>969.7</ele>
        <time>2021-06-30T15:08:09.000+02:00</time>
      </trkpt>
      <trkpt lat="43.55759" lon="2.79979">
        <ele>969.8</ele>
        <time>2021-06-30T15:08:10.000+02:00</time>
      </trkpt>
      <trkpt lat="43.55758" lon="2.79979">
        <ele>969.9</ele>
        <time>2021-06-30T15:08:11.000+02:00</time>
      </trkpt>
      <trkpt lat="43.55757" lon="2.7998">
        <ele>970</ele>
        <time>2021-06-30T15:08:12.000+02:00</time>
      </trkpt>
      <trkpt lat="43.55757" lon="2.79981">
        <ele>970.1</ele>
        <time>2021-06-30T15:08:13.000+02:00</time>
      </trkpt>
      <trkpt lat="43.55758" lon="2.79982">
        <ele>970.1</ele>
        <time>2021-06-30T15:08:14.000+02:00</time>
      </trkpt>
      <trkpt lat="43.55758" lon="2.79983">
        <ele>970.2</ele>
        <time>2021-06-30T15:08:15.000+02:00</time>
      </trkpt>
      <trkpt lat="43.55757" lon="2.79984">
        <ele>970.3</ele>
        <time>2021-06-30T15:08:16.000+02:00</time>
      </trkpt>
      <trkpt lat="43.55758" lon="2.79985">
        <ele>970.3</ele>
        <time>2021-06-30T15:08:17.000+02:00</time>
      </trkpt>
      <trkpt lat="43.55758" lon="2.79987">
        <ele>970.4</ele>
        <time>2021-06-30T15:08:18.000+02:00</time>
      </trkpt>
      <trkpt lat="43.55759" lon="2.79989">
        <ele>970.5</ele>
        <time>2021-06-30T15:08:19.000+02:00</time>
      </trkpt>
      <trkpt lat="43.55759" lon="2.7999">
        <ele>970.5</ele>
        <time>2021-06-30T15:08:20.000+02:00</time>
      </trkpt>
      <trkpt lat="43.5576" lon="2.7999">
        <ele>970.5</ele>
        <time>2021-06-30T15:08:21.000+02:00</time>
      </trkpt>
      <trkpt lat="43.55761" lon="2.79992">
        <ele>970.6</ele>
        <time>2021-06-30T15:08:22.000+02:00</time>
      </trkpt>
      <trkpt lat="43.55761" lon="2.79993">
        <ele>970.6</ele>
        <time>2021-06-30T15:08:23.000+02:00</time>
      </trkpt>
      <trkpt lat="43.55761" lon="2.79994">
        <ele>970.7</ele>
        <time>2021-06-30T15:08:24.000+02:00</time>
      </trkpt>
      <trkpt lat="43.55761" lon="2.79994">
        <ele>970.7</ele>
        <time>2021-06-30T15:08:25.000+02:00</time>
      </trkpt>
      <trkpt lat="43.55761" lon="2.79995">
        <ele>970.8</ele>
        <time>2021-06-30T15:08:26.000+02:00</time>
      </trkpt>
      <trkpt lat="43.55761" lon="2.79997">
        <ele>970.9</ele>
        <time>2021-06-30T15:08:27.000+02:00</time>
      </trkpt>
      <trkpt lat="43.55761" lon="2.79998">
        <ele>971</ele>
        <time>2021-06-30T15:08:28.000+02:00</time>
      </trkpt>
      <trkpt lat="43.55761" lon="2.79999">
        <ele>971</ele>
        <time>2021-06-30T15:08:29.000+02:00</time>
      </trkpt>
      <trkpt lat="43.55761" lon="2.8">
        <ele>971.1</ele>
        <time>2021-06-30T15:08:30.000+02:00</time>
      </trkpt>
      <trkpt lat="43.55761" lon="2.80001">
        <ele>971.1</ele>
        <time>2021-06-30T15:08:31.000+02:00</time>
      </trkpt>
      <trkpt lat="43.55761" lon="2.80002">
        <ele>971.2</ele>
        <time>2021-06-30T15:08:32.000+02:00</time>
      </trkpt>
      <trkpt lat="43.55761" lon="2.80003">
        <ele>971.3</ele>
        <time>2021-06-30T15:08:33.000+02:00</time>
      </trkpt>
      <trkpt lat="43.55761" lon="2.80005">
        <ele>971.3</ele>
        <time>2021-06-30T15:08:34.000+02:00</time>
      </trkpt>
      <trkpt lat="43.55761" lon="2.80006">
        <ele>971.4</ele>
        <time>2021-06-30T15:08:35.000+02:00</time>
      </trkpt>
      <trkpt lat="43.55761" lon="2.80007">
        <ele>971.5</ele>
        <time>2021-06-30T15:08:36.000+02:00</time>
      </trkpt>
      <trkpt lat="43.55761" lon="2.80008">
        <ele>971.5</ele>
        <time>2021-06-30T15:08:37.000+02:00</time>
      </trkpt>
      <trkpt lat="43.55761" lon="2.80009">
        <ele>971.6</ele>
        <time>2021-06-30T15:08:38.000+02:00</time>
      </trkpt>
      <trkpt lat="43.55761" lon="2.80011">
        <ele>971.7</ele>
        <time>2021-06-30T15:08:39.000+02:00</time>
      </trkpt>
      <trkpt lat="43.5576" lon="2.80012">
        <ele>971.9</ele>
        <time>2021-06-30T15:08:40.000+02:00</time>
      </trkpt>
      <trkpt lat="43.5576" lon="2.80012">
        <ele>971.9</ele>
        <time>2021-06-30T15:08:41.000+02:00</time>
      </trkpt>
      <trkpt lat="43.55759" lon="2.80013">
        <ele>972</ele>
        <time>2021-06-30T15:08:42.000+02:00</time>
      </trkpt>
      <trkpt lat="43.55759" lon="2.80014">
        <ele>972.1</ele>
        <time>2021-06-30T15:08:43.000+02:00</time>
      </trkpt>
      <trkpt lat="43.55759" lon="2.80014">
        <ele>972.1</ele>
        <time>2021-06-30T15:08:44.000+02:00</time>
      </trkpt>
      <trkpt lat="43.55758" lon="2.80015">
        <ele>972.2</ele>
        <time>2021-06-30T15:08:45.000+02:00</time>
      </trkpt>
      <trkpt lat="43.55758" lon="2.80015">
        <ele>972.2</ele>
        <time>2021-06-30T15:08:46.000+02:00</time>
      </trkpt>
      <trkpt lat="43.55759" lon="2.80015">
        <ele>972.2</ele>
        <time>2021-06-30T15:08:47.000+02:00</time>
      </trkpt>
      <trkpt lat="43.55759" lon="2.80015">
        <ele>972.2</ele>
        <time>2021-06-30T15:08:48.000+02:00</time>
      </trkpt>
      <trkpt lat="43.55759" lon="2.80016">
        <ele>972.2</ele>
        <time>2021-06-30T15:08:49.000+02:00</time>
      </trkpt>
      <trkpt lat="43.55758" lon="2.80016">
        <ele>972.3</ele>
        <time>2021-06-30T15:08:50.000+02:00</time>
      </trkpt>
      <trkpt lat="43.55758" lon="2.80016">
        <ele>972.3</ele>
        <time>2021-06-30T15:08:51.000+02:00</time>
      </trkpt>
      <trkpt lat="43.55758" lon="2.80017">
        <ele>972.3</ele>
        <time>2021-06-30T15:08:52.000+02:00</time>
      </trkpt>
      <trkpt lat="43.55758" lon="2.80017">
        <ele>972.3</ele>
        <time>2021-06-30T15:08:53.000+02:00</time>
      </trkpt>
      <trkpt lat="43.55758" lon="2.80018">
        <ele>972.4</ele>
        <time>2021-06-30T15:08:54.000+02:00</time>
      </trkpt>
      <trkpt lat="43.55758" lon="2.80019">
        <ele>972.5</ele>
        <time>2021-06-30T15:08:55.000+02:00</time>
      </trkpt>
      <trkpt lat="43.55758" lon="2.8002">
        <ele>972.5</ele>
        <time>2021-06-30T15:08:56.000+02:00</time>
      </trkpt>
      <trkpt lat="43.55758" lon="2.8002">
        <ele>972.5</ele>
        <time>2021-06-30T15:08:57.000+02:00</time>
      </trkpt>
      <trkpt lat="43.55758" lon="2.80022">
        <ele>972.6</ele>
        <time>2021-06-30T15:08:58.000+02:00</time>
      </trkpt>
      <trkpt lat="43.55759" lon="2.80025">
        <ele>972.7</ele>
        <time>2021-06-30T15:08:59.000+02:00</time>
      </trkpt>
      <trkpt lat="43.55759" lon="2.80026">
        <ele>972.8</ele>
        <time>2021-06-30T15:09:00.000+02:00</time>
      </trkpt>
      <trkpt lat="43.5576" lon="2.80028">
        <ele>972.9</ele>
        <time>2021-06-30T15:09:01.000+02:00</time>
      </trkpt>
      <trkpt lat="43.5576" lon="2.8003">
        <ele>973</ele>
        <time>2021-06-30T15:09:02.000+02:00</time>
      </trkpt>
      <trkpt lat="43.5576" lon="2.80031">
        <ele>973</ele>
        <time>2021-06-30T15:09:03.000+02:00</time>
      </trkpt>
      <trkpt lat="43.5576" lon="2.80032">
        <ele>973.1</ele>
        <time>2021-06-30T15:09:04.000+02:00</time>
      </trkpt>
      <trkpt lat="43.55761" lon="2.80033">
        <ele>973.1</ele>
        <time>2021-06-30T15:09:05.000+02:00</time>
      </trkpt>
      <trkpt lat="43.55761" lon="2.80035">
        <ele>973.1</ele>
        <time>2021-06-30T15:09:06.000+02:00</time>
      </trkpt>
      <trkpt lat="43.55761" lon="2.80035">
        <ele>973.2</ele>
        <time>2021-06-30T15:09:07.000+02:00</time>
      </trkpt>
      <trkpt lat="43.55761" lon="2.80035">
        <ele>973.2</ele>
        <time>2021-06-30T15:09:08.000+02:00</time>
      </trkpt>
      <trkpt lat="43.55761" lon="2.80035">
        <ele>973.2</ele>
        <time>2021-06-30T15:09:09.000+02:00</time>
      </trkpt>
      <trkpt lat="43.55762" lon="2.80036">
        <ele>973.1</ele>
        <time>2021-06-30T15:09:10.000+02:00</time>
      </trkpt>
      <trkpt lat="43.55763" lon="2.80036">
        <ele>973.1</ele>
        <time>2021-06-30T15:09:11.000+02:00</time>
      </trkpt>
      <trkpt lat="43.55763" lon="2.80037">
        <ele>973.1</ele>
        <time>2021-06-30T15:09:12.000+02:00</time>
      </trkpt>
      <trkpt lat="43.55764" lon="2.80037">
        <ele>973.1</ele>
        <time>2021-06-30T15:09:13.000+02:00</time>
      </trkpt>
      <trkpt lat="43.55764" lon="2.80037">
        <ele>973.1</ele>
        <time>2021-06-30T15:09:14.000+02:00</time>
      </trkpt>
      <trkpt lat="43.55764" lon="2.80038">
        <ele>973.1</ele>
        <time>2021-06-30T15:09:15.000+02:00</time>
      </trkpt>
      <trkpt lat="43.55765" lon="2.80038">
        <ele>973.1</ele>
        <time>2021-06-30T15:09:16.000+02:00</time>
      </trkpt>
      <trkpt lat="43.55764" lon="2.80039">
        <ele>973.1</ele>
        <time>2021-06-30T15:09:17.000+02:00</time>
      </trkpt>
      <trkpt lat="43.55764" lon="2.80039">
        <ele>973.1</ele>
        <time>2021-06-30T15:09:18.000+02:00</time>
      </trkpt>
      <trkpt lat="43.55764" lon="2.80039">
        <ele>973.1</ele>
        <time>2021-06-30T15:09:19.000+02:00</time>
      </trkpt>
      <trkpt lat="43.55764" lon="2.80039">
        <ele>973.1</ele>
        <time>2021-06-30T15:09:20.000+02:00</time>
      </trkpt>
      <trkpt lat="43.55764" lon="2.80039">
        <ele>973.1</ele>
        <time>2021-06-30T15:09:21.000+02:00</time>
      </trkpt>
      <trkpt lat="43.55765" lon="2.80039">
        <ele>973.2</ele>
        <time>2021-06-30T15:09:22.000+02:00</time>
      </trkpt>
      <trkpt lat="43.55764" lon="2.8004">
        <ele>973.2</ele>
        <time>2021-06-30T15:09:23.000+02:00</time>
      </trkpt>
      <trkpt lat="43.55764" lon="2.8004">
        <ele>973.2</ele>
        <time>2021-06-30T15:09:24.000+02:00</time>
      </trkpt>
      <trkpt lat="43.55764" lon="2.8004">
        <ele>973.3</ele>
        <time>2021-06-30T15:09:25.000+02:00</time>
      </trkpt>
      <trkpt lat="43.55763" lon="2.80041">
        <ele>973.3</ele>
        <time>2021-06-30T15:09:26.000+02:00</time>
      </trkpt>
      <trkpt lat="43.55764" lon="2.80041">
        <ele>973.3</ele>
        <time>2021-06-30T15:09:27.000+02:00</time>
      </trkpt>
      <trkpt lat="43.55764" lon="2.80041">
        <ele>973.3</ele>
        <time>2021-06-30T15:09:28.000+02:00</time>
      </trkpt>
      <trkpt lat="43.55763" lon="2.80042">
        <ele>973.4</ele>
        <time>2021-06-30T15:09:29.000+02:00</time>
      </trkpt>
      <trkpt lat="43.55764" lon="2.80044">
        <ele>973.5</ele>
        <time>2021-06-30T15:09:30.000+02:00</time>
      </trkpt>
      <trkpt lat="43.55764" lon="2.80044">
        <ele>973.5</ele>
        <time>2021-06-30T15:09:31.000+02:00</time>
      </trkpt>
      <trkpt lat="43.55765" lon="2.80046">
        <ele>973.5</ele>
        <time>2021-06-30T15:09:32.000+02:00</time>
      </trkpt>
      <trkpt lat="43.55765" lon="2.80047">
        <ele>973.6</ele>
        <time>2021-06-30T15:09:33.000+02:00</time>
      </trkpt>
      <trkpt lat="43.55766" lon="2.80049">
        <ele>973.6</ele>
        <time>2021-06-30T15:09:34.000+02:00</time>
      </trkpt>
      <trkpt lat="43.55765" lon="2.80051">
        <ele>973.8</ele>
        <time>2021-06-30T15:09:35.000+02:00</time>
      </trkpt>
      <trkpt lat="43.55765" lon="2.80053">
        <ele>973.9</ele>
        <time>2021-06-30T15:09:36.000+02:00</time>
      </trkpt>
      <trkpt lat="43.55764" lon="2.80054">
        <ele>974.1</ele>
        <time>2021-06-30T15:09:37.000+02:00</time>
      </trkpt>
      <trkpt lat="43.55764" lon="2.80056">
        <ele>974.2</ele>
        <time>2021-06-30T15:09:38.000+02:00</time>
      </trkpt>
      <trkpt lat="43.55764" lon="2.80058">
        <ele>974.3</ele>
        <time>2021-06-30T15:09:39.000+02:00</time>
      </trkpt>
      <trkpt lat="43.55764" lon="2.80058">
        <ele>974.3</ele>
        <time>2021-06-30T15:09:40.000+02:00</time>
      </trkpt>
      <trkpt lat="43.55764" lon="2.80059">
        <ele>974.4</ele>
        <time>2021-06-30T15:09:41.000+02:00</time>
      </trkpt>
      <trkpt lat="43.55764" lon="2.8006">
        <ele>974.4</ele>
        <time>2021-06-30T15:09:42.000+02:00</time>
      </trkpt>
      <trkpt lat="43.55764" lon="2.8006">
        <ele>974.4</ele>
        <time>2021-06-30T15:09:43.000+02:00</time>
      </trkpt>
      <trkpt lat="43.55764" lon="2.8006">
        <ele>974.4</ele>
        <time>2021-06-30T15:09:44.000+02:00</time>
      </trkpt>
      <trkpt lat="43.55764" lon="2.8006">
        <ele>974.5</ele>
        <time>2021-06-30T15:09:45.000+02:00</time>
      </trkpt>
      <trkpt lat="43.55764" lon="2.80063">
        <ele>974.6</ele>
        <time>2021-06-30T15:09:46.000+02:00</time>
      </trkpt>
      <trkpt lat="43.55764" lon="2.80064">
        <ele>974.6</ele>
        <time>2021-06-30T15:09:47.000+02:00</time>
      </trkpt>
      <trkpt lat="43.55765" lon="2.80067">
        <ele>974.7</ele>
        <time>2021-06-30T15:09:48.000+02:00</time>
      </trkpt>
      <trkpt lat="43.55766" lon="2.80069">
        <ele>974.8</ele>
        <time>2021-06-30T15:09:49.000+02:00</time>
      </trkpt>
      <trkpt lat="43.55767" lon="2.80072">
        <ele>974.9</ele>
        <time>2021-06-30T15:09:50.000+02:00</time>
      </trkpt>
      <trkpt lat="43.55767" lon="2.80074">
        <ele>975</ele>
        <time>2021-06-30T15:09:51.000+02:00</time>
      </trkpt>
      <trkpt lat="43.55767" lon="2.80076">
        <ele>975.1</ele>
        <time>2021-06-30T15:09:52.000+02:00</time>
      </trkpt>
      <trkpt lat="43.55768" lon="2.80077">
        <ele>975.2</ele>
        <time>2021-06-30T15:09:53.000+02:00</time>
      </trkpt>
      <trkpt lat="43.55769" lon="2.80079">
        <ele>975.2</ele>
        <time>2021-06-30T15:09:54.000+02:00</time>
      </trkpt>
      <trkpt lat="43.55769" lon="2.80081">
        <ele>975.2</ele>
        <time>2021-06-30T15:09:55.000+02:00</time>
      </trkpt>
      <trkpt lat="43.55771" lon="2.80084">
        <ele>975.3</ele>
        <time>2021-06-30T15:09:56.000+02:00</time>
      </trkpt>
      <trkpt lat="43.55772" lon="2.80085">
        <ele>975.3</ele>
        <time>2021-06-30T15:09:57.000+02:00</time>
      </trkpt>
      <trkpt lat="43.55773" lon="2.80088">
        <ele>975.4</ele>
        <time>2021-06-30T15:09:58.000+02:00</time>
      </trkpt>
      <trkpt lat="43.55774" lon="2.8009">
        <ele>975.5</ele>
        <time>2021-06-30T15:09:59.000+02:00</time>
      </trkpt>
      <trkpt lat="43.55775" lon="2.80093">
        <ele>975.7</ele>
        <time>2021-06-30T15:10:00.000+02:00</time>
      </trkpt>
      <trkpt lat="43.55776" lon="2.80095">
        <ele>975.7</ele>
        <time>2021-06-30T15:10:01.000+02:00</time>
      </trkpt>
      <trkpt lat="43.55776" lon="2.80096">
        <ele>975.8</ele>
        <time>2021-06-30T15:10:02.000+02:00</time>
      </trkpt>
      <trkpt lat="43.55776" lon="2.80097">
        <ele>975.9</ele>
        <time>2021-06-30T15:10:03.000+02:00</time>
      </trkpt>
      <trkpt lat="43.55777" lon="2.80099">
        <ele>976</ele>
        <time>2021-06-30T15:10:04.000+02:00</time>
      </trkpt>
      <trkpt lat="43.55778" lon="2.80102">
        <ele>976.1</ele>
        <time>2021-06-30T15:10:05.000+02:00</time>
      </trkpt>
      <trkpt lat="43.55778" lon="2.80103">
        <ele>976.3</ele>
        <time>2021-06-30T15:10:06.000+02:00</time>
      </trkpt>
      <trkpt lat="43.55778" lon="2.80104">
        <ele>976.3</ele>
        <time>2021-06-30T15:10:07.000+02:00</time>
      </trkpt>
      <trkpt lat="43.55778" lon="2.80105">
        <ele>976.4</ele>
        <time>2021-06-30T15:10:08.000+02:00</time>
      </trkpt>
      <trkpt lat="43.55779" lon="2.80107">
        <ele>976.5</ele>
        <time>2021-06-30T15:10:09.000+02:00</time>
      </trkpt>
      <trkpt lat="43.55779" lon="2.80108">
        <ele>976.6</ele>
        <time>2021-06-30T15:10:10.000+02:00</time>
      </trkpt>
      <trkpt lat="43.5578" lon="2.8011">
        <ele>976.7</ele>
        <time>2021-06-30T15:10:11.000+02:00</time>
      </trkpt>
      <trkpt lat="43.55781" lon="2.80113">
        <ele>976.8</ele>
        <time>2021-06-30T15:10:12.000+02:00</time>
      </trkpt>
      <trkpt lat="43.55781" lon="2.80114">
        <ele>976.8</ele>
        <time>2021-06-30T15:10:13.000+02:00</time>
      </trkpt>
      <trkpt lat="43.55782" lon="2.80114">
        <ele>976.8</ele>
        <time>2021-06-30T15:10:14.000+02:00</time>
      </trkpt>
      <trkpt lat="43.55782" lon="2.80115">
        <ele>976.9</ele>
        <time>2021-06-30T15:10:15.000+02:00</time>
      </trkpt>
      <trkpt lat="43.55782" lon="2.80116">
        <ele>976.9</ele>
        <time>2021-06-30T15:10:16.000+02:00</time>
      </trkpt>
      <trkpt lat="43.55783" lon="2.80117">
        <ele>977</ele>
        <time>2021-06-30T15:10:17.000+02:00</time>
      </trkpt>
      <trkpt lat="43.55783" lon="2.80118">
        <ele>977.1</ele>
        <time>2021-06-30T15:10:18.000+02:00</time>
      </trkpt>
      <trkpt lat="43.55784" lon="2.80119">
        <ele>977.1</ele>
        <time>2021-06-30T15:10:19.000+02:00</time>
      </trkpt>
      <trkpt lat="43.55785" lon="2.8012">
        <ele>977.1</ele>
        <time>2021-06-30T15:10:20.000+02:00</time>
      </trkpt>
      <trkpt lat="43.55785" lon="2.8012">
        <ele>977.1</ele>
        <time>2021-06-30T15:10:21.000+02:00</time>
      </trkpt>
      <trkpt lat="43.55786" lon="2.80121">
        <ele>977.1</ele>
        <time>2021-06-30T15:10:22.000+02:00</time>
      </trkpt>
      <trkpt lat="43.55786" lon="2.80122">
        <ele>977.2</ele>
        <time>2021-06-30T15:10:23.000+02:00</time>
      </trkpt>
      <trkpt lat="43.55786" lon="2.80123">
        <ele>977.2</ele>
        <time>2021-06-30T15:10:24.000+02:00</time>
      </trkpt>
      <trkpt lat="43.55787" lon="2.80125">
        <ele>977.3</ele>
        <time>2021-06-30T15:10:25.000+02:00</time>
      </trkpt>
      <trkpt lat="43.55788" lon="2.80127">
        <ele>977.4</ele>
        <time>2021-06-30T15:10:26.000+02:00</time>
      </trkpt>
      <trkpt lat="43.55789" lon="2.8013">
        <ele>977.6</ele>
        <time>2021-06-30T15:10:27.000+02:00</time>
      </trkpt>
      <trkpt lat="43.55789" lon="2.80132">
        <ele>977.8</ele>
        <time>2021-06-30T15:10:28.000+02:00</time>
      </trkpt>
      <trkpt lat="43.5579" lon="2.80134">
        <ele>977.8</ele>
        <time>2021-06-30T15:10:29.000+02:00</time>
      </trkpt>
      <trkpt lat="43.55791" lon="2.80136">
        <ele>977.9</ele>
        <time>2021-06-30T15:10:30.000+02:00</time>
      </trkpt>
      <trkpt lat="43.55791" lon="2.80137">
        <ele>978.1</ele>
        <time>2021-06-30T15:10:31.000+02:00</time>
      </trkpt>
      <trkpt lat="43.55791" lon="2.80139">
        <ele>978.2</ele>
        <time>2021-06-30T15:10:32.000+02:00</time>
      </trkpt>
      <trkpt lat="43.55792" lon="2.80141">
        <ele>978.3</ele>
        <time>2021-06-30T15:10:33.000+02:00</time>
      </trkpt>
      <trkpt lat="43.55792" lon="2.80142">
        <ele>978.4</ele>
        <time>2021-06-30T15:10:34.000+02:00</time>
      </trkpt>
      <trkpt lat="43.55792" lon="2.80143">
        <ele>978.4</ele>
        <time>2021-06-30T15:10:35.000+02:00</time>
      </trkpt>
      <trkpt lat="43.55793" lon="2.80144">
        <ele>978.5</ele>
        <time>2021-06-30T15:10:36.000+02:00</time>
      </trkpt>
      <trkpt lat="43.55794" lon="2.80146">
        <ele>978.6</ele>
        <time>2021-06-30T15:10:37.000+02:00</time>
      </trkpt>
      <trkpt lat="43.55795" lon="2.80147">
        <ele>978.7</ele>
        <time>2021-06-30T15:10:38.000+02:00</time>
      </trkpt>
      <trkpt lat="43.55795" lon="2.80149">
        <ele>978.7</ele>
        <time>2021-06-30T15:10:39.000+02:00</time>
      </trkpt>
      <trkpt lat="43.55795" lon="2.80149">
        <ele>978.8</ele>
        <time>2021-06-30T15:10:40.000+02:00</time>
      </trkpt>
      <trkpt lat="43.55795" lon="2.8015">
        <ele>978.9</ele>
        <time>2021-06-30T15:10:41.000+02:00</time>
      </trkpt>
      <trkpt lat="43.55797" lon="2.80153">
        <ele>979</ele>
        <time>2021-06-30T15:10:42.000+02:00</time>
      </trkpt>
      <trkpt lat="43.55797" lon="2.80153">
        <ele>979</ele>
        <time>2021-06-30T15:10:43.000+02:00</time>
      </trkpt>
      <trkpt lat="43.55797" lon="2.80154">
        <ele>979.1</ele>
        <time>2021-06-30T15:10:44.000+02:00</time>
      </trkpt>
      <trkpt lat="43.55798" lon="2.80156">
        <ele>979.2</ele>
        <time>2021-06-30T15:10:45.000+02:00</time>
      </trkpt>
      <trkpt lat="43.55798" lon="2.80158">
        <ele>979.4</ele>
        <time>2021-06-30T15:10:46.000+02:00</time>
      </trkpt>
      <trkpt lat="43.55798" lon="2.80159">
        <ele>979.4</ele>
        <time>2021-06-30T15:10:47.000+02:00</time>
      </trkpt>
      <trkpt lat="43.55799" lon="2.8016">
        <ele>979.5</ele>
        <time>2021-06-30T15:10:48.000+02:00</time>
      </trkpt>
      <trkpt lat="43.55799" lon="2.80161">
        <ele>979.5</ele>
        <time>2021-06-30T15:10:49.000+02:00</time>
      </trkpt>
      <trkpt lat="43.558" lon="2.80162">
        <ele>979.6</ele>
        <time>2021-06-30T15:10:50.000+02:00</time>
      </trkpt>
      <trkpt lat="43.55801" lon="2.80164">
        <ele>979.7</ele>
        <time>2021-06-30T15:10:51.000+02:00</time>
      </trkpt>
      <trkpt lat="43.55801" lon="2.80165">
        <ele>979.7</ele>
        <time>2021-06-30T15:10:52.000+02:00</time>
      </trkpt>
      <trkpt lat="43.55802" lon="2.80166">
        <ele>979.8</ele>
        <time>2021-06-30T15:10:53.000+02:00</time>
      </trkpt>
      <trkpt lat="43.55803" lon="2.80167">
        <ele>979.8</ele>
        <time>2021-06-30T15:10:54.000+02:00</time>
      </trkpt>
      <trkpt lat="43.55803" lon="2.80167">
        <ele>979.9</ele>
        <time>2021-06-30T15:10:55.000+02:00</time>
      </trkpt>
      <trkpt lat="43.55803" lon="2.80168">
        <ele>979.9</ele>
        <time>2021-06-30T15:10:56.000+02:00</time>
      </trkpt>
      <trkpt lat="43.55804" lon="2.80168">
        <ele>979.9</ele>
        <time>2021-06-30T15:10:57.000+02:00</time>
      </trkpt>
      <trkpt lat="43.55805" lon="2.8017">
        <ele>979.9</ele>
        <time>2021-06-30T15:10:58.000+02:00</time>
      </trkpt>
      <trkpt lat="43.55806" lon="2.80171">
        <ele>980</ele>
        <time>2021-06-30T15:10:59.000+02:00</time>
      </trkpt>
      <trkpt lat="43.55806" lon="2.80172">
        <ele>980</ele>
        <time>2021-06-30T15:11:00.000+02:00</time>
      </trkpt>
      <trkpt lat="43.55807" lon="2.80173">
        <ele>980</ele>
        <time>2021-06-30T15:11:01.000+02:00</time>
      </trkpt>
      <trkpt lat="43.55808" lon="2.80174">
        <ele>980.1</ele>
        <time>2021-06-30T15:11:02.000+02:00</time>
      </trkpt>
      <trkpt lat="43.55808" lon="2.80175">
        <ele>980.1</ele>
        <time>2021-06-30T15:11:03.000+02:00</time>
      </trkpt>
      <trkpt lat="43.55808" lon="2.80176">
        <ele>980.2</ele>
        <time>2021-06-30T15:11:04.000+02:00</time>
      </trkpt>
      <trkpt lat="43.55808" lon="2.80177">
        <ele>980.3</ele>
        <time>2021-06-30T15:11:05.000+02:00</time>
      </trkpt>
      <trkpt lat="43.55809" lon="2.80179">
        <ele>980.4</ele>
        <time>2021-06-30T15:11:06.000+02:00</time>
      </trkpt>
      <trkpt lat="43.55809" lon="2.8018">
        <ele>980.5</ele>
        <time>2021-06-30T15:11:07.000+02:00</time>
      </trkpt>
      <trkpt lat="43.55809" lon="2.80181">
        <ele>980.6</ele>
        <time>2021-06-30T15:11:08.000+02:00</time>
      </trkpt>
      <trkpt lat="43.55809" lon="2.80182">
        <ele>980.6</ele>
        <time>2021-06-30T15:11:09.000+02:00</time>
      </trkpt>
      <trkpt lat="43.55809" lon="2.80183">
        <ele>980.7</ele>
        <time>2021-06-30T15:11:10.000+02:00</time>
      </trkpt>
      <trkpt lat="43.55809" lon="2.80184">
        <ele>980.8</ele>
        <time>2021-06-30T15:11:11.000+02:00</time>
      </trkpt>
      <trkpt lat="43.55809" lon="2.80184">
        <ele>980.8</ele>
        <time>2021-06-30T15:11:12.000+02:00</time>
      </trkpt>
      <trkpt lat="43.55809" lon="2.80184">
        <ele>980.8</ele>
        <time>2021-06-30T15:11:13.000+02:00</time>
      </trkpt>
      <trkpt lat="43.5581" lon="2.80185">
        <ele>980.8</ele>
        <time>2021-06-30T15:11:14.000+02:00</time>
      </trkpt>
      <trkpt lat="43.55811" lon="2.80185">
        <ele>980.8</ele>
        <time>2021-06-30T15:11:15.000+02:00</time>
      </trkpt>
      <trkpt lat="43.55811" lon="2.80185">
        <ele>980.8</ele>
        <time>2021-06-30T15:11:16.000+02:00</time>
      </trkpt>
      <trkpt lat="43.55812" lon="2.80186">
        <ele>980.8</ele>
        <time>2021-06-30T15:11:17.000+02:00</time>
      </trkpt>
      <trkpt lat="43.55813" lon="2.80188">
        <ele>980.9</ele>
        <time>2021-06-30T15:11:18.000+02:00</time>
      </trkpt>
      <trkpt lat="43.55813" lon="2.8019">
        <ele>981</ele>
        <time>2021-06-30T15:11:19.000+02:00</time>
      </trkpt>
      <trkpt lat="43.55814" lon="2.80192">
        <ele>981.1</ele>
        <time>2021-06-30T15:11:20.000+02:00</time>
      </trkpt>
      <trkpt lat="43.55814" lon="2.80192">
        <ele>981.2</ele>
        <time>2021-06-30T15:11:21.000+02:00</time>
      </trkpt>
      <trkpt lat="43.55815" lon="2.80193">
        <ele>981.2</ele>
        <time>2021-06-30T15:11:22.000+02:00</time>
      </trkpt>
      <trkpt lat="43.55815" lon="2.80195">
        <ele>981.3</ele>
        <time>2021-06-30T15:11:23.000+02:00</time>
      </trkpt>
      <trkpt lat="43.55815" lon="2.80196">
        <ele>981.4</ele>
        <time>2021-06-30T15:11:24.000+02:00</time>
      </trkpt>
      <trkpt lat="43.55815" lon="2.80197">
        <ele>981.5</ele>
        <time>2021-06-30T15:11:25.000+02:00</time>
      </trkpt>
      <trkpt lat="43.55815" lon="2.80197">
        <ele>981.5</ele>
        <time>2021-06-30T15:11:26.000+02:00</time>
      </trkpt>
      <trkpt lat="43.55816" lon="2.80199">
        <ele>981.6</ele>
        <time>2021-06-30T15:11:27.000+02:00</time>
      </trkpt>
      <trkpt lat="43.55817" lon="2.80201">
        <ele>981.7</ele>
        <time>2021-06-30T15:11:28.000+02:00</time>
      </trkpt>
      <trkpt lat="43.55819" lon="2.80203">
        <ele>981.8</ele>
        <time>2021-06-30T15:11:29.000+02:00</time>
      </trkpt>
      <trkpt lat="43.5582" lon="2.80206">
        <ele>981.9</ele>
        <time>2021-06-30T15:11:30.000+02:00</time>
      </trkpt>
      <trkpt lat="43.55821" lon="2.80207">
        <ele>982</ele>
        <time>2021-06-30T15:11:31.000+02:00</time>
      </trkpt>
      <trkpt lat="43.55822" lon="2.80208">
        <ele>982.1</ele>
        <time>2021-06-30T15:11:32.000+02:00</time>
      </trkpt>
      <trkpt lat="43.55823" lon="2.8021">
        <ele>982.1</ele>
        <time>2021-06-30T15:11:33.000+02:00</time>
      </trkpt>
      <trkpt lat="43.55823" lon="2.80211">
        <ele>982.2</ele>
        <time>2021-06-30T15:11:34.000+02:00</time>
      </trkpt>
      <trkpt lat="43.55824" lon="2.80212">
        <ele>982.2</ele>
        <time>2021-06-30T15:11:35.000+02:00</time>
      </trkpt>
      <trkpt lat="43.55824" lon="2.80212">
        <ele>982.3</ele>
        <time>2021-06-30T15:11:36.000+02:00</time>
      </trkpt>
      <trkpt lat="43.55824" lon="2.80213">
        <ele>982.3</ele>
        <time>2021-06-30T15:11:37.000+02:00</time>
      </trkpt>
      <trkpt lat="43.55826" lon="2.80213">
        <ele>982.2</ele>
        <time>2021-06-30T15:11:38.000+02:00</time>
      </trkpt>
      <trkpt lat="43.55826" lon="2.80214">
        <ele>982.3</ele>
        <time>2021-06-30T15:11:39.000+02:00</time>
      </trkpt>
      <trkpt lat="43.55827" lon="2.80213">
        <ele>982.2</ele>
        <time>2021-06-30T15:11:40.000+02:00</time>
      </trkpt>
      <trkpt lat="43.55828" lon="2.80214">
        <ele>982.2</ele>
        <time>2021-06-30T15:11:41.000+02:00</time>
      </trkpt>
      <trkpt lat="43.55828" lon="2.80214">
        <ele>982.2</ele>
        <time>2021-06-30T15:11:42.000+02:00</time>
      </trkpt>
      <trkpt lat="43.55828" lon="2.80214">
        <ele>982.2</ele>
        <time>2021-06-30T15:11:43.000+02:00</time>
      </trkpt>
      <trkpt lat="43.55828" lon="2.80213">
        <ele>982.2</ele>
        <time>2021-06-30T15:11:44.000+02:00</time>
      </trkpt>
      <trkpt lat="43.55828" lon="2.80213">
        <ele>982.2</ele>
        <time>2021-06-30T15:11:45.000+02:00</time>
      </trkpt>
      <trkpt lat="43.55829" lon="2.80213">
        <ele>982.1</ele>
        <time>2021-06-30T15:11:46.000+02:00</time>
      </trkpt>
      <trkpt lat="43.55829" lon="2.80214">
        <ele>982.1</ele>
        <time>2021-06-30T15:11:47.000+02:00</time>
      </trkpt>
      <trkpt lat="43.55829" lon="2.80214">
        <ele>982.2</ele>
        <time>2021-06-30T15:11:48.000+02:00</time>
      </trkpt>
      <trkpt lat="43.55829" lon="2.80214">
        <ele>982.2</ele>
        <time>2021-06-30T15:11:49.000+02:00</time>
      </trkpt>
      <trkpt lat="43.55829" lon="2.80214">
        <ele>982.2</ele>
        <time>2021-06-30T15:11:50.000+02:00</time>
      </trkpt>
      <trkpt lat="43.55829" lon="2.80214">
        <ele>982.2</ele>
        <time>2021-06-30T15:11:51.000+02:00</time>
      </trkpt>
      <trkpt lat="43.55829" lon="2.80214">
        <ele>982.2</ele>
        <time>2021-06-30T15:11:52.000+02:00</time>
      </trkpt>
      <trkpt lat="43.55829" lon="2.80214">
        <ele>982.2</ele>
        <time>2021-06-30T15:11:53.000+02:00</time>
      </trkpt>
      <trkpt lat="43.55829" lon="2.80215">
        <ele>982.2</ele>
        <time>2021-06-30T15:11:54.000+02:00</time>
      </trkpt>
      <trkpt lat="43.55829" lon="2.80215">
        <ele>982.3</ele>
        <time>2021-06-30T15:11:55.000+02:00</time>
      </trkpt>
      <trkpt lat="43.55828" lon="2.80215">
        <ele>982.3</ele>
        <time>2021-06-30T15:11:56.000+02:00</time>
      </trkpt>
      <trkpt lat="43.55828" lon="2.80215">
        <ele>982.3</ele>
        <time>2021-06-30T15:11:57.000+02:00</time>
      </trkpt>
      <trkpt lat="43.55828" lon="2.80215">
        <ele>982.3</ele>
        <time>2021-06-30T15:11:58.000+02:00</time>
      </trkpt>
      <trkpt lat="43.55828" lon="2.80214">
        <ele>982.3</ele>
        <time>2021-06-30T15:11:59.000+02:00</time>
      </trkpt>
      <trkpt lat="43.55828" lon="2.80214">
        <ele>982.3</ele>
        <time>2021-06-30T15:12:00.000+02:00</time>
      </trkpt>
      <trkpt lat="43.55827" lon="2.80214">
        <ele>982.3</ele>
        <time>2021-06-30T15:12:01.000+02:00</time>
      </trkpt>
      <trkpt lat="43.55827" lon="2.80214">
        <ele>982.3</ele>
        <time>2021-06-30T15:12:02.000+02:00</time>
      </trkpt>
      <trkpt lat="43.55828" lon="2.80214">
        <ele>982.2</ele>
        <time>2021-06-30T15:12:03.000+02:00</time>
      </trkpt>
      <trkpt lat="43.55828" lon="2.80213">
        <ele>982.2</ele>
        <time>2021-06-30T15:12:04.000+02:00</time>
      </trkpt>
      <trkpt lat="43.55827" lon="2.80213">
        <ele>982.2</ele>
        <time>2021-06-30T15:12:05.000+02:00</time>
      </trkpt>
      <trkpt lat="43.55828" lon="2.80212">
        <ele>982.1</ele>
        <time>2021-06-30T15:12:06.000+02:00</time>
      </trkpt>
      <trkpt lat="43.55828" lon="2.80212">
        <ele>982</ele>
        <time>2021-06-30T15:12:07.000+02:00</time>
      </trkpt>
      <trkpt lat="43.55829" lon="2.80212">
        <ele>982</ele>
        <time>2021-06-30T15:12:08.000+02:00</time>
      </trkpt>
      <trkpt lat="43.55829" lon="2.8021">
        <ele>981.9</ele>
        <time>2021-06-30T15:12:09.000+02:00</time>
      </trkpt>
      <trkpt lat="43.55831" lon="2.80209">
        <ele>981.7</ele>
        <time>2021-06-30T15:12:10.000+02:00</time>
      </trkpt>
      <trkpt lat="43.55832" lon="2.80207">
        <ele>981.5</ele>
        <time>2021-06-30T15:12:11.000+02:00</time>
      </trkpt>
      <trkpt lat="43.55834" lon="2.80206">
        <ele>981.3</ele>
        <time>2021-06-30T15:12:12.000+02:00</time>
      </trkpt>
      <trkpt lat="43.55835" lon="2.80206">
        <ele>981.3</ele>
        <time>2021-06-30T15:12:13.000+02:00</time>
      </trkpt>
      <trkpt lat="43.55837" lon="2.80205">
        <ele>981.4</ele>
        <time>2021-06-30T15:12:14.000+02:00</time>
      </trkpt>
      <trkpt lat="43.55838" lon="2.80205">
        <ele>981.5</ele>
        <time>2021-06-30T15:12:15.000+02:00</time>
      </trkpt>
      <trkpt lat="43.5584" lon="2.80206">
        <ele>981.5</ele>
        <time>2021-06-30T15:12:16.000+02:00</time>
      </trkpt>
      <trkpt lat="43.55841" lon="2.80205">
        <ele>981.5</ele>
        <time>2021-06-30T15:12:17.000+02:00</time>
      </trkpt>
      <trkpt lat="43.55843" lon="2.80204">
        <ele>981.6</ele>
        <time>2021-06-30T15:12:18.000+02:00</time>
      </trkpt>
      <trkpt lat="43.55844" lon="2.80204">
        <ele>981.6</ele>
        <time>2021-06-30T15:12:19.000+02:00</time>
      </trkpt>
      <trkpt lat="43.55845" lon="2.80205">
        <ele>981.7</ele>
        <time>2021-06-30T15:12:20.000+02:00</time>
      </trkpt>
      <trkpt lat="43.55847" lon="2.80204">
        <ele>981.7</ele>
        <time>2021-06-30T15:12:21.000+02:00</time>
      </trkpt>
      <trkpt lat="43.55848" lon="2.80204">
        <ele>981.8</ele>
        <time>2021-06-30T15:12:22.000+02:00</time>
      </trkpt>
      <trkpt lat="43.55849" lon="2.80204">
        <ele>981.8</ele>
        <time>2021-06-30T15:12:23.000+02:00</time>
      </trkpt>
      <trkpt lat="43.55849" lon="2.80205">
        <ele>981.8</ele>
        <time>2021-06-30T15:12:24.000+02:00</time>
      </trkpt>
      <trkpt lat="43.5585" lon="2.80205">
        <ele>981.9</ele>
        <time>2021-06-30T15:12:25.000+02:00</time>
      </trkpt>
      <trkpt lat="43.55852" lon="2.80205">
        <ele>981.9</ele>
        <time>2021-06-30T15:12:26.000+02:00</time>
      </trkpt>
      <trkpt lat="43.55854" lon="2.80204">
        <ele>981.9</ele>
        <time>2021-06-30T15:12:27.000+02:00</time>
      </trkpt>
      <trkpt lat="43.55856" lon="2.80203">
        <ele>981.9</ele>
        <time>2021-06-30T15:12:28.000+02:00</time>
      </trkpt>
      <trkpt lat="43.55856" lon="2.80202">
        <ele>981.9</ele>
        <time>2021-06-30T15:12:29.000+02:00</time>
      </trkpt>
      <trkpt lat="43.55857" lon="2.80202">
        <ele>981.9</ele>
        <time>2021-06-30T15:12:30.000+02:00</time>
      </trkpt>
      <trkpt lat="43.55858" lon="2.80202">
        <ele>981.9</ele>
        <time>2021-06-30T15:12:31.000+02:00</time>
      </trkpt>
      <trkpt lat="43.55858" lon="2.80201">
        <ele>981.9</ele>
        <time>2021-06-30T15:12:32.000+02:00</time>
      </trkpt>
      <trkpt lat="43.5586" lon="2.80201">
        <ele>982</ele>
        <time>2021-06-30T15:12:33.000+02:00</time>
      </trkpt>
      <trkpt lat="43.55863" lon="2.80201">
        <ele>982.1</ele>
        <time>2021-06-30T15:12:34.000+02:00</time>
      </trkpt>
      <trkpt lat="43.55865" lon="2.80201">
        <ele>982.1</ele>
        <time>2021-06-30T15:12:35.000+02:00</time>
      </trkpt>
      <trkpt lat="43.55865" lon="2.802">
        <ele>982.1</ele>
        <time>2021-06-30T15:12:36.000+02:00</time>
      </trkpt>
      <trkpt lat="43.55867" lon="2.802">
        <ele>982.2</ele>
        <time>2021-06-30T15:12:37.000+02:00</time>
      </trkpt>
      <trkpt lat="43.55868" lon="2.80201">
        <ele>982.3</ele>
        <time>2021-06-30T15:12:38.000+02:00</time>
      </trkpt>
      <trkpt lat="43.55869" lon="2.80201">
        <ele>982.3</ele>
        <time>2021-06-30T15:12:39.000+02:00</time>
      </trkpt>
      <trkpt lat="43.55871" lon="2.802">
        <ele>982.3</ele>
        <time>2021-06-30T15:12:40.000+02:00</time>
      </trkpt>
      <trkpt lat="43.55872" lon="2.80199">
        <ele>982.3</ele>
        <time>2021-06-30T15:12:41.000+02:00</time>
      </trkpt>
      <trkpt lat="43.55872" lon="2.80199">
        <ele>982.3</ele>
        <time>2021-06-30T15:12:42.000+02:00</time>
      </trkpt>
      <trkpt lat="43.55873" lon="2.80198">
        <ele>982.2</ele>
        <time>2021-06-30T15:12:43.000+02:00</time>
      </trkpt>
      <trkpt lat="43.55873" lon="2.80197">
        <ele>982.2</ele>
        <time>2021-06-30T15:12:44.000+02:00</time>
      </trkpt>
      <trkpt lat="43.55873" lon="2.80197">
        <ele>982.1</ele>
        <time>2021-06-30T15:12:45.000+02:00</time>
      </trkpt>
      <trkpt lat="43.55874" lon="2.80196">
        <ele>982.1</ele>
        <time>2021-06-30T15:12:46.000+02:00</time>
      </trkpt>
      <trkpt lat="43.55874" lon="2.80196">
        <ele>982.1</ele>
        <time>2021-06-30T15:12:47.000+02:00</time>
      </trkpt>
      <trkpt lat="43.55875" lon="2.80196">
        <ele>982.2</ele>
        <time>2021-06-30T15:12:48.000+02:00</time>
      </trkpt>
      <trkpt lat="43.55875" lon="2.80195">
        <ele>982.1</ele>
        <time>2021-06-30T15:12:49.000+02:00</time>
      </trkpt>
      <trkpt lat="43.55876" lon="2.80195">
        <ele>982</ele>
        <time>2021-06-30T15:12:50.000+02:00</time>
      </trkpt>
      <trkpt lat="43.55876" lon="2.80194">
        <ele>982</ele>
        <time>2021-06-30T15:12:51.000+02:00</time>
      </trkpt>
      <trkpt lat="43.55877" lon="2.80193">
        <ele>982</ele>
        <time>2021-06-30T15:12:52.000+02:00</time>
      </trkpt>
      <trkpt lat="43.55878" lon="2.80192">
        <ele>981.9</ele>
        <time>2021-06-30T15:12:53.000+02:00</time>
      </trkpt>
      <trkpt lat="43.5588" lon="2.80191">
        <ele>981.9</ele>
        <time>2021-06-30T15:12:54.000+02:00</time>
      </trkpt>
      <trkpt lat="43.55881" lon="2.80191">
        <ele>981.9</ele>
        <time>2021-06-30T15:12:55.000+02:00</time>
      </trkpt>
      <trkpt lat="43.55882" lon="2.80191">
        <ele>982</ele>
        <time>2021-06-30T15:12:56.000+02:00</time>
      </trkpt>
      <trkpt lat="43.55884" lon="2.80192">
        <ele>982.1</ele>
        <time>2021-06-30T15:12:57.000+02:00</time>
      </trkpt>
      <trkpt lat="43.55885" lon="2.80191">
        <ele>982.1</ele>
        <time>2021-06-30T15:12:58.000+02:00</time>
      </trkpt>
      <trkpt lat="43.55885" lon="2.80191">
        <ele>982.1</ele>
        <time>2021-06-30T15:12:59.000+02:00</time>
      </trkpt>
      <trkpt lat="43.55885" lon="2.80191">
        <ele>982.1</ele>
        <time>2021-06-30T15:13:00.000+02:00</time>
      </trkpt>
      <trkpt lat="43.55886" lon="2.8019">
        <ele>982</ele>
        <time>2021-06-30T15:13:01.000+02:00</time>
      </trkpt>
      <trkpt lat="43.55887" lon="2.8019">
        <ele>982</ele>
        <time>2021-06-30T15:13:02.000+02:00</time>
      </trkpt>
      <trkpt lat="43.55887" lon="2.8019">
        <ele>982</ele>
        <time>2021-06-30T15:13:03.000+02:00</time>
      </trkpt>
      <trkpt lat="43.55887" lon="2.80189">
        <ele>982</ele>
        <time>2021-06-30T15:13:04.000+02:00</time>
      </trkpt>
      <trkpt lat="43.55887" lon="2.8019">
        <ele>982.1</ele>
        <time>2021-06-30T15:13:05.000+02:00</time>
      </trkpt>
      <trkpt lat="43.55888" lon="2.80189">
        <ele>982</ele>
        <time>2021-06-30T15:13:06.000+02:00</time>
      </trkpt>
      <trkpt lat="43.55889" lon="2.80189">
        <ele>982</ele>
        <time>2021-06-30T15:13:07.000+02:00</time>
      </trkpt>
      <trkpt lat="43.55889" lon="2.80189">
        <ele>982</ele>
        <time>2021-06-30T15:13:08.000+02:00</time>
      </trkpt>
      <trkpt lat="43.55889" lon="2.80189">
        <ele>982</ele>
        <time>2021-06-30T15:13:09.000+02:00</time>
      </trkpt>
      <trkpt lat="43.55889" lon="2.80189">
        <ele>982</ele>
        <time>2021-06-30T15:13:10.000+02:00</time>
      </trkpt>
      <trkpt lat="43.55889" lon="2.80189">
        <ele>982.1</ele>
        <time>2021-06-30T15:13:11.000+02:00</time>
      </trkpt>
      <trkpt lat="43.55889" lon="2.8019">
        <ele>982.1</ele>
        <time>2021-06-30T15:13:12.000+02:00</time>
      </trkpt>
      <trkpt lat="43.5589" lon="2.8019">
        <ele>982.2</ele>
        <time>2021-06-30T15:13:13.000+02:00</time>
      </trkpt>
      <trkpt lat="43.5589" lon="2.8019">
        <ele>982.2</ele>
        <time>2021-06-30T15:13:14.000+02:00</time>
      </trkpt>
      <trkpt lat="43.5589" lon="2.80189">
        <ele>982.1</ele>
        <time>2021-06-30T15:13:15.000+02:00</time>
      </trkpt>
      <trkpt lat="43.5589" lon="2.80189">
        <ele>982.1</ele>
        <time>2021-06-30T15:13:16.000+02:00</time>
      </trkpt>
      <trkpt lat="43.5589" lon="2.80188">
        <ele>982</ele>
        <time>2021-06-30T15:13:17.000+02:00</time>
      </trkpt>
      <trkpt lat="43.55891" lon="2.80188">
        <ele>982</ele>
        <time>2021-06-30T15:13:18.000+02:00</time>
      </trkpt>
      <trkpt lat="43.55891" lon="2.80187">
        <ele>982</ele>
        <time>2021-06-30T15:13:19.000+02:00</time>
      </trkpt>
      <trkpt lat="43.55892" lon="2.80186">
        <ele>981.9</ele>
        <time>2021-06-30T15:13:20.000+02:00</time>
      </trkpt>
      <trkpt lat="43.55892" lon="2.80186">
        <ele>981.9</ele>
        <time>2021-06-30T15:13:21.000+02:00</time>
      </trkpt>
      <trkpt lat="43.55892" lon="2.80185">
        <ele>981.8</ele>
        <time>2021-06-30T15:13:22.000+02:00</time>
      </trkpt>
      <trkpt lat="43.55892" lon="2.80185">
        <ele>981.8</ele>
        <time>2021-06-30T15:13:23.000+02:00</time>
      </trkpt>
      <trkpt lat="43.55892" lon="2.80185">
        <ele>981.8</ele>
        <time>2021-06-30T15:13:24.000+02:00</time>
      </trkpt>
      <trkpt lat="43.55892" lon="2.80185">
        <ele>981.8</ele>
        <time>2021-06-30T15:13:25.000+02:00</time>
      </trkpt>
      <trkpt lat="43.55892" lon="2.80184">
        <ele>981.7</ele>
        <time>2021-06-30T15:13:26.000+02:00</time>
      </trkpt>
      <trkpt lat="43.55893" lon="2.80183">
        <ele>981.7</ele>
        <time>2021-06-30T15:13:27.000+02:00</time>
      </trkpt>
      <trkpt lat="43.55894" lon="2.80182">
        <ele>981.6</ele>
        <time>2021-06-30T15:13:28.000+02:00</time>
      </trkpt>
      <trkpt lat="43.55894" lon="2.80181">
        <ele>981.5</ele>
        <time>2021-06-30T15:13:29.000+02:00</time>
      </trkpt>
      <trkpt lat="43.55894" lon="2.80181">
        <ele>981.5</ele>
        <time>2021-06-30T15:13:30.000+02:00</time>
      </trkpt>
      <trkpt lat="43.55895" lon="2.80181">
        <ele>981.5</ele>
        <time>2021-06-30T15:13:31.000+02:00</time>
      </trkpt>
      <trkpt lat="43.55895" lon="2.80181">
        <ele>981.5</ele>
        <time>2021-06-30T15:13:32.000+02:00</time>
      </trkpt>
      <trkpt lat="43.55895" lon="2.80181">
        <ele>981.5</ele>
        <time>2021-06-30T15:13:33.000+02:00</time>
      </trkpt>
      <trkpt lat="43.55895" lon="2.8018">
        <ele>981.5</ele>
        <time>2021-06-30T15:13:34.000+02:00</time>
      </trkpt>
      <trkpt lat="43.55895" lon="2.8018">
        <ele>981.5</ele>
        <time>2021-06-30T15:13:35.000+02:00</time>
      </trkpt>
      <trkpt lat="43.55895" lon="2.8018">
        <ele>981.5</ele>
        <time>2021-06-30T15:13:36.000+02:00</time>
      </trkpt>
      <trkpt lat="43.55895" lon="2.8018">
        <ele>981.5</ele>
        <time>2021-06-30T15:13:37.000+02:00</time>
      </trkpt>
      <trkpt lat="43.55895" lon="2.8018">
        <ele>981.5</ele>
        <time>2021-06-30T15:13:38.000+02:00</time>
      </trkpt>
      <trkpt lat="43.55897" lon="2.80179">
        <ele>981.5</ele>
        <time>2021-06-30T15:13:39.000+02:00</time>
      </trkpt>
      <trkpt lat="43.55897" lon="2.80179">
        <ele>981.4</ele>
        <time>2021-06-30T15:13:40.000+02:00</time>
      </trkpt>
      <trkpt lat="43.55898" lon="2.80178">
        <ele>981.4</ele>
        <time>2021-06-30T15:13:41.000+02:00</time>
      </trkpt>
      <trkpt lat="43.55898" lon="2.80177">
        <ele>981.3</ele>
        <time>2021-06-30T15:13:42.000+02:00</time>
      </trkpt>
      <trkpt lat="43.55898" lon="2.80177">
        <ele>981.3</ele>
        <time>2021-06-30T15:13:43.000+02:00</time>
      </trkpt>
      <trkpt lat="43.55899" lon="2.80177">
        <ele>981.4</ele>
        <time>2021-06-30T15:13:44.000+02:00</time>
      </trkpt>
      <trkpt lat="43.55899" lon="2.80176">
        <ele>981.3</ele>
        <time>2021-06-30T15:13:45.000+02:00</time>
      </trkpt>
      <trkpt lat="43.559" lon="2.80174">
        <ele>981.1</ele>
        <time>2021-06-30T15:13:46.000+02:00</time>
      </trkpt>
      <trkpt lat="43.55902" lon="2.80173">
        <ele>981.1</ele>
        <time>2021-06-30T15:13:47.000+02:00</time>
      </trkpt>
      <trkpt lat="43.55904" lon="2.80171">
        <ele>981</ele>
        <time>2021-06-30T15:13:48.000+02:00</time>
      </trkpt>
      <trkpt lat="43.55905" lon="2.8017">
        <ele>980.9</ele>
        <time>2021-06-30T15:13:49.000+02:00</time>
      </trkpt>
      <trkpt lat="43.55906" lon="2.80167">
        <ele>980.7</ele>
        <time>2021-06-30T15:13:50.000+02:00</time>
      </trkpt>
      <trkpt lat="43.55907" lon="2.80166">
        <ele>980.6</ele>
        <time>2021-06-30T15:13:51.000+02:00</time>
      </trkpt>
      <trkpt lat="43.55907" lon="2.80165">
        <ele>980.5</ele>
        <time>2021-06-30T15:13:52.000+02:00</time>
      </trkpt>
      <trkpt lat="43.55908" lon="2.80163">
        <ele>980.4</ele>
        <time>2021-06-30T15:13:53.000+02:00</time>
      </trkpt>
      <trkpt lat="43.55908" lon="2.80162">
        <ele>980.3</ele>
        <time>2021-06-30T15:13:54.000+02:00</time>
      </trkpt>
      <trkpt lat="43.5591" lon="2.80162">
        <ele>980.3</ele>
        <time>2021-06-30T15:13:55.000+02:00</time>
      </trkpt>
      <trkpt lat="43.55911" lon="2.80161">
        <ele>980.2</ele>
        <time>2021-06-30T15:13:56.000+02:00</time>
      </trkpt>
      <trkpt lat="43.55917" lon="2.80155">
        <ele>979.9</ele>
        <time>2021-06-30T15:13:57.000+02:00</time>
      </trkpt>
      <trkpt lat="43.55922" lon="2.80149">
        <ele>979.6</ele>
        <time>2021-06-30T15:13:58.000+02:00</time>
      </trkpt>
      <trkpt lat="43.55924" lon="2.80145">
        <ele>979.3</ele>
        <time>2021-06-30T15:13:59.000+02:00</time>
      </trkpt>
      <trkpt lat="43.55925" lon="2.80142">
        <ele>979.1</ele>
        <time>2021-06-30T15:14:00.000+02:00</time>
      </trkpt>
      <trkpt lat="43.55926" lon="2.8014">
        <ele>979</ele>
        <time>2021-06-30T15:14:01.000+02:00</time>
      </trkpt>
      <trkpt lat="43.55926" lon="2.80138">
        <ele>978.9</ele>
        <time>2021-06-30T15:14:02.000+02:00</time>
      </trkpt>
      <trkpt lat="43.55927" lon="2.80137">
        <ele>978.7</ele>
        <time>2021-06-30T15:14:03.000+02:00</time>
      </trkpt>
      <trkpt lat="43.55927" lon="2.80136">
        <ele>978.6</ele>
        <time>2021-06-30T15:14:04.000+02:00</time>
      </trkpt>
      <trkpt lat="43.55927" lon="2.80134">
        <ele>978.5</ele>
        <time>2021-06-30T15:14:05.000+02:00</time>
      </trkpt>
      <trkpt lat="43.55927" lon="2.80134">
        <ele>978.5</ele>
        <time>2021-06-30T15:14:06.000+02:00</time>
      </trkpt>
      <trkpt lat="43.55927" lon="2.80134">
        <ele>978.5</ele>
        <time>2021-06-30T15:14:07.000+02:00</time>
      </trkpt>
      <trkpt lat="43.55927" lon="2.80134">
        <ele>978.4</ele>
        <time>2021-06-30T15:14:08.000+02:00</time>
      </trkpt>
      <trkpt lat="43.55927" lon="2.80134">
        <ele>978.4</ele>
        <time>2021-06-30T15:14:09.000+02:00</time>
      </trkpt>
      <trkpt lat="43.55927" lon="2.80134">
        <ele>978.5</ele>
        <time>2021-06-30T15:14:10.000+02:00</time>
      </trkpt>
      <trkpt lat="43.55928" lon="2.80133">
        <ele>978.5</ele>
        <time>2021-06-30T15:14:11.000+02:00</time>
      </trkpt>
      <trkpt lat="43.55929" lon="2.80133">
        <ele>978.5</ele>
        <time>2021-06-30T15:14:12.000+02:00</time>
      </trkpt>
      <trkpt lat="43.55929" lon="2.80132">
        <ele>978.4</ele>
        <time>2021-06-30T15:14:13.000+02:00</time>
      </trkpt>
      <trkpt lat="43.55929" lon="2.80132">
        <ele>978.4</ele>
        <time>2021-06-30T15:14:14.000+02:00</time>
      </trkpt>
      <trkpt lat="43.5593" lon="2.80131">
        <ele>978.4</ele>
        <time>2021-06-30T15:14:15.000+02:00</time>
      </trkpt>
      <trkpt lat="43.5593" lon="2.80131">
        <ele>978.3</ele>
        <time>2021-06-30T15:14:16.000+02:00</time>
      </trkpt>
      <trkpt lat="43.5593" lon="2.8013">
        <ele>978.3</ele>
        <time>2021-06-30T15:14:17.000+02:00</time>
      </trkpt>
      <trkpt lat="43.55929" lon="2.8013">
        <ele>978.2</ele>
        <time>2021-06-30T15:14:18.000+02:00</time>
      </trkpt>
      <trkpt lat="43.5593" lon="2.80129">
        <ele>978.2</ele>
        <time>2021-06-30T15:14:19.000+02:00</time>
      </trkpt>
      <trkpt lat="43.5593" lon="2.80128">
        <ele>978.1</ele>
        <time>2021-06-30T15:14:20.000+02:00</time>
      </trkpt>
      <trkpt lat="43.5593" lon="2.80127">
        <ele>978</ele>
        <time>2021-06-30T15:14:21.000+02:00</time>
      </trkpt>
      <trkpt lat="43.5593" lon="2.80126">
        <ele>977.9</ele>
        <time>2021-06-30T15:14:22.000+02:00</time>
      </trkpt>
      <trkpt lat="43.5593" lon="2.80125">
        <ele>977.9</ele>
        <time>2021-06-30T15:14:23.000+02:00</time>
      </trkpt>
      <trkpt lat="43.55931" lon="2.80124">
        <ele>977.7</ele>
        <time>2021-06-30T15:14:24.000+02:00</time>
      </trkpt>
      <trkpt lat="43.55931" lon="2.80122">
        <ele>977.6</ele>
        <time>2021-06-30T15:14:25.000+02:00</time>
      </trkpt>
      <trkpt lat="43.55932" lon="2.80119">
        <ele>977.4</ele>
        <time>2021-06-30T15:14:26.000+02:00</time>
      </trkpt>
      <trkpt lat="43.55932" lon="2.80119">
        <ele>977.3</ele>
        <time>2021-06-30T15:14:27.000+02:00</time>
      </trkpt>
      <trkpt lat="43.55932" lon="2.80117">
        <ele>977.1</ele>
        <time>2021-06-30T15:14:28.000+02:00</time>
      </trkpt>
      <trkpt lat="43.55932" lon="2.80114">
        <ele>976.9</ele>
        <time>2021-06-30T15:14:29.000+02:00</time>
      </trkpt>
      <trkpt lat="43.55932" lon="2.80112">
        <ele>976.7</ele>
        <time>2021-06-30T15:14:30.000+02:00</time>
      </trkpt>
      <trkpt lat="43.55932" lon="2.80111">
        <ele>976.6</ele>
        <time>2021-06-30T15:14:31.000+02:00</time>
      </trkpt>
      <trkpt lat="43.55932" lon="2.80109">
        <ele>976.5</ele>
        <time>2021-06-30T15:14:32.000+02:00</time>
      </trkpt>
      <trkpt lat="43.55933" lon="2.80109">
        <ele>976.4</ele>
        <time>2021-06-30T15:14:33.000+02:00</time>
      </trkpt>
      <trkpt lat="43.55933" lon="2.80107">
        <ele>976.2</ele>
        <time>2021-06-30T15:14:34.000+02:00</time>
      </trkpt>
      <trkpt lat="43.55933" lon="2.80106">
        <ele>976.1</ele>
        <time>2021-06-30T15:14:35.000+02:00</time>
      </trkpt>
      <trkpt lat="43.55933" lon="2.80105">
        <ele>976.1</ele>
        <time>2021-06-30T15:14:36.000+02:00</time>
      </trkpt>
      <trkpt lat="43.55933" lon="2.80104">
        <ele>976</ele>
        <time>2021-06-30T15:14:37.000+02:00</time>
      </trkpt>
      <trkpt lat="43.55933" lon="2.80104">
        <ele>976</ele>
        <time>2021-06-30T15:14:38.000+02:00</time>
      </trkpt>
      <trkpt lat="43.55934" lon="2.80103">
        <ele>976</ele>
        <time>2021-06-30T15:14:39.000+02:00</time>
      </trkpt>
      <trkpt lat="43.55935" lon="2.80103">
        <ele>975.9</ele>
        <time>2021-06-30T15:14:40.000+02:00</time>
      </trkpt>
      <trkpt lat="43.55935" lon="2.80102">
        <ele>975.9</ele>
        <time>2021-06-30T15:14:41.000+02:00</time>
      </trkpt>
      <trkpt lat="43.55935" lon="2.80101">
        <ele>975.8</ele>
        <time>2021-06-30T15:14:42.000+02:00</time>
      </trkpt>
      <trkpt lat="43.55936" lon="2.80101">
        <ele>975.8</ele>
        <time>2021-06-30T15:14:43.000+02:00</time>
      </trkpt>
      <trkpt lat="43.55936" lon="2.801">
        <ele>975.8</ele>
        <time>2021-06-30T15:14:44.000+02:00</time>
      </trkpt>
      <trkpt lat="43.55936" lon="2.80099">
        <ele>975.7</ele>
        <time>2021-06-30T15:14:45.000+02:00</time>
      </trkpt>
      <trkpt lat="43.55937" lon="2.80097">
        <ele>975.6</ele>
        <time>2021-06-30T15:14:46.000+02:00</time>
      </trkpt>
      <trkpt lat="43.55938" lon="2.80097">
        <ele>975.6</ele>
        <time>2021-06-30T15:14:47.000+02:00</time>
      </trkpt>
      <trkpt lat="43.55939" lon="2.80096">
        <ele>975.5</ele>
        <time>2021-06-30T15:14:48.000+02:00</time>
      </trkpt>
      <trkpt lat="43.55941" lon="2.80095">
        <ele>975.6</ele>
        <time>2021-06-30T15:14:49.000+02:00</time>
      </trkpt>
      <trkpt lat="43.55943" lon="2.80094">
        <ele>975.6</ele>
        <time>2021-06-30T15:14:50.000+02:00</time>
      </trkpt>
      <trkpt lat="43.55944" lon="2.80092">
        <ele>975.5</ele>
        <time>2021-06-30T15:14:51.000+02:00</time>
      </trkpt>
      <trkpt lat="43.55945" lon="2.80091">
        <ele>975.4</ele>
        <time>2021-06-30T15:14:52.000+02:00</time>
      </trkpt>
      <trkpt lat="43.55947" lon="2.80089">
        <ele>975.3</ele>
        <time>2021-06-30T15:14:53.000+02:00</time>
      </trkpt>
      <trkpt lat="43.55947" lon="2.80088">
        <ele>975.3</ele>
        <time>2021-06-30T15:14:54.000+02:00</time>
      </trkpt>
      <trkpt lat="43.55947" lon="2.80087">
        <ele>975.2</ele>
        <time>2021-06-30T15:14:55.000+02:00</time>
      </trkpt>
      <trkpt lat="43.55948" lon="2.80087">
        <ele>975.2</ele>
        <time>2021-06-30T15:14:56.000+02:00</time>
      </trkpt>
      <trkpt lat="43.55948" lon="2.80086">
        <ele>975.2</ele>
        <time>2021-06-30T15:14:57.000+02:00</time>
      </trkpt>
      <trkpt lat="43.55948" lon="2.80085">
        <ele>975.1</ele>
        <time>2021-06-30T15:14:58.000+02:00</time>
      </trkpt>
      <trkpt lat="43.55948" lon="2.80085">
        <ele>975</ele>
        <time>2021-06-30T15:14:59.000+02:00</time>
      </trkpt>
      <trkpt lat="43.55948" lon="2.80084">
        <ele>975</ele>
        <time>2021-06-30T15:15:00.000+02:00</time>
      </trkpt>
      <trkpt lat="43.55948" lon="2.80083">
        <ele>974.8</ele>
        <time>2021-06-30T15:15:01.000+02:00</time>
      </trkpt>
      <trkpt lat="43.55949" lon="2.80081">
        <ele>974.7</ele>
        <time>2021-06-30T15:15:02.000+02:00</time>
      </trkpt>
      <trkpt lat="43.5595" lon="2.8008">
        <ele>974.6</ele>
        <time>2021-06-30T15:15:03.000+02:00</time>
      </trkpt>
      <trkpt lat="43.5595" lon="2.80079">
        <ele>974.6</ele>
        <time>2021-06-30T15:15:04.000+02:00</time>
      </trkpt>
      <trkpt lat="43.55949" lon="2.80079">
        <ele>974.5</ele>
        <time>2021-06-30T15:15:05.000+02:00</time>
      </trkpt>
      <trkpt lat="43.5595" lon="2.80079">
        <ele>974.5</ele>
        <time>2021-06-30T15:15:06.000+02:00</time>
      </trkpt>
      <trkpt lat="43.5595" lon="2.80078">
        <ele>974.5</ele>
        <time>2021-06-30T15:15:07.000+02:00</time>
      </trkpt>
      <trkpt lat="43.5595" lon="2.80078">
        <ele>974.4</ele>
        <time>2021-06-30T15:15:08.000+02:00</time>
      </trkpt>
      <trkpt lat="43.5595" lon="2.80076">
        <ele>974.2</ele>
        <time>2021-06-30T15:15:09.000+02:00</time>
      </trkpt>
      <trkpt lat="43.5595" lon="2.80074">
        <ele>974</ele>
        <time>2021-06-30T15:15:10.000+02:00</time>
      </trkpt>
      <trkpt lat="43.5595" lon="2.80073">
        <ele>973.9</ele>
        <time>2021-06-30T15:15:11.000+02:00</time>
      </trkpt>
      <trkpt lat="43.5595" lon="2.80072">
        <ele>973.8</ele>
        <time>2021-06-30T15:15:12.000+02:00</time>
      </trkpt>
      <trkpt lat="43.5595" lon="2.80071">
        <ele>973.7</ele>
        <time>2021-06-30T15:15:13.000+02:00</time>
      </trkpt>
      <trkpt lat="43.5595" lon="2.80069">
        <ele>973.5</ele>
        <time>2021-06-30T15:15:14.000+02:00</time>
      </trkpt>
      <trkpt lat="43.5595" lon="2.80067">
        <ele>973.3</ele>
        <time>2021-06-30T15:15:15.000+02:00</time>
      </trkpt>
      <trkpt lat="43.5595" lon="2.80065">
        <ele>973.1</ele>
        <time>2021-06-30T15:15:16.000+02:00</time>
      </trkpt>
      <trkpt lat="43.5595" lon="2.80064">
        <ele>973</ele>
        <time>2021-06-30T15:15:17.000+02:00</time>
      </trkpt>
      <trkpt lat="43.5595" lon="2.80061">
        <ele>972.6</ele>
        <time>2021-06-30T15:15:18.000+02:00</time>
      </trkpt>
      <trkpt lat="43.5595" lon="2.80059">
        <ele>972.5</ele>
        <time>2021-06-30T15:15:19.000+02:00</time>
      </trkpt>
      <trkpt lat="43.5595" lon="2.80059">
        <ele>972.4</ele>
        <time>2021-06-30T15:15:20.000+02:00</time>
      </trkpt>
      <trkpt lat="43.5595" lon="2.80057">
        <ele>972.3</ele>
        <time>2021-06-30T15:15:21.000+02:00</time>
      </trkpt>
      <trkpt lat="43.5595" lon="2.80056">
        <ele>972.1</ele>
        <time>2021-06-30T15:15:22.000+02:00</time>
      </trkpt>
      <trkpt lat="43.55951" lon="2.80054">
        <ele>971.9</ele>
        <time>2021-06-30T15:15:23.000+02:00</time>
      </trkpt>
      <trkpt lat="43.55951" lon="2.80052">
        <ele>971.8</ele>
        <time>2021-06-30T15:15:24.000+02:00</time>
      </trkpt>
      <trkpt lat="43.55951" lon="2.80051">
        <ele>971.7</ele>
        <time>2021-06-30T15:15:25.000+02:00</time>
      </trkpt>
      <trkpt lat="43.55951" lon="2.80051">
        <ele>971.7</ele>
        <time>2021-06-30T15:15:26.000+02:00</time>
      </trkpt>
      <trkpt lat="43.55951" lon="2.80051">
        <ele>971.6</ele>
        <time>2021-06-30T15:15:27.000+02:00</time>
      </trkpt>
      <trkpt lat="43.55951" lon="2.8005">
        <ele>971.6</ele>
        <time>2021-06-30T15:15:28.000+02:00</time>
      </trkpt>
      <trkpt lat="43.55951" lon="2.8005">
        <ele>971.6</ele>
        <time>2021-06-30T15:15:29.000+02:00</time>
      </trkpt>
      <trkpt lat="43.55951" lon="2.8005">
        <ele>971.6</ele>
        <time>2021-06-30T15:15:30.000+02:00</time>
      </trkpt>
      <trkpt lat="43.55951" lon="2.8005">
        <ele>971.6</ele>
        <time>2021-06-30T15:15:31.000+02:00</time>
      </trkpt>
      <trkpt lat="43.55951" lon="2.8005">
        <ele>971.5</ele>
        <time>2021-06-30T15:15:32.000+02:00</time>
      </trkpt>
      <trkpt lat="43.55952" lon="2.80049">
        <ele>971.5</ele>
        <time>2021-06-30T15:15:33.000+02:00</time>
      </trkpt>
      <trkpt lat="43.55952" lon="2.80049">
        <ele>971.5</ele>
        <time>2021-06-30T15:15:34.000+02:00</time>
      </trkpt>
      <trkpt lat="43.55951" lon="2.80049">
        <ele>971.5</ele>
        <time>2021-06-30T15:15:35.000+02:00</time>
      </trkpt>
      <trkpt lat="43.55951" lon="2.80048">
        <ele>971.3</ele>
        <time>2021-06-30T15:15:36.000+02:00</time>
      </trkpt>
      <trkpt lat="43.55951" lon="2.80047">
        <ele>971.2</ele>
        <time>2021-06-30T15:15:37.000+02:00</time>
      </trkpt>
      <trkpt lat="43.55951" lon="2.80045">
        <ele>971.1</ele>
        <time>2021-06-30T15:15:38.000+02:00</time>
      </trkpt>
      <trkpt lat="43.55951" lon="2.80044">
        <ele>971</ele>
        <time>2021-06-30T15:15:39.000+02:00</time>
      </trkpt>
      <trkpt lat="43.55953" lon="2.80042">
        <ele>970.8</ele>
        <time>2021-06-30T15:15:40.000+02:00</time>
      </trkpt>
      <trkpt lat="43.55955" lon="2.80039">
        <ele>970.7</ele>
        <time>2021-06-30T15:15:41.000+02:00</time>
      </trkpt>
      <trkpt lat="43.55957" lon="2.80037">
        <ele>970.7</ele>
        <time>2021-06-30T15:15:42.000+02:00</time>
      </trkpt>
      <trkpt lat="43.55958" lon="2.80036">
        <ele>970.6</ele>
        <time>2021-06-30T15:15:43.000+02:00</time>
      </trkpt>
      <trkpt lat="43.55959" lon="2.80034">
        <ele>970.5</ele>
        <time>2021-06-30T15:15:44.000+02:00</time>
      </trkpt>
      <trkpt lat="43.5596" lon="2.80032">
        <ele>970.4</ele>
        <time>2021-06-30T15:15:45.000+02:00</time>
      </trkpt>
      <trkpt lat="43.55959" lon="2.8003">
        <ele>970.1</ele>
        <time>2021-06-30T15:15:46.000+02:00</time>
      </trkpt>
      <trkpt lat="43.5596" lon="2.80028">
        <ele>969.9</ele>
        <time>2021-06-30T15:15:47.000+02:00</time>
      </trkpt>
      <trkpt lat="43.55959" lon="2.80026">
        <ele>969.7</ele>
        <time>2021-06-30T15:15:48.000+02:00</time>
      </trkpt>
      <trkpt lat="43.5596" lon="2.80024">
        <ele>969.6</ele>
        <time>2021-06-30T15:15:49.000+02:00</time>
      </trkpt>
      <trkpt lat="43.55961" lon="2.80021">
        <ele>969.4</ele>
        <time>2021-06-30T15:15:50.000+02:00</time>
      </trkpt>
      <trkpt lat="43.55962" lon="2.8002">
        <ele>969.3</ele>
        <time>2021-06-30T15:15:51.000+02:00</time>
      </trkpt>
      <trkpt lat="43.5596" lon="2.80018">
        <ele>969</ele>
        <time>2021-06-30T15:15:52.000+02:00</time>
      </trkpt>
      <trkpt lat="43.55958" lon="2.80018">
        <ele>968.8</ele>
        <time>2021-06-30T15:15:53.000+02:00</time>
      </trkpt>
      <trkpt lat="43.55958" lon="2.80016">
        <ele>968.6</ele>
        <time>2021-06-30T15:15:54.000+02:00</time>
      </trkpt>
      <trkpt lat="43.55957" lon="2.80015">
        <ele>968.5</ele>
        <time>2021-06-30T15:15:55.000+02:00</time>
      </trkpt>
      <trkpt lat="43.55957" lon="2.80015">
        <ele>968.5</ele>
        <time>2021-06-30T15:15:56.000+02:00</time>
      </trkpt>
      <trkpt lat="43.55958" lon="2.80015">
        <ele>968.4</ele>
        <time>2021-06-30T15:15:57.000+02:00</time>
      </trkpt>
      <trkpt lat="43.55958" lon="2.80014">
        <ele>968.4</ele>
        <time>2021-06-30T15:15:58.000+02:00</time>
      </trkpt>
      <trkpt lat="43.55958" lon="2.80014">
        <ele>968.4</ele>
        <time>2021-06-30T15:15:59.000+02:00</time>
      </trkpt>
      <trkpt lat="43.55958" lon="2.80012">
        <ele>968.2</ele>
        <time>2021-06-30T15:16:00.000+02:00</time>
      </trkpt>
      <trkpt lat="43.55959" lon="2.80011">
        <ele>968.2</ele>
        <time>2021-06-30T15:16:01.000+02:00</time>
      </trkpt>
      <trkpt lat="43.55959" lon="2.80009">
        <ele>968.1</ele>
        <time>2021-06-30T15:16:02.000+02:00</time>
      </trkpt>
      <trkpt lat="43.55959" lon="2.80007">
        <ele>967.8</ele>
        <time>2021-06-30T15:16:03.000+02:00</time>
      </trkpt>
      <trkpt lat="43.55959" lon="2.80006">
        <ele>967.7</ele>
        <time>2021-06-30T15:16:04.000+02:00</time>
      </trkpt>
      <trkpt lat="43.55959" lon="2.80005">
        <ele>967.6</ele>
        <time>2021-06-30T15:16:05.000+02:00</time>
      </trkpt>
      <trkpt lat="43.55959" lon="2.80005">
        <ele>967.6</ele>
        <time>2021-06-30T15:16:06.000+02:00</time>
      </trkpt>
      <trkpt lat="43.5596" lon="2.80003">
        <ele>967.5</ele>
        <time>2021-06-30T15:16:07.000+02:00</time>
      </trkpt>
      <trkpt lat="43.5596" lon="2.80002">
        <ele>967.4</ele>
        <time>2021-06-30T15:16:08.000+02:00</time>
      </trkpt>
      <trkpt lat="43.55962" lon="2.8">
        <ele>967.3</ele>
        <time>2021-06-30T15:16:09.000+02:00</time>
      </trkpt>
      <trkpt lat="43.55962" lon="2.79998">
        <ele>967.3</ele>
        <time>2021-06-30T15:16:10.000+02:00</time>
      </trkpt>
      <trkpt lat="43.55962" lon="2.79998">
        <ele>967.2</ele>
        <time>2021-06-30T15:16:11.000+02:00</time>
      </trkpt>
      <trkpt lat="43.55962" lon="2.79996">
        <ele>967.2</ele>
        <time>2021-06-30T15:16:12.000+02:00</time>
      </trkpt>
      <trkpt lat="43.55963" lon="2.79995">
        <ele>967.2</ele>
        <time>2021-06-30T15:16:13.000+02:00</time>
      </trkpt>
      <trkpt lat="43.55964" lon="2.79993">
        <ele>967.2</ele>
        <time>2021-06-30T15:16:14.000+02:00</time>
      </trkpt>
      <trkpt lat="43.55965" lon="2.7999">
        <ele>967.1</ele>
        <time>2021-06-30T15:16:15.000+02:00</time>
      </trkpt>
      <trkpt lat="43.55966" lon="2.79989">
        <ele>967.1</ele>
        <time>2021-06-30T15:16:16.000+02:00</time>
      </trkpt>
      <trkpt lat="43.55967" lon="2.79987">
        <ele>967.1</ele>
        <time>2021-06-30T15:16:17.000+02:00</time>
      </trkpt>
      <trkpt lat="43.55968" lon="2.79986">
        <ele>967.1</ele>
        <time>2021-06-30T15:16:18.000+02:00</time>
      </trkpt>
      <trkpt lat="43.55969" lon="2.79984">
        <ele>967.1</ele>
        <time>2021-06-30T15:16:19.000+02:00</time>
      </trkpt>
      <trkpt lat="43.55971" lon="2.79982">
        <ele>967.1</ele>
        <time>2021-06-30T15:16:20.000+02:00</time>
      </trkpt>
      <trkpt lat="43.55972" lon="2.79981">
        <ele>967.1</ele>
        <time>2021-06-30T15:16:21.000+02:00</time>
      </trkpt>
      <trkpt lat="43.55972" lon="2.7998">
        <ele>967.1</ele>
        <time>2021-06-30T15:16:22.000+02:00</time>
      </trkpt>
      <trkpt lat="43.55972" lon="2.7998">
        <ele>967</ele>
        <time>2021-06-30T15:16:23.000+02:00</time>
      </trkpt>
      <trkpt lat="43.55972" lon="2.7998">
        <ele>967</ele>
        <time>2021-06-30T15:16:24.000+02:00</time>
      </trkpt>
      <trkpt lat="43.55972" lon="2.7998">
        <ele>967</ele>
        <time>2021-06-30T15:16:25.000+02:00</time>
      </trkpt>
      <trkpt lat="43.55972" lon="2.79979">
        <ele>966.9</ele>
        <time>2021-06-30T15:16:26.000+02:00</time>
      </trkpt>
      <trkpt lat="43.55973" lon="2.79977">
        <ele>966.9</ele>
        <time>2021-06-30T15:16:27.000+02:00</time>
      </trkpt>
      <trkpt lat="43.55974" lon="2.79975">
        <ele>966.9</ele>
        <time>2021-06-30T15:16:28.000+02:00</time>
      </trkpt>
      <trkpt lat="43.55975" lon="2.79973">
        <ele>966.8</ele>
        <time>2021-06-30T15:16:29.000+02:00</time>
      </trkpt>
      <trkpt lat="43.55976" lon="2.79971">
        <ele>966.7</ele>
        <time>2021-06-30T15:16:30.000+02:00</time>
      </trkpt>
      <trkpt lat="43.55977" lon="2.7997">
        <ele>966.7</ele>
        <time>2021-06-30T15:16:31.000+02:00</time>
      </trkpt>
      <trkpt lat="43.55978" lon="2.79968">
        <ele>966.6</ele>
        <time>2021-06-30T15:16:32.000+02:00</time>
      </trkpt>
      <trkpt lat="43.55979" lon="2.79967">
        <ele>966.6</ele>
        <time>2021-06-30T15:16:33.000+02:00</time>
      </trkpt>
      <trkpt lat="43.5598" lon="2.79966">
        <ele>966.6</ele>
        <time>2021-06-30T15:16:34.000+02:00</time>
      </trkpt>
      <trkpt lat="43.55981" lon="2.79966">
        <ele>966.7</ele>
        <time>2021-06-30T15:16:35.000+02:00</time>
      </trkpt>
      <trkpt lat="43.55982" lon="2.79964">
        <ele>966.6</ele>
        <time>2021-06-30T15:16:36.000+02:00</time>
      </trkpt>
      <trkpt lat="43.55983" lon="2.79964">
        <ele>966.6</ele>
        <time>2021-06-30T15:16:37.000+02:00</time>
      </trkpt>
      <trkpt lat="43.55984" lon="2.79963">
        <ele>966.6</ele>
        <time>2021-06-30T15:16:38.000+02:00</time>
      </trkpt>
      <trkpt lat="43.55985" lon="2.79962">
        <ele>966.5</ele>
        <time>2021-06-30T15:16:39.000+02:00</time>
      </trkpt>
      <trkpt lat="43.55985" lon="2.79961">
        <ele>966.5</ele>
        <time>2021-06-30T15:16:40.000+02:00</time>
      </trkpt>
      <trkpt lat="43.55986" lon="2.7996">
        <ele>966.5</ele>
        <time>2021-06-30T15:16:41.000+02:00</time>
      </trkpt>
      <trkpt lat="43.55987" lon="2.79959">
        <ele>966.5</ele>
        <time>2021-06-30T15:16:42.000+02:00</time>
      </trkpt>
      <trkpt lat="43.55987" lon="2.79959">
        <ele>966.4</ele>
        <time>2021-06-30T15:16:43.000+02:00</time>
      </trkpt>
      <trkpt lat="43.55987" lon="2.79959">
        <ele>966.4</ele>
        <time>2021-06-30T15:16:44.000+02:00</time>
      </trkpt>
      <trkpt lat="43.55988" lon="2.79958">
        <ele>966.4</ele>
        <time>2021-06-30T15:16:45.000+02:00</time>
      </trkpt>
      <trkpt lat="43.55988" lon="2.79958">
        <ele>966.4</ele>
        <time>2021-06-30T15:16:46.000+02:00</time>
      </trkpt>
      <trkpt lat="43.55989" lon="2.79957">
        <ele>966.4</ele>
        <time>2021-06-30T15:16:47.000+02:00</time>
      </trkpt>
      <trkpt lat="43.5599" lon="2.79957">
        <ele>966.4</ele>
        <time>2021-06-30T15:16:48.000+02:00</time>
      </trkpt>
      <trkpt lat="43.55991" lon="2.79956">
        <ele>966.3</ele>
        <time>2021-06-30T15:16:49.000+02:00</time>
      </trkpt>
      <trkpt lat="43.55992" lon="2.79955">
        <ele>966.3</ele>
        <time>2021-06-30T15:16:50.000+02:00</time>
      </trkpt>
      <trkpt lat="43.55992" lon="2.79955">
        <ele>966.3</ele>
        <time>2021-06-30T15:16:51.000+02:00</time>
      </trkpt>
      <trkpt lat="43.55993" lon="2.79955">
        <ele>966.4</ele>
        <time>2021-06-30T15:16:52.000+02:00</time>
      </trkpt>
      <trkpt lat="43.55994" lon="2.79955">
        <ele>966.4</ele>
        <time>2021-06-30T15:16:53.000+02:00</time>
      </trkpt>
      <trkpt lat="43.55994" lon="2.79955">
        <ele>966.4</ele>
        <time>2021-06-30T15:16:54.000+02:00</time>
      </trkpt>
      <trkpt lat="43.55995" lon="2.79954">
        <ele>966.4</ele>
        <time>2021-06-30T15:16:55.000+02:00</time>
      </trkpt>
      <trkpt lat="43.55995" lon="2.79953">
        <ele>966.3</ele>
        <time>2021-06-30T15:16:56.000+02:00</time>
      </trkpt>
      <trkpt lat="43.55995" lon="2.79953">
        <ele>966.3</ele>
        <time>2021-06-30T15:16:57.000+02:00</time>
      </trkpt>
      <trkpt lat="43.55995" lon="2.79953">
        <ele>966.3</ele>
        <time>2021-06-30T15:16:58.000+02:00</time>
      </trkpt>
      <trkpt lat="43.55995" lon="2.79953">
        <ele>966.3</ele>
        <time>2021-06-30T15:16:59.000+02:00</time>
      </trkpt>
      <trkpt lat="43.55996" lon="2.79952">
        <ele>966.3</ele>
        <time>2021-06-30T15:17:00.000+02:00</time>
      </trkpt>
      <trkpt lat="43.55998" lon="2.79952">
        <ele>966.3</ele>
        <time>2021-06-30T15:17:01.000+02:00</time>
      </trkpt>
      <trkpt lat="43.55998" lon="2.79951">
        <ele>966.3</ele>
        <time>2021-06-30T15:17:02.000+02:00</time>
      </trkpt>
      <trkpt lat="43.56" lon="2.79951">
        <ele>966.3</ele>
        <time>2021-06-30T15:17:03.000+02:00</time>
      </trkpt>
      <trkpt lat="43.56001" lon="2.7995">
        <ele>966.2</ele>
        <time>2021-06-30T15:17:04.000+02:00</time>
      </trkpt>
      <trkpt lat="43.56002" lon="2.7995">
        <ele>966.2</ele>
        <time>2021-06-30T15:17:05.000+02:00</time>
      </trkpt>
      <trkpt lat="43.56003" lon="2.79949">
        <ele>966.2</ele>
        <time>2021-06-30T15:17:06.000+02:00</time>
      </trkpt>
      <trkpt lat="43.56004" lon="2.79949">
        <ele>966.2</ele>
        <time>2021-06-30T15:17:07.000+02:00</time>
      </trkpt>
      <trkpt lat="43.56005" lon="2.79949">
        <ele>966.2</ele>
        <time>2021-06-30T15:17:08.000+02:00</time>
      </trkpt>
      <trkpt lat="43.56006" lon="2.79948">
        <ele>966.1</ele>
        <time>2021-06-30T15:17:09.000+02:00</time>
      </trkpt>
      <trkpt lat="43.56006" lon="2.79948">
        <ele>966.1</ele>
        <time>2021-06-30T15:17:10.000+02:00</time>
      </trkpt>
      <trkpt lat="43.56007" lon="2.79947">
        <ele>966.1</ele>
        <time>2021-06-30T15:17:11.000+02:00</time>
      </trkpt>
      <trkpt lat="43.56008" lon="2.79947">
        <ele>966.1</ele>
        <time>2021-06-30T15:17:12.000+02:00</time>
      </trkpt>
      <trkpt lat="43.56009" lon="2.79947">
        <ele>966.1</ele>
        <time>2021-06-30T15:17:13.000+02:00</time>
      </trkpt>
      <trkpt lat="43.5601" lon="2.79947">
        <ele>966.1</ele>
        <time>2021-06-30T15:17:14.000+02:00</time>
      </trkpt>
      <trkpt lat="43.56011" lon="2.79948">
        <ele>966.2</ele>
        <time>2021-06-30T15:17:15.000+02:00</time>
      </trkpt>
      <trkpt lat="43.56012" lon="2.79948">
        <ele>966.3</ele>
        <time>2021-06-30T15:17:16.000+02:00</time>
      </trkpt>
      <trkpt lat="43.56012" lon="2.79948">
        <ele>966.3</ele>
        <time>2021-06-30T15:17:17.000+02:00</time>
      </trkpt>
      <trkpt lat="43.56012" lon="2.79948">
        <ele>966.2</ele>
        <time>2021-06-30T15:17:18.000+02:00</time>
      </trkpt>
      <trkpt lat="43.56013" lon="2.79948">
        <ele>966.2</ele>
        <time>2021-06-30T15:17:19.000+02:00</time>
      </trkpt>
      <trkpt lat="43.56014" lon="2.79947">
        <ele>966.2</ele>
        <time>2021-06-30T15:17:20.000+02:00</time>
      </trkpt>
      <trkpt lat="43.56015" lon="2.79947">
        <ele>966.2</ele>
        <time>2021-06-30T15:17:21.000+02:00</time>
      </trkpt>
      <trkpt lat="43.56016" lon="2.79947">
        <ele>966.2</ele>
        <time>2021-06-30T15:17:22.000+02:00</time>
      </trkpt>
      <trkpt lat="43.56016" lon="2.79947">
        <ele>966.2</ele>
        <time>2021-06-30T15:17:23.000+02:00</time>
      </trkpt>
      <trkpt lat="43.56017" lon="2.79947">
        <ele>966.2</ele>
        <time>2021-06-30T15:17:24.000+02:00</time>
      </trkpt>
      <trkpt lat="43.56018" lon="2.79947">
        <ele>966.2</ele>
        <time>2021-06-30T15:17:25.000+02:00</time>
      </trkpt>
      <trkpt lat="43.56018" lon="2.79946">
        <ele>966.2</ele>
        <time>2021-06-30T15:17:26.000+02:00</time>
      </trkpt>
      <trkpt lat="43.56019" lon="2.79945">
        <ele>966.1</ele>
        <time>2021-06-30T15:17:27.000+02:00</time>
      </trkpt>
      <trkpt lat="43.5602" lon="2.79945">
        <ele>966.1</ele>
        <time>2021-06-30T15:17:28.000+02:00</time>
      </trkpt>
      <trkpt lat="43.56022" lon="2.79944">
        <ele>966.1</ele>
        <time>2021-06-30T15:17:29.000+02:00</time>
      </trkpt>
      <trkpt lat="43.56023" lon="2.79944">
        <ele>966.1</ele>
        <time>2021-06-30T15:17:30.000+02:00</time>
      </trkpt>
      <trkpt lat="43.56025" lon="2.79944">
        <ele>966.1</ele>
        <time>2021-06-30T15:17:31.000+02:00</time>
      </trkpt>
      <trkpt lat="43.56026" lon="2.79944">
        <ele>966.1</ele>
        <time>2021-06-30T15:17:32.000+02:00</time>
      </trkpt>
      <trkpt lat="43.56028" lon="2.79944">
        <ele>966.1</ele>
        <time>2021-06-30T15:17:33.000+02:00</time>
      </trkpt>
      <trkpt lat="43.56029" lon="2.79943">
        <ele>966.1</ele>
        <time>2021-06-30T15:17:34.000+02:00</time>
      </trkpt>
      <trkpt lat="43.5603" lon="2.79944">
        <ele>966.2</ele>
        <time>2021-06-30T15:17:35.000+02:00</time>
      </trkpt>
      <trkpt lat="43.5603" lon="2.79943">
        <ele>966.2</ele>
        <time>2021-06-30T15:17:36.000+02:00</time>
      </trkpt>
      <trkpt lat="43.5603" lon="2.79943">
        <ele>966.2</ele>
        <time>2021-06-30T15:17:37.000+02:00</time>
      </trkpt>
      <trkpt lat="43.56031" lon="2.79943">
        <ele>966.1</ele>
        <time>2021-06-30T15:17:38.000+02:00</time>
      </trkpt>
      <trkpt lat="43.56032" lon="2.79942">
        <ele>966.1</ele>
        <time>2021-06-30T15:17:39.000+02:00</time>
      </trkpt>
      <trkpt lat="43.56032" lon="2.79942">
        <ele>966</ele>
        <time>2021-06-30T15:17:40.000+02:00</time>
      </trkpt>
      <trkpt lat="43.56033" lon="2.79941">
        <ele>966</ele>
        <time>2021-06-30T15:17:41.000+02:00</time>
      </trkpt>
      <trkpt lat="43.56034" lon="2.7994">
        <ele>966</ele>
        <time>2021-06-30T15:17:42.000+02:00</time>
      </trkpt>
      <trkpt lat="43.56034" lon="2.7994">
        <ele>965.9</ele>
        <time>2021-06-30T15:17:43.000+02:00</time>
      </trkpt>
      <trkpt lat="43.56035" lon="2.79939">
        <ele>965.9</ele>
        <time>2021-06-30T15:17:44.000+02:00</time>
      </trkpt>
      <trkpt lat="43.56036" lon="2.79939">
        <ele>965.9</ele>
        <time>2021-06-30T15:17:45.000+02:00</time>
      </trkpt>
      <trkpt lat="43.56037" lon="2.79938">
        <ele>965.8</ele>
        <time>2021-06-30T15:17:46.000+02:00</time>
      </trkpt>
      <trkpt lat="43.56038" lon="2.79937">
        <ele>965.8</ele>
        <time>2021-06-30T15:17:47.000+02:00</time>
      </trkpt>
      <trkpt lat="43.56039" lon="2.79937">
        <ele>965.8</ele>
        <time>2021-06-30T15:17:48.000+02:00</time>
      </trkpt>
      <trkpt lat="43.56039" lon="2.79937">
        <ele>965.8</ele>
        <time>2021-06-30T15:17:49.000+02:00</time>
      </trkpt>
      <trkpt lat="43.5604" lon="2.79937">
        <ele>965.8</ele>
        <time>2021-06-30T15:17:50.000+02:00</time>
      </trkpt>
      <trkpt lat="43.56041" lon="2.79936">
        <ele>965.7</ele>
        <time>2021-06-30T15:17:51.000+02:00</time>
      </trkpt>
      <trkpt lat="43.56042" lon="2.79936">
        <ele>965.8</ele>
        <time>2021-06-30T15:17:52.000+02:00</time>
      </trkpt>
      <trkpt lat="43.56044" lon="2.79937">
        <ele>965.9</ele>
        <time>2021-06-30T15:17:53.000+02:00</time>
      </trkpt>
      <trkpt lat="43.56046" lon="2.79937">
        <ele>965.9</ele>
        <time>2021-06-30T15:17:54.000+02:00</time>
      </trkpt>
      <trkpt lat="43.56047" lon="2.79937">
        <ele>966</ele>
        <time>2021-06-30T15:17:55.000+02:00</time>
      </trkpt>
      <trkpt lat="43.56048" lon="2.79937">
        <ele>966</ele>
        <time>2021-06-30T15:17:56.000+02:00</time>
      </trkpt>
      <trkpt lat="43.56049" lon="2.79937">
        <ele>966</ele>
        <time>2021-06-30T15:17:57.000+02:00</time>
      </trkpt>
      <trkpt lat="43.5605" lon="2.79938">
        <ele>966.1</ele>
        <time>2021-06-30T15:17:58.000+02:00</time>
      </trkpt>
      <trkpt lat="43.56051" lon="2.79938">
        <ele>966.1</ele>
        <time>2021-06-30T15:17:59.000+02:00</time>
      </trkpt>
      <trkpt lat="43.56052" lon="2.79938">
        <ele>966.1</ele>
        <time>2021-06-30T15:18:00.000+02:00</time>
      </trkpt>
      <trkpt lat="43.56053" lon="2.79938">
        <ele>966.2</ele>
        <time>2021-06-30T15:18:01.000+02:00</time>
      </trkpt>
      <trkpt lat="43.56055" lon="2.79938">
        <ele>966.2</ele>
        <time>2021-06-30T15:18:02.000+02:00</time>
      </trkpt>
      <trkpt lat="43.56055" lon="2.79938">
        <ele>966.2</ele>
        <time>2021-06-30T15:18:03.000+02:00</time>
      </trkpt>
      <trkpt lat="43.56056" lon="2.79937">
        <ele>966.2</ele>
        <time>2021-06-30T15:18:04.000+02:00</time>
      </trkpt>
      <trkpt lat="43.56058" lon="2.79937">
        <ele>966.1</ele>
        <time>2021-06-30T15:18:05.000+02:00</time>
      </trkpt>
      <trkpt lat="43.56059" lon="2.79937">
        <ele>966.2</ele>
        <time>2021-06-30T15:18:06.000+02:00</time>
      </trkpt>
      <trkpt lat="43.5606" lon="2.79937">
        <ele>966.2</ele>
        <time>2021-06-30T15:18:07.000+02:00</time>
      </trkpt>
      <trkpt lat="43.56061" lon="2.79936">
        <ele>966.2</ele>
        <time>2021-06-30T15:18:08.000+02:00</time>
      </trkpt>
      <trkpt lat="43.56062" lon="2.79936">
        <ele>966.1</ele>
        <time>2021-06-30T15:18:09.000+02:00</time>
      </trkpt>
      <trkpt lat="43.56064" lon="2.79936">
        <ele>966.2</ele>
        <time>2021-06-30T15:18:10.000+02:00</time>
      </trkpt>
      <trkpt lat="43.56065" lon="2.79936">
        <ele>966.2</ele>
        <time>2021-06-30T15:18:11.000+02:00</time>
      </trkpt>
      <trkpt lat="43.56066" lon="2.79936">
        <ele>966.3</ele>
        <time>2021-06-30T15:18:12.000+02:00</time>
      </trkpt>
      <trkpt lat="43.56067" lon="2.79936">
        <ele>966.3</ele>
        <time>2021-06-30T15:18:13.000+02:00</time>
      </trkpt>
      <trkpt lat="43.56068" lon="2.79935">
        <ele>966.2</ele>
        <time>2021-06-30T15:18:14.000+02:00</time>
      </trkpt>
      <trkpt lat="43.56069" lon="2.79935">
        <ele>966.2</ele>
        <time>2021-06-30T15:18:15.000+02:00</time>
      </trkpt>
      <trkpt lat="43.5607" lon="2.79935">
        <ele>966.2</ele>
        <time>2021-06-30T15:18:16.000+02:00</time>
      </trkpt>
      <trkpt lat="43.5607" lon="2.79934">
        <ele>966.2</ele>
        <time>2021-06-30T15:18:17.000+02:00</time>
      </trkpt>
      <trkpt lat="43.56071" lon="2.79935">
        <ele>966.3</ele>
        <time>2021-06-30T15:18:18.000+02:00</time>
      </trkpt>
      <trkpt lat="43.56071" lon="2.79935">
        <ele>966.3</ele>
        <time>2021-06-30T15:18:19.000+02:00</time>
      </trkpt>
      <trkpt lat="43.56072" lon="2.79935">
        <ele>966.3</ele>
        <time>2021-06-30T15:18:20.000+02:00</time>
      </trkpt>
      <trkpt lat="43.56072" lon="2.79936">
        <ele>966.4</ele>
        <time>2021-06-30T15:18:21.000+02:00</time>
      </trkpt>
      <trkpt lat="43.56073" lon="2.79936">
        <ele>966.4</ele>
        <time>2021-06-30T15:18:22.000+02:00</time>
      </trkpt>
      <trkpt lat="43.56074" lon="2.79937">
        <ele>966.5</ele>
        <time>2021-06-30T15:18:23.000+02:00</time>
      </trkpt>
      <trkpt lat="43.56075" lon="2.79937">
        <ele>966.6</ele>
        <time>2021-06-30T15:18:24.000+02:00</time>
      </trkpt>
      <trkpt lat="43.56076" lon="2.79938">
        <ele>966.6</ele>
        <time>2021-06-30T15:18:25.000+02:00</time>
      </trkpt>
      <trkpt lat="43.56077" lon="2.79938">
        <ele>966.7</ele>
        <time>2021-06-30T15:18:26.000+02:00</time>
      </trkpt>
      <trkpt lat="43.56078" lon="2.79938">
        <ele>966.7</ele>
        <time>2021-06-30T15:18:27.000+02:00</time>
      </trkpt>
      <trkpt lat="43.56079" lon="2.79938">
        <ele>966.7</ele>
        <time>2021-06-30T15:18:28.000+02:00</time>
      </trkpt>
      <trkpt lat="43.5608" lon="2.79938">
        <ele>966.7</ele>
        <time>2021-06-30T15:18:29.000+02:00</time>
      </trkpt>
      <trkpt lat="43.5608" lon="2.79939">
        <ele>966.8</ele>
        <time>2021-06-30T15:18:30.000+02:00</time>
      </trkpt>
      <trkpt lat="43.56081" lon="2.79939">
        <ele>966.8</ele>
        <time>2021-06-30T15:18:31.000+02:00</time>
      </trkpt>
      <trkpt lat="43.56082" lon="2.79938">
        <ele>966.8</ele>
        <time>2021-06-30T15:18:32.000+02:00</time>
      </trkpt>
      <trkpt lat="43.56084" lon="2.79937">
        <ele>966.8</ele>
        <time>2021-06-30T15:18:33.000+02:00</time>
      </trkpt>
      <trkpt lat="43.56085" lon="2.79937">
        <ele>966.8</ele>
        <time>2021-06-30T15:18:34.000+02:00</time>
      </trkpt>
      <trkpt lat="43.56087" lon="2.79936">
        <ele>966.8</ele>
        <time>2021-06-30T15:18:35.000+02:00</time>
      </trkpt>
      <trkpt lat="43.56088" lon="2.79936">
        <ele>966.8</ele>
        <time>2021-06-30T15:18:36.000+02:00</time>
      </trkpt>
      <trkpt lat="43.5609" lon="2.79936">
        <ele>966.9</ele>
        <time>2021-06-30T15:18:37.000+02:00</time>
      </trkpt>
      <trkpt lat="43.56091" lon="2.79936">
        <ele>967</ele>
        <time>2021-06-30T15:18:38.000+02:00</time>
      </trkpt>
      <trkpt lat="43.56093" lon="2.79936">
        <ele>967</ele>
        <time>2021-06-30T15:18:39.000+02:00</time>
      </trkpt>
      <trkpt lat="43.56094" lon="2.79937">
        <ele>967</ele>
        <time>2021-06-30T15:18:40.000+02:00</time>
      </trkpt>
      <trkpt lat="43.56095" lon="2.79937">
        <ele>967.1</ele>
        <time>2021-06-30T15:18:41.000+02:00</time>
      </trkpt>
      <trkpt lat="43.56096" lon="2.79937">
        <ele>967.2</ele>
        <time>2021-06-30T15:18:42.000+02:00</time>
      </trkpt>
      <trkpt lat="43.56098" lon="2.79937">
        <ele>967.3</ele>
        <time>2021-06-30T15:18:43.000+02:00</time>
      </trkpt>
      <trkpt lat="43.56099" lon="2.79937">
        <ele>967.3</ele>
        <time>2021-06-30T15:18:44.000+02:00</time>
      </trkpt>
      <trkpt lat="43.561" lon="2.79938">
        <ele>967.4</ele>
        <time>2021-06-30T15:18:45.000+02:00</time>
      </trkpt>
      <trkpt lat="43.56101" lon="2.79937">
        <ele>967.4</ele>
        <time>2021-06-30T15:18:46.000+02:00</time>
      </trkpt>
      <trkpt lat="43.56102" lon="2.79937">
        <ele>967.4</ele>
        <time>2021-06-30T15:18:47.000+02:00</time>
      </trkpt>
      <trkpt lat="43.56103" lon="2.79937">
        <ele>967.5</ele>
        <time>2021-06-30T15:18:48.000+02:00</time>
      </trkpt>
      <trkpt lat="43.56104" lon="2.79938">
        <ele>967.5</ele>
        <time>2021-06-30T15:18:49.000+02:00</time>
      </trkpt>
      <trkpt lat="43.56105" lon="2.79937">
        <ele>967.5</ele>
        <time>2021-06-30T15:18:50.000+02:00</time>
      </trkpt>
      <trkpt lat="43.56106" lon="2.79937">
        <ele>967.5</ele>
        <time>2021-06-30T15:18:51.000+02:00</time>
      </trkpt>
      <trkpt lat="43.56106" lon="2.79937">
        <ele>967.5</ele>
        <time>2021-06-30T15:18:52.000+02:00</time>
      </trkpt>
      <trkpt lat="43.56107" lon="2.79936">
        <ele>967.5</ele>
        <time>2021-06-30T15:18:53.000+02:00</time>
      </trkpt>
      <trkpt lat="43.56108" lon="2.79936">
        <ele>967.5</ele>
        <time>2021-06-30T15:18:54.000+02:00</time>
      </trkpt>
      <trkpt lat="43.56108" lon="2.79936">
        <ele>967.5</ele>
        <time>2021-06-30T15:18:55.000+02:00</time>
      </trkpt>
      <trkpt lat="43.56109" lon="2.79936">
        <ele>967.5</ele>
        <time>2021-06-30T15:18:56.000+02:00</time>
      </trkpt>
      <trkpt lat="43.5611" lon="2.79936">
        <ele>967.5</ele>
        <time>2021-06-30T15:18:57.000+02:00</time>
      </trkpt>
      <trkpt lat="43.56111" lon="2.79936">
        <ele>967.6</ele>
        <time>2021-06-30T15:18:58.000+02:00</time>
      </trkpt>
      <trkpt lat="43.56113" lon="2.79936">
        <ele>967.7</ele>
        <time>2021-06-30T15:18:59.000+02:00</time>
      </trkpt>
      <trkpt lat="43.56115" lon="2.79935">
        <ele>967.7</ele>
        <time>2021-06-30T15:19:00.000+02:00</time>
      </trkpt>
      <trkpt lat="43.56116" lon="2.79935">
        <ele>967.7</ele>
        <time>2021-06-30T15:19:01.000+02:00</time>
      </trkpt>
      <trkpt lat="43.56118" lon="2.79934">
        <ele>967.7</ele>
        <time>2021-06-30T15:19:02.000+02:00</time>
      </trkpt>
      <trkpt lat="43.56119" lon="2.79934">
        <ele>967.7</ele>
        <time>2021-06-30T15:19:03.000+02:00</time>
      </trkpt>
      <trkpt lat="43.56119" lon="2.79934">
        <ele>967.7</ele>
        <time>2021-06-30T15:19:04.000+02:00</time>
      </trkpt>
      <trkpt lat="43.5612" lon="2.79933">
        <ele>967.7</ele>
        <time>2021-06-30T15:19:05.000+02:00</time>
      </trkpt>
      <trkpt lat="43.5612" lon="2.79933">
        <ele>967.7</ele>
        <time>2021-06-30T15:19:06.000+02:00</time>
      </trkpt>
      <trkpt lat="43.56121" lon="2.79932">
        <ele>967.7</ele>
        <time>2021-06-30T15:19:07.000+02:00</time>
      </trkpt>
      <trkpt lat="43.56121" lon="2.79932">
        <ele>967.7</ele>
        <time>2021-06-30T15:19:08.000+02:00</time>
      </trkpt>
      <trkpt lat="43.56122" lon="2.79932">
        <ele>967.7</ele>
        <time>2021-06-30T15:19:09.000+02:00</time>
      </trkpt>
      <trkpt lat="43.56123" lon="2.79931">
        <ele>967.7</ele>
        <time>2021-06-30T15:19:10.000+02:00</time>
      </trkpt>
      <trkpt lat="43.56123" lon="2.79931">
        <ele>967.6</ele>
        <time>2021-06-30T15:19:11.000+02:00</time>
      </trkpt>
      <trkpt lat="43.56124" lon="2.7993">
        <ele>967.6</ele>
        <time>2021-06-30T15:19:12.000+02:00</time>
      </trkpt>
      <trkpt lat="43.56125" lon="2.7993">
        <ele>967.6</ele>
        <time>2021-06-30T15:19:13.000+02:00</time>
      </trkpt>
      <trkpt lat="43.56125" lon="2.7993">
        <ele>967.6</ele>
        <time>2021-06-30T15:19:14.000+02:00</time>
      </trkpt>
      <trkpt lat="43.56125" lon="2.7993">
        <ele>967.6</ele>
        <time>2021-06-30T15:19:15.000+02:00</time>
      </trkpt>
      <trkpt lat="43.56126" lon="2.79929">
        <ele>967.6</ele>
        <time>2021-06-30T15:19:16.000+02:00</time>
      </trkpt>
      <trkpt lat="43.56127" lon="2.79929">
        <ele>967.6</ele>
        <time>2021-06-30T15:19:17.000+02:00</time>
      </trkpt>
      <trkpt lat="43.56127" lon="2.79928">
        <ele>967.5</ele>
        <time>2021-06-30T15:19:18.000+02:00</time>
      </trkpt>
      <trkpt lat="43.56127" lon="2.79927">
        <ele>967.4</ele>
        <time>2021-06-30T15:19:19.000+02:00</time>
      </trkpt>
      <trkpt lat="43.56127" lon="2.79927">
        <ele>967.4</ele>
        <time>2021-06-30T15:19:20.000+02:00</time>
      </trkpt>
      <trkpt lat="43.56128" lon="2.79926">
        <ele>967.4</ele>
        <time>2021-06-30T15:19:21.000+02:00</time>
      </trkpt>
      <trkpt lat="43.56128" lon="2.79926">
        <ele>967.4</ele>
        <time>2021-06-30T15:19:22.000+02:00</time>
      </trkpt>
      <trkpt lat="43.56129" lon="2.79926">
        <ele>967.4</ele>
        <time>2021-06-30T15:19:23.000+02:00</time>
      </trkpt>
      <trkpt lat="43.56129" lon="2.79925">
        <ele>967.4</ele>
        <time>2021-06-30T15:19:24.000+02:00</time>
      </trkpt>
      <trkpt lat="43.5613" lon="2.79924">
        <ele>967.3</ele>
        <time>2021-06-30T15:19:25.000+02:00</time>
      </trkpt>
      <trkpt lat="43.56131" lon="2.79924">
        <ele>967.3</ele>
        <time>2021-06-30T15:19:26.000+02:00</time>
      </trkpt>
      <trkpt lat="43.56132" lon="2.79923">
        <ele>967.3</ele>
        <time>2021-06-30T15:19:27.000+02:00</time>
      </trkpt>
      <trkpt lat="43.56132" lon="2.79923">
        <ele>967.3</ele>
        <time>2021-06-30T15:19:28.000+02:00</time>
      </trkpt>
      <trkpt lat="43.56133" lon="2.79923">
        <ele>967.3</ele>
        <time>2021-06-30T15:19:29.000+02:00</time>
      </trkpt>
      <trkpt lat="43.56134" lon="2.79923">
        <ele>967.3</ele>
        <time>2021-06-30T15:19:30.000+02:00</time>
      </trkpt>
      <trkpt lat="43.56135" lon="2.79923">
        <ele>967.4</ele>
        <time>2021-06-30T15:19:31.000+02:00</time>
      </trkpt>
      <trkpt lat="43.56136" lon="2.79922">
        <ele>967.3</ele>
        <time>2021-06-30T15:19:32.000+02:00</time>
      </trkpt>
      <trkpt lat="43.56137" lon="2.79921">
        <ele>967.3</ele>
        <time>2021-06-30T15:19:33.000+02:00</time>
      </trkpt>
      <trkpt lat="43.56138" lon="2.7992">
        <ele>967.3</ele>
        <time>2021-06-30T15:19:34.000+02:00</time>
      </trkpt>
      <trkpt lat="43.56138" lon="2.7992">
        <ele>967.3</ele>
        <time>2021-06-30T15:19:35.000+02:00</time>
      </trkpt>
      <trkpt lat="43.56139" lon="2.7992">
        <ele>967.2</ele>
        <time>2021-06-30T15:19:36.000+02:00</time>
      </trkpt>
      <trkpt lat="43.56139" lon="2.79919">
        <ele>967.2</ele>
        <time>2021-06-30T15:19:37.000+02:00</time>
      </trkpt>
      <trkpt lat="43.56139" lon="2.79918">
        <ele>967.1</ele>
        <time>2021-06-30T15:19:38.000+02:00</time>
      </trkpt>
      <trkpt lat="43.5614" lon="2.79918">
        <ele>967.1</ele>
        <time>2021-06-30T15:19:39.000+02:00</time>
      </trkpt>
      <trkpt lat="43.5614" lon="2.79918">
        <ele>967.1</ele>
        <time>2021-06-30T15:19:40.000+02:00</time>
      </trkpt>
      <trkpt lat="43.5614" lon="2.79917">
        <ele>967.1</ele>
        <time>2021-06-30T15:19:41.000+02:00</time>
      </trkpt>
      <trkpt lat="43.56141" lon="2.79917">
        <ele>967.1</ele>
        <time>2021-06-30T15:19:42.000+02:00</time>
      </trkpt>
      <trkpt lat="43.56142" lon="2.79916">
        <ele>967.1</ele>
        <time>2021-06-30T15:19:43.000+02:00</time>
      </trkpt>
      <trkpt lat="43.56142" lon="2.79916">
        <ele>967.1</ele>
        <time>2021-06-30T15:19:44.000+02:00</time>
      </trkpt>
      <trkpt lat="43.56143" lon="2.79916">
        <ele>967.1</ele>
        <time>2021-06-30T15:19:45.000+02:00</time>
      </trkpt>
      <trkpt lat="43.56144" lon="2.79915">
        <ele>967.1</ele>
        <time>2021-06-30T15:19:46.000+02:00</time>
      </trkpt>
      <trkpt lat="43.56145" lon="2.79915">
        <ele>967.2</ele>
        <time>2021-06-30T15:19:47.000+02:00</time>
      </trkpt>
      <trkpt lat="43.56146" lon="2.79915">
        <ele>967.2</ele>
        <time>2021-06-30T15:19:48.000+02:00</time>
      </trkpt>
      <trkpt lat="43.56147" lon="2.79915">
        <ele>967.2</ele>
        <time>2021-06-30T15:19:49.000+02:00</time>
      </trkpt>
      <trkpt lat="43.56147" lon="2.79914">
        <ele>967.2</ele>
        <time>2021-06-30T15:19:50.000+02:00</time>
      </trkpt>
      <trkpt lat="43.56148" lon="2.79914">
        <ele>967.2</ele>
        <time>2021-06-30T15:19:51.000+02:00</time>
      </trkpt>
      <trkpt lat="43.56149" lon="2.79913">
        <ele>967.2</ele>
        <time>2021-06-30T15:19:52.000+02:00</time>
      </trkpt>
      <trkpt lat="43.5615" lon="2.79913">
        <ele>967.2</ele>
        <time>2021-06-30T15:19:53.000+02:00</time>
      </trkpt>
      <trkpt lat="43.56151" lon="2.79913">
        <ele>967.2</ele>
        <time>2021-06-30T15:19:54.000+02:00</time>
      </trkpt>
      <trkpt lat="43.56152" lon="2.79912">
        <ele>967.2</ele>
        <time>2021-06-30T15:19:55.000+02:00</time>
      </trkpt>
      <trkpt lat="43.56153" lon="2.79912">
        <ele>967.3</ele>
        <time>2021-06-30T15:19:56.000+02:00</time>
      </trkpt>
      <trkpt lat="43.56154" lon="2.79912">
        <ele>967.3</ele>
        <time>2021-06-30T15:19:57.000+02:00</time>
      </trkpt>
      <trkpt lat="43.56156" lon="2.79911">
        <ele>967.3</ele>
        <time>2021-06-30T15:19:58.000+02:00</time>
      </trkpt>
      <trkpt lat="43.56158" lon="2.79911">
        <ele>967.4</ele>
        <time>2021-06-30T15:19:59.000+02:00</time>
      </trkpt>
      <trkpt lat="43.56159" lon="2.7991">
        <ele>967.4</ele>
        <time>2021-06-30T15:20:00.000+02:00</time>
      </trkpt>
      <trkpt lat="43.56161" lon="2.7991">
        <ele>967.4</ele>
        <time>2021-06-30T15:20:01.000+02:00</time>
      </trkpt>
      <trkpt lat="43.56162" lon="2.79909">
        <ele>967.4</ele>
        <time>2021-06-30T15:20:02.000+02:00</time>
      </trkpt>
      <trkpt lat="43.56164" lon="2.79908">
        <ele>967.4</ele>
        <time>2021-06-30T15:20:03.000+02:00</time>
      </trkpt>
      <trkpt lat="43.56164" lon="2.79908">
        <ele>967.4</ele>
        <time>2021-06-30T15:20:04.000+02:00</time>
      </trkpt>
      <trkpt lat="43.56165" lon="2.79907">
        <ele>967.4</ele>
        <time>2021-06-30T15:20:05.000+02:00</time>
      </trkpt>
      <trkpt lat="43.56167" lon="2.79906">
        <ele>967.4</ele>
        <time>2021-06-30T15:20:06.000+02:00</time>
      </trkpt>
      <trkpt lat="43.56168" lon="2.79906">
        <ele>967.3</ele>
        <time>2021-06-30T15:20:07.000+02:00</time>
      </trkpt>
      <trkpt lat="43.56169" lon="2.79905">
        <ele>967.3</ele>
        <time>2021-06-30T15:20:08.000+02:00</time>
      </trkpt>
      <trkpt lat="43.5617" lon="2.79905">
        <ele>967.2</ele>
        <time>2021-06-30T15:20:09.000+02:00</time>
      </trkpt>
      <trkpt lat="43.5617" lon="2.79905">
        <ele>967.2</ele>
        <time>2021-06-30T15:20:10.000+02:00</time>
      </trkpt>
      <trkpt lat="43.56172" lon="2.79904">
        <ele>967.2</ele>
        <time>2021-06-30T15:20:11.000+02:00</time>
      </trkpt>
      <trkpt lat="43.56173" lon="2.79905">
        <ele>967.2</ele>
        <time>2021-06-30T15:20:12.000+02:00</time>
      </trkpt>
      <trkpt lat="43.56174" lon="2.79904">
        <ele>967.1</ele>
        <time>2021-06-30T15:20:13.000+02:00</time>
      </trkpt>
      <trkpt lat="43.56175" lon="2.79903">
        <ele>967</ele>
        <time>2021-06-30T15:20:14.000+02:00</time>
      </trkpt>
      <trkpt lat="43.56176" lon="2.79902">
        <ele>966.9</ele>
        <time>2021-06-30T15:20:15.000+02:00</time>
      </trkpt>
      <trkpt lat="43.56176" lon="2.79902">
        <ele>966.9</ele>
        <time>2021-06-30T15:20:16.000+02:00</time>
      </trkpt>
      <trkpt lat="43.56177" lon="2.79901">
        <ele>966.9</ele>
        <time>2021-06-30T15:20:17.000+02:00</time>
      </trkpt>
      <trkpt lat="43.56177" lon="2.79901">
        <ele>966.9</ele>
        <time>2021-06-30T15:20:18.000+02:00</time>
      </trkpt>
      <trkpt lat="43.56177" lon="2.79901">
        <ele>966.8</ele>
        <time>2021-06-30T15:20:19.000+02:00</time>
      </trkpt>
      <trkpt lat="43.56178" lon="2.79901">
        <ele>966.8</ele>
        <time>2021-06-30T15:20:20.000+02:00</time>
      </trkpt>
      <trkpt lat="43.56178" lon="2.79901">
        <ele>966.8</ele>
        <time>2021-06-30T15:20:21.000+02:00</time>
      </trkpt>
      <trkpt lat="43.56179" lon="2.79901">
        <ele>966.8</ele>
        <time>2021-06-30T15:20:22.000+02:00</time>
      </trkpt>
      <trkpt lat="43.5618" lon="2.799">
        <ele>966.8</ele>
        <time>2021-06-30T15:20:23.000+02:00</time>
      </trkpt>
      <trkpt lat="43.56181" lon="2.79899">
        <ele>966.7</ele>
        <time>2021-06-30T15:20:24.000+02:00</time>
      </trkpt>
      <trkpt lat="43.56182" lon="2.79899">
        <ele>966.6</ele>
        <time>2021-06-30T15:20:25.000+02:00</time>
      </trkpt>
      <trkpt lat="43.56183" lon="2.79898">
        <ele>966.6</ele>
        <time>2021-06-30T15:20:26.000+02:00</time>
      </trkpt>
      <trkpt lat="43.56184" lon="2.79898">
        <ele>966.6</ele>
        <time>2021-06-30T15:20:27.000+02:00</time>
      </trkpt>
      <trkpt lat="43.56186" lon="2.79898">
        <ele>966.5</ele>
        <time>2021-06-30T15:20:28.000+02:00</time>
      </trkpt>
      <trkpt lat="43.56187" lon="2.79898">
        <ele>966.5</ele>
        <time>2021-06-30T15:20:29.000+02:00</time>
      </trkpt>
      <trkpt lat="43.56188" lon="2.79897">
        <ele>966.4</ele>
        <time>2021-06-30T15:20:30.000+02:00</time>
      </trkpt>
      <trkpt lat="43.56189" lon="2.79896">
        <ele>966.4</ele>
        <time>2021-06-30T15:20:31.000+02:00</time>
      </trkpt>
      <trkpt lat="43.5619" lon="2.79895">
        <ele>966.3</ele>
        <time>2021-06-30T15:20:32.000+02:00</time>
      </trkpt>
      <trkpt lat="43.56192" lon="2.79894">
        <ele>966.2</ele>
        <time>2021-06-30T15:20:33.000+02:00</time>
      </trkpt>
      <trkpt lat="43.56192" lon="2.79894">
        <ele>966.2</ele>
        <time>2021-06-30T15:20:34.000+02:00</time>
      </trkpt>
      <trkpt lat="43.56193" lon="2.79894">
        <ele>966.2</ele>
        <time>2021-06-30T15:20:35.000+02:00</time>
      </trkpt>
      <trkpt lat="43.56194" lon="2.79894">
        <ele>966.1</ele>
        <time>2021-06-30T15:20:36.000+02:00</time>
      </trkpt>
      <trkpt lat="43.56195" lon="2.79893">
        <ele>966.1</ele>
        <time>2021-06-30T15:20:37.000+02:00</time>
      </trkpt>
      <trkpt lat="43.56197" lon="2.79892">
        <ele>966</ele>
        <time>2021-06-30T15:20:38.000+02:00</time>
      </trkpt>
      <trkpt lat="43.56198" lon="2.79892">
        <ele>966</ele>
        <time>2021-06-30T15:20:39.000+02:00</time>
      </trkpt>
      <trkpt lat="43.56199" lon="2.79891">
        <ele>965.9</ele>
        <time>2021-06-30T15:20:40.000+02:00</time>
      </trkpt>
      <trkpt lat="43.562" lon="2.79891">
        <ele>965.9</ele>
        <time>2021-06-30T15:20:41.000+02:00</time>
      </trkpt>
      <trkpt lat="43.562" lon="2.7989">
        <ele>965.9</ele>
        <time>2021-06-30T15:20:42.000+02:00</time>
      </trkpt>
      <trkpt lat="43.56201" lon="2.7989">
        <ele>965.8</ele>
        <time>2021-06-30T15:20:43.000+02:00</time>
      </trkpt>
      <trkpt lat="43.56201" lon="2.79889">
        <ele>965.8</ele>
        <time>2021-06-30T15:20:44.000+02:00</time>
      </trkpt>
      <trkpt lat="43.56203" lon="2.79889">
        <ele>965.8</ele>
        <time>2021-06-30T15:20:45.000+02:00</time>
      </trkpt>
      <trkpt lat="43.56204" lon="2.79889">
        <ele>965.7</ele>
        <time>2021-06-30T15:20:46.000+02:00</time>
      </trkpt>
      <trkpt lat="43.56206" lon="2.79888">
        <ele>965.7</ele>
        <time>2021-06-30T15:20:47.000+02:00</time>
      </trkpt>
      <trkpt lat="43.56206" lon="2.79888">
        <ele>965.7</ele>
        <time>2021-06-30T15:20:48.000+02:00</time>
      </trkpt>
      <trkpt lat="43.56207" lon="2.79888">
        <ele>965.6</ele>
        <time>2021-06-30T15:20:49.000+02:00</time>
      </trkpt>
      <trkpt lat="43.56208" lon="2.79888">
        <ele>965.6</ele>
        <time>2021-06-30T15:20:50.000+02:00</time>
      </trkpt>
      <trkpt lat="43.5621" lon="2.79888">
        <ele>965.6</ele>
        <time>2021-06-30T15:20:51.000+02:00</time>
      </trkpt>
      <trkpt lat="43.56211" lon="2.79888">
        <ele>965.6</ele>
        <time>2021-06-30T15:20:52.000+02:00</time>
      </trkpt>
      <trkpt lat="43.56211" lon="2.79888">
        <ele>965.6</ele>
        <time>2021-06-30T15:20:53.000+02:00</time>
      </trkpt>
      <trkpt lat="43.56212" lon="2.79888">
        <ele>965.6</ele>
        <time>2021-06-30T15:20:54.000+02:00</time>
      </trkpt>
      <trkpt lat="43.56213" lon="2.79888">
        <ele>965.6</ele>
        <time>2021-06-30T15:20:55.000+02:00</time>
      </trkpt>
      <trkpt lat="43.56214" lon="2.79888">
        <ele>965.5</ele>
        <time>2021-06-30T15:20:56.000+02:00</time>
      </trkpt>
      <trkpt lat="43.56214" lon="2.79888">
        <ele>965.5</ele>
        <time>2021-06-30T15:20:57.000+02:00</time>
      </trkpt>
      <trkpt lat="43.56214" lon="2.79888">
        <ele>965.5</ele>
        <time>2021-06-30T15:20:58.000+02:00</time>
      </trkpt>
      <trkpt lat="43.56214" lon="2.79888">
        <ele>965.5</ele>
        <time>2021-06-30T15:20:59.000+02:00</time>
      </trkpt>
      <trkpt lat="43.56215" lon="2.79889">
        <ele>965.6</ele>
        <time>2021-06-30T15:21:00.000+02:00</time>
      </trkpt>
      <trkpt lat="43.56215" lon="2.79889">
        <ele>965.6</ele>
        <time>2021-06-30T15:21:01.000+02:00</time>
      </trkpt>
      <trkpt lat="43.56216" lon="2.79889">
        <ele>965.6</ele>
        <time>2021-06-30T15:21:02.000+02:00</time>
      </trkpt>
      <trkpt lat="43.56216" lon="2.7989">
        <ele>965.6</ele>
        <time>2021-06-30T15:21:03.000+02:00</time>
      </trkpt>
      <trkpt lat="43.56216" lon="2.7989">
        <ele>965.6</ele>
        <time>2021-06-30T15:21:04.000+02:00</time>
      </trkpt>
      <trkpt lat="43.56217" lon="2.7989">
        <ele>965.6</ele>
        <time>2021-06-30T15:21:05.000+02:00</time>
      </trkpt>
      <trkpt lat="43.56218" lon="2.79891">
        <ele>965.6</ele>
        <time>2021-06-30T15:21:06.000+02:00</time>
      </trkpt>
      <trkpt lat="43.56218" lon="2.79892">
        <ele>965.6</ele>
        <time>2021-06-30T15:21:07.000+02:00</time>
      </trkpt>
      <trkpt lat="43.56219" lon="2.79893">
        <ele>965.7</ele>
        <time>2021-06-30T15:21:08.000+02:00</time>
      </trkpt>
      <trkpt lat="43.5622" lon="2.79894">
        <ele>965.7</ele>
        <time>2021-06-30T15:21:09.000+02:00</time>
      </trkpt>
      <trkpt lat="43.5622" lon="2.79895">
        <ele>965.7</ele>
        <time>2021-06-30T15:21:10.000+02:00</time>
      </trkpt>
      <trkpt lat="43.56221" lon="2.79896">
        <ele>965.8</ele>
        <time>2021-06-30T15:21:11.000+02:00</time>
      </trkpt>
      <trkpt lat="43.56222" lon="2.79897">
        <ele>965.8</ele>
        <time>2021-06-30T15:21:12.000+02:00</time>
      </trkpt>
      <trkpt lat="43.56222" lon="2.79898">
        <ele>965.8</ele>
        <time>2021-06-30T15:21:13.000+02:00</time>
      </trkpt>
      <trkpt lat="43.56223" lon="2.79899">
        <ele>965.9</ele>
        <time>2021-06-30T15:21:14.000+02:00</time>
      </trkpt>
      <trkpt lat="43.56223" lon="2.79899">
        <ele>965.9</ele>
        <time>2021-06-30T15:21:15.000+02:00</time>
      </trkpt>
      <trkpt lat="43.56223" lon="2.799">
        <ele>965.9</ele>
        <time>2021-06-30T15:21:16.000+02:00</time>
      </trkpt>
      <trkpt lat="43.56222" lon="2.79899">
        <ele>965.9</ele>
        <time>2021-06-30T15:21:17.000+02:00</time>
      </trkpt>
      <trkpt lat="43.56222" lon="2.79899">
        <ele>965.9</ele>
        <time>2021-06-30T15:21:18.000+02:00</time>
      </trkpt>
      <trkpt lat="43.56222" lon="2.799">
        <ele>965.9</ele>
        <time>2021-06-30T15:21:19.000+02:00</time>
      </trkpt>
      <trkpt lat="43.56222" lon="2.799">
        <ele>965.9</ele>
        <time>2021-06-30T15:21:20.000+02:00</time>
      </trkpt>
      <trkpt lat="43.56222" lon="2.799">
        <ele>965.9</ele>
        <time>2021-06-30T15:21:21.000+02:00</time>
      </trkpt>
      <trkpt lat="43.56223" lon="2.799">
        <ele>965.9</ele>
        <time>2021-06-30T15:21:22.000+02:00</time>
      </trkpt>
      <trkpt lat="43.56223" lon="2.799">
        <ele>965.9</ele>
        <time>2021-06-30T15:21:23.000+02:00</time>
      </trkpt>
      <trkpt lat="43.56223" lon="2.799">
        <ele>965.9</ele>
        <time>2021-06-30T15:21:24.000+02:00</time>
      </trkpt>
      <trkpt lat="43.56223" lon="2.799">
        <ele>965.9</ele>
        <time>2021-06-30T15:21:25.000+02:00</time>
      </trkpt>
      <trkpt lat="43.56223" lon="2.799">
        <ele>965.9</ele>
        <time>2021-06-30T15:21:26.000+02:00</time>
      </trkpt>
      <trkpt lat="43.56223" lon="2.799">
        <ele>965.9</ele>
        <time>2021-06-30T15:21:27.000+02:00</time>
      </trkpt>
      <trkpt lat="43.56223" lon="2.799">
        <ele>965.9</ele>
        <time>2021-06-30T15:21:28.000+02:00</time>
      </trkpt>
      <trkpt lat="43.56223" lon="2.799">
        <ele>965.9</ele>
        <time>2021-06-30T15:21:29.000+02:00</time>
      </trkpt>
      <trkpt lat="43.56224" lon="2.79901">
        <ele>965.9</ele>
        <time>2021-06-30T15:21:30.000+02:00</time>
      </trkpt>
      <trkpt lat="43.56224" lon="2.79901">
        <ele>965.9</ele>
        <time>2021-06-30T15:21:31.000+02:00</time>
      </trkpt>
      <trkpt lat="43.56224" lon="2.79902">
        <ele>966</ele>
        <time>2021-06-30T15:21:32.000+02:00</time>
      </trkpt>
      <trkpt lat="43.56225" lon="2.79903">
        <ele>966</ele>
        <time>2021-06-30T15:21:33.000+02:00</time>
      </trkpt>
      <trkpt lat="43.56226" lon="2.79904">
        <ele>966</ele>
        <time>2021-06-30T15:21:34.000+02:00</time>
      </trkpt>
      <trkpt lat="43.56226" lon="2.79905">
        <ele>966.1</ele>
        <time>2021-06-30T15:21:35.000+02:00</time>
      </trkpt>
      <trkpt lat="43.56228" lon="2.79907">
        <ele>966.1</ele>
        <time>2021-06-30T15:21:36.000+02:00</time>
      </trkpt>
      <trkpt lat="43.56229" lon="2.79909">
        <ele>966.2</ele>
        <time>2021-06-30T15:21:37.000+02:00</time>
      </trkpt>
      <trkpt lat="43.56231" lon="2.79911">
        <ele>966.2</ele>
        <time>2021-06-30T15:21:38.000+02:00</time>
      </trkpt>
      <trkpt lat="43.56232" lon="2.79912">
        <ele>966.3</ele>
        <time>2021-06-30T15:21:39.000+02:00</time>
      </trkpt>
      <trkpt lat="43.56233" lon="2.79913">
        <ele>966.3</ele>
        <time>2021-06-30T15:21:40.000+02:00</time>
      </trkpt>
      <trkpt lat="43.56234" lon="2.79914">
        <ele>966.3</ele>
        <time>2021-06-30T15:21:41.000+02:00</time>
      </trkpt>
      <trkpt lat="43.56234" lon="2.79914">
        <ele>966.3</ele>
        <time>2021-06-30T15:21:42.000+02:00</time>
      </trkpt>
      <trkpt lat="43.56234" lon="2.79914">
        <ele>966.3</ele>
        <time>2021-06-30T15:21:43.000+02:00</time>
      </trkpt>
      <trkpt lat="43.56234" lon="2.79914">
        <ele>966.3</ele>
        <time>2021-06-30T15:21:44.000+02:00</time>
      </trkpt>
      <trkpt lat="43.56234" lon="2.79914">
        <ele>966.3</ele>
        <time>2021-06-30T15:21:45.000+02:00</time>
      </trkpt>
      <trkpt lat="43.56234" lon="2.79914">
        <ele>966.3</ele>
        <time>2021-06-30T15:21:46.000+02:00</time>
      </trkpt>
      <trkpt lat="43.56234" lon="2.79914">
        <ele>966.3</ele>
        <time>2021-06-30T15:21:47.000+02:00</time>
      </trkpt>
      <trkpt lat="43.56234" lon="2.79914">
        <ele>966.3</ele>
        <time>2021-06-30T15:21:48.000+02:00</time>
      </trkpt>
      <trkpt lat="43.56234" lon="2.79914">
        <ele>966.3</ele>
        <time>2021-06-30T15:21:49.000+02:00</time>
      </trkpt>
      <trkpt lat="43.56234" lon="2.79914">
        <ele>966.3</ele>
        <time>2021-06-30T15:21:50.000+02:00</time>
      </trkpt>
      <trkpt lat="43.56234" lon="2.79914">
        <ele>966.3</ele>
        <time>2021-06-30T15:21:51.000+02:00</time>
      </trkpt>
      <trkpt lat="43.56234" lon="2.79914">
        <ele>966.3</ele>
        <time>2021-06-30T15:21:52.000+02:00</time>
      </trkpt>
      <trkpt lat="43.56234" lon="2.79914">
        <ele>966.3</ele>
        <time>2021-06-30T15:21:53.000+02:00</time>
      </trkpt>
      <trkpt lat="43.56234" lon="2.79914">
        <ele>966.3</ele>
        <time>2021-06-30T15:21:54.000+02:00</time>
      </trkpt>
      <trkpt lat="43.56234" lon="2.79914">
        <ele>966.3</ele>
        <time>2021-06-30T15:21:55.000+02:00</time>
      </trkpt>
      <trkpt lat="43.56234" lon="2.79914">
        <ele>966.3</ele>
        <time>2021-06-30T15:21:56.000+02:00</time>
      </trkpt>
      <trkpt lat="43.56234" lon="2.79915">
        <ele>966.3</ele>
        <time>2021-06-30T15:21:57.000+02:00</time>
      </trkpt>
      <trkpt lat="43.56234" lon="2.79915">
        <ele>966.3</ele>
        <time>2021-06-30T15:21:58.000+02:00</time>
      </trkpt>
      <trkpt lat="43.56234" lon="2.79915">
        <ele>966.3</ele>
        <time>2021-06-30T15:21:59.000+02:00</time>
      </trkpt>
      <trkpt lat="43.56234" lon="2.79915">
        <ele>966.3</ele>
        <time>2021-06-30T15:22:00.000+02:00</time>
      </trkpt>
      <trkpt lat="43.56234" lon="2.79915">
        <ele>966.3</ele>
        <time>2021-06-30T15:22:01.000+02:00</time>
      </trkpt>
      <trkpt lat="43.56234" lon="2.79915">
        <ele>966.3</ele>
        <time>2021-06-30T15:22:02.000+02:00</time>
      </trkpt>
      <trkpt lat="43.56234" lon="2.79915">
        <ele>966.3</ele>
        <time>2021-06-30T15:22:03.000+02:00</time>
      </trkpt>
      <trkpt lat="43.56234" lon="2.79915">
        <ele>966.3</ele>
        <time>2021-06-30T15:22:04.000+02:00</time>
      </trkpt>
      <trkpt lat="43.56234" lon="2.79915">
        <ele>966.3</ele>
        <time>2021-06-30T15:22:05.000+02:00</time>
      </trkpt>
      <trkpt lat="43.56234" lon="2.79915">
        <ele>966.3</ele>
        <time>2021-06-30T15:22:06.000+02:00</time>
      </trkpt>
      <trkpt lat="43.56234" lon="2.79915">
        <ele>966.3</ele>
        <time>2021-06-30T15:22:07.000+02:00</time>
      </trkpt>
      <trkpt lat="43.56234" lon="2.79915">
        <ele>966.3</ele>
        <time>2021-06-30T15:22:08.000+02:00</time>
      </trkpt>
      <trkpt lat="43.56234" lon="2.79915">
        <ele>966.3</ele>
        <time>2021-06-30T15:22:09.000+02:00</time>
      </trkpt>
      <trkpt lat="43.56234" lon="2.79915">
        <ele>966.3</ele>
        <time>2021-06-30T15:22:10.000+02:00</time>
      </trkpt>
      <trkpt lat="43.56234" lon="2.79915">
        <ele>966.3</ele>
        <time>2021-06-30T15:22:11.000+02:00</time>
      </trkpt>
      <trkpt lat="43.56234" lon="2.79915">
        <ele>966.3</ele>
        <time>2021-06-30T15:22:12.000+02:00</time>
      </trkpt>
      <trkpt lat="43.56234" lon="2.79915">
        <ele>966.3</ele>
        <time>2021-06-30T15:22:13.000+02:00</time>
      </trkpt>
      <trkpt lat="43.56235" lon="2.79915">
        <ele>966.3</ele>
        <time>2021-06-30T15:22:14.000+02:00</time>
      </trkpt>
      <trkpt lat="43.56235" lon="2.79916">
        <ele>966.3</ele>
        <time>2021-06-30T15:22:15.000+02:00</time>
      </trkpt>
      <trkpt lat="43.56235" lon="2.79916">
        <ele>966.3</ele>
        <time>2021-06-30T15:22:16.000+02:00</time>
      </trkpt>
      <trkpt lat="43.56235" lon="2.79916">
        <ele>966.3</ele>
        <time>2021-06-30T15:22:17.000+02:00</time>
      </trkpt>
      <trkpt lat="43.56235" lon="2.79916">
        <ele>966.3</ele>
        <time>2021-06-30T15:22:18.000+02:00</time>
      </trkpt>
      <trkpt lat="43.56235" lon="2.79916">
        <ele>966.3</ele>
        <time>2021-06-30T15:22:19.000+02:00</time>
      </trkpt>
      <trkpt lat="43.56235" lon="2.79916">
        <ele>966.3</ele>
        <time>2021-06-30T15:22:20.000+02:00</time>
      </trkpt>
      <trkpt lat="43.56235" lon="2.79916">
        <ele>966.3</ele>
        <time>2021-06-30T15:22:21.000+02:00</time>
      </trkpt>
      <trkpt lat="43.56235" lon="2.79916">
        <ele>966.3</ele>
        <time>2021-06-30T15:22:22.000+02:00</time>
      </trkpt>
      <trkpt lat="43.56235" lon="2.79916">
        <ele>966.3</ele>
        <time>2021-06-30T15:22:23.000+02:00</time>
      </trkpt>
      <trkpt lat="43.56235" lon="2.79916">
        <ele>966.3</ele>
        <time>2021-06-30T15:22:24.000+02:00</time>
      </trkpt>
      <trkpt lat="43.56235" lon="2.79916">
        <ele>966.3</ele>
        <time>2021-06-30T15:22:25.000+02:00</time>
      </trkpt>
      <trkpt lat="43.56235" lon="2.79916">
        <ele>966.3</ele>
        <time>2021-06-30T15:22:26.000+02:00</time>
      </trkpt>
      <trkpt lat="43.56235" lon="2.79916">
        <ele>966.3</ele>
        <time>2021-06-30T15:22:27.000+02:00</time>
      </trkpt>
      <trkpt lat="43.56236" lon="2.79918">
        <ele>966.4</ele>
        <time>2021-06-30T15:22:28.000+02:00</time>
      </trkpt>
      <trkpt lat="43.56237" lon="2.79919">
        <ele>966.5</ele>
        <time>2021-06-30T15:22:29.000+02:00</time>
      </trkpt>
      <trkpt lat="43.56238" lon="2.7992">
        <ele>966.6</ele>
        <time>2021-06-30T15:22:30.000+02:00</time>
      </trkpt>
      <trkpt lat="43.56239" lon="2.79921">
        <ele>966.8</ele>
        <time>2021-06-30T15:22:31.000+02:00</time>
      </trkpt>
      <trkpt lat="43.5624" lon="2.79922">
        <ele>966.8</ele>
        <time>2021-06-30T15:22:32.000+02:00</time>
      </trkpt>
      <trkpt lat="43.56241" lon="2.79923">
        <ele>966.9</ele>
        <time>2021-06-30T15:22:33.000+02:00</time>
      </trkpt>
      <trkpt lat="43.56242" lon="2.79924">
        <ele>966.9</ele>
        <time>2021-06-30T15:22:34.000+02:00</time>
      </trkpt>
      <trkpt lat="43.56242" lon="2.79924">
        <ele>967</ele>
        <time>2021-06-30T15:22:35.000+02:00</time>
      </trkpt>
      <trkpt lat="43.56243" lon="2.79924">
        <ele>967</ele>
        <time>2021-06-30T15:22:36.000+02:00</time>
      </trkpt>
      <trkpt lat="43.56243" lon="2.79925">
        <ele>967</ele>
        <time>2021-06-30T15:22:37.000+02:00</time>
      </trkpt>
      <trkpt lat="43.56244" lon="2.79925">
        <ele>967.1</ele>
        <time>2021-06-30T15:22:38.000+02:00</time>
      </trkpt>
      <trkpt lat="43.56245" lon="2.79926">
        <ele>967.1</ele>
        <time>2021-06-30T15:22:39.000+02:00</time>
      </trkpt>
      <trkpt lat="43.56245" lon="2.79927">
        <ele>967.2</ele>
        <time>2021-06-30T15:22:40.000+02:00</time>
      </trkpt>
      <trkpt lat="43.56246" lon="2.79927">
        <ele>967.2</ele>
        <time>2021-06-30T15:22:41.000+02:00</time>
      </trkpt>
      <trkpt lat="43.56247" lon="2.79928">
        <ele>967.3</ele>
        <time>2021-06-30T15:22:42.000+02:00</time>
      </trkpt>
      <trkpt lat="43.56247" lon="2.79928">
        <ele>967.3</ele>
        <time>2021-06-30T15:22:43.000+02:00</time>
      </trkpt>
      <trkpt lat="43.56248" lon="2.79929">
        <ele>967.3</ele>
        <time>2021-06-30T15:22:44.000+02:00</time>
      </trkpt>
      <trkpt lat="43.56249" lon="2.79929">
        <ele>967.4</ele>
        <time>2021-06-30T15:22:45.000+02:00</time>
      </trkpt>
      <trkpt lat="43.56251" lon="2.79931">
        <ele>967.5</ele>
        <time>2021-06-30T15:22:46.000+02:00</time>
      </trkpt>
      <trkpt lat="43.56252" lon="2.79931">
        <ele>967.5</ele>
        <time>2021-06-30T15:22:47.000+02:00</time>
      </trkpt>
      <trkpt lat="43.56253" lon="2.79933">
        <ele>967.6</ele>
        <time>2021-06-30T15:22:48.000+02:00</time>
      </trkpt>
      <trkpt lat="43.56253" lon="2.79933">
        <ele>967.6</ele>
        <time>2021-06-30T15:22:49.000+02:00</time>
      </trkpt>
      <trkpt lat="43.56254" lon="2.79934">
        <ele>967.7</ele>
        <time>2021-06-30T15:22:50.000+02:00</time>
      </trkpt>
      <trkpt lat="43.56255" lon="2.79936">
        <ele>967.8</ele>
        <time>2021-06-30T15:22:51.000+02:00</time>
      </trkpt>
      <trkpt lat="43.56257" lon="2.79938">
        <ele>967.9</ele>
        <time>2021-06-30T15:22:52.000+02:00</time>
      </trkpt>
      <trkpt lat="43.56258" lon="2.79939">
        <ele>968</ele>
        <time>2021-06-30T15:22:53.000+02:00</time>
      </trkpt>
      <trkpt lat="43.56259" lon="2.79941">
        <ele>968</ele>
        <time>2021-06-30T15:22:54.000+02:00</time>
      </trkpt>
      <trkpt lat="43.56259" lon="2.79941">
        <ele>968</ele>
        <time>2021-06-30T15:22:55.000+02:00</time>
      </trkpt>
      <trkpt lat="43.56261" lon="2.79942">
        <ele>968.1</ele>
        <time>2021-06-30T15:22:56.000+02:00</time>
      </trkpt>
      <trkpt lat="43.56261" lon="2.79944">
        <ele>968.2</ele>
        <time>2021-06-30T15:22:57.000+02:00</time>
      </trkpt>
      <trkpt lat="43.56262" lon="2.79945">
        <ele>968.3</ele>
        <time>2021-06-30T15:22:58.000+02:00</time>
      </trkpt>
      <trkpt lat="43.56264" lon="2.79946">
        <ele>968.3</ele>
        <time>2021-06-30T15:22:59.000+02:00</time>
      </trkpt>
      <trkpt lat="43.56264" lon="2.79948">
        <ele>968.4</ele>
        <time>2021-06-30T15:23:00.000+02:00</time>
      </trkpt>
      <trkpt lat="43.56266" lon="2.79949">
        <ele>968.4</ele>
        <time>2021-06-30T15:23:01.000+02:00</time>
      </trkpt>
      <trkpt lat="43.56266" lon="2.7995">
        <ele>968.4</ele>
        <time>2021-06-30T15:23:02.000+02:00</time>
      </trkpt>
      <trkpt lat="43.56267" lon="2.79951">
        <ele>968.5</ele>
        <time>2021-06-30T15:23:03.000+02:00</time>
      </trkpt>
      <trkpt lat="43.56267" lon="2.79951">
        <ele>968.5</ele>
        <time>2021-06-30T15:23:04.000+02:00</time>
      </trkpt>
      <trkpt lat="43.56267" lon="2.79952">
        <ele>968.6</ele>
        <time>2021-06-30T15:23:05.000+02:00</time>
      </trkpt>
      <trkpt lat="43.56268" lon="2.79953">
        <ele>968.7</ele>
        <time>2021-06-30T15:23:06.000+02:00</time>
      </trkpt>
      <trkpt lat="43.56268" lon="2.79955">
        <ele>968.8</ele>
        <time>2021-06-30T15:23:07.000+02:00</time>
      </trkpt>
      <trkpt lat="43.56269" lon="2.79955">
        <ele>968.8</ele>
        <time>2021-06-30T15:23:08.000+02:00</time>
      </trkpt>
      <trkpt lat="43.56269" lon="2.79956">
        <ele>968.8</ele>
        <time>2021-06-30T15:23:09.000+02:00</time>
      </trkpt>
      <trkpt lat="43.56269" lon="2.79956">
        <ele>968.9</ele>
        <time>2021-06-30T15:23:10.000+02:00</time>
      </trkpt>
      <trkpt lat="43.56269" lon="2.79957">
        <ele>968.9</ele>
        <time>2021-06-30T15:23:11.000+02:00</time>
      </trkpt>
      <trkpt lat="43.56269" lon="2.79958">
        <ele>969</ele>
        <time>2021-06-30T15:23:12.000+02:00</time>
      </trkpt>
      <trkpt lat="43.56269" lon="2.79959">
        <ele>969</ele>
        <time>2021-06-30T15:23:13.000+02:00</time>
      </trkpt>
      <trkpt lat="43.5627" lon="2.7996">
        <ele>969.1</ele>
        <time>2021-06-30T15:23:14.000+02:00</time>
      </trkpt>
      <trkpt lat="43.5627" lon="2.79962">
        <ele>969.2</ele>
        <time>2021-06-30T15:23:15.000+02:00</time>
      </trkpt>
      <trkpt lat="43.56271" lon="2.79963">
        <ele>969.3</ele>
        <time>2021-06-30T15:23:16.000+02:00</time>
      </trkpt>
      <trkpt lat="43.56272" lon="2.79965">
        <ele>969.4</ele>
        <time>2021-06-30T15:23:17.000+02:00</time>
      </trkpt>
      <trkpt lat="43.56272" lon="2.79966">
        <ele>969.5</ele>
        <time>2021-06-30T15:23:18.000+02:00</time>
      </trkpt>
      <trkpt lat="43.56273" lon="2.79968">
        <ele>969.5</ele>
        <time>2021-06-30T15:23:19.000+02:00</time>
      </trkpt>
      <trkpt lat="43.56273" lon="2.79969">
        <ele>969.6</ele>
        <time>2021-06-30T15:23:20.000+02:00</time>
      </trkpt>
      <trkpt lat="43.56273" lon="2.7997">
        <ele>969.7</ele>
        <time>2021-06-30T15:23:21.000+02:00</time>
      </trkpt>
      <trkpt lat="43.56274" lon="2.79971">
        <ele>969.7</ele>
        <time>2021-06-30T15:23:22.000+02:00</time>
      </trkpt>
      <trkpt lat="43.56274" lon="2.79973">
        <ele>969.8</ele>
        <time>2021-06-30T15:23:23.000+02:00</time>
      </trkpt>
      <trkpt lat="43.56275" lon="2.79975">
        <ele>969.9</ele>
        <time>2021-06-30T15:23:24.000+02:00</time>
      </trkpt>
      <trkpt lat="43.56276" lon="2.79976">
        <ele>969.9</ele>
        <time>2021-06-30T15:23:25.000+02:00</time>
      </trkpt>
      <trkpt lat="43.56277" lon="2.79977">
        <ele>970</ele>
        <time>2021-06-30T15:23:26.000+02:00</time>
      </trkpt>
      <trkpt lat="43.56278" lon="2.79978">
        <ele>970</ele>
        <time>2021-06-30T15:23:27.000+02:00</time>
      </trkpt>
      <trkpt lat="43.56278" lon="2.79979">
        <ele>970</ele>
        <time>2021-06-30T15:23:28.000+02:00</time>
      </trkpt>
      <trkpt lat="43.56278" lon="2.7998">
        <ele>970</ele>
        <time>2021-06-30T15:23:29.000+02:00</time>
      </trkpt>
      <trkpt lat="43.56279" lon="2.7998">
        <ele>970</ele>
        <time>2021-06-30T15:23:30.000+02:00</time>
      </trkpt>
      <trkpt lat="43.5628" lon="2.79981">
        <ele>969.9</ele>
        <time>2021-06-30T15:23:31.000+02:00</time>
      </trkpt>
      <trkpt lat="43.56281" lon="2.79982">
        <ele>969.9</ele>
        <time>2021-06-30T15:23:32.000+02:00</time>
      </trkpt>
      <trkpt lat="43.56281" lon="2.79983">
        <ele>969.9</ele>
        <time>2021-06-30T15:23:33.000+02:00</time>
      </trkpt>
      <trkpt lat="43.56282" lon="2.79985">
        <ele>969.9</ele>
        <time>2021-06-30T15:23:34.000+02:00</time>
      </trkpt>
      <trkpt lat="43.56283" lon="2.79985">
        <ele>969.9</ele>
        <time>2021-06-30T15:23:35.000+02:00</time>
      </trkpt>
      <trkpt lat="43.56283" lon="2.79986">
        <ele>970</ele>
        <time>2021-06-30T15:23:36.000+02:00</time>
      </trkpt>
      <trkpt lat="43.56284" lon="2.79987">
        <ele>970</ele>
        <time>2021-06-30T15:23:37.000+02:00</time>
      </trkpt>
      <trkpt lat="43.56284" lon="2.79988">
        <ele>970</ele>
        <time>2021-06-30T15:23:38.000+02:00</time>
      </trkpt>
      <trkpt lat="43.56285" lon="2.79989">
        <ele>970</ele>
        <time>2021-06-30T15:23:39.000+02:00</time>
      </trkpt>
      <trkpt lat="43.56285" lon="2.7999">
        <ele>970</ele>
        <time>2021-06-30T15:23:40.000+02:00</time>
      </trkpt>
      <trkpt lat="43.56286" lon="2.79991">
        <ele>970.1</ele>
        <time>2021-06-30T15:23:41.000+02:00</time>
      </trkpt>
      <trkpt lat="43.56286" lon="2.79992">
        <ele>970.1</ele>
        <time>2021-06-30T15:23:42.000+02:00</time>
      </trkpt>
      <trkpt lat="43.56286" lon="2.79993">
        <ele>970.2</ele>
        <time>2021-06-30T15:23:43.000+02:00</time>
      </trkpt>
      <trkpt lat="43.56286" lon="2.79995">
        <ele>970.3</ele>
        <time>2021-06-30T15:23:44.000+02:00</time>
      </trkpt>
      <trkpt lat="43.56286" lon="2.79995">
        <ele>970.4</ele>
        <time>2021-06-30T15:23:45.000+02:00</time>
      </trkpt>
      <trkpt lat="43.56285" lon="2.79997">
        <ele>970.5</ele>
        <time>2021-06-30T15:23:46.000+02:00</time>
      </trkpt>
      <trkpt lat="43.56285" lon="2.79998">
        <ele>970.6</ele>
        <time>2021-06-30T15:23:47.000+02:00</time>
      </trkpt>
      <trkpt lat="43.56285" lon="2.79999">
        <ele>970.7</ele>
        <time>2021-06-30T15:23:48.000+02:00</time>
      </trkpt>
      <trkpt lat="43.56286" lon="2.8">
        <ele>970.7</ele>
        <time>2021-06-30T15:23:49.000+02:00</time>
      </trkpt>
      <trkpt lat="43.56286" lon="2.80001">
        <ele>970.7</ele>
        <time>2021-06-30T15:23:50.000+02:00</time>
      </trkpt>
      <trkpt lat="43.56286" lon="2.80002">
        <ele>970.8</ele>
        <time>2021-06-30T15:23:51.000+02:00</time>
      </trkpt>
      <trkpt lat="43.56287" lon="2.80003">
        <ele>970.8</ele>
        <time>2021-06-30T15:23:52.000+02:00</time>
      </trkpt>
      <trkpt lat="43.56287" lon="2.80005">
        <ele>970.9</ele>
        <time>2021-06-30T15:23:53.000+02:00</time>
      </trkpt>
      <trkpt lat="43.56287" lon="2.80007">
        <ele>971.1</ele>
        <time>2021-06-30T15:23:54.000+02:00</time>
      </trkpt>
      <trkpt lat="43.56287" lon="2.80008">
        <ele>971.2</ele>
        <time>2021-06-30T15:23:55.000+02:00</time>
      </trkpt>
      <trkpt lat="43.56287" lon="2.8001">
        <ele>971.3</ele>
        <time>2021-06-30T15:23:56.000+02:00</time>
      </trkpt>
      <trkpt lat="43.56287" lon="2.80011">
        <ele>971.4</ele>
        <time>2021-06-30T15:23:57.000+02:00</time>
      </trkpt>
      <trkpt lat="43.56288" lon="2.80014">
        <ele>971.5</ele>
        <time>2021-06-30T15:23:58.000+02:00</time>
      </trkpt>
      <trkpt lat="43.56288" lon="2.80015">
        <ele>971.6</ele>
        <time>2021-06-30T15:23:59.000+02:00</time>
      </trkpt>
      <trkpt lat="43.56288" lon="2.80016">
        <ele>971.6</ele>
        <time>2021-06-30T15:24:00.000+02:00</time>
      </trkpt>
      <trkpt lat="43.56288" lon="2.80016">
        <ele>971.7</ele>
        <time>2021-06-30T15:24:01.000+02:00</time>
      </trkpt>
      <trkpt lat="43.56288" lon="2.80017">
        <ele>971.7</ele>
        <time>2021-06-30T15:24:02.000+02:00</time>
      </trkpt>
      <trkpt lat="43.56288" lon="2.80018">
        <ele>971.8</ele>
        <time>2021-06-30T15:24:03.000+02:00</time>
      </trkpt>
      <trkpt lat="43.56289" lon="2.80018">
        <ele>971.8</ele>
        <time>2021-06-30T15:24:04.000+02:00</time>
      </trkpt>
      <trkpt lat="43.56289" lon="2.80019">
        <ele>971.8</ele>
        <time>2021-06-30T15:24:05.000+02:00</time>
      </trkpt>
      <trkpt lat="43.56289" lon="2.8002">
        <ele>971.9</ele>
        <time>2021-06-30T15:24:06.000+02:00</time>
      </trkpt>
      <trkpt lat="43.56289" lon="2.80023">
        <ele>972.1</ele>
        <time>2021-06-30T15:24:07.000+02:00</time>
      </trkpt>
      <trkpt lat="43.56289" lon="2.80025">
        <ele>972.2</ele>
        <time>2021-06-30T15:24:08.000+02:00</time>
      </trkpt>
      <trkpt lat="43.5629" lon="2.80026">
        <ele>972.3</ele>
        <time>2021-06-30T15:24:09.000+02:00</time>
      </trkpt>
      <trkpt lat="43.5629" lon="2.80027">
        <ele>972.3</ele>
        <time>2021-06-30T15:24:10.000+02:00</time>
      </trkpt>
      <trkpt lat="43.56291" lon="2.8003">
        <ele>972.5</ele>
        <time>2021-06-30T15:24:11.000+02:00</time>
      </trkpt>
      <trkpt lat="43.56291" lon="2.80031">
        <ele>972.6</ele>
        <time>2021-06-30T15:24:12.000+02:00</time>
      </trkpt>
      <trkpt lat="43.56291" lon="2.80033">
        <ele>972.7</ele>
        <time>2021-06-30T15:24:13.000+02:00</time>
      </trkpt>
      <trkpt lat="43.56291" lon="2.80034">
        <ele>972.7</ele>
        <time>2021-06-30T15:24:14.000+02:00</time>
      </trkpt>
      <trkpt lat="43.56291" lon="2.80034">
        <ele>972.8</ele>
        <time>2021-06-30T15:24:15.000+02:00</time>
      </trkpt>
      <trkpt lat="43.56291" lon="2.80034">
        <ele>972.8</ele>
        <time>2021-06-30T15:24:16.000+02:00</time>
      </trkpt>
      <trkpt lat="43.56291" lon="2.80034">
        <ele>972.8</ele>
        <time>2021-06-30T15:24:17.000+02:00</time>
      </trkpt>
      <trkpt lat="43.56291" lon="2.80034">
        <ele>972.8</ele>
        <time>2021-06-30T15:24:18.000+02:00</time>
      </trkpt>
      <trkpt lat="43.56291" lon="2.80034">
        <ele>972.8</ele>
        <time>2021-06-30T15:24:19.000+02:00</time>
      </trkpt>
      <trkpt lat="43.56291" lon="2.80034">
        <ele>972.8</ele>
        <time>2021-06-30T15:24:20.000+02:00</time>
      </trkpt>
      <trkpt lat="43.56291" lon="2.80034">
        <ele>972.8</ele>
        <time>2021-06-30T15:24:21.000+02:00</time>
      </trkpt>
      <trkpt lat="43.56291" lon="2.80034">
        <ele>972.8</ele>
        <time>2021-06-30T15:24:22.000+02:00</time>
      </trkpt>
      <trkpt lat="43.56291" lon="2.80034">
        <ele>972.7</ele>
        <time>2021-06-30T15:24:23.000+02:00</time>
      </trkpt>
      <trkpt lat="43.56293" lon="2.80036">
        <ele>972.7</ele>
        <time>2021-06-30T15:24:24.000+02:00</time>
      </trkpt>
      <trkpt lat="43.56293" lon="2.80036">
        <ele>972.6</ele>
        <time>2021-06-30T15:24:25.000+02:00</time>
      </trkpt>
      <trkpt lat="43.56293" lon="2.80036">
        <ele>972.7</ele>
        <time>2021-06-30T15:24:26.000+02:00</time>
      </trkpt>
      <trkpt lat="43.56293" lon="2.80038">
        <ele>972.8</ele>
        <time>2021-06-30T15:24:27.000+02:00</time>
      </trkpt>
      <trkpt lat="43.56292" lon="2.80039">
        <ele>972.9</ele>
        <time>2021-06-30T15:24:28.000+02:00</time>
      </trkpt>
      <trkpt lat="43.56292" lon="2.8004">
        <ele>973.2</ele>
        <time>2021-06-30T15:24:29.000+02:00</time>
      </trkpt>
      <trkpt lat="43.56291" lon="2.80042">
        <ele>973.3</ele>
        <time>2021-06-30T15:24:30.000+02:00</time>
      </trkpt>
      <trkpt lat="43.56291" lon="2.80042">
        <ele>973.4</ele>
        <time>2021-06-30T15:24:31.000+02:00</time>
      </trkpt>
      <trkpt lat="43.56292" lon="2.80043">
        <ele>973.4</ele>
        <time>2021-06-30T15:24:32.000+02:00</time>
      </trkpt>
      <trkpt lat="43.56292" lon="2.80044">
        <ele>973.5</ele>
        <time>2021-06-30T15:24:33.000+02:00</time>
      </trkpt>
      <trkpt lat="43.56291" lon="2.80045">
        <ele>973.5</ele>
        <time>2021-06-30T15:24:34.000+02:00</time>
      </trkpt>
      <trkpt lat="43.56292" lon="2.80046">
        <ele>973.6</ele>
        <time>2021-06-30T15:24:35.000+02:00</time>
      </trkpt>
      <trkpt lat="43.56292" lon="2.80047">
        <ele>973.7</ele>
        <time>2021-06-30T15:24:36.000+02:00</time>
      </trkpt>
      <trkpt lat="43.56292" lon="2.80048">
        <ele>973.7</ele>
        <time>2021-06-30T15:24:37.000+02:00</time>
      </trkpt>
      <trkpt lat="43.56292" lon="2.8005">
        <ele>973.9</ele>
        <time>2021-06-30T15:24:38.000+02:00</time>
      </trkpt>
      <trkpt lat="43.56292" lon="2.80051">
        <ele>973.9</ele>
        <time>2021-06-30T15:24:39.000+02:00</time>
      </trkpt>
      <trkpt lat="43.56292" lon="2.80052">
        <ele>974</ele>
        <time>2021-06-30T15:24:40.000+02:00</time>
      </trkpt>
      <trkpt lat="43.56293" lon="2.80053">
        <ele>974</ele>
        <time>2021-06-30T15:24:41.000+02:00</time>
      </trkpt>
      <trkpt lat="43.56293" lon="2.80054">
        <ele>974.1</ele>
        <time>2021-06-30T15:24:42.000+02:00</time>
      </trkpt>
      <trkpt lat="43.56292" lon="2.80055">
        <ele>974.2</ele>
        <time>2021-06-30T15:24:43.000+02:00</time>
      </trkpt>
      <trkpt lat="43.56292" lon="2.80057">
        <ele>974.4</ele>
        <time>2021-06-30T15:24:44.000+02:00</time>
      </trkpt>
      <trkpt lat="43.56292" lon="2.80058">
        <ele>974.4</ele>
        <time>2021-06-30T15:24:45.000+02:00</time>
      </trkpt>
      <trkpt lat="43.56292" lon="2.80059">
        <ele>974.6</ele>
        <time>2021-06-30T15:24:46.000+02:00</time>
      </trkpt>
      <trkpt lat="43.56292" lon="2.8006">
        <ele>974.6</ele>
        <time>2021-06-30T15:24:47.000+02:00</time>
      </trkpt>
      <trkpt lat="43.56292" lon="2.80062">
        <ele>974.8</ele>
        <time>2021-06-30T15:24:48.000+02:00</time>
      </trkpt>
      <trkpt lat="43.56292" lon="2.80063">
        <ele>974.9</ele>
        <time>2021-06-30T15:24:49.000+02:00</time>
      </trkpt>
      <trkpt lat="43.56292" lon="2.80064">
        <ele>975</ele>
        <time>2021-06-30T15:24:50.000+02:00</time>
      </trkpt>
      <trkpt lat="43.56291" lon="2.80064">
        <ele>975</ele>
        <time>2021-06-30T15:24:51.000+02:00</time>
      </trkpt>
      <trkpt lat="43.56291" lon="2.80065">
        <ele>975.2</ele>
        <time>2021-06-30T15:24:52.000+02:00</time>
      </trkpt>
      <trkpt lat="43.56291" lon="2.80066">
        <ele>975.2</ele>
        <time>2021-06-30T15:24:53.000+02:00</time>
      </trkpt>
      <trkpt lat="43.56291" lon="2.80067">
        <ele>975.3</ele>
        <time>2021-06-30T15:24:54.000+02:00</time>
      </trkpt>
      <trkpt lat="43.5629" lon="2.80069">
        <ele>975.5</ele>
        <time>2021-06-30T15:24:55.000+02:00</time>
      </trkpt>
      <trkpt lat="43.5629" lon="2.80071">
        <ele>975.7</ele>
        <time>2021-06-30T15:24:56.000+02:00</time>
      </trkpt>
      <trkpt lat="43.5629" lon="2.80072">
        <ele>975.8</ele>
        <time>2021-06-30T15:24:57.000+02:00</time>
      </trkpt>
      <trkpt lat="43.5629" lon="2.80074">
        <ele>976</ele>
        <time>2021-06-30T15:24:58.000+02:00</time>
      </trkpt>
      <trkpt lat="43.56289" lon="2.80074">
        <ele>976.1</ele>
        <time>2021-06-30T15:24:59.000+02:00</time>
      </trkpt>
      <trkpt lat="43.56289" lon="2.80075">
        <ele>976.1</ele>
        <time>2021-06-30T15:25:00.000+02:00</time>
      </trkpt>
      <trkpt lat="43.56289" lon="2.80076">
        <ele>976.2</ele>
        <time>2021-06-30T15:25:01.000+02:00</time>
      </trkpt>
      <trkpt lat="43.56289" lon="2.80077">
        <ele>976.3</ele>
        <time>2021-06-30T15:25:02.000+02:00</time>
      </trkpt>
      <trkpt lat="43.56288" lon="2.80078">
        <ele>976.5</ele>
        <time>2021-06-30T15:25:03.000+02:00</time>
      </trkpt>
      <trkpt lat="43.56288" lon="2.8008">
        <ele>976.6</ele>
        <time>2021-06-30T15:25:04.000+02:00</time>
      </trkpt>
      <trkpt lat="43.56288" lon="2.80081">
        <ele>976.7</ele>
        <time>2021-06-30T15:25:05.000+02:00</time>
      </trkpt>
      <trkpt lat="43.56287" lon="2.80082">
        <ele>976.9</ele>
        <time>2021-06-30T15:25:06.000+02:00</time>
      </trkpt>
      <trkpt lat="43.56287" lon="2.80083">
        <ele>977.1</ele>
        <time>2021-06-30T15:25:07.000+02:00</time>
      </trkpt>
      <trkpt lat="43.56286" lon="2.80085">
        <ele>977.3</ele>
        <time>2021-06-30T15:25:08.000+02:00</time>
      </trkpt>
      <trkpt lat="43.56286" lon="2.80086">
        <ele>977.4</ele>
        <time>2021-06-30T15:25:09.000+02:00</time>
      </trkpt>
      <trkpt lat="43.56286" lon="2.80087">
        <ele>977.5</ele>
        <time>2021-06-30T15:25:10.000+02:00</time>
      </trkpt>
      <trkpt lat="43.56285" lon="2.80087">
        <ele>977.6</ele>
        <time>2021-06-30T15:25:11.000+02:00</time>
      </trkpt>
      <trkpt lat="43.56285" lon="2.80088">
        <ele>977.7</ele>
        <time>2021-06-30T15:25:12.000+02:00</time>
      </trkpt>
      <trkpt lat="43.56285" lon="2.80089">
        <ele>977.7</ele>
        <time>2021-06-30T15:25:13.000+02:00</time>
      </trkpt>
      <trkpt lat="43.56285" lon="2.80089">
        <ele>977.8</ele>
        <time>2021-06-30T15:25:14.000+02:00</time>
      </trkpt>
      <trkpt lat="43.56285" lon="2.8009">
        <ele>977.9</ele>
        <time>2021-06-30T15:25:15.000+02:00</time>
      </trkpt>
      <trkpt lat="43.56286" lon="2.80091">
        <ele>978</ele>
        <time>2021-06-30T15:25:16.000+02:00</time>
      </trkpt>
      <trkpt lat="43.56286" lon="2.80093">
        <ele>978.2</ele>
        <time>2021-06-30T15:25:17.000+02:00</time>
      </trkpt>
      <trkpt lat="43.56286" lon="2.80095">
        <ele>978.3</ele>
        <time>2021-06-30T15:25:18.000+02:00</time>
      </trkpt>
      <trkpt lat="43.56287" lon="2.80097">
        <ele>978.5</ele>
        <time>2021-06-30T15:25:19.000+02:00</time>
      </trkpt>
      <trkpt lat="43.56287" lon="2.80098">
        <ele>978.6</ele>
        <time>2021-06-30T15:25:20.000+02:00</time>
      </trkpt>
      <trkpt lat="43.56287" lon="2.801">
        <ele>978.7</ele>
        <time>2021-06-30T15:25:21.000+02:00</time>
      </trkpt>
      <trkpt lat="43.56288" lon="2.80102">
        <ele>979</ele>
        <time>2021-06-30T15:25:22.000+02:00</time>
      </trkpt>
      <trkpt lat="43.56288" lon="2.80104">
        <ele>979.1</ele>
        <time>2021-06-30T15:25:23.000+02:00</time>
      </trkpt>
      <trkpt lat="43.56289" lon="2.80105">
        <ele>979.2</ele>
        <time>2021-06-30T15:25:24.000+02:00</time>
      </trkpt>
      <trkpt lat="43.56289" lon="2.80106">
        <ele>979.3</ele>
        <time>2021-06-30T15:25:25.000+02:00</time>
      </trkpt>
      <trkpt lat="43.56289" lon="2.80108">
        <ele>979.4</ele>
        <time>2021-06-30T15:25:26.000+02:00</time>
      </trkpt>
      <trkpt lat="43.5629" lon="2.80109">
        <ele>979.4</ele>
        <time>2021-06-30T15:25:27.000+02:00</time>
      </trkpt>
      <trkpt lat="43.5629" lon="2.8011">
        <ele>979.5</ele>
        <time>2021-06-30T15:25:28.000+02:00</time>
      </trkpt>
      <trkpt lat="43.56291" lon="2.80111">
        <ele>979.5</ele>
        <time>2021-06-30T15:25:29.000+02:00</time>
      </trkpt>
      <trkpt lat="43.56291" lon="2.80111">
        <ele>979.5</ele>
        <time>2021-06-30T15:25:30.000+02:00</time>
      </trkpt>
      <trkpt lat="43.56292" lon="2.80112">
        <ele>979.5</ele>
        <time>2021-06-30T15:25:31.000+02:00</time>
      </trkpt>
      <trkpt lat="43.56292" lon="2.80113">
        <ele>979.6</ele>
        <time>2021-06-30T15:25:32.000+02:00</time>
      </trkpt>
      <trkpt lat="43.56293" lon="2.80114">
        <ele>979.7</ele>
        <time>2021-06-30T15:25:33.000+02:00</time>
      </trkpt>
      <trkpt lat="43.56293" lon="2.80115">
        <ele>979.8</ele>
        <time>2021-06-30T15:25:34.000+02:00</time>
      </trkpt>
      <trkpt lat="43.56293" lon="2.80116">
        <ele>979.9</ele>
        <time>2021-06-30T15:25:35.000+02:00</time>
      </trkpt>
      <trkpt lat="43.56294" lon="2.80118">
        <ele>980</ele>
        <time>2021-06-30T15:25:36.000+02:00</time>
      </trkpt>
      <trkpt lat="43.56294" lon="2.80119">
        <ele>980.1</ele>
        <time>2021-06-30T15:25:37.000+02:00</time>
      </trkpt>
      <trkpt lat="43.56295" lon="2.80121">
        <ele>980.2</ele>
        <time>2021-06-30T15:25:38.000+02:00</time>
      </trkpt>
      <trkpt lat="43.56296" lon="2.80123">
        <ele>980.3</ele>
        <time>2021-06-30T15:25:39.000+02:00</time>
      </trkpt>
      <trkpt lat="43.56297" lon="2.80124">
        <ele>980.4</ele>
        <time>2021-06-30T15:25:40.000+02:00</time>
      </trkpt>
      <trkpt lat="43.56297" lon="2.80124">
        <ele>980.4</ele>
        <time>2021-06-30T15:25:41.000+02:00</time>
      </trkpt>
      <trkpt lat="43.56298" lon="2.80125">
        <ele>980.5</ele>
        <time>2021-06-30T15:25:42.000+02:00</time>
      </trkpt>
      <trkpt lat="43.56298" lon="2.80126">
        <ele>980.5</ele>
        <time>2021-06-30T15:25:43.000+02:00</time>
      </trkpt>
      <trkpt lat="43.56299" lon="2.80128">
        <ele>980.6</ele>
        <time>2021-06-30T15:25:44.000+02:00</time>
      </trkpt>
      <trkpt lat="43.56299" lon="2.80129">
        <ele>980.7</ele>
        <time>2021-06-30T15:25:45.000+02:00</time>
      </trkpt>
      <trkpt lat="43.563" lon="2.8013">
        <ele>980.8</ele>
        <time>2021-06-30T15:25:46.000+02:00</time>
      </trkpt>
      <trkpt lat="43.563" lon="2.80131">
        <ele>980.8</ele>
        <time>2021-06-30T15:25:47.000+02:00</time>
      </trkpt>
      <trkpt lat="43.563" lon="2.80131">
        <ele>980.9</ele>
        <time>2021-06-30T15:25:48.000+02:00</time>
      </trkpt>
      <trkpt lat="43.563" lon="2.80131">
        <ele>980.9</ele>
        <time>2021-06-30T15:25:49.000+02:00</time>
      </trkpt>
      <trkpt lat="43.563" lon="2.80132">
        <ele>980.9</ele>
        <time>2021-06-30T15:25:50.000+02:00</time>
      </trkpt>
      <trkpt lat="43.563" lon="2.80132">
        <ele>981</ele>
        <time>2021-06-30T15:25:51.000+02:00</time>
      </trkpt>
      <trkpt lat="43.56301" lon="2.80133">
        <ele>981</ele>
        <time>2021-06-30T15:25:52.000+02:00</time>
      </trkpt>
      <trkpt lat="43.56301" lon="2.80133">
        <ele>981</ele>
        <time>2021-06-30T15:25:53.000+02:00</time>
      </trkpt>
      <trkpt lat="43.56301" lon="2.80134">
        <ele>981</ele>
        <time>2021-06-30T15:25:54.000+02:00</time>
      </trkpt>
      <trkpt lat="43.56302" lon="2.80134">
        <ele>981.1</ele>
        <time>2021-06-30T15:25:55.000+02:00</time>
      </trkpt>
      <trkpt lat="43.56302" lon="2.80134">
        <ele>981</ele>
        <time>2021-06-30T15:25:56.000+02:00</time>
      </trkpt>
      <trkpt lat="43.56303" lon="2.80134">
        <ele>981</ele>
        <time>2021-06-30T15:25:57.000+02:00</time>
      </trkpt>
      <trkpt lat="43.56303" lon="2.80135">
        <ele>981</ele>
        <time>2021-06-30T15:25:58.000+02:00</time>
      </trkpt>
      <trkpt lat="43.56303" lon="2.80135">
        <ele>981</ele>
        <time>2021-06-30T15:25:59.000+02:00</time>
      </trkpt>
      <trkpt lat="43.56303" lon="2.80136">
        <ele>981.1</ele>
        <time>2021-06-30T15:26:00.000+02:00</time>
      </trkpt>
      <trkpt lat="43.56304" lon="2.80137">
        <ele>981.2</ele>
        <time>2021-06-30T15:26:01.000+02:00</time>
      </trkpt>
      <trkpt lat="43.56304" lon="2.80137">
        <ele>981.2</ele>
        <time>2021-06-30T15:26:02.000+02:00</time>
      </trkpt>
      <trkpt lat="43.56305" lon="2.80138">
        <ele>981.2</ele>
        <time>2021-06-30T15:26:03.000+02:00</time>
      </trkpt>
      <trkpt lat="43.56305" lon="2.80138">
        <ele>981.2</ele>
        <time>2021-06-30T15:26:04.000+02:00</time>
      </trkpt>
      <trkpt lat="43.56305" lon="2.80138">
        <ele>981.2</ele>
        <time>2021-06-30T15:26:05.000+02:00</time>
      </trkpt>
      <trkpt lat="43.56305" lon="2.80138">
        <ele>981.2</ele>
        <time>2021-06-30T15:26:06.000+02:00</time>
      </trkpt>
      <trkpt lat="43.56305" lon="2.80138">
        <ele>981.2</ele>
        <time>2021-06-30T15:26:07.000+02:00</time>
      </trkpt>
      <trkpt lat="43.56305" lon="2.80139">
        <ele>981.2</ele>
        <time>2021-06-30T15:26:08.000+02:00</time>
      </trkpt>
      <trkpt lat="43.56305" lon="2.80139">
        <ele>981.2</ele>
        <time>2021-06-30T15:26:09.000+02:00</time>
      </trkpt>
      <trkpt lat="43.56305" lon="2.80139">
        <ele>981.2</ele>
        <time>2021-06-30T15:26:10.000+02:00</time>
      </trkpt>
      <trkpt lat="43.56305" lon="2.80139">
        <ele>981.2</ele>
        <time>2021-06-30T15:26:11.000+02:00</time>
      </trkpt>
      <trkpt lat="43.56305" lon="2.80139">
        <ele>981.2</ele>
        <time>2021-06-30T15:26:12.000+02:00</time>
      </trkpt>
      <trkpt lat="43.56305" lon="2.80139">
        <ele>981.3</ele>
        <time>2021-06-30T15:26:13.000+02:00</time>
      </trkpt>
      <trkpt lat="43.56305" lon="2.80139">
        <ele>981.2</ele>
        <time>2021-06-30T15:26:14.000+02:00</time>
      </trkpt>
      <trkpt lat="43.56306" lon="2.8014">
        <ele>981.3</ele>
        <time>2021-06-30T15:26:15.000+02:00</time>
      </trkpt>
      <trkpt lat="43.56307" lon="2.80141">
        <ele>981.3</ele>
        <time>2021-06-30T15:26:16.000+02:00</time>
      </trkpt>
      <trkpt lat="43.56307" lon="2.80141">
        <ele>981.3</ele>
        <time>2021-06-30T15:26:17.000+02:00</time>
      </trkpt>
      <trkpt lat="43.56309" lon="2.80142">
        <ele>981.3</ele>
        <time>2021-06-30T15:26:18.000+02:00</time>
      </trkpt>
      <trkpt lat="43.56315" lon="2.80146">
        <ele>981.2</ele>
        <time>2021-06-30T15:26:19.000+02:00</time>
      </trkpt>
      <trkpt lat="43.56317" lon="2.80149">
        <ele>981.3</ele>
        <time>2021-06-30T15:26:20.000+02:00</time>
      </trkpt>
      <trkpt lat="43.56319" lon="2.80151">
        <ele>981.4</ele>
        <time>2021-06-30T15:26:21.000+02:00</time>
      </trkpt>
      <trkpt lat="43.5632" lon="2.80153">
        <ele>981.5</ele>
        <time>2021-06-30T15:26:22.000+02:00</time>
      </trkpt>
      <trkpt lat="43.56321" lon="2.80153">
        <ele>981.5</ele>
        <time>2021-06-30T15:26:23.000+02:00</time>
      </trkpt>
      <trkpt lat="43.56322" lon="2.80154">
        <ele>981.5</ele>
        <time>2021-06-30T15:26:24.000+02:00</time>
      </trkpt>
      <trkpt lat="43.56322" lon="2.80155">
        <ele>981.5</ele>
        <time>2021-06-30T15:26:25.000+02:00</time>
      </trkpt>
      <trkpt lat="43.56322" lon="2.80155">
        <ele>981.6</ele>
        <time>2021-06-30T15:26:26.000+02:00</time>
      </trkpt>
      <trkpt lat="43.56323" lon="2.80155">
        <ele>981.6</ele>
        <time>2021-06-30T15:26:27.000+02:00</time>
      </trkpt>
      <trkpt lat="43.56323" lon="2.80156">
        <ele>981.6</ele>
        <time>2021-06-30T15:26:28.000+02:00</time>
      </trkpt>
      <trkpt lat="43.56323" lon="2.80156">
        <ele>981.6</ele>
        <time>2021-06-30T15:26:29.000+02:00</time>
      </trkpt>
      <trkpt lat="43.56323" lon="2.80156">
        <ele>981.6</ele>
        <time>2021-06-30T15:26:30.000+02:00</time>
      </trkpt>
      <trkpt lat="43.56324" lon="2.80156">
        <ele>981.6</ele>
        <time>2021-06-30T15:26:31.000+02:00</time>
      </trkpt>
      <trkpt lat="43.56324" lon="2.80156">
        <ele>981.6</ele>
        <time>2021-06-30T15:26:32.000+02:00</time>
      </trkpt>
      <trkpt lat="43.56323" lon="2.80156">
        <ele>981.6</ele>
        <time>2021-06-30T15:26:33.000+02:00</time>
      </trkpt>
      <trkpt lat="43.56323" lon="2.80155">
        <ele>981.6</ele>
        <time>2021-06-30T15:26:34.000+02:00</time>
      </trkpt>
      <trkpt lat="43.56323" lon="2.80154">
        <ele>981.4</ele>
        <time>2021-06-30T15:26:35.000+02:00</time>
      </trkpt>
      <trkpt lat="43.56323" lon="2.80153">
        <ele>981.2</ele>
        <time>2021-06-30T15:26:36.000+02:00</time>
      </trkpt>
      <trkpt lat="43.56323" lon="2.80153">
        <ele>981.3</ele>
        <time>2021-06-30T15:26:37.000+02:00</time>
      </trkpt>
      <trkpt lat="43.56323" lon="2.80153">
        <ele>981.3</ele>
        <time>2021-06-30T15:26:38.000+02:00</time>
      </trkpt>
      <trkpt lat="43.56323" lon="2.80153">
        <ele>981.3</ele>
        <time>2021-06-30T15:26:39.000+02:00</time>
      </trkpt>
      <trkpt lat="43.56323" lon="2.80153">
        <ele>981.3</ele>
        <time>2021-06-30T15:26:40.000+02:00</time>
      </trkpt>
      <trkpt lat="43.56323" lon="2.80153">
        <ele>981.2</ele>
        <time>2021-06-30T15:26:41.000+02:00</time>
      </trkpt>
      <trkpt lat="43.56323" lon="2.80152">
        <ele>981.2</ele>
        <time>2021-06-30T15:26:42.000+02:00</time>
      </trkpt>
      <trkpt lat="43.56324" lon="2.80151">
        <ele>981</ele>
        <time>2021-06-30T15:26:43.000+02:00</time>
      </trkpt>
      <trkpt lat="43.56324" lon="2.80151">
        <ele>980.9</ele>
        <time>2021-06-30T15:26:44.000+02:00</time>
      </trkpt>
      <trkpt lat="43.56325" lon="2.8015">
        <ele>980.8</ele>
        <time>2021-06-30T15:26:45.000+02:00</time>
      </trkpt>
      <trkpt lat="43.56326" lon="2.8015">
        <ele>980.6</ele>
        <time>2021-06-30T15:26:46.000+02:00</time>
      </trkpt>
      <trkpt lat="43.56327" lon="2.80149">
        <ele>980.4</ele>
        <time>2021-06-30T15:26:47.000+02:00</time>
      </trkpt>
      <trkpt lat="43.56328" lon="2.80148">
        <ele>980.2</ele>
        <time>2021-06-30T15:26:48.000+02:00</time>
      </trkpt>
      <trkpt lat="43.56328" lon="2.80147">
        <ele>980.1</ele>
        <time>2021-06-30T15:26:49.000+02:00</time>
      </trkpt>
      <trkpt lat="43.56328" lon="2.80147">
        <ele>980</ele>
        <time>2021-06-30T15:26:50.000+02:00</time>
      </trkpt>
      <trkpt lat="43.56329" lon="2.80146">
        <ele>979.9</ele>
        <time>2021-06-30T15:26:51.000+02:00</time>
      </trkpt>
      <trkpt lat="43.56329" lon="2.80145">
        <ele>979.8</ele>
        <time>2021-06-30T15:26:52.000+02:00</time>
      </trkpt>
      <trkpt lat="43.56328" lon="2.80144">
        <ele>979.8</ele>
        <time>2021-06-30T15:26:53.000+02:00</time>
      </trkpt>
      <trkpt lat="43.56328" lon="2.80144">
        <ele>979.7</ele>
        <time>2021-06-30T15:26:54.000+02:00</time>
      </trkpt>
      <trkpt lat="43.56328" lon="2.80143">
        <ele>979.6</ele>
        <time>2021-06-30T15:26:55.000+02:00</time>
      </trkpt>
      <trkpt lat="43.56328" lon="2.80142">
        <ele>979.5</ele>
        <time>2021-06-30T15:26:56.000+02:00</time>
      </trkpt>
      <trkpt lat="43.56329" lon="2.80142">
        <ele>979.5</ele>
        <time>2021-06-30T15:26:57.000+02:00</time>
      </trkpt>
      <trkpt lat="43.56329" lon="2.80142">
        <ele>979.4</ele>
        <time>2021-06-30T15:26:58.000+02:00</time>
      </trkpt>
      <trkpt lat="43.56329" lon="2.80141">
        <ele>979.3</ele>
        <time>2021-06-30T15:26:59.000+02:00</time>
      </trkpt>
      <trkpt lat="43.5633" lon="2.80141">
        <ele>979.2</ele>
        <time>2021-06-30T15:27:00.000+02:00</time>
      </trkpt>
      <trkpt lat="43.5633" lon="2.80141">
        <ele>979.2</ele>
        <time>2021-06-30T15:27:01.000+02:00</time>
      </trkpt>
      <trkpt lat="43.5633" lon="2.80141">
        <ele>979.2</ele>
        <time>2021-06-30T15:27:02.000+02:00</time>
      </trkpt>
      <trkpt lat="43.5633" lon="2.80141">
        <ele>979.2</ele>
        <time>2021-06-30T15:27:03.000+02:00</time>
      </trkpt>
      <trkpt lat="43.5633" lon="2.80141">
        <ele>979.2</ele>
        <time>2021-06-30T15:27:04.000+02:00</time>
      </trkpt>
      <trkpt lat="43.5633" lon="2.8014">
        <ele>979.1</ele>
        <time>2021-06-30T15:27:05.000+02:00</time>
      </trkpt>
      <trkpt lat="43.5633" lon="2.80139">
        <ele>979</ele>
        <time>2021-06-30T15:27:06.000+02:00</time>
      </trkpt>
      <trkpt lat="43.5633" lon="2.80137">
        <ele>978.8</ele>
        <time>2021-06-30T15:27:07.000+02:00</time>
      </trkpt>
      <trkpt lat="43.56331" lon="2.80137">
        <ele>978.7</ele>
        <time>2021-06-30T15:27:08.000+02:00</time>
      </trkpt>
      <trkpt lat="43.56331" lon="2.80137">
        <ele>978.7</ele>
        <time>2021-06-30T15:27:09.000+02:00</time>
      </trkpt>
      <trkpt lat="43.56331" lon="2.80137">
        <ele>978.6</ele>
        <time>2021-06-30T15:27:10.000+02:00</time>
      </trkpt>
      <trkpt lat="43.56331" lon="2.80136">
        <ele>978.6</ele>
        <time>2021-06-30T15:27:11.000+02:00</time>
      </trkpt>
      <trkpt lat="43.56331" lon="2.80136">
        <ele>978.6</ele>
        <time>2021-06-30T15:27:12.000+02:00</time>
      </trkpt>
      <trkpt lat="43.56331" lon="2.80136">
        <ele>978.6</ele>
        <time>2021-06-30T15:27:13.000+02:00</time>
      </trkpt>
      <trkpt lat="43.56331" lon="2.80135">
        <ele>978.5</ele>
        <time>2021-06-30T15:27:14.000+02:00</time>
      </trkpt>
      <trkpt lat="43.56331" lon="2.80135">
        <ele>978.4</ele>
        <time>2021-06-30T15:27:15.000+02:00</time>
      </trkpt>
      <trkpt lat="43.56332" lon="2.80134">
        <ele>978.3</ele>
        <time>2021-06-30T15:27:16.000+02:00</time>
      </trkpt>
      <trkpt lat="43.56332" lon="2.80133">
        <ele>978</ele>
        <time>2021-06-30T15:27:17.000+02:00</time>
      </trkpt>
      <trkpt lat="43.56333" lon="2.8013">
        <ele>977.6</ele>
        <time>2021-06-30T15:27:18.000+02:00</time>
      </trkpt>
      <trkpt lat="43.56334" lon="2.8013">
        <ele>977.6</ele>
        <time>2021-06-30T15:27:19.000+02:00</time>
      </trkpt>
      <trkpt lat="43.56335" lon="2.80126">
        <ele>977.1</ele>
        <time>2021-06-30T15:27:20.000+02:00</time>
      </trkpt>
      <trkpt lat="43.5634" lon="2.80118">
        <ele>976.1</ele>
        <time>2021-06-30T15:27:21.000+02:00</time>
      </trkpt>
      <trkpt lat="43.56342" lon="2.80115">
        <ele>975.6</ele>
        <time>2021-06-30T15:27:22.000+02:00</time>
      </trkpt>
      <trkpt lat="43.56343" lon="2.80111">
        <ele>975.1</ele>
        <time>2021-06-30T15:27:23.000+02:00</time>
      </trkpt>
      <trkpt lat="43.56344" lon="2.8011">
        <ele>974.9</ele>
        <time>2021-06-30T15:27:24.000+02:00</time>
      </trkpt>
      <trkpt lat="43.56345" lon="2.80108">
        <ele>974.7</ele>
        <time>2021-06-30T15:27:25.000+02:00</time>
      </trkpt>
      <trkpt lat="43.56344" lon="2.80107">
        <ele>974.5</ele>
        <time>2021-06-30T15:27:26.000+02:00</time>
      </trkpt>
      <trkpt lat="43.56344" lon="2.80107">
        <ele>974.6</ele>
        <time>2021-06-30T15:27:27.000+02:00</time>
      </trkpt>
      <trkpt lat="43.56344" lon="2.80107">
        <ele>974.6</ele>
        <time>2021-06-30T15:27:28.000+02:00</time>
      </trkpt>
      <trkpt lat="43.56344" lon="2.80108">
        <ele>974.6</ele>
        <time>2021-06-30T15:27:29.000+02:00</time>
      </trkpt>
      <trkpt lat="43.56345" lon="2.80109">
        <ele>974.7</ele>
        <time>2021-06-30T15:27:30.000+02:00</time>
      </trkpt>
      <trkpt lat="43.56346" lon="2.80107">
        <ele>974.6</ele>
        <time>2021-06-30T15:27:31.000+02:00</time>
      </trkpt>
      <trkpt lat="43.56346" lon="2.80108">
        <ele>974.6</ele>
        <time>2021-06-30T15:27:32.000+02:00</time>
      </trkpt>
      <trkpt lat="43.56346" lon="2.80108">
        <ele>974.6</ele>
        <time>2021-06-30T15:27:33.000+02:00</time>
      </trkpt>
      <trkpt lat="43.56346" lon="2.80108">
        <ele>974.6</ele>
        <time>2021-06-30T15:27:34.000+02:00</time>
      </trkpt>
      <trkpt lat="43.56346" lon="2.80108">
        <ele>974.6</ele>
        <time>2021-06-30T15:27:35.000+02:00</time>
      </trkpt>
      <trkpt lat="43.56346" lon="2.80108">
        <ele>974.6</ele>
        <time>2021-06-30T15:27:36.000+02:00</time>
      </trkpt>
      <trkpt lat="43.56346" lon="2.80108">
        <ele>974.6</ele>
        <time>2021-06-30T15:27:37.000+02:00</time>
      </trkpt>
      <trkpt lat="43.56346" lon="2.80108">
        <ele>974.7</ele>
        <time>2021-06-30T15:27:38.000+02:00</time>
      </trkpt>
      <trkpt lat="43.56347" lon="2.80109">
        <ele>974.8</ele>
        <time>2021-06-30T15:27:39.000+02:00</time>
      </trkpt>
      <trkpt lat="43.56346" lon="2.8011">
        <ele>974.9</ele>
        <time>2021-06-30T15:27:40.000+02:00</time>
      </trkpt>
      <trkpt lat="43.56347" lon="2.80111">
        <ele>975</ele>
        <time>2021-06-30T15:27:41.000+02:00</time>
      </trkpt>
      <trkpt lat="43.56347" lon="2.80112">
        <ele>975.1</ele>
        <time>2021-06-30T15:27:42.000+02:00</time>
      </trkpt>
      <trkpt lat="43.56346" lon="2.80112">
        <ele>975.2</ele>
        <time>2021-06-30T15:27:43.000+02:00</time>
      </trkpt>
      <trkpt lat="43.56347" lon="2.80113">
        <ele>975.3</ele>
        <time>2021-06-30T15:27:44.000+02:00</time>
      </trkpt>
      <trkpt lat="43.56347" lon="2.80114">
        <ele>975.3</ele>
        <time>2021-06-30T15:27:45.000+02:00</time>
      </trkpt>
      <trkpt lat="43.56347" lon="2.80114">
        <ele>975.4</ele>
        <time>2021-06-30T15:27:46.000+02:00</time>
      </trkpt>
      <trkpt lat="43.56347" lon="2.80115">
        <ele>975.5</ele>
        <time>2021-06-30T15:27:47.000+02:00</time>
      </trkpt>
      <trkpt lat="43.56347" lon="2.80116">
        <ele>975.6</ele>
        <time>2021-06-30T15:27:48.000+02:00</time>
      </trkpt>
      <trkpt lat="43.56346" lon="2.80117">
        <ele>975.8</ele>
        <time>2021-06-30T15:27:49.000+02:00</time>
      </trkpt>
      <trkpt lat="43.56346" lon="2.80119">
        <ele>976</ele>
        <time>2021-06-30T15:27:50.000+02:00</time>
      </trkpt>
      <trkpt lat="43.56345" lon="2.8012">
        <ele>976.1</ele>
        <time>2021-06-30T15:27:51.000+02:00</time>
      </trkpt>
      <trkpt lat="43.56345" lon="2.8012">
        <ele>976.2</ele>
        <time>2021-06-30T15:27:52.000+02:00</time>
      </trkpt>
      <trkpt lat="43.56344" lon="2.80121">
        <ele>976.3</ele>
        <time>2021-06-30T15:27:53.000+02:00</time>
      </trkpt>
      <trkpt lat="43.56344" lon="2.80121">
        <ele>976.4</ele>
        <time>2021-06-30T15:27:54.000+02:00</time>
      </trkpt>
      <trkpt lat="43.56343" lon="2.80123">
        <ele>976.6</ele>
        <time>2021-06-30T15:27:55.000+02:00</time>
      </trkpt>
      <trkpt lat="43.56343" lon="2.80123">
        <ele>976.6</ele>
        <time>2021-06-30T15:27:56.000+02:00</time>
      </trkpt>
      <trkpt lat="43.56343" lon="2.80124">
        <ele>976.7</ele>
        <time>2021-06-30T15:27:57.000+02:00</time>
      </trkpt>
      <trkpt lat="43.56343" lon="2.80126">
        <ele>977</ele>
        <time>2021-06-30T15:27:58.000+02:00</time>
      </trkpt>
      <trkpt lat="43.56342" lon="2.80127">
        <ele>977.1</ele>
        <time>2021-06-30T15:27:59.000+02:00</time>
      </trkpt>
      <trkpt lat="43.56342" lon="2.80128">
        <ele>977.2</ele>
        <time>2021-06-30T15:28:00.000+02:00</time>
      </trkpt>
      <trkpt lat="43.56342" lon="2.80129">
        <ele>977.3</ele>
        <time>2021-06-30T15:28:01.000+02:00</time>
      </trkpt>
      <trkpt lat="43.56341" lon="2.80131">
        <ele>977.5</ele>
        <time>2021-06-30T15:28:02.000+02:00</time>
      </trkpt>
      <trkpt lat="43.56341" lon="2.80132">
        <ele>977.7</ele>
        <time>2021-06-30T15:28:03.000+02:00</time>
      </trkpt>
      <trkpt lat="43.56341" lon="2.80133">
        <ele>977.8</ele>
        <time>2021-06-30T15:28:04.000+02:00</time>
      </trkpt>
      <trkpt lat="43.5634" lon="2.80133">
        <ele>977.9</ele>
        <time>2021-06-30T15:28:05.000+02:00</time>
      </trkpt>
      <trkpt lat="43.5634" lon="2.80133">
        <ele>977.9</ele>
        <time>2021-06-30T15:28:06.000+02:00</time>
      </trkpt>
      <trkpt lat="43.5634" lon="2.80134">
        <ele>977.9</ele>
        <time>2021-06-30T15:28:07.000+02:00</time>
      </trkpt>
      <trkpt lat="43.56339" lon="2.80135">
        <ele>978.1</ele>
        <time>2021-06-30T15:28:08.000+02:00</time>
      </trkpt>
      <trkpt lat="43.56339" lon="2.80135">
        <ele>978.2</ele>
        <time>2021-06-30T15:28:09.000+02:00</time>
      </trkpt>
      <trkpt lat="43.56338" lon="2.80136">
        <ele>978.2</ele>
        <time>2021-06-30T15:28:10.000+02:00</time>
      </trkpt>
      <trkpt lat="43.56338" lon="2.80137">
        <ele>978.4</ele>
        <time>2021-06-30T15:28:11.000+02:00</time>
      </trkpt>
      <trkpt lat="43.56338" lon="2.80137">
        <ele>978.4</ele>
        <time>2021-06-30T15:28:12.000+02:00</time>
      </trkpt>
      <trkpt lat="43.56338" lon="2.80138">
        <ele>978.5</ele>
        <time>2021-06-30T15:28:13.000+02:00</time>
      </trkpt>
      <trkpt lat="43.56338" lon="2.80138">
        <ele>978.5</ele>
        <time>2021-06-30T15:28:14.000+02:00</time>
      </trkpt>
      <trkpt lat="43.56338" lon="2.80138">
        <ele>978.6</ele>
        <time>2021-06-30T15:28:15.000+02:00</time>
      </trkpt>
      <trkpt lat="43.56337" lon="2.80139">
        <ele>978.6</ele>
        <time>2021-06-30T15:28:16.000+02:00</time>
      </trkpt>
      <trkpt lat="43.56337" lon="2.80139">
        <ele>978.7</ele>
        <time>2021-06-30T15:28:17.000+02:00</time>
      </trkpt>
      <trkpt lat="43.56337" lon="2.8014">
        <ele>978.8</ele>
        <time>2021-06-30T15:28:18.000+02:00</time>
      </trkpt>
      <trkpt lat="43.56336" lon="2.80141">
        <ele>978.8</ele>
        <time>2021-06-30T15:28:19.000+02:00</time>
      </trkpt>
      <trkpt lat="43.56336" lon="2.80143">
        <ele>979.1</ele>
        <time>2021-06-30T15:28:20.000+02:00</time>
      </trkpt>
      <trkpt lat="43.56335" lon="2.80144">
        <ele>979.2</ele>
        <time>2021-06-30T15:28:21.000+02:00</time>
      </trkpt>
      <trkpt lat="43.56335" lon="2.80145">
        <ele>979.3</ele>
        <time>2021-06-30T15:28:22.000+02:00</time>
      </trkpt>
      <trkpt lat="43.56334" lon="2.80146">
        <ele>979.5</ele>
        <time>2021-06-30T15:28:23.000+02:00</time>
      </trkpt>
      <trkpt lat="43.56332" lon="2.80147">
        <ele>979.7</ele>
        <time>2021-06-30T15:28:24.000+02:00</time>
      </trkpt>
      <trkpt lat="43.56332" lon="2.80147">
        <ele>979.8</ele>
        <time>2021-06-30T15:28:25.000+02:00</time>
      </trkpt>
      <trkpt lat="43.56331" lon="2.80148">
        <ele>979.9</ele>
        <time>2021-06-30T15:28:26.000+02:00</time>
      </trkpt>
      <trkpt lat="43.56331" lon="2.80147">
        <ele>979.8</ele>
        <time>2021-06-30T15:28:27.000+02:00</time>
      </trkpt>
      <trkpt lat="43.5633" lon="2.80149">
        <ele>980.1</ele>
        <time>2021-06-30T15:28:28.000+02:00</time>
      </trkpt>
      <trkpt lat="43.56329" lon="2.8015">
        <ele>980.4</ele>
        <time>2021-06-30T15:28:29.000+02:00</time>
      </trkpt>
      <trkpt lat="43.56329" lon="2.80151">
        <ele>980.5</ele>
        <time>2021-06-30T15:28:30.000+02:00</time>
      </trkpt>
      <trkpt lat="43.56328" lon="2.80153">
        <ele>980.8</ele>
        <time>2021-06-30T15:28:31.000+02:00</time>
      </trkpt>
      <trkpt lat="43.56327" lon="2.80155">
        <ele>981.1</ele>
        <time>2021-06-30T15:28:32.000+02:00</time>
      </trkpt>
      <trkpt lat="43.56326" lon="2.80156">
        <ele>981.3</ele>
        <time>2021-06-30T15:28:33.000+02:00</time>
      </trkpt>
      <trkpt lat="43.56326" lon="2.80156">
        <ele>981.3</ele>
        <time>2021-06-30T15:28:34.000+02:00</time>
      </trkpt>
      <trkpt lat="43.56326" lon="2.80157">
        <ele>981.4</ele>
        <time>2021-06-30T15:28:35.000+02:00</time>
      </trkpt>
      <trkpt lat="43.56326" lon="2.80157">
        <ele>981.5</ele>
        <time>2021-06-30T15:28:36.000+02:00</time>
      </trkpt>
      <trkpt lat="43.56324" lon="2.80156">
        <ele>981.6</ele>
        <time>2021-06-30T15:28:37.000+02:00</time>
      </trkpt>
      <trkpt lat="43.56323" lon="2.80157">
        <ele>981.7</ele>
        <time>2021-06-30T15:28:38.000+02:00</time>
      </trkpt>
      <trkpt lat="43.56323" lon="2.80157">
        <ele>981.7</ele>
        <time>2021-06-30T15:28:39.000+02:00</time>
      </trkpt>
      <trkpt lat="43.56323" lon="2.80156">
        <ele>981.7</ele>
        <time>2021-06-30T15:28:40.000+02:00</time>
      </trkpt>
      <trkpt lat="43.56322" lon="2.80156">
        <ele>981.7</ele>
        <time>2021-06-30T15:28:41.000+02:00</time>
      </trkpt>
      <trkpt lat="43.56322" lon="2.80156">
        <ele>981.7</ele>
        <time>2021-06-30T15:28:42.000+02:00</time>
      </trkpt>
      <trkpt lat="43.56322" lon="2.80156">
        <ele>981.7</ele>
        <time>2021-06-30T15:28:43.000+02:00</time>
      </trkpt>
      <trkpt lat="43.56322" lon="2.80156">
        <ele>981.7</ele>
        <time>2021-06-30T15:28:44.000+02:00</time>
      </trkpt>
      <trkpt lat="43.56323" lon="2.80156">
        <ele>981.7</ele>
        <time>2021-06-30T15:28:45.000+02:00</time>
      </trkpt>
      <trkpt lat="43.56322" lon="2.80157">
        <ele>981.8</ele>
        <time>2021-06-30T15:28:46.000+02:00</time>
      </trkpt>
      <trkpt lat="43.56322" lon="2.80156">
        <ele>981.7</ele>
        <time>2021-06-30T15:28:47.000+02:00</time>
      </trkpt>
      <trkpt lat="43.56322" lon="2.80156">
        <ele>981.7</ele>
        <time>2021-06-30T15:28:48.000+02:00</time>
      </trkpt>
      <trkpt lat="43.56322" lon="2.80156">
        <ele>981.7</ele>
        <time>2021-06-30T15:28:49.000+02:00</time>
      </trkpt>
      <trkpt lat="43.56321" lon="2.80156">
        <ele>981.8</ele>
        <time>2021-06-30T15:28:50.000+02:00</time>
      </trkpt>
      <trkpt lat="43.56321" lon="2.80158">
        <ele>982.1</ele>
        <time>2021-06-30T15:28:51.000+02:00</time>
      </trkpt>
      <trkpt lat="43.5632" lon="2.8016">
        <ele>982.3</ele>
        <time>2021-06-30T15:28:52.000+02:00</time>
      </trkpt>
      <trkpt lat="43.5632" lon="2.80161">
        <ele>982.5</ele>
        <time>2021-06-30T15:28:53.000+02:00</time>
      </trkpt>
      <trkpt lat="43.5632" lon="2.80162">
        <ele>982.7</ele>
        <time>2021-06-30T15:28:54.000+02:00</time>
      </trkpt>
      <trkpt lat="43.56319" lon="2.80165">
        <ele>982.9</ele>
        <time>2021-06-30T15:28:55.000+02:00</time>
      </trkpt>
      <trkpt lat="43.56319" lon="2.80165">
        <ele>983</ele>
        <time>2021-06-30T15:28:56.000+02:00</time>
      </trkpt>
      <trkpt lat="43.56319" lon="2.80165">
        <ele>983</ele>
        <time>2021-06-30T15:28:57.000+02:00</time>
      </trkpt>
      <trkpt lat="43.56319" lon="2.80165">
        <ele>983</ele>
        <time>2021-06-30T15:28:58.000+02:00</time>
      </trkpt>
      <trkpt lat="43.56319" lon="2.80165">
        <ele>983</ele>
        <time>2021-06-30T15:28:59.000+02:00</time>
      </trkpt>
      <trkpt lat="43.56319" lon="2.80165">
        <ele>983</ele>
        <time>2021-06-30T15:29:00.000+02:00</time>
      </trkpt>
      <trkpt lat="43.56319" lon="2.80166">
        <ele>983.1</ele>
        <time>2021-06-30T15:29:01.000+02:00</time>
      </trkpt>
      <trkpt lat="43.56319" lon="2.80166">
        <ele>983.1</ele>
        <time>2021-06-30T15:29:02.000+02:00</time>
      </trkpt>
      <trkpt lat="43.56319" lon="2.80166">
        <ele>983.1</ele>
        <time>2021-06-30T15:29:03.000+02:00</time>
      </trkpt>
      <trkpt lat="43.56319" lon="2.80166">
        <ele>983.1</ele>
        <time>2021-06-30T15:29:04.000+02:00</time>
      </trkpt>
      <trkpt lat="43.56319" lon="2.80166">
        <ele>983.1</ele>
        <time>2021-06-30T15:29:05.000+02:00</time>
      </trkpt>
      <trkpt lat="43.5632" lon="2.80166">
        <ele>983.1</ele>
        <time>2021-06-30T15:29:06.000+02:00</time>
      </trkpt>
      <trkpt lat="43.5632" lon="2.80166">
        <ele>983.1</ele>
        <time>2021-06-30T15:29:07.000+02:00</time>
      </trkpt>
      <trkpt lat="43.5632" lon="2.80167">
        <ele>983.2</ele>
        <time>2021-06-30T15:29:08.000+02:00</time>
      </trkpt>
      <trkpt lat="43.5632" lon="2.80168">
        <ele>983.3</ele>
        <time>2021-06-30T15:29:09.000+02:00</time>
      </trkpt>
      <trkpt lat="43.5632" lon="2.80169">
        <ele>983.4</ele>
        <time>2021-06-30T15:29:10.000+02:00</time>
      </trkpt>
      <trkpt lat="43.5632" lon="2.8017">
        <ele>983.4</ele>
        <time>2021-06-30T15:29:11.000+02:00</time>
      </trkpt>
      <trkpt lat="43.5632" lon="2.80171">
        <ele>983.5</ele>
        <time>2021-06-30T15:29:12.000+02:00</time>
      </trkpt>
      <trkpt lat="43.5632" lon="2.80171">
        <ele>983.5</ele>
        <time>2021-06-30T15:29:13.000+02:00</time>
      </trkpt>
      <trkpt lat="43.5632" lon="2.80171">
        <ele>983.5</ele>
        <time>2021-06-30T15:29:14.000+02:00</time>
      </trkpt>
      <trkpt lat="43.56321" lon="2.80172">
        <ele>983.5</ele>
        <time>2021-06-30T15:29:15.000+02:00</time>
      </trkpt>
      <trkpt lat="43.56321" lon="2.80172">
        <ele>983.6</ele>
        <time>2021-06-30T15:29:16.000+02:00</time>
      </trkpt>
      <trkpt lat="43.56321" lon="2.80172">
        <ele>983.6</ele>
        <time>2021-06-30T15:29:17.000+02:00</time>
      </trkpt>
      <trkpt lat="43.56321" lon="2.80172">
        <ele>983.6</ele>
        <time>2021-06-30T15:29:18.000+02:00</time>
      </trkpt>
      <trkpt lat="43.56321" lon="2.80172">
        <ele>983.6</ele>
        <time>2021-06-30T15:29:19.000+02:00</time>
      </trkpt>
      <trkpt lat="43.56321" lon="2.80172">
        <ele>983.6</ele>
        <time>2021-06-30T15:29:20.000+02:00</time>
      </trkpt>
      <trkpt lat="43.56321" lon="2.80172">
        <ele>983.6</ele>
        <time>2021-06-30T15:29:21.000+02:00</time>
      </trkpt>
      <trkpt lat="43.56321" lon="2.80172">
        <ele>983.6</ele>
        <time>2021-06-30T15:29:22.000+02:00</time>
      </trkpt>
      <trkpt lat="43.56321" lon="2.80172">
        <ele>983.6</ele>
        <time>2021-06-30T15:29:23.000+02:00</time>
      </trkpt>
      <trkpt lat="43.56321" lon="2.80172">
        <ele>983.6</ele>
        <time>2021-06-30T15:29:24.000+02:00</time>
      </trkpt>
      <trkpt lat="43.56321" lon="2.80172">
        <ele>983.5</ele>
        <time>2021-06-30T15:29:25.000+02:00</time>
      </trkpt>
      <trkpt lat="43.56323" lon="2.80173">
        <ele>983.5</ele>
        <time>2021-06-30T15:29:26.000+02:00</time>
      </trkpt>
      <trkpt lat="43.56325" lon="2.80173">
        <ele>983.3</ele>
        <time>2021-06-30T15:29:27.000+02:00</time>
      </trkpt>
      <trkpt lat="43.56327" lon="2.80172">
        <ele>983.1</ele>
        <time>2021-06-30T15:29:28.000+02:00</time>
      </trkpt>
      <trkpt lat="43.56327" lon="2.80172">
        <ele>983</ele>
        <time>2021-06-30T15:29:29.000+02:00</time>
      </trkpt>
      <trkpt lat="43.56329" lon="2.80173">
        <ele>982.9</ele>
        <time>2021-06-30T15:29:30.000+02:00</time>
      </trkpt>
      <trkpt lat="43.56329" lon="2.80172">
        <ele>982.9</ele>
        <time>2021-06-30T15:29:31.000+02:00</time>
      </trkpt>
      <trkpt lat="43.56331" lon="2.80173">
        <ele>982.8</ele>
        <time>2021-06-30T15:29:32.000+02:00</time>
      </trkpt>
      <trkpt lat="43.56331" lon="2.80173">
        <ele>982.8</ele>
        <time>2021-06-30T15:29:33.000+02:00</time>
      </trkpt>
      <trkpt lat="43.56331" lon="2.80173">
        <ele>982.8</ele>
        <time>2021-06-30T15:29:34.000+02:00</time>
      </trkpt>
      <trkpt lat="43.56331" lon="2.80173">
        <ele>982.8</ele>
        <time>2021-06-30T15:29:35.000+02:00</time>
      </trkpt>
      <trkpt lat="43.56331" lon="2.80173">
        <ele>982.8</ele>
        <time>2021-06-30T15:29:36.000+02:00</time>
      </trkpt>
      <trkpt lat="43.56331" lon="2.80173">
        <ele>982.8</ele>
        <time>2021-06-30T15:29:37.000+02:00</time>
      </trkpt>
      <trkpt lat="43.56331" lon="2.80173">
        <ele>982.8</ele>
        <time>2021-06-30T15:29:38.000+02:00</time>
      </trkpt>
      <trkpt lat="43.56332" lon="2.80174">
        <ele>982.8</ele>
        <time>2021-06-30T15:29:39.000+02:00</time>
      </trkpt>
      <trkpt lat="43.56333" lon="2.80173">
        <ele>982.7</ele>
        <time>2021-06-30T15:29:40.000+02:00</time>
      </trkpt>
      <trkpt lat="43.56333" lon="2.80174">
        <ele>982.7</ele>
        <time>2021-06-30T15:29:41.000+02:00</time>
      </trkpt>
      <trkpt lat="43.56333" lon="2.80174">
        <ele>982.7</ele>
        <time>2021-06-30T15:29:42.000+02:00</time>
      </trkpt>
      <trkpt lat="43.56334" lon="2.80175">
        <ele>982.8</ele>
        <time>2021-06-30T15:29:43.000+02:00</time>
      </trkpt>
      <trkpt lat="43.56335" lon="2.80176">
        <ele>982.9</ele>
        <time>2021-06-30T15:29:44.000+02:00</time>
      </trkpt>
      <trkpt lat="43.56335" lon="2.80177">
        <ele>983</ele>
        <time>2021-06-30T15:29:45.000+02:00</time>
      </trkpt>
      <trkpt lat="43.56336" lon="2.80177">
        <ele>983</ele>
        <time>2021-06-30T15:29:46.000+02:00</time>
      </trkpt>
      <trkpt lat="43.56336" lon="2.80177">
        <ele>983</ele>
        <time>2021-06-30T15:29:47.000+02:00</time>
      </trkpt>
      <trkpt lat="43.56336" lon="2.80177">
        <ele>983</ele>
        <time>2021-06-30T15:29:48.000+02:00</time>
      </trkpt>
      <trkpt lat="43.56336" lon="2.80178">
        <ele>983.1</ele>
        <time>2021-06-30T15:29:49.000+02:00</time>
      </trkpt>
      <trkpt lat="43.56335" lon="2.80179">
        <ele>983.2</ele>
        <time>2021-06-30T15:29:50.000+02:00</time>
      </trkpt>
      <trkpt lat="43.56335" lon="2.8018">
        <ele>983.3</ele>
        <time>2021-06-30T15:29:51.000+02:00</time>
      </trkpt>
      <trkpt lat="43.56335" lon="2.80181">
        <ele>983.3</ele>
        <time>2021-06-30T15:29:52.000+02:00</time>
      </trkpt>
      <trkpt lat="43.56335" lon="2.80181">
        <ele>983.4</ele>
        <time>2021-06-30T15:29:53.000+02:00</time>
      </trkpt>
      <trkpt lat="43.56334" lon="2.80181">
        <ele>983.4</ele>
        <time>2021-06-30T15:29:54.000+02:00</time>
      </trkpt>
      <trkpt lat="43.56334" lon="2.80181">
        <ele>983.4</ele>
        <time>2021-06-30T15:29:55.000+02:00</time>
      </trkpt>
      <trkpt lat="43.56333" lon="2.80181">
        <ele>983.4</ele>
        <time>2021-06-30T15:29:56.000+02:00</time>
      </trkpt>
      <trkpt lat="43.56332" lon="2.80181">
        <ele>983.5</ele>
        <time>2021-06-30T15:29:57.000+02:00</time>
      </trkpt>
      <trkpt lat="43.56332" lon="2.80181">
        <ele>983.5</ele>
        <time>2021-06-30T15:29:58.000+02:00</time>
      </trkpt>
      <trkpt lat="43.5633" lon="2.80181">
        <ele>983.6</ele>
        <time>2021-06-30T15:29:59.000+02:00</time>
      </trkpt>
      <trkpt lat="43.56329" lon="2.80181">
        <ele>983.8</ele>
        <time>2021-06-30T15:30:00.000+02:00</time>
      </trkpt>
      <trkpt lat="43.56327" lon="2.80182">
        <ele>984</ele>
        <time>2021-06-30T15:30:01.000+02:00</time>
      </trkpt>
      <trkpt lat="43.56327" lon="2.80182">
        <ele>984</ele>
        <time>2021-06-30T15:30:02.000+02:00</time>
      </trkpt>
      <trkpt lat="43.56327" lon="2.80181">
        <ele>984</ele>
        <time>2021-06-30T15:30:03.000+02:00</time>
      </trkpt>
      <trkpt lat="43.56327" lon="2.80181">
        <ele>983.9</ele>
        <time>2021-06-30T15:30:04.000+02:00</time>
      </trkpt>
      <trkpt lat="43.56327" lon="2.80181">
        <ele>983.9</ele>
        <time>2021-06-30T15:30:05.000+02:00</time>
      </trkpt>
      <trkpt lat="43.56327" lon="2.80181">
        <ele>983.9</ele>
        <time>2021-06-30T15:30:06.000+02:00</time>
      </trkpt>
      <trkpt lat="43.56327" lon="2.80181">
        <ele>983.9</ele>
        <time>2021-06-30T15:30:07.000+02:00</time>
      </trkpt>
      <trkpt lat="43.56327" lon="2.80181">
        <ele>983.9</ele>
        <time>2021-06-30T15:30:08.000+02:00</time>
      </trkpt>
      <trkpt lat="43.56327" lon="2.80181">
        <ele>983.9</ele>
        <time>2021-06-30T15:30:09.000+02:00</time>
      </trkpt>
      <trkpt lat="43.56326" lon="2.80181">
        <ele>983.9</ele>
        <time>2021-06-30T15:30:10.000+02:00</time>
      </trkpt>
      <trkpt lat="43.56326" lon="2.80181">
        <ele>983.9</ele>
        <time>2021-06-30T15:30:11.000+02:00</time>
      </trkpt>
      <trkpt lat="43.56326" lon="2.80181">
        <ele>983.9</ele>
        <time>2021-06-30T15:30:12.000+02:00</time>
      </trkpt>
      <trkpt lat="43.56326" lon="2.80181">
        <ele>983.9</ele>
        <time>2021-06-30T15:30:13.000+02:00</time>
      </trkpt>
      <trkpt lat="43.56326" lon="2.80181">
        <ele>983.9</ele>
        <time>2021-06-30T15:30:14.000+02:00</time>
      </trkpt>
      <trkpt lat="43.56326" lon="2.80181">
        <ele>984</ele>
        <time>2021-06-30T15:30:15.000+02:00</time>
      </trkpt>
      <trkpt lat="43.56326" lon="2.80181">
        <ele>984</ele>
        <time>2021-06-30T15:30:16.000+02:00</time>
      </trkpt>
      <trkpt lat="43.56326" lon="2.80181">
        <ele>984</ele>
        <time>2021-06-30T15:30:17.000+02:00</time>
      </trkpt>
      <trkpt lat="43.56326" lon="2.80181">
        <ele>984</ele>
        <time>2021-06-30T15:30:18.000+02:00</time>
      </trkpt>
      <trkpt lat="43.56326" lon="2.80181">
        <ele>984</ele>
        <time>2021-06-30T15:30:19.000+02:00</time>
      </trkpt>
      <trkpt lat="43.56326" lon="2.80181">
        <ele>984</ele>
        <time>2021-06-30T15:30:20.000+02:00</time>
      </trkpt>
      <trkpt lat="43.56326" lon="2.80181">
        <ele>984</ele>
        <time>2021-06-30T15:30:21.000+02:00</time>
      </trkpt>
      <trkpt lat="43.56326" lon="2.80181">
        <ele>984</ele>
        <time>2021-06-30T15:30:22.000+02:00</time>
      </trkpt>
      <trkpt lat="43.56326" lon="2.80181">
        <ele>983.9</ele>
        <time>2021-06-30T15:30:23.000+02:00</time>
      </trkpt>
      <trkpt lat="43.56326" lon="2.8018">
        <ele>983.9</ele>
        <time>2021-06-30T15:30:24.000+02:00</time>
      </trkpt>
      <trkpt lat="43.56327" lon="2.8018">
        <ele>983.8</ele>
        <time>2021-06-30T15:30:25.000+02:00</time>
      </trkpt>
      <trkpt lat="43.56327" lon="2.8018">
        <ele>983.8</ele>
        <time>2021-06-30T15:30:26.000+02:00</time>
      </trkpt>
      <trkpt lat="43.56327" lon="2.8018">
        <ele>983.8</ele>
        <time>2021-06-30T15:30:27.000+02:00</time>
      </trkpt>
      <trkpt lat="43.56327" lon="2.8018">
        <ele>983.8</ele>
        <time>2021-06-30T15:30:28.000+02:00</time>
      </trkpt>
      <trkpt lat="43.56327" lon="2.80179">
        <ele>983.8</ele>
        <time>2021-06-30T15:30:29.000+02:00</time>
      </trkpt>
      <trkpt lat="43.56328" lon="2.80178">
        <ele>983.6</ele>
        <time>2021-06-30T15:30:30.000+02:00</time>
      </trkpt>
      <trkpt lat="43.56328" lon="2.80176">
        <ele>983.4</ele>
        <time>2021-06-30T15:30:31.000+02:00</time>
      </trkpt>
      <trkpt lat="43.56328" lon="2.80177">
        <ele>983.4</ele>
        <time>2021-06-30T15:30:32.000+02:00</time>
      </trkpt>
      <trkpt lat="43.5633" lon="2.80178">
        <ele>983.4</ele>
        <time>2021-06-30T15:30:33.000+02:00</time>
      </trkpt>
      <trkpt lat="43.56332" lon="2.80179">
        <ele>983.3</ele>
        <time>2021-06-30T15:30:34.000+02:00</time>
      </trkpt>
      <trkpt lat="43.56334" lon="2.80178">
        <ele>983.1</ele>
        <time>2021-06-30T15:30:35.000+02:00</time>
      </trkpt>
      <trkpt lat="43.56335" lon="2.80178">
        <ele>983.1</ele>
        <time>2021-06-30T15:30:36.000+02:00</time>
      </trkpt>
      <trkpt lat="43.56337" lon="2.80178">
        <ele>983.1</ele>
        <time>2021-06-30T15:30:37.000+02:00</time>
      </trkpt>
      <trkpt lat="43.56339" lon="2.80177">
        <ele>983</ele>
        <time>2021-06-30T15:30:38.000+02:00</time>
      </trkpt>
      <trkpt lat="43.5634" lon="2.80176">
        <ele>983</ele>
        <time>2021-06-30T15:30:39.000+02:00</time>
      </trkpt>
      <trkpt lat="43.56342" lon="2.80177">
        <ele>983</ele>
        <time>2021-06-30T15:30:40.000+02:00</time>
      </trkpt>
      <trkpt lat="43.56344" lon="2.80176">
        <ele>983</ele>
        <time>2021-06-30T15:30:41.000+02:00</time>
      </trkpt>
      <trkpt lat="43.56346" lon="2.80176">
        <ele>983</ele>
        <time>2021-06-30T15:30:42.000+02:00</time>
      </trkpt>
      <trkpt lat="43.56347" lon="2.80176">
        <ele>982.9</ele>
        <time>2021-06-30T15:30:43.000+02:00</time>
      </trkpt>
      <trkpt lat="43.5635" lon="2.80176">
        <ele>982.9</ele>
        <time>2021-06-30T15:30:44.000+02:00</time>
      </trkpt>
      <trkpt lat="43.56352" lon="2.80175">
        <ele>982.9</ele>
        <time>2021-06-30T15:30:45.000+02:00</time>
      </trkpt>
      <trkpt lat="43.56353" lon="2.80175">
        <ele>982.9</ele>
        <time>2021-06-30T15:30:46.000+02:00</time>
      </trkpt>
      <trkpt lat="43.56354" lon="2.80175">
        <ele>982.8</ele>
        <time>2021-06-30T15:30:47.000+02:00</time>
      </trkpt>
      <trkpt lat="43.56357" lon="2.80175">
        <ele>982.8</ele>
        <time>2021-06-30T15:30:48.000+02:00</time>
      </trkpt>
      <trkpt lat="43.56358" lon="2.80175">
        <ele>982.8</ele>
        <time>2021-06-30T15:30:49.000+02:00</time>
      </trkpt>
      <trkpt lat="43.56359" lon="2.80174">
        <ele>982.8</ele>
        <time>2021-06-30T15:30:50.000+02:00</time>
      </trkpt>
      <trkpt lat="43.56361" lon="2.80174">
        <ele>982.8</ele>
        <time>2021-06-30T15:30:51.000+02:00</time>
      </trkpt>
      <trkpt lat="43.56363" lon="2.80174">
        <ele>982.7</ele>
        <time>2021-06-30T15:30:52.000+02:00</time>
      </trkpt>
      <trkpt lat="43.56364" lon="2.80173">
        <ele>982.7</ele>
        <time>2021-06-30T15:30:53.000+02:00</time>
      </trkpt>
      <trkpt lat="43.56365" lon="2.80173">
        <ele>982.7</ele>
        <time>2021-06-30T15:30:54.000+02:00</time>
      </trkpt>
      <trkpt lat="43.56367" lon="2.80173">
        <ele>982.7</ele>
        <time>2021-06-30T15:30:55.000+02:00</time>
      </trkpt>
      <trkpt lat="43.56368" lon="2.80173">
        <ele>982.7</ele>
        <time>2021-06-30T15:30:56.000+02:00</time>
      </trkpt>
      <trkpt lat="43.5637" lon="2.80173">
        <ele>982.7</ele>
        <time>2021-06-30T15:30:57.000+02:00</time>
      </trkpt>
      <trkpt lat="43.56371" lon="2.80172">
        <ele>982.6</ele>
        <time>2021-06-30T15:30:58.000+02:00</time>
      </trkpt>
      <trkpt lat="43.56372" lon="2.80172">
        <ele>982.6</ele>
        <time>2021-06-30T15:30:59.000+02:00</time>
      </trkpt>
      <trkpt lat="43.56374" lon="2.80172">
        <ele>982.6</ele>
        <time>2021-06-30T15:31:00.000+02:00</time>
      </trkpt>
      <trkpt lat="43.56375" lon="2.80172">
        <ele>982.6</ele>
        <time>2021-06-30T15:31:01.000+02:00</time>
      </trkpt>
      <trkpt lat="43.56376" lon="2.80172">
        <ele>982.6</ele>
        <time>2021-06-30T15:31:02.000+02:00</time>
      </trkpt>
      <trkpt lat="43.56377" lon="2.80171">
        <ele>982.6</ele>
        <time>2021-06-30T15:31:03.000+02:00</time>
      </trkpt>
      <trkpt lat="43.56378" lon="2.80171">
        <ele>982.6</ele>
        <time>2021-06-30T15:31:04.000+02:00</time>
      </trkpt>
      <trkpt lat="43.5638" lon="2.80172">
        <ele>982.6</ele>
        <time>2021-06-30T15:31:05.000+02:00</time>
      </trkpt>
      <trkpt lat="43.5638" lon="2.80172">
        <ele>982.6</ele>
        <time>2021-06-30T15:31:06.000+02:00</time>
      </trkpt>
      <trkpt lat="43.56381" lon="2.80172">
        <ele>982.6</ele>
        <time>2021-06-30T15:31:07.000+02:00</time>
      </trkpt>
      <trkpt lat="43.56382" lon="2.80173">
        <ele>982.7</ele>
        <time>2021-06-30T15:31:08.000+02:00</time>
      </trkpt>
      <trkpt lat="43.56382" lon="2.80173">
        <ele>982.8</ele>
        <time>2021-06-30T15:31:09.000+02:00</time>
      </trkpt>
      <trkpt lat="43.56384" lon="2.80174">
        <ele>982.8</ele>
        <time>2021-06-30T15:31:10.000+02:00</time>
      </trkpt>
      <trkpt lat="43.56386" lon="2.80174">
        <ele>982.8</ele>
        <time>2021-06-30T15:31:11.000+02:00</time>
      </trkpt>
      <trkpt lat="43.56387" lon="2.80173">
        <ele>982.8</ele>
        <time>2021-06-30T15:31:12.000+02:00</time>
      </trkpt>
      <trkpt lat="43.56388" lon="2.80173">
        <ele>982.8</ele>
        <time>2021-06-30T15:31:13.000+02:00</time>
      </trkpt>
      <trkpt lat="43.56389" lon="2.80173">
        <ele>982.8</ele>
        <time>2021-06-30T15:31:14.000+02:00</time>
      </trkpt>
      <trkpt lat="43.56391" lon="2.80173">
        <ele>982.8</ele>
        <time>2021-06-30T15:31:15.000+02:00</time>
      </trkpt>
      <trkpt lat="43.56392" lon="2.80173">
        <ele>982.8</ele>
        <time>2021-06-30T15:31:16.000+02:00</time>
      </trkpt>
      <trkpt lat="43.56393" lon="2.80173">
        <ele>982.7</ele>
        <time>2021-06-30T15:31:17.000+02:00</time>
      </trkpt>
      <trkpt lat="43.56393" lon="2.80173">
        <ele>982.7</ele>
        <time>2021-06-30T15:31:18.000+02:00</time>
      </trkpt>
      <trkpt lat="43.56394" lon="2.80172">
        <ele>982.7</ele>
        <time>2021-06-30T15:31:19.000+02:00</time>
      </trkpt>
      <trkpt lat="43.56396" lon="2.80173">
        <ele>982.7</ele>
        <time>2021-06-30T15:31:20.000+02:00</time>
      </trkpt>
      <trkpt lat="43.56398" lon="2.80173">
        <ele>982.8</ele>
        <time>2021-06-30T15:31:21.000+02:00</time>
      </trkpt>
      <trkpt lat="43.56399" lon="2.80172">
        <ele>982.7</ele>
        <time>2021-06-30T15:31:22.000+02:00</time>
      </trkpt>
      <trkpt lat="43.56401" lon="2.80172">
        <ele>982.6</ele>
        <time>2021-06-30T15:31:23.000+02:00</time>
      </trkpt>
      <trkpt lat="43.56402" lon="2.80171">
        <ele>982.5</ele>
        <time>2021-06-30T15:31:24.000+02:00</time>
      </trkpt>
      <trkpt lat="43.56403" lon="2.8017">
        <ele>982.5</ele>
        <time>2021-06-30T15:31:25.000+02:00</time>
      </trkpt>
      <trkpt lat="43.56404" lon="2.8017">
        <ele>982.4</ele>
        <time>2021-06-30T15:31:26.000+02:00</time>
      </trkpt>
      <trkpt lat="43.56405" lon="2.8017">
        <ele>982.4</ele>
        <time>2021-06-30T15:31:27.000+02:00</time>
      </trkpt>
      <trkpt lat="43.56407" lon="2.8017">
        <ele>982.4</ele>
        <time>2021-06-30T15:31:28.000+02:00</time>
      </trkpt>
      <trkpt lat="43.56408" lon="2.8017">
        <ele>982.4</ele>
        <time>2021-06-30T15:31:29.000+02:00</time>
      </trkpt>
      <trkpt lat="43.56409" lon="2.80169">
        <ele>982.3</ele>
        <time>2021-06-30T15:31:30.000+02:00</time>
      </trkpt>
      <trkpt lat="43.5641" lon="2.80169">
        <ele>982.3</ele>
        <time>2021-06-30T15:31:31.000+02:00</time>
      </trkpt>
      <trkpt lat="43.56411" lon="2.80169">
        <ele>982.3</ele>
        <time>2021-06-30T15:31:32.000+02:00</time>
      </trkpt>
      <trkpt lat="43.56412" lon="2.80168">
        <ele>982.2</ele>
        <time>2021-06-30T15:31:33.000+02:00</time>
      </trkpt>
      <trkpt lat="43.56413" lon="2.80168">
        <ele>982.2</ele>
        <time>2021-06-30T15:31:34.000+02:00</time>
      </trkpt>
      <trkpt lat="43.56414" lon="2.80168">
        <ele>982.1</ele>
        <time>2021-06-30T15:31:35.000+02:00</time>
      </trkpt>
      <trkpt lat="43.56415" lon="2.80167">
        <ele>982.1</ele>
        <time>2021-06-30T15:31:36.000+02:00</time>
      </trkpt>
      <trkpt lat="43.56416" lon="2.80167">
        <ele>982</ele>
        <time>2021-06-30T15:31:37.000+02:00</time>
      </trkpt>
      <trkpt lat="43.56417" lon="2.80167">
        <ele>982</ele>
        <time>2021-06-30T15:31:38.000+02:00</time>
      </trkpt>
      <trkpt lat="43.56418" lon="2.80166">
        <ele>982</ele>
        <time>2021-06-30T15:31:39.000+02:00</time>
      </trkpt>
      <trkpt lat="43.56418" lon="2.80166">
        <ele>982</ele>
        <time>2021-06-30T15:31:40.000+02:00</time>
      </trkpt>
      <trkpt lat="43.56419" lon="2.80166">
        <ele>981.9</ele>
        <time>2021-06-30T15:31:41.000+02:00</time>
      </trkpt>
      <trkpt lat="43.56421" lon="2.80165">
        <ele>981.8</ele>
        <time>2021-06-30T15:31:42.000+02:00</time>
      </trkpt>
      <trkpt lat="43.56422" lon="2.80164">
        <ele>981.7</ele>
        <time>2021-06-30T15:31:43.000+02:00</time>
      </trkpt>
      <trkpt lat="43.56423" lon="2.80164">
        <ele>981.7</ele>
        <time>2021-06-30T15:31:44.000+02:00</time>
      </trkpt>
      <trkpt lat="43.56425" lon="2.80163">
        <ele>981.7</ele>
        <time>2021-06-30T15:31:45.000+02:00</time>
      </trkpt>
      <trkpt lat="43.56426" lon="2.80163">
        <ele>981.7</ele>
        <time>2021-06-30T15:31:46.000+02:00</time>
      </trkpt>
      <trkpt lat="43.56427" lon="2.80163">
        <ele>981.7</ele>
        <time>2021-06-30T15:31:47.000+02:00</time>
      </trkpt>
      <trkpt lat="43.56428" lon="2.80163">
        <ele>981.7</ele>
        <time>2021-06-30T15:31:48.000+02:00</time>
      </trkpt>
      <trkpt lat="43.5643" lon="2.80163">
        <ele>981.7</ele>
        <time>2021-06-30T15:31:49.000+02:00</time>
      </trkpt>
      <trkpt lat="43.56431" lon="2.80163">
        <ele>981.7</ele>
        <time>2021-06-30T15:31:50.000+02:00</time>
      </trkpt>
      <trkpt lat="43.56432" lon="2.80163">
        <ele>981.8</ele>
        <time>2021-06-30T15:31:51.000+02:00</time>
      </trkpt>
      <trkpt lat="43.56433" lon="2.80163">
        <ele>981.8</ele>
        <time>2021-06-30T15:31:52.000+02:00</time>
      </trkpt>
      <trkpt lat="43.56434" lon="2.80163">
        <ele>981.8</ele>
        <time>2021-06-30T15:31:53.000+02:00</time>
      </trkpt>
      <trkpt lat="43.56435" lon="2.80162">
        <ele>981.8</ele>
        <time>2021-06-30T15:31:54.000+02:00</time>
      </trkpt>
      <trkpt lat="43.56437" lon="2.80162">
        <ele>981.7</ele>
        <time>2021-06-30T15:31:55.000+02:00</time>
      </trkpt>
      <trkpt lat="43.56438" lon="2.80161">
        <ele>981.7</ele>
        <time>2021-06-30T15:31:56.000+02:00</time>
      </trkpt>
      <trkpt lat="43.56439" lon="2.80161">
        <ele>981.6</ele>
        <time>2021-06-30T15:31:57.000+02:00</time>
      </trkpt>
      <trkpt lat="43.56441" lon="2.8016">
        <ele>981.5</ele>
        <time>2021-06-30T15:31:58.000+02:00</time>
      </trkpt>
      <trkpt lat="43.56442" lon="2.80159">
        <ele>981.4</ele>
        <time>2021-06-30T15:31:59.000+02:00</time>
      </trkpt>
      <trkpt lat="43.56443" lon="2.80158">
        <ele>981.3</ele>
        <time>2021-06-30T15:32:00.000+02:00</time>
      </trkpt>
      <trkpt lat="43.56444" lon="2.80158">
        <ele>981.3</ele>
        <time>2021-06-30T15:32:01.000+02:00</time>
      </trkpt>
      <trkpt lat="43.56446" lon="2.80157">
        <ele>981.2</ele>
        <time>2021-06-30T15:32:02.000+02:00</time>
      </trkpt>
      <trkpt lat="43.56447" lon="2.80157">
        <ele>981.2</ele>
        <time>2021-06-30T15:32:03.000+02:00</time>
      </trkpt>
      <trkpt lat="43.56449" lon="2.80156">
        <ele>981.1</ele>
        <time>2021-06-30T15:32:04.000+02:00</time>
      </trkpt>
      <trkpt lat="43.5645" lon="2.80156">
        <ele>981.1</ele>
        <time>2021-06-30T15:32:05.000+02:00</time>
      </trkpt>
      <trkpt lat="43.56451" lon="2.80155">
        <ele>981</ele>
        <time>2021-06-30T15:32:06.000+02:00</time>
      </trkpt>
      <trkpt lat="43.56452" lon="2.80155">
        <ele>981</ele>
        <time>2021-06-30T15:32:07.000+02:00</time>
      </trkpt>
      <trkpt lat="43.56452" lon="2.80154">
        <ele>980.9</ele>
        <time>2021-06-30T15:32:08.000+02:00</time>
      </trkpt>
      <trkpt lat="43.56453" lon="2.80154">
        <ele>980.9</ele>
        <time>2021-06-30T15:32:09.000+02:00</time>
      </trkpt>
      <trkpt lat="43.56454" lon="2.80153">
        <ele>980.8</ele>
        <time>2021-06-30T15:32:10.000+02:00</time>
      </trkpt>
      <trkpt lat="43.56455" lon="2.80152">
        <ele>980.6</ele>
        <time>2021-06-30T15:32:11.000+02:00</time>
      </trkpt>
      <trkpt lat="43.56456" lon="2.80151">
        <ele>980.5</ele>
        <time>2021-06-30T15:32:12.000+02:00</time>
      </trkpt>
      <trkpt lat="43.56457" lon="2.8015">
        <ele>980.4</ele>
        <time>2021-06-30T15:32:13.000+02:00</time>
      </trkpt>
      <trkpt lat="43.56458" lon="2.80149">
        <ele>980.3</ele>
        <time>2021-06-30T15:32:14.000+02:00</time>
      </trkpt>
      <trkpt lat="43.56459" lon="2.80149">
        <ele>980.2</ele>
        <time>2021-06-30T15:32:15.000+02:00</time>
      </trkpt>
      <trkpt lat="43.5646" lon="2.80148">
        <ele>980.2</ele>
        <time>2021-06-30T15:32:16.000+02:00</time>
      </trkpt>
      <trkpt lat="43.56461" lon="2.80148">
        <ele>980.1</ele>
        <time>2021-06-30T15:32:17.000+02:00</time>
      </trkpt>
      <trkpt lat="43.56462" lon="2.80147">
        <ele>980</ele>
        <time>2021-06-30T15:32:18.000+02:00</time>
      </trkpt>
      <trkpt lat="43.56463" lon="2.80146">
        <ele>979.9</ele>
        <time>2021-06-30T15:32:19.000+02:00</time>
      </trkpt>
      <trkpt lat="43.56464" lon="2.80145">
        <ele>979.8</ele>
        <time>2021-06-30T15:32:20.000+02:00</time>
      </trkpt>
      <trkpt lat="43.56465" lon="2.80145">
        <ele>979.7</ele>
        <time>2021-06-30T15:32:21.000+02:00</time>
      </trkpt>
      <trkpt lat="43.56465" lon="2.80144">
        <ele>979.7</ele>
        <time>2021-06-30T15:32:22.000+02:00</time>
      </trkpt>
      <trkpt lat="43.56467" lon="2.80144">
        <ele>979.7</ele>
        <time>2021-06-30T15:32:23.000+02:00</time>
      </trkpt>
      <trkpt lat="43.56468" lon="2.80144">
        <ele>979.6</ele>
        <time>2021-06-30T15:32:24.000+02:00</time>
      </trkpt>
      <trkpt lat="43.56469" lon="2.80143">
        <ele>979.6</ele>
        <time>2021-06-30T15:32:25.000+02:00</time>
      </trkpt>
      <trkpt lat="43.5647" lon="2.80143">
        <ele>979.6</ele>
        <time>2021-06-30T15:32:26.000+02:00</time>
      </trkpt>
      <trkpt lat="43.56471" lon="2.80142">
        <ele>979.5</ele>
        <time>2021-06-30T15:32:27.000+02:00</time>
      </trkpt>
      <trkpt lat="43.56473" lon="2.80142">
        <ele>979.5</ele>
        <time>2021-06-30T15:32:28.000+02:00</time>
      </trkpt>
      <trkpt lat="43.56474" lon="2.80142">
        <ele>979.5</ele>
        <time>2021-06-30T15:32:29.000+02:00</time>
      </trkpt>
      <trkpt lat="43.56474" lon="2.80142">
        <ele>979.5</ele>
        <time>2021-06-30T15:32:30.000+02:00</time>
      </trkpt>
      <trkpt lat="43.56475" lon="2.80142">
        <ele>979.5</ele>
        <time>2021-06-30T15:32:31.000+02:00</time>
      </trkpt>
      <trkpt lat="43.56477" lon="2.80141">
        <ele>979.5</ele>
        <time>2021-06-30T15:32:32.000+02:00</time>
      </trkpt>
      <trkpt lat="43.56478" lon="2.80141">
        <ele>979.5</ele>
        <time>2021-06-30T15:32:33.000+02:00</time>
      </trkpt>
      <trkpt lat="43.56479" lon="2.80142">
        <ele>979.6</ele>
        <time>2021-06-30T15:32:34.000+02:00</time>
      </trkpt>
      <trkpt lat="43.56479" lon="2.80142">
        <ele>979.6</ele>
        <time>2021-06-30T15:32:35.000+02:00</time>
      </trkpt>
      <trkpt lat="43.5648" lon="2.80142">
        <ele>979.6</ele>
        <time>2021-06-30T15:32:36.000+02:00</time>
      </trkpt>
      <trkpt lat="43.56481" lon="2.80142">
        <ele>979.7</ele>
        <time>2021-06-30T15:32:37.000+02:00</time>
      </trkpt>
      <trkpt lat="43.56482" lon="2.80142">
        <ele>979.7</ele>
        <time>2021-06-30T15:32:38.000+02:00</time>
      </trkpt>
      <trkpt lat="43.56483" lon="2.80142">
        <ele>979.8</ele>
        <time>2021-06-30T15:32:39.000+02:00</time>
      </trkpt>
      <trkpt lat="43.56485" lon="2.80143">
        <ele>979.9</ele>
        <time>2021-06-30T15:32:40.000+02:00</time>
      </trkpt>
      <trkpt lat="43.56486" lon="2.80144">
        <ele>980.1</ele>
        <time>2021-06-30T15:32:41.000+02:00</time>
      </trkpt>
      <trkpt lat="43.56486" lon="2.80144">
        <ele>980.1</ele>
        <time>2021-06-30T15:32:42.000+02:00</time>
      </trkpt>
      <trkpt lat="43.56488" lon="2.80144">
        <ele>980.2</ele>
        <time>2021-06-30T15:32:43.000+02:00</time>
      </trkpt>
      <trkpt lat="43.56489" lon="2.80145">
        <ele>980.3</ele>
        <time>2021-06-30T15:32:44.000+02:00</time>
      </trkpt>
      <trkpt lat="43.56489" lon="2.80146">
        <ele>980.4</ele>
        <time>2021-06-30T15:32:45.000+02:00</time>
      </trkpt>
      <trkpt lat="43.56491" lon="2.80146">
        <ele>980.6</ele>
        <time>2021-06-30T15:32:46.000+02:00</time>
      </trkpt>
      <trkpt lat="43.56492" lon="2.80147">
        <ele>980.7</ele>
        <time>2021-06-30T15:32:47.000+02:00</time>
      </trkpt>
      <trkpt lat="43.56493" lon="2.80147">
        <ele>980.7</ele>
        <time>2021-06-30T15:32:48.000+02:00</time>
      </trkpt>
      <trkpt lat="43.56494" lon="2.80147">
        <ele>980.8</ele>
        <time>2021-06-30T15:32:49.000+02:00</time>
      </trkpt>
      <trkpt lat="43.56494" lon="2.80148">
        <ele>980.9</ele>
        <time>2021-06-30T15:32:50.000+02:00</time>
      </trkpt>
      <trkpt lat="43.56495" lon="2.80149">
        <ele>981.1</ele>
        <time>2021-06-30T15:32:51.000+02:00</time>
      </trkpt>
      <trkpt lat="43.56496" lon="2.80149">
        <ele>981.2</ele>
        <time>2021-06-30T15:32:52.000+02:00</time>
      </trkpt>
      <trkpt lat="43.56497" lon="2.8015">
        <ele>981.3</ele>
        <time>2021-06-30T15:32:53.000+02:00</time>
      </trkpt>
      <trkpt lat="43.56498" lon="2.80151">
        <ele>981.5</ele>
        <time>2021-06-30T15:32:54.000+02:00</time>
      </trkpt>
      <trkpt lat="43.56499" lon="2.80151">
        <ele>981.6</ele>
        <time>2021-06-30T15:32:55.000+02:00</time>
      </trkpt>
      <trkpt lat="43.565" lon="2.80152">
        <ele>981.8</ele>
        <time>2021-06-30T15:32:56.000+02:00</time>
      </trkpt>
      <trkpt lat="43.56501" lon="2.80153">
        <ele>981.8</ele>
        <time>2021-06-30T15:32:57.000+02:00</time>
      </trkpt>
      <trkpt lat="43.56502" lon="2.80154">
        <ele>981.9</ele>
        <time>2021-06-30T15:32:58.000+02:00</time>
      </trkpt>
      <trkpt lat="43.56503" lon="2.80155">
        <ele>982</ele>
        <time>2021-06-30T15:32:59.000+02:00</time>
      </trkpt>
      <trkpt lat="43.56504" lon="2.80156">
        <ele>982.1</ele>
        <time>2021-06-30T15:33:00.000+02:00</time>
      </trkpt>
      <trkpt lat="43.56505" lon="2.80157">
        <ele>982.2</ele>
        <time>2021-06-30T15:33:01.000+02:00</time>
      </trkpt>
      <trkpt lat="43.56506" lon="2.80158">
        <ele>982.3</ele>
        <time>2021-06-30T15:33:02.000+02:00</time>
      </trkpt>
      <trkpt lat="43.56508" lon="2.80159">
        <ele>982.4</ele>
        <time>2021-06-30T15:33:03.000+02:00</time>
      </trkpt>
      <trkpt lat="43.56509" lon="2.8016">
        <ele>982.5</ele>
        <time>2021-06-30T15:33:04.000+02:00</time>
      </trkpt>
      <trkpt lat="43.5651" lon="2.8016">
        <ele>982.6</ele>
        <time>2021-06-30T15:33:05.000+02:00</time>
      </trkpt>
      <trkpt lat="43.56511" lon="2.80161">
        <ele>982.6</ele>
        <time>2021-06-30T15:33:06.000+02:00</time>
      </trkpt>
      <trkpt lat="43.56512" lon="2.80162">
        <ele>982.7</ele>
        <time>2021-06-30T15:33:07.000+02:00</time>
      </trkpt>
      <trkpt lat="43.56513" lon="2.80162">
        <ele>982.7</ele>
        <time>2021-06-30T15:33:08.000+02:00</time>
      </trkpt>
      <trkpt lat="43.56514" lon="2.80163">
        <ele>982.8</ele>
        <time>2021-06-30T15:33:09.000+02:00</time>
      </trkpt>
      <trkpt lat="43.56515" lon="2.80164">
        <ele>982.9</ele>
        <time>2021-06-30T15:33:10.000+02:00</time>
      </trkpt>
      <trkpt lat="43.56516" lon="2.80165">
        <ele>982.9</ele>
        <time>2021-06-30T15:33:11.000+02:00</time>
      </trkpt>
      <trkpt lat="43.56517" lon="2.80165">
        <ele>983</ele>
        <time>2021-06-30T15:33:12.000+02:00</time>
      </trkpt>
      <trkpt lat="43.56518" lon="2.80166">
        <ele>983.1</ele>
        <time>2021-06-30T15:33:13.000+02:00</time>
      </trkpt>
      <trkpt lat="43.56519" lon="2.80167">
        <ele>983.1</ele>
        <time>2021-06-30T15:33:14.000+02:00</time>
      </trkpt>
      <trkpt lat="43.5652" lon="2.80168">
        <ele>983.2</ele>
        <time>2021-06-30T15:33:15.000+02:00</time>
      </trkpt>
      <trkpt lat="43.56521" lon="2.80169">
        <ele>983.3</ele>
        <time>2021-06-30T15:33:16.000+02:00</time>
      </trkpt>
      <trkpt lat="43.56522" lon="2.8017">
        <ele>983.4</ele>
        <time>2021-06-30T15:33:17.000+02:00</time>
      </trkpt>
      <trkpt lat="43.56523" lon="2.80171">
        <ele>983.5</ele>
        <time>2021-06-30T15:33:18.000+02:00</time>
      </trkpt>
      <trkpt lat="43.56524" lon="2.80172">
        <ele>983.6</ele>
        <time>2021-06-30T15:33:19.000+02:00</time>
      </trkpt>
      <trkpt lat="43.56525" lon="2.80173">
        <ele>983.7</ele>
        <time>2021-06-30T15:33:20.000+02:00</time>
      </trkpt>
      <trkpt lat="43.56526" lon="2.80174">
        <ele>983.8</ele>
        <time>2021-06-30T15:33:21.000+02:00</time>
      </trkpt>
      <trkpt lat="43.56527" lon="2.80175">
        <ele>983.9</ele>
        <time>2021-06-30T15:33:22.000+02:00</time>
      </trkpt>
      <trkpt lat="43.56528" lon="2.80176">
        <ele>984</ele>
        <time>2021-06-30T15:33:23.000+02:00</time>
      </trkpt>
      <trkpt lat="43.56529" lon="2.80176">
        <ele>984</ele>
        <time>2021-06-30T15:33:24.000+02:00</time>
      </trkpt>
      <trkpt lat="43.56531" lon="2.80177">
        <ele>984.1</ele>
        <time>2021-06-30T15:33:25.000+02:00</time>
      </trkpt>
      <trkpt lat="43.56531" lon="2.80178">
        <ele>984.2</ele>
        <time>2021-06-30T15:33:26.000+02:00</time>
      </trkpt>
      <trkpt lat="43.56532" lon="2.80179">
        <ele>984.2</ele>
        <time>2021-06-30T15:33:27.000+02:00</time>
      </trkpt>
      <trkpt lat="43.56533" lon="2.80179">
        <ele>984.2</ele>
        <time>2021-06-30T15:33:28.000+02:00</time>
      </trkpt>
      <trkpt lat="43.56534" lon="2.80179">
        <ele>984.3</ele>
        <time>2021-06-30T15:33:29.000+02:00</time>
      </trkpt>
      <trkpt lat="43.56535" lon="2.8018">
        <ele>984.4</ele>
        <time>2021-06-30T15:33:30.000+02:00</time>
      </trkpt>
      <trkpt lat="43.56535" lon="2.8018">
        <ele>984.4</ele>
        <time>2021-06-30T15:33:31.000+02:00</time>
      </trkpt>
      <trkpt lat="43.56536" lon="2.80181">
        <ele>984.4</ele>
        <time>2021-06-30T15:33:32.000+02:00</time>
      </trkpt>
      <trkpt lat="43.56537" lon="2.80181">
        <ele>984.5</ele>
        <time>2021-06-30T15:33:33.000+02:00</time>
      </trkpt>
      <trkpt lat="43.56538" lon="2.80182">
        <ele>984.6</ele>
        <time>2021-06-30T15:33:34.000+02:00</time>
      </trkpt>
      <trkpt lat="43.56539" lon="2.80183">
        <ele>984.7</ele>
        <time>2021-06-30T15:33:35.000+02:00</time>
      </trkpt>
      <trkpt lat="43.5654" lon="2.80184">
        <ele>984.7</ele>
        <time>2021-06-30T15:33:36.000+02:00</time>
      </trkpt>
      <trkpt lat="43.5654" lon="2.80184">
        <ele>984.8</ele>
        <time>2021-06-30T15:33:37.000+02:00</time>
      </trkpt>
      <trkpt lat="43.56541" lon="2.80185">
        <ele>984.8</ele>
        <time>2021-06-30T15:33:38.000+02:00</time>
      </trkpt>
      <trkpt lat="43.56542" lon="2.80185">
        <ele>984.9</ele>
        <time>2021-06-30T15:33:39.000+02:00</time>
      </trkpt>
      <trkpt lat="43.56543" lon="2.80186">
        <ele>985</ele>
        <time>2021-06-30T15:33:40.000+02:00</time>
      </trkpt>
      <trkpt lat="43.56544" lon="2.80186">
        <ele>985</ele>
        <time>2021-06-30T15:33:41.000+02:00</time>
      </trkpt>
      <trkpt lat="43.56545" lon="2.80187">
        <ele>985.1</ele>
        <time>2021-06-30T15:33:42.000+02:00</time>
      </trkpt>
      <trkpt lat="43.56546" lon="2.80188">
        <ele>985.1</ele>
        <time>2021-06-30T15:33:43.000+02:00</time>
      </trkpt>
      <trkpt lat="43.56547" lon="2.80188">
        <ele>985.2</ele>
        <time>2021-06-30T15:33:44.000+02:00</time>
      </trkpt>
      <trkpt lat="43.56549" lon="2.80189">
        <ele>985.2</ele>
        <time>2021-06-30T15:33:45.000+02:00</time>
      </trkpt>
      <trkpt lat="43.5655" lon="2.80189">
        <ele>985.2</ele>
        <time>2021-06-30T15:33:46.000+02:00</time>
      </trkpt>
      <trkpt lat="43.5655" lon="2.8019">
        <ele>985.3</ele>
        <time>2021-06-30T15:33:47.000+02:00</time>
      </trkpt>
      <trkpt lat="43.56551" lon="2.8019">
        <ele>985.3</ele>
        <time>2021-06-30T15:33:48.000+02:00</time>
      </trkpt>
      <trkpt lat="43.56552" lon="2.80191">
        <ele>985.4</ele>
        <time>2021-06-30T15:33:49.000+02:00</time>
      </trkpt>
      <trkpt lat="43.56553" lon="2.80191">
        <ele>985.4</ele>
        <time>2021-06-30T15:33:50.000+02:00</time>
      </trkpt>
      <trkpt lat="43.56553" lon="2.80191">
        <ele>985.5</ele>
        <time>2021-06-30T15:33:51.000+02:00</time>
      </trkpt>
      <trkpt lat="43.56554" lon="2.80192">
        <ele>985.5</ele>
        <time>2021-06-30T15:33:52.000+02:00</time>
      </trkpt>
      <trkpt lat="43.56555" lon="2.80193">
        <ele>985.6</ele>
        <time>2021-06-30T15:33:53.000+02:00</time>
      </trkpt>
      <trkpt lat="43.56556" lon="2.80193">
        <ele>985.7</ele>
        <time>2021-06-30T15:33:54.000+02:00</time>
      </trkpt>
      <trkpt lat="43.56557" lon="2.80194">
        <ele>985.8</ele>
        <time>2021-06-30T15:33:55.000+02:00</time>
      </trkpt>
      <trkpt lat="43.56558" lon="2.80194">
        <ele>985.8</ele>
        <time>2021-06-30T15:33:56.000+02:00</time>
      </trkpt>
      <trkpt lat="43.56558" lon="2.80195">
        <ele>985.8</ele>
        <time>2021-06-30T15:33:57.000+02:00</time>
      </trkpt>
      <trkpt lat="43.56559" lon="2.80195">
        <ele>985.9</ele>
        <time>2021-06-30T15:33:58.000+02:00</time>
      </trkpt>
      <trkpt lat="43.5656" lon="2.80195">
        <ele>985.9</ele>
        <time>2021-06-30T15:33:59.000+02:00</time>
      </trkpt>
      <trkpt lat="43.56561" lon="2.80196">
        <ele>985.9</ele>
        <time>2021-06-30T15:34:00.000+02:00</time>
      </trkpt>
      <trkpt lat="43.56562" lon="2.80196">
        <ele>985.9</ele>
        <time>2021-06-30T15:34:01.000+02:00</time>
      </trkpt>
      <trkpt lat="43.56563" lon="2.80195">
        <ele>985.8</ele>
        <time>2021-06-30T15:34:02.000+02:00</time>
      </trkpt>
      <trkpt lat="43.56564" lon="2.80195">
        <ele>985.7</ele>
        <time>2021-06-30T15:34:03.000+02:00</time>
      </trkpt>
      <trkpt lat="43.56565" lon="2.80195">
        <ele>985.7</ele>
        <time>2021-06-30T15:34:04.000+02:00</time>
      </trkpt>
      <trkpt lat="43.56566" lon="2.80195">
        <ele>985.7</ele>
        <time>2021-06-30T15:34:05.000+02:00</time>
      </trkpt>
      <trkpt lat="43.56567" lon="2.80195">
        <ele>985.6</ele>
        <time>2021-06-30T15:34:06.000+02:00</time>
      </trkpt>
      <trkpt lat="43.56568" lon="2.80195">
        <ele>985.6</ele>
        <time>2021-06-30T15:34:07.000+02:00</time>
      </trkpt>
      <trkpt lat="43.56569" lon="2.80195">
        <ele>985.6</ele>
        <time>2021-06-30T15:34:08.000+02:00</time>
      </trkpt>
      <trkpt lat="43.5657" lon="2.80195">
        <ele>985.6</ele>
        <time>2021-06-30T15:34:09.000+02:00</time>
      </trkpt>
      <trkpt lat="43.56572" lon="2.80196">
        <ele>985.7</ele>
        <time>2021-06-30T15:34:10.000+02:00</time>
      </trkpt>
      <trkpt lat="43.56572" lon="2.80196">
        <ele>985.6</ele>
        <time>2021-06-30T15:34:11.000+02:00</time>
      </trkpt>
      <trkpt lat="43.56573" lon="2.80196">
        <ele>985.7</ele>
        <time>2021-06-30T15:34:12.000+02:00</time>
      </trkpt>
      <trkpt lat="43.56573" lon="2.80196">
        <ele>985.7</ele>
        <time>2021-06-30T15:34:13.000+02:00</time>
      </trkpt>
      <trkpt lat="43.56573" lon="2.80196">
        <ele>985.6</ele>
        <time>2021-06-30T15:34:14.000+02:00</time>
      </trkpt>
      <trkpt lat="43.56573" lon="2.80196">
        <ele>985.6</ele>
        <time>2021-06-30T15:34:15.000+02:00</time>
      </trkpt>
      <trkpt lat="43.56573" lon="2.80196">
        <ele>985.6</ele>
        <time>2021-06-30T15:34:16.000+02:00</time>
      </trkpt>
      <trkpt lat="43.56573" lon="2.80196">
        <ele>985.6</ele>
        <time>2021-06-30T15:34:17.000+02:00</time>
      </trkpt>
      <trkpt lat="43.56573" lon="2.80196">
        <ele>985.6</ele>
        <time>2021-06-30T15:34:18.000+02:00</time>
      </trkpt>
      <trkpt lat="43.56574" lon="2.80196">
        <ele>985.5</ele>
        <time>2021-06-30T15:34:19.000+02:00</time>
      </trkpt>
      <trkpt lat="43.56574" lon="2.80196">
        <ele>985.6</ele>
        <time>2021-06-30T15:34:20.000+02:00</time>
      </trkpt>
      <trkpt lat="43.56575" lon="2.80197">
        <ele>985.7</ele>
        <time>2021-06-30T15:34:21.000+02:00</time>
      </trkpt>
      <trkpt lat="43.56576" lon="2.80197">
        <ele>985.7</ele>
        <time>2021-06-30T15:34:22.000+02:00</time>
      </trkpt>
      <trkpt lat="43.56577" lon="2.80197">
        <ele>985.7</ele>
        <time>2021-06-30T15:34:23.000+02:00</time>
      </trkpt>
      <trkpt lat="43.56579" lon="2.80198">
        <ele>985.8</ele>
        <time>2021-06-30T15:34:24.000+02:00</time>
      </trkpt>
      <trkpt lat="43.56579" lon="2.80198">
        <ele>985.7</ele>
        <time>2021-06-30T15:34:25.000+02:00</time>
      </trkpt>
      <trkpt lat="43.5658" lon="2.80198">
        <ele>985.7</ele>
        <time>2021-06-30T15:34:26.000+02:00</time>
      </trkpt>
      <trkpt lat="43.56581" lon="2.80199">
        <ele>985.8</ele>
        <time>2021-06-30T15:34:27.000+02:00</time>
      </trkpt>
      <trkpt lat="43.56582" lon="2.80199">
        <ele>985.8</ele>
        <time>2021-06-30T15:34:28.000+02:00</time>
      </trkpt>
      <trkpt lat="43.56584" lon="2.802">
        <ele>985.9</ele>
        <time>2021-06-30T15:34:29.000+02:00</time>
      </trkpt>
      <trkpt lat="43.56585" lon="2.802">
        <ele>986</ele>
        <time>2021-06-30T15:34:30.000+02:00</time>
      </trkpt>
      <trkpt lat="43.56586" lon="2.80202">
        <ele>986.3</ele>
        <time>2021-06-30T15:34:31.000+02:00</time>
      </trkpt>
      <trkpt lat="43.56587" lon="2.80203">
        <ele>986.5</ele>
        <time>2021-06-30T15:34:32.000+02:00</time>
      </trkpt>
      <trkpt lat="43.56588" lon="2.80204">
        <ele>986.8</ele>
        <time>2021-06-30T15:34:33.000+02:00</time>
      </trkpt>
      <trkpt lat="43.56589" lon="2.80205">
        <ele>986.8</ele>
        <time>2021-06-30T15:34:34.000+02:00</time>
      </trkpt>
      <trkpt lat="43.5659" lon="2.80205">
        <ele>986.9</ele>
        <time>2021-06-30T15:34:35.000+02:00</time>
      </trkpt>
      <trkpt lat="43.5659" lon="2.80204">
        <ele>986.7</ele>
        <time>2021-06-30T15:34:36.000+02:00</time>
      </trkpt>
      <trkpt lat="43.56592" lon="2.80205">
        <ele>986.8</ele>
        <time>2021-06-30T15:34:37.000+02:00</time>
      </trkpt>
      <trkpt lat="43.56592" lon="2.80206">
        <ele>986.9</ele>
        <time>2021-06-30T15:34:38.000+02:00</time>
      </trkpt>
      <trkpt lat="43.56594" lon="2.80208">
        <ele>987.3</ele>
        <time>2021-06-30T15:34:39.000+02:00</time>
      </trkpt>
      <trkpt lat="43.56594" lon="2.80209">
        <ele>987.4</ele>
        <time>2021-06-30T15:34:40.000+02:00</time>
      </trkpt>
      <trkpt lat="43.56595" lon="2.8021">
        <ele>987.6</ele>
        <time>2021-06-30T15:34:41.000+02:00</time>
      </trkpt>
      <trkpt lat="43.56596" lon="2.80209">
        <ele>987.5</ele>
        <time>2021-06-30T15:34:42.000+02:00</time>
      </trkpt>
      <trkpt lat="43.56596" lon="2.8021">
        <ele>987.6</ele>
        <time>2021-06-30T15:34:43.000+02:00</time>
      </trkpt>
      <trkpt lat="43.56597" lon="2.8021">
        <ele>987.6</ele>
        <time>2021-06-30T15:34:44.000+02:00</time>
      </trkpt>
      <trkpt lat="43.56598" lon="2.8021">
        <ele>987.7</ele>
        <time>2021-06-30T15:34:45.000+02:00</time>
      </trkpt>
      <trkpt lat="43.56599" lon="2.80211">
        <ele>987.8</ele>
        <time>2021-06-30T15:34:46.000+02:00</time>
      </trkpt>
      <trkpt lat="43.566" lon="2.80212">
        <ele>987.9</ele>
        <time>2021-06-30T15:34:47.000+02:00</time>
      </trkpt>
      <trkpt lat="43.56601" lon="2.80211">
        <ele>987.8</ele>
        <time>2021-06-30T15:34:48.000+02:00</time>
      </trkpt>
      <trkpt lat="43.56601" lon="2.80212">
        <ele>987.9</ele>
        <time>2021-06-30T15:34:49.000+02:00</time>
      </trkpt>
      <trkpt lat="43.56601" lon="2.80212">
        <ele>987.9</ele>
        <time>2021-06-30T15:34:50.000+02:00</time>
      </trkpt>
      <trkpt lat="43.56602" lon="2.80212">
        <ele>987.9</ele>
        <time>2021-06-30T15:34:51.000+02:00</time>
      </trkpt>
      <trkpt lat="43.56603" lon="2.80212">
        <ele>987.9</ele>
        <time>2021-06-30T15:34:52.000+02:00</time>
      </trkpt>
      <trkpt lat="43.56604" lon="2.8021">
        <ele>987.6</ele>
        <time>2021-06-30T15:34:53.000+02:00</time>
      </trkpt>
      <trkpt lat="43.56606" lon="2.80209">
        <ele>987.4</ele>
        <time>2021-06-30T15:34:54.000+02:00</time>
      </trkpt>
      <trkpt lat="43.56608" lon="2.80209">
        <ele>987.4</ele>
        <time>2021-06-30T15:34:55.000+02:00</time>
      </trkpt>
      <trkpt lat="43.5661" lon="2.8021">
        <ele>987.4</ele>
        <time>2021-06-30T15:34:56.000+02:00</time>
      </trkpt>
      <trkpt lat="43.56612" lon="2.80209">
        <ele>987.2</ele>
        <time>2021-06-30T15:34:57.000+02:00</time>
      </trkpt>
      <trkpt lat="43.56613" lon="2.80208">
        <ele>987.1</ele>
        <time>2021-06-30T15:34:58.000+02:00</time>
      </trkpt>
      <trkpt lat="43.56613" lon="2.80208">
        <ele>987</ele>
        <time>2021-06-30T15:34:59.000+02:00</time>
      </trkpt>
      <trkpt lat="43.56614" lon="2.80207">
        <ele>986.9</ele>
        <time>2021-06-30T15:35:00.000+02:00</time>
      </trkpt>
      <trkpt lat="43.56615" lon="2.80207">
        <ele>986.8</ele>
        <time>2021-06-30T15:35:01.000+02:00</time>
      </trkpt>
      <trkpt lat="43.56615" lon="2.80207">
        <ele>986.9</ele>
        <time>2021-06-30T15:35:02.000+02:00</time>
      </trkpt>
      <trkpt lat="43.56616" lon="2.80208">
        <ele>987</ele>
        <time>2021-06-30T15:35:03.000+02:00</time>
      </trkpt>
      <trkpt lat="43.56616" lon="2.80208">
        <ele>987</ele>
        <time>2021-06-30T15:35:04.000+02:00</time>
      </trkpt>
      <trkpt lat="43.56616" lon="2.80208">
        <ele>987</ele>
        <time>2021-06-30T15:35:05.000+02:00</time>
      </trkpt>
      <trkpt lat="43.56616" lon="2.80208">
        <ele>987</ele>
        <time>2021-06-30T15:35:06.000+02:00</time>
      </trkpt>
      <trkpt lat="43.56617" lon="2.80208">
        <ele>987.1</ele>
        <time>2021-06-30T15:35:07.000+02:00</time>
      </trkpt>
      <trkpt lat="43.56618" lon="2.80208">
        <ele>987.1</ele>
        <time>2021-06-30T15:35:08.000+02:00</time>
      </trkpt>
      <trkpt lat="43.56619" lon="2.80209">
        <ele>987.1</ele>
        <time>2021-06-30T15:35:09.000+02:00</time>
      </trkpt>
      <trkpt lat="43.56619" lon="2.80209">
        <ele>987.2</ele>
        <time>2021-06-30T15:35:10.000+02:00</time>
      </trkpt>
      <trkpt lat="43.56619" lon="2.80209">
        <ele>987.2</ele>
        <time>2021-06-30T15:35:11.000+02:00</time>
      </trkpt>
      <trkpt lat="43.5662" lon="2.80209">
        <ele>987.2</ele>
        <time>2021-06-30T15:35:12.000+02:00</time>
      </trkpt>
      <trkpt lat="43.56621" lon="2.8021">
        <ele>987.2</ele>
        <time>2021-06-30T15:35:13.000+02:00</time>
      </trkpt>
      <trkpt lat="43.56622" lon="2.8021">
        <ele>987.3</ele>
        <time>2021-06-30T15:35:14.000+02:00</time>
      </trkpt>
      <trkpt lat="43.56622" lon="2.8021">
        <ele>987.3</ele>
        <time>2021-06-30T15:35:15.000+02:00</time>
      </trkpt>
      <trkpt lat="43.56625" lon="2.8021">
        <ele>987.2</ele>
        <time>2021-06-30T15:35:16.000+02:00</time>
      </trkpt>
      <trkpt lat="43.56626" lon="2.80209">
        <ele>987.1</ele>
        <time>2021-06-30T15:35:17.000+02:00</time>
      </trkpt>
      <trkpt lat="43.56628" lon="2.80209">
        <ele>987.1</ele>
        <time>2021-06-30T15:35:18.000+02:00</time>
      </trkpt>
      <trkpt lat="43.56629" lon="2.80209">
        <ele>987</ele>
        <time>2021-06-30T15:35:19.000+02:00</time>
      </trkpt>
      <trkpt lat="43.5663" lon="2.80208">
        <ele>986.9</ele>
        <time>2021-06-30T15:35:20.000+02:00</time>
      </trkpt>
      <trkpt lat="43.56631" lon="2.80208">
        <ele>986.9</ele>
        <time>2021-06-30T15:35:21.000+02:00</time>
      </trkpt>
      <trkpt lat="43.56632" lon="2.80209">
        <ele>987</ele>
        <time>2021-06-30T15:35:22.000+02:00</time>
      </trkpt>
      <trkpt lat="43.56633" lon="2.80208">
        <ele>986.9</ele>
        <time>2021-06-30T15:35:23.000+02:00</time>
      </trkpt>
      <trkpt lat="43.56634" lon="2.80208">
        <ele>986.9</ele>
        <time>2021-06-30T15:35:24.000+02:00</time>
      </trkpt>
      <trkpt lat="43.56635" lon="2.80208">
        <ele>986.9</ele>
        <time>2021-06-30T15:35:25.000+02:00</time>
      </trkpt>
      <trkpt lat="43.56636" lon="2.80208">
        <ele>986.8</ele>
        <time>2021-06-30T15:35:26.000+02:00</time>
      </trkpt>
      <trkpt lat="43.56637" lon="2.80208">
        <ele>986.8</ele>
        <time>2021-06-30T15:35:27.000+02:00</time>
      </trkpt>
      <trkpt lat="43.56638" lon="2.80208">
        <ele>986.8</ele>
        <time>2021-06-30T15:35:28.000+02:00</time>
      </trkpt>
      <trkpt lat="43.56638" lon="2.80208">
        <ele>986.8</ele>
        <time>2021-06-30T15:35:29.000+02:00</time>
      </trkpt>
      <trkpt lat="43.56639" lon="2.80208">
        <ele>986.8</ele>
        <time>2021-06-30T15:35:30.000+02:00</time>
      </trkpt>
      <trkpt lat="43.5664" lon="2.80208">
        <ele>986.8</ele>
        <time>2021-06-30T15:35:31.000+02:00</time>
      </trkpt>
      <trkpt lat="43.56641" lon="2.80208">
        <ele>986.8</ele>
        <time>2021-06-30T15:35:32.000+02:00</time>
      </trkpt>
      <trkpt lat="43.56641" lon="2.80208">
        <ele>986.8</ele>
        <time>2021-06-30T15:35:33.000+02:00</time>
      </trkpt>
      <trkpt lat="43.56641" lon="2.80208">
        <ele>986.8</ele>
        <time>2021-06-30T15:35:34.000+02:00</time>
      </trkpt>
      <trkpt lat="43.56642" lon="2.80208">
        <ele>986.8</ele>
        <time>2021-06-30T15:35:35.000+02:00</time>
      </trkpt>
      <trkpt lat="43.56643" lon="2.80208">
        <ele>986.7</ele>
        <time>2021-06-30T15:35:36.000+02:00</time>
      </trkpt>
      <trkpt lat="43.56643" lon="2.80207">
        <ele>986.6</ele>
        <time>2021-06-30T15:35:37.000+02:00</time>
      </trkpt>
      <trkpt lat="43.56644" lon="2.80207">
        <ele>986.5</ele>
        <time>2021-06-30T15:35:38.000+02:00</time>
      </trkpt>
      <trkpt lat="43.56644" lon="2.80207">
        <ele>986.5</ele>
        <time>2021-06-30T15:35:39.000+02:00</time>
      </trkpt>
      <trkpt lat="43.56644" lon="2.80206">
        <ele>986.5</ele>
        <time>2021-06-30T15:35:40.000+02:00</time>
      </trkpt>
      <trkpt lat="43.56644" lon="2.80206">
        <ele>986.5</ele>
        <time>2021-06-30T15:35:41.000+02:00</time>
      </trkpt>
      <trkpt lat="43.56645" lon="2.80206">
        <ele>986.4</ele>
        <time>2021-06-30T15:35:42.000+02:00</time>
      </trkpt>
      <trkpt lat="43.56646" lon="2.80205">
        <ele>986.3</ele>
        <time>2021-06-30T15:35:43.000+02:00</time>
      </trkpt>
      <trkpt lat="43.56648" lon="2.80205">
        <ele>986.3</ele>
        <time>2021-06-30T15:35:44.000+02:00</time>
      </trkpt>
      <trkpt lat="43.56649" lon="2.80204">
        <ele>986.1</ele>
        <time>2021-06-30T15:35:45.000+02:00</time>
      </trkpt>
      <trkpt lat="43.5665" lon="2.80204">
        <ele>986</ele>
        <time>2021-06-30T15:35:46.000+02:00</time>
      </trkpt>
      <trkpt lat="43.56651" lon="2.80203">
        <ele>985.9</ele>
        <time>2021-06-30T15:35:47.000+02:00</time>
      </trkpt>
      <trkpt lat="43.56653" lon="2.80202">
        <ele>985.7</ele>
        <time>2021-06-30T15:35:48.000+02:00</time>
      </trkpt>
      <trkpt lat="43.56654" lon="2.80201">
        <ele>985.6</ele>
        <time>2021-06-30T15:35:49.000+02:00</time>
      </trkpt>
      <trkpt lat="43.56656" lon="2.80201">
        <ele>985.6</ele>
        <time>2021-06-30T15:35:50.000+02:00</time>
      </trkpt>
      <trkpt lat="43.56658" lon="2.80201">
        <ele>985.6</ele>
        <time>2021-06-30T15:35:51.000+02:00</time>
      </trkpt>
      <trkpt lat="43.56659" lon="2.802">
        <ele>985.4</ele>
        <time>2021-06-30T15:35:52.000+02:00</time>
      </trkpt>
      <trkpt lat="43.56661" lon="2.80199">
        <ele>985.3</ele>
        <time>2021-06-30T15:35:53.000+02:00</time>
      </trkpt>
      <trkpt lat="43.56662" lon="2.80199">
        <ele>985.3</ele>
        <time>2021-06-30T15:35:54.000+02:00</time>
      </trkpt>
      <trkpt lat="43.56663" lon="2.80199">
        <ele>985.2</ele>
        <time>2021-06-30T15:35:55.000+02:00</time>
      </trkpt>
      <trkpt lat="43.56664" lon="2.80199">
        <ele>985.3</ele>
        <time>2021-06-30T15:35:56.000+02:00</time>
      </trkpt>
      <trkpt lat="43.56666" lon="2.80199">
        <ele>985.2</ele>
        <time>2021-06-30T15:35:57.000+02:00</time>
      </trkpt>
      <trkpt lat="43.56667" lon="2.80199">
        <ele>985.2</ele>
        <time>2021-06-30T15:35:58.000+02:00</time>
      </trkpt>
      <trkpt lat="43.5667" lon="2.80198">
        <ele>985.1</ele>
        <time>2021-06-30T15:35:59.000+02:00</time>
      </trkpt>
      <trkpt lat="43.56671" lon="2.80198">
        <ele>985.2</ele>
        <time>2021-06-30T15:36:00.000+02:00</time>
      </trkpt>
      <trkpt lat="43.56673" lon="2.80198">
        <ele>985.1</ele>
        <time>2021-06-30T15:36:01.000+02:00</time>
      </trkpt>
      <trkpt lat="43.56673" lon="2.80198">
        <ele>985.2</ele>
        <time>2021-06-30T15:36:02.000+02:00</time>
      </trkpt>
      <trkpt lat="43.56675" lon="2.80198">
        <ele>985.1</ele>
        <time>2021-06-30T15:36:03.000+02:00</time>
      </trkpt>
      <trkpt lat="43.56675" lon="2.80198">
        <ele>985.1</ele>
        <time>2021-06-30T15:36:04.000+02:00</time>
      </trkpt>
      <trkpt lat="43.56677" lon="2.80198">
        <ele>985.1</ele>
        <time>2021-06-30T15:36:05.000+02:00</time>
      </trkpt>
      <trkpt lat="43.56677" lon="2.80197">
        <ele>985</ele>
        <time>2021-06-30T15:36:06.000+02:00</time>
      </trkpt>
      <trkpt lat="43.56677" lon="2.80197">
        <ele>985</ele>
        <time>2021-06-30T15:36:07.000+02:00</time>
      </trkpt>
      <trkpt lat="43.56678" lon="2.80197">
        <ele>985</ele>
        <time>2021-06-30T15:36:08.000+02:00</time>
      </trkpt>
      <trkpt lat="43.56679" lon="2.80196">
        <ele>984.9</ele>
        <time>2021-06-30T15:36:09.000+02:00</time>
      </trkpt>
      <trkpt lat="43.5668" lon="2.80196">
        <ele>985</ele>
        <time>2021-06-30T15:36:10.000+02:00</time>
      </trkpt>
      <trkpt lat="43.56681" lon="2.80197">
        <ele>985.1</ele>
        <time>2021-06-30T15:36:11.000+02:00</time>
      </trkpt>
      <trkpt lat="43.56682" lon="2.80198">
        <ele>985.2</ele>
        <time>2021-06-30T15:36:12.000+02:00</time>
      </trkpt>
      <trkpt lat="43.56683" lon="2.80199">
        <ele>985.2</ele>
        <time>2021-06-30T15:36:13.000+02:00</time>
      </trkpt>
      <trkpt lat="43.56684" lon="2.80199">
        <ele>985.2</ele>
        <time>2021-06-30T15:36:14.000+02:00</time>
      </trkpt>
      <trkpt lat="43.56684" lon="2.80199">
        <ele>985.3</ele>
        <time>2021-06-30T15:36:15.000+02:00</time>
      </trkpt>
      <trkpt lat="43.56685" lon="2.80198">
        <ele>985.2</ele>
        <time>2021-06-30T15:36:16.000+02:00</time>
      </trkpt>
      <trkpt lat="43.56686" lon="2.80198">
        <ele>985.2</ele>
        <time>2021-06-30T15:36:17.000+02:00</time>
      </trkpt>
      <trkpt lat="43.56687" lon="2.80198">
        <ele>985.2</ele>
        <time>2021-06-30T15:36:18.000+02:00</time>
      </trkpt>
      <trkpt lat="43.56688" lon="2.80198">
        <ele>985.2</ele>
        <time>2021-06-30T15:36:19.000+02:00</time>
      </trkpt>
      <trkpt lat="43.5669" lon="2.80199">
        <ele>985.3</ele>
        <time>2021-06-30T15:36:20.000+02:00</time>
      </trkpt>
      <trkpt lat="43.56691" lon="2.802">
        <ele>985.4</ele>
        <time>2021-06-30T15:36:21.000+02:00</time>
      </trkpt>
      <trkpt lat="43.56693" lon="2.802">
        <ele>985.4</ele>
        <time>2021-06-30T15:36:22.000+02:00</time>
      </trkpt>
      <trkpt lat="43.56694" lon="2.80201">
        <ele>985.5</ele>
        <time>2021-06-30T15:36:23.000+02:00</time>
      </trkpt>
      <trkpt lat="43.56695" lon="2.80202">
        <ele>985.6</ele>
        <time>2021-06-30T15:36:24.000+02:00</time>
      </trkpt>
      <trkpt lat="43.56697" lon="2.80202">
        <ele>985.6</ele>
        <time>2021-06-30T15:36:25.000+02:00</time>
      </trkpt>
      <trkpt lat="43.56697" lon="2.80203">
        <ele>985.7</ele>
        <time>2021-06-30T15:36:26.000+02:00</time>
      </trkpt>
      <trkpt lat="43.56698" lon="2.80203">
        <ele>985.8</ele>
        <time>2021-06-30T15:36:27.000+02:00</time>
      </trkpt>
      <trkpt lat="43.56699" lon="2.80203">
        <ele>985.8</ele>
        <time>2021-06-30T15:36:28.000+02:00</time>
      </trkpt>
      <trkpt lat="43.56699" lon="2.80203">
        <ele>985.7</ele>
        <time>2021-06-30T15:36:29.000+02:00</time>
      </trkpt>
      <trkpt lat="43.56699" lon="2.80203">
        <ele>985.8</ele>
        <time>2021-06-30T15:36:30.000+02:00</time>
      </trkpt>
      <trkpt lat="43.567" lon="2.80204">
        <ele>985.8</ele>
        <time>2021-06-30T15:36:31.000+02:00</time>
      </trkpt>
      <trkpt lat="43.567" lon="2.80204">
        <ele>985.8</ele>
        <time>2021-06-30T15:36:32.000+02:00</time>
      </trkpt>
      <trkpt lat="43.56701" lon="2.80204">
        <ele>985.9</ele>
        <time>2021-06-30T15:36:33.000+02:00</time>
      </trkpt>
      <trkpt lat="43.56701" lon="2.80205">
        <ele>985.9</ele>
        <time>2021-06-30T15:36:34.000+02:00</time>
      </trkpt>
      <trkpt lat="43.56702" lon="2.80204">
        <ele>985.9</ele>
        <time>2021-06-30T15:36:35.000+02:00</time>
      </trkpt>
      <trkpt lat="43.56702" lon="2.80205">
        <ele>985.9</ele>
        <time>2021-06-30T15:36:36.000+02:00</time>
      </trkpt>
      <trkpt lat="43.56702" lon="2.80205">
        <ele>985.9</ele>
        <time>2021-06-30T15:36:37.000+02:00</time>
      </trkpt>
      <trkpt lat="43.56702" lon="2.80205">
        <ele>985.9</ele>
        <time>2021-06-30T15:36:38.000+02:00</time>
      </trkpt>
      <trkpt lat="43.56703" lon="2.80205">
        <ele>985.9</ele>
        <time>2021-06-30T15:36:39.000+02:00</time>
      </trkpt>
      <trkpt lat="43.56703" lon="2.80205">
        <ele>985.9</ele>
        <time>2021-06-30T15:36:40.000+02:00</time>
      </trkpt>
      <trkpt lat="43.56704" lon="2.80205">
        <ele>986</ele>
        <time>2021-06-30T15:36:41.000+02:00</time>
      </trkpt>
      <trkpt lat="43.56705" lon="2.80206">
        <ele>986</ele>
        <time>2021-06-30T15:36:42.000+02:00</time>
      </trkpt>
      <trkpt lat="43.56705" lon="2.80206">
        <ele>986</ele>
        <time>2021-06-30T15:36:43.000+02:00</time>
      </trkpt>
      <trkpt lat="43.56706" lon="2.80206">
        <ele>986</ele>
        <time>2021-06-30T15:36:44.000+02:00</time>
      </trkpt>
      <trkpt lat="43.56706" lon="2.80206">
        <ele>986</ele>
        <time>2021-06-30T15:36:45.000+02:00</time>
      </trkpt>
      <trkpt lat="43.56706" lon="2.80206">
        <ele>986.1</ele>
        <time>2021-06-30T15:36:46.000+02:00</time>
      </trkpt>
      <trkpt lat="43.56708" lon="2.80207">
        <ele>986.1</ele>
        <time>2021-06-30T15:36:47.000+02:00</time>
      </trkpt>
      <trkpt lat="43.56709" lon="2.80208">
        <ele>986.2</ele>
        <time>2021-06-30T15:36:48.000+02:00</time>
      </trkpt>
      <trkpt lat="43.56711" lon="2.80209">
        <ele>986.3</ele>
        <time>2021-06-30T15:36:49.000+02:00</time>
      </trkpt>
      <trkpt lat="43.56712" lon="2.80209">
        <ele>986.3</ele>
        <time>2021-06-30T15:36:50.000+02:00</time>
      </trkpt>
      <trkpt lat="43.56714" lon="2.8021">
        <ele>986.4</ele>
        <time>2021-06-30T15:36:51.000+02:00</time>
      </trkpt>
      <trkpt lat="43.56715" lon="2.80211">
        <ele>986.4</ele>
        <time>2021-06-30T15:36:52.000+02:00</time>
      </trkpt>
      <trkpt lat="43.56716" lon="2.80211">
        <ele>986.5</ele>
        <time>2021-06-30T15:36:53.000+02:00</time>
      </trkpt>
      <trkpt lat="43.56718" lon="2.80213">
        <ele>986.6</ele>
        <time>2021-06-30T15:36:54.000+02:00</time>
      </trkpt>
      <trkpt lat="43.56719" lon="2.80213">
        <ele>986.7</ele>
        <time>2021-06-30T15:36:55.000+02:00</time>
      </trkpt>
      <trkpt lat="43.5672" lon="2.80214">
        <ele>986.7</ele>
        <time>2021-06-30T15:36:56.000+02:00</time>
      </trkpt>
      <trkpt lat="43.56722" lon="2.80215">
        <ele>986.8</ele>
        <time>2021-06-30T15:36:57.000+02:00</time>
      </trkpt>
      <trkpt lat="43.56723" lon="2.80217">
        <ele>986.9</ele>
        <time>2021-06-30T15:36:58.000+02:00</time>
      </trkpt>
      <trkpt lat="43.56724" lon="2.80217">
        <ele>987</ele>
        <time>2021-06-30T15:36:59.000+02:00</time>
      </trkpt>
      <trkpt lat="43.56724" lon="2.80218">
        <ele>987</ele>
        <time>2021-06-30T15:37:00.000+02:00</time>
      </trkpt>
      <trkpt lat="43.56725" lon="2.80218">
        <ele>987</ele>
        <time>2021-06-30T15:37:01.000+02:00</time>
      </trkpt>
      <trkpt lat="43.56727" lon="2.80219">
        <ele>987.1</ele>
        <time>2021-06-30T15:37:02.000+02:00</time>
      </trkpt>
      <trkpt lat="43.56728" lon="2.80219">
        <ele>987.1</ele>
        <time>2021-06-30T15:37:03.000+02:00</time>
      </trkpt>
      <trkpt lat="43.56729" lon="2.80219">
        <ele>987.1</ele>
        <time>2021-06-30T15:37:04.000+02:00</time>
      </trkpt>
      <trkpt lat="43.5673" lon="2.80219">
        <ele>987.1</ele>
        <time>2021-06-30T15:37:05.000+02:00</time>
      </trkpt>
      <trkpt lat="43.56731" lon="2.8022">
        <ele>987.1</ele>
        <time>2021-06-30T15:37:06.000+02:00</time>
      </trkpt>
      <trkpt lat="43.56732" lon="2.8022">
        <ele>987.1</ele>
        <time>2021-06-30T15:37:07.000+02:00</time>
      </trkpt>
      <trkpt lat="43.56733" lon="2.8022">
        <ele>987.1</ele>
        <time>2021-06-30T15:37:08.000+02:00</time>
      </trkpt>
      <trkpt lat="43.56733" lon="2.8022">
        <ele>987.1</ele>
        <time>2021-06-30T15:37:09.000+02:00</time>
      </trkpt>
      <trkpt lat="43.56734" lon="2.8022">
        <ele>987.1</ele>
        <time>2021-06-30T15:37:10.000+02:00</time>
      </trkpt>
      <trkpt lat="43.56734" lon="2.8022">
        <ele>987.1</ele>
        <time>2021-06-30T15:37:11.000+02:00</time>
      </trkpt>
      <trkpt lat="43.56734" lon="2.8022">
        <ele>987.1</ele>
        <time>2021-06-30T15:37:12.000+02:00</time>
      </trkpt>
      <trkpt lat="43.56734" lon="2.8022">
        <ele>987.1</ele>
        <time>2021-06-30T15:37:13.000+02:00</time>
      </trkpt>
      <trkpt lat="43.56735" lon="2.8022">
        <ele>987.1</ele>
        <time>2021-06-30T15:37:14.000+02:00</time>
      </trkpt>
      <trkpt lat="43.56735" lon="2.8022">
        <ele>987.1</ele>
        <time>2021-06-30T15:37:15.000+02:00</time>
      </trkpt>
      <trkpt lat="43.56735" lon="2.80221">
        <ele>987.1</ele>
        <time>2021-06-30T15:37:16.000+02:00</time>
      </trkpt>
      <trkpt lat="43.56737" lon="2.80222">
        <ele>987.2</ele>
        <time>2021-06-30T15:37:17.000+02:00</time>
      </trkpt>
      <trkpt lat="43.56739" lon="2.80225">
        <ele>987.4</ele>
        <time>2021-06-30T15:37:18.000+02:00</time>
      </trkpt>
      <trkpt lat="43.56739" lon="2.80226">
        <ele>987.5</ele>
        <time>2021-06-30T15:37:19.000+02:00</time>
      </trkpt>
      <trkpt lat="43.5674" lon="2.80226">
        <ele>987.5</ele>
        <time>2021-06-30T15:37:20.000+02:00</time>
      </trkpt>
      <trkpt lat="43.56741" lon="2.80227">
        <ele>987.5</ele>
        <time>2021-06-30T15:37:21.000+02:00</time>
      </trkpt>
      <trkpt lat="43.56742" lon="2.80228">
        <ele>987.6</ele>
        <time>2021-06-30T15:37:22.000+02:00</time>
      </trkpt>
      <trkpt lat="43.56744" lon="2.80229">
        <ele>987.6</ele>
        <time>2021-06-30T15:37:23.000+02:00</time>
      </trkpt>
      <trkpt lat="43.56744" lon="2.80229">
        <ele>987.6</ele>
        <time>2021-06-30T15:37:24.000+02:00</time>
      </trkpt>
      <trkpt lat="43.56745" lon="2.8023">
        <ele>987.7</ele>
        <time>2021-06-30T15:37:25.000+02:00</time>
      </trkpt>
      <trkpt lat="43.56746" lon="2.80231">
        <ele>987.7</ele>
        <time>2021-06-30T15:37:26.000+02:00</time>
      </trkpt>
      <trkpt lat="43.56748" lon="2.80232">
        <ele>987.8</ele>
        <time>2021-06-30T15:37:27.000+02:00</time>
      </trkpt>
      <trkpt lat="43.56749" lon="2.80233">
        <ele>987.8</ele>
        <time>2021-06-30T15:37:28.000+02:00</time>
      </trkpt>
      <trkpt lat="43.5675" lon="2.80234">
        <ele>987.9</ele>
        <time>2021-06-30T15:37:29.000+02:00</time>
      </trkpt>
      <trkpt lat="43.56752" lon="2.80236">
        <ele>987.8</ele>
        <time>2021-06-30T15:37:30.000+02:00</time>
      </trkpt>
      <trkpt lat="43.56753" lon="2.80236">
        <ele>987.7</ele>
        <time>2021-06-30T15:37:31.000+02:00</time>
      </trkpt>
      <trkpt lat="43.56754" lon="2.80237">
        <ele>987.7</ele>
        <time>2021-06-30T15:37:32.000+02:00</time>
      </trkpt>
      <trkpt lat="43.56754" lon="2.80238">
        <ele>987.7</ele>
        <time>2021-06-30T15:37:33.000+02:00</time>
      </trkpt>
      <trkpt lat="43.56756" lon="2.80239">
        <ele>987.6</ele>
        <time>2021-06-30T15:37:34.000+02:00</time>
      </trkpt>
      <trkpt lat="43.56757" lon="2.8024">
        <ele>987.5</ele>
        <time>2021-06-30T15:37:35.000+02:00</time>
      </trkpt>
      <trkpt lat="43.56758" lon="2.8024">
        <ele>987.4</ele>
        <time>2021-06-30T15:37:36.000+02:00</time>
      </trkpt>
      <trkpt lat="43.5676" lon="2.80241">
        <ele>987.3</ele>
        <time>2021-06-30T15:37:37.000+02:00</time>
      </trkpt>
      <trkpt lat="43.56761" lon="2.80242">
        <ele>987.2</ele>
        <time>2021-06-30T15:37:38.000+02:00</time>
      </trkpt>
      <trkpt lat="43.56762" lon="2.80243">
        <ele>987.1</ele>
        <time>2021-06-30T15:37:39.000+02:00</time>
      </trkpt>
      <trkpt lat="43.56762" lon="2.80243">
        <ele>987.1</ele>
        <time>2021-06-30T15:37:40.000+02:00</time>
      </trkpt>
      <trkpt lat="43.56763" lon="2.80244">
        <ele>987.1</ele>
        <time>2021-06-30T15:37:41.000+02:00</time>
      </trkpt>
      <trkpt lat="43.56764" lon="2.80245">
        <ele>987.1</ele>
        <time>2021-06-30T15:37:42.000+02:00</time>
      </trkpt>
      <trkpt lat="43.56764" lon="2.80246">
        <ele>987.1</ele>
        <time>2021-06-30T15:37:43.000+02:00</time>
      </trkpt>
      <trkpt lat="43.56764" lon="2.80246">
        <ele>987.1</ele>
        <time>2021-06-30T15:37:44.000+02:00</time>
      </trkpt>
      <trkpt lat="43.56765" lon="2.80247">
        <ele>987</ele>
        <time>2021-06-30T15:37:45.000+02:00</time>
      </trkpt>
      <trkpt lat="43.56766" lon="2.80247">
        <ele>987</ele>
        <time>2021-06-30T15:37:46.000+02:00</time>
      </trkpt>
      <trkpt lat="43.56766" lon="2.80247">
        <ele>986.9</ele>
        <time>2021-06-30T15:37:47.000+02:00</time>
      </trkpt>
      <trkpt lat="43.56767" lon="2.80247">
        <ele>986.8</ele>
        <time>2021-06-30T15:37:48.000+02:00</time>
      </trkpt>
      <trkpt lat="43.56768" lon="2.80248">
        <ele>986.8</ele>
        <time>2021-06-30T15:37:49.000+02:00</time>
      </trkpt>
      <trkpt lat="43.56768" lon="2.80249">
        <ele>986.7</ele>
        <time>2021-06-30T15:37:50.000+02:00</time>
      </trkpt>
      <trkpt lat="43.56769" lon="2.8025">
        <ele>986.7</ele>
        <time>2021-06-30T15:37:51.000+02:00</time>
      </trkpt>
      <trkpt lat="43.56769" lon="2.80251">
        <ele>986.7</ele>
        <time>2021-06-30T15:37:52.000+02:00</time>
      </trkpt>
      <trkpt lat="43.56771" lon="2.80251">
        <ele>986.5</ele>
        <time>2021-06-30T15:37:53.000+02:00</time>
      </trkpt>
      <trkpt lat="43.56772" lon="2.80253">
        <ele>986.4</ele>
        <time>2021-06-30T15:37:54.000+02:00</time>
      </trkpt>
      <trkpt lat="43.56773" lon="2.80255">
        <ele>986.3</ele>
        <time>2021-06-30T15:37:55.000+02:00</time>
      </trkpt>
      <trkpt lat="43.56774" lon="2.80256">
        <ele>986.1</ele>
        <time>2021-06-30T15:37:56.000+02:00</time>
      </trkpt>
      <trkpt lat="43.56775" lon="2.80258">
        <ele>986</ele>
        <time>2021-06-30T15:37:57.000+02:00</time>
      </trkpt>
      <trkpt lat="43.56776" lon="2.80259">
        <ele>986</ele>
        <time>2021-06-30T15:37:58.000+02:00</time>
      </trkpt>
      <trkpt lat="43.56776" lon="2.80261">
        <ele>985.9</ele>
        <time>2021-06-30T15:37:59.000+02:00</time>
      </trkpt>
      <trkpt lat="43.56776" lon="2.80261">
        <ele>985.9</ele>
        <time>2021-06-30T15:38:00.000+02:00</time>
      </trkpt>
      <trkpt lat="43.56776" lon="2.80262">
        <ele>985.9</ele>
        <time>2021-06-30T15:38:01.000+02:00</time>
      </trkpt>
      <trkpt lat="43.56776" lon="2.80263">
        <ele>985.9</ele>
        <time>2021-06-30T15:38:02.000+02:00</time>
      </trkpt>
      <trkpt lat="43.56777" lon="2.80263">
        <ele>985.9</ele>
        <time>2021-06-30T15:38:03.000+02:00</time>
      </trkpt>
      <trkpt lat="43.56777" lon="2.80264">
        <ele>985.8</ele>
        <time>2021-06-30T15:38:04.000+02:00</time>
      </trkpt>
      <trkpt lat="43.56777" lon="2.80264">
        <ele>985.8</ele>
        <time>2021-06-30T15:38:05.000+02:00</time>
      </trkpt>
      <trkpt lat="43.56778" lon="2.80264">
        <ele>985.8</ele>
        <time>2021-06-30T15:38:06.000+02:00</time>
      </trkpt>
      <trkpt lat="43.56778" lon="2.80264">
        <ele>985.7</ele>
        <time>2021-06-30T15:38:07.000+02:00</time>
      </trkpt>
      <trkpt lat="43.56779" lon="2.80264">
        <ele>985.6</ele>
        <time>2021-06-30T15:38:08.000+02:00</time>
      </trkpt>
      <trkpt lat="43.56779" lon="2.80265">
        <ele>985.6</ele>
        <time>2021-06-30T15:38:09.000+02:00</time>
      </trkpt>
      <trkpt lat="43.5678" lon="2.80265">
        <ele>985.5</ele>
        <time>2021-06-30T15:38:10.000+02:00</time>
      </trkpt>
      <trkpt lat="43.56781" lon="2.80266">
        <ele>985.4</ele>
        <time>2021-06-30T15:38:11.000+02:00</time>
      </trkpt>
      <trkpt lat="43.56781" lon="2.80266">
        <ele>985.4</ele>
        <time>2021-06-30T15:38:12.000+02:00</time>
      </trkpt>
      <trkpt lat="43.56782" lon="2.80266">
        <ele>985.3</ele>
        <time>2021-06-30T15:38:13.000+02:00</time>
      </trkpt>
      <trkpt lat="43.56783" lon="2.80266">
        <ele>985.2</ele>
        <time>2021-06-30T15:38:14.000+02:00</time>
      </trkpt>
      <trkpt lat="43.56783" lon="2.80267">
        <ele>985.1</ele>
        <time>2021-06-30T15:38:15.000+02:00</time>
      </trkpt>
      <trkpt lat="43.56784" lon="2.80267">
        <ele>985</ele>
        <time>2021-06-30T15:38:16.000+02:00</time>
      </trkpt>
      <trkpt lat="43.56785" lon="2.80267">
        <ele>984.9</ele>
        <time>2021-06-30T15:38:17.000+02:00</time>
      </trkpt>
      <trkpt lat="43.56786" lon="2.80267">
        <ele>984.8</ele>
        <time>2021-06-30T15:38:18.000+02:00</time>
      </trkpt>
      <trkpt lat="43.56787" lon="2.80268">
        <ele>984.7</ele>
        <time>2021-06-30T15:38:19.000+02:00</time>
      </trkpt>
      <trkpt lat="43.56787" lon="2.80268">
        <ele>984.7</ele>
        <time>2021-06-30T15:38:20.000+02:00</time>
      </trkpt>
      <trkpt lat="43.56788" lon="2.80268">
        <ele>984.6</ele>
        <time>2021-06-30T15:38:21.000+02:00</time>
      </trkpt>
      <trkpt lat="43.56788" lon="2.80267">
        <ele>984.5</ele>
        <time>2021-06-30T15:38:22.000+02:00</time>
      </trkpt>
      <trkpt lat="43.56788" lon="2.80267">
        <ele>984.5</ele>
        <time>2021-06-30T15:38:23.000+02:00</time>
      </trkpt>
      <trkpt lat="43.56787" lon="2.80267">
        <ele>984.6</ele>
        <time>2021-06-30T15:38:24.000+02:00</time>
      </trkpt>
      <trkpt lat="43.56787" lon="2.80267">
        <ele>984.6</ele>
        <time>2021-06-30T15:38:25.000+02:00</time>
      </trkpt>
      <trkpt lat="43.56788" lon="2.80267">
        <ele>984.6</ele>
        <time>2021-06-30T15:38:26.000+02:00</time>
      </trkpt>
      <trkpt lat="43.56788" lon="2.80267">
        <ele>984.6</ele>
        <time>2021-06-30T15:38:27.000+02:00</time>
      </trkpt>
      <trkpt lat="43.56788" lon="2.80267">
        <ele>984.5</ele>
        <time>2021-06-30T15:38:28.000+02:00</time>
      </trkpt>
      <trkpt lat="43.5679" lon="2.80269">
        <ele>984.4</ele>
        <time>2021-06-30T15:38:29.000+02:00</time>
      </trkpt>
      <trkpt lat="43.56789" lon="2.8027">
        <ele>984.4</ele>
        <time>2021-06-30T15:38:30.000+02:00</time>
      </trkpt>
      <trkpt lat="43.5679" lon="2.80272">
        <ele>984.4</ele>
        <time>2021-06-30T15:38:31.000+02:00</time>
      </trkpt>
      <trkpt lat="43.5679" lon="2.8027">
        <ele>984.4</ele>
        <time>2021-06-30T15:38:32.000+02:00</time>
      </trkpt>
      <trkpt lat="43.56789" lon="2.8027">
        <ele>984.5</ele>
        <time>2021-06-30T15:38:33.000+02:00</time>
      </trkpt>
      <trkpt lat="43.56791" lon="2.8027">
        <ele>984.2</ele>
        <time>2021-06-30T15:38:34.000+02:00</time>
      </trkpt>
      <trkpt lat="43.5679" lon="2.80271">
        <ele>984.3</ele>
        <time>2021-06-30T15:38:35.000+02:00</time>
      </trkpt>
      <trkpt lat="43.56791" lon="2.80271">
        <ele>984.3</ele>
        <time>2021-06-30T15:38:36.000+02:00</time>
      </trkpt>
      <trkpt lat="43.5679" lon="2.80271">
        <ele>984.3</ele>
        <time>2021-06-30T15:38:37.000+02:00</time>
      </trkpt>
      <trkpt lat="43.5679" lon="2.80272">
        <ele>984.3</ele>
        <time>2021-06-30T15:38:38.000+02:00</time>
      </trkpt>
      <trkpt lat="43.5679" lon="2.80273">
        <ele>984.3</ele>
        <time>2021-06-30T15:38:39.000+02:00</time>
      </trkpt>
      <trkpt lat="43.5679" lon="2.80274">
        <ele>984.4</ele>
        <time>2021-06-30T15:38:40.000+02:00</time>
      </trkpt>
      <trkpt lat="43.56789" lon="2.80273">
        <ele>984.5</ele>
        <time>2021-06-30T15:38:41.000+02:00</time>
      </trkpt>
      <trkpt lat="43.56789" lon="2.80272">
        <ele>984.4</ele>
        <time>2021-06-30T15:38:42.000+02:00</time>
      </trkpt>
      <trkpt lat="43.56789" lon="2.80272">
        <ele>984.4</ele>
        <time>2021-06-30T15:38:43.000+02:00</time>
      </trkpt>
      <trkpt lat="43.56789" lon="2.80272">
        <ele>984.5</ele>
        <time>2021-06-30T15:38:44.000+02:00</time>
      </trkpt>
      <trkpt lat="43.56789" lon="2.80271">
        <ele>984.5</ele>
        <time>2021-06-30T15:38:45.000+02:00</time>
      </trkpt>
      <trkpt lat="43.56789" lon="2.80271">
        <ele>984.4</ele>
        <time>2021-06-30T15:38:46.000+02:00</time>
      </trkpt>
      <trkpt lat="43.56789" lon="2.80271">
        <ele>984.4</ele>
        <time>2021-06-30T15:38:47.000+02:00</time>
      </trkpt>
      <trkpt lat="43.56789" lon="2.80271">
        <ele>984.4</ele>
        <time>2021-06-30T15:38:48.000+02:00</time>
      </trkpt>
      <trkpt lat="43.56789" lon="2.80271">
        <ele>984.4</ele>
        <time>2021-06-30T15:38:49.000+02:00</time>
      </trkpt>
      <trkpt lat="43.56789" lon="2.80271">
        <ele>984.4</ele>
        <time>2021-06-30T15:38:50.000+02:00</time>
      </trkpt>
      <trkpt lat="43.56789" lon="2.80272">
        <ele>984.4</ele>
        <time>2021-06-30T15:38:51.000+02:00</time>
      </trkpt>
      <trkpt lat="43.56789" lon="2.80272">
        <ele>984.4</ele>
        <time>2021-06-30T15:38:52.000+02:00</time>
      </trkpt>
      <trkpt lat="43.56789" lon="2.80272">
        <ele>984.5</ele>
        <time>2021-06-30T15:38:53.000+02:00</time>
      </trkpt>
      <trkpt lat="43.56789" lon="2.80272">
        <ele>984.5</ele>
        <time>2021-06-30T15:38:54.000+02:00</time>
      </trkpt>
      <trkpt lat="43.56789" lon="2.80272">
        <ele>984.5</ele>
        <time>2021-06-30T15:38:55.000+02:00</time>
      </trkpt>
      <trkpt lat="43.56789" lon="2.80273">
        <ele>984.5</ele>
        <time>2021-06-30T15:38:56.000+02:00</time>
      </trkpt>
      <trkpt lat="43.56789" lon="2.80273">
        <ele>984.5</ele>
        <time>2021-06-30T15:38:57.000+02:00</time>
      </trkpt>
      <trkpt lat="43.56789" lon="2.80273">
        <ele>984.5</ele>
        <time>2021-06-30T15:38:58.000+02:00</time>
      </trkpt>
      <trkpt lat="43.56789" lon="2.80273">
        <ele>984.5</ele>
        <time>2021-06-30T15:38:59.000+02:00</time>
      </trkpt>
      <trkpt lat="43.56789" lon="2.80273">
        <ele>984.5</ele>
        <time>2021-06-30T15:39:00.000+02:00</time>
      </trkpt>
      <trkpt lat="43.56789" lon="2.80273">
        <ele>984.5</ele>
        <time>2021-06-30T15:39:01.000+02:00</time>
      </trkpt>
      <trkpt lat="43.56789" lon="2.80273">
        <ele>984.5</ele>
        <time>2021-06-30T15:39:02.000+02:00</time>
      </trkpt>
      <trkpt lat="43.56788" lon="2.80273">
        <ele>984.5</ele>
        <time>2021-06-30T15:39:03.000+02:00</time>
      </trkpt>
      <trkpt lat="43.56788" lon="2.80273">
        <ele>984.5</ele>
        <time>2021-06-30T15:39:04.000+02:00</time>
      </trkpt>
      <trkpt lat="43.56788" lon="2.80273">
        <ele>984.5</ele>
        <time>2021-06-30T15:39:05.000+02:00</time>
      </trkpt>
      <trkpt lat="43.56788" lon="2.80274">
        <ele>984.6</ele>
        <time>2021-06-30T15:39:06.000+02:00</time>
      </trkpt>
      <trkpt lat="43.56788" lon="2.80274">
        <ele>984.6</ele>
        <time>2021-06-30T15:39:07.000+02:00</time>
      </trkpt>
      <trkpt lat="43.56788" lon="2.80274">
        <ele>984.6</ele>
        <time>2021-06-30T15:39:08.000+02:00</time>
      </trkpt>
      <trkpt lat="43.56788" lon="2.80274">
        <ele>984.6</ele>
        <time>2021-06-30T15:39:09.000+02:00</time>
      </trkpt>
      <trkpt lat="43.56788" lon="2.80274">
        <ele>984.6</ele>
        <time>2021-06-30T15:39:10.000+02:00</time>
      </trkpt>
      <trkpt lat="43.56788" lon="2.80274">
        <ele>984.6</ele>
        <time>2021-06-30T15:39:11.000+02:00</time>
      </trkpt>
      <trkpt lat="43.56788" lon="2.80274">
        <ele>984.6</ele>
        <time>2021-06-30T15:39:12.000+02:00</time>
      </trkpt>
      <trkpt lat="43.56788" lon="2.80274">
        <ele>984.6</ele>
        <time>2021-06-30T15:39:13.000+02:00</time>
      </trkpt>
      <trkpt lat="43.56788" lon="2.80274">
        <ele>984.6</ele>
        <time>2021-06-30T15:39:14.000+02:00</time>
      </trkpt>
      <trkpt lat="43.56788" lon="2.80274">
        <ele>984.6</ele>
        <time>2021-06-30T15:39:15.000+02:00</time>
      </trkpt>
      <trkpt lat="43.56788" lon="2.80274">
        <ele>984.6</ele>
        <time>2021-06-30T15:39:16.000+02:00</time>
      </trkpt>
      <trkpt lat="43.56788" lon="2.80274">
        <ele>984.6</ele>
        <time>2021-06-30T15:39:17.000+02:00</time>
      </trkpt>
      <trkpt lat="43.56788" lon="2.80274">
        <ele>984.6</ele>
        <time>2021-06-30T15:39:18.000+02:00</time>
      </trkpt>
      <trkpt lat="43.56788" lon="2.80274">
        <ele>984.6</ele>
        <time>2021-06-30T15:39:19.000+02:00</time>
      </trkpt>
      <trkpt lat="43.56788" lon="2.80274">
        <ele>984.6</ele>
        <time>2021-06-30T15:39:20.000+02:00</time>
      </trkpt>
      <trkpt lat="43.56788" lon="2.80274">
        <ele>984.6</ele>
        <time>2021-06-30T15:39:21.000+02:00</time>
      </trkpt>
      <trkpt lat="43.56788" lon="2.80275">
        <ele>984.6</ele>
        <time>2021-06-30T15:39:22.000+02:00</time>
      </trkpt>
      <trkpt lat="43.56788" lon="2.80275">
        <ele>984.6</ele>
        <time>2021-06-30T15:39:23.000+02:00</time>
      </trkpt>
      <trkpt lat="43.56788" lon="2.80275">
        <ele>984.6</ele>
        <time>2021-06-30T15:39:24.000+02:00</time>
      </trkpt>
      <trkpt lat="43.56788" lon="2.80275">
        <ele>984.7</ele>
        <time>2021-06-30T15:39:25.000+02:00</time>
      </trkpt>
      <trkpt lat="43.56788" lon="2.80275">
        <ele>984.7</ele>
        <time>2021-06-30T15:39:26.000+02:00</time>
      </trkpt>
      <trkpt lat="43.56787" lon="2.80275">
        <ele>984.7</ele>
        <time>2021-06-30T15:39:27.000+02:00</time>
      </trkpt>
      <trkpt lat="43.56787" lon="2.80275">
        <ele>984.7</ele>
        <time>2021-06-30T15:39:28.000+02:00</time>
      </trkpt>
      <trkpt lat="43.56787" lon="2.80275">
        <ele>984.7</ele>
        <time>2021-06-30T15:39:29.000+02:00</time>
      </trkpt>
      <trkpt lat="43.56787" lon="2.80275">
        <ele>984.7</ele>
        <time>2021-06-30T15:39:30.000+02:00</time>
      </trkpt>
      <trkpt lat="43.56787" lon="2.80275">
        <ele>984.7</ele>
        <time>2021-06-30T15:39:31.000+02:00</time>
      </trkpt>
      <trkpt lat="43.56787" lon="2.80275">
        <ele>984.7</ele>
        <time>2021-06-30T15:39:32.000+02:00</time>
      </trkpt>
      <trkpt lat="43.56787" lon="2.80275">
        <ele>984.7</ele>
        <time>2021-06-30T15:39:33.000+02:00</time>
      </trkpt>
      <trkpt lat="43.56787" lon="2.80275">
        <ele>984.7</ele>
        <time>2021-06-30T15:39:34.000+02:00</time>
      </trkpt>
      <trkpt lat="43.56787" lon="2.80275">
        <ele>984.8</ele>
        <time>2021-06-30T15:39:35.000+02:00</time>
      </trkpt>
      <trkpt lat="43.56787" lon="2.80275">
        <ele>984.8</ele>
        <time>2021-06-30T15:39:36.000+02:00</time>
      </trkpt>
      <trkpt lat="43.56787" lon="2.80276">
        <ele>984.8</ele>
        <time>2021-06-30T15:39:37.000+02:00</time>
      </trkpt>
      <trkpt lat="43.56786" lon="2.80276">
        <ele>984.8</ele>
        <time>2021-06-30T15:39:38.000+02:00</time>
      </trkpt>
      <trkpt lat="43.56787" lon="2.80276">
        <ele>984.8</ele>
        <time>2021-06-30T15:39:39.000+02:00</time>
      </trkpt>
      <trkpt lat="43.56787" lon="2.80276">
        <ele>984.8</ele>
        <time>2021-06-30T15:39:40.000+02:00</time>
      </trkpt>
      <trkpt lat="43.56787" lon="2.80276">
        <ele>984.8</ele>
        <time>2021-06-30T15:39:41.000+02:00</time>
      </trkpt>
      <trkpt lat="43.56787" lon="2.80276">
        <ele>984.8</ele>
        <time>2021-06-30T15:39:42.000+02:00</time>
      </trkpt>
      <trkpt lat="43.56787" lon="2.80276">
        <ele>984.8</ele>
        <time>2021-06-30T15:39:43.000+02:00</time>
      </trkpt>
      <trkpt lat="43.56786" lon="2.80276">
        <ele>984.8</ele>
        <time>2021-06-30T15:39:44.000+02:00</time>
      </trkpt>
      <trkpt lat="43.56786" lon="2.80275">
        <ele>984.8</ele>
        <time>2021-06-30T15:39:45.000+02:00</time>
      </trkpt>
      <trkpt lat="43.56787" lon="2.80276">
        <ele>984.8</ele>
        <time>2021-06-30T15:39:46.000+02:00</time>
      </trkpt>
      <trkpt lat="43.56787" lon="2.80275">
        <ele>984.7</ele>
        <time>2021-06-30T15:39:47.000+02:00</time>
      </trkpt>
      <trkpt lat="43.56787" lon="2.80274">
        <ele>984.7</ele>
        <time>2021-06-30T15:39:48.000+02:00</time>
      </trkpt>
      <trkpt lat="43.56788" lon="2.80274">
        <ele>984.6</ele>
        <time>2021-06-30T15:39:49.000+02:00</time>
      </trkpt>
      <trkpt lat="43.56788" lon="2.80273">
        <ele>984.6</ele>
        <time>2021-06-30T15:39:50.000+02:00</time>
      </trkpt>
      <trkpt lat="43.56789" lon="2.80272">
        <ele>984.4</ele>
        <time>2021-06-30T15:39:51.000+02:00</time>
      </trkpt>
      <trkpt lat="43.5679" lon="2.80272">
        <ele>984.3</ele>
        <time>2021-06-30T15:39:52.000+02:00</time>
      </trkpt>
      <trkpt lat="43.56791" lon="2.80271">
        <ele>984.2</ele>
        <time>2021-06-30T15:39:53.000+02:00</time>
      </trkpt>
      <trkpt lat="43.56792" lon="2.80271">
        <ele>984</ele>
        <time>2021-06-30T15:39:54.000+02:00</time>
      </trkpt>
      <trkpt lat="43.56793" lon="2.80269">
        <ele>983.9</ele>
        <time>2021-06-30T15:39:55.000+02:00</time>
      </trkpt>
      <trkpt lat="43.56794" lon="2.80268">
        <ele>983.8</ele>
        <time>2021-06-30T15:39:56.000+02:00</time>
      </trkpt>
      <trkpt lat="43.56795" lon="2.80265">
        <ele>983.7</ele>
        <time>2021-06-30T15:39:57.000+02:00</time>
      </trkpt>
      <trkpt lat="43.56795" lon="2.80264">
        <ele>983.7</ele>
        <time>2021-06-30T15:39:58.000+02:00</time>
      </trkpt>
      <trkpt lat="43.56796" lon="2.80264">
        <ele>983.6</ele>
        <time>2021-06-30T15:39:59.000+02:00</time>
      </trkpt>
      <trkpt lat="43.56796" lon="2.80264">
        <ele>983.6</ele>
        <time>2021-06-30T15:40:00.000+02:00</time>
      </trkpt>
      <trkpt lat="43.56796" lon="2.80264">
        <ele>983.6</ele>
        <time>2021-06-30T15:40:01.000+02:00</time>
      </trkpt>
      <trkpt lat="43.56796" lon="2.80263">
        <ele>983.6</ele>
        <time>2021-06-30T15:40:02.000+02:00</time>
      </trkpt>
      <trkpt lat="43.56796" lon="2.80261">
        <ele>983.6</ele>
        <time>2021-06-30T15:40:03.000+02:00</time>
      </trkpt>
      <trkpt lat="43.56796" lon="2.8026">
        <ele>983.6</ele>
        <time>2021-06-30T15:40:04.000+02:00</time>
      </trkpt>
      <trkpt lat="43.56796" lon="2.8026">
        <ele>983.5</ele>
        <time>2021-06-30T15:40:05.000+02:00</time>
      </trkpt>
      <trkpt lat="43.56797" lon="2.80259">
        <ele>983.4</ele>
        <time>2021-06-30T15:40:06.000+02:00</time>
      </trkpt>
      <trkpt lat="43.56798" lon="2.80258">
        <ele>983.3</ele>
        <time>2021-06-30T15:40:07.000+02:00</time>
      </trkpt>
      <trkpt lat="43.56798" lon="2.80258">
        <ele>983.3</ele>
        <time>2021-06-30T15:40:08.000+02:00</time>
      </trkpt>
      <trkpt lat="43.56798" lon="2.80257">
        <ele>983.2</ele>
        <time>2021-06-30T15:40:09.000+02:00</time>
      </trkpt>
      <trkpt lat="43.56799" lon="2.80256">
        <ele>983.1</ele>
        <time>2021-06-30T15:40:10.000+02:00</time>
      </trkpt>
      <trkpt lat="43.568" lon="2.80254">
        <ele>983.1</ele>
        <time>2021-06-30T15:40:11.000+02:00</time>
      </trkpt>
      <trkpt lat="43.568" lon="2.80254">
        <ele>983</ele>
        <time>2021-06-30T15:40:12.000+02:00</time>
      </trkpt>
      <trkpt lat="43.56801" lon="2.80253">
        <ele>982.9</ele>
        <time>2021-06-30T15:40:13.000+02:00</time>
      </trkpt>
      <trkpt lat="43.56802" lon="2.80251">
        <ele>982.8</ele>
        <time>2021-06-30T15:40:14.000+02:00</time>
      </trkpt>
      <trkpt lat="43.56802" lon="2.80251">
        <ele>982.7</ele>
        <time>2021-06-30T15:40:15.000+02:00</time>
      </trkpt>
      <trkpt lat="43.56803" lon="2.8025">
        <ele>982.6</ele>
        <time>2021-06-30T15:40:16.000+02:00</time>
      </trkpt>
      <trkpt lat="43.56803" lon="2.80249">
        <ele>982.6</ele>
        <time>2021-06-30T15:40:17.000+02:00</time>
      </trkpt>
      <trkpt lat="43.56804" lon="2.80248">
        <ele>982.4</ele>
        <time>2021-06-30T15:40:18.000+02:00</time>
      </trkpt>
      <trkpt lat="43.56805" lon="2.80248">
        <ele>982.3</ele>
        <time>2021-06-30T15:40:19.000+02:00</time>
      </trkpt>
      <trkpt lat="43.56806" lon="2.80247">
        <ele>982.2</ele>
        <time>2021-06-30T15:40:20.000+02:00</time>
      </trkpt>
      <trkpt lat="43.56807" lon="2.80247">
        <ele>982.1</ele>
        <time>2021-06-30T15:40:21.000+02:00</time>
      </trkpt>
      <trkpt lat="43.56808" lon="2.80246">
        <ele>982</ele>
        <time>2021-06-30T15:40:22.000+02:00</time>
      </trkpt>
      <trkpt lat="43.56808" lon="2.80244">
        <ele>981.9</ele>
        <time>2021-06-30T15:40:23.000+02:00</time>
      </trkpt>
      <trkpt lat="43.56808" lon="2.80243">
        <ele>981.8</ele>
        <time>2021-06-30T15:40:24.000+02:00</time>
      </trkpt>
      <trkpt lat="43.56808" lon="2.80241">
        <ele>981.7</ele>
        <time>2021-06-30T15:40:25.000+02:00</time>
      </trkpt>
      <trkpt lat="43.56809" lon="2.8024">
        <ele>981.7</ele>
        <time>2021-06-30T15:40:26.000+02:00</time>
      </trkpt>
      <trkpt lat="43.56809" lon="2.80238">
        <ele>981.6</ele>
        <time>2021-06-30T15:40:27.000+02:00</time>
      </trkpt>
      <trkpt lat="43.5681" lon="2.80237">
        <ele>981.5</ele>
        <time>2021-06-30T15:40:28.000+02:00</time>
      </trkpt>
      <trkpt lat="43.5681" lon="2.80237">
        <ele>981.4</ele>
        <time>2021-06-30T15:40:29.000+02:00</time>
      </trkpt>
      <trkpt lat="43.56811" lon="2.80236">
        <ele>981.3</ele>
        <time>2021-06-30T15:40:30.000+02:00</time>
      </trkpt>
      <trkpt lat="43.56811" lon="2.80235">
        <ele>981.3</ele>
        <time>2021-06-30T15:40:31.000+02:00</time>
      </trkpt>
      <trkpt lat="43.56811" lon="2.80235">
        <ele>981.2</ele>
        <time>2021-06-30T15:40:32.000+02:00</time>
      </trkpt>
      <trkpt lat="43.56811" lon="2.80234">
        <ele>981.2</ele>
        <time>2021-06-30T15:40:33.000+02:00</time>
      </trkpt>
      <trkpt lat="43.56811" lon="2.80234">
        <ele>981.2</ele>
        <time>2021-06-30T15:40:34.000+02:00</time>
      </trkpt>
      <trkpt lat="43.56812" lon="2.80233">
        <ele>981.1</ele>
        <time>2021-06-30T15:40:35.000+02:00</time>
      </trkpt>
      <trkpt lat="43.56813" lon="2.80232">
        <ele>981</ele>
        <time>2021-06-30T15:40:36.000+02:00</time>
      </trkpt>
      <trkpt lat="43.56813" lon="2.80231">
        <ele>980.9</ele>
        <time>2021-06-30T15:40:37.000+02:00</time>
      </trkpt>
      <trkpt lat="43.56814" lon="2.80231">
        <ele>980.9</ele>
        <time>2021-06-30T15:40:38.000+02:00</time>
      </trkpt>
      <trkpt lat="43.56814" lon="2.80229">
        <ele>980.8</ele>
        <time>2021-06-30T15:40:39.000+02:00</time>
      </trkpt>
      <trkpt lat="43.56814" lon="2.80228">
        <ele>980.7</ele>
        <time>2021-06-30T15:40:40.000+02:00</time>
      </trkpt>
      <trkpt lat="43.56814" lon="2.80227">
        <ele>980.7</ele>
        <time>2021-06-30T15:40:41.000+02:00</time>
      </trkpt>
      <trkpt lat="43.56815" lon="2.80225">
        <ele>980.6</ele>
        <time>2021-06-30T15:40:42.000+02:00</time>
      </trkpt>
      <trkpt lat="43.56816" lon="2.80224">
        <ele>980.5</ele>
        <time>2021-06-30T15:40:43.000+02:00</time>
      </trkpt>
      <trkpt lat="43.56817" lon="2.80222">
        <ele>980.3</ele>
        <time>2021-06-30T15:40:44.000+02:00</time>
      </trkpt>
      <trkpt lat="43.56818" lon="2.80221">
        <ele>980.2</ele>
        <time>2021-06-30T15:40:45.000+02:00</time>
      </trkpt>
      <trkpt lat="43.56819" lon="2.8022">
        <ele>980</ele>
        <time>2021-06-30T15:40:46.000+02:00</time>
      </trkpt>
      <trkpt lat="43.5682" lon="2.80219">
        <ele>979.9</ele>
        <time>2021-06-30T15:40:47.000+02:00</time>
      </trkpt>
      <trkpt lat="43.5682" lon="2.80219">
        <ele>979.9</ele>
        <time>2021-06-30T15:40:48.000+02:00</time>
      </trkpt>
      <trkpt lat="43.56822" lon="2.80217">
        <ele>979.7</ele>
        <time>2021-06-30T15:40:49.000+02:00</time>
      </trkpt>
      <trkpt lat="43.56822" lon="2.80216">
        <ele>979.7</ele>
        <time>2021-06-30T15:40:50.000+02:00</time>
      </trkpt>
      <trkpt lat="43.56824" lon="2.80214">
        <ele>979.5</ele>
        <time>2021-06-30T15:40:51.000+02:00</time>
      </trkpt>
      <trkpt lat="43.56824" lon="2.80213">
        <ele>979.4</ele>
        <time>2021-06-30T15:40:52.000+02:00</time>
      </trkpt>
      <trkpt lat="43.56824" lon="2.80212">
        <ele>979.4</ele>
        <time>2021-06-30T15:40:53.000+02:00</time>
      </trkpt>
      <trkpt lat="43.56825" lon="2.80211">
        <ele>979.3</ele>
        <time>2021-06-30T15:40:54.000+02:00</time>
      </trkpt>
      <trkpt lat="43.56826" lon="2.8021">
        <ele>979.2</ele>
        <time>2021-06-30T15:40:55.000+02:00</time>
      </trkpt>
      <trkpt lat="43.56826" lon="2.80209">
        <ele>979.2</ele>
        <time>2021-06-30T15:40:56.000+02:00</time>
      </trkpt>
      <trkpt lat="43.56826" lon="2.80207">
        <ele>979.1</ele>
        <time>2021-06-30T15:40:57.000+02:00</time>
      </trkpt>
      <trkpt lat="43.56826" lon="2.80207">
        <ele>979.1</ele>
        <time>2021-06-30T15:40:58.000+02:00</time>
      </trkpt>
      <trkpt lat="43.56827" lon="2.80206">
        <ele>979.1</ele>
        <time>2021-06-30T15:40:59.000+02:00</time>
      </trkpt>
      <trkpt lat="43.56827" lon="2.80206">
        <ele>979</ele>
        <time>2021-06-30T15:41:00.000+02:00</time>
      </trkpt>
      <trkpt lat="43.56827" lon="2.80206">
        <ele>979</ele>
        <time>2021-06-30T15:41:01.000+02:00</time>
      </trkpt>
      <trkpt lat="43.56827" lon="2.80205">
        <ele>979</ele>
        <time>2021-06-30T15:41:02.000+02:00</time>
      </trkpt>
      <trkpt lat="43.56827" lon="2.80205">
        <ele>979</ele>
        <time>2021-06-30T15:41:03.000+02:00</time>
      </trkpt>
      <trkpt lat="43.56828" lon="2.80205">
        <ele>979</ele>
        <time>2021-06-30T15:41:04.000+02:00</time>
      </trkpt>
      <trkpt lat="43.56828" lon="2.80203">
        <ele>978.9</ele>
        <time>2021-06-30T15:41:05.000+02:00</time>
      </trkpt>
      <trkpt lat="43.56829" lon="2.80202">
        <ele>978.8</ele>
        <time>2021-06-30T15:41:06.000+02:00</time>
      </trkpt>
      <trkpt lat="43.56829" lon="2.80201">
        <ele>978.8</ele>
        <time>2021-06-30T15:41:07.000+02:00</time>
      </trkpt>
      <trkpt lat="43.56829" lon="2.80199">
        <ele>978.7</ele>
        <time>2021-06-30T15:41:08.000+02:00</time>
      </trkpt>
      <trkpt lat="43.5683" lon="2.80199">
        <ele>978.7</ele>
        <time>2021-06-30T15:41:09.000+02:00</time>
      </trkpt>
      <trkpt lat="43.5683" lon="2.80196">
        <ele>978.6</ele>
        <time>2021-06-30T15:41:10.000+02:00</time>
      </trkpt>
      <trkpt lat="43.56831" lon="2.8019">
        <ele>978.5</ele>
        <time>2021-06-30T15:41:11.000+02:00</time>
      </trkpt>
      <trkpt lat="43.5683" lon="2.80189">
        <ele>978.5</ele>
        <time>2021-06-30T15:41:12.000+02:00</time>
      </trkpt>
      <trkpt lat="43.56829" lon="2.80187">
        <ele>978.6</ele>
        <time>2021-06-30T15:41:13.000+02:00</time>
      </trkpt>
      <trkpt lat="43.56829" lon="2.80184">
        <ele>978.5</ele>
        <time>2021-06-30T15:41:14.000+02:00</time>
      </trkpt>
      <trkpt lat="43.56829" lon="2.80181">
        <ele>978.5</ele>
        <time>2021-06-30T15:41:15.000+02:00</time>
      </trkpt>
      <trkpt lat="43.56829" lon="2.8018">
        <ele>978.5</ele>
        <time>2021-06-30T15:41:16.000+02:00</time>
      </trkpt>
      <trkpt lat="43.56828" lon="2.80179">
        <ele>978.5</ele>
        <time>2021-06-30T15:41:17.000+02:00</time>
      </trkpt>
      <trkpt lat="43.56828" lon="2.80178">
        <ele>978.5</ele>
        <time>2021-06-30T15:41:18.000+02:00</time>
      </trkpt>
      <trkpt lat="43.56828" lon="2.80177">
        <ele>978.5</ele>
        <time>2021-06-30T15:41:19.000+02:00</time>
      </trkpt>
      <trkpt lat="43.56826" lon="2.80175">
        <ele>978.6</ele>
        <time>2021-06-30T15:41:20.000+02:00</time>
      </trkpt>
      <trkpt lat="43.56826" lon="2.80175">
        <ele>978.6</ele>
        <time>2021-06-30T15:41:21.000+02:00</time>
      </trkpt>
      <trkpt lat="43.56825" lon="2.80174">
        <ele>978.6</ele>
        <time>2021-06-30T15:41:22.000+02:00</time>
      </trkpt>
      <trkpt lat="43.56825" lon="2.80173">
        <ele>978.6</ele>
        <time>2021-06-30T15:41:23.000+02:00</time>
      </trkpt>
      <trkpt lat="43.56824" lon="2.80172">
        <ele>978.6</ele>
        <time>2021-06-30T15:41:24.000+02:00</time>
      </trkpt>
      <trkpt lat="43.56824" lon="2.80171">
        <ele>978.6</ele>
        <time>2021-06-30T15:41:25.000+02:00</time>
      </trkpt>
      <trkpt lat="43.56823" lon="2.8017">
        <ele>978.7</ele>
        <time>2021-06-30T15:41:26.000+02:00</time>
      </trkpt>
      <trkpt lat="43.56822" lon="2.80169">
        <ele>978.7</ele>
        <time>2021-06-30T15:41:27.000+02:00</time>
      </trkpt>
      <trkpt lat="43.56822" lon="2.80167">
        <ele>978.7</ele>
        <time>2021-06-30T15:41:28.000+02:00</time>
      </trkpt>
      <trkpt lat="43.56821" lon="2.80166">
        <ele>978.7</ele>
        <time>2021-06-30T15:41:29.000+02:00</time>
      </trkpt>
      <trkpt lat="43.5682" lon="2.80165">
        <ele>978.7</ele>
        <time>2021-06-30T15:41:30.000+02:00</time>
      </trkpt>
      <trkpt lat="43.5682" lon="2.80164">
        <ele>978.7</ele>
        <time>2021-06-30T15:41:31.000+02:00</time>
      </trkpt>
      <trkpt lat="43.56819" lon="2.80163">
        <ele>978.7</ele>
        <time>2021-06-30T15:41:32.000+02:00</time>
      </trkpt>
      <trkpt lat="43.56819" lon="2.80162">
        <ele>978.7</ele>
        <time>2021-06-30T15:41:33.000+02:00</time>
      </trkpt>
      <trkpt lat="43.56818" lon="2.80161">
        <ele>978.7</ele>
        <time>2021-06-30T15:41:34.000+02:00</time>
      </trkpt>
      <trkpt lat="43.56816" lon="2.80159">
        <ele>978.8</ele>
        <time>2021-06-30T15:41:35.000+02:00</time>
      </trkpt>
      <trkpt lat="43.56815" lon="2.80158">
        <ele>978.8</ele>
        <time>2021-06-30T15:41:36.000+02:00</time>
      </trkpt>
      <trkpt lat="43.56815" lon="2.80158">
        <ele>978.8</ele>
        <time>2021-06-30T15:41:37.000+02:00</time>
      </trkpt>
      <trkpt lat="43.56814" lon="2.80157">
        <ele>978.8</ele>
        <time>2021-06-30T15:41:38.000+02:00</time>
      </trkpt>
      <trkpt lat="43.56813" lon="2.80156">
        <ele>978.8</ele>
        <time>2021-06-30T15:41:39.000+02:00</time>
      </trkpt>
      <trkpt lat="43.56813" lon="2.80156">
        <ele>978.8</ele>
        <time>2021-06-30T15:41:40.000+02:00</time>
      </trkpt>
      <trkpt lat="43.56812" lon="2.80155">
        <ele>978.8</ele>
        <time>2021-06-30T15:41:41.000+02:00</time>
      </trkpt>
      <trkpt lat="43.56811" lon="2.80154">
        <ele>978.8</ele>
        <time>2021-06-30T15:41:42.000+02:00</time>
      </trkpt>
      <trkpt lat="43.56809" lon="2.80152">
        <ele>978.9</ele>
        <time>2021-06-30T15:41:43.000+02:00</time>
      </trkpt>
      <trkpt lat="43.56808" lon="2.80152">
        <ele>978.9</ele>
        <time>2021-06-30T15:41:44.000+02:00</time>
      </trkpt>
      <trkpt lat="43.56808" lon="2.80151">
        <ele>978.9</ele>
        <time>2021-06-30T15:41:45.000+02:00</time>
      </trkpt>
      <trkpt lat="43.56807" lon="2.8015">
        <ele>979</ele>
        <time>2021-06-30T15:41:46.000+02:00</time>
      </trkpt>
      <trkpt lat="43.56806" lon="2.8015">
        <ele>979</ele>
        <time>2021-06-30T15:41:47.000+02:00</time>
      </trkpt>
      <trkpt lat="43.56805" lon="2.80149">
        <ele>979</ele>
        <time>2021-06-30T15:41:48.000+02:00</time>
      </trkpt>
      <trkpt lat="43.56804" lon="2.80148">
        <ele>979</ele>
        <time>2021-06-30T15:41:49.000+02:00</time>
      </trkpt>
      <trkpt lat="43.56803" lon="2.80147">
        <ele>979</ele>
        <time>2021-06-30T15:41:50.000+02:00</time>
      </trkpt>
      <trkpt lat="43.56803" lon="2.80147">
        <ele>979</ele>
        <time>2021-06-30T15:41:51.000+02:00</time>
      </trkpt>
      <trkpt lat="43.56802" lon="2.80146">
        <ele>979</ele>
        <time>2021-06-30T15:41:52.000+02:00</time>
      </trkpt>
      <trkpt lat="43.56801" lon="2.80145">
        <ele>979</ele>
        <time>2021-06-30T15:41:53.000+02:00</time>
      </trkpt>
      <trkpt lat="43.568" lon="2.80145">
        <ele>979.1</ele>
        <time>2021-06-30T15:41:54.000+02:00</time>
      </trkpt>
      <trkpt lat="43.56799" lon="2.80144">
        <ele>979.1</ele>
        <time>2021-06-30T15:41:55.000+02:00</time>
      </trkpt>
      <trkpt lat="43.56799" lon="2.80144">
        <ele>979.1</ele>
        <time>2021-06-30T15:41:56.000+02:00</time>
      </trkpt>
      <trkpt lat="43.56797" lon="2.80143">
        <ele>979.1</ele>
        <time>2021-06-30T15:41:57.000+02:00</time>
      </trkpt>
      <trkpt lat="43.56797" lon="2.80143">
        <ele>979.1</ele>
        <time>2021-06-30T15:41:58.000+02:00</time>
      </trkpt>
      <trkpt lat="43.56796" lon="2.80143">
        <ele>979.2</ele>
        <time>2021-06-30T15:41:59.000+02:00</time>
      </trkpt>
      <trkpt lat="43.56795" lon="2.80142">
        <ele>979.2</ele>
        <time>2021-06-30T15:42:00.000+02:00</time>
      </trkpt>
      <trkpt lat="43.56794" lon="2.80142">
        <ele>979.2</ele>
        <time>2021-06-30T15:42:01.000+02:00</time>
      </trkpt>
      <trkpt lat="43.56793" lon="2.8014">
        <ele>979.2</ele>
        <time>2021-06-30T15:42:02.000+02:00</time>
      </trkpt>
      <trkpt lat="43.56792" lon="2.80139">
        <ele>979.1</ele>
        <time>2021-06-30T15:42:03.000+02:00</time>
      </trkpt>
      <trkpt lat="43.56792" lon="2.80138">
        <ele>979.1</ele>
        <time>2021-06-30T15:42:04.000+02:00</time>
      </trkpt>
      <trkpt lat="43.5679" lon="2.80135">
        <ele>979.1</ele>
        <time>2021-06-30T15:42:05.000+02:00</time>
      </trkpt>
      <trkpt lat="43.56789" lon="2.80134">
        <ele>979</ele>
        <time>2021-06-30T15:42:06.000+02:00</time>
      </trkpt>
      <trkpt lat="43.56789" lon="2.80133">
        <ele>979</ele>
        <time>2021-06-30T15:42:07.000+02:00</time>
      </trkpt>
      <trkpt lat="43.56788" lon="2.80131">
        <ele>978.9</ele>
        <time>2021-06-30T15:42:08.000+02:00</time>
      </trkpt>
      <trkpt lat="43.56788" lon="2.80129">
        <ele>978.8</ele>
        <time>2021-06-30T15:42:09.000+02:00</time>
      </trkpt>
      <trkpt lat="43.56787" lon="2.80128">
        <ele>978.8</ele>
        <time>2021-06-30T15:42:10.000+02:00</time>
      </trkpt>
      <trkpt lat="43.56786" lon="2.80127">
        <ele>978.8</ele>
        <time>2021-06-30T15:42:11.000+02:00</time>
      </trkpt>
      <trkpt lat="43.56786" lon="2.80125">
        <ele>978.7</ele>
        <time>2021-06-30T15:42:12.000+02:00</time>
      </trkpt>
      <trkpt lat="43.56785" lon="2.80124">
        <ele>978.7</ele>
        <time>2021-06-30T15:42:13.000+02:00</time>
      </trkpt>
      <trkpt lat="43.56785" lon="2.80122">
        <ele>978.6</ele>
        <time>2021-06-30T15:42:14.000+02:00</time>
      </trkpt>
      <trkpt lat="43.56785" lon="2.80121">
        <ele>978.6</ele>
        <time>2021-06-30T15:42:15.000+02:00</time>
      </trkpt>
      <trkpt lat="43.56785" lon="2.80121">
        <ele>978.5</ele>
        <time>2021-06-30T15:42:16.000+02:00</time>
      </trkpt>
      <trkpt lat="43.56784" lon="2.8012">
        <ele>978.5</ele>
        <time>2021-06-30T15:42:17.000+02:00</time>
      </trkpt>
      <trkpt lat="43.56784" lon="2.80118">
        <ele>978.4</ele>
        <time>2021-06-30T15:42:18.000+02:00</time>
      </trkpt>
      <trkpt lat="43.56783" lon="2.80117">
        <ele>978.4</ele>
        <time>2021-06-30T15:42:19.000+02:00</time>
      </trkpt>
      <trkpt lat="43.56783" lon="2.80116">
        <ele>978.3</ele>
        <time>2021-06-30T15:42:20.000+02:00</time>
      </trkpt>
      <trkpt lat="43.56783" lon="2.80115">
        <ele>978.3</ele>
        <time>2021-06-30T15:42:21.000+02:00</time>
      </trkpt>
      <trkpt lat="43.56782" lon="2.80113">
        <ele>978.2</ele>
        <time>2021-06-30T15:42:22.000+02:00</time>
      </trkpt>
      <trkpt lat="43.56781" lon="2.80111">
        <ele>978.1</ele>
        <time>2021-06-30T15:42:23.000+02:00</time>
      </trkpt>
      <trkpt lat="43.56781" lon="2.8011">
        <ele>978.1</ele>
        <time>2021-06-30T15:42:24.000+02:00</time>
      </trkpt>
      <trkpt lat="43.5678" lon="2.80109">
        <ele>978</ele>
        <time>2021-06-30T15:42:25.000+02:00</time>
      </trkpt>
      <trkpt lat="43.5678" lon="2.80108">
        <ele>978</ele>
        <time>2021-06-30T15:42:26.000+02:00</time>
      </trkpt>
      <trkpt lat="43.5678" lon="2.80106">
        <ele>977.9</ele>
        <time>2021-06-30T15:42:27.000+02:00</time>
      </trkpt>
      <trkpt lat="43.5678" lon="2.80105">
        <ele>977.8</ele>
        <time>2021-06-30T15:42:28.000+02:00</time>
      </trkpt>
      <trkpt lat="43.5678" lon="2.80103">
        <ele>977.7</ele>
        <time>2021-06-30T15:42:29.000+02:00</time>
      </trkpt>
      <trkpt lat="43.56779" lon="2.80101">
        <ele>977.6</ele>
        <time>2021-06-30T15:42:30.000+02:00</time>
      </trkpt>
      <trkpt lat="43.56778" lon="2.80099">
        <ele>977.5</ele>
        <time>2021-06-30T15:42:31.000+02:00</time>
      </trkpt>
      <trkpt lat="43.56778" lon="2.80098">
        <ele>977.5</ele>
        <time>2021-06-30T15:42:32.000+02:00</time>
      </trkpt>
      <trkpt lat="43.56778" lon="2.80097">
        <ele>977.4</ele>
        <time>2021-06-30T15:42:33.000+02:00</time>
      </trkpt>
      <trkpt lat="43.56777" lon="2.80094">
        <ele>977.3</ele>
        <time>2021-06-30T15:42:34.000+02:00</time>
      </trkpt>
      <trkpt lat="43.56776" lon="2.80093">
        <ele>977.2</ele>
        <time>2021-06-30T15:42:35.000+02:00</time>
      </trkpt>
      <trkpt lat="43.56776" lon="2.80092">
        <ele>977.2</ele>
        <time>2021-06-30T15:42:36.000+02:00</time>
      </trkpt>
      <trkpt lat="43.56776" lon="2.80091">
        <ele>977.1</ele>
        <time>2021-06-30T15:42:37.000+02:00</time>
      </trkpt>
      <trkpt lat="43.56775" lon="2.80089">
        <ele>977</ele>
        <time>2021-06-30T15:42:38.000+02:00</time>
      </trkpt>
      <trkpt lat="43.56775" lon="2.80088">
        <ele>977</ele>
        <time>2021-06-30T15:42:39.000+02:00</time>
      </trkpt>
      <trkpt lat="43.56774" lon="2.80085">
        <ele>976.8</ele>
        <time>2021-06-30T15:42:40.000+02:00</time>
      </trkpt>
      <trkpt lat="43.56773" lon="2.80083">
        <ele>976.7</ele>
        <time>2021-06-30T15:42:41.000+02:00</time>
      </trkpt>
      <trkpt lat="43.56773" lon="2.80082">
        <ele>976.8</ele>
        <time>2021-06-30T15:42:42.000+02:00</time>
      </trkpt>
      <trkpt lat="43.56772" lon="2.8008">
        <ele>976.8</ele>
        <time>2021-06-30T15:42:43.000+02:00</time>
      </trkpt>
      <trkpt lat="43.56771" lon="2.80078">
        <ele>976.9</ele>
        <time>2021-06-30T15:42:44.000+02:00</time>
      </trkpt>
      <trkpt lat="43.56771" lon="2.80076">
        <ele>977</ele>
        <time>2021-06-30T15:42:44.999+02:00</time>
      </trkpt>
      <trkpt lat="43.5677" lon="2.80075">
        <ele>977.1</ele>
        <time>2021-06-30T15:42:45.999+02:00</time>
      </trkpt>
      <trkpt lat="43.5677" lon="2.80073">
        <ele>977.1</ele>
        <time>2021-06-30T15:42:46.999+02:00</time>
      </trkpt>
      <trkpt lat="43.56769" lon="2.80071">
        <ele>977.2</ele>
        <time>2021-06-30T15:42:47.999+02:00</time>
      </trkpt>
      <trkpt lat="43.56768" lon="2.80069">
        <ele>977.3</ele>
        <time>2021-06-30T15:42:48.999+02:00</time>
      </trkpt>
      <trkpt lat="43.56767" lon="2.80068">
        <ele>977.3</ele>
        <time>2021-06-30T15:42:49.999+02:00</time>
      </trkpt>
      <trkpt lat="43.56767" lon="2.80067">
        <ele>977.4</ele>
        <time>2021-06-30T15:42:50.999+02:00</time>
      </trkpt>
      <trkpt lat="43.56767" lon="2.80066">
        <ele>977.4</ele>
        <time>2021-06-30T15:42:51.999+02:00</time>
      </trkpt>
      <trkpt lat="43.56768" lon="2.80065">
        <ele>977.4</ele>
        <time>2021-06-30T15:42:52.999+02:00</time>
      </trkpt>
      <trkpt lat="43.56767" lon="2.80064">
        <ele>977.5</ele>
        <time>2021-06-30T15:42:53.999+02:00</time>
      </trkpt>
      <trkpt lat="43.56767" lon="2.80063">
        <ele>977.5</ele>
        <time>2021-06-30T15:42:54.999+02:00</time>
      </trkpt>
      <trkpt lat="43.56766" lon="2.80061">
        <ele>977.5</ele>
        <time>2021-06-30T15:42:55.999+02:00</time>
      </trkpt>
      <trkpt lat="43.56766" lon="2.80061">
        <ele>977.6</ele>
        <time>2021-06-30T15:42:56.999+02:00</time>
      </trkpt>
      <trkpt lat="43.56766" lon="2.80061">
        <ele>977.6</ele>
        <time>2021-06-30T15:42:57.999+02:00</time>
      </trkpt>
      <trkpt lat="43.56766" lon="2.80061">
        <ele>977.6</ele>
        <time>2021-06-30T15:42:58.999+02:00</time>
      </trkpt>
      <trkpt lat="43.56766" lon="2.80061">
        <ele>977.6</ele>
        <time>2021-06-30T15:42:59.999+02:00</time>
      </trkpt>
      <trkpt lat="43.56766" lon="2.80061">
        <ele>977.5</ele>
        <time>2021-06-30T15:43:00.999+02:00</time>
      </trkpt>
      <trkpt lat="43.56766" lon="2.80061">
        <ele>977.6</ele>
        <time>2021-06-30T15:43:01.999+02:00</time>
      </trkpt>
      <trkpt lat="43.56766" lon="2.8006">
        <ele>977.6</ele>
        <time>2021-06-30T15:43:02.999+02:00</time>
      </trkpt>
      <trkpt lat="43.56766" lon="2.8006">
        <ele>977.6</ele>
        <time>2021-06-30T15:43:03.999+02:00</time>
      </trkpt>
      <trkpt lat="43.56766" lon="2.80059">
        <ele>977.6</ele>
        <time>2021-06-30T15:43:04.999+02:00</time>
      </trkpt>
      <trkpt lat="43.56765" lon="2.80058">
        <ele>977.6</ele>
        <time>2021-06-30T15:43:05.999+02:00</time>
      </trkpt>
      <trkpt lat="43.56764" lon="2.80057">
        <ele>977.7</ele>
        <time>2021-06-30T15:43:06.999+02:00</time>
      </trkpt>
      <trkpt lat="43.56764" lon="2.80056">
        <ele>977.7</ele>
        <time>2021-06-30T15:43:07.999+02:00</time>
      </trkpt>
      <trkpt lat="43.56764" lon="2.80056">
        <ele>977.7</ele>
        <time>2021-06-30T15:43:08.999+02:00</time>
      </trkpt>
      <trkpt lat="43.56764" lon="2.80056">
        <ele>977.7</ele>
        <time>2021-06-30T15:43:09.999+02:00</time>
      </trkpt>
      <trkpt lat="43.56764" lon="2.80056">
        <ele>977.7</ele>
        <time>2021-06-30T15:43:10.999+02:00</time>
      </trkpt>
      <trkpt lat="43.56764" lon="2.80057">
        <ele>977.7</ele>
        <time>2021-06-30T15:43:11.999+02:00</time>
      </trkpt>
      <trkpt lat="43.56764" lon="2.80057">
        <ele>977.7</ele>
        <time>2021-06-30T15:43:12.999+02:00</time>
      </trkpt>
      <trkpt lat="43.56763" lon="2.80057">
        <ele>977.7</ele>
        <time>2021-06-30T15:43:13.999+02:00</time>
      </trkpt>
      <trkpt lat="43.56763" lon="2.80057">
        <ele>977.7</ele>
        <time>2021-06-30T15:43:14.999+02:00</time>
      </trkpt>
      <trkpt lat="43.56763" lon="2.80057">
        <ele>977.7</ele>
        <time>2021-06-30T15:43:15.999+02:00</time>
      </trkpt>
      <trkpt lat="43.56763" lon="2.80057">
        <ele>977.7</ele>
        <time>2021-06-30T15:43:16.999+02:00</time>
      </trkpt>
      <trkpt lat="43.56763" lon="2.80056">
        <ele>977.7</ele>
        <time>2021-06-30T15:43:17.999+02:00</time>
      </trkpt>
      <trkpt lat="43.56763" lon="2.80055">
        <ele>977.7</ele>
        <time>2021-06-30T15:43:18.999+02:00</time>
      </trkpt>
      <trkpt lat="43.56763" lon="2.80055">
        <ele>977.7</ele>
        <time>2021-06-30T15:43:19.999+02:00</time>
      </trkpt>
      <trkpt lat="43.56762" lon="2.80054">
        <ele>977.8</ele>
        <time>2021-06-30T15:43:20.999+02:00</time>
      </trkpt>
      <trkpt lat="43.56762" lon="2.80054">
        <ele>977.8</ele>
        <time>2021-06-30T15:43:21.999+02:00</time>
      </trkpt>
      <trkpt lat="43.56762" lon="2.80053">
        <ele>977.8</ele>
        <time>2021-06-30T15:43:22.999+02:00</time>
      </trkpt>
      <trkpt lat="43.56762" lon="2.80051">
        <ele>977.9</ele>
        <time>2021-06-30T15:43:23.999+02:00</time>
      </trkpt>
      <trkpt lat="43.56762" lon="2.8005">
        <ele>977.9</ele>
        <time>2021-06-30T15:43:24.999+02:00</time>
      </trkpt>
      <trkpt lat="43.56761" lon="2.80049">
        <ele>977.9</ele>
        <time>2021-06-30T15:43:25.999+02:00</time>
      </trkpt>
      <trkpt lat="43.5676" lon="2.80048">
        <ele>977.9</ele>
        <time>2021-06-30T15:43:26.999+02:00</time>
      </trkpt>
      <trkpt lat="43.5676" lon="2.80046">
        <ele>978</ele>
        <time>2021-06-30T15:43:27.999+02:00</time>
      </trkpt>
      <trkpt lat="43.56758" lon="2.80045">
        <ele>978</ele>
        <time>2021-06-30T15:43:28.999+02:00</time>
      </trkpt>
      <trkpt lat="43.56757" lon="2.80044">
        <ele>978</ele>
        <time>2021-06-30T15:43:29.999+02:00</time>
      </trkpt>
      <trkpt lat="43.56757" lon="2.80044">
        <ele>978</ele>
        <time>2021-06-30T15:43:30.999+02:00</time>
      </trkpt>
      <trkpt lat="43.56757" lon="2.80044">
        <ele>978</ele>
        <time>2021-06-30T15:43:31.999+02:00</time>
      </trkpt>
      <trkpt lat="43.56757" lon="2.80043">
        <ele>978</ele>
        <time>2021-06-30T15:43:32.999+02:00</time>
      </trkpt>
      <trkpt lat="43.56757" lon="2.80043">
        <ele>978</ele>
        <time>2021-06-30T15:43:33.999+02:00</time>
      </trkpt>
      <trkpt lat="43.56756" lon="2.80043">
        <ele>978</ele>
        <time>2021-06-30T15:43:34.999+02:00</time>
      </trkpt>
      <trkpt lat="43.56756" lon="2.80043">
        <ele>978</ele>
        <time>2021-06-30T15:43:35.999+02:00</time>
      </trkpt>
      <trkpt lat="43.56754" lon="2.80042">
        <ele>978</ele>
        <time>2021-06-30T15:43:36.999+02:00</time>
      </trkpt>
      <trkpt lat="43.56754" lon="2.80042">
        <ele>978</ele>
        <time>2021-06-30T15:43:37.999+02:00</time>
      </trkpt>
      <trkpt lat="43.56753" lon="2.80041">
        <ele>978</ele>
        <time>2021-06-30T15:43:38.999+02:00</time>
      </trkpt>
      <trkpt lat="43.56752" lon="2.80041">
        <ele>978</ele>
        <time>2021-06-30T15:43:39.999+02:00</time>
      </trkpt>
      <trkpt lat="43.56751" lon="2.8004">
        <ele>978</ele>
        <time>2021-06-30T15:43:40.999+02:00</time>
      </trkpt>
      <trkpt lat="43.56751" lon="2.8004">
        <ele>978.1</ele>
        <time>2021-06-30T15:43:41.999+02:00</time>
      </trkpt>
      <trkpt lat="43.56751" lon="2.8004">
        <ele>978.1</ele>
        <time>2021-06-30T15:43:42.999+02:00</time>
      </trkpt>
      <trkpt lat="43.56751" lon="2.80039">
        <ele>978.1</ele>
        <time>2021-06-30T15:43:43.999+02:00</time>
      </trkpt>
      <trkpt lat="43.5675" lon="2.80039">
        <ele>978.1</ele>
        <time>2021-06-30T15:43:44.999+02:00</time>
      </trkpt>
      <trkpt lat="43.56749" lon="2.80038">
        <ele>978</ele>
        <time>2021-06-30T15:43:45.999+02:00</time>
      </trkpt>
      <trkpt lat="43.56748" lon="2.80038">
        <ele>978</ele>
        <time>2021-06-30T15:43:46.999+02:00</time>
      </trkpt>
      <trkpt lat="43.56747" lon="2.80037">
        <ele>978</ele>
        <time>2021-06-30T15:43:47.999+02:00</time>
      </trkpt>
      <trkpt lat="43.56746" lon="2.80037">
        <ele>978</ele>
        <time>2021-06-30T15:43:48.999+02:00</time>
      </trkpt>
      <trkpt lat="43.56745" lon="2.80037">
        <ele>978</ele>
        <time>2021-06-30T15:43:49.999+02:00</time>
      </trkpt>
      <trkpt lat="43.56745" lon="2.80037">
        <ele>978</ele>
        <time>2021-06-30T15:43:50.999+02:00</time>
      </trkpt>
      <trkpt lat="43.56744" lon="2.80037">
        <ele>978</ele>
        <time>2021-06-30T15:43:51.999+02:00</time>
      </trkpt>
      <trkpt lat="43.56743" lon="2.80036">
        <ele>978</ele>
        <time>2021-06-30T15:43:52.999+02:00</time>
      </trkpt>
      <trkpt lat="43.56742" lon="2.80036">
        <ele>978</ele>
        <time>2021-06-30T15:43:53.999+02:00</time>
      </trkpt>
      <trkpt lat="43.56742" lon="2.80036">
        <ele>978</ele>
        <time>2021-06-30T15:43:54.999+02:00</time>
      </trkpt>
      <trkpt lat="43.56741" lon="2.80036">
        <ele>978</ele>
        <time>2021-06-30T15:43:55.999+02:00</time>
      </trkpt>
      <trkpt lat="43.5674" lon="2.80036">
        <ele>978</ele>
        <time>2021-06-30T15:43:56.999+02:00</time>
      </trkpt>
      <trkpt lat="43.5674" lon="2.80035">
        <ele>977.9</ele>
        <time>2021-06-30T15:43:57.999+02:00</time>
      </trkpt>
      <trkpt lat="43.56739" lon="2.80035">
        <ele>977.9</ele>
        <time>2021-06-30T15:43:58.999+02:00</time>
      </trkpt>
      <trkpt lat="43.56738" lon="2.80035">
        <ele>977.9</ele>
        <time>2021-06-30T15:43:59.999+02:00</time>
      </trkpt>
      <trkpt lat="43.56737" lon="2.80035">
        <ele>977.9</ele>
        <time>2021-06-30T15:44:00.999+02:00</time>
      </trkpt>
      <trkpt lat="43.56735" lon="2.80034">
        <ele>977.9</ele>
        <time>2021-06-30T15:44:01.999+02:00</time>
      </trkpt>
      <trkpt lat="43.56734" lon="2.80034">
        <ele>977.9</ele>
        <time>2021-06-30T15:44:02.999+02:00</time>
      </trkpt>
      <trkpt lat="43.56734" lon="2.80034">
        <ele>977.9</ele>
        <time>2021-06-30T15:44:03.999+02:00</time>
      </trkpt>
      <trkpt lat="43.56733" lon="2.80034">
        <ele>977.9</ele>
        <time>2021-06-30T15:44:04.999+02:00</time>
      </trkpt>
      <trkpt lat="43.56733" lon="2.80033">
        <ele>977.9</ele>
        <time>2021-06-30T15:44:05.999+02:00</time>
      </trkpt>
      <trkpt lat="43.56733" lon="2.80033">
        <ele>977.9</ele>
        <time>2021-06-30T15:44:06.999+02:00</time>
      </trkpt>
      <trkpt lat="43.56731" lon="2.80032">
        <ele>977.9</ele>
        <time>2021-06-30T15:44:07.999+02:00</time>
      </trkpt>
      <trkpt lat="43.56731" lon="2.80032">
        <ele>977.9</ele>
        <time>2021-06-30T15:44:08.999+02:00</time>
      </trkpt>
      <trkpt lat="43.5673" lon="2.80032">
        <ele>977.9</ele>
        <time>2021-06-30T15:44:09.999+02:00</time>
      </trkpt>
      <trkpt lat="43.56728" lon="2.80031">
        <ele>977.9</ele>
        <time>2021-06-30T15:44:10.999+02:00</time>
      </trkpt>
      <trkpt lat="43.56727" lon="2.80031">
        <ele>977.9</ele>
        <time>2021-06-30T15:44:11.999+02:00</time>
      </trkpt>
      <trkpt lat="43.56726" lon="2.8003">
        <ele>977.9</ele>
        <time>2021-06-30T15:44:12.999+02:00</time>
      </trkpt>
      <trkpt lat="43.56726" lon="2.80028">
        <ele>977.9</ele>
        <time>2021-06-30T15:44:13.999+02:00</time>
      </trkpt>
      <trkpt lat="43.56725" lon="2.80027">
        <ele>978</ele>
        <time>2021-06-30T15:44:14.999+02:00</time>
      </trkpt>
      <trkpt lat="43.56724" lon="2.80027">
        <ele>978</ele>
        <time>2021-06-30T15:44:15.999+02:00</time>
      </trkpt>
      <trkpt lat="43.56724" lon="2.80026">
        <ele>978</ele>
        <time>2021-06-30T15:44:16.999+02:00</time>
      </trkpt>
      <trkpt lat="43.56723" lon="2.80026">
        <ele>978</ele>
        <time>2021-06-30T15:44:17.999+02:00</time>
      </trkpt>
      <trkpt lat="43.56723" lon="2.80025">
        <ele>978</ele>
        <time>2021-06-30T15:44:18.999+02:00</time>
      </trkpt>
      <trkpt lat="43.56722" lon="2.80025">
        <ele>978</ele>
        <time>2021-06-30T15:44:19.999+02:00</time>
      </trkpt>
      <trkpt lat="43.56722" lon="2.80025">
        <ele>978</ele>
        <time>2021-06-30T15:44:20.999+02:00</time>
      </trkpt>
      <trkpt lat="43.56722" lon="2.80025">
        <ele>978</ele>
        <time>2021-06-30T15:44:21.999+02:00</time>
      </trkpt>
      <trkpt lat="43.56721" lon="2.80025">
        <ele>978</ele>
        <time>2021-06-30T15:44:22.999+02:00</time>
      </trkpt>
      <trkpt lat="43.56721" lon="2.80025">
        <ele>978</ele>
        <time>2021-06-30T15:44:23.999+02:00</time>
      </trkpt>
      <trkpt lat="43.5672" lon="2.80025">
        <ele>978</ele>
        <time>2021-06-30T15:44:24.999+02:00</time>
      </trkpt>
      <trkpt lat="43.5672" lon="2.80025">
        <ele>978</ele>
        <time>2021-06-30T15:44:25.999+02:00</time>
      </trkpt>
      <trkpt lat="43.56719" lon="2.80025">
        <ele>978</ele>
        <time>2021-06-30T15:44:26.999+02:00</time>
      </trkpt>
      <trkpt lat="43.56719" lon="2.80025">
        <ele>978</ele>
        <time>2021-06-30T15:44:27.999+02:00</time>
      </trkpt>
      <trkpt lat="43.56719" lon="2.80024">
        <ele>978</ele>
        <time>2021-06-30T15:44:28.999+02:00</time>
      </trkpt>
      <trkpt lat="43.56719" lon="2.80024">
        <ele>978</ele>
        <time>2021-06-30T15:44:29.999+02:00</time>
      </trkpt>
      <trkpt lat="43.56719" lon="2.80025">
        <ele>978</ele>
        <time>2021-06-30T15:44:30.999+02:00</time>
      </trkpt>
      <trkpt lat="43.56719" lon="2.80024">
        <ele>978</ele>
        <time>2021-06-30T15:44:31.999+02:00</time>
      </trkpt>
      <trkpt lat="43.56718" lon="2.80023">
        <ele>978</ele>
        <time>2021-06-30T15:44:32.999+02:00</time>
      </trkpt>
      <trkpt lat="43.56717" lon="2.80023">
        <ele>978</ele>
        <time>2021-06-30T15:44:33.999+02:00</time>
      </trkpt>
      <trkpt lat="43.56717" lon="2.80023">
        <ele>978</ele>
        <time>2021-06-30T15:44:34.999+02:00</time>
      </trkpt>
      <trkpt lat="43.56716" lon="2.80023">
        <ele>978</ele>
        <time>2021-06-30T15:44:35.999+02:00</time>
      </trkpt>
      <trkpt lat="43.56716" lon="2.80023">
        <ele>978</ele>
        <time>2021-06-30T15:44:36.999+02:00</time>
      </trkpt>
      <trkpt lat="43.56716" lon="2.80023">
        <ele>978</ele>
        <time>2021-06-30T15:44:37.999+02:00</time>
      </trkpt>
      <trkpt lat="43.56716" lon="2.80023">
        <ele>978</ele>
        <time>2021-06-30T15:44:38.999+02:00</time>
      </trkpt>
      <trkpt lat="43.56715" lon="2.80023">
        <ele>978</ele>
        <time>2021-06-30T15:44:39.999+02:00</time>
      </trkpt>
      <trkpt lat="43.56714" lon="2.80023">
        <ele>978</ele>
        <time>2021-06-30T15:44:40.999+02:00</time>
      </trkpt>
      <trkpt lat="43.56713" lon="2.80024">
        <ele>977.9</ele>
        <time>2021-06-30T15:44:41.999+02:00</time>
      </trkpt>
      <trkpt lat="43.56712" lon="2.80024">
        <ele>977.9</ele>
        <time>2021-06-30T15:44:42.999+02:00</time>
      </trkpt>
      <trkpt lat="43.56709" lon="2.80024">
        <ele>977.8</ele>
        <time>2021-06-30T15:44:43.999+02:00</time>
      </trkpt>
      <trkpt lat="43.56707" lon="2.80024">
        <ele>977.8</ele>
        <time>2021-06-30T15:44:44.999+02:00</time>
      </trkpt>
      <trkpt lat="43.56705" lon="2.80024">
        <ele>977.8</ele>
        <time>2021-06-30T15:44:45.999+02:00</time>
      </trkpt>
      <trkpt lat="43.56703" lon="2.80024">
        <ele>977.8</ele>
        <time>2021-06-30T15:44:46.999+02:00</time>
      </trkpt>
      <trkpt lat="43.56703" lon="2.80024">
        <ele>977.8</ele>
        <time>2021-06-30T15:44:47.999+02:00</time>
      </trkpt>
      <trkpt lat="43.56701" lon="2.80025">
        <ele>977.7</ele>
        <time>2021-06-30T15:44:48.999+02:00</time>
      </trkpt>
      <trkpt lat="43.567" lon="2.80025">
        <ele>977.7</ele>
        <time>2021-06-30T15:44:49.999+02:00</time>
      </trkpt>
      <trkpt lat="43.56698" lon="2.80023">
        <ele>977.7</ele>
        <time>2021-06-30T15:44:50.999+02:00</time>
      </trkpt>
      <trkpt lat="43.56696" lon="2.80023">
        <ele>977.8</ele>
        <time>2021-06-30T15:44:51.999+02:00</time>
      </trkpt>
      <trkpt lat="43.56694" lon="2.80022">
        <ele>977.8</ele>
        <time>2021-06-30T15:44:52.999+02:00</time>
      </trkpt>
      <trkpt lat="43.56694" lon="2.80022">
        <ele>977.8</ele>
        <time>2021-06-30T15:44:53.999+02:00</time>
      </trkpt>
      <trkpt lat="43.56693" lon="2.80021">
        <ele>977.8</ele>
        <time>2021-06-30T15:44:54.999+02:00</time>
      </trkpt>
      <trkpt lat="43.56691" lon="2.80021">
        <ele>977.8</ele>
        <time>2021-06-30T15:44:55.999+02:00</time>
      </trkpt>
      <trkpt lat="43.56691" lon="2.80021">
        <ele>977.8</ele>
        <time>2021-06-30T15:44:56.999+02:00</time>
      </trkpt>
      <trkpt lat="43.56691" lon="2.80021">
        <ele>977.8</ele>
        <time>2021-06-30T15:44:57.999+02:00</time>
      </trkpt>
      <trkpt lat="43.56689" lon="2.80021">
        <ele>977.7</ele>
        <time>2021-06-30T15:44:58.999+02:00</time>
      </trkpt>
      <trkpt lat="43.56688" lon="2.8002">
        <ele>977.8</ele>
        <time>2021-06-30T15:44:59.999+02:00</time>
      </trkpt>
      <trkpt lat="43.56687" lon="2.80018">
        <ele>977.9</ele>
        <time>2021-06-30T15:45:00.999+02:00</time>
      </trkpt>
      <trkpt lat="43.56684" lon="2.80017">
        <ele>978</ele>
        <time>2021-06-30T15:45:01.999+02:00</time>
      </trkpt>
      <trkpt lat="43.56681" lon="2.80016">
        <ele>978</ele>
        <time>2021-06-30T15:45:02.999+02:00</time>
      </trkpt>
      <trkpt lat="43.5668" lon="2.80016">
        <ele>978</ele>
        <time>2021-06-30T15:45:03.999+02:00</time>
      </trkpt>
      <trkpt lat="43.56678" lon="2.80014">
        <ele>978.1</ele>
        <time>2021-06-30T15:45:04.999+02:00</time>
      </trkpt>
      <trkpt lat="43.56677" lon="2.80014">
        <ele>978.1</ele>
        <time>2021-06-30T15:45:05.999+02:00</time>
      </trkpt>
      <trkpt lat="43.56677" lon="2.80013">
        <ele>978.1</ele>
        <time>2021-06-30T15:45:06.999+02:00</time>
      </trkpt>
      <trkpt lat="43.56676" lon="2.80014">
        <ele>978.1</ele>
        <time>2021-06-30T15:45:07.999+02:00</time>
      </trkpt>
      <trkpt lat="43.56675" lon="2.80014">
        <ele>978.1</ele>
        <time>2021-06-30T15:45:08.999+02:00</time>
      </trkpt>
      <trkpt lat="43.56675" lon="2.80013">
        <ele>978.1</ele>
        <time>2021-06-30T15:45:09.999+02:00</time>
      </trkpt>
      <trkpt lat="43.56674" lon="2.80013">
        <ele>978.1</ele>
        <time>2021-06-30T15:45:10.999+02:00</time>
      </trkpt>
      <trkpt lat="43.56672" lon="2.80012">
        <ele>978.2</ele>
        <time>2021-06-30T15:45:11.999+02:00</time>
      </trkpt>
      <trkpt lat="43.56671" lon="2.80012">
        <ele>978.2</ele>
        <time>2021-06-30T15:45:12.999+02:00</time>
      </trkpt>
      <trkpt lat="43.56671" lon="2.80011">
        <ele>978.2</ele>
        <time>2021-06-30T15:45:13.999+02:00</time>
      </trkpt>
      <trkpt lat="43.5667" lon="2.80011">
        <ele>978.3</ele>
        <time>2021-06-30T15:45:14.999+02:00</time>
      </trkpt>
      <trkpt lat="43.56669" lon="2.8001">
        <ele>978.3</ele>
        <time>2021-06-30T15:45:15.999+02:00</time>
      </trkpt>
      <trkpt lat="43.56668" lon="2.8001">
        <ele>978.3</ele>
        <time>2021-06-30T15:45:16.999+02:00</time>
      </trkpt>
      <trkpt lat="43.56668" lon="2.8001">
        <ele>978.3</ele>
        <time>2021-06-30T15:45:17.999+02:00</time>
      </trkpt>
      <trkpt lat="43.56668" lon="2.8001">
        <ele>978.3</ele>
        <time>2021-06-30T15:45:18.999+02:00</time>
      </trkpt>
      <trkpt lat="43.56668" lon="2.8001">
        <ele>978.3</ele>
        <time>2021-06-30T15:45:19.999+02:00</time>
      </trkpt>
      <trkpt lat="43.56667" lon="2.80009">
        <ele>978.3</ele>
        <time>2021-06-30T15:45:20.999+02:00</time>
      </trkpt>
      <trkpt lat="43.56666" lon="2.80009">
        <ele>978.3</ele>
        <time>2021-06-30T15:45:21.999+02:00</time>
      </trkpt>
      <trkpt lat="43.56666" lon="2.80008">
        <ele>978.3</ele>
        <time>2021-06-30T15:45:22.999+02:00</time>
      </trkpt>
      <trkpt lat="43.56665" lon="2.80008">
        <ele>978.3</ele>
        <time>2021-06-30T15:45:23.999+02:00</time>
      </trkpt>
      <trkpt lat="43.56664" lon="2.80008">
        <ele>978.3</ele>
        <time>2021-06-30T15:45:24.999+02:00</time>
      </trkpt>
      <trkpt lat="43.56663" lon="2.80007">
        <ele>978.3</ele>
        <time>2021-06-30T15:45:25.999+02:00</time>
      </trkpt>
      <trkpt lat="43.56663" lon="2.80006">
        <ele>978.3</ele>
        <time>2021-06-30T15:45:26.999+02:00</time>
      </trkpt>
      <trkpt lat="43.56662" lon="2.80006">
        <ele>978.3</ele>
        <time>2021-06-30T15:45:27.999+02:00</time>
      </trkpt>
      <trkpt lat="43.56661" lon="2.80005">
        <ele>978.3</ele>
        <time>2021-06-30T15:45:28.999+02:00</time>
      </trkpt>
      <trkpt lat="43.56659" lon="2.80004">
        <ele>978.3</ele>
        <time>2021-06-30T15:45:29.999+02:00</time>
      </trkpt>
      <trkpt lat="43.56658" lon="2.80004">
        <ele>978.2</ele>
        <time>2021-06-30T15:45:30.999+02:00</time>
      </trkpt>
      <trkpt lat="43.56657" lon="2.80004">
        <ele>978.1</ele>
        <time>2021-06-30T15:45:31.999+02:00</time>
      </trkpt>
      <trkpt lat="43.56655" lon="2.80003">
        <ele>978.1</ele>
        <time>2021-06-30T15:45:32.999+02:00</time>
      </trkpt>
      <trkpt lat="43.56653" lon="2.80003">
        <ele>978</ele>
        <time>2021-06-30T15:45:33.999+02:00</time>
      </trkpt>
      <trkpt lat="43.56652" lon="2.80003">
        <ele>977.9</ele>
        <time>2021-06-30T15:45:34.999+02:00</time>
      </trkpt>
      <trkpt lat="43.56651" lon="2.80003">
        <ele>977.9</ele>
        <time>2021-06-30T15:45:35.999+02:00</time>
      </trkpt>
      <trkpt lat="43.5665" lon="2.80003">
        <ele>977.8</ele>
        <time>2021-06-30T15:45:36.999+02:00</time>
      </trkpt>
      <trkpt lat="43.56649" lon="2.80003">
        <ele>977.7</ele>
        <time>2021-06-30T15:45:37.999+02:00</time>
      </trkpt>
      <trkpt lat="43.5665" lon="2.80003">
        <ele>977.7</ele>
        <time>2021-06-30T15:45:38.999+02:00</time>
      </trkpt>
      <trkpt lat="43.5665" lon="2.80003">
        <ele>977.8</ele>
        <time>2021-06-30T15:45:39.999+02:00</time>
      </trkpt>
      <trkpt lat="43.5665" lon="2.80003">
        <ele>977.7</ele>
        <time>2021-06-30T15:45:40.999+02:00</time>
      </trkpt>
      <trkpt lat="43.56649" lon="2.80003">
        <ele>977.7</ele>
        <time>2021-06-30T15:45:41.999+02:00</time>
      </trkpt>
      <trkpt lat="43.56649" lon="2.80003">
        <ele>977.7</ele>
        <time>2021-06-30T15:45:42.999+02:00</time>
      </trkpt>
      <trkpt lat="43.56648" lon="2.80003">
        <ele>977.7</ele>
        <time>2021-06-30T15:45:43.999+02:00</time>
      </trkpt>
      <trkpt lat="43.56648" lon="2.80003">
        <ele>977.7</ele>
        <time>2021-06-30T15:45:44.999+02:00</time>
      </trkpt>
      <trkpt lat="43.56647" lon="2.80001">
        <ele>977.7</ele>
        <time>2021-06-30T15:45:45.999+02:00</time>
      </trkpt>
      <trkpt lat="43.56647" lon="2.80001">
        <ele>977.8</ele>
        <time>2021-06-30T15:45:46.999+02:00</time>
      </trkpt>
      <trkpt lat="43.56647" lon="2.8">
        <ele>977.8</ele>
        <time>2021-06-30T15:45:47.999+02:00</time>
      </trkpt>
      <trkpt lat="43.56646" lon="2.8">
        <ele>977.8</ele>
        <time>2021-06-30T15:45:48.999+02:00</time>
      </trkpt>
      <trkpt lat="43.56646" lon="2.8">
        <ele>977.7</ele>
        <time>2021-06-30T15:45:49.999+02:00</time>
      </trkpt>
      <trkpt lat="43.56646" lon="2.8">
        <ele>977.7</ele>
        <time>2021-06-30T15:45:50.999+02:00</time>
      </trkpt>
      <trkpt lat="43.56645" lon="2.8">
        <ele>977.7</ele>
        <time>2021-06-30T15:45:51.999+02:00</time>
      </trkpt>
      <trkpt lat="43.56645" lon="2.8">
        <ele>977.7</ele>
        <time>2021-06-30T15:45:52.999+02:00</time>
      </trkpt>
      <trkpt lat="43.56645" lon="2.8">
        <ele>977.7</ele>
        <time>2021-06-30T15:45:53.999+02:00</time>
      </trkpt>
      <trkpt lat="43.56644" lon="2.79999">
        <ele>977.7</ele>
        <time>2021-06-30T15:45:54.999+02:00</time>
      </trkpt>
      <trkpt lat="43.56644" lon="2.79999">
        <ele>977.7</ele>
        <time>2021-06-30T15:45:55.999+02:00</time>
      </trkpt>
      <trkpt lat="43.56644" lon="2.79999">
        <ele>977.7</ele>
        <time>2021-06-30T15:45:56.999+02:00</time>
      </trkpt>
      <trkpt lat="43.56643" lon="2.79999">
        <ele>977.7</ele>
        <time>2021-06-30T15:45:57.999+02:00</time>
      </trkpt>
      <trkpt lat="43.56643" lon="2.79999">
        <ele>977.6</ele>
        <time>2021-06-30T15:45:58.999+02:00</time>
      </trkpt>
      <trkpt lat="43.56643" lon="2.79999">
        <ele>977.6</ele>
        <time>2021-06-30T15:45:59.999+02:00</time>
      </trkpt>
      <trkpt lat="43.56642" lon="2.79999">
        <ele>977.6</ele>
        <time>2021-06-30T15:46:00.999+02:00</time>
      </trkpt>
      <trkpt lat="43.56641" lon="2.79999">
        <ele>977.6</ele>
        <time>2021-06-30T15:46:01.999+02:00</time>
      </trkpt>
      <trkpt lat="43.5664" lon="2.79998">
        <ele>977.5</ele>
        <time>2021-06-30T15:46:02.999+02:00</time>
      </trkpt>
      <trkpt lat="43.5664" lon="2.79998">
        <ele>977.6</ele>
        <time>2021-06-30T15:46:03.999+02:00</time>
      </trkpt>
      <trkpt lat="43.56639" lon="2.79996">
        <ele>977.6</ele>
        <time>2021-06-30T15:46:04.999+02:00</time>
      </trkpt>
      <trkpt lat="43.56638" lon="2.79995">
        <ele>977.6</ele>
        <time>2021-06-30T15:46:05.999+02:00</time>
      </trkpt>
      <trkpt lat="43.56637" lon="2.79994">
        <ele>977.6</ele>
        <time>2021-06-30T15:46:06.999+02:00</time>
      </trkpt>
      <trkpt lat="43.56636" lon="2.79994">
        <ele>977.6</ele>
        <time>2021-06-30T15:46:07.999+02:00</time>
      </trkpt>
      <trkpt lat="43.56635" lon="2.79992">
        <ele>977.7</ele>
        <time>2021-06-30T15:46:08.999+02:00</time>
      </trkpt>
      <trkpt lat="43.56634" lon="2.79991">
        <ele>977.7</ele>
        <time>2021-06-30T15:46:09.999+02:00</time>
      </trkpt>
      <trkpt lat="43.56634" lon="2.79991">
        <ele>977.7</ele>
        <time>2021-06-30T15:46:10.999+02:00</time>
      </trkpt>
      <trkpt lat="43.56633" lon="2.7999">
        <ele>977.7</ele>
        <time>2021-06-30T15:46:11.999+02:00</time>
      </trkpt>
      <trkpt lat="43.56632" lon="2.79989">
        <ele>977.7</ele>
        <time>2021-06-30T15:46:12.999+02:00</time>
      </trkpt>
      <trkpt lat="43.56631" lon="2.79989">
        <ele>977.7</ele>
        <time>2021-06-30T15:46:13.999+02:00</time>
      </trkpt>
      <trkpt lat="43.56631" lon="2.79988">
        <ele>977.7</ele>
        <time>2021-06-30T15:46:14.999+02:00</time>
      </trkpt>
      <trkpt lat="43.56631" lon="2.79988">
        <ele>977.7</ele>
        <time>2021-06-30T15:46:15.999+02:00</time>
      </trkpt>
      <trkpt lat="43.5663" lon="2.79988">
        <ele>977.7</ele>
        <time>2021-06-30T15:46:16.999+02:00</time>
      </trkpt>
      <trkpt lat="43.5663" lon="2.79988">
        <ele>977.7</ele>
        <time>2021-06-30T15:46:17.999+02:00</time>
      </trkpt>
      <trkpt lat="43.5663" lon="2.79988">
        <ele>977.7</ele>
        <time>2021-06-30T15:46:18.999+02:00</time>
      </trkpt>
      <trkpt lat="43.56629" lon="2.79988">
        <ele>977.6</ele>
        <time>2021-06-30T15:46:19.999+02:00</time>
      </trkpt>
      <trkpt lat="43.56628" lon="2.79989">
        <ele>977.5</ele>
        <time>2021-06-30T15:46:20.999+02:00</time>
      </trkpt>
      <trkpt lat="43.56626" lon="2.79989">
        <ele>977.3</ele>
        <time>2021-06-30T15:46:21.999+02:00</time>
      </trkpt>
      <trkpt lat="43.56624" lon="2.79989">
        <ele>977.2</ele>
        <time>2021-06-30T15:46:22.999+02:00</time>
      </trkpt>
      <trkpt lat="43.56623" lon="2.79989">
        <ele>977.1</ele>
        <time>2021-06-30T15:46:23.999+02:00</time>
      </trkpt>
      <trkpt lat="43.56622" lon="2.79989">
        <ele>977.1</ele>
        <time>2021-06-30T15:46:24.999+02:00</time>
      </trkpt>
      <trkpt lat="43.56621" lon="2.7999">
        <ele>977</ele>
        <time>2021-06-30T15:46:25.999+02:00</time>
      </trkpt>
      <trkpt lat="43.5662" lon="2.7999">
        <ele>976.9</ele>
        <time>2021-06-30T15:46:26.999+02:00</time>
      </trkpt>
      <trkpt lat="43.56619" lon="2.7999">
        <ele>976.9</ele>
        <time>2021-06-30T15:46:27.999+02:00</time>
      </trkpt>
      <trkpt lat="43.56619" lon="2.79989">
        <ele>976.9</ele>
        <time>2021-06-30T15:46:28.999+02:00</time>
      </trkpt>
      <trkpt lat="43.56618" lon="2.79989">
        <ele>976.9</ele>
        <time>2021-06-30T15:46:29.999+02:00</time>
      </trkpt>
      <trkpt lat="43.56618" lon="2.7999">
        <ele>976.8</ele>
        <time>2021-06-30T15:46:30.999+02:00</time>
      </trkpt>
      <trkpt lat="43.56618" lon="2.7999">
        <ele>976.8</ele>
        <time>2021-06-30T15:46:31.999+02:00</time>
      </trkpt>
      <trkpt lat="43.56617" lon="2.79989">
        <ele>976.8</ele>
        <time>2021-06-30T15:46:32.999+02:00</time>
      </trkpt>
      <trkpt lat="43.56616" lon="2.79989">
        <ele>976.8</ele>
        <time>2021-06-30T15:46:33.999+02:00</time>
      </trkpt>
      <trkpt lat="43.56614" lon="2.79987">
        <ele>976.7</ele>
        <time>2021-06-30T15:46:34.999+02:00</time>
      </trkpt>
      <trkpt lat="43.56612" lon="2.79987">
        <ele>976.7</ele>
        <time>2021-06-30T15:46:35.999+02:00</time>
      </trkpt>
      <trkpt lat="43.56612" lon="2.79987">
        <ele>976.6</ele>
        <time>2021-06-30T15:46:36.999+02:00</time>
      </trkpt>
      <trkpt lat="43.56611" lon="2.79987">
        <ele>976.6</ele>
        <time>2021-06-30T15:46:37.999+02:00</time>
      </trkpt>
      <trkpt lat="43.56609" lon="2.79986">
        <ele>976.5</ele>
        <time>2021-06-30T15:46:38.999+02:00</time>
      </trkpt>
      <trkpt lat="43.56607" lon="2.79985">
        <ele>976.5</ele>
        <time>2021-06-30T15:46:39.999+02:00</time>
      </trkpt>
      <trkpt lat="43.56607" lon="2.79984">
        <ele>976.6</ele>
        <time>2021-06-30T15:46:40.999+02:00</time>
      </trkpt>
      <trkpt lat="43.56607" lon="2.79984">
        <ele>976.5</ele>
        <time>2021-06-30T15:46:41.999+02:00</time>
      </trkpt>
      <trkpt lat="43.56606" lon="2.79985">
        <ele>976.5</ele>
        <time>2021-06-30T15:46:42.999+02:00</time>
      </trkpt>
      <trkpt lat="43.56604" lon="2.79985">
        <ele>976.4</ele>
        <time>2021-06-30T15:46:43.999+02:00</time>
      </trkpt>
      <trkpt lat="43.56604" lon="2.79985">
        <ele>976.4</ele>
        <time>2021-06-30T15:46:44.999+02:00</time>
      </trkpt>
      <trkpt lat="43.56604" lon="2.79985">
        <ele>976.4</ele>
        <time>2021-06-30T15:46:45.999+02:00</time>
      </trkpt>
      <trkpt lat="43.56604" lon="2.79984">
        <ele>976.4</ele>
        <time>2021-06-30T15:46:46.999+02:00</time>
      </trkpt>
      <trkpt lat="43.56604" lon="2.79984">
        <ele>976.4</ele>
        <time>2021-06-30T15:46:47.999+02:00</time>
      </trkpt>
      <trkpt lat="43.56604" lon="2.79984">
        <ele>976.4</ele>
        <time>2021-06-30T15:46:48.999+02:00</time>
      </trkpt>
      <trkpt lat="43.56603" lon="2.79984">
        <ele>976.3</ele>
        <time>2021-06-30T15:46:49.999+02:00</time>
      </trkpt>
      <trkpt lat="43.56603" lon="2.79984">
        <ele>976.3</ele>
        <time>2021-06-30T15:46:50.999+02:00</time>
      </trkpt>
      <trkpt lat="43.56601" lon="2.79985">
        <ele>976.1</ele>
        <time>2021-06-30T15:46:51.999+02:00</time>
      </trkpt>
      <trkpt lat="43.56599" lon="2.79985">
        <ele>976</ele>
        <time>2021-06-30T15:46:52.999+02:00</time>
      </trkpt>
      <trkpt lat="43.56599" lon="2.79985">
        <ele>976</ele>
        <time>2021-06-30T15:46:53.999+02:00</time>
      </trkpt>
      <trkpt lat="43.56599" lon="2.79985">
        <ele>976</ele>
        <time>2021-06-30T15:46:54.999+02:00</time>
      </trkpt>
      <trkpt lat="43.56596" lon="2.79985">
        <ele>975.8</ele>
        <time>2021-06-30T15:46:55.999+02:00</time>
      </trkpt>
      <trkpt lat="43.56595" lon="2.79986">
        <ele>975.7</ele>
        <time>2021-06-30T15:46:56.999+02:00</time>
      </trkpt>
      <trkpt lat="43.56593" lon="2.79986">
        <ele>975.6</ele>
        <time>2021-06-30T15:46:57.999+02:00</time>
      </trkpt>
      <trkpt lat="43.56592" lon="2.79986">
        <ele>975.5</ele>
        <time>2021-06-30T15:46:58.999+02:00</time>
      </trkpt>
      <trkpt lat="43.56591" lon="2.79986">
        <ele>975.5</ele>
        <time>2021-06-30T15:46:59.999+02:00</time>
      </trkpt>
      <trkpt lat="43.56591" lon="2.79987">
        <ele>975.4</ele>
        <time>2021-06-30T15:47:00.999+02:00</time>
      </trkpt>
      <trkpt lat="43.56591" lon="2.79987">
        <ele>975.4</ele>
        <time>2021-06-30T15:47:01.999+02:00</time>
      </trkpt>
      <trkpt lat="43.5659" lon="2.79987">
        <ele>975.4</ele>
        <time>2021-06-30T15:47:02.999+02:00</time>
      </trkpt>
      <trkpt lat="43.5659" lon="2.79987">
        <ele>975.4</ele>
        <time>2021-06-30T15:47:03.999+02:00</time>
      </trkpt>
      <trkpt lat="43.5659" lon="2.79987">
        <ele>975.3</ele>
        <time>2021-06-30T15:47:04.999+02:00</time>
      </trkpt>
      <trkpt lat="43.5659" lon="2.79987">
        <ele>975.3</ele>
        <time>2021-06-30T15:47:05.999+02:00</time>
      </trkpt>
      <trkpt lat="43.56588" lon="2.79987">
        <ele>975.2</ele>
        <time>2021-06-30T15:47:06.999+02:00</time>
      </trkpt>
      <trkpt lat="43.56587" lon="2.79988">
        <ele>975</ele>
        <time>2021-06-30T15:47:07.999+02:00</time>
      </trkpt>
      <trkpt lat="43.56586" lon="2.79989">
        <ele>974.9</ele>
        <time>2021-06-30T15:47:08.999+02:00</time>
      </trkpt>
      <trkpt lat="43.56585" lon="2.7999">
        <ele>974.8</ele>
        <time>2021-06-30T15:47:09.999+02:00</time>
      </trkpt>
      <trkpt lat="43.56584" lon="2.79992">
        <ele>974.6</ele>
        <time>2021-06-30T15:47:10.999+02:00</time>
      </trkpt>
      <trkpt lat="43.56583" lon="2.79993">
        <ele>974.5</ele>
        <time>2021-06-30T15:47:11.999+02:00</time>
      </trkpt>
      <trkpt lat="43.56582" lon="2.79994">
        <ele>974.3</ele>
        <time>2021-06-30T15:47:12.999+02:00</time>
      </trkpt>
      <trkpt lat="43.56581" lon="2.79994">
        <ele>974.1</ele>
        <time>2021-06-30T15:47:13.999+02:00</time>
      </trkpt>
      <trkpt lat="43.5658" lon="2.79995">
        <ele>974</ele>
        <time>2021-06-30T15:47:14.999+02:00</time>
      </trkpt>
      <trkpt lat="43.5658" lon="2.79996">
        <ele>973.9</ele>
        <time>2021-06-30T15:47:15.999+02:00</time>
      </trkpt>
      <trkpt lat="43.5658" lon="2.79996">
        <ele>973.8</ele>
        <time>2021-06-30T15:47:16.999+02:00</time>
      </trkpt>
      <trkpt lat="43.56578" lon="2.79997">
        <ele>973.6</ele>
        <time>2021-06-30T15:47:17.999+02:00</time>
      </trkpt>
      <trkpt lat="43.56577" lon="2.79997">
        <ele>973.4</ele>
        <time>2021-06-30T15:47:18.999+02:00</time>
      </trkpt>
      <trkpt lat="43.56575" lon="2.79998">
        <ele>973</ele>
        <time>2021-06-30T15:47:19.999+02:00</time>
      </trkpt>
      <trkpt lat="43.56574" lon="2.79998">
        <ele>972.9</ele>
        <time>2021-06-30T15:47:20.999+02:00</time>
      </trkpt>
      <trkpt lat="43.56572" lon="2.79998">
        <ele>972.8</ele>
        <time>2021-06-30T15:47:21.999+02:00</time>
      </trkpt>
      <trkpt lat="43.56572" lon="2.79998">
        <ele>972.7</ele>
        <time>2021-06-30T15:47:22.999+02:00</time>
      </trkpt>
      <trkpt lat="43.56571" lon="2.79998">
        <ele>972.6</ele>
        <time>2021-06-30T15:47:23.999+02:00</time>
      </trkpt>
      <trkpt lat="43.56571" lon="2.79997">
        <ele>972.6</ele>
        <time>2021-06-30T15:47:24.999+02:00</time>
      </trkpt>
      <trkpt lat="43.56571" lon="2.79997">
        <ele>972.6</ele>
        <time>2021-06-30T15:47:25.999+02:00</time>
      </trkpt>
      <trkpt lat="43.5657" lon="2.79996">
        <ele>972.6</ele>
        <time>2021-06-30T15:47:26.999+02:00</time>
      </trkpt>
      <trkpt lat="43.5657" lon="2.79995">
        <ele>972.6</ele>
        <time>2021-06-30T15:47:27.999+02:00</time>
      </trkpt>
      <trkpt lat="43.56569" lon="2.79995">
        <ele>972.6</ele>
        <time>2021-06-30T15:47:28.999+02:00</time>
      </trkpt>
      <trkpt lat="43.56569" lon="2.79994">
        <ele>972.6</ele>
        <time>2021-06-30T15:47:29.999+02:00</time>
      </trkpt>
      <trkpt lat="43.56568" lon="2.79993">
        <ele>972.6</ele>
        <time>2021-06-30T15:47:30.999+02:00</time>
      </trkpt>
      <trkpt lat="43.56567" lon="2.79992">
        <ele>972.5</ele>
        <time>2021-06-30T15:47:31.999+02:00</time>
      </trkpt>
      <trkpt lat="43.56566" lon="2.7999">
        <ele>972.6</ele>
        <time>2021-06-30T15:47:32.999+02:00</time>
      </trkpt>
      <trkpt lat="43.56564" lon="2.79989">
        <ele>972.4</ele>
        <time>2021-06-30T15:47:33.999+02:00</time>
      </trkpt>
      <trkpt lat="43.56564" lon="2.79989">
        <ele>972.5</ele>
        <time>2021-06-30T15:47:34.999+02:00</time>
      </trkpt>
      <trkpt lat="43.56563" lon="2.79988">
        <ele>972.4</ele>
        <time>2021-06-30T15:47:35.999+02:00</time>
      </trkpt>
      <trkpt lat="43.56563" lon="2.79988">
        <ele>972.4</ele>
        <time>2021-06-30T15:47:36.999+02:00</time>
      </trkpt>
      <trkpt lat="43.56563" lon="2.79988">
        <ele>972.4</ele>
        <time>2021-06-30T15:47:37.999+02:00</time>
      </trkpt>
      <trkpt lat="43.56562" lon="2.79988">
        <ele>972.4</ele>
        <time>2021-06-30T15:47:38.999+02:00</time>
      </trkpt>
      <trkpt lat="43.5656" lon="2.79987">
        <ele>972.2</ele>
        <time>2021-06-30T15:47:39.999+02:00</time>
      </trkpt>
      <trkpt lat="43.56558" lon="2.79985">
        <ele>972.2</ele>
        <time>2021-06-30T15:47:40.999+02:00</time>
      </trkpt>
      <trkpt lat="43.56557" lon="2.79984">
        <ele>972.2</ele>
        <time>2021-06-30T15:47:41.999+02:00</time>
      </trkpt>
      <trkpt lat="43.56558" lon="2.79984">
        <ele>972.2</ele>
        <time>2021-06-30T15:47:42.999+02:00</time>
      </trkpt>
      <trkpt lat="43.56558" lon="2.79983">
        <ele>972.3</ele>
        <time>2021-06-30T15:47:43.999+02:00</time>
      </trkpt>
      <trkpt lat="43.56556" lon="2.79981">
        <ele>972.3</ele>
        <time>2021-06-30T15:47:44.999+02:00</time>
      </trkpt>
      <trkpt lat="43.56557" lon="2.79981">
        <ele>972.4</ele>
        <time>2021-06-30T15:47:45.999+02:00</time>
      </trkpt>
      <trkpt lat="43.56555" lon="2.7998">
        <ele>972.4</ele>
        <time>2021-06-30T15:47:46.999+02:00</time>
      </trkpt>
      <trkpt lat="43.56555" lon="2.7998">
        <ele>972.3</ele>
        <time>2021-06-30T15:47:47.999+02:00</time>
      </trkpt>
      <trkpt lat="43.56555" lon="2.7998">
        <ele>972.2</ele>
        <time>2021-06-30T15:47:48.999+02:00</time>
      </trkpt>
      <trkpt lat="43.56554" lon="2.79979">
        <ele>972.2</ele>
        <time>2021-06-30T15:47:49.999+02:00</time>
      </trkpt>
      <trkpt lat="43.56553" lon="2.79978">
        <ele>972.2</ele>
        <time>2021-06-30T15:47:50.999+02:00</time>
      </trkpt>
      <trkpt lat="43.56552" lon="2.79978">
        <ele>972.1</ele>
        <time>2021-06-30T15:47:51.999+02:00</time>
      </trkpt>
      <trkpt lat="43.56551" lon="2.79978">
        <ele>972</ele>
        <time>2021-06-30T15:47:52.999+02:00</time>
      </trkpt>
      <trkpt lat="43.5655" lon="2.79978">
        <ele>972</ele>
        <time>2021-06-30T15:47:53.999+02:00</time>
      </trkpt>
      <trkpt lat="43.56549" lon="2.79977">
        <ele>971.9</ele>
        <time>2021-06-30T15:47:54.999+02:00</time>
      </trkpt>
      <trkpt lat="43.56547" lon="2.79977">
        <ele>971.8</ele>
        <time>2021-06-30T15:47:55.999+02:00</time>
      </trkpt>
      <trkpt lat="43.56547" lon="2.79977">
        <ele>971.7</ele>
        <time>2021-06-30T15:47:56.999+02:00</time>
      </trkpt>
      <trkpt lat="43.56546" lon="2.79976">
        <ele>971.6</ele>
        <time>2021-06-30T15:47:57.999+02:00</time>
      </trkpt>
      <trkpt lat="43.56545" lon="2.79977">
        <ele>971.5</ele>
        <time>2021-06-30T15:47:58.999+02:00</time>
      </trkpt>
      <trkpt lat="43.56544" lon="2.79976">
        <ele>971.4</ele>
        <time>2021-06-30T15:47:59.999+02:00</time>
      </trkpt>
      <trkpt lat="43.56543" lon="2.79976">
        <ele>971.4</ele>
        <time>2021-06-30T15:48:00.999+02:00</time>
      </trkpt>
      <trkpt lat="43.56542" lon="2.79975">
        <ele>971.4</ele>
        <time>2021-06-30T15:48:01.999+02:00</time>
      </trkpt>
      <trkpt lat="43.56542" lon="2.79975">
        <ele>971.4</ele>
        <time>2021-06-30T15:48:02.999+02:00</time>
      </trkpt>
      <trkpt lat="43.5654" lon="2.79973">
        <ele>971.4</ele>
        <time>2021-06-30T15:48:03.999+02:00</time>
      </trkpt>
      <trkpt lat="43.56538" lon="2.79972">
        <ele>971.4</ele>
        <time>2021-06-30T15:48:04.999+02:00</time>
      </trkpt>
      <trkpt lat="43.56537" lon="2.79971">
        <ele>971.4</ele>
        <time>2021-06-30T15:48:05.999+02:00</time>
      </trkpt>
      <trkpt lat="43.56536" lon="2.7997">
        <ele>971.4</ele>
        <time>2021-06-30T15:48:06.999+02:00</time>
      </trkpt>
      <trkpt lat="43.56535" lon="2.79969">
        <ele>971.4</ele>
        <time>2021-06-30T15:48:07.999+02:00</time>
      </trkpt>
      <trkpt lat="43.56534" lon="2.79969">
        <ele>971.3</ele>
        <time>2021-06-30T15:48:08.999+02:00</time>
      </trkpt>
      <trkpt lat="43.56534" lon="2.79969">
        <ele>971.2</ele>
        <time>2021-06-30T15:48:09.999+02:00</time>
      </trkpt>
      <trkpt lat="43.56533" lon="2.79969">
        <ele>971.1</ele>
        <time>2021-06-30T15:48:10.999+02:00</time>
      </trkpt>
      <trkpt lat="43.56532" lon="2.79969">
        <ele>971.1</ele>
        <time>2021-06-30T15:48:11.999+02:00</time>
      </trkpt>
      <trkpt lat="43.56531" lon="2.79969">
        <ele>971</ele>
        <time>2021-06-30T15:48:12.999+02:00</time>
      </trkpt>
      <trkpt lat="43.5653" lon="2.79969">
        <ele>970.9</ele>
        <time>2021-06-30T15:48:13.999+02:00</time>
      </trkpt>
      <trkpt lat="43.56529" lon="2.79969">
        <ele>970.8</ele>
        <time>2021-06-30T15:48:14.999+02:00</time>
      </trkpt>
      <trkpt lat="43.56529" lon="2.79969">
        <ele>970.7</ele>
        <time>2021-06-30T15:48:15.999+02:00</time>
      </trkpt>
      <trkpt lat="43.56528" lon="2.7997">
        <ele>970.6</ele>
        <time>2021-06-30T15:48:16.999+02:00</time>
      </trkpt>
      <trkpt lat="43.56528" lon="2.7997">
        <ele>970.5</ele>
        <time>2021-06-30T15:48:17.999+02:00</time>
      </trkpt>
      <trkpt lat="43.56527" lon="2.79971">
        <ele>970.4</ele>
        <time>2021-06-30T15:48:18.999+02:00</time>
      </trkpt>
      <trkpt lat="43.56527" lon="2.7997">
        <ele>970.4</ele>
        <time>2021-06-30T15:48:19.999+02:00</time>
      </trkpt>
      <trkpt lat="43.56527" lon="2.7997">
        <ele>970.5</ele>
        <time>2021-06-30T15:48:20.999+02:00</time>
      </trkpt>
      <trkpt lat="43.56527" lon="2.7997">
        <ele>970.5</ele>
        <time>2021-06-30T15:48:21.999+02:00</time>
      </trkpt>
      <trkpt lat="43.56527" lon="2.79969">
        <ele>970.5</ele>
        <time>2021-06-30T15:48:22.999+02:00</time>
      </trkpt>
      <trkpt lat="43.56526" lon="2.7997">
        <ele>970.4</ele>
        <time>2021-06-30T15:48:23.999+02:00</time>
      </trkpt>
      <trkpt lat="43.56526" lon="2.79969">
        <ele>970.4</ele>
        <time>2021-06-30T15:48:24.999+02:00</time>
      </trkpt>
      <trkpt lat="43.56525" lon="2.79969">
        <ele>970.3</ele>
        <time>2021-06-30T15:48:25.999+02:00</time>
      </trkpt>
      <trkpt lat="43.56525" lon="2.79969">
        <ele>970.3</ele>
        <time>2021-06-30T15:48:26.999+02:00</time>
      </trkpt>
      <trkpt lat="43.56524" lon="2.79969">
        <ele>970.3</ele>
        <time>2021-06-30T15:48:27.999+02:00</time>
      </trkpt>
      <trkpt lat="43.56523" lon="2.79968">
        <ele>970.3</ele>
        <time>2021-06-30T15:48:28.999+02:00</time>
      </trkpt>
      <trkpt lat="43.56522" lon="2.79968">
        <ele>970.2</ele>
        <time>2021-06-30T15:48:29.999+02:00</time>
      </trkpt>
      <trkpt lat="43.56521" lon="2.79968">
        <ele>970</ele>
        <time>2021-06-30T15:48:30.999+02:00</time>
      </trkpt>
      <trkpt lat="43.5652" lon="2.79968">
        <ele>970</ele>
        <time>2021-06-30T15:48:31.999+02:00</time>
      </trkpt>
      <trkpt lat="43.56519" lon="2.79967">
        <ele>970</ele>
        <time>2021-06-30T15:48:32.999+02:00</time>
      </trkpt>
      <trkpt lat="43.56518" lon="2.79966">
        <ele>970.1</ele>
        <time>2021-06-30T15:48:33.999+02:00</time>
      </trkpt>
      <trkpt lat="43.56517" lon="2.79966">
        <ele>969.9</ele>
        <time>2021-06-30T15:48:34.999+02:00</time>
      </trkpt>
      <trkpt lat="43.56516" lon="2.79966">
        <ele>969.9</ele>
        <time>2021-06-30T15:48:35.999+02:00</time>
      </trkpt>
      <trkpt lat="43.56516" lon="2.79966">
        <ele>969.9</ele>
        <time>2021-06-30T15:48:36.999+02:00</time>
      </trkpt>
      <trkpt lat="43.56515" lon="2.79965">
        <ele>969.9</ele>
        <time>2021-06-30T15:48:37.999+02:00</time>
      </trkpt>
      <trkpt lat="43.56514" lon="2.79965">
        <ele>969.9</ele>
        <time>2021-06-30T15:48:38.999+02:00</time>
      </trkpt>
      <trkpt lat="43.56513" lon="2.79964">
        <ele>969.9</ele>
        <time>2021-06-30T15:48:39.999+02:00</time>
      </trkpt>
      <trkpt lat="43.56512" lon="2.79963">
        <ele>970</ele>
        <time>2021-06-30T15:48:40.999+02:00</time>
      </trkpt>
      <trkpt lat="43.5651" lon="2.79961">
        <ele>970.1</ele>
        <time>2021-06-30T15:48:41.999+02:00</time>
      </trkpt>
      <trkpt lat="43.56507" lon="2.79959">
        <ele>970</ele>
        <time>2021-06-30T15:48:42.999+02:00</time>
      </trkpt>
      <trkpt lat="43.56506" lon="2.79959">
        <ele>970</ele>
        <time>2021-06-30T15:48:43.999+02:00</time>
      </trkpt>
      <trkpt lat="43.56503" lon="2.79957">
        <ele>969.9</ele>
        <time>2021-06-30T15:48:44.999+02:00</time>
      </trkpt>
      <trkpt lat="43.56503" lon="2.79957">
        <ele>970</ele>
        <time>2021-06-30T15:48:45.999+02:00</time>
      </trkpt>
      <trkpt lat="43.56502" lon="2.79956">
        <ele>970.1</ele>
        <time>2021-06-30T15:48:46.999+02:00</time>
      </trkpt>
      <trkpt lat="43.56501" lon="2.79955">
        <ele>970.1</ele>
        <time>2021-06-30T15:48:47.999+02:00</time>
      </trkpt>
      <trkpt lat="43.565" lon="2.79955">
        <ele>970</ele>
        <time>2021-06-30T15:48:48.999+02:00</time>
      </trkpt>
      <trkpt lat="43.565" lon="2.79955">
        <ele>970.1</ele>
        <time>2021-06-30T15:48:49.999+02:00</time>
      </trkpt>
      <trkpt lat="43.565" lon="2.79954">
        <ele>970.2</ele>
        <time>2021-06-30T15:48:50.999+02:00</time>
      </trkpt>
      <trkpt lat="43.56499" lon="2.79953">
        <ele>970.3</ele>
        <time>2021-06-30T15:48:51.999+02:00</time>
      </trkpt>
      <trkpt lat="43.56498" lon="2.79952">
        <ele>970.3</ele>
        <time>2021-06-30T15:48:52.999+02:00</time>
      </trkpt>
      <trkpt lat="43.56498" lon="2.79952">
        <ele>970.4</ele>
        <time>2021-06-30T15:48:53.999+02:00</time>
      </trkpt>
      <trkpt lat="43.56498" lon="2.79951">
        <ele>970.4</ele>
        <time>2021-06-30T15:48:54.999+02:00</time>
      </trkpt>
      <trkpt lat="43.56497" lon="2.7995">
        <ele>970.4</ele>
        <time>2021-06-30T15:48:55.999+02:00</time>
      </trkpt>
      <trkpt lat="43.56496" lon="2.7995">
        <ele>970.5</ele>
        <time>2021-06-30T15:48:56.999+02:00</time>
      </trkpt>
      <trkpt lat="43.56495" lon="2.7995">
        <ele>970.4</ele>
        <time>2021-06-30T15:48:57.999+02:00</time>
      </trkpt>
      <trkpt lat="43.56494" lon="2.79949">
        <ele>970.4</ele>
        <time>2021-06-30T15:48:58.999+02:00</time>
      </trkpt>
      <trkpt lat="43.56493" lon="2.79947">
        <ele>970.5</ele>
        <time>2021-06-30T15:48:59.999+02:00</time>
      </trkpt>
      <trkpt lat="43.56491" lon="2.79946">
        <ele>970.5</ele>
        <time>2021-06-30T15:49:00.999+02:00</time>
      </trkpt>
      <trkpt lat="43.5649" lon="2.79945">
        <ele>970.6</ele>
        <time>2021-06-30T15:49:01.999+02:00</time>
      </trkpt>
      <trkpt lat="43.5649" lon="2.79944">
        <ele>970.7</ele>
        <time>2021-06-30T15:49:02.999+02:00</time>
      </trkpt>
      <trkpt lat="43.5649" lon="2.79943">
        <ele>970.8</ele>
        <time>2021-06-30T15:49:03.999+02:00</time>
      </trkpt>
      <trkpt lat="43.56488" lon="2.79941">
        <ele>970.8</ele>
        <time>2021-06-30T15:49:04.999+02:00</time>
      </trkpt>
      <trkpt lat="43.56487" lon="2.79941">
        <ele>970.8</ele>
        <time>2021-06-30T15:49:05.999+02:00</time>
      </trkpt>
      <trkpt lat="43.56486" lon="2.79941">
        <ele>970.7</ele>
        <time>2021-06-30T15:49:06.999+02:00</time>
      </trkpt>
      <trkpt lat="43.56486" lon="2.7994">
        <ele>970.8</ele>
        <time>2021-06-30T15:49:07.999+02:00</time>
      </trkpt>
      <trkpt lat="43.56485" lon="2.7994">
        <ele>970.7</ele>
        <time>2021-06-30T15:49:08.999+02:00</time>
      </trkpt>
      <trkpt lat="43.56485" lon="2.79939">
        <ele>970.7</ele>
        <time>2021-06-30T15:49:09.999+02:00</time>
      </trkpt>
      <trkpt lat="43.56484" lon="2.79939">
        <ele>970.7</ele>
        <time>2021-06-30T15:49:10.999+02:00</time>
      </trkpt>
      <trkpt lat="43.56483" lon="2.79938">
        <ele>970.7</ele>
        <time>2021-06-30T15:49:11.999+02:00</time>
      </trkpt>
      <trkpt lat="43.56482" lon="2.79938">
        <ele>970.6</ele>
        <time>2021-06-30T15:49:12.999+02:00</time>
      </trkpt>
      <trkpt lat="43.5648" lon="2.79937">
        <ele>970.5</ele>
        <time>2021-06-30T15:49:13.999+02:00</time>
      </trkpt>
      <trkpt lat="43.56479" lon="2.79937">
        <ele>970.4</ele>
        <time>2021-06-30T15:49:14.999+02:00</time>
      </trkpt>
      <trkpt lat="43.56479" lon="2.79936">
        <ele>970.5</ele>
        <time>2021-06-30T15:49:15.999+02:00</time>
      </trkpt>
      <trkpt lat="43.56478" lon="2.79935">
        <ele>970.4</ele>
        <time>2021-06-30T15:49:16.999+02:00</time>
      </trkpt>
      <trkpt lat="43.56478" lon="2.79936">
        <ele>970.4</ele>
        <time>2021-06-30T15:49:17.999+02:00</time>
      </trkpt>
      <trkpt lat="43.56478" lon="2.79936">
        <ele>970.4</ele>
        <time>2021-06-30T15:49:18.999+02:00</time>
      </trkpt>
      <trkpt lat="43.56477" lon="2.79935">
        <ele>970.4</ele>
        <time>2021-06-30T15:49:19.999+02:00</time>
      </trkpt>
      <trkpt lat="43.56476" lon="2.79935">
        <ele>970.3</ele>
        <time>2021-06-30T15:49:20.999+02:00</time>
      </trkpt>
      <trkpt lat="43.56476" lon="2.79935">
        <ele>970.3</ele>
        <time>2021-06-30T15:49:21.999+02:00</time>
      </trkpt>
      <trkpt lat="43.56476" lon="2.79935">
        <ele>970.3</ele>
        <time>2021-06-30T15:49:22.999+02:00</time>
      </trkpt>
      <trkpt lat="43.56476" lon="2.79935">
        <ele>970.3</ele>
        <time>2021-06-30T15:49:23.999+02:00</time>
      </trkpt>
      <trkpt lat="43.56476" lon="2.79935">
        <ele>970.2</ele>
        <time>2021-06-30T15:49:24.999+02:00</time>
      </trkpt>
      <trkpt lat="43.56476" lon="2.79936">
        <ele>970.2</ele>
        <time>2021-06-30T15:49:25.999+02:00</time>
      </trkpt>
      <trkpt lat="43.56477" lon="2.79936">
        <ele>970.2</ele>
        <time>2021-06-30T15:49:26.999+02:00</time>
      </trkpt>
      <trkpt lat="43.56477" lon="2.79936">
        <ele>970.2</ele>
        <time>2021-06-30T15:49:27.999+02:00</time>
      </trkpt>
      <trkpt lat="43.56476" lon="2.79936">
        <ele>970.2</ele>
        <time>2021-06-30T15:49:28.999+02:00</time>
      </trkpt>
      <trkpt lat="43.56476" lon="2.79936">
        <ele>970.2</ele>
        <time>2021-06-30T15:49:29.999+02:00</time>
      </trkpt>
      <trkpt lat="43.56476" lon="2.79937">
        <ele>970</ele>
        <time>2021-06-30T15:49:30.999+02:00</time>
      </trkpt>
      <trkpt lat="43.56475" lon="2.79937">
        <ele>969.8</ele>
        <time>2021-06-30T15:49:31.999+02:00</time>
      </trkpt>
      <trkpt lat="43.56474" lon="2.79938">
        <ele>969.6</ele>
        <time>2021-06-30T15:49:32.999+02:00</time>
      </trkpt>
      <trkpt lat="43.56474" lon="2.79939">
        <ele>969.5</ele>
        <time>2021-06-30T15:49:33.999+02:00</time>
      </trkpt>
      <trkpt lat="43.56473" lon="2.79939">
        <ele>969.4</ele>
        <time>2021-06-30T15:49:34.999+02:00</time>
      </trkpt>
      <trkpt lat="43.56473" lon="2.7994">
        <ele>969.4</ele>
        <time>2021-06-30T15:49:35.999+02:00</time>
      </trkpt>
      <trkpt lat="43.56473" lon="2.79941">
        <ele>969.2</ele>
        <time>2021-06-30T15:49:36.999+02:00</time>
      </trkpt>
      <trkpt lat="43.56473" lon="2.79943">
        <ele>969</ele>
        <time>2021-06-30T15:49:37.999+02:00</time>
      </trkpt>
      <trkpt lat="43.56473" lon="2.79945">
        <ele>968.8</ele>
        <time>2021-06-30T15:49:38.999+02:00</time>
      </trkpt>
      <trkpt lat="43.56473" lon="2.79946">
        <ele>968.7</ele>
        <time>2021-06-30T15:49:39.999+02:00</time>
      </trkpt>
      <trkpt lat="43.56472" lon="2.79947">
        <ele>968.5</ele>
        <time>2021-06-30T15:49:40.999+02:00</time>
      </trkpt>
      <trkpt lat="43.56472" lon="2.79948">
        <ele>968.3</ele>
        <time>2021-06-30T15:49:41.999+02:00</time>
      </trkpt>
      <trkpt lat="43.56472" lon="2.79949">
        <ele>968.2</ele>
        <time>2021-06-30T15:49:42.999+02:00</time>
      </trkpt>
      <trkpt lat="43.56471" lon="2.7995">
        <ele>968.1</ele>
        <time>2021-06-30T15:49:43.999+02:00</time>
      </trkpt>
      <trkpt lat="43.56471" lon="2.7995">
        <ele>968.1</ele>
        <time>2021-06-30T15:49:44.999+02:00</time>
      </trkpt>
      <trkpt lat="43.56471" lon="2.79951">
        <ele>968</ele>
        <time>2021-06-30T15:49:45.999+02:00</time>
      </trkpt>
      <trkpt lat="43.56471" lon="2.79952">
        <ele>967.9</ele>
        <time>2021-06-30T15:49:46.999+02:00</time>
      </trkpt>
      <trkpt lat="43.56471" lon="2.79952">
        <ele>967.9</ele>
        <time>2021-06-30T15:49:47.999+02:00</time>
      </trkpt>
      <trkpt lat="43.56471" lon="2.79952">
        <ele>967.8</ele>
        <time>2021-06-30T15:49:48.999+02:00</time>
      </trkpt>
      <trkpt lat="43.56471" lon="2.79953">
        <ele>967.8</ele>
        <time>2021-06-30T15:49:49.999+02:00</time>
      </trkpt>
      <trkpt lat="43.56471" lon="2.79953">
        <ele>967.8</ele>
        <time>2021-06-30T15:49:50.999+02:00</time>
      </trkpt>
      <trkpt lat="43.56471" lon="2.79953">
        <ele>967.7</ele>
        <time>2021-06-30T15:49:51.999+02:00</time>
      </trkpt>
      <trkpt lat="43.56471" lon="2.79954">
        <ele>967.6</ele>
        <time>2021-06-30T15:49:52.999+02:00</time>
      </trkpt>
      <trkpt lat="43.5647" lon="2.79956">
        <ele>967.4</ele>
        <time>2021-06-30T15:49:53.999+02:00</time>
      </trkpt>
      <trkpt lat="43.5647" lon="2.79957">
        <ele>967.2</ele>
        <time>2021-06-30T15:49:54.999+02:00</time>
      </trkpt>
      <trkpt lat="43.56469" lon="2.7996">
        <ele>966.9</ele>
        <time>2021-06-30T15:49:55.999+02:00</time>
      </trkpt>
      <trkpt lat="43.56469" lon="2.79962">
        <ele>966.8</ele>
        <time>2021-06-30T15:49:56.999+02:00</time>
      </trkpt>
      <trkpt lat="43.56468" lon="2.79964">
        <ele>966.5</ele>
        <time>2021-06-30T15:49:57.999+02:00</time>
      </trkpt>
      <trkpt lat="43.56468" lon="2.79965">
        <ele>966.3</ele>
        <time>2021-06-30T15:49:58.999+02:00</time>
      </trkpt>
      <trkpt lat="43.56468" lon="2.79967">
        <ele>966.2</ele>
        <time>2021-06-30T15:49:59.999+02:00</time>
      </trkpt>
      <trkpt lat="43.56467" lon="2.79968">
        <ele>966</ele>
        <time>2021-06-30T15:50:00.999+02:00</time>
      </trkpt>
      <trkpt lat="43.56467" lon="2.79969">
        <ele>965.9</ele>
        <time>2021-06-30T15:50:01.999+02:00</time>
      </trkpt>
      <trkpt lat="43.56467" lon="2.7997">
        <ele>965.8</ele>
        <time>2021-06-30T15:50:02.999+02:00</time>
      </trkpt>
      <trkpt lat="43.56466" lon="2.79972">
        <ele>965.6</ele>
        <time>2021-06-30T15:50:03.999+02:00</time>
      </trkpt>
      <trkpt lat="43.56466" lon="2.79973">
        <ele>965.5</ele>
        <time>2021-06-30T15:50:04.999+02:00</time>
      </trkpt>
      <trkpt lat="43.56466" lon="2.79974">
        <ele>965.4</ele>
        <time>2021-06-30T15:50:05.999+02:00</time>
      </trkpt>
      <trkpt lat="43.56465" lon="2.79976">
        <ele>965.2</ele>
        <time>2021-06-30T15:50:06.999+02:00</time>
      </trkpt>
      <trkpt lat="43.56465" lon="2.79977">
        <ele>965.1</ele>
        <time>2021-06-30T15:50:07.999+02:00</time>
      </trkpt>
      <trkpt lat="43.56465" lon="2.79979">
        <ele>964.9</ele>
        <time>2021-06-30T15:50:08.999+02:00</time>
      </trkpt>
      <trkpt lat="43.56464" lon="2.7998">
        <ele>964.7</ele>
        <time>2021-06-30T15:50:09.999+02:00</time>
      </trkpt>
      <trkpt lat="43.56464" lon="2.79982">
        <ele>964.6</ele>
        <time>2021-06-30T15:50:10.999+02:00</time>
      </trkpt>
      <trkpt lat="43.56463" lon="2.79983">
        <ele>964.5</ele>
        <time>2021-06-30T15:50:11.999+02:00</time>
      </trkpt>
      <trkpt lat="43.56463" lon="2.79984">
        <ele>964.4</ele>
        <time>2021-06-30T15:50:12.999+02:00</time>
      </trkpt>
      <trkpt lat="43.56463" lon="2.79985">
        <ele>964.3</ele>
        <time>2021-06-30T15:50:13.999+02:00</time>
      </trkpt>
      <trkpt lat="43.56464" lon="2.79985">
        <ele>964.3</ele>
        <time>2021-06-30T15:50:14.999+02:00</time>
      </trkpt>
      <trkpt lat="43.56463" lon="2.79985">
        <ele>964.3</ele>
        <time>2021-06-30T15:50:15.999+02:00</time>
      </trkpt>
      <trkpt lat="43.56463" lon="2.79985">
        <ele>964.3</ele>
        <time>2021-06-30T15:50:16.999+02:00</time>
      </trkpt>
      <trkpt lat="43.56463" lon="2.79985">
        <ele>964.3</ele>
        <time>2021-06-30T15:50:17.999+02:00</time>
      </trkpt>
      <trkpt lat="43.56463" lon="2.79985">
        <ele>964.3</ele>
        <time>2021-06-30T15:50:18.999+02:00</time>
      </trkpt>
      <trkpt lat="43.56463" lon="2.79985">
        <ele>964.3</ele>
        <time>2021-06-30T15:50:19.999+02:00</time>
      </trkpt>
      <trkpt lat="43.56463" lon="2.79985">
        <ele>964.3</ele>
        <time>2021-06-30T15:50:20.999+02:00</time>
      </trkpt>
      <trkpt lat="43.56464" lon="2.79985">
        <ele>964.3</ele>
        <time>2021-06-30T15:50:21.999+02:00</time>
      </trkpt>
      <trkpt lat="43.56464" lon="2.79985">
        <ele>964.3</ele>
        <time>2021-06-30T15:50:22.999+02:00</time>
      </trkpt>
      <trkpt lat="43.56464" lon="2.79985">
        <ele>964.3</ele>
        <time>2021-06-30T15:50:23.999+02:00</time>
      </trkpt>
      <trkpt lat="43.56464" lon="2.79985">
        <ele>964.3</ele>
        <time>2021-06-30T15:50:24.999+02:00</time>
      </trkpt>
      <trkpt lat="43.56464" lon="2.79985">
        <ele>964.3</ele>
        <time>2021-06-30T15:50:25.999+02:00</time>
      </trkpt>
      <trkpt lat="43.56464" lon="2.79985">
        <ele>964.3</ele>
        <time>2021-06-30T15:50:26.999+02:00</time>
      </trkpt>
      <trkpt lat="43.56464" lon="2.79985">
        <ele>964.3</ele>
        <time>2021-06-30T15:50:27.999+02:00</time>
      </trkpt>
      <trkpt lat="43.56464" lon="2.79985">
        <ele>964.3</ele>
        <time>2021-06-30T15:50:28.999+02:00</time>
      </trkpt>
      <trkpt lat="43.56464" lon="2.79985">
        <ele>964.3</ele>
        <time>2021-06-30T15:50:29.999+02:00</time>
      </trkpt>
      <trkpt lat="43.56464" lon="2.79985">
        <ele>964.3</ele>
        <time>2021-06-30T15:50:30.999+02:00</time>
      </trkpt>
      <trkpt lat="43.56464" lon="2.79985">
        <ele>964.3</ele>
        <time>2021-06-30T15:50:31.999+02:00</time>
      </trkpt>
      <trkpt lat="43.56464" lon="2.79986">
        <ele>964.3</ele>
        <time>2021-06-30T15:50:32.999+02:00</time>
      </trkpt>
      <trkpt lat="43.56464" lon="2.79986">
        <ele>964.2</ele>
        <time>2021-06-30T15:50:33.999+02:00</time>
      </trkpt>
      <trkpt lat="43.56465" lon="2.79986">
        <ele>964.2</ele>
        <time>2021-06-30T15:50:34.999+02:00</time>
      </trkpt>
      <trkpt lat="43.56465" lon="2.79986">
        <ele>964.3</ele>
        <time>2021-06-30T15:50:35.999+02:00</time>
      </trkpt>
      <trkpt lat="43.56466" lon="2.79986">
        <ele>964.3</ele>
        <time>2021-06-30T15:50:36.999+02:00</time>
      </trkpt>
      <trkpt lat="43.56466" lon="2.79985">
        <ele>964.3</ele>
        <time>2021-06-30T15:50:37.999+02:00</time>
      </trkpt>
      <trkpt lat="43.56467" lon="2.79985">
        <ele>964.4</ele>
        <time>2021-06-30T15:50:38.999+02:00</time>
      </trkpt>
      <trkpt lat="43.56468" lon="2.79984">
        <ele>964.5</ele>
        <time>2021-06-30T15:50:39.999+02:00</time>
      </trkpt>
      <trkpt lat="43.56468" lon="2.79984">
        <ele>964.5</ele>
        <time>2021-06-30T15:50:40.999+02:00</time>
      </trkpt>
      <trkpt lat="43.56469" lon="2.79984">
        <ele>964.6</ele>
        <time>2021-06-30T15:50:41.999+02:00</time>
      </trkpt>
      <trkpt lat="43.56469" lon="2.79984">
        <ele>964.6</ele>
        <time>2021-06-30T15:50:42.999+02:00</time>
      </trkpt>
      <trkpt lat="43.56469" lon="2.79984">
        <ele>964.6</ele>
        <time>2021-06-30T15:50:43.999+02:00</time>
      </trkpt>
      <trkpt lat="43.56469" lon="2.79983">
        <ele>964.6</ele>
        <time>2021-06-30T15:50:44.999+02:00</time>
      </trkpt>
      <trkpt lat="43.56469" lon="2.79981">
        <ele>964.8</ele>
        <time>2021-06-30T15:50:45.999+02:00</time>
      </trkpt>
      <trkpt lat="43.56469" lon="2.7998">
        <ele>965</ele>
        <time>2021-06-30T15:50:46.999+02:00</time>
      </trkpt>
      <trkpt lat="43.56469" lon="2.79978">
        <ele>965.1</ele>
        <time>2021-06-30T15:50:47.999+02:00</time>
      </trkpt>
      <trkpt lat="43.56469" lon="2.79977">
        <ele>965.3</ele>
        <time>2021-06-30T15:50:48.999+02:00</time>
      </trkpt>
      <trkpt lat="43.56469" lon="2.79975">
        <ele>965.5</ele>
        <time>2021-06-30T15:50:49.999+02:00</time>
      </trkpt>
      <trkpt lat="43.5647" lon="2.79973">
        <ele>965.7</ele>
        <time>2021-06-30T15:50:50.999+02:00</time>
      </trkpt>
      <trkpt lat="43.56469" lon="2.79971">
        <ele>965.8</ele>
        <time>2021-06-30T15:50:51.999+02:00</time>
      </trkpt>
      <trkpt lat="43.56469" lon="2.79969">
        <ele>966</ele>
        <time>2021-06-30T15:50:52.999+02:00</time>
      </trkpt>
      <trkpt lat="43.56469" lon="2.79967">
        <ele>966.2</ele>
        <time>2021-06-30T15:50:53.999+02:00</time>
      </trkpt>
      <trkpt lat="43.56469" lon="2.79966">
        <ele>966.4</ele>
        <time>2021-06-30T15:50:54.999+02:00</time>
      </trkpt>
      <trkpt lat="43.56469" lon="2.79964">
        <ele>966.5</ele>
        <time>2021-06-30T15:50:55.999+02:00</time>
      </trkpt>
      <trkpt lat="43.56469" lon="2.79963">
        <ele>966.6</ele>
        <time>2021-06-30T15:50:56.999+02:00</time>
      </trkpt>
      <trkpt lat="43.5647" lon="2.79962">
        <ele>966.7</ele>
        <time>2021-06-30T15:50:57.999+02:00</time>
      </trkpt>
      <trkpt lat="43.5647" lon="2.79961">
        <ele>966.8</ele>
        <time>2021-06-30T15:50:58.999+02:00</time>
      </trkpt>
      <trkpt lat="43.5647" lon="2.7996">
        <ele>967</ele>
        <time>2021-06-30T15:50:59.999+02:00</time>
      </trkpt>
      <trkpt lat="43.5647" lon="2.79959">
        <ele>967.1</ele>
        <time>2021-06-30T15:51:00.999+02:00</time>
      </trkpt>
      <trkpt lat="43.5647" lon="2.79959">
        <ele>967.1</ele>
        <time>2021-06-30T15:51:01.999+02:00</time>
      </trkpt>
      <trkpt lat="43.5647" lon="2.79958">
        <ele>967.2</ele>
        <time>2021-06-30T15:51:02.999+02:00</time>
      </trkpt>
      <trkpt lat="43.56469" lon="2.79957">
        <ele>967.3</ele>
        <time>2021-06-30T15:51:03.999+02:00</time>
      </trkpt>
      <trkpt lat="43.5647" lon="2.79956">
        <ele>967.4</ele>
        <time>2021-06-30T15:51:04.999+02:00</time>
      </trkpt>
      <trkpt lat="43.56469" lon="2.79954">
        <ele>967.5</ele>
        <time>2021-06-30T15:51:05.999+02:00</time>
      </trkpt>
      <trkpt lat="43.56469" lon="2.79953">
        <ele>967.6</ele>
        <time>2021-06-30T15:51:06.999+02:00</time>
      </trkpt>
      <trkpt lat="43.56469" lon="2.79952">
        <ele>967.8</ele>
        <time>2021-06-30T15:51:07.999+02:00</time>
      </trkpt>
      <trkpt lat="43.5647" lon="2.7995">
        <ele>967.9</ele>
        <time>2021-06-30T15:51:08.999+02:00</time>
      </trkpt>
      <trkpt lat="43.5647" lon="2.79948">
        <ele>968.2</ele>
        <time>2021-06-30T15:51:09.999+02:00</time>
      </trkpt>
      <trkpt lat="43.56471" lon="2.79947">
        <ele>968.4</ele>
        <time>2021-06-30T15:51:10.999+02:00</time>
      </trkpt>
      <trkpt lat="43.56472" lon="2.79946">
        <ele>968.6</ele>
        <time>2021-06-30T15:51:11.999+02:00</time>
      </trkpt>
      <trkpt lat="43.56472" lon="2.79945">
        <ele>968.7</ele>
        <time>2021-06-30T15:51:12.999+02:00</time>
      </trkpt>
      <trkpt lat="43.56473" lon="2.79944">
        <ele>968.9</ele>
        <time>2021-06-30T15:51:13.999+02:00</time>
      </trkpt>
      <trkpt lat="43.56474" lon="2.79943">
        <ele>969.1</ele>
        <time>2021-06-30T15:51:14.999+02:00</time>
      </trkpt>
      <trkpt lat="43.56475" lon="2.79942">
        <ele>969.3</ele>
        <time>2021-06-30T15:51:15.999+02:00</time>
      </trkpt>
      <trkpt lat="43.56475" lon="2.79941">
        <ele>969.4</ele>
        <time>2021-06-30T15:51:16.999+02:00</time>
      </trkpt>
      <trkpt lat="43.56475" lon="2.79941">
        <ele>969.4</ele>
        <time>2021-06-30T15:51:17.999+02:00</time>
      </trkpt>
      <trkpt lat="43.56475" lon="2.79941">
        <ele>969.4</ele>
        <time>2021-06-30T15:51:18.999+02:00</time>
      </trkpt>
      <trkpt lat="43.56475" lon="2.7994">
        <ele>969.5</ele>
        <time>2021-06-30T15:51:19.999+02:00</time>
      </trkpt>
      <trkpt lat="43.56476" lon="2.7994">
        <ele>969.6</ele>
        <time>2021-06-30T15:51:20.999+02:00</time>
      </trkpt>
      <trkpt lat="43.56476" lon="2.7994">
        <ele>969.6</ele>
        <time>2021-06-30T15:51:21.999+02:00</time>
      </trkpt>
      <trkpt lat="43.56476" lon="2.7994">
        <ele>969.6</ele>
        <time>2021-06-30T15:51:22.999+02:00</time>
      </trkpt>
      <trkpt lat="43.56476" lon="2.7994">
        <ele>969.6</ele>
        <time>2021-06-30T15:51:23.999+02:00</time>
      </trkpt>
      <trkpt lat="43.56476" lon="2.7994">
        <ele>969.6</ele>
        <time>2021-06-30T15:51:24.999+02:00</time>
      </trkpt>
      <trkpt lat="43.56476" lon="2.79941">
        <ele>969.6</ele>
        <time>2021-06-30T15:51:25.999+02:00</time>
      </trkpt>
      <trkpt lat="43.56476" lon="2.79941">
        <ele>969.6</ele>
        <time>2021-06-30T15:51:26.999+02:00</time>
      </trkpt>
      <trkpt lat="43.56476" lon="2.79941">
        <ele>969.6</ele>
        <time>2021-06-30T15:51:27.999+02:00</time>
      </trkpt>
      <trkpt lat="43.56476" lon="2.79941">
        <ele>969.6</ele>
        <time>2021-06-30T15:51:28.999+02:00</time>
      </trkpt>
      <trkpt lat="43.56476" lon="2.7994">
        <ele>969.6</ele>
        <time>2021-06-30T15:51:29.999+02:00</time>
      </trkpt>
      <trkpt lat="43.56476" lon="2.7994">
        <ele>969.7</ele>
        <time>2021-06-30T15:51:30.999+02:00</time>
      </trkpt>
      <trkpt lat="43.56477" lon="2.7994">
        <ele>969.7</ele>
        <time>2021-06-30T15:51:31.999+02:00</time>
      </trkpt>
      <trkpt lat="43.56478" lon="2.79939">
        <ele>969.9</ele>
        <time>2021-06-30T15:51:32.999+02:00</time>
      </trkpt>
      <trkpt lat="43.56478" lon="2.79939">
        <ele>969.9</ele>
        <time>2021-06-30T15:51:33.999+02:00</time>
      </trkpt>
      <trkpt lat="43.56477" lon="2.79939">
        <ele>969.8</ele>
        <time>2021-06-30T15:51:34.999+02:00</time>
      </trkpt>
      <trkpt lat="43.56477" lon="2.79939">
        <ele>969.9</ele>
        <time>2021-06-30T15:51:35.999+02:00</time>
      </trkpt>
      <trkpt lat="43.56477" lon="2.79939">
        <ele>969.9</ele>
        <time>2021-06-30T15:51:36.999+02:00</time>
      </trkpt>
      <trkpt lat="43.56477" lon="2.79939">
        <ele>969.9</ele>
        <time>2021-06-30T15:51:37.999+02:00</time>
      </trkpt>
      <trkpt lat="43.56477" lon="2.79939">
        <ele>969.9</ele>
        <time>2021-06-30T15:51:38.999+02:00</time>
      </trkpt>
      <trkpt lat="43.56477" lon="2.79939">
        <ele>969.9</ele>
        <time>2021-06-30T15:51:39.999+02:00</time>
      </trkpt>
      <trkpt lat="43.56477" lon="2.79939">
        <ele>969.9</ele>
        <time>2021-06-30T15:51:40.999+02:00</time>
      </trkpt>
      <trkpt lat="43.56477" lon="2.79939">
        <ele>969.9</ele>
        <time>2021-06-30T15:51:41.999+02:00</time>
      </trkpt>
      <trkpt lat="43.56477" lon="2.79939">
        <ele>969.9</ele>
        <time>2021-06-30T15:51:42.999+02:00</time>
      </trkpt>
      <trkpt lat="43.56477" lon="2.79937">
        <ele>970.1</ele>
        <time>2021-06-30T15:51:43.999+02:00</time>
      </trkpt>
      <trkpt lat="43.56477" lon="2.79937">
        <ele>970.1</ele>
        <time>2021-06-30T15:51:44.999+02:00</time>
      </trkpt>
      <trkpt lat="43.56476" lon="2.79937">
        <ele>970.1</ele>
        <time>2021-06-30T15:51:45.999+02:00</time>
      </trkpt>
      <trkpt lat="43.56476" lon="2.79936">
        <ele>970.1</ele>
        <time>2021-06-30T15:51:46.999+02:00</time>
      </trkpt>
      <trkpt lat="43.56476" lon="2.79937">
        <ele>970</ele>
        <time>2021-06-30T15:51:47.999+02:00</time>
      </trkpt>
      <trkpt lat="43.56475" lon="2.79936">
        <ele>970</ele>
        <time>2021-06-30T15:51:48.999+02:00</time>
      </trkpt>
      <trkpt lat="43.56475" lon="2.79935">
        <ele>970.1</ele>
        <time>2021-06-30T15:51:49.999+02:00</time>
      </trkpt>
      <trkpt lat="43.56475" lon="2.79934">
        <ele>970.1</ele>
        <time>2021-06-30T15:51:50.999+02:00</time>
      </trkpt>
      <trkpt lat="43.56474" lon="2.79934">
        <ele>970.1</ele>
        <time>2021-06-30T15:51:51.999+02:00</time>
      </trkpt>
      <trkpt lat="43.56474" lon="2.79933">
        <ele>970.2</ele>
        <time>2021-06-30T15:51:52.999+02:00</time>
      </trkpt>
      <trkpt lat="43.56474" lon="2.79932">
        <ele>970.3</ele>
        <time>2021-06-30T15:51:53.999+02:00</time>
      </trkpt>
      <trkpt lat="43.56472" lon="2.79928">
        <ele>970.4</ele>
        <time>2021-06-30T15:51:54.999+02:00</time>
      </trkpt>
      <trkpt lat="43.56471" lon="2.79925">
        <ele>970.6</ele>
        <time>2021-06-30T15:51:55.999+02:00</time>
      </trkpt>
      <trkpt lat="43.56469" lon="2.79923">
        <ele>970.6</ele>
        <time>2021-06-30T15:51:56.999+02:00</time>
      </trkpt>
      <trkpt lat="43.56469" lon="2.79921">
        <ele>970.7</ele>
        <time>2021-06-30T15:51:57.999+02:00</time>
      </trkpt>
      <trkpt lat="43.56468" lon="2.79919">
        <ele>970.8</ele>
        <time>2021-06-30T15:51:58.999+02:00</time>
      </trkpt>
      <trkpt lat="43.56467" lon="2.79916">
        <ele>971</ele>
        <time>2021-06-30T15:51:59.999+02:00</time>
      </trkpt>
      <trkpt lat="43.56467" lon="2.79915">
        <ele>971</ele>
        <time>2021-06-30T15:52:00.999+02:00</time>
      </trkpt>
      <trkpt lat="43.56467" lon="2.79914">
        <ele>971</ele>
        <time>2021-06-30T15:52:01.999+02:00</time>
      </trkpt>
      <trkpt lat="43.56466" lon="2.79914">
        <ele>970.9</ele>
        <time>2021-06-30T15:52:02.999+02:00</time>
      </trkpt>
      <trkpt lat="43.56465" lon="2.79911">
        <ele>970.9</ele>
        <time>2021-06-30T15:52:03.999+02:00</time>
      </trkpt>
      <trkpt lat="43.56465" lon="2.79911">
        <ele>970.8</ele>
        <time>2021-06-30T15:52:04.999+02:00</time>
      </trkpt>
      <trkpt lat="43.56464" lon="2.79909">
        <ele>970.9</ele>
        <time>2021-06-30T15:52:05.999+02:00</time>
      </trkpt>
      <trkpt lat="43.56464" lon="2.79908">
        <ele>970.9</ele>
        <time>2021-06-30T15:52:06.999+02:00</time>
      </trkpt>
      <trkpt lat="43.56464" lon="2.79907">
        <ele>970.9</ele>
        <time>2021-06-30T15:52:07.999+02:00</time>
      </trkpt>
      <trkpt lat="43.56464" lon="2.79906">
        <ele>971</ele>
        <time>2021-06-30T15:52:08.999+02:00</time>
      </trkpt>
      <trkpt lat="43.56464" lon="2.79905">
        <ele>971</ele>
        <time>2021-06-30T15:52:09.999+02:00</time>
      </trkpt>
      <trkpt lat="43.56463" lon="2.79904">
        <ele>970.9</ele>
        <time>2021-06-30T15:52:10.999+02:00</time>
      </trkpt>
      <trkpt lat="43.56463" lon="2.79903">
        <ele>970.8</ele>
        <time>2021-06-30T15:52:11.999+02:00</time>
      </trkpt>
      <trkpt lat="43.56462" lon="2.79903">
        <ele>970.9</ele>
        <time>2021-06-30T15:52:12.999+02:00</time>
      </trkpt>
      <trkpt lat="43.56462" lon="2.79902">
        <ele>970.8</ele>
        <time>2021-06-30T15:52:13.999+02:00</time>
      </trkpt>
      <trkpt lat="43.56461" lon="2.79901">
        <ele>970.8</ele>
        <time>2021-06-30T15:52:14.999+02:00</time>
      </trkpt>
      <trkpt lat="43.56461" lon="2.79899">
        <ele>970.8</ele>
        <time>2021-06-30T15:52:15.999+02:00</time>
      </trkpt>
      <trkpt lat="43.5646" lon="2.79898">
        <ele>970.7</ele>
        <time>2021-06-30T15:52:16.999+02:00</time>
      </trkpt>
      <trkpt lat="43.56459" lon="2.79897">
        <ele>970.7</ele>
        <time>2021-06-30T15:52:17.999+02:00</time>
      </trkpt>
      <trkpt lat="43.56458" lon="2.79895">
        <ele>970.7</ele>
        <time>2021-06-30T15:52:18.999+02:00</time>
      </trkpt>
      <trkpt lat="43.56457" lon="2.79894">
        <ele>970.6</ele>
        <time>2021-06-30T15:52:19.999+02:00</time>
      </trkpt>
      <trkpt lat="43.56457" lon="2.79893">
        <ele>970.6</ele>
        <time>2021-06-30T15:52:20.999+02:00</time>
      </trkpt>
      <trkpt lat="43.56456" lon="2.79892">
        <ele>970.5</ele>
        <time>2021-06-30T15:52:21.999+02:00</time>
      </trkpt>
      <trkpt lat="43.56456" lon="2.79891">
        <ele>970.5</ele>
        <time>2021-06-30T15:52:22.999+02:00</time>
      </trkpt>
      <trkpt lat="43.56455" lon="2.79891">
        <ele>970.5</ele>
        <time>2021-06-30T15:52:23.999+02:00</time>
      </trkpt>
      <trkpt lat="43.56455" lon="2.79889">
        <ele>970.5</ele>
        <time>2021-06-30T15:52:24.999+02:00</time>
      </trkpt>
      <trkpt lat="43.56455" lon="2.79889">
        <ele>970.5</ele>
        <time>2021-06-30T15:52:25.999+02:00</time>
      </trkpt>
      <trkpt lat="43.56455" lon="2.79887">
        <ele>970.6</ele>
        <time>2021-06-30T15:52:26.999+02:00</time>
      </trkpt>
      <trkpt lat="43.56455" lon="2.79886">
        <ele>970.7</ele>
        <time>2021-06-30T15:52:27.999+02:00</time>
      </trkpt>
      <trkpt lat="43.56455" lon="2.79885">
        <ele>970.7</ele>
        <time>2021-06-30T15:52:28.999+02:00</time>
      </trkpt>
      <trkpt lat="43.56454" lon="2.79884">
        <ele>970.7</ele>
        <time>2021-06-30T15:52:29.999+02:00</time>
      </trkpt>
      <trkpt lat="43.56454" lon="2.79882">
        <ele>970.7</ele>
        <time>2021-06-30T15:52:30.999+02:00</time>
      </trkpt>
      <trkpt lat="43.56454" lon="2.79878">
        <ele>970.9</ele>
        <time>2021-06-30T15:52:31.999+02:00</time>
      </trkpt>
      <trkpt lat="43.56453" lon="2.79873">
        <ele>971.2</ele>
        <time>2021-06-30T15:52:32.999+02:00</time>
      </trkpt>
      <trkpt lat="43.56453" lon="2.79872">
        <ele>971.2</ele>
        <time>2021-06-30T15:52:33.999+02:00</time>
      </trkpt>
      <trkpt lat="43.56454" lon="2.7987">
        <ele>971.4</ele>
        <time>2021-06-30T15:52:34.999+02:00</time>
      </trkpt>
      <trkpt lat="43.56454" lon="2.79869">
        <ele>971.5</ele>
        <time>2021-06-30T15:52:35.999+02:00</time>
      </trkpt>
      <trkpt lat="43.56455" lon="2.79868">
        <ele>971.6</ele>
        <time>2021-06-30T15:52:36.999+02:00</time>
      </trkpt>
      <trkpt lat="43.56455" lon="2.79867">
        <ele>971.8</ele>
        <time>2021-06-30T15:52:37.999+02:00</time>
      </trkpt>
      <trkpt lat="43.56455" lon="2.79867">
        <ele>971.8</ele>
        <time>2021-06-30T15:52:38.999+02:00</time>
      </trkpt>
      <trkpt lat="43.56456" lon="2.79865">
        <ele>971.9</ele>
        <time>2021-06-30T15:52:39.999+02:00</time>
      </trkpt>
      <trkpt lat="43.56455" lon="2.79864">
        <ele>971.9</ele>
        <time>2021-06-30T15:52:40.999+02:00</time>
      </trkpt>
      <trkpt lat="43.56455" lon="2.79864">
        <ele>971.9</ele>
        <time>2021-06-30T15:52:41.999+02:00</time>
      </trkpt>
      <trkpt lat="43.56455" lon="2.79864">
        <ele>971.9</ele>
        <time>2021-06-30T15:52:42.999+02:00</time>
      </trkpt>
      <trkpt lat="43.56455" lon="2.79864">
        <ele>971.9</ele>
        <time>2021-06-30T15:52:43.999+02:00</time>
      </trkpt>
      <trkpt lat="43.56455" lon="2.79864">
        <ele>971.9</ele>
        <time>2021-06-30T15:52:44.999+02:00</time>
      </trkpt>
      <trkpt lat="43.56455" lon="2.79864">
        <ele>971.9</ele>
        <time>2021-06-30T15:52:45.999+02:00</time>
      </trkpt>
      <trkpt lat="43.56454" lon="2.79863">
        <ele>971.8</ele>
        <time>2021-06-30T15:52:46.999+02:00</time>
      </trkpt>
      <trkpt lat="43.56454" lon="2.79863">
        <ele>971.8</ele>
        <time>2021-06-30T15:52:47.999+02:00</time>
      </trkpt>
      <trkpt lat="43.56453" lon="2.79862">
        <ele>971.8</ele>
        <time>2021-06-30T15:52:48.999+02:00</time>
      </trkpt>
      <trkpt lat="43.56453" lon="2.79861">
        <ele>971.8</ele>
        <time>2021-06-30T15:52:49.999+02:00</time>
      </trkpt>
      <trkpt lat="43.56453" lon="2.79862">
        <ele>971.7</ele>
        <time>2021-06-30T15:52:50.999+02:00</time>
      </trkpt>
      <trkpt lat="43.56453" lon="2.79862">
        <ele>971.7</ele>
        <time>2021-06-30T15:52:51.999+02:00</time>
      </trkpt>
      <trkpt lat="43.56453" lon="2.79862">
        <ele>971.7</ele>
        <time>2021-06-30T15:52:52.999+02:00</time>
      </trkpt>
      <trkpt lat="43.56453" lon="2.79862">
        <ele>971.7</ele>
        <time>2021-06-30T15:52:53.999+02:00</time>
      </trkpt>
      <trkpt lat="43.56453" lon="2.79864">
        <ele>971.7</ele>
        <time>2021-06-30T15:52:54.999+02:00</time>
      </trkpt>
      <trkpt lat="43.56452" lon="2.79866">
        <ele>971.4</ele>
        <time>2021-06-30T15:52:55.999+02:00</time>
      </trkpt>
      <trkpt lat="43.56451" lon="2.79868">
        <ele>971.2</ele>
        <time>2021-06-30T15:52:56.999+02:00</time>
      </trkpt>
      <trkpt lat="43.5645" lon="2.79869">
        <ele>971</ele>
        <time>2021-06-30T15:52:57.999+02:00</time>
      </trkpt>
      <trkpt lat="43.5645" lon="2.7987">
        <ele>970.9</ele>
        <time>2021-06-30T15:52:58.999+02:00</time>
      </trkpt>
      <trkpt lat="43.5645" lon="2.7987">
        <ele>970.9</ele>
        <time>2021-06-30T15:52:59.999+02:00</time>
      </trkpt>
      <trkpt lat="43.5645" lon="2.7987">
        <ele>970.9</ele>
        <time>2021-06-30T15:53:00.999+02:00</time>
      </trkpt>
      <trkpt lat="43.5645" lon="2.79871">
        <ele>970.9</ele>
        <time>2021-06-30T15:53:01.999+02:00</time>
      </trkpt>
      <trkpt lat="43.5645" lon="2.79871">
        <ele>970.9</ele>
        <time>2021-06-30T15:53:02.999+02:00</time>
      </trkpt>
      <trkpt lat="43.5645" lon="2.79872">
        <ele>970.8</ele>
        <time>2021-06-30T15:53:03.999+02:00</time>
      </trkpt>
      <trkpt lat="43.5645" lon="2.79872">
        <ele>970.8</ele>
        <time>2021-06-30T15:53:04.999+02:00</time>
      </trkpt>
      <trkpt lat="43.5645" lon="2.79873">
        <ele>970.7</ele>
        <time>2021-06-30T15:53:05.999+02:00</time>
      </trkpt>
      <trkpt lat="43.5645" lon="2.79873">
        <ele>970.7</ele>
        <time>2021-06-30T15:53:06.999+02:00</time>
      </trkpt>
      <trkpt lat="43.56448" lon="2.79874">
        <ele>970.4</ele>
        <time>2021-06-30T15:53:07.999+02:00</time>
      </trkpt>
      <trkpt lat="43.56448" lon="2.79873">
        <ele>970.5</ele>
        <time>2021-06-30T15:53:08.999+02:00</time>
      </trkpt>
      <trkpt lat="43.56447" lon="2.79874">
        <ele>970.3</ele>
        <time>2021-06-30T15:53:09.999+02:00</time>
      </trkpt>
      <trkpt lat="43.56447" lon="2.79874">
        <ele>970.3</ele>
        <time>2021-06-30T15:53:10.999+02:00</time>
      </trkpt>
      <trkpt lat="43.56446" lon="2.79875">
        <ele>970.1</ele>
        <time>2021-06-30T15:53:11.999+02:00</time>
      </trkpt>
      <trkpt lat="43.56446" lon="2.79875">
        <ele>970.1</ele>
        <time>2021-06-30T15:53:12.999+02:00</time>
      </trkpt>
      <trkpt lat="43.56446" lon="2.79875">
        <ele>970.1</ele>
        <time>2021-06-30T15:53:13.999+02:00</time>
      </trkpt>
      <trkpt lat="43.56446" lon="2.79873">
        <ele>970.1</ele>
        <time>2021-06-30T15:53:14.999+02:00</time>
      </trkpt>
      <trkpt lat="43.56446" lon="2.79875">
        <ele>970.1</ele>
        <time>2021-06-30T15:53:15.999+02:00</time>
      </trkpt>
      <trkpt lat="43.56447" lon="2.79877">
        <ele>970.1</ele>
        <time>2021-06-30T15:53:16.999+02:00</time>
      </trkpt>
      <trkpt lat="43.56449" lon="2.79879">
        <ele>970.3</ele>
        <time>2021-06-30T15:53:17.999+02:00</time>
      </trkpt>
      <trkpt lat="43.5645" lon="2.79881">
        <ele>970.3</ele>
        <time>2021-06-30T15:53:18.999+02:00</time>
      </trkpt>
      <trkpt lat="43.56451" lon="2.79882">
        <ele>970.3</ele>
        <time>2021-06-30T15:53:19.999+02:00</time>
      </trkpt>
      <trkpt lat="43.56452" lon="2.79882">
        <ele>970.5</ele>
        <time>2021-06-30T15:53:20.999+02:00</time>
      </trkpt>
      <trkpt lat="43.56452" lon="2.79883">
        <ele>970.4</ele>
        <time>2021-06-30T15:53:21.999+02:00</time>
      </trkpt>
      <trkpt lat="43.56449" lon="2.79882">
        <ele>970.1</ele>
        <time>2021-06-30T15:53:22.999+02:00</time>
      </trkpt>
      <trkpt lat="43.56451" lon="2.79882">
        <ele>970.3</ele>
        <time>2021-06-30T15:53:23.999+02:00</time>
      </trkpt>
      <trkpt lat="43.56453" lon="2.79882">
        <ele>970.6</ele>
        <time>2021-06-30T15:53:24.999+02:00</time>
      </trkpt>
      <trkpt lat="43.56453" lon="2.79881">
        <ele>970.7</ele>
        <time>2021-06-30T15:53:25.999+02:00</time>
      </trkpt>
      <trkpt lat="43.56452" lon="2.79878">
        <ele>970.8</ele>
        <time>2021-06-30T15:53:26.999+02:00</time>
      </trkpt>
      <trkpt lat="43.56454" lon="2.79876">
        <ele>971.1</ele>
        <time>2021-06-30T15:53:27.999+02:00</time>
      </trkpt>
      <trkpt lat="43.56454" lon="2.79873">
        <ele>971.3</ele>
        <time>2021-06-30T15:53:28.999+02:00</time>
      </trkpt>
      <trkpt lat="43.56454" lon="2.79872">
        <ele>971.3</ele>
        <time>2021-06-30T15:53:29.999+02:00</time>
      </trkpt>
      <trkpt lat="43.56453" lon="2.79873">
        <ele>971.2</ele>
        <time>2021-06-30T15:53:30.999+02:00</time>
      </trkpt>
      <trkpt lat="43.56452" lon="2.79872">
        <ele>971.1</ele>
        <time>2021-06-30T15:53:31.999+02:00</time>
      </trkpt>
      <trkpt lat="43.56454" lon="2.79871">
        <ele>971.3</ele>
        <time>2021-06-30T15:53:32.999+02:00</time>
      </trkpt>
      <trkpt lat="43.56452" lon="2.79869">
        <ele>971.2</ele>
        <time>2021-06-30T15:53:33.999+02:00</time>
      </trkpt>
      <trkpt lat="43.56453" lon="2.79869">
        <ele>971.3</ele>
        <time>2021-06-30T15:53:34.999+02:00</time>
      </trkpt>
      <trkpt lat="43.56453" lon="2.79869">
        <ele>971.3</ele>
        <time>2021-06-30T15:53:35.999+02:00</time>
      </trkpt>
      <trkpt lat="43.56453" lon="2.79869">
        <ele>971.4</ele>
        <time>2021-06-30T15:53:36.999+02:00</time>
      </trkpt>
      <trkpt lat="43.56454" lon="2.79867">
        <ele>971.6</ele>
        <time>2021-06-30T15:53:37.999+02:00</time>
      </trkpt>
      <trkpt lat="43.56454" lon="2.79867">
        <ele>971.6</ele>
        <time>2021-06-30T15:53:38.999+02:00</time>
      </trkpt>
      <trkpt lat="43.56454" lon="2.79864">
        <ele>971.8</ele>
        <time>2021-06-30T15:53:39.999+02:00</time>
      </trkpt>
      <trkpt lat="43.56454" lon="2.79863">
        <ele>971.8</ele>
        <time>2021-06-30T15:53:40.999+02:00</time>
      </trkpt>
      <trkpt lat="43.56453" lon="2.79863">
        <ele>971.6</ele>
        <time>2021-06-30T15:53:41.999+02:00</time>
      </trkpt>
      <trkpt lat="43.56451" lon="2.79864">
        <ele>971.4</ele>
        <time>2021-06-30T15:53:42.999+02:00</time>
      </trkpt>
      <trkpt lat="43.56451" lon="2.79863">
        <ele>971.5</ele>
        <time>2021-06-30T15:53:43.999+02:00</time>
      </trkpt>
      <trkpt lat="43.56452" lon="2.79862">
        <ele>971.7</ele>
        <time>2021-06-30T15:53:44.999+02:00</time>
      </trkpt>
      <trkpt lat="43.56452" lon="2.7986">
        <ele>971.7</ele>
        <time>2021-06-30T15:53:45.999+02:00</time>
      </trkpt>
      <trkpt lat="43.56451" lon="2.79859">
        <ele>971.6</ele>
        <time>2021-06-30T15:53:46.999+02:00</time>
      </trkpt>
      <trkpt lat="43.5645" lon="2.79858">
        <ele>971.6</ele>
        <time>2021-06-30T15:53:47.999+02:00</time>
      </trkpt>
      <trkpt lat="43.56449" lon="2.79858">
        <ele>971.4</ele>
        <time>2021-06-30T15:53:48.999+02:00</time>
      </trkpt>
      <trkpt lat="43.56449" lon="2.79858">
        <ele>971.5</ele>
        <time>2021-06-30T15:53:49.999+02:00</time>
      </trkpt>
      <trkpt lat="43.56447" lon="2.79855">
        <ele>971.4</ele>
        <time>2021-06-30T15:53:50.999+02:00</time>
      </trkpt>
      <trkpt lat="43.56448" lon="2.79855">
        <ele>971.5</ele>
        <time>2021-06-30T15:53:51.999+02:00</time>
      </trkpt>
      <trkpt lat="43.56447" lon="2.79855">
        <ele>971.3</ele>
        <time>2021-06-30T15:53:52.999+02:00</time>
      </trkpt>
      <trkpt lat="43.56447" lon="2.79853">
        <ele>971.5</ele>
        <time>2021-06-30T15:53:53.999+02:00</time>
      </trkpt>
      <trkpt lat="43.56445" lon="2.7985">
        <ele>971.4</ele>
        <time>2021-06-30T15:53:54.999+02:00</time>
      </trkpt>
      <trkpt lat="43.56445" lon="2.79849">
        <ele>971.4</ele>
        <time>2021-06-30T15:53:55.999+02:00</time>
      </trkpt>
      <trkpt lat="43.56446" lon="2.7985">
        <ele>971.5</ele>
        <time>2021-06-30T15:53:56.999+02:00</time>
      </trkpt>
      <trkpt lat="43.56445" lon="2.79847">
        <ele>971.6</ele>
        <time>2021-06-30T15:53:57.999+02:00</time>
      </trkpt>
      <trkpt lat="43.56444" lon="2.79845">
        <ele>971.6</ele>
        <time>2021-06-30T15:53:58.999+02:00</time>
      </trkpt>
      <trkpt lat="43.56443" lon="2.79843">
        <ele>971.6</ele>
        <time>2021-06-30T15:53:59.999+02:00</time>
      </trkpt>
      <trkpt lat="43.56443" lon="2.79842">
        <ele>971.6</ele>
        <time>2021-06-30T15:54:00.999+02:00</time>
      </trkpt>
      <trkpt lat="43.56444" lon="2.79841">
        <ele>971.8</ele>
        <time>2021-06-30T15:54:01.999+02:00</time>
      </trkpt>
      <trkpt lat="43.56444" lon="2.7984">
        <ele>971.9</ele>
        <time>2021-06-30T15:54:02.999+02:00</time>
      </trkpt>
      <trkpt lat="43.56444" lon="2.79839">
        <ele>971.9</ele>
        <time>2021-06-30T15:54:03.999+02:00</time>
      </trkpt>
      <trkpt lat="43.56444" lon="2.79836">
        <ele>972</ele>
        <time>2021-06-30T15:54:04.999+02:00</time>
      </trkpt>
      <trkpt lat="43.56443" lon="2.79835">
        <ele>972.1</ele>
        <time>2021-06-30T15:54:05.999+02:00</time>
      </trkpt>
      <trkpt lat="43.56443" lon="2.79834">
        <ele>972.1</ele>
        <time>2021-06-30T15:54:06.999+02:00</time>
      </trkpt>
      <trkpt lat="43.56442" lon="2.79832">
        <ele>972</ele>
        <time>2021-06-30T15:54:07.999+02:00</time>
      </trkpt>
      <trkpt lat="43.56441" lon="2.79831">
        <ele>972</ele>
        <time>2021-06-30T15:54:08.999+02:00</time>
      </trkpt>
      <trkpt lat="43.56441" lon="2.7983">
        <ele>971.9</ele>
        <time>2021-06-30T15:54:09.999+02:00</time>
      </trkpt>
      <trkpt lat="43.5644" lon="2.79829">
        <ele>971.9</ele>
        <time>2021-06-30T15:54:10.999+02:00</time>
      </trkpt>
      <trkpt lat="43.56439" lon="2.79828">
        <ele>971.7</ele>
        <time>2021-06-30T15:54:11.999+02:00</time>
      </trkpt>
      <trkpt lat="43.56438" lon="2.79828">
        <ele>971.6</ele>
        <time>2021-06-30T15:54:12.999+02:00</time>
      </trkpt>
      <trkpt lat="43.56437" lon="2.79827">
        <ele>971.5</ele>
        <time>2021-06-30T15:54:13.999+02:00</time>
      </trkpt>
      <trkpt lat="43.56436" lon="2.79826">
        <ele>971.4</ele>
        <time>2021-06-30T15:54:14.999+02:00</time>
      </trkpt>
      <trkpt lat="43.56435" lon="2.79825">
        <ele>971.4</ele>
        <time>2021-06-30T15:54:15.999+02:00</time>
      </trkpt>
      <trkpt lat="43.56434" lon="2.79824">
        <ele>971.3</ele>
        <time>2021-06-30T15:54:16.999+02:00</time>
      </trkpt>
      <trkpt lat="43.56433" lon="2.79823">
        <ele>971.1</ele>
        <time>2021-06-30T15:54:17.999+02:00</time>
      </trkpt>
      <trkpt lat="43.56433" lon="2.79823">
        <ele>971.1</ele>
        <time>2021-06-30T15:54:18.999+02:00</time>
      </trkpt>
      <trkpt lat="43.56432" lon="2.79822">
        <ele>971</ele>
        <time>2021-06-30T15:54:19.999+02:00</time>
      </trkpt>
      <trkpt lat="43.56431" lon="2.79821">
        <ele>970.9</ele>
        <time>2021-06-30T15:54:20.999+02:00</time>
      </trkpt>
      <trkpt lat="43.5643" lon="2.7982">
        <ele>970.8</ele>
        <time>2021-06-30T15:54:21.999+02:00</time>
      </trkpt>
      <trkpt lat="43.56429" lon="2.79819">
        <ele>970.7</ele>
        <time>2021-06-30T15:54:22.999+02:00</time>
      </trkpt>
      <trkpt lat="43.56427" lon="2.79818">
        <ele>970.6</ele>
        <time>2021-06-30T15:54:23.999+02:00</time>
      </trkpt>
      <trkpt lat="43.56427" lon="2.79817">
        <ele>970.5</ele>
        <time>2021-06-30T15:54:24.999+02:00</time>
      </trkpt>
      <trkpt lat="43.56426" lon="2.79816">
        <ele>970.4</ele>
        <time>2021-06-30T15:54:25.999+02:00</time>
      </trkpt>
      <trkpt lat="43.56425" lon="2.79815">
        <ele>970.3</ele>
        <time>2021-06-30T15:54:26.999+02:00</time>
      </trkpt>
      <trkpt lat="43.56424" lon="2.79815">
        <ele>970.2</ele>
        <time>2021-06-30T15:54:27.999+02:00</time>
      </trkpt>
      <trkpt lat="43.56422" lon="2.79814">
        <ele>970.1</ele>
        <time>2021-06-30T15:54:28.999+02:00</time>
      </trkpt>
      <trkpt lat="43.56421" lon="2.79813">
        <ele>969.9</ele>
        <time>2021-06-30T15:54:29.999+02:00</time>
      </trkpt>
      <trkpt lat="43.5642" lon="2.79813">
        <ele>969.9</ele>
        <time>2021-06-30T15:54:30.999+02:00</time>
      </trkpt>
      <trkpt lat="43.56419" lon="2.79812">
        <ele>969.7</ele>
        <time>2021-06-30T15:54:31.999+02:00</time>
      </trkpt>
      <trkpt lat="43.56418" lon="2.79812">
        <ele>969.6</ele>
        <time>2021-06-30T15:54:32.999+02:00</time>
      </trkpt>
      <trkpt lat="43.56417" lon="2.79812">
        <ele>969.5</ele>
        <time>2021-06-30T15:54:33.999+02:00</time>
      </trkpt>
      <trkpt lat="43.56416" lon="2.79811">
        <ele>969.5</ele>
        <time>2021-06-30T15:54:34.999+02:00</time>
      </trkpt>
      <trkpt lat="43.56414" lon="2.79811">
        <ele>969.4</ele>
        <time>2021-06-30T15:54:35.999+02:00</time>
      </trkpt>
      <trkpt lat="43.56412" lon="2.79811">
        <ele>969.3</ele>
        <time>2021-06-30T15:54:36.999+02:00</time>
      </trkpt>
      <trkpt lat="43.5641" lon="2.79809">
        <ele>969.2</ele>
        <time>2021-06-30T15:54:37.999+02:00</time>
      </trkpt>
      <trkpt lat="43.56409" lon="2.79808">
        <ele>969.1</ele>
        <time>2021-06-30T15:54:38.999+02:00</time>
      </trkpt>
      <trkpt lat="43.56408" lon="2.79807">
        <ele>969</ele>
        <time>2021-06-30T15:54:39.999+02:00</time>
      </trkpt>
      <trkpt lat="43.56407" lon="2.79806">
        <ele>969</ele>
        <time>2021-06-30T15:54:40.999+02:00</time>
      </trkpt>
      <trkpt lat="43.56405" lon="2.79806">
        <ele>968.9</ele>
        <time>2021-06-30T15:54:41.999+02:00</time>
      </trkpt>
      <trkpt lat="43.56404" lon="2.79805">
        <ele>968.9</ele>
        <time>2021-06-30T15:54:42.999+02:00</time>
      </trkpt>
      <trkpt lat="43.56402" lon="2.79804">
        <ele>968.8</ele>
        <time>2021-06-30T15:54:43.999+02:00</time>
      </trkpt>
      <trkpt lat="43.56401" lon="2.79803">
        <ele>968.8</ele>
        <time>2021-06-30T15:54:44.999+02:00</time>
      </trkpt>
      <trkpt lat="43.564" lon="2.79803">
        <ele>968.7</ele>
        <time>2021-06-30T15:54:45.999+02:00</time>
      </trkpt>
      <trkpt lat="43.56399" lon="2.79802">
        <ele>968.7</ele>
        <time>2021-06-30T15:54:46.999+02:00</time>
      </trkpt>
      <trkpt lat="43.56399" lon="2.79802">
        <ele>968.7</ele>
        <time>2021-06-30T15:54:47.999+02:00</time>
      </trkpt>
      <trkpt lat="43.56399" lon="2.79802">
        <ele>968.6</ele>
        <time>2021-06-30T15:54:48.999+02:00</time>
      </trkpt>
      <trkpt lat="43.56398" lon="2.79802">
        <ele>968.6</ele>
        <time>2021-06-30T15:54:49.999+02:00</time>
      </trkpt>
      <trkpt lat="43.56397" lon="2.79802">
        <ele>968.5</ele>
        <time>2021-06-30T15:54:50.999+02:00</time>
      </trkpt>
      <trkpt lat="43.56396" lon="2.79802">
        <ele>968.5</ele>
        <time>2021-06-30T15:54:51.999+02:00</time>
      </trkpt>
      <trkpt lat="43.56396" lon="2.79802">
        <ele>968.5</ele>
        <time>2021-06-30T15:54:52.999+02:00</time>
      </trkpt>
      <trkpt lat="43.56395" lon="2.79801">
        <ele>968.4</ele>
        <time>2021-06-30T15:54:53.999+02:00</time>
      </trkpt>
      <trkpt lat="43.56394" lon="2.798">
        <ele>968.4</ele>
        <time>2021-06-30T15:54:54.999+02:00</time>
      </trkpt>
      <trkpt lat="43.56393" lon="2.79799">
        <ele>968.4</ele>
        <time>2021-06-30T15:54:55.999+02:00</time>
      </trkpt>
      <trkpt lat="43.56393" lon="2.79798">
        <ele>968.4</ele>
        <time>2021-06-30T15:54:56.999+02:00</time>
      </trkpt>
      <trkpt lat="43.56392" lon="2.79797">
        <ele>968.3</ele>
        <time>2021-06-30T15:54:57.999+02:00</time>
      </trkpt>
      <trkpt lat="43.56391" lon="2.79795">
        <ele>968.4</ele>
        <time>2021-06-30T15:54:58.999+02:00</time>
      </trkpt>
      <trkpt lat="43.56391" lon="2.79793">
        <ele>968.4</ele>
        <time>2021-06-30T15:54:59.999+02:00</time>
      </trkpt>
      <trkpt lat="43.5639" lon="2.79791">
        <ele>968.4</ele>
        <time>2021-06-30T15:55:00.999+02:00</time>
      </trkpt>
      <trkpt lat="43.56389" lon="2.79789">
        <ele>968.4</ele>
        <time>2021-06-30T15:55:01.999+02:00</time>
      </trkpt>
      <trkpt lat="43.56388" lon="2.79788">
        <ele>968.4</ele>
        <time>2021-06-30T15:55:02.999+02:00</time>
      </trkpt>
      <trkpt lat="43.56387" lon="2.79788">
        <ele>968.4</ele>
        <time>2021-06-30T15:55:03.999+02:00</time>
      </trkpt>
      <trkpt lat="43.56386" lon="2.79787">
        <ele>968.3</ele>
        <time>2021-06-30T15:55:04.999+02:00</time>
      </trkpt>
      <trkpt lat="43.56386" lon="2.79786">
        <ele>968.3</ele>
        <time>2021-06-30T15:55:05.999+02:00</time>
      </trkpt>
      <trkpt lat="43.56385" lon="2.79785">
        <ele>968.3</ele>
        <time>2021-06-30T15:55:06.999+02:00</time>
      </trkpt>
      <trkpt lat="43.56384" lon="2.79784">
        <ele>968.3</ele>
        <time>2021-06-30T15:55:07.999+02:00</time>
      </trkpt>
      <trkpt lat="43.56383" lon="2.79782">
        <ele>968.3</ele>
        <time>2021-06-30T15:55:08.999+02:00</time>
      </trkpt>
      <trkpt lat="43.56382" lon="2.7978">
        <ele>968.3</ele>
        <time>2021-06-30T15:55:09.999+02:00</time>
      </trkpt>
      <trkpt lat="43.56381" lon="2.79778">
        <ele>968.4</ele>
        <time>2021-06-30T15:55:10.999+02:00</time>
      </trkpt>
      <trkpt lat="43.5638" lon="2.79776">
        <ele>968.4</ele>
        <time>2021-06-30T15:55:11.999+02:00</time>
      </trkpt>
      <trkpt lat="43.56379" lon="2.79774">
        <ele>968.4</ele>
        <time>2021-06-30T15:55:12.999+02:00</time>
      </trkpt>
      <trkpt lat="43.56378" lon="2.79773">
        <ele>968.4</ele>
        <time>2021-06-30T15:55:13.999+02:00</time>
      </trkpt>
      <trkpt lat="43.56377" lon="2.79771">
        <ele>968.4</ele>
        <time>2021-06-30T15:55:14.999+02:00</time>
      </trkpt>
      <trkpt lat="43.56377" lon="2.7977">
        <ele>968.4</ele>
        <time>2021-06-30T15:55:15.999+02:00</time>
      </trkpt>
      <trkpt lat="43.56376" lon="2.79769">
        <ele>968.4</ele>
        <time>2021-06-30T15:55:16.999+02:00</time>
      </trkpt>
      <trkpt lat="43.56375" lon="2.79769">
        <ele>968.4</ele>
        <time>2021-06-30T15:55:17.999+02:00</time>
      </trkpt>
      <trkpt lat="43.56375" lon="2.79767">
        <ele>968.4</ele>
        <time>2021-06-30T15:55:18.999+02:00</time>
      </trkpt>
      <trkpt lat="43.56374" lon="2.79765">
        <ele>968.4</ele>
        <time>2021-06-30T15:55:19.999+02:00</time>
      </trkpt>
      <trkpt lat="43.56373" lon="2.79764">
        <ele>968.4</ele>
        <time>2021-06-30T15:55:20.999+02:00</time>
      </trkpt>
      <trkpt lat="43.56373" lon="2.79762">
        <ele>968.4</ele>
        <time>2021-06-30T15:55:21.999+02:00</time>
      </trkpt>
      <trkpt lat="43.56372" lon="2.79761">
        <ele>968.4</ele>
        <time>2021-06-30T15:55:22.999+02:00</time>
      </trkpt>
      <trkpt lat="43.56371" lon="2.7976">
        <ele>968.4</ele>
        <time>2021-06-30T15:55:23.999+02:00</time>
      </trkpt>
      <trkpt lat="43.5637" lon="2.79759">
        <ele>968.4</ele>
        <time>2021-06-30T15:55:24.999+02:00</time>
      </trkpt>
      <trkpt lat="43.5637" lon="2.79758">
        <ele>968.4</ele>
        <time>2021-06-30T15:55:25.999+02:00</time>
      </trkpt>
      <trkpt lat="43.56369" lon="2.79757">
        <ele>968.4</ele>
        <time>2021-06-30T15:55:26.999+02:00</time>
      </trkpt>
      <trkpt lat="43.56368" lon="2.79757">
        <ele>968.4</ele>
        <time>2021-06-30T15:55:27.999+02:00</time>
      </trkpt>
      <trkpt lat="43.56368" lon="2.79756">
        <ele>968.4</ele>
        <time>2021-06-30T15:55:28.999+02:00</time>
      </trkpt>
      <trkpt lat="43.56367" lon="2.79755">
        <ele>968.4</ele>
        <time>2021-06-30T15:55:29.999+02:00</time>
      </trkpt>
      <trkpt lat="43.56367" lon="2.79755">
        <ele>968.4</ele>
        <time>2021-06-30T15:55:30.999+02:00</time>
      </trkpt>
      <trkpt lat="43.56367" lon="2.79755">
        <ele>968.4</ele>
        <time>2021-06-30T15:55:31.999+02:00</time>
      </trkpt>
      <trkpt lat="43.56367" lon="2.79754">
        <ele>968.4</ele>
        <time>2021-06-30T15:55:32.999+02:00</time>
      </trkpt>
      <trkpt lat="43.56367" lon="2.79753">
        <ele>968.5</ele>
        <time>2021-06-30T15:55:33.999+02:00</time>
      </trkpt>
      <trkpt lat="43.56366" lon="2.79751">
        <ele>968.5</ele>
        <time>2021-06-30T15:55:34.999+02:00</time>
      </trkpt>
      <trkpt lat="43.56366" lon="2.79751">
        <ele>968.5</ele>
        <time>2021-06-30T15:55:35.999+02:00</time>
      </trkpt>
      <trkpt lat="43.56366" lon="2.7975">
        <ele>968.6</ele>
        <time>2021-06-30T15:55:36.999+02:00</time>
      </trkpt>
      <trkpt lat="43.56365" lon="2.79748">
        <ele>968.6</ele>
        <time>2021-06-30T15:55:37.999+02:00</time>
      </trkpt>
      <trkpt lat="43.56364" lon="2.79746">
        <ele>968.6</ele>
        <time>2021-06-30T15:55:38.999+02:00</time>
      </trkpt>
      <trkpt lat="43.56364" lon="2.79744">
        <ele>968.6</ele>
        <time>2021-06-30T15:55:39.999+02:00</time>
      </trkpt>
      <trkpt lat="43.56363" lon="2.79743">
        <ele>968.6</ele>
        <time>2021-06-30T15:55:40.999+02:00</time>
      </trkpt>
      <trkpt lat="43.56363" lon="2.79742">
        <ele>968.6</ele>
        <time>2021-06-30T15:55:41.999+02:00</time>
      </trkpt>
      <trkpt lat="43.56362" lon="2.7974">
        <ele>968.6</ele>
        <time>2021-06-30T15:55:42.999+02:00</time>
      </trkpt>
      <trkpt lat="43.56362" lon="2.79737">
        <ele>968.7</ele>
        <time>2021-06-30T15:55:43.999+02:00</time>
      </trkpt>
      <trkpt lat="43.56361" lon="2.79735">
        <ele>968.7</ele>
        <time>2021-06-30T15:55:44.999+02:00</time>
      </trkpt>
      <trkpt lat="43.5636" lon="2.79733">
        <ele>968.7</ele>
        <time>2021-06-30T15:55:45.999+02:00</time>
      </trkpt>
      <trkpt lat="43.56359" lon="2.79732">
        <ele>968.7</ele>
        <time>2021-06-30T15:55:46.999+02:00</time>
      </trkpt>
      <trkpt lat="43.56358" lon="2.7973">
        <ele>968.7</ele>
        <time>2021-06-30T15:55:47.999+02:00</time>
      </trkpt>
      <trkpt lat="43.56358" lon="2.79729">
        <ele>968.7</ele>
        <time>2021-06-30T15:55:48.999+02:00</time>
      </trkpt>
      <trkpt lat="43.56357" lon="2.79728">
        <ele>968.7</ele>
        <time>2021-06-30T15:55:49.999+02:00</time>
      </trkpt>
      <trkpt lat="43.56356" lon="2.79727">
        <ele>968.7</ele>
        <time>2021-06-30T15:55:50.999+02:00</time>
      </trkpt>
      <trkpt lat="43.56356" lon="2.79726">
        <ele>968.6</ele>
        <time>2021-06-30T15:55:51.999+02:00</time>
      </trkpt>
      <trkpt lat="43.56355" lon="2.79726">
        <ele>968.6</ele>
        <time>2021-06-30T15:55:52.999+02:00</time>
      </trkpt>
      <trkpt lat="43.56354" lon="2.79726">
        <ele>968.6</ele>
        <time>2021-06-30T15:55:53.999+02:00</time>
      </trkpt>
      <trkpt lat="43.56353" lon="2.79725">
        <ele>968.6</ele>
        <time>2021-06-30T15:55:54.999+02:00</time>
      </trkpt>
      <trkpt lat="43.56352" lon="2.79724">
        <ele>968.5</ele>
        <time>2021-06-30T15:55:55.999+02:00</time>
      </trkpt>
      <trkpt lat="43.56351" lon="2.79722">
        <ele>968.5</ele>
        <time>2021-06-30T15:55:56.999+02:00</time>
      </trkpt>
      <trkpt lat="43.5635" lon="2.79722">
        <ele>968.5</ele>
        <time>2021-06-30T15:55:57.999+02:00</time>
      </trkpt>
      <trkpt lat="43.56349" lon="2.79721">
        <ele>968.4</ele>
        <time>2021-06-30T15:55:58.999+02:00</time>
      </trkpt>
      <trkpt lat="43.56348" lon="2.7972">
        <ele>968.4</ele>
        <time>2021-06-30T15:55:59.999+02:00</time>
      </trkpt>
      <trkpt lat="43.56348" lon="2.7972">
        <ele>968.4</ele>
        <time>2021-06-30T15:56:00.999+02:00</time>
      </trkpt>
      <trkpt lat="43.56347" lon="2.79719">
        <ele>968.4</ele>
        <time>2021-06-30T15:56:01.999+02:00</time>
      </trkpt>
      <trkpt lat="43.56347" lon="2.79718">
        <ele>968.4</ele>
        <time>2021-06-30T15:56:02.999+02:00</time>
      </trkpt>
      <trkpt lat="43.56347" lon="2.79716">
        <ele>968.5</ele>
        <time>2021-06-30T15:56:03.999+02:00</time>
      </trkpt>
      <trkpt lat="43.56346" lon="2.79714">
        <ele>968.5</ele>
        <time>2021-06-30T15:56:04.999+02:00</time>
      </trkpt>
      <trkpt lat="43.56346" lon="2.79713">
        <ele>968.5</ele>
        <time>2021-06-30T15:56:05.999+02:00</time>
      </trkpt>
      <trkpt lat="43.56346" lon="2.79712">
        <ele>968.5</ele>
        <time>2021-06-30T15:56:06.999+02:00</time>
      </trkpt>
      <trkpt lat="43.56346" lon="2.79712">
        <ele>968.5</ele>
        <time>2021-06-30T15:56:07.999+02:00</time>
      </trkpt>
      <trkpt lat="43.56345" lon="2.79711">
        <ele>968.5</ele>
        <time>2021-06-30T15:56:08.999+02:00</time>
      </trkpt>
      <trkpt lat="43.56344" lon="2.7971">
        <ele>968.5</ele>
        <time>2021-06-30T15:56:09.999+02:00</time>
      </trkpt>
      <trkpt lat="43.56344" lon="2.7971">
        <ele>968.5</ele>
        <time>2021-06-30T15:56:10.999+02:00</time>
      </trkpt>
      <trkpt lat="43.56344" lon="2.79709">
        <ele>968.5</ele>
        <time>2021-06-30T15:56:11.999+02:00</time>
      </trkpt>
      <trkpt lat="43.56344" lon="2.79708">
        <ele>968.5</ele>
        <time>2021-06-30T15:56:12.999+02:00</time>
      </trkpt>
      <trkpt lat="43.56343" lon="2.79706">
        <ele>968.5</ele>
        <time>2021-06-30T15:56:13.999+02:00</time>
      </trkpt>
      <trkpt lat="43.56343" lon="2.79705">
        <ele>968.5</ele>
        <time>2021-06-30T15:56:14.999+02:00</time>
      </trkpt>
      <trkpt lat="43.56342" lon="2.79704">
        <ele>968.5</ele>
        <time>2021-06-30T15:56:15.999+02:00</time>
      </trkpt>
      <trkpt lat="43.56342" lon="2.79703">
        <ele>968.6</ele>
        <time>2021-06-30T15:56:16.999+02:00</time>
      </trkpt>
      <trkpt lat="43.56342" lon="2.79702">
        <ele>968.6</ele>
        <time>2021-06-30T15:56:17.999+02:00</time>
      </trkpt>
      <trkpt lat="43.56341" lon="2.797">
        <ele>968.6</ele>
        <time>2021-06-30T15:56:18.999+02:00</time>
      </trkpt>
      <trkpt lat="43.56341" lon="2.79699">
        <ele>968.6</ele>
        <time>2021-06-30T15:56:19.999+02:00</time>
      </trkpt>
      <trkpt lat="43.5634" lon="2.79698">
        <ele>968.6</ele>
        <time>2021-06-30T15:56:20.999+02:00</time>
      </trkpt>
      <trkpt lat="43.5634" lon="2.79695">
        <ele>968.6</ele>
        <time>2021-06-30T15:56:21.999+02:00</time>
      </trkpt>
      <trkpt lat="43.56338" lon="2.79692">
        <ele>968.6</ele>
        <time>2021-06-30T15:56:22.999+02:00</time>
      </trkpt>
      <trkpt lat="43.56338" lon="2.79691">
        <ele>968.6</ele>
        <time>2021-06-30T15:56:23.999+02:00</time>
      </trkpt>
      <trkpt lat="43.56338" lon="2.7969">
        <ele>968.6</ele>
        <time>2021-06-30T15:56:24.999+02:00</time>
      </trkpt>
      <trkpt lat="43.56337" lon="2.79689">
        <ele>968.6</ele>
        <time>2021-06-30T15:56:25.999+02:00</time>
      </trkpt>
      <trkpt lat="43.56337" lon="2.79687">
        <ele>968.7</ele>
        <time>2021-06-30T15:56:26.999+02:00</time>
      </trkpt>
      <trkpt lat="43.56336" lon="2.79686">
        <ele>968.7</ele>
        <time>2021-06-30T15:56:27.999+02:00</time>
      </trkpt>
      <trkpt lat="43.56336" lon="2.79685">
        <ele>968.7</ele>
        <time>2021-06-30T15:56:28.999+02:00</time>
      </trkpt>
      <trkpt lat="43.56336" lon="2.79684">
        <ele>968.7</ele>
        <time>2021-06-30T15:56:29.999+02:00</time>
      </trkpt>
      <trkpt lat="43.56336" lon="2.79683">
        <ele>968.8</ele>
        <time>2021-06-30T15:56:30.999+02:00</time>
      </trkpt>
      <trkpt lat="43.56336" lon="2.79682">
        <ele>968.8</ele>
        <time>2021-06-30T15:56:31.999+02:00</time>
      </trkpt>
      <trkpt lat="43.56336" lon="2.79681">
        <ele>968.8</ele>
        <time>2021-06-30T15:56:32.999+02:00</time>
      </trkpt>
      <trkpt lat="43.56336" lon="2.79679">
        <ele>968.8</ele>
        <time>2021-06-30T15:56:33.999+02:00</time>
      </trkpt>
      <trkpt lat="43.56337" lon="2.79678">
        <ele>968.9</ele>
        <time>2021-06-30T15:56:34.999+02:00</time>
      </trkpt>
      <trkpt lat="43.56337" lon="2.79678">
        <ele>968.9</ele>
        <time>2021-06-30T15:56:35.999+02:00</time>
      </trkpt>
      <trkpt lat="43.56337" lon="2.79676">
        <ele>968.9</ele>
        <time>2021-06-30T15:56:36.999+02:00</time>
      </trkpt>
      <trkpt lat="43.56336" lon="2.79675">
        <ele>969</ele>
        <time>2021-06-30T15:56:37.999+02:00</time>
      </trkpt>
      <trkpt lat="43.56336" lon="2.79673">
        <ele>969</ele>
        <time>2021-06-30T15:56:38.999+02:00</time>
      </trkpt>
      <trkpt lat="43.56336" lon="2.79672">
        <ele>969</ele>
        <time>2021-06-30T15:56:39.999+02:00</time>
      </trkpt>
      <trkpt lat="43.56336" lon="2.7967">
        <ele>969.1</ele>
        <time>2021-06-30T15:56:40.999+02:00</time>
      </trkpt>
      <trkpt lat="43.56336" lon="2.79668">
        <ele>969.1</ele>
        <time>2021-06-30T15:56:41.999+02:00</time>
      </trkpt>
      <trkpt lat="43.56336" lon="2.79666">
        <ele>969.1</ele>
        <time>2021-06-30T15:56:42.999+02:00</time>
      </trkpt>
      <trkpt lat="43.56336" lon="2.79665">
        <ele>969.2</ele>
        <time>2021-06-30T15:56:43.999+02:00</time>
      </trkpt>
      <trkpt lat="43.56337" lon="2.79664">
        <ele>969.2</ele>
        <time>2021-06-30T15:56:44.999+02:00</time>
      </trkpt>
      <trkpt lat="43.56337" lon="2.79662">
        <ele>969.2</ele>
        <time>2021-06-30T15:56:45.999+02:00</time>
      </trkpt>
      <trkpt lat="43.56337" lon="2.7966">
        <ele>969.3</ele>
        <time>2021-06-30T15:56:46.999+02:00</time>
      </trkpt>
      <trkpt lat="43.56338" lon="2.79657">
        <ele>969.3</ele>
        <time>2021-06-30T15:56:47.999+02:00</time>
      </trkpt>
      <trkpt lat="43.56338" lon="2.79655">
        <ele>969.4</ele>
        <time>2021-06-30T15:56:48.999+02:00</time>
      </trkpt>
      <trkpt lat="43.56338" lon="2.79653">
        <ele>969.4</ele>
        <time>2021-06-30T15:56:49.999+02:00</time>
      </trkpt>
      <trkpt lat="43.56339" lon="2.79651">
        <ele>969.4</ele>
        <time>2021-06-30T15:56:50.999+02:00</time>
      </trkpt>
      <trkpt lat="43.56339" lon="2.79651">
        <ele>969.5</ele>
        <time>2021-06-30T15:56:51.999+02:00</time>
      </trkpt>
      <trkpt lat="43.56339" lon="2.7965">
        <ele>969.5</ele>
        <time>2021-06-30T15:56:52.999+02:00</time>
      </trkpt>
      <trkpt lat="43.5634" lon="2.79649">
        <ele>969.5</ele>
        <time>2021-06-30T15:56:53.999+02:00</time>
      </trkpt>
      <trkpt lat="43.5634" lon="2.79648">
        <ele>969.5</ele>
        <time>2021-06-30T15:56:54.999+02:00</time>
      </trkpt>
      <trkpt lat="43.5634" lon="2.79648">
        <ele>969.5</ele>
        <time>2021-06-30T15:56:55.999+02:00</time>
      </trkpt>
      <trkpt lat="43.5634" lon="2.79648">
        <ele>969.6</ele>
        <time>2021-06-30T15:56:56.999+02:00</time>
      </trkpt>
      <trkpt lat="43.5634" lon="2.79648">
        <ele>969.6</ele>
        <time>2021-06-30T15:56:57.999+02:00</time>
      </trkpt>
      <trkpt lat="43.5634" lon="2.79647">
        <ele>969.6</ele>
        <time>2021-06-30T15:56:58.999+02:00</time>
      </trkpt>
      <trkpt lat="43.56341" lon="2.79645">
        <ele>969.6</ele>
        <time>2021-06-30T15:56:59.999+02:00</time>
      </trkpt>
      <trkpt lat="43.56341" lon="2.79643">
        <ele>969.7</ele>
        <time>2021-06-30T15:57:00.999+02:00</time>
      </trkpt>
      <trkpt lat="43.56341" lon="2.79644">
        <ele>969.7</ele>
        <time>2021-06-30T15:57:01.999+02:00</time>
      </trkpt>
      <trkpt lat="43.56342" lon="2.79643">
        <ele>969.7</ele>
        <time>2021-06-30T15:57:02.999+02:00</time>
      </trkpt>
      <trkpt lat="43.56342" lon="2.79643">
        <ele>969.7</ele>
        <time>2021-06-30T15:57:03.999+02:00</time>
      </trkpt>
      <trkpt lat="43.56342" lon="2.79642">
        <ele>969.7</ele>
        <time>2021-06-30T15:57:04.999+02:00</time>
      </trkpt>
      <trkpt lat="43.56343" lon="2.7964">
        <ele>969.8</ele>
        <time>2021-06-30T15:57:05.999+02:00</time>
      </trkpt>
      <trkpt lat="43.56344" lon="2.79639">
        <ele>969.8</ele>
        <time>2021-06-30T15:57:06.999+02:00</time>
      </trkpt>
      <trkpt lat="43.56344" lon="2.79639">
        <ele>969.9</ele>
        <time>2021-06-30T15:57:07.999+02:00</time>
      </trkpt>
      <trkpt lat="43.56345" lon="2.79637">
        <ele>969.9</ele>
        <time>2021-06-30T15:57:08.999+02:00</time>
      </trkpt>
      <trkpt lat="43.56345" lon="2.79636">
        <ele>969.9</ele>
        <time>2021-06-30T15:57:09.999+02:00</time>
      </trkpt>
      <trkpt lat="43.56345" lon="2.79635">
        <ele>970</ele>
        <time>2021-06-30T15:57:10.999+02:00</time>
      </trkpt>
      <trkpt lat="43.56346" lon="2.79634">
        <ele>970</ele>
        <time>2021-06-30T15:57:11.999+02:00</time>
      </trkpt>
      <trkpt lat="43.56346" lon="2.79633">
        <ele>970</ele>
        <time>2021-06-30T15:57:12.999+02:00</time>
      </trkpt>
      <trkpt lat="43.56346" lon="2.79632">
        <ele>970</ele>
        <time>2021-06-30T15:57:13.999+02:00</time>
      </trkpt>
      <trkpt lat="43.56347" lon="2.79631">
        <ele>970.1</ele>
        <time>2021-06-30T15:57:14.999+02:00</time>
      </trkpt>
      <trkpt lat="43.56347" lon="2.7963">
        <ele>970.1</ele>
        <time>2021-06-30T15:57:15.999+02:00</time>
      </trkpt>
      <trkpt lat="43.56347" lon="2.79629">
        <ele>970.1</ele>
        <time>2021-06-30T15:57:16.999+02:00</time>
      </trkpt>
      <trkpt lat="43.56347" lon="2.79628">
        <ele>970.1</ele>
        <time>2021-06-30T15:57:17.999+02:00</time>
      </trkpt>
      <trkpt lat="43.56347" lon="2.79625">
        <ele>970.2</ele>
        <time>2021-06-30T15:57:18.999+02:00</time>
      </trkpt>
      <trkpt lat="43.56348" lon="2.79623">
        <ele>970.2</ele>
        <time>2021-06-30T15:57:19.999+02:00</time>
      </trkpt>
      <trkpt lat="43.56349" lon="2.79621">
        <ele>970.3</ele>
        <time>2021-06-30T15:57:20.999+02:00</time>
      </trkpt>
      <trkpt lat="43.56349" lon="2.7962">
        <ele>970.3</ele>
        <time>2021-06-30T15:57:21.999+02:00</time>
      </trkpt>
      <trkpt lat="43.5635" lon="2.79619">
        <ele>970.4</ele>
        <time>2021-06-30T15:57:22.999+02:00</time>
      </trkpt>
      <trkpt lat="43.5635" lon="2.79616">
        <ele>970.4</ele>
        <time>2021-06-30T15:57:23.999+02:00</time>
      </trkpt>
      <trkpt lat="43.5635" lon="2.79615">
        <ele>970.4</ele>
        <time>2021-06-30T15:57:24.999+02:00</time>
      </trkpt>
      <trkpt lat="43.5635" lon="2.79614">
        <ele>970.4</ele>
        <time>2021-06-30T15:57:25.999+02:00</time>
      </trkpt>
      <trkpt lat="43.56349" lon="2.79612">
        <ele>970.4</ele>
        <time>2021-06-30T15:57:26.999+02:00</time>
      </trkpt>
      <trkpt lat="43.5635" lon="2.79611">
        <ele>970.4</ele>
        <time>2021-06-30T15:57:27.999+02:00</time>
      </trkpt>
      <trkpt lat="43.5635" lon="2.7961">
        <ele>970.5</ele>
        <time>2021-06-30T15:57:28.999+02:00</time>
      </trkpt>
      <trkpt lat="43.5635" lon="2.79609">
        <ele>970.5</ele>
        <time>2021-06-30T15:57:29.999+02:00</time>
      </trkpt>
      <trkpt lat="43.5635" lon="2.79608">
        <ele>970.5</ele>
        <time>2021-06-30T15:57:30.999+02:00</time>
      </trkpt>
      <trkpt lat="43.5635" lon="2.79607">
        <ele>970.5</ele>
        <time>2021-06-30T15:57:31.999+02:00</time>
      </trkpt>
      <trkpt lat="43.5635" lon="2.79607">
        <ele>970.5</ele>
        <time>2021-06-30T15:57:32.999+02:00</time>
      </trkpt>
      <trkpt lat="43.56351" lon="2.79606">
        <ele>970.6</ele>
        <time>2021-06-30T15:57:33.999+02:00</time>
      </trkpt>
      <trkpt lat="43.56351" lon="2.79606">
        <ele>970.6</ele>
        <time>2021-06-30T15:57:34.999+02:00</time>
      </trkpt>
      <trkpt lat="43.56351" lon="2.79605">
        <ele>970.6</ele>
        <time>2021-06-30T15:57:35.999+02:00</time>
      </trkpt>
      <trkpt lat="43.56351" lon="2.79604">
        <ele>970.6</ele>
        <time>2021-06-30T15:57:36.999+02:00</time>
      </trkpt>
      <trkpt lat="43.56352" lon="2.79603">
        <ele>970.7</ele>
        <time>2021-06-30T15:57:37.999+02:00</time>
      </trkpt>
      <trkpt lat="43.56353" lon="2.79601">
        <ele>970.7</ele>
        <time>2021-06-30T15:57:38.999+02:00</time>
      </trkpt>
      <trkpt lat="43.56353" lon="2.796">
        <ele>970.7</ele>
        <time>2021-06-30T15:57:39.999+02:00</time>
      </trkpt>
      <trkpt lat="43.56353" lon="2.79599">
        <ele>970.8</ele>
        <time>2021-06-30T15:57:40.999+02:00</time>
      </trkpt>
      <trkpt lat="43.56353" lon="2.79598">
        <ele>970.8</ele>
        <time>2021-06-30T15:57:41.999+02:00</time>
      </trkpt>
      <trkpt lat="43.56354" lon="2.79597">
        <ele>970.8</ele>
        <time>2021-06-30T15:57:42.999+02:00</time>
      </trkpt>
      <trkpt lat="43.56354" lon="2.79596">
        <ele>970.9</ele>
        <time>2021-06-30T15:57:43.999+02:00</time>
      </trkpt>
      <trkpt lat="43.56355" lon="2.79595">
        <ele>970.9</ele>
        <time>2021-06-30T15:57:44.999+02:00</time>
      </trkpt>
      <trkpt lat="43.56355" lon="2.79594">
        <ele>970.9</ele>
        <time>2021-06-30T15:57:45.999+02:00</time>
      </trkpt>
      <trkpt lat="43.56355" lon="2.79594">
        <ele>970.9</ele>
        <time>2021-06-30T15:57:46.999+02:00</time>
      </trkpt>
      <trkpt lat="43.56355" lon="2.79593">
        <ele>970.9</ele>
        <time>2021-06-30T15:57:47.999+02:00</time>
      </trkpt>
      <trkpt lat="43.56356" lon="2.79592">
        <ele>971</ele>
        <time>2021-06-30T15:57:48.999+02:00</time>
      </trkpt>
      <trkpt lat="43.56357" lon="2.79592">
        <ele>971</ele>
        <time>2021-06-30T15:57:49.999+02:00</time>
      </trkpt>
      <trkpt lat="43.56357" lon="2.79591">
        <ele>971.1</ele>
        <time>2021-06-30T15:57:50.999+02:00</time>
      </trkpt>
      <trkpt lat="43.56358" lon="2.7959">
        <ele>971.1</ele>
        <time>2021-06-30T15:57:51.999+02:00</time>
      </trkpt>
      <trkpt lat="43.56359" lon="2.79589">
        <ele>971.2</ele>
        <time>2021-06-30T15:57:52.999+02:00</time>
      </trkpt>
      <trkpt lat="43.5636" lon="2.79588">
        <ele>971.2</ele>
        <time>2021-06-30T15:57:53.999+02:00</time>
      </trkpt>
      <trkpt lat="43.5636" lon="2.79588">
        <ele>971.2</ele>
        <time>2021-06-30T15:57:54.999+02:00</time>
      </trkpt>
      <trkpt lat="43.5636" lon="2.79587">
        <ele>971.2</ele>
        <time>2021-06-30T15:57:55.999+02:00</time>
      </trkpt>
      <trkpt lat="43.5636" lon="2.79587">
        <ele>971.2</ele>
        <time>2021-06-30T15:57:56.999+02:00</time>
      </trkpt>
      <trkpt lat="43.5636" lon="2.79586">
        <ele>971.2</ele>
        <time>2021-06-30T15:57:57.999+02:00</time>
      </trkpt>
      <trkpt lat="43.5636" lon="2.79585">
        <ele>971.3</ele>
        <time>2021-06-30T15:57:58.999+02:00</time>
      </trkpt>
      <trkpt lat="43.5636" lon="2.79585">
        <ele>971.3</ele>
        <time>2021-06-30T15:57:59.999+02:00</time>
      </trkpt>
      <trkpt lat="43.5636" lon="2.79584">
        <ele>971.3</ele>
        <time>2021-06-30T15:58:00.999+02:00</time>
      </trkpt>
      <trkpt lat="43.5636" lon="2.79583">
        <ele>971.3</ele>
        <time>2021-06-30T15:58:01.999+02:00</time>
      </trkpt>
      <trkpt lat="43.56359" lon="2.79582">
        <ele>971.3</ele>
        <time>2021-06-30T15:58:02.999+02:00</time>
      </trkpt>
      <trkpt lat="43.56357" lon="2.79581">
        <ele>971.2</ele>
        <time>2021-06-30T15:58:03.999+02:00</time>
      </trkpt>
      <trkpt lat="43.56357" lon="2.79581">
        <ele>971.2</ele>
        <time>2021-06-30T15:58:04.999+02:00</time>
      </trkpt>
      <trkpt lat="43.56356" lon="2.7958">
        <ele>971.2</ele>
        <time>2021-06-30T15:58:05.999+02:00</time>
      </trkpt>
      <trkpt lat="43.56355" lon="2.79578">
        <ele>971.2</ele>
        <time>2021-06-30T15:58:06.999+02:00</time>
      </trkpt>
      <trkpt lat="43.56355" lon="2.79576">
        <ele>971.3</ele>
        <time>2021-06-30T15:58:07.999+02:00</time>
      </trkpt>
      <trkpt lat="43.56355" lon="2.79575">
        <ele>971.4</ele>
        <time>2021-06-30T15:58:08.999+02:00</time>
      </trkpt>
      <trkpt lat="43.56355" lon="2.79573">
        <ele>971.4</ele>
        <time>2021-06-30T15:58:09.999+02:00</time>
      </trkpt>
      <trkpt lat="43.56354" lon="2.79572">
        <ele>971.4</ele>
        <time>2021-06-30T15:58:10.999+02:00</time>
      </trkpt>
      <trkpt lat="43.56354" lon="2.79572">
        <ele>971.5</ele>
        <time>2021-06-30T15:58:11.999+02:00</time>
      </trkpt>
      <trkpt lat="43.56354" lon="2.7957">
        <ele>971.5</ele>
        <time>2021-06-30T15:58:12.999+02:00</time>
      </trkpt>
      <trkpt lat="43.56354" lon="2.79568">
        <ele>971.6</ele>
        <time>2021-06-30T15:58:13.999+02:00</time>
      </trkpt>
      <trkpt lat="43.56354" lon="2.79567">
        <ele>971.6</ele>
        <time>2021-06-30T15:58:14.999+02:00</time>
      </trkpt>
      <trkpt lat="43.56353" lon="2.79565">
        <ele>971.7</ele>
        <time>2021-06-30T15:58:15.999+02:00</time>
      </trkpt>
      <trkpt lat="43.56353" lon="2.79564">
        <ele>971.7</ele>
        <time>2021-06-30T15:58:16.999+02:00</time>
      </trkpt>
      <trkpt lat="43.56352" lon="2.79563">
        <ele>971.7</ele>
        <time>2021-06-30T15:58:17.999+02:00</time>
      </trkpt>
      <trkpt lat="43.56352" lon="2.79562">
        <ele>971.7</ele>
        <time>2021-06-30T15:58:18.999+02:00</time>
      </trkpt>
      <trkpt lat="43.56351" lon="2.7956">
        <ele>971.8</ele>
        <time>2021-06-30T15:58:19.999+02:00</time>
      </trkpt>
      <trkpt lat="43.56351" lon="2.79558">
        <ele>971.8</ele>
        <time>2021-06-30T15:58:20.999+02:00</time>
      </trkpt>
      <trkpt lat="43.56351" lon="2.79556">
        <ele>971.9</ele>
        <time>2021-06-30T15:58:21.999+02:00</time>
      </trkpt>
      <trkpt lat="43.5635" lon="2.79553">
        <ele>972</ele>
        <time>2021-06-30T15:58:22.999+02:00</time>
      </trkpt>
      <trkpt lat="43.56349" lon="2.79551">
        <ele>972</ele>
        <time>2021-06-30T15:58:23.999+02:00</time>
      </trkpt>
      <trkpt lat="43.56349" lon="2.79549">
        <ele>972.1</ele>
        <time>2021-06-30T15:58:24.999+02:00</time>
      </trkpt>
      <trkpt lat="43.56348" lon="2.79548">
        <ele>972.1</ele>
        <time>2021-06-30T15:58:25.999+02:00</time>
      </trkpt>
      <trkpt lat="43.56347" lon="2.79547">
        <ele>972.1</ele>
        <time>2021-06-30T15:58:26.999+02:00</time>
      </trkpt>
      <trkpt lat="43.56347" lon="2.79546">
        <ele>972.1</ele>
        <time>2021-06-30T15:58:27.999+02:00</time>
      </trkpt>
      <trkpt lat="43.56346" lon="2.79545">
        <ele>972.1</ele>
        <time>2021-06-30T15:58:28.999+02:00</time>
      </trkpt>
      <trkpt lat="43.56345" lon="2.79544">
        <ele>972.1</ele>
        <time>2021-06-30T15:58:29.999+02:00</time>
      </trkpt>
      <trkpt lat="43.56345" lon="2.79542">
        <ele>972.1</ele>
        <time>2021-06-30T15:58:30.999+02:00</time>
      </trkpt>
      <trkpt lat="43.56344" lon="2.79541">
        <ele>972.1</ele>
        <time>2021-06-30T15:58:31.999+02:00</time>
      </trkpt>
      <trkpt lat="43.56343" lon="2.79541">
        <ele>972.1</ele>
        <time>2021-06-30T15:58:32.999+02:00</time>
      </trkpt>
      <trkpt lat="43.56342" lon="2.7954">
        <ele>972</ele>
        <time>2021-06-30T15:58:33.999+02:00</time>
      </trkpt>
      <trkpt lat="43.56341" lon="2.7954">
        <ele>972</ele>
        <time>2021-06-30T15:58:34.999+02:00</time>
      </trkpt>
      <trkpt lat="43.5634" lon="2.79539">
        <ele>971.9</ele>
        <time>2021-06-30T15:58:35.999+02:00</time>
      </trkpt>
      <trkpt lat="43.56339" lon="2.79538">
        <ele>971.9</ele>
        <time>2021-06-30T15:58:36.999+02:00</time>
      </trkpt>
      <trkpt lat="43.56339" lon="2.79537">
        <ele>972</ele>
        <time>2021-06-30T15:58:37.999+02:00</time>
      </trkpt>
      <trkpt lat="43.56339" lon="2.79535">
        <ele>972</ele>
        <time>2021-06-30T15:58:38.999+02:00</time>
      </trkpt>
      <trkpt lat="43.56339" lon="2.79534">
        <ele>972.1</ele>
        <time>2021-06-30T15:58:39.999+02:00</time>
      </trkpt>
      <trkpt lat="43.56338" lon="2.79531">
        <ele>972.2</ele>
        <time>2021-06-30T15:58:40.999+02:00</time>
      </trkpt>
      <trkpt lat="43.56338" lon="2.79529">
        <ele>972.2</ele>
        <time>2021-06-30T15:58:41.999+02:00</time>
      </trkpt>
      <trkpt lat="43.56338" lon="2.79528">
        <ele>972.3</ele>
        <time>2021-06-30T15:58:42.999+02:00</time>
      </trkpt>
      <trkpt lat="43.56338" lon="2.79525">
        <ele>972.4</ele>
        <time>2021-06-30T15:58:43.999+02:00</time>
      </trkpt>
      <trkpt lat="43.56338" lon="2.79523">
        <ele>972.4</ele>
        <time>2021-06-30T15:58:44.999+02:00</time>
      </trkpt>
      <trkpt lat="43.56338" lon="2.79521">
        <ele>972.5</ele>
        <time>2021-06-30T15:58:45.999+02:00</time>
      </trkpt>
      <trkpt lat="43.56337" lon="2.79519">
        <ele>972.5</ele>
        <time>2021-06-30T15:58:46.999+02:00</time>
      </trkpt>
      <trkpt lat="43.56338" lon="2.79518">
        <ele>972.6</ele>
        <time>2021-06-30T15:58:47.999+02:00</time>
      </trkpt>
      <trkpt lat="43.56338" lon="2.79516">
        <ele>972.7</ele>
        <time>2021-06-30T15:58:48.999+02:00</time>
      </trkpt>
      <trkpt lat="43.56337" lon="2.79513">
        <ele>972.7</ele>
        <time>2021-06-30T15:58:49.999+02:00</time>
      </trkpt>
      <trkpt lat="43.56337" lon="2.7951">
        <ele>972.8</ele>
        <time>2021-06-30T15:58:50.999+02:00</time>
      </trkpt>
      <trkpt lat="43.56337" lon="2.79508">
        <ele>972.9</ele>
        <time>2021-06-30T15:58:51.999+02:00</time>
      </trkpt>
      <trkpt lat="43.56336" lon="2.79506">
        <ele>973</ele>
        <time>2021-06-30T15:58:52.999+02:00</time>
      </trkpt>
      <trkpt lat="43.56336" lon="2.79505">
        <ele>973</ele>
        <time>2021-06-30T15:58:53.999+02:00</time>
      </trkpt>
      <trkpt lat="43.56336" lon="2.79504">
        <ele>973</ele>
        <time>2021-06-30T15:58:54.999+02:00</time>
      </trkpt>
      <trkpt lat="43.56336" lon="2.79503">
        <ele>973.1</ele>
        <time>2021-06-30T15:58:55.999+02:00</time>
      </trkpt>
      <trkpt lat="43.56336" lon="2.79503">
        <ele>973.1</ele>
        <time>2021-06-30T15:58:56.999+02:00</time>
      </trkpt>
      <trkpt lat="43.56336" lon="2.79503">
        <ele>973.1</ele>
        <time>2021-06-30T15:58:57.999+02:00</time>
      </trkpt>
      <trkpt lat="43.56336" lon="2.79502">
        <ele>973.1</ele>
        <time>2021-06-30T15:58:58.999+02:00</time>
      </trkpt>
      <trkpt lat="43.56336" lon="2.79501">
        <ele>973.1</ele>
        <time>2021-06-30T15:58:59.999+02:00</time>
      </trkpt>
      <trkpt lat="43.56336" lon="2.795">
        <ele>973.1</ele>
        <time>2021-06-30T15:59:00.999+02:00</time>
      </trkpt>
      <trkpt lat="43.56336" lon="2.795">
        <ele>973.2</ele>
        <time>2021-06-30T15:59:01.999+02:00</time>
      </trkpt>
      <trkpt lat="43.56336" lon="2.79499">
        <ele>973.2</ele>
        <time>2021-06-30T15:59:02.999+02:00</time>
      </trkpt>
      <trkpt lat="43.56335" lon="2.79498">
        <ele>973.2</ele>
        <time>2021-06-30T15:59:03.999+02:00</time>
      </trkpt>
      <trkpt lat="43.56335" lon="2.79497">
        <ele>973.2</ele>
        <time>2021-06-30T15:59:04.999+02:00</time>
      </trkpt>
      <trkpt lat="43.56335" lon="2.79496">
        <ele>973.3</ele>
        <time>2021-06-30T15:59:05.999+02:00</time>
      </trkpt>
      <trkpt lat="43.56334" lon="2.79495">
        <ele>973.3</ele>
        <time>2021-06-30T15:59:06.999+02:00</time>
      </trkpt>
      <trkpt lat="43.56334" lon="2.79493">
        <ele>973.3</ele>
        <time>2021-06-30T15:59:07.999+02:00</time>
      </trkpt>
      <trkpt lat="43.56333" lon="2.79492">
        <ele>973.4</ele>
        <time>2021-06-30T15:59:08.999+02:00</time>
      </trkpt>
      <trkpt lat="43.56333" lon="2.79491">
        <ele>973.4</ele>
        <time>2021-06-30T15:59:09.999+02:00</time>
      </trkpt>
      <trkpt lat="43.56332" lon="2.7949">
        <ele>973.4</ele>
        <time>2021-06-30T15:59:10.999+02:00</time>
      </trkpt>
      <trkpt lat="43.56332" lon="2.79488">
        <ele>973.5</ele>
        <time>2021-06-30T15:59:11.999+02:00</time>
      </trkpt>
      <trkpt lat="43.56332" lon="2.79487">
        <ele>973.6</ele>
        <time>2021-06-30T15:59:12.999+02:00</time>
      </trkpt>
      <trkpt lat="43.56332" lon="2.79486">
        <ele>973.6</ele>
        <time>2021-06-30T15:59:13.999+02:00</time>
      </trkpt>
      <trkpt lat="43.56332" lon="2.79484">
        <ele>973.7</ele>
        <time>2021-06-30T15:59:14.999+02:00</time>
      </trkpt>
      <trkpt lat="43.56332" lon="2.79484">
        <ele>973.7</ele>
        <time>2021-06-30T15:59:15.999+02:00</time>
      </trkpt>
      <trkpt lat="43.56331" lon="2.79483">
        <ele>973.7</ele>
        <time>2021-06-30T15:59:16.999+02:00</time>
      </trkpt>
      <trkpt lat="43.56331" lon="2.79481">
        <ele>973.8</ele>
        <time>2021-06-30T15:59:17.999+02:00</time>
      </trkpt>
      <trkpt lat="43.56331" lon="2.79479">
        <ele>973.9</ele>
        <time>2021-06-30T15:59:18.999+02:00</time>
      </trkpt>
      <trkpt lat="43.5633" lon="2.79478">
        <ele>973.9</ele>
        <time>2021-06-30T15:59:19.999+02:00</time>
      </trkpt>
      <trkpt lat="43.5633" lon="2.79477">
        <ele>974</ele>
        <time>2021-06-30T15:59:20.999+02:00</time>
      </trkpt>
      <trkpt lat="43.5633" lon="2.79476">
        <ele>974</ele>
        <time>2021-06-30T15:59:21.999+02:00</time>
      </trkpt>
      <trkpt lat="43.56329" lon="2.79475">
        <ele>974</ele>
        <time>2021-06-30T15:59:22.999+02:00</time>
      </trkpt>
      <trkpt lat="43.56329" lon="2.79474">
        <ele>974</ele>
        <time>2021-06-30T15:59:23.999+02:00</time>
      </trkpt>
      <trkpt lat="43.56328" lon="2.79473">
        <ele>974.1</ele>
        <time>2021-06-30T15:59:24.999+02:00</time>
      </trkpt>
      <trkpt lat="43.56328" lon="2.79473">
        <ele>974.1</ele>
        <time>2021-06-30T15:59:25.999+02:00</time>
      </trkpt>
      <trkpt lat="43.56327" lon="2.79473">
        <ele>974.1</ele>
        <time>2021-06-30T15:59:26.999+02:00</time>
      </trkpt>
      <trkpt lat="43.56327" lon="2.79472">
        <ele>974.1</ele>
        <time>2021-06-30T15:59:27.999+02:00</time>
      </trkpt>
      <trkpt lat="43.56326" lon="2.79472">
        <ele>974</ele>
        <time>2021-06-30T15:59:28.999+02:00</time>
      </trkpt>
      <trkpt lat="43.56326" lon="2.79472">
        <ele>974</ele>
        <time>2021-06-30T15:59:29.999+02:00</time>
      </trkpt>
      <trkpt lat="43.56326" lon="2.79471">
        <ele>974</ele>
        <time>2021-06-30T15:59:30.999+02:00</time>
      </trkpt>
      <trkpt lat="43.56325" lon="2.79471">
        <ele>974</ele>
        <time>2021-06-30T15:59:31.999+02:00</time>
      </trkpt>
      <trkpt lat="43.56324" lon="2.79471">
        <ele>974</ele>
        <time>2021-06-30T15:59:32.999+02:00</time>
      </trkpt>
      <trkpt lat="43.56323" lon="2.79471">
        <ele>974</ele>
        <time>2021-06-30T15:59:33.999+02:00</time>
      </trkpt>
      <trkpt lat="43.56322" lon="2.79472">
        <ele>973.9</ele>
        <time>2021-06-30T15:59:34.999+02:00</time>
      </trkpt>
      <trkpt lat="43.56321" lon="2.79472">
        <ele>973.8</ele>
        <time>2021-06-30T15:59:35.999+02:00</time>
      </trkpt>
      <trkpt lat="43.5632" lon="2.79472">
        <ele>973.7</ele>
        <time>2021-06-30T15:59:36.999+02:00</time>
      </trkpt>
      <trkpt lat="43.56319" lon="2.79472">
        <ele>973.7</ele>
        <time>2021-06-30T15:59:37.999+02:00</time>
      </trkpt>
      <trkpt lat="43.56319" lon="2.79473">
        <ele>973.7</ele>
        <time>2021-06-30T15:59:38.999+02:00</time>
      </trkpt>
      <trkpt lat="43.56318" lon="2.79473">
        <ele>973.6</ele>
        <time>2021-06-30T15:59:39.999+02:00</time>
      </trkpt>
      <trkpt lat="43.56317" lon="2.79473">
        <ele>973.6</ele>
        <time>2021-06-30T15:59:40.999+02:00</time>
      </trkpt>
      <trkpt lat="43.56317" lon="2.79473">
        <ele>973.6</ele>
        <time>2021-06-30T15:59:41.999+02:00</time>
      </trkpt>
      <trkpt lat="43.56316" lon="2.79473">
        <ele>973.5</ele>
        <time>2021-06-30T15:59:42.999+02:00</time>
      </trkpt>
      <trkpt lat="43.56315" lon="2.79474">
        <ele>973.4</ele>
        <time>2021-06-30T15:59:43.999+02:00</time>
      </trkpt>
      <trkpt lat="43.56314" lon="2.79474">
        <ele>973.4</ele>
        <time>2021-06-30T15:59:44.999+02:00</time>
      </trkpt>
      <trkpt lat="43.56313" lon="2.79474">
        <ele>973.3</ele>
        <time>2021-06-30T15:59:45.999+02:00</time>
      </trkpt>
      <trkpt lat="43.56312" lon="2.79474">
        <ele>973.3</ele>
        <time>2021-06-30T15:59:46.999+02:00</time>
      </trkpt>
      <trkpt lat="43.56311" lon="2.79474">
        <ele>973.3</ele>
        <time>2021-06-30T15:59:47.999+02:00</time>
      </trkpt>
      <trkpt lat="43.5631" lon="2.79474">
        <ele>973.3</ele>
        <time>2021-06-30T15:59:48.999+02:00</time>
      </trkpt>
      <trkpt lat="43.56309" lon="2.79474">
        <ele>973.2</ele>
        <time>2021-06-30T15:59:49.999+02:00</time>
      </trkpt>
      <trkpt lat="43.56309" lon="2.79474">
        <ele>973.2</ele>
        <time>2021-06-30T15:59:50.999+02:00</time>
      </trkpt>
      <trkpt lat="43.56309" lon="2.79473">
        <ele>973.2</ele>
        <time>2021-06-30T15:59:51.999+02:00</time>
      </trkpt>
      <trkpt lat="43.56309" lon="2.79474">
        <ele>973.2</ele>
        <time>2021-06-30T15:59:52.999+02:00</time>
      </trkpt>
      <trkpt lat="43.56308" lon="2.79474">
        <ele>973.2</ele>
        <time>2021-06-30T15:59:53.999+02:00</time>
      </trkpt>
      <trkpt lat="43.56308" lon="2.79474">
        <ele>973.1</ele>
        <time>2021-06-30T15:59:54.999+02:00</time>
      </trkpt>
      <trkpt lat="43.56307" lon="2.79474">
        <ele>973.1</ele>
        <time>2021-06-30T15:59:55.999+02:00</time>
      </trkpt>
      <trkpt lat="43.56307" lon="2.79474">
        <ele>973.1</ele>
        <time>2021-06-30T15:59:56.999+02:00</time>
      </trkpt>
      <trkpt lat="43.56306" lon="2.79474">
        <ele>973</ele>
        <time>2021-06-30T15:59:57.999+02:00</time>
      </trkpt>
      <trkpt lat="43.56305" lon="2.79474">
        <ele>973</ele>
        <time>2021-06-30T15:59:58.999+02:00</time>
      </trkpt>
      <trkpt lat="43.56303" lon="2.79475">
        <ele>972.9</ele>
        <time>2021-06-30T15:59:59.999+02:00</time>
      </trkpt>
      <trkpt lat="43.56302" lon="2.79474">
        <ele>972.9</ele>
        <time>2021-06-30T16:00:00.999+02:00</time>
      </trkpt>
      <trkpt lat="43.56301" lon="2.79474">
        <ele>972.9</ele>
        <time>2021-06-30T16:00:01.999+02:00</time>
      </trkpt>
      <trkpt lat="43.563" lon="2.79474">
        <ele>972.8</ele>
        <time>2021-06-30T16:00:02.999+02:00</time>
      </trkpt>
      <trkpt lat="43.56299" lon="2.79475">
        <ele>972.7</ele>
        <time>2021-06-30T16:00:03.999+02:00</time>
      </trkpt>
      <trkpt lat="43.56298" lon="2.79475">
        <ele>972.7</ele>
        <time>2021-06-30T16:00:04.999+02:00</time>
      </trkpt>
      <trkpt lat="43.56297" lon="2.79474">
        <ele>972.7</ele>
        <time>2021-06-30T16:00:05.999+02:00</time>
      </trkpt>
      <trkpt lat="43.56297" lon="2.79474">
        <ele>972.6</ele>
        <time>2021-06-30T16:00:06.999+02:00</time>
      </trkpt>
      <trkpt lat="43.56296" lon="2.79474">
        <ele>972.6</ele>
        <time>2021-06-30T16:00:07.999+02:00</time>
      </trkpt>
      <trkpt lat="43.56294" lon="2.79475">
        <ele>972.5</ele>
        <time>2021-06-30T16:00:08.999+02:00</time>
      </trkpt>
      <trkpt lat="43.56294" lon="2.79475">
        <ele>972.5</ele>
        <time>2021-06-30T16:00:09.999+02:00</time>
      </trkpt>
      <trkpt lat="43.56293" lon="2.79476">
        <ele>972.5</ele>
        <time>2021-06-30T16:00:10.999+02:00</time>
      </trkpt>
      <trkpt lat="43.56292" lon="2.79475">
        <ele>972.4</ele>
        <time>2021-06-30T16:00:11.999+02:00</time>
      </trkpt>
      <trkpt lat="43.5629" lon="2.79475">
        <ele>972.3</ele>
        <time>2021-06-30T16:00:12.999+02:00</time>
      </trkpt>
      <trkpt lat="43.56289" lon="2.79475">
        <ele>972.3</ele>
        <time>2021-06-30T16:00:13.999+02:00</time>
      </trkpt>
      <trkpt lat="43.56288" lon="2.79475">
        <ele>972.2</ele>
        <time>2021-06-30T16:00:14.999+02:00</time>
      </trkpt>
      <trkpt lat="43.56287" lon="2.79474">
        <ele>972.2</ele>
        <time>2021-06-30T16:00:15.999+02:00</time>
      </trkpt>
      <trkpt lat="43.56286" lon="2.79474">
        <ele>972.2</ele>
        <time>2021-06-30T16:00:16.999+02:00</time>
      </trkpt>
      <trkpt lat="43.56284" lon="2.79474">
        <ele>972.1</ele>
        <time>2021-06-30T16:00:17.999+02:00</time>
      </trkpt>
      <trkpt lat="43.56283" lon="2.79474">
        <ele>972.1</ele>
        <time>2021-06-30T16:00:18.999+02:00</time>
      </trkpt>
      <trkpt lat="43.56282" lon="2.79474">
        <ele>972</ele>
        <time>2021-06-30T16:00:19.999+02:00</time>
      </trkpt>
      <trkpt lat="43.56281" lon="2.79475">
        <ele>972</ele>
        <time>2021-06-30T16:00:20.999+02:00</time>
      </trkpt>
      <trkpt lat="43.5628" lon="2.79476">
        <ele>971.9</ele>
        <time>2021-06-30T16:00:21.999+02:00</time>
      </trkpt>
      <trkpt lat="43.56279" lon="2.79475">
        <ele>971.8</ele>
        <time>2021-06-30T16:00:22.999+02:00</time>
      </trkpt>
      <trkpt lat="43.56278" lon="2.79475">
        <ele>971.8</ele>
        <time>2021-06-30T16:00:23.999+02:00</time>
      </trkpt>
      <trkpt lat="43.56277" lon="2.79475">
        <ele>971.8</ele>
        <time>2021-06-30T16:00:24.999+02:00</time>
      </trkpt>
      <trkpt lat="43.56275" lon="2.79475">
        <ele>971.7</ele>
        <time>2021-06-30T16:00:25.999+02:00</time>
      </trkpt>
      <trkpt lat="43.56274" lon="2.79476">
        <ele>971.6</ele>
        <time>2021-06-30T16:00:26.999+02:00</time>
      </trkpt>
      <trkpt lat="43.56274" lon="2.79476">
        <ele>971.6</ele>
        <time>2021-06-30T16:00:27.999+02:00</time>
      </trkpt>
      <trkpt lat="43.56272" lon="2.79476">
        <ele>971.5</ele>
        <time>2021-06-30T16:00:28.999+02:00</time>
      </trkpt>
      <trkpt lat="43.56271" lon="2.79477">
        <ele>971.4</ele>
        <time>2021-06-30T16:00:29.999+02:00</time>
      </trkpt>
      <trkpt lat="43.56269" lon="2.79478">
        <ele>971.3</ele>
        <time>2021-06-30T16:00:30.999+02:00</time>
      </trkpt>
      <trkpt lat="43.56268" lon="2.79479">
        <ele>971.3</ele>
        <time>2021-06-30T16:00:31.999+02:00</time>
      </trkpt>
      <trkpt lat="43.56268" lon="2.7948">
        <ele>971.2</ele>
        <time>2021-06-30T16:00:32.999+02:00</time>
      </trkpt>
      <trkpt lat="43.56266" lon="2.7948">
        <ele>971.2</ele>
        <time>2021-06-30T16:00:33.999+02:00</time>
      </trkpt>
      <trkpt lat="43.56265" lon="2.79481">
        <ele>971.1</ele>
        <time>2021-06-30T16:00:34.999+02:00</time>
      </trkpt>
      <trkpt lat="43.56264" lon="2.79481">
        <ele>971</ele>
        <time>2021-06-30T16:00:35.999+02:00</time>
      </trkpt>
      <trkpt lat="43.56263" lon="2.79481">
        <ele>971</ele>
        <time>2021-06-30T16:00:36.999+02:00</time>
      </trkpt>
      <trkpt lat="43.56262" lon="2.79482">
        <ele>971</ele>
        <time>2021-06-30T16:00:37.999+02:00</time>
      </trkpt>
      <trkpt lat="43.56262" lon="2.79482">
        <ele>970.9</ele>
        <time>2021-06-30T16:00:38.999+02:00</time>
      </trkpt>
      <trkpt lat="43.56261" lon="2.79482">
        <ele>970.9</ele>
        <time>2021-06-30T16:00:39.999+02:00</time>
      </trkpt>
      <trkpt lat="43.56261" lon="2.79483">
        <ele>970.9</ele>
        <time>2021-06-30T16:00:40.999+02:00</time>
      </trkpt>
      <trkpt lat="43.5626" lon="2.79483">
        <ele>970.8</ele>
        <time>2021-06-30T16:00:41.999+02:00</time>
      </trkpt>
      <trkpt lat="43.56259" lon="2.79484">
        <ele>970.7</ele>
        <time>2021-06-30T16:00:42.999+02:00</time>
      </trkpt>
      <trkpt lat="43.56258" lon="2.79485">
        <ele>970.7</ele>
        <time>2021-06-30T16:00:43.999+02:00</time>
      </trkpt>
      <trkpt lat="43.56258" lon="2.79485">
        <ele>970.7</ele>
        <time>2021-06-30T16:00:44.999+02:00</time>
      </trkpt>
      <trkpt lat="43.56258" lon="2.79485">
        <ele>970.7</ele>
        <time>2021-06-30T16:00:45.999+02:00</time>
      </trkpt>
      <trkpt lat="43.56257" lon="2.79485">
        <ele>970.6</ele>
        <time>2021-06-30T16:00:46.999+02:00</time>
      </trkpt>
      <trkpt lat="43.56258" lon="2.79485">
        <ele>970.7</ele>
        <time>2021-06-30T16:00:47.999+02:00</time>
      </trkpt>
      <trkpt lat="43.56258" lon="2.79485">
        <ele>970.7</ele>
        <time>2021-06-30T16:00:48.999+02:00</time>
      </trkpt>
      <trkpt lat="43.56258" lon="2.79486">
        <ele>970.7</ele>
        <time>2021-06-30T16:00:49.999+02:00</time>
      </trkpt>
      <trkpt lat="43.56259" lon="2.79487">
        <ele>970.6</ele>
        <time>2021-06-30T16:00:50.999+02:00</time>
      </trkpt>
      <trkpt lat="43.56259" lon="2.79489">
        <ele>970.6</ele>
        <time>2021-06-30T16:00:51.999+02:00</time>
      </trkpt>
      <trkpt lat="43.5626" lon="2.7949">
        <ele>970.6</ele>
        <time>2021-06-30T16:00:52.999+02:00</time>
      </trkpt>
      <trkpt lat="43.56261" lon="2.7949">
        <ele>970.6</ele>
        <time>2021-06-30T16:00:53.999+02:00</time>
      </trkpt>
      <trkpt lat="43.56261" lon="2.79491">
        <ele>970.6</ele>
        <time>2021-06-30T16:00:54.999+02:00</time>
      </trkpt>
      <trkpt lat="43.56261" lon="2.79492">
        <ele>970.6</ele>
        <time>2021-06-30T16:00:55.999+02:00</time>
      </trkpt>
      <trkpt lat="43.56261" lon="2.79493">
        <ele>970.6</ele>
        <time>2021-06-30T16:00:56.999+02:00</time>
      </trkpt>
      <trkpt lat="43.56261" lon="2.79494">
        <ele>970.6</ele>
        <time>2021-06-30T16:00:57.999+02:00</time>
      </trkpt>
      <trkpt lat="43.56261" lon="2.79495">
        <ele>970.5</ele>
        <time>2021-06-30T16:00:58.999+02:00</time>
      </trkpt>
      <trkpt lat="43.56261" lon="2.79496">
        <ele>970.5</ele>
        <time>2021-06-30T16:00:59.999+02:00</time>
      </trkpt>
      <trkpt lat="43.56261" lon="2.79497">
        <ele>970.5</ele>
        <time>2021-06-30T16:01:00.999+02:00</time>
      </trkpt>
      <trkpt lat="43.56261" lon="2.79499">
        <ele>970.4</ele>
        <time>2021-06-30T16:01:01.999+02:00</time>
      </trkpt>
      <trkpt lat="43.5626" lon="2.795">
        <ele>970.4</ele>
        <time>2021-06-30T16:01:02.999+02:00</time>
      </trkpt>
      <trkpt lat="43.5626" lon="2.79501">
        <ele>970.3</ele>
        <time>2021-06-30T16:01:03.999+02:00</time>
      </trkpt>
      <trkpt lat="43.56259" lon="2.79502">
        <ele>970.2</ele>
        <time>2021-06-30T16:01:04.999+02:00</time>
      </trkpt>
      <trkpt lat="43.56258" lon="2.79503">
        <ele>970.1</ele>
        <time>2021-06-30T16:01:05.999+02:00</time>
      </trkpt>
      <trkpt lat="43.56257" lon="2.79505">
        <ele>969.9</ele>
        <time>2021-06-30T16:01:06.999+02:00</time>
      </trkpt>
      <trkpt lat="43.56257" lon="2.79506">
        <ele>969.8</ele>
        <time>2021-06-30T16:01:07.999+02:00</time>
      </trkpt>
      <trkpt lat="43.56256" lon="2.79507">
        <ele>969.7</ele>
        <time>2021-06-30T16:01:08.999+02:00</time>
      </trkpt>
      <trkpt lat="43.56255" lon="2.79509">
        <ele>969.4</ele>
        <time>2021-06-30T16:01:09.999+02:00</time>
      </trkpt>
      <trkpt lat="43.56254" lon="2.79511">
        <ele>969.3</ele>
        <time>2021-06-30T16:01:10.999+02:00</time>
      </trkpt>
      <trkpt lat="43.56253" lon="2.79512">
        <ele>969.1</ele>
        <time>2021-06-30T16:01:11.999+02:00</time>
      </trkpt>
      <trkpt lat="43.56252" lon="2.79513">
        <ele>969</ele>
        <time>2021-06-30T16:01:12.999+02:00</time>
      </trkpt>
      <trkpt lat="43.56251" lon="2.79515">
        <ele>968.8</ele>
        <time>2021-06-30T16:01:13.999+02:00</time>
      </trkpt>
      <trkpt lat="43.56251" lon="2.79515">
        <ele>968.8</ele>
        <time>2021-06-30T16:01:14.999+02:00</time>
      </trkpt>
      <trkpt lat="43.56249" lon="2.79517">
        <ele>968.6</ele>
        <time>2021-06-30T16:01:15.999+02:00</time>
      </trkpt>
      <trkpt lat="43.56248" lon="2.79519">
        <ele>968.5</ele>
        <time>2021-06-30T16:01:16.999+02:00</time>
      </trkpt>
      <trkpt lat="43.56247" lon="2.7952">
        <ele>968.4</ele>
        <time>2021-06-30T16:01:17.999+02:00</time>
      </trkpt>
      <trkpt lat="43.56247" lon="2.7952">
        <ele>968.4</ele>
        <time>2021-06-30T16:01:18.999+02:00</time>
      </trkpt>
      <trkpt lat="43.56245" lon="2.79522">
        <ele>968.3</ele>
        <time>2021-06-30T16:01:19.999+02:00</time>
      </trkpt>
      <trkpt lat="43.56244" lon="2.79524">
        <ele>968.2</ele>
        <time>2021-06-30T16:01:20.999+02:00</time>
      </trkpt>
      <trkpt lat="43.56244" lon="2.79525">
        <ele>968.1</ele>
        <time>2021-06-30T16:01:21.999+02:00</time>
      </trkpt>
      <trkpt lat="43.56242" lon="2.79528">
        <ele>968</ele>
        <time>2021-06-30T16:01:22.999+02:00</time>
      </trkpt>
      <trkpt lat="43.56241" lon="2.7953">
        <ele>967.9</ele>
        <time>2021-06-30T16:01:23.999+02:00</time>
      </trkpt>
      <trkpt lat="43.5624" lon="2.79531">
        <ele>967.9</ele>
        <time>2021-06-30T16:01:24.999+02:00</time>
      </trkpt>
      <trkpt lat="43.56239" lon="2.79532">
        <ele>967.8</ele>
        <time>2021-06-30T16:01:25.999+02:00</time>
      </trkpt>
      <trkpt lat="43.56238" lon="2.79533">
        <ele>967.8</ele>
        <time>2021-06-30T16:01:26.999+02:00</time>
      </trkpt>
      <trkpt lat="43.56237" lon="2.79534">
        <ele>967.7</ele>
        <time>2021-06-30T16:01:27.999+02:00</time>
      </trkpt>
      <trkpt lat="43.56236" lon="2.79535">
        <ele>967.7</ele>
        <time>2021-06-30T16:01:28.999+02:00</time>
      </trkpt>
      <trkpt lat="43.56235" lon="2.79536">
        <ele>967.7</ele>
        <time>2021-06-30T16:01:29.999+02:00</time>
      </trkpt>
      <trkpt lat="43.56235" lon="2.79538">
        <ele>967.6</ele>
        <time>2021-06-30T16:01:30.999+02:00</time>
      </trkpt>
      <trkpt lat="43.56234" lon="2.79539">
        <ele>967.6</ele>
        <time>2021-06-30T16:01:31.999+02:00</time>
      </trkpt>
      <trkpt lat="43.56234" lon="2.79539">
        <ele>967.6</ele>
        <time>2021-06-30T16:01:32.999+02:00</time>
      </trkpt>
      <trkpt lat="43.56233" lon="2.7954">
        <ele>967.6</ele>
        <time>2021-06-30T16:01:33.999+02:00</time>
      </trkpt>
      <trkpt lat="43.56232" lon="2.79541">
        <ele>967.5</ele>
        <time>2021-06-30T16:01:34.999+02:00</time>
      </trkpt>
      <trkpt lat="43.56231" lon="2.79543">
        <ele>967.4</ele>
        <time>2021-06-30T16:01:35.999+02:00</time>
      </trkpt>
      <trkpt lat="43.5623" lon="2.79544">
        <ele>967.4</ele>
        <time>2021-06-30T16:01:36.999+02:00</time>
      </trkpt>
      <trkpt lat="43.5623" lon="2.79546">
        <ele>967.3</ele>
        <time>2021-06-30T16:01:37.999+02:00</time>
      </trkpt>
      <trkpt lat="43.56229" lon="2.79547">
        <ele>967.3</ele>
        <time>2021-06-30T16:01:38.999+02:00</time>
      </trkpt>
      <trkpt lat="43.56227" lon="2.79549">
        <ele>967.2</ele>
        <time>2021-06-30T16:01:39.999+02:00</time>
      </trkpt>
      <trkpt lat="43.56227" lon="2.7955">
        <ele>967.2</ele>
        <time>2021-06-30T16:01:40.999+02:00</time>
      </trkpt>
      <trkpt lat="43.56226" lon="2.79551">
        <ele>967.2</ele>
        <time>2021-06-30T16:01:41.999+02:00</time>
      </trkpt>
      <trkpt lat="43.56226" lon="2.79552">
        <ele>967.1</ele>
        <time>2021-06-30T16:01:42.999+02:00</time>
      </trkpt>
      <trkpt lat="43.56225" lon="2.79553">
        <ele>967.1</ele>
        <time>2021-06-30T16:01:43.999+02:00</time>
      </trkpt>
      <trkpt lat="43.56224" lon="2.79553">
        <ele>967.1</ele>
        <time>2021-06-30T16:01:44.999+02:00</time>
      </trkpt>
      <trkpt lat="43.56223" lon="2.79554">
        <ele>967.1</ele>
        <time>2021-06-30T16:01:45.999+02:00</time>
      </trkpt>
      <trkpt lat="43.56222" lon="2.79554">
        <ele>967.2</ele>
        <time>2021-06-30T16:01:46.999+02:00</time>
      </trkpt>
      <trkpt lat="43.56222" lon="2.79555">
        <ele>967.2</ele>
        <time>2021-06-30T16:01:47.999+02:00</time>
      </trkpt>
      <trkpt lat="43.56221" lon="2.79554">
        <ele>967.2</ele>
        <time>2021-06-30T16:01:48.999+02:00</time>
      </trkpt>
      <trkpt lat="43.56221" lon="2.79555">
        <ele>967.2</ele>
        <time>2021-06-30T16:01:49.999+02:00</time>
      </trkpt>
      <trkpt lat="43.5622" lon="2.79555">
        <ele>967.2</ele>
        <time>2021-06-30T16:01:50.999+02:00</time>
      </trkpt>
      <trkpt lat="43.5622" lon="2.79556">
        <ele>967.3</ele>
        <time>2021-06-30T16:01:51.999+02:00</time>
      </trkpt>
      <trkpt lat="43.56219" lon="2.79556">
        <ele>967.3</ele>
        <time>2021-06-30T16:01:52.999+02:00</time>
      </trkpt>
      <trkpt lat="43.56219" lon="2.79556">
        <ele>967.3</ele>
        <time>2021-06-30T16:01:53.999+02:00</time>
      </trkpt>
      <trkpt lat="43.56218" lon="2.79556">
        <ele>967.3</ele>
        <time>2021-06-30T16:01:54.999+02:00</time>
      </trkpt>
      <trkpt lat="43.56217" lon="2.79556">
        <ele>967.4</ele>
        <time>2021-06-30T16:01:55.999+02:00</time>
      </trkpt>
      <trkpt lat="43.56216" lon="2.79556">
        <ele>967.5</ele>
        <time>2021-06-30T16:01:56.999+02:00</time>
      </trkpt>
      <trkpt lat="43.56215" lon="2.79556">
        <ele>967.5</ele>
        <time>2021-06-30T16:01:57.999+02:00</time>
      </trkpt>
      <trkpt lat="43.56215" lon="2.79556">
        <ele>967.6</ele>
        <time>2021-06-30T16:01:58.999+02:00</time>
      </trkpt>
      <trkpt lat="43.56214" lon="2.79556">
        <ele>967.6</ele>
        <time>2021-06-30T16:01:59.999+02:00</time>
      </trkpt>
      <trkpt lat="43.56212" lon="2.79556">
        <ele>967.7</ele>
        <time>2021-06-30T16:02:00.999+02:00</time>
      </trkpt>
      <trkpt lat="43.56212" lon="2.79556">
        <ele>967.8</ele>
        <time>2021-06-30T16:02:01.999+02:00</time>
      </trkpt>
      <trkpt lat="43.56211" lon="2.79556">
        <ele>967.8</ele>
        <time>2021-06-30T16:02:02.999+02:00</time>
      </trkpt>
      <trkpt lat="43.5621" lon="2.79556">
        <ele>967.9</ele>
        <time>2021-06-30T16:02:03.999+02:00</time>
      </trkpt>
      <trkpt lat="43.56209" lon="2.79556">
        <ele>967.9</ele>
        <time>2021-06-30T16:02:04.999+02:00</time>
      </trkpt>
      <trkpt lat="43.56209" lon="2.79556">
        <ele>967.9</ele>
        <time>2021-06-30T16:02:05.999+02:00</time>
      </trkpt>
      <trkpt lat="43.56208" lon="2.79556">
        <ele>968</ele>
        <time>2021-06-30T16:02:06.999+02:00</time>
      </trkpt>
      <trkpt lat="43.56208" lon="2.79556">
        <ele>968</ele>
        <time>2021-06-30T16:02:07.999+02:00</time>
      </trkpt>
      <trkpt lat="43.56207" lon="2.79555">
        <ele>968.1</ele>
        <time>2021-06-30T16:02:08.999+02:00</time>
      </trkpt>
      <trkpt lat="43.56207" lon="2.79555">
        <ele>968.1</ele>
        <time>2021-06-30T16:02:09.999+02:00</time>
      </trkpt>
      <trkpt lat="43.56206" lon="2.79555">
        <ele>968.2</ele>
        <time>2021-06-30T16:02:10.999+02:00</time>
      </trkpt>
      <trkpt lat="43.56205" lon="2.79555">
        <ele>968.2</ele>
        <time>2021-06-30T16:02:11.999+02:00</time>
      </trkpt>
      <trkpt lat="43.56204" lon="2.79555">
        <ele>968.3</ele>
        <time>2021-06-30T16:02:12.999+02:00</time>
      </trkpt>
      <trkpt lat="43.56204" lon="2.79555">
        <ele>968.3</ele>
        <time>2021-06-30T16:02:13.999+02:00</time>
      </trkpt>
      <trkpt lat="43.56203" lon="2.79555">
        <ele>968.3</ele>
        <time>2021-06-30T16:02:14.999+02:00</time>
      </trkpt>
      <trkpt lat="43.56202" lon="2.79556">
        <ele>968.4</ele>
        <time>2021-06-30T16:02:15.999+02:00</time>
      </trkpt>
      <trkpt lat="43.56202" lon="2.79556">
        <ele>968.4</ele>
        <time>2021-06-30T16:02:16.999+02:00</time>
      </trkpt>
      <trkpt lat="43.56201" lon="2.79557">
        <ele>968.4</ele>
        <time>2021-06-30T16:02:17.999+02:00</time>
      </trkpt>
      <trkpt lat="43.562" lon="2.79558">
        <ele>968.4</ele>
        <time>2021-06-30T16:02:18.999+02:00</time>
      </trkpt>
      <trkpt lat="43.56199" lon="2.79559">
        <ele>968.4</ele>
        <time>2021-06-30T16:02:19.999+02:00</time>
      </trkpt>
      <trkpt lat="43.56199" lon="2.79559">
        <ele>968.4</ele>
        <time>2021-06-30T16:02:20.999+02:00</time>
      </trkpt>
      <trkpt lat="43.56198" lon="2.7956">
        <ele>968.4</ele>
        <time>2021-06-30T16:02:21.999+02:00</time>
      </trkpt>
      <trkpt lat="43.56197" lon="2.79561">
        <ele>968.5</ele>
        <time>2021-06-30T16:02:22.999+02:00</time>
      </trkpt>
      <trkpt lat="43.56196" lon="2.79562">
        <ele>968.5</ele>
        <time>2021-06-30T16:02:23.999+02:00</time>
      </trkpt>
      <trkpt lat="43.56196" lon="2.79563">
        <ele>968.5</ele>
        <time>2021-06-30T16:02:24.999+02:00</time>
      </trkpt>
      <trkpt lat="43.56194" lon="2.79565">
        <ele>968.5</ele>
        <time>2021-06-30T16:02:25.999+02:00</time>
      </trkpt>
      <trkpt lat="43.56194" lon="2.79566">
        <ele>968.5</ele>
        <time>2021-06-30T16:02:26.999+02:00</time>
      </trkpt>
      <trkpt lat="43.56194" lon="2.79566">
        <ele>968.5</ele>
        <time>2021-06-30T16:02:27.999+02:00</time>
      </trkpt>
      <trkpt lat="43.56193" lon="2.79567">
        <ele>968.5</ele>
        <time>2021-06-30T16:02:28.999+02:00</time>
      </trkpt>
      <trkpt lat="43.56193" lon="2.79567">
        <ele>968.5</ele>
        <time>2021-06-30T16:02:29.999+02:00</time>
      </trkpt>
      <trkpt lat="43.56193" lon="2.79567">
        <ele>968.5</ele>
        <time>2021-06-30T16:02:30.999+02:00</time>
      </trkpt>
      <trkpt lat="43.56193" lon="2.79568">
        <ele>968.5</ele>
        <time>2021-06-30T16:02:31.999+02:00</time>
      </trkpt>
      <trkpt lat="43.56193" lon="2.79567">
        <ele>968.5</ele>
        <time>2021-06-30T16:02:32.999+02:00</time>
      </trkpt>
      <trkpt lat="43.56193" lon="2.79568">
        <ele>968.5</ele>
        <time>2021-06-30T16:02:33.999+02:00</time>
      </trkpt>
      <trkpt lat="43.56193" lon="2.79568">
        <ele>968.5</ele>
        <time>2021-06-30T16:02:34.999+02:00</time>
      </trkpt>
      <trkpt lat="43.56193" lon="2.79568">
        <ele>968.5</ele>
        <time>2021-06-30T16:02:35.999+02:00</time>
      </trkpt>
      <trkpt lat="43.56193" lon="2.79569">
        <ele>968.4</ele>
        <time>2021-06-30T16:02:36.999+02:00</time>
      </trkpt>
      <trkpt lat="43.56191" lon="2.79569">
        <ele>968.6</ele>
        <time>2021-06-30T16:02:37.999+02:00</time>
      </trkpt>
      <trkpt lat="43.5619" lon="2.79569">
        <ele>968.6</ele>
        <time>2021-06-30T16:02:38.999+02:00</time>
      </trkpt>
      <trkpt lat="43.5619" lon="2.7957">
        <ele>968.6</ele>
        <time>2021-06-30T16:02:39.999+02:00</time>
      </trkpt>
      <trkpt lat="43.56189" lon="2.7957">
        <ele>968.7</ele>
        <time>2021-06-30T16:02:40.999+02:00</time>
      </trkpt>
      <trkpt lat="43.56188" lon="2.79571">
        <ele>968.7</ele>
        <time>2021-06-30T16:02:41.999+02:00</time>
      </trkpt>
      <trkpt lat="43.56187" lon="2.79571">
        <ele>968.7</ele>
        <time>2021-06-30T16:02:42.999+02:00</time>
      </trkpt>
      <trkpt lat="43.56186" lon="2.79572">
        <ele>968.8</ele>
        <time>2021-06-30T16:02:43.999+02:00</time>
      </trkpt>
      <trkpt lat="43.56186" lon="2.79573">
        <ele>968.8</ele>
        <time>2021-06-30T16:02:44.999+02:00</time>
      </trkpt>
      <trkpt lat="43.56186" lon="2.79572">
        <ele>968.8</ele>
        <time>2021-06-30T16:02:45.999+02:00</time>
      </trkpt>
      <trkpt lat="43.56186" lon="2.79573">
        <ele>968.8</ele>
        <time>2021-06-30T16:02:46.999+02:00</time>
      </trkpt>
      <trkpt lat="43.56186" lon="2.79573">
        <ele>968.8</ele>
        <time>2021-06-30T16:02:47.999+02:00</time>
      </trkpt>
      <trkpt lat="43.56186" lon="2.79573">
        <ele>968.8</ele>
        <time>2021-06-30T16:02:48.999+02:00</time>
      </trkpt>
      <trkpt lat="43.56186" lon="2.79573">
        <ele>968.7</ele>
        <time>2021-06-30T16:02:49.999+02:00</time>
      </trkpt>
      <trkpt lat="43.56186" lon="2.79574">
        <ele>968.7</ele>
        <time>2021-06-30T16:02:50.999+02:00</time>
      </trkpt>
      <trkpt lat="43.56186" lon="2.79574">
        <ele>968.7</ele>
        <time>2021-06-30T16:02:51.999+02:00</time>
      </trkpt>
      <trkpt lat="43.56186" lon="2.79576">
        <ele>968.6</ele>
        <time>2021-06-30T16:02:52.999+02:00</time>
      </trkpt>
      <trkpt lat="43.56185" lon="2.79577">
        <ele>968.6</ele>
        <time>2021-06-30T16:02:53.999+02:00</time>
      </trkpt>
      <trkpt lat="43.56185" lon="2.79578">
        <ele>968.7</ele>
        <time>2021-06-30T16:02:54.999+02:00</time>
      </trkpt>
      <trkpt lat="43.56184" lon="2.79578">
        <ele>968.8</ele>
        <time>2021-06-30T16:02:55.999+02:00</time>
      </trkpt>
      <trkpt lat="43.56183" lon="2.79577">
        <ele>968.9</ele>
        <time>2021-06-30T16:02:56.999+02:00</time>
      </trkpt>
      <trkpt lat="43.56183" lon="2.79578">
        <ele>968.9</ele>
        <time>2021-06-30T16:02:57.999+02:00</time>
      </trkpt>
      <trkpt lat="43.56182" lon="2.79577">
        <ele>968.9</ele>
        <time>2021-06-30T16:02:58.999+02:00</time>
      </trkpt>
      <trkpt lat="43.56181" lon="2.79577">
        <ele>969</ele>
        <time>2021-06-30T16:02:59.999+02:00</time>
      </trkpt>
      <trkpt lat="43.5618" lon="2.79577">
        <ele>969.1</ele>
        <time>2021-06-30T16:03:00.999+02:00</time>
      </trkpt>
      <trkpt lat="43.56179" lon="2.79576">
        <ele>969.2</ele>
        <time>2021-06-30T16:03:01.999+02:00</time>
      </trkpt>
      <trkpt lat="43.56178" lon="2.79576">
        <ele>969.3</ele>
        <time>2021-06-30T16:03:02.999+02:00</time>
      </trkpt>
      <trkpt lat="43.56177" lon="2.79576">
        <ele>969.4</ele>
        <time>2021-06-30T16:03:03.999+02:00</time>
      </trkpt>
      <trkpt lat="43.56176" lon="2.79575">
        <ele>969.5</ele>
        <time>2021-06-30T16:03:04.999+02:00</time>
      </trkpt>
      <trkpt lat="43.56176" lon="2.79575">
        <ele>969.5</ele>
        <time>2021-06-30T16:03:05.999+02:00</time>
      </trkpt>
      <trkpt lat="43.56176" lon="2.79575">
        <ele>969.5</ele>
        <time>2021-06-30T16:03:06.999+02:00</time>
      </trkpt>
      <trkpt lat="43.56176" lon="2.79575">
        <ele>969.5</ele>
        <time>2021-06-30T16:03:07.999+02:00</time>
      </trkpt>
      <trkpt lat="43.56176" lon="2.79575">
        <ele>969.5</ele>
        <time>2021-06-30T16:03:08.999+02:00</time>
      </trkpt>
      <trkpt lat="43.56175" lon="2.79575">
        <ele>969.5</ele>
        <time>2021-06-30T16:03:09.999+02:00</time>
      </trkpt>
      <trkpt lat="43.56175" lon="2.79575">
        <ele>969.5</ele>
        <time>2021-06-30T16:03:10.999+02:00</time>
      </trkpt>
      <trkpt lat="43.56175" lon="2.79574">
        <ele>969.6</ele>
        <time>2021-06-30T16:03:11.999+02:00</time>
      </trkpt>
      <trkpt lat="43.56175" lon="2.79575">
        <ele>969.6</ele>
        <time>2021-06-30T16:03:12.999+02:00</time>
      </trkpt>
      <trkpt lat="43.56174" lon="2.79575">
        <ele>969.6</ele>
        <time>2021-06-30T16:03:13.999+02:00</time>
      </trkpt>
      <trkpt lat="43.56173" lon="2.79575">
        <ele>969.7</ele>
        <time>2021-06-30T16:03:14.999+02:00</time>
      </trkpt>
      <trkpt lat="43.56173" lon="2.79575">
        <ele>969.7</ele>
        <time>2021-06-30T16:03:15.999+02:00</time>
      </trkpt>
      <trkpt lat="43.56172" lon="2.79575">
        <ele>969.8</ele>
        <time>2021-06-30T16:03:16.999+02:00</time>
      </trkpt>
      <trkpt lat="43.56172" lon="2.79574">
        <ele>969.8</ele>
        <time>2021-06-30T16:03:17.999+02:00</time>
      </trkpt>
      <trkpt lat="43.56172" lon="2.79574">
        <ele>969.8</ele>
        <time>2021-06-30T16:03:18.999+02:00</time>
      </trkpt>
      <trkpt lat="43.56171" lon="2.79574">
        <ele>969.8</ele>
        <time>2021-06-30T16:03:19.999+02:00</time>
      </trkpt>
      <trkpt lat="43.56171" lon="2.79574">
        <ele>969.9</ele>
        <time>2021-06-30T16:03:20.999+02:00</time>
      </trkpt>
      <trkpt lat="43.5617" lon="2.79574">
        <ele>969.9</ele>
        <time>2021-06-30T16:03:21.999+02:00</time>
      </trkpt>
      <trkpt lat="43.5617" lon="2.79574">
        <ele>970</ele>
        <time>2021-06-30T16:03:22.999+02:00</time>
      </trkpt>
      <trkpt lat="43.56168" lon="2.79573">
        <ele>970.1</ele>
        <time>2021-06-30T16:03:23.999+02:00</time>
      </trkpt>
      <trkpt lat="43.56167" lon="2.79573">
        <ele>970.2</ele>
        <time>2021-06-30T16:03:24.999+02:00</time>
      </trkpt>
      <trkpt lat="43.56166" lon="2.79573">
        <ele>970.2</ele>
        <time>2021-06-30T16:03:25.999+02:00</time>
      </trkpt>
      <trkpt lat="43.56165" lon="2.79573">
        <ele>970.1</ele>
        <time>2021-06-30T16:03:26.999+02:00</time>
      </trkpt>
      <trkpt lat="43.56163" lon="2.79572">
        <ele>970</ele>
        <time>2021-06-30T16:03:27.999+02:00</time>
      </trkpt>
      <trkpt lat="43.56161" lon="2.79571">
        <ele>969.8</ele>
        <time>2021-06-30T16:03:28.999+02:00</time>
      </trkpt>
      <trkpt lat="43.5616" lon="2.79571">
        <ele>969.7</ele>
        <time>2021-06-30T16:03:29.999+02:00</time>
      </trkpt>
      <trkpt lat="43.56159" lon="2.79571">
        <ele>969.6</ele>
        <time>2021-06-30T16:03:30.999+02:00</time>
      </trkpt>
      <trkpt lat="43.56158" lon="2.7957">
        <ele>969.5</ele>
        <time>2021-06-30T16:03:31.999+02:00</time>
      </trkpt>
      <trkpt lat="43.56157" lon="2.7957">
        <ele>969.4</ele>
        <time>2021-06-30T16:03:32.999+02:00</time>
      </trkpt>
      <trkpt lat="43.56156" lon="2.7957">
        <ele>969.4</ele>
        <time>2021-06-30T16:03:33.999+02:00</time>
      </trkpt>
      <trkpt lat="43.56156" lon="2.79569">
        <ele>969.4</ele>
        <time>2021-06-30T16:03:34.999+02:00</time>
      </trkpt>
      <trkpt lat="43.56155" lon="2.7957">
        <ele>969.3</ele>
        <time>2021-06-30T16:03:35.999+02:00</time>
      </trkpt>
      <trkpt lat="43.56153" lon="2.79569">
        <ele>969.2</ele>
        <time>2021-06-30T16:03:36.999+02:00</time>
      </trkpt>
      <trkpt lat="43.56152" lon="2.79568">
        <ele>969.1</ele>
        <time>2021-06-30T16:03:37.999+02:00</time>
      </trkpt>
      <trkpt lat="43.56151" lon="2.79568">
        <ele>969</ele>
        <time>2021-06-30T16:03:38.999+02:00</time>
      </trkpt>
      <trkpt lat="43.5615" lon="2.79567">
        <ele>968.9</ele>
        <time>2021-06-30T16:03:39.999+02:00</time>
      </trkpt>
      <trkpt lat="43.5615" lon="2.79566">
        <ele>968.9</ele>
        <time>2021-06-30T16:03:40.999+02:00</time>
      </trkpt>
      <trkpt lat="43.56149" lon="2.79565">
        <ele>968.9</ele>
        <time>2021-06-30T16:03:41.999+02:00</time>
      </trkpt>
      <trkpt lat="43.56148" lon="2.79563">
        <ele>968.9</ele>
        <time>2021-06-30T16:03:42.999+02:00</time>
      </trkpt>
      <trkpt lat="43.56148" lon="2.79561">
        <ele>968.8</ele>
        <time>2021-06-30T16:03:43.999+02:00</time>
      </trkpt>
      <trkpt lat="43.56148" lon="2.7956">
        <ele>968.8</ele>
        <time>2021-06-30T16:03:44.999+02:00</time>
      </trkpt>
      <trkpt lat="43.56147" lon="2.79558">
        <ele>968.8</ele>
        <time>2021-06-30T16:03:45.999+02:00</time>
      </trkpt>
      <trkpt lat="43.56147" lon="2.79556">
        <ele>968.9</ele>
        <time>2021-06-30T16:03:46.999+02:00</time>
      </trkpt>
      <trkpt lat="43.56147" lon="2.79553">
        <ele>968.9</ele>
        <time>2021-06-30T16:03:47.999+02:00</time>
      </trkpt>
      <trkpt lat="43.56147" lon="2.79552">
        <ele>968.9</ele>
        <time>2021-06-30T16:03:48.999+02:00</time>
      </trkpt>
      <trkpt lat="43.56147" lon="2.7955">
        <ele>968.9</ele>
        <time>2021-06-30T16:03:49.999+02:00</time>
      </trkpt>
      <trkpt lat="43.56146" lon="2.79549">
        <ele>968.9</ele>
        <time>2021-06-30T16:03:50.999+02:00</time>
      </trkpt>
      <trkpt lat="43.56146" lon="2.79547">
        <ele>968.9</ele>
        <time>2021-06-30T16:03:51.999+02:00</time>
      </trkpt>
      <trkpt lat="43.56145" lon="2.79545">
        <ele>968.9</ele>
        <time>2021-06-30T16:03:52.999+02:00</time>
      </trkpt>
      <trkpt lat="43.56145" lon="2.79544">
        <ele>968.9</ele>
        <time>2021-06-30T16:03:53.999+02:00</time>
      </trkpt>
      <trkpt lat="43.56145" lon="2.79543">
        <ele>968.9</ele>
        <time>2021-06-30T16:03:54.999+02:00</time>
      </trkpt>
      <trkpt lat="43.56144" lon="2.79541">
        <ele>968.9</ele>
        <time>2021-06-30T16:03:55.999+02:00</time>
      </trkpt>
      <trkpt lat="43.56144" lon="2.79539">
        <ele>968.9</ele>
        <time>2021-06-30T16:03:56.999+02:00</time>
      </trkpt>
      <trkpt lat="43.56144" lon="2.79538">
        <ele>968.9</ele>
        <time>2021-06-30T16:03:57.999+02:00</time>
      </trkpt>
      <trkpt lat="43.56145" lon="2.79537">
        <ele>969</ele>
        <time>2021-06-30T16:03:58.999+02:00</time>
      </trkpt>
      <trkpt lat="43.56145" lon="2.79535">
        <ele>969.1</ele>
        <time>2021-06-30T16:03:59.999+02:00</time>
      </trkpt>
      <trkpt lat="43.56146" lon="2.79533">
        <ele>969.2</ele>
        <time>2021-06-30T16:04:00.999+02:00</time>
      </trkpt>
      <trkpt lat="43.56147" lon="2.79531">
        <ele>969.3</ele>
        <time>2021-06-30T16:04:01.999+02:00</time>
      </trkpt>
      <trkpt lat="43.56148" lon="2.7953">
        <ele>969.4</ele>
        <time>2021-06-30T16:04:02.999+02:00</time>
      </trkpt>
      <trkpt lat="43.56148" lon="2.79528">
        <ele>969.5</ele>
        <time>2021-06-30T16:04:03.999+02:00</time>
      </trkpt>
      <trkpt lat="43.56148" lon="2.79528">
        <ele>969.5</ele>
        <time>2021-06-30T16:04:04.999+02:00</time>
      </trkpt>
      <trkpt lat="43.56149" lon="2.79527">
        <ele>969.5</ele>
        <time>2021-06-30T16:04:05.999+02:00</time>
      </trkpt>
      <trkpt lat="43.56149" lon="2.79525">
        <ele>969.6</ele>
        <time>2021-06-30T16:04:06.999+02:00</time>
      </trkpt>
      <trkpt lat="43.56149" lon="2.79523">
        <ele>969.7</ele>
        <time>2021-06-30T16:04:07.999+02:00</time>
      </trkpt>
      <trkpt lat="43.56149" lon="2.79522">
        <ele>969.7</ele>
        <time>2021-06-30T16:04:08.999+02:00</time>
      </trkpt>
      <trkpt lat="43.56149" lon="2.79521">
        <ele>969.7</ele>
        <time>2021-06-30T16:04:09.999+02:00</time>
      </trkpt>
      <trkpt lat="43.56149" lon="2.7952">
        <ele>969.7</ele>
        <time>2021-06-30T16:04:10.999+02:00</time>
      </trkpt>
      <trkpt lat="43.56149" lon="2.79519">
        <ele>969.8</ele>
        <time>2021-06-30T16:04:11.999+02:00</time>
      </trkpt>
      <trkpt lat="43.5615" lon="2.79518">
        <ele>969.8</ele>
        <time>2021-06-30T16:04:12.999+02:00</time>
      </trkpt>
      <trkpt lat="43.5615" lon="2.79518">
        <ele>969.8</ele>
        <time>2021-06-30T16:04:13.999+02:00</time>
      </trkpt>
      <trkpt lat="43.5615" lon="2.79517">
        <ele>969.9</ele>
        <time>2021-06-30T16:04:14.999+02:00</time>
      </trkpt>
      <trkpt lat="43.5615" lon="2.79516">
        <ele>969.9</ele>
        <time>2021-06-30T16:04:15.999+02:00</time>
      </trkpt>
      <trkpt lat="43.56151" lon="2.79515">
        <ele>970</ele>
        <time>2021-06-30T16:04:16.999+02:00</time>
      </trkpt>
      <trkpt lat="43.56151" lon="2.79514">
        <ele>970.1</ele>
        <time>2021-06-30T16:04:17.999+02:00</time>
      </trkpt>
      <trkpt lat="43.56152" lon="2.79512">
        <ele>970.2</ele>
        <time>2021-06-30T16:04:18.999+02:00</time>
      </trkpt>
      <trkpt lat="43.56153" lon="2.79512">
        <ele>970.3</ele>
        <time>2021-06-30T16:04:19.999+02:00</time>
      </trkpt>
      <trkpt lat="43.56153" lon="2.7951">
        <ele>970.3</ele>
        <time>2021-06-30T16:04:20.999+02:00</time>
      </trkpt>
      <trkpt lat="43.56153" lon="2.79509">
        <ele>970.4</ele>
        <time>2021-06-30T16:04:21.999+02:00</time>
      </trkpt>
      <trkpt lat="43.56154" lon="2.79509">
        <ele>970.4</ele>
        <time>2021-06-30T16:04:22.999+02:00</time>
      </trkpt>
      <trkpt lat="43.56154" lon="2.79508">
        <ele>970.5</ele>
        <time>2021-06-30T16:04:23.999+02:00</time>
      </trkpt>
      <trkpt lat="43.56154" lon="2.79507">
        <ele>970.5</ele>
        <time>2021-06-30T16:04:24.999+02:00</time>
      </trkpt>
      <trkpt lat="43.56155" lon="2.79506">
        <ele>970.6</ele>
        <time>2021-06-30T16:04:25.999+02:00</time>
      </trkpt>
      <trkpt lat="43.56155" lon="2.79505">
        <ele>970.7</ele>
        <time>2021-06-30T16:04:26.999+02:00</time>
      </trkpt>
      <trkpt lat="43.56156" lon="2.79504">
        <ele>970.8</ele>
        <time>2021-06-30T16:04:27.999+02:00</time>
      </trkpt>
      <trkpt lat="43.56156" lon="2.79502">
        <ele>970.8</ele>
        <time>2021-06-30T16:04:28.999+02:00</time>
      </trkpt>
      <trkpt lat="43.56156" lon="2.79501">
        <ele>970.9</ele>
        <time>2021-06-30T16:04:29.999+02:00</time>
      </trkpt>
      <trkpt lat="43.56156" lon="2.79499">
        <ele>970.9</ele>
        <time>2021-06-30T16:04:30.999+02:00</time>
      </trkpt>
      <trkpt lat="43.56156" lon="2.79498">
        <ele>970.8</ele>
        <time>2021-06-30T16:04:31.999+02:00</time>
      </trkpt>
      <trkpt lat="43.56156" lon="2.79497">
        <ele>970.9</ele>
        <time>2021-06-30T16:04:32.999+02:00</time>
      </trkpt>
      <trkpt lat="43.56157" lon="2.79495">
        <ele>970.9</ele>
        <time>2021-06-30T16:04:33.999+02:00</time>
      </trkpt>
      <trkpt lat="43.56157" lon="2.79494">
        <ele>970.9</ele>
        <time>2021-06-30T16:04:34.999+02:00</time>
      </trkpt>
      <trkpt lat="43.56157" lon="2.79492">
        <ele>970.9</ele>
        <time>2021-06-30T16:04:35.999+02:00</time>
      </trkpt>
      <trkpt lat="43.56157" lon="2.79492">
        <ele>970.9</ele>
        <time>2021-06-30T16:04:36.999+02:00</time>
      </trkpt>
      <trkpt lat="43.56157" lon="2.79491">
        <ele>970.9</ele>
        <time>2021-06-30T16:04:37.999+02:00</time>
      </trkpt>
      <trkpt lat="43.56158" lon="2.7949">
        <ele>971</ele>
        <time>2021-06-30T16:04:38.999+02:00</time>
      </trkpt>
      <trkpt lat="43.56158" lon="2.79488">
        <ele>971</ele>
        <time>2021-06-30T16:04:39.999+02:00</time>
      </trkpt>
      <trkpt lat="43.56158" lon="2.79487">
        <ele>970.9</ele>
        <time>2021-06-30T16:04:40.999+02:00</time>
      </trkpt>
      <trkpt lat="43.56158" lon="2.79486">
        <ele>970.9</ele>
        <time>2021-06-30T16:04:41.999+02:00</time>
      </trkpt>
      <trkpt lat="43.56158" lon="2.79484">
        <ele>970.9</ele>
        <time>2021-06-30T16:04:42.999+02:00</time>
      </trkpt>
      <trkpt lat="43.56158" lon="2.79483">
        <ele>970.9</ele>
        <time>2021-06-30T16:04:43.999+02:00</time>
      </trkpt>
      <trkpt lat="43.56159" lon="2.79481">
        <ele>971</ele>
        <time>2021-06-30T16:04:44.999+02:00</time>
      </trkpt>
      <trkpt lat="43.56158" lon="2.7948">
        <ele>970.9</ele>
        <time>2021-06-30T16:04:45.999+02:00</time>
      </trkpt>
      <trkpt lat="43.56158" lon="2.79479">
        <ele>970.9</ele>
        <time>2021-06-30T16:04:46.999+02:00</time>
      </trkpt>
      <trkpt lat="43.56158" lon="2.79478">
        <ele>970.9</ele>
        <time>2021-06-30T16:04:47.999+02:00</time>
      </trkpt>
      <trkpt lat="43.56157" lon="2.79476">
        <ele>970.8</ele>
        <time>2021-06-30T16:04:48.999+02:00</time>
      </trkpt>
      <trkpt lat="43.56157" lon="2.79475">
        <ele>970.8</ele>
        <time>2021-06-30T16:04:49.999+02:00</time>
      </trkpt>
      <trkpt lat="43.56157" lon="2.79474">
        <ele>970.8</ele>
        <time>2021-06-30T16:04:50.999+02:00</time>
      </trkpt>
      <trkpt lat="43.56157" lon="2.79474">
        <ele>970.8</ele>
        <time>2021-06-30T16:04:51.999+02:00</time>
      </trkpt>
      <trkpt lat="43.56158" lon="2.79473">
        <ele>970.8</ele>
        <time>2021-06-30T16:04:52.999+02:00</time>
      </trkpt>
      <trkpt lat="43.56158" lon="2.79472">
        <ele>970.8</ele>
        <time>2021-06-30T16:04:53.999+02:00</time>
      </trkpt>
      <trkpt lat="43.56158" lon="2.79472">
        <ele>970.8</ele>
        <time>2021-06-30T16:04:54.999+02:00</time>
      </trkpt>
      <trkpt lat="43.56157" lon="2.79471">
        <ele>970.8</ele>
        <time>2021-06-30T16:04:55.999+02:00</time>
      </trkpt>
      <trkpt lat="43.56157" lon="2.79471">
        <ele>970.8</ele>
        <time>2021-06-30T16:04:56.999+02:00</time>
      </trkpt>
      <trkpt lat="43.56157" lon="2.79471">
        <ele>970.8</ele>
        <time>2021-06-30T16:04:57.999+02:00</time>
      </trkpt>
      <trkpt lat="43.56157" lon="2.7947">
        <ele>970.8</ele>
        <time>2021-06-30T16:04:58.999+02:00</time>
      </trkpt>
      <trkpt lat="43.56157" lon="2.79469">
        <ele>970.8</ele>
        <time>2021-06-30T16:04:59.999+02:00</time>
      </trkpt>
      <trkpt lat="43.56157" lon="2.79469">
        <ele>970.8</ele>
        <time>2021-06-30T16:05:00.999+02:00</time>
      </trkpt>
      <trkpt lat="43.56158" lon="2.79467">
        <ele>970.8</ele>
        <time>2021-06-30T16:05:01.999+02:00</time>
      </trkpt>
      <trkpt lat="43.56158" lon="2.79467">
        <ele>970.8</ele>
        <time>2021-06-30T16:05:02.999+02:00</time>
      </trkpt>
      <trkpt lat="43.56158" lon="2.79467">
        <ele>970.8</ele>
        <time>2021-06-30T16:05:03.999+02:00</time>
      </trkpt>
      <trkpt lat="43.56159" lon="2.79466">
        <ele>970.8</ele>
        <time>2021-06-30T16:05:04.999+02:00</time>
      </trkpt>
      <trkpt lat="43.56159" lon="2.79466">
        <ele>970.9</ele>
        <time>2021-06-30T16:05:05.999+02:00</time>
      </trkpt>
      <trkpt lat="43.5616" lon="2.79465">
        <ele>970.9</ele>
        <time>2021-06-30T16:05:06.999+02:00</time>
      </trkpt>
      <trkpt lat="43.5616" lon="2.79464">
        <ele>970.9</ele>
        <time>2021-06-30T16:05:07.999+02:00</time>
      </trkpt>
      <trkpt lat="43.5616" lon="2.79464">
        <ele>970.9</ele>
        <time>2021-06-30T16:05:08.999+02:00</time>
      </trkpt>
      <trkpt lat="43.56161" lon="2.79462">
        <ele>970.9</ele>
        <time>2021-06-30T16:05:09.999+02:00</time>
      </trkpt>
      <trkpt lat="43.56161" lon="2.7946">
        <ele>970.8</ele>
        <time>2021-06-30T16:05:10.999+02:00</time>
      </trkpt>
      <trkpt lat="43.56161" lon="2.79458">
        <ele>970.8</ele>
        <time>2021-06-30T16:05:11.999+02:00</time>
      </trkpt>
      <trkpt lat="43.56161" lon="2.79457">
        <ele>970.8</ele>
        <time>2021-06-30T16:05:12.999+02:00</time>
      </trkpt>
      <trkpt lat="43.56161" lon="2.79456">
        <ele>970.8</ele>
        <time>2021-06-30T16:05:13.999+02:00</time>
      </trkpt>
      <trkpt lat="43.56161" lon="2.79455">
        <ele>970.8</ele>
        <time>2021-06-30T16:05:14.999+02:00</time>
      </trkpt>
      <trkpt lat="43.56161" lon="2.79455">
        <ele>970.8</ele>
        <time>2021-06-30T16:05:15.999+02:00</time>
      </trkpt>
      <trkpt lat="43.56161" lon="2.79455">
        <ele>970.8</ele>
        <time>2021-06-30T16:05:16.999+02:00</time>
      </trkpt>
      <trkpt lat="43.56161" lon="2.79454">
        <ele>970.8</ele>
        <time>2021-06-30T16:05:17.999+02:00</time>
      </trkpt>
      <trkpt lat="43.56161" lon="2.79454">
        <ele>970.8</ele>
        <time>2021-06-30T16:05:18.999+02:00</time>
      </trkpt>
      <trkpt lat="43.56161" lon="2.79453">
        <ele>970.8</ele>
        <time>2021-06-30T16:05:19.999+02:00</time>
      </trkpt>
      <trkpt lat="43.5616" lon="2.79451">
        <ele>970.7</ele>
        <time>2021-06-30T16:05:20.999+02:00</time>
      </trkpt>
      <trkpt lat="43.5616" lon="2.79449">
        <ele>970.7</ele>
        <time>2021-06-30T16:05:21.999+02:00</time>
      </trkpt>
      <trkpt lat="43.5616" lon="2.79447">
        <ele>970.7</ele>
        <time>2021-06-30T16:05:22.999+02:00</time>
      </trkpt>
      <trkpt lat="43.56159" lon="2.79446">
        <ele>970.6</ele>
        <time>2021-06-30T16:05:23.999+02:00</time>
      </trkpt>
      <trkpt lat="43.56159" lon="2.79444">
        <ele>970.6</ele>
        <time>2021-06-30T16:05:24.999+02:00</time>
      </trkpt>
      <trkpt lat="43.56159" lon="2.79443">
        <ele>970.6</ele>
        <time>2021-06-30T16:05:25.999+02:00</time>
      </trkpt>
      <trkpt lat="43.56158" lon="2.79441">
        <ele>970.6</ele>
        <time>2021-06-30T16:05:26.999+02:00</time>
      </trkpt>
      <trkpt lat="43.56158" lon="2.7944">
        <ele>970.6</ele>
        <time>2021-06-30T16:05:27.999+02:00</time>
      </trkpt>
      <trkpt lat="43.56158" lon="2.79438">
        <ele>970.6</ele>
        <time>2021-06-30T16:05:28.999+02:00</time>
      </trkpt>
      <trkpt lat="43.56158" lon="2.79437">
        <ele>970.6</ele>
        <time>2021-06-30T16:05:29.999+02:00</time>
      </trkpt>
      <trkpt lat="43.56158" lon="2.79435">
        <ele>970.6</ele>
        <time>2021-06-30T16:05:30.999+02:00</time>
      </trkpt>
      <trkpt lat="43.56157" lon="2.79434">
        <ele>970.6</ele>
        <time>2021-06-30T16:05:31.999+02:00</time>
      </trkpt>
      <trkpt lat="43.56157" lon="2.79433">
        <ele>970.6</ele>
        <time>2021-06-30T16:05:32.999+02:00</time>
      </trkpt>
      <trkpt lat="43.56157" lon="2.79432">
        <ele>970.6</ele>
        <time>2021-06-30T16:05:33.999+02:00</time>
      </trkpt>
      <trkpt lat="43.56157" lon="2.79431">
        <ele>970.5</ele>
        <time>2021-06-30T16:05:34.999+02:00</time>
      </trkpt>
      <trkpt lat="43.56157" lon="2.7943">
        <ele>970.5</ele>
        <time>2021-06-30T16:05:35.999+02:00</time>
      </trkpt>
      <trkpt lat="43.56157" lon="2.79429">
        <ele>970.5</ele>
        <time>2021-06-30T16:05:36.999+02:00</time>
      </trkpt>
      <trkpt lat="43.56157" lon="2.79428">
        <ele>970.5</ele>
        <time>2021-06-30T16:05:37.999+02:00</time>
      </trkpt>
      <trkpt lat="43.56157" lon="2.79427">
        <ele>970.5</ele>
        <time>2021-06-30T16:05:38.999+02:00</time>
      </trkpt>
      <trkpt lat="43.56157" lon="2.79425">
        <ele>970.5</ele>
        <time>2021-06-30T16:05:39.999+02:00</time>
      </trkpt>
      <trkpt lat="43.56157" lon="2.79421">
        <ele>970.5</ele>
        <time>2021-06-30T16:05:40.999+02:00</time>
      </trkpt>
      <trkpt lat="43.56157" lon="2.79418">
        <ele>970.5</ele>
        <time>2021-06-30T16:05:41.999+02:00</time>
      </trkpt>
      <trkpt lat="43.56157" lon="2.79417">
        <ele>970.5</ele>
        <time>2021-06-30T16:05:42.999+02:00</time>
      </trkpt>
      <trkpt lat="43.56157" lon="2.79415">
        <ele>970.5</ele>
        <time>2021-06-30T16:05:43.999+02:00</time>
      </trkpt>
      <trkpt lat="43.56157" lon="2.79413">
        <ele>970.5</ele>
        <time>2021-06-30T16:05:44.999+02:00</time>
      </trkpt>
      <trkpt lat="43.56157" lon="2.79411">
        <ele>970.5</ele>
        <time>2021-06-30T16:05:45.999+02:00</time>
      </trkpt>
      <trkpt lat="43.56157" lon="2.79409">
        <ele>970.5</ele>
        <time>2021-06-30T16:05:46.999+02:00</time>
      </trkpt>
      <trkpt lat="43.56157" lon="2.79408">
        <ele>970.5</ele>
        <time>2021-06-30T16:05:47.999+02:00</time>
      </trkpt>
      <trkpt lat="43.56157" lon="2.79406">
        <ele>970.5</ele>
        <time>2021-06-30T16:05:48.999+02:00</time>
      </trkpt>
      <trkpt lat="43.56158" lon="2.79405">
        <ele>970.4</ele>
        <time>2021-06-30T16:05:49.999+02:00</time>
      </trkpt>
      <trkpt lat="43.56158" lon="2.79404">
        <ele>970.4</ele>
        <time>2021-06-30T16:05:50.999+02:00</time>
      </trkpt>
      <trkpt lat="43.56158" lon="2.79402">
        <ele>970.4</ele>
        <time>2021-06-30T16:05:51.999+02:00</time>
      </trkpt>
      <trkpt lat="43.56158" lon="2.794">
        <ele>970.4</ele>
        <time>2021-06-30T16:05:52.999+02:00</time>
      </trkpt>
      <trkpt lat="43.56158" lon="2.79399">
        <ele>970.4</ele>
        <time>2021-06-30T16:05:53.999+02:00</time>
      </trkpt>
      <trkpt lat="43.56158" lon="2.79398">
        <ele>970.4</ele>
        <time>2021-06-30T16:05:54.999+02:00</time>
      </trkpt>
      <trkpt lat="43.56158" lon="2.79396">
        <ele>970.4</ele>
        <time>2021-06-30T16:05:55.999+02:00</time>
      </trkpt>
      <trkpt lat="43.56158" lon="2.79395">
        <ele>970.4</ele>
        <time>2021-06-30T16:05:56.999+02:00</time>
      </trkpt>
      <trkpt lat="43.56158" lon="2.79394">
        <ele>970.4</ele>
        <time>2021-06-30T16:05:57.999+02:00</time>
      </trkpt>
      <trkpt lat="43.56159" lon="2.79393">
        <ele>970.3</ele>
        <time>2021-06-30T16:05:58.999+02:00</time>
      </trkpt>
      <trkpt lat="43.56159" lon="2.79392">
        <ele>970.3</ele>
        <time>2021-06-30T16:05:59.999+02:00</time>
      </trkpt>
      <trkpt lat="43.5616" lon="2.79391">
        <ele>970.3</ele>
        <time>2021-06-30T16:06:00.999+02:00</time>
      </trkpt>
      <trkpt lat="43.56159" lon="2.7939">
        <ele>970.3</ele>
        <time>2021-06-30T16:06:01.999+02:00</time>
      </trkpt>
      <trkpt lat="43.5616" lon="2.7939">
        <ele>970.3</ele>
        <time>2021-06-30T16:06:02.999+02:00</time>
      </trkpt>
      <trkpt lat="43.56159" lon="2.79388">
        <ele>970.3</ele>
        <time>2021-06-30T16:06:03.999+02:00</time>
      </trkpt>
      <trkpt lat="43.56159" lon="2.79388">
        <ele>970.3</ele>
        <time>2021-06-30T16:06:04.999+02:00</time>
      </trkpt>
      <trkpt lat="43.56159" lon="2.79387">
        <ele>970.3</ele>
        <time>2021-06-30T16:06:05.999+02:00</time>
      </trkpt>
      <trkpt lat="43.56159" lon="2.79386">
        <ele>970.3</ele>
        <time>2021-06-30T16:06:06.999+02:00</time>
      </trkpt>
      <trkpt lat="43.56159" lon="2.79386">
        <ele>970.3</ele>
        <time>2021-06-30T16:06:07.999+02:00</time>
      </trkpt>
      <trkpt lat="43.56159" lon="2.79386">
        <ele>970.3</ele>
        <time>2021-06-30T16:06:08.999+02:00</time>
      </trkpt>
      <trkpt lat="43.56159" lon="2.79386">
        <ele>970.3</ele>
        <time>2021-06-30T16:06:09.999+02:00</time>
      </trkpt>
      <trkpt lat="43.56159" lon="2.79385">
        <ele>970.3</ele>
        <time>2021-06-30T16:06:10.999+02:00</time>
      </trkpt>
      <trkpt lat="43.56159" lon="2.79384">
        <ele>970.3</ele>
        <time>2021-06-30T16:06:11.999+02:00</time>
      </trkpt>
      <trkpt lat="43.56159" lon="2.79383">
        <ele>970.3</ele>
        <time>2021-06-30T16:06:12.999+02:00</time>
      </trkpt>
      <trkpt lat="43.56159" lon="2.79383">
        <ele>970.3</ele>
        <time>2021-06-30T16:06:13.999+02:00</time>
      </trkpt>
      <trkpt lat="43.56159" lon="2.79381">
        <ele>970.3</ele>
        <time>2021-06-30T16:06:14.999+02:00</time>
      </trkpt>
      <trkpt lat="43.56159" lon="2.7938">
        <ele>970.3</ele>
        <time>2021-06-30T16:06:15.999+02:00</time>
      </trkpt>
      <trkpt lat="43.56159" lon="2.79378">
        <ele>970.3</ele>
        <time>2021-06-30T16:06:16.999+02:00</time>
      </trkpt>
      <trkpt lat="43.56159" lon="2.79377">
        <ele>970.3</ele>
        <time>2021-06-30T16:06:17.999+02:00</time>
      </trkpt>
      <trkpt lat="43.56159" lon="2.79376">
        <ele>970.3</ele>
        <time>2021-06-30T16:06:18.999+02:00</time>
      </trkpt>
      <trkpt lat="43.56159" lon="2.79374">
        <ele>970.3</ele>
        <time>2021-06-30T16:06:19.999+02:00</time>
      </trkpt>
      <trkpt lat="43.56159" lon="2.79373">
        <ele>970.3</ele>
        <time>2021-06-30T16:06:20.999+02:00</time>
      </trkpt>
      <trkpt lat="43.56158" lon="2.79373">
        <ele>970.3</ele>
        <time>2021-06-30T16:06:21.999+02:00</time>
      </trkpt>
      <trkpt lat="43.56159" lon="2.7937">
        <ele>970.3</ele>
        <time>2021-06-30T16:06:22.999+02:00</time>
      </trkpt>
      <trkpt lat="43.56158" lon="2.79369">
        <ele>970.4</ele>
        <time>2021-06-30T16:06:23.999+02:00</time>
      </trkpt>
      <trkpt lat="43.56158" lon="2.79368">
        <ele>970.4</ele>
        <time>2021-06-30T16:06:24.999+02:00</time>
      </trkpt>
      <trkpt lat="43.56158" lon="2.79367">
        <ele>970.4</ele>
        <time>2021-06-30T16:06:25.999+02:00</time>
      </trkpt>
      <trkpt lat="43.56158" lon="2.79367">
        <ele>970.4</ele>
        <time>2021-06-30T16:06:26.999+02:00</time>
      </trkpt>
      <trkpt lat="43.56158" lon="2.79366">
        <ele>970.4</ele>
        <time>2021-06-30T16:06:27.999+02:00</time>
      </trkpt>
      <trkpt lat="43.56158" lon="2.79366">
        <ele>970.3</ele>
        <time>2021-06-30T16:06:28.999+02:00</time>
      </trkpt>
      <trkpt lat="43.56158" lon="2.79365">
        <ele>970.3</ele>
        <time>2021-06-30T16:06:29.999+02:00</time>
      </trkpt>
      <trkpt lat="43.56158" lon="2.79365">
        <ele>970.3</ele>
        <time>2021-06-30T16:06:30.999+02:00</time>
      </trkpt>
      <trkpt lat="43.56158" lon="2.79365">
        <ele>970.3</ele>
        <time>2021-06-30T16:06:31.999+02:00</time>
      </trkpt>
      <trkpt lat="43.56158" lon="2.79364">
        <ele>970.4</ele>
        <time>2021-06-30T16:06:32.999+02:00</time>
      </trkpt>
      <trkpt lat="43.56158" lon="2.79364">
        <ele>970.3</ele>
        <time>2021-06-30T16:06:33.999+02:00</time>
      </trkpt>
      <trkpt lat="43.56158" lon="2.79364">
        <ele>970.3</ele>
        <time>2021-06-30T16:06:34.999+02:00</time>
      </trkpt>
      <trkpt lat="43.56158" lon="2.79364">
        <ele>970.3</ele>
        <time>2021-06-30T16:06:35.999+02:00</time>
      </trkpt>
      <trkpt lat="43.56158" lon="2.79364">
        <ele>970.3</ele>
        <time>2021-06-30T16:06:36.999+02:00</time>
      </trkpt>
      <trkpt lat="43.56158" lon="2.79364">
        <ele>970.4</ele>
        <time>2021-06-30T16:06:37.999+02:00</time>
      </trkpt>
      <trkpt lat="43.56158" lon="2.79363">
        <ele>970.4</ele>
        <time>2021-06-30T16:06:38.999+02:00</time>
      </trkpt>
      <trkpt lat="43.56158" lon="2.79363">
        <ele>970.4</ele>
        <time>2021-06-30T16:06:39.999+02:00</time>
      </trkpt>
      <trkpt lat="43.56158" lon="2.79363">
        <ele>970.4</ele>
        <time>2021-06-30T16:06:40.999+02:00</time>
      </trkpt>
      <trkpt lat="43.56158" lon="2.79363">
        <ele>970.4</ele>
        <time>2021-06-30T16:06:41.999+02:00</time>
      </trkpt>
      <trkpt lat="43.56158" lon="2.79362">
        <ele>970.4</ele>
        <time>2021-06-30T16:06:42.999+02:00</time>
      </trkpt>
      <trkpt lat="43.56157" lon="2.79358">
        <ele>970.5</ele>
        <time>2021-06-30T16:06:43.999+02:00</time>
      </trkpt>
      <trkpt lat="43.56156" lon="2.79356">
        <ele>970.6</ele>
        <time>2021-06-30T16:06:44.999+02:00</time>
      </trkpt>
      <trkpt lat="43.56157" lon="2.79355">
        <ele>970.5</ele>
        <time>2021-06-30T16:06:45.999+02:00</time>
      </trkpt>
      <trkpt lat="43.56157" lon="2.79354">
        <ele>970.5</ele>
        <time>2021-06-30T16:06:46.999+02:00</time>
      </trkpt>
      <trkpt lat="43.56157" lon="2.79354">
        <ele>970.5</ele>
        <time>2021-06-30T16:06:47.999+02:00</time>
      </trkpt>
      <trkpt lat="43.56157" lon="2.79354">
        <ele>970.5</ele>
        <time>2021-06-30T16:06:48.999+02:00</time>
      </trkpt>
      <trkpt lat="43.56157" lon="2.79353">
        <ele>970.5</ele>
        <time>2021-06-30T16:06:49.999+02:00</time>
      </trkpt>
      <trkpt lat="43.56157" lon="2.79354">
        <ele>970.5</ele>
        <time>2021-06-30T16:06:50.999+02:00</time>
      </trkpt>
      <trkpt lat="43.56157" lon="2.79355">
        <ele>970.4</ele>
        <time>2021-06-30T16:06:51.999+02:00</time>
      </trkpt>
      <trkpt lat="43.56157" lon="2.79355">
        <ele>970.5</ele>
        <time>2021-06-30T16:06:52.999+02:00</time>
      </trkpt>
      <trkpt lat="43.56158" lon="2.79356">
        <ele>970.4</ele>
        <time>2021-06-30T16:06:53.999+02:00</time>
      </trkpt>
      <trkpt lat="43.56158" lon="2.79356">
        <ele>970.4</ele>
        <time>2021-06-30T16:06:54.999+02:00</time>
      </trkpt>
      <trkpt lat="43.56158" lon="2.79357">
        <ele>970.4</ele>
        <time>2021-06-30T16:06:55.999+02:00</time>
      </trkpt>
      <trkpt lat="43.56158" lon="2.79358">
        <ele>970.4</ele>
        <time>2021-06-30T16:06:56.999+02:00</time>
      </trkpt>
      <trkpt lat="43.56157" lon="2.79359">
        <ele>970.5</ele>
        <time>2021-06-30T16:06:57.999+02:00</time>
      </trkpt>
      <trkpt lat="43.56156" lon="2.79359">
        <ele>970.6</ele>
        <time>2021-06-30T16:06:58.999+02:00</time>
      </trkpt>
      <trkpt lat="43.56155" lon="2.79359">
        <ele>970.8</ele>
        <time>2021-06-30T16:06:59.999+02:00</time>
      </trkpt>
      <trkpt lat="43.56154" lon="2.79358">
        <ele>970.8</ele>
        <time>2021-06-30T16:07:00.999+02:00</time>
      </trkpt>
      <trkpt lat="43.56154" lon="2.79358">
        <ele>970.8</ele>
        <time>2021-06-30T16:07:01.999+02:00</time>
      </trkpt>
      <trkpt lat="43.56154" lon="2.79358">
        <ele>970.9</ele>
        <time>2021-06-30T16:07:02.999+02:00</time>
      </trkpt>
      <trkpt lat="43.56154" lon="2.79358">
        <ele>970.9</ele>
        <time>2021-06-30T16:07:03.999+02:00</time>
      </trkpt>
      <trkpt lat="43.56154" lon="2.79358">
        <ele>970.9</ele>
        <time>2021-06-30T16:07:04.999+02:00</time>
      </trkpt>
      <trkpt lat="43.56154" lon="2.79357">
        <ele>970.9</ele>
        <time>2021-06-30T16:07:05.999+02:00</time>
      </trkpt>
      <trkpt lat="43.56154" lon="2.79357">
        <ele>970.9</ele>
        <time>2021-06-30T16:07:06.999+02:00</time>
      </trkpt>
      <trkpt lat="43.56153" lon="2.79356">
        <ele>971</ele>
        <time>2021-06-30T16:07:07.999+02:00</time>
      </trkpt>
      <trkpt lat="43.56153" lon="2.79355">
        <ele>971</ele>
        <time>2021-06-30T16:07:08.999+02:00</time>
      </trkpt>
      <trkpt lat="43.56152" lon="2.79354">
        <ele>971.1</ele>
        <time>2021-06-30T16:07:09.999+02:00</time>
      </trkpt>
      <trkpt lat="43.56152" lon="2.79353">
        <ele>971.2</ele>
        <time>2021-06-30T16:07:10.999+02:00</time>
      </trkpt>
      <trkpt lat="43.56152" lon="2.79352">
        <ele>971.2</ele>
        <time>2021-06-30T16:07:11.999+02:00</time>
      </trkpt>
      <trkpt lat="43.56151" lon="2.79351">
        <ele>971.3</ele>
        <time>2021-06-30T16:07:12.999+02:00</time>
      </trkpt>
      <trkpt lat="43.56151" lon="2.7935">
        <ele>971.3</ele>
        <time>2021-06-30T16:07:13.999+02:00</time>
      </trkpt>
      <trkpt lat="43.56151" lon="2.7935">
        <ele>971.3</ele>
        <time>2021-06-30T16:07:14.999+02:00</time>
      </trkpt>
      <trkpt lat="43.56149" lon="2.79349">
        <ele>971.6</ele>
        <time>2021-06-30T16:07:15.999+02:00</time>
      </trkpt>
      <trkpt lat="43.56148" lon="2.79348">
        <ele>971.8</ele>
        <time>2021-06-30T16:07:16.999+02:00</time>
      </trkpt>
      <trkpt lat="43.56147" lon="2.79346">
        <ele>971.8</ele>
        <time>2021-06-30T16:07:17.999+02:00</time>
      </trkpt>
      <trkpt lat="43.56147" lon="2.79345">
        <ele>972</ele>
        <time>2021-06-30T16:07:18.999+02:00</time>
      </trkpt>
      <trkpt lat="43.56145" lon="2.79344">
        <ele>972.2</ele>
        <time>2021-06-30T16:07:19.999+02:00</time>
      </trkpt>
      <trkpt lat="43.56144" lon="2.79342">
        <ele>972.4</ele>
        <time>2021-06-30T16:07:20.999+02:00</time>
      </trkpt>
      <trkpt lat="43.56144" lon="2.79342">
        <ele>972.5</ele>
        <time>2021-06-30T16:07:21.999+02:00</time>
      </trkpt>
      <trkpt lat="43.56143" lon="2.79341">
        <ele>972.5</ele>
        <time>2021-06-30T16:07:22.999+02:00</time>
      </trkpt>
      <trkpt lat="43.56143" lon="2.7934">
        <ele>972.6</ele>
        <time>2021-06-30T16:07:23.999+02:00</time>
      </trkpt>
      <trkpt lat="43.56142" lon="2.7934">
        <ele>972.8</ele>
        <time>2021-06-30T16:07:24.999+02:00</time>
      </trkpt>
      <trkpt lat="43.5614" lon="2.7934">
        <ele>973</ele>
        <time>2021-06-30T16:07:25.999+02:00</time>
      </trkpt>
      <trkpt lat="43.56139" lon="2.7934">
        <ele>973.1</ele>
        <time>2021-06-30T16:07:26.999+02:00</time>
      </trkpt>
      <trkpt lat="43.56138" lon="2.79339">
        <ele>973.4</ele>
        <time>2021-06-30T16:07:27.999+02:00</time>
      </trkpt>
      <trkpt lat="43.56137" lon="2.79338">
        <ele>973.5</ele>
        <time>2021-06-30T16:07:28.999+02:00</time>
      </trkpt>
      <trkpt lat="43.56137" lon="2.79338">
        <ele>973.6</ele>
        <time>2021-06-30T16:07:29.999+02:00</time>
      </trkpt>
      <trkpt lat="43.56137" lon="2.79337">
        <ele>973.5</ele>
        <time>2021-06-30T16:07:30.999+02:00</time>
      </trkpt>
      <trkpt lat="43.56136" lon="2.79337">
        <ele>973.6</ele>
        <time>2021-06-30T16:07:31.999+02:00</time>
      </trkpt>
      <trkpt lat="43.56136" lon="2.79337">
        <ele>973.7</ele>
        <time>2021-06-30T16:07:32.999+02:00</time>
      </trkpt>
      <trkpt lat="43.56135" lon="2.79336">
        <ele>973.8</ele>
        <time>2021-06-30T16:07:33.999+02:00</time>
      </trkpt>
      <trkpt lat="43.56134" lon="2.79336">
        <ele>973.9</ele>
        <time>2021-06-30T16:07:34.999+02:00</time>
      </trkpt>
      <trkpt lat="43.56134" lon="2.79336">
        <ele>974</ele>
        <time>2021-06-30T16:07:35.999+02:00</time>
      </trkpt>
      <trkpt lat="43.56134" lon="2.79335">
        <ele>974</ele>
        <time>2021-06-30T16:07:36.999+02:00</time>
      </trkpt>
      <trkpt lat="43.56134" lon="2.79335">
        <ele>974</ele>
        <time>2021-06-30T16:07:37.999+02:00</time>
      </trkpt>
      <trkpt lat="43.56134" lon="2.79335">
        <ele>974</ele>
        <time>2021-06-30T16:07:38.999+02:00</time>
      </trkpt>
      <trkpt lat="43.56134" lon="2.79335">
        <ele>974</ele>
        <time>2021-06-30T16:07:39.999+02:00</time>
      </trkpt>
      <trkpt lat="43.56134" lon="2.79335">
        <ele>974</ele>
        <time>2021-06-30T16:07:40.999+02:00</time>
      </trkpt>
      <trkpt lat="43.56134" lon="2.79335">
        <ele>974</ele>
        <time>2021-06-30T16:07:41.999+02:00</time>
      </trkpt>
      <trkpt lat="43.56134" lon="2.79335">
        <ele>974</ele>
        <time>2021-06-30T16:07:42.999+02:00</time>
      </trkpt>
      <trkpt lat="43.56134" lon="2.79335">
        <ele>974</ele>
        <time>2021-06-30T16:07:43.999+02:00</time>
      </trkpt>
      <trkpt lat="43.56134" lon="2.79335">
        <ele>974</ele>
        <time>2021-06-30T16:07:44.999+02:00</time>
      </trkpt>
      <trkpt lat="43.56132" lon="2.79333">
        <ele>974.4</ele>
        <time>2021-06-30T16:07:45.999+02:00</time>
      </trkpt>
      <trkpt lat="43.5613" lon="2.79332">
        <ele>974.8</ele>
        <time>2021-06-30T16:07:46.999+02:00</time>
      </trkpt>
      <trkpt lat="43.56129" lon="2.79331">
        <ele>975.1</ele>
        <time>2021-06-30T16:07:47.999+02:00</time>
      </trkpt>
      <trkpt lat="43.56129" lon="2.7933">
        <ele>975.3</ele>
        <time>2021-06-30T16:07:48.999+02:00</time>
      </trkpt>
      <trkpt lat="43.56128" lon="2.7933">
        <ele>975.5</ele>
        <time>2021-06-30T16:07:49.999+02:00</time>
      </trkpt>
      <trkpt lat="43.56128" lon="2.7933">
        <ele>975.4</ele>
        <time>2021-06-30T16:07:50.999+02:00</time>
      </trkpt>
      <trkpt lat="43.56128" lon="2.79328">
        <ele>975.6</ele>
        <time>2021-06-30T16:07:51.999+02:00</time>
      </trkpt>
      <trkpt lat="43.56127" lon="2.79329">
        <ele>975.6</ele>
        <time>2021-06-30T16:07:52.999+02:00</time>
      </trkpt>
      <trkpt lat="43.56128" lon="2.79323">
        <ele>976</ele>
        <time>2021-06-30T16:07:53.999+02:00</time>
      </trkpt>
      <trkpt lat="43.56126" lon="2.79322">
        <ele>976.4</ele>
        <time>2021-06-30T16:07:54.999+02:00</time>
      </trkpt>
      <trkpt lat="43.56128" lon="2.79317">
        <ele>976.7</ele>
        <time>2021-06-30T16:07:55.999+02:00</time>
      </trkpt>
      <trkpt lat="43.56127" lon="2.79315">
        <ele>977</ele>
        <time>2021-06-30T16:07:56.999+02:00</time>
      </trkpt>
      <trkpt lat="43.56128" lon="2.79314">
        <ele>976.9</ele>
        <time>2021-06-30T16:07:57.999+02:00</time>
      </trkpt>
      <trkpt lat="43.56129" lon="2.79315">
        <ele>976.7</ele>
        <time>2021-06-30T16:07:58.999+02:00</time>
      </trkpt>
      <trkpt lat="43.56129" lon="2.79317">
        <ele>976.5</ele>
        <time>2021-06-30T16:07:59.999+02:00</time>
      </trkpt>
      <trkpt lat="43.56129" lon="2.79319">
        <ele>976.3</ele>
        <time>2021-06-30T16:08:00.999+02:00</time>
      </trkpt>
      <trkpt lat="43.56129" lon="2.79318">
        <ele>976.4</ele>
        <time>2021-06-30T16:08:01.999+02:00</time>
      </trkpt>
      <trkpt lat="43.56129" lon="2.79317">
        <ele>976.5</ele>
        <time>2021-06-30T16:08:02.999+02:00</time>
      </trkpt>
      <trkpt lat="43.56127" lon="2.79318">
        <ele>976.7</ele>
        <time>2021-06-30T16:08:03.999+02:00</time>
      </trkpt>
      <trkpt lat="43.56126" lon="2.79319">
        <ele>976.8</ele>
        <time>2021-06-30T16:08:04.999+02:00</time>
      </trkpt>
      <trkpt lat="43.56125" lon="2.7932">
        <ele>976.8</ele>
        <time>2021-06-30T16:08:05.999+02:00</time>
      </trkpt>
      <trkpt lat="43.56125" lon="2.79319">
        <ele>976.9</ele>
        <time>2021-06-30T16:08:06.999+02:00</time>
      </trkpt>
      <trkpt lat="43.56125" lon="2.79319">
        <ele>976.9</ele>
        <time>2021-06-30T16:08:07.999+02:00</time>
      </trkpt>
      <trkpt lat="43.56122" lon="2.79322">
        <ele>977</ele>
        <time>2021-06-30T16:08:08.999+02:00</time>
      </trkpt>
      <trkpt lat="43.56122" lon="2.79323">
        <ele>977</ele>
        <time>2021-06-30T16:08:09.999+02:00</time>
      </trkpt>
      <trkpt lat="43.56121" lon="2.79324">
        <ele>977</ele>
        <time>2021-06-30T16:08:10.999+02:00</time>
      </trkpt>
      <trkpt lat="43.5612" lon="2.79325">
        <ele>977</ele>
        <time>2021-06-30T16:08:11.999+02:00</time>
      </trkpt>
      <trkpt lat="43.56119" lon="2.79326">
        <ele>977.1</ele>
        <time>2021-06-30T16:08:12.999+02:00</time>
      </trkpt>
      <trkpt lat="43.56119" lon="2.79326">
        <ele>977.1</ele>
        <time>2021-06-30T16:08:13.999+02:00</time>
      </trkpt>
      <trkpt lat="43.56119" lon="2.79327">
        <ele>977.1</ele>
        <time>2021-06-30T16:08:14.999+02:00</time>
      </trkpt>
      <trkpt lat="43.56118" lon="2.79327">
        <ele>977.2</ele>
        <time>2021-06-30T16:08:15.999+02:00</time>
      </trkpt>
      <trkpt lat="43.56117" lon="2.79327">
        <ele>977.4</ele>
        <time>2021-06-30T16:08:16.999+02:00</time>
      </trkpt>
      <trkpt lat="43.56116" lon="2.79327">
        <ele>977.5</ele>
        <time>2021-06-30T16:08:17.999+02:00</time>
      </trkpt>
      <trkpt lat="43.56114" lon="2.79328">
        <ele>977.6</ele>
        <time>2021-06-30T16:08:18.999+02:00</time>
      </trkpt>
      <trkpt lat="43.56113" lon="2.79329">
        <ele>977.7</ele>
        <time>2021-06-30T16:08:19.999+02:00</time>
      </trkpt>
      <trkpt lat="43.56113" lon="2.79329">
        <ele>977.8</ele>
        <time>2021-06-30T16:08:20.999+02:00</time>
      </trkpt>
      <trkpt lat="43.56111" lon="2.7933">
        <ele>977.9</ele>
        <time>2021-06-30T16:08:21.999+02:00</time>
      </trkpt>
      <trkpt lat="43.5611" lon="2.7933">
        <ele>978.1</ele>
        <time>2021-06-30T16:08:22.999+02:00</time>
      </trkpt>
      <trkpt lat="43.56111" lon="2.7933">
        <ele>978</ele>
        <time>2021-06-30T16:08:23.999+02:00</time>
      </trkpt>
      <trkpt lat="43.5611" lon="2.79331">
        <ele>978</ele>
        <time>2021-06-30T16:08:24.999+02:00</time>
      </trkpt>
      <trkpt lat="43.56109" lon="2.79332">
        <ele>978</ele>
        <time>2021-06-30T16:08:25.999+02:00</time>
      </trkpt>
      <trkpt lat="43.56108" lon="2.79336">
        <ele>977.9</ele>
        <time>2021-06-30T16:08:26.999+02:00</time>
      </trkpt>
      <trkpt lat="43.56108" lon="2.79337">
        <ele>977.9</ele>
        <time>2021-06-30T16:08:27.999+02:00</time>
      </trkpt>
      <trkpt lat="43.56108" lon="2.79338">
        <ele>977.8</ele>
        <time>2021-06-30T16:08:28.999+02:00</time>
      </trkpt>
      <trkpt lat="43.56108" lon="2.79339">
        <ele>977.8</ele>
        <time>2021-06-30T16:08:29.999+02:00</time>
      </trkpt>
      <trkpt lat="43.56107" lon="2.7934">
        <ele>977.8</ele>
        <time>2021-06-30T16:08:30.999+02:00</time>
      </trkpt>
      <trkpt lat="43.56107" lon="2.79341">
        <ele>977.8</ele>
        <time>2021-06-30T16:08:31.999+02:00</time>
      </trkpt>
      <trkpt lat="43.56106" lon="2.79343">
        <ele>977.8</ele>
        <time>2021-06-30T16:08:32.999+02:00</time>
      </trkpt>
      <trkpt lat="43.56106" lon="2.79344">
        <ele>977.8</ele>
        <time>2021-06-30T16:08:33.999+02:00</time>
      </trkpt>
      <trkpt lat="43.56105" lon="2.79345">
        <ele>977.8</ele>
        <time>2021-06-30T16:08:34.999+02:00</time>
      </trkpt>
      <trkpt lat="43.56105" lon="2.79346">
        <ele>977.8</ele>
        <time>2021-06-30T16:08:35.999+02:00</time>
      </trkpt>
      <trkpt lat="43.56105" lon="2.79347">
        <ele>977.7</ele>
        <time>2021-06-30T16:08:36.999+02:00</time>
      </trkpt>
      <trkpt lat="43.56104" lon="2.79349">
        <ele>977.7</ele>
        <time>2021-06-30T16:08:37.999+02:00</time>
      </trkpt>
      <trkpt lat="43.56102" lon="2.79351">
        <ele>977.8</ele>
        <time>2021-06-30T16:08:38.999+02:00</time>
      </trkpt>
      <trkpt lat="43.561" lon="2.79352">
        <ele>978</ele>
        <time>2021-06-30T16:08:39.999+02:00</time>
      </trkpt>
      <trkpt lat="43.56099" lon="2.79353">
        <ele>978</ele>
        <time>2021-06-30T16:08:40.999+02:00</time>
      </trkpt>
      <trkpt lat="43.56099" lon="2.79353">
        <ele>978.1</ele>
        <time>2021-06-30T16:08:41.999+02:00</time>
      </trkpt>
      <trkpt lat="43.56099" lon="2.79353">
        <ele>978.1</ele>
        <time>2021-06-30T16:08:42.999+02:00</time>
      </trkpt>
      <trkpt lat="43.56099" lon="2.79354">
        <ele>978</ele>
        <time>2021-06-30T16:08:43.999+02:00</time>
      </trkpt>
      <trkpt lat="43.56098" lon="2.79355">
        <ele>978.1</ele>
        <time>2021-06-30T16:08:44.999+02:00</time>
      </trkpt>
      <trkpt lat="43.56097" lon="2.79356">
        <ele>978.1</ele>
        <time>2021-06-30T16:08:45.999+02:00</time>
      </trkpt>
      <trkpt lat="43.56096" lon="2.79358">
        <ele>978.1</ele>
        <time>2021-06-30T16:08:46.999+02:00</time>
      </trkpt>
      <trkpt lat="43.56095" lon="2.79358">
        <ele>978.1</ele>
        <time>2021-06-30T16:08:47.999+02:00</time>
      </trkpt>
      <trkpt lat="43.56093" lon="2.7936">
        <ele>978.2</ele>
        <time>2021-06-30T16:08:48.999+02:00</time>
      </trkpt>
      <trkpt lat="43.56093" lon="2.79361">
        <ele>978.2</ele>
        <time>2021-06-30T16:08:49.999+02:00</time>
      </trkpt>
      <trkpt lat="43.56093" lon="2.79362">
        <ele>978.2</ele>
        <time>2021-06-30T16:08:50.999+02:00</time>
      </trkpt>
      <trkpt lat="43.56092" lon="2.79362">
        <ele>978.1</ele>
        <time>2021-06-30T16:08:51.999+02:00</time>
      </trkpt>
      <trkpt lat="43.56092" lon="2.79363">
        <ele>978.1</ele>
        <time>2021-06-30T16:08:52.999+02:00</time>
      </trkpt>
      <trkpt lat="43.56091" lon="2.79365">
        <ele>978.1</ele>
        <time>2021-06-30T16:08:53.999+02:00</time>
      </trkpt>
      <trkpt lat="43.56091" lon="2.79365">
        <ele>978.1</ele>
        <time>2021-06-30T16:08:54.999+02:00</time>
      </trkpt>
      <trkpt lat="43.56091" lon="2.79366">
        <ele>978</ele>
        <time>2021-06-30T16:08:55.999+02:00</time>
      </trkpt>
      <trkpt lat="43.56091" lon="2.79368">
        <ele>977.9</ele>
        <time>2021-06-30T16:08:56.999+02:00</time>
      </trkpt>
      <trkpt lat="43.56091" lon="2.79369">
        <ele>977.8</ele>
        <time>2021-06-30T16:08:57.999+02:00</time>
      </trkpt>
      <trkpt lat="43.56091" lon="2.7937">
        <ele>977.7</ele>
        <time>2021-06-30T16:08:58.999+02:00</time>
      </trkpt>
      <trkpt lat="43.56091" lon="2.79369">
        <ele>977.7</ele>
        <time>2021-06-30T16:08:59.999+02:00</time>
      </trkpt>
      <trkpt lat="43.5609" lon="2.7937">
        <ele>977.7</ele>
        <time>2021-06-30T16:09:00.999+02:00</time>
      </trkpt>
      <trkpt lat="43.5609" lon="2.7937">
        <ele>977.8</ele>
        <time>2021-06-30T16:09:01.999+02:00</time>
      </trkpt>
      <trkpt lat="43.56089" lon="2.7937">
        <ele>977.8</ele>
        <time>2021-06-30T16:09:02.999+02:00</time>
      </trkpt>
      <trkpt lat="43.56089" lon="2.79371">
        <ele>977.8</ele>
        <time>2021-06-30T16:09:03.999+02:00</time>
      </trkpt>
      <trkpt lat="43.56089" lon="2.79371">
        <ele>977.8</ele>
        <time>2021-06-30T16:09:04.999+02:00</time>
      </trkpt>
      <trkpt lat="43.56089" lon="2.79371">
        <ele>977.8</ele>
        <time>2021-06-30T16:09:05.999+02:00</time>
      </trkpt>
      <trkpt lat="43.5609" lon="2.79372">
        <ele>977.6</ele>
        <time>2021-06-30T16:09:06.999+02:00</time>
      </trkpt>
      <trkpt lat="43.5609" lon="2.79374">
        <ele>977.4</ele>
        <time>2021-06-30T16:09:07.999+02:00</time>
      </trkpt>
      <trkpt lat="43.5609" lon="2.79375">
        <ele>977.3</ele>
        <time>2021-06-30T16:09:08.999+02:00</time>
      </trkpt>
      <trkpt lat="43.5609" lon="2.79376">
        <ele>977.2</ele>
        <time>2021-06-30T16:09:09.999+02:00</time>
      </trkpt>
      <trkpt lat="43.5609" lon="2.79378">
        <ele>977.1</ele>
        <time>2021-06-30T16:09:10.999+02:00</time>
      </trkpt>
      <trkpt lat="43.5609" lon="2.7938">
        <ele>976.9</ele>
        <time>2021-06-30T16:09:11.999+02:00</time>
      </trkpt>
      <trkpt lat="43.56089" lon="2.79382">
        <ele>976.8</ele>
        <time>2021-06-30T16:09:12.999+02:00</time>
      </trkpt>
      <trkpt lat="43.56088" lon="2.79384">
        <ele>976.7</ele>
        <time>2021-06-30T16:09:13.999+02:00</time>
      </trkpt>
      <trkpt lat="43.56087" lon="2.79385">
        <ele>976.7</ele>
        <time>2021-06-30T16:09:14.999+02:00</time>
      </trkpt>
      <trkpt lat="43.56087" lon="2.79385">
        <ele>976.7</ele>
        <time>2021-06-30T16:09:15.999+02:00</time>
      </trkpt>
      <trkpt lat="43.56087" lon="2.79386">
        <ele>976.6</ele>
        <time>2021-06-30T16:09:16.999+02:00</time>
      </trkpt>
      <trkpt lat="43.56086" lon="2.79388">
        <ele>976.5</ele>
        <time>2021-06-30T16:09:17.999+02:00</time>
      </trkpt>
      <trkpt lat="43.56086" lon="2.79389">
        <ele>976.5</ele>
        <time>2021-06-30T16:09:18.999+02:00</time>
      </trkpt>
      <trkpt lat="43.56085" lon="2.79391">
        <ele>976.3</ele>
        <time>2021-06-30T16:09:19.999+02:00</time>
      </trkpt>
      <trkpt lat="43.56085" lon="2.79393">
        <ele>976.2</ele>
        <time>2021-06-30T16:09:20.999+02:00</time>
      </trkpt>
      <trkpt lat="43.56084" lon="2.79394">
        <ele>976.1</ele>
        <time>2021-06-30T16:09:21.999+02:00</time>
      </trkpt>
      <trkpt lat="43.56083" lon="2.79395">
        <ele>976.1</ele>
        <time>2021-06-30T16:09:22.999+02:00</time>
      </trkpt>
      <trkpt lat="43.56082" lon="2.79396">
        <ele>976</ele>
        <time>2021-06-30T16:09:23.999+02:00</time>
      </trkpt>
      <trkpt lat="43.56081" lon="2.79398">
        <ele>976</ele>
        <time>2021-06-30T16:09:24.999+02:00</time>
      </trkpt>
      <trkpt lat="43.5608" lon="2.79399">
        <ele>975.9</ele>
        <time>2021-06-30T16:09:25.999+02:00</time>
      </trkpt>
      <trkpt lat="43.5608" lon="2.79401">
        <ele>975.7</ele>
        <time>2021-06-30T16:09:26.999+02:00</time>
      </trkpt>
      <trkpt lat="43.56079" lon="2.79403">
        <ele>975.6</ele>
        <time>2021-06-30T16:09:27.999+02:00</time>
      </trkpt>
      <trkpt lat="43.56078" lon="2.79403">
        <ele>975.6</ele>
        <time>2021-06-30T16:09:28.999+02:00</time>
      </trkpt>
      <trkpt lat="43.56077" lon="2.79405">
        <ele>975.5</ele>
        <time>2021-06-30T16:09:29.999+02:00</time>
      </trkpt>
      <trkpt lat="43.56077" lon="2.79407">
        <ele>975.4</ele>
        <time>2021-06-30T16:09:30.999+02:00</time>
      </trkpt>
      <trkpt lat="43.56076" lon="2.79409">
        <ele>975.2</ele>
        <time>2021-06-30T16:09:31.999+02:00</time>
      </trkpt>
      <trkpt lat="43.56075" lon="2.7941">
        <ele>975.1</ele>
        <time>2021-06-30T16:09:32.999+02:00</time>
      </trkpt>
      <trkpt lat="43.56075" lon="2.79411">
        <ele>975.1</ele>
        <time>2021-06-30T16:09:33.999+02:00</time>
      </trkpt>
      <trkpt lat="43.56074" lon="2.79412">
        <ele>975</ele>
        <time>2021-06-30T16:09:34.999+02:00</time>
      </trkpt>
      <trkpt lat="43.56073" lon="2.79413">
        <ele>975</ele>
        <time>2021-06-30T16:09:35.999+02:00</time>
      </trkpt>
      <trkpt lat="43.56073" lon="2.79413">
        <ele>974.9</ele>
        <time>2021-06-30T16:09:36.999+02:00</time>
      </trkpt>
      <trkpt lat="43.56073" lon="2.79414">
        <ele>974.9</ele>
        <time>2021-06-30T16:09:37.999+02:00</time>
      </trkpt>
      <trkpt lat="43.56072" lon="2.79415">
        <ele>974.8</ele>
        <time>2021-06-30T16:09:38.999+02:00</time>
      </trkpt>
      <trkpt lat="43.56072" lon="2.79415">
        <ele>974.9</ele>
        <time>2021-06-30T16:09:39.999+02:00</time>
      </trkpt>
      <trkpt lat="43.56071" lon="2.79416">
        <ele>974.8</ele>
        <time>2021-06-30T16:09:40.999+02:00</time>
      </trkpt>
      <trkpt lat="43.5607" lon="2.79417">
        <ele>974.7</ele>
        <time>2021-06-30T16:09:41.999+02:00</time>
      </trkpt>
      <trkpt lat="43.5607" lon="2.79419">
        <ele>974.4</ele>
        <time>2021-06-30T16:09:42.999+02:00</time>
      </trkpt>
      <trkpt lat="43.56069" lon="2.79421">
        <ele>974.3</ele>
        <time>2021-06-30T16:09:43.999+02:00</time>
      </trkpt>
      <trkpt lat="43.56068" lon="2.79422">
        <ele>974.2</ele>
        <time>2021-06-30T16:09:44.999+02:00</time>
      </trkpt>
      <trkpt lat="43.56067" lon="2.79424">
        <ele>974</ele>
        <time>2021-06-30T16:09:45.999+02:00</time>
      </trkpt>
      <trkpt lat="43.56066" lon="2.79426">
        <ele>973.7</ele>
        <time>2021-06-30T16:09:46.999+02:00</time>
      </trkpt>
      <trkpt lat="43.56065" lon="2.79427">
        <ele>973.5</ele>
        <time>2021-06-30T16:09:47.999+02:00</time>
      </trkpt>
      <trkpt lat="43.56064" lon="2.79428">
        <ele>973.5</ele>
        <time>2021-06-30T16:09:48.999+02:00</time>
      </trkpt>
      <trkpt lat="43.56063" lon="2.7943">
        <ele>973.3</ele>
        <time>2021-06-30T16:09:49.999+02:00</time>
      </trkpt>
      <trkpt lat="43.56063" lon="2.79431">
        <ele>973.2</ele>
        <time>2021-06-30T16:09:50.999+02:00</time>
      </trkpt>
      <trkpt lat="43.56062" lon="2.79432">
        <ele>973.1</ele>
        <time>2021-06-30T16:09:51.999+02:00</time>
      </trkpt>
      <trkpt lat="43.56061" lon="2.79432">
        <ele>973.1</ele>
        <time>2021-06-30T16:09:52.999+02:00</time>
      </trkpt>
      <trkpt lat="43.5606" lon="2.79432">
        <ele>973.1</ele>
        <time>2021-06-30T16:09:53.999+02:00</time>
      </trkpt>
      <trkpt lat="43.56059" lon="2.79432">
        <ele>973.1</ele>
        <time>2021-06-30T16:09:54.999+02:00</time>
      </trkpt>
      <trkpt lat="43.56058" lon="2.79433">
        <ele>973.1</ele>
        <time>2021-06-30T16:09:55.999+02:00</time>
      </trkpt>
      <trkpt lat="43.56058" lon="2.79433">
        <ele>973.1</ele>
        <time>2021-06-30T16:09:56.999+02:00</time>
      </trkpt>
      <trkpt lat="43.56057" lon="2.79433">
        <ele>973.1</ele>
        <time>2021-06-30T16:09:57.999+02:00</time>
      </trkpt>
      <trkpt lat="43.56057" lon="2.79434">
        <ele>973</ele>
        <time>2021-06-30T16:09:58.999+02:00</time>
      </trkpt>
      <trkpt lat="43.56056" lon="2.79434">
        <ele>973</ele>
        <time>2021-06-30T16:09:59.999+02:00</time>
      </trkpt>
      <trkpt lat="43.56056" lon="2.79435">
        <ele>972.9</ele>
        <time>2021-06-30T16:10:00.999+02:00</time>
      </trkpt>
      <trkpt lat="43.56055" lon="2.79436">
        <ele>972.8</ele>
        <time>2021-06-30T16:10:01.999+02:00</time>
      </trkpt>
      <trkpt lat="43.56055" lon="2.79436">
        <ele>972.8</ele>
        <time>2021-06-30T16:10:02.999+02:00</time>
      </trkpt>
      <trkpt lat="43.56055" lon="2.79436">
        <ele>972.7</ele>
        <time>2021-06-30T16:10:03.999+02:00</time>
      </trkpt>
      <trkpt lat="43.56054" lon="2.79437">
        <ele>972.6</ele>
        <time>2021-06-30T16:10:04.999+02:00</time>
      </trkpt>
      <trkpt lat="43.56054" lon="2.79438">
        <ele>972.6</ele>
        <time>2021-06-30T16:10:05.999+02:00</time>
      </trkpt>
      <trkpt lat="43.56054" lon="2.79439">
        <ele>972.4</ele>
        <time>2021-06-30T16:10:06.999+02:00</time>
      </trkpt>
      <trkpt lat="43.56053" lon="2.79439">
        <ele>972.3</ele>
        <time>2021-06-30T16:10:07.999+02:00</time>
      </trkpt>
      <trkpt lat="43.56052" lon="2.79439">
        <ele>972.3</ele>
        <time>2021-06-30T16:10:08.999+02:00</time>
      </trkpt>
      <trkpt lat="43.56051" lon="2.79441">
        <ele>972.2</ele>
        <time>2021-06-30T16:10:09.999+02:00</time>
      </trkpt>
      <trkpt lat="43.56051" lon="2.79441">
        <ele>972.1</ele>
        <time>2021-06-30T16:10:10.999+02:00</time>
      </trkpt>
      <trkpt lat="43.5605" lon="2.79443">
        <ele>972</ele>
        <time>2021-06-30T16:10:11.999+02:00</time>
      </trkpt>
      <trkpt lat="43.56049" lon="2.79443">
        <ele>971.9</ele>
        <time>2021-06-30T16:10:12.999+02:00</time>
      </trkpt>
      <trkpt lat="43.56049" lon="2.79444">
        <ele>971.8</ele>
        <time>2021-06-30T16:10:13.999+02:00</time>
      </trkpt>
      <trkpt lat="43.56048" lon="2.79444">
        <ele>971.7</ele>
        <time>2021-06-30T16:10:14.999+02:00</time>
      </trkpt>
      <trkpt lat="43.56047" lon="2.79445">
        <ele>971.6</ele>
        <time>2021-06-30T16:10:15.999+02:00</time>
      </trkpt>
      <trkpt lat="43.56047" lon="2.79446">
        <ele>971.6</ele>
        <time>2021-06-30T16:10:16.999+02:00</time>
      </trkpt>
      <trkpt lat="43.56046" lon="2.79447">
        <ele>971.4</ele>
        <time>2021-06-30T16:10:17.999+02:00</time>
      </trkpt>
      <trkpt lat="43.56045" lon="2.79448">
        <ele>971.3</ele>
        <time>2021-06-30T16:10:18.999+02:00</time>
      </trkpt>
      <trkpt lat="43.56044" lon="2.79449">
        <ele>971.2</ele>
        <time>2021-06-30T16:10:19.999+02:00</time>
      </trkpt>
      <trkpt lat="43.56043" lon="2.7945">
        <ele>971.1</ele>
        <time>2021-06-30T16:10:20.999+02:00</time>
      </trkpt>
      <trkpt lat="43.56043" lon="2.7945">
        <ele>971</ele>
        <time>2021-06-30T16:10:21.999+02:00</time>
      </trkpt>
      <trkpt lat="43.56042" lon="2.79451">
        <ele>970.9</ele>
        <time>2021-06-30T16:10:22.999+02:00</time>
      </trkpt>
      <trkpt lat="43.56042" lon="2.79452">
        <ele>970.9</ele>
        <time>2021-06-30T16:10:23.999+02:00</time>
      </trkpt>
      <trkpt lat="43.56041" lon="2.79452">
        <ele>970.7</ele>
        <time>2021-06-30T16:10:24.999+02:00</time>
      </trkpt>
      <trkpt lat="43.56041" lon="2.79453">
        <ele>970.7</ele>
        <time>2021-06-30T16:10:25.999+02:00</time>
      </trkpt>
      <trkpt lat="43.5604" lon="2.79454">
        <ele>970.5</ele>
        <time>2021-06-30T16:10:26.999+02:00</time>
      </trkpt>
      <trkpt lat="43.5604" lon="2.79455">
        <ele>970.4</ele>
        <time>2021-06-30T16:10:27.999+02:00</time>
      </trkpt>
      <trkpt lat="43.56039" lon="2.79455">
        <ele>970.4</ele>
        <time>2021-06-30T16:10:28.999+02:00</time>
      </trkpt>
      <trkpt lat="43.56038" lon="2.79455">
        <ele>970.4</ele>
        <time>2021-06-30T16:10:29.999+02:00</time>
      </trkpt>
      <trkpt lat="43.56037" lon="2.79456">
        <ele>970.4</ele>
        <time>2021-06-30T16:10:30.999+02:00</time>
      </trkpt>
      <trkpt lat="43.56037" lon="2.79456">
        <ele>970.3</ele>
        <time>2021-06-30T16:10:31.999+02:00</time>
      </trkpt>
      <trkpt lat="43.56035" lon="2.79457">
        <ele>970.2</ele>
        <time>2021-06-30T16:10:32.999+02:00</time>
      </trkpt>
      <trkpt lat="43.56034" lon="2.79457">
        <ele>970.1</ele>
        <time>2021-06-30T16:10:33.999+02:00</time>
      </trkpt>
      <trkpt lat="43.56034" lon="2.79458">
        <ele>970.1</ele>
        <time>2021-06-30T16:10:34.999+02:00</time>
      </trkpt>
      <trkpt lat="43.56033" lon="2.79458">
        <ele>970</ele>
        <time>2021-06-30T16:10:35.999+02:00</time>
      </trkpt>
      <trkpt lat="43.56032" lon="2.79459">
        <ele>969.9</ele>
        <time>2021-06-30T16:10:36.999+02:00</time>
      </trkpt>
      <trkpt lat="43.56032" lon="2.7946">
        <ele>969.8</ele>
        <time>2021-06-30T16:10:37.999+02:00</time>
      </trkpt>
      <trkpt lat="43.56031" lon="2.7946">
        <ele>969.8</ele>
        <time>2021-06-30T16:10:38.999+02:00</time>
      </trkpt>
      <trkpt lat="43.56029" lon="2.79461">
        <ele>969.6</ele>
        <time>2021-06-30T16:10:39.999+02:00</time>
      </trkpt>
      <trkpt lat="43.56028" lon="2.79462">
        <ele>969.4</ele>
        <time>2021-06-30T16:10:40.999+02:00</time>
      </trkpt>
      <trkpt lat="43.56027" lon="2.79464">
        <ele>969.3</ele>
        <time>2021-06-30T16:10:41.999+02:00</time>
      </trkpt>
      <trkpt lat="43.56026" lon="2.79465">
        <ele>969.1</ele>
        <time>2021-06-30T16:10:42.999+02:00</time>
      </trkpt>
      <trkpt lat="43.56025" lon="2.79465">
        <ele>969</ele>
        <time>2021-06-30T16:10:43.999+02:00</time>
      </trkpt>
      <trkpt lat="43.56024" lon="2.79466">
        <ele>969</ele>
        <time>2021-06-30T16:10:44.999+02:00</time>
      </trkpt>
      <trkpt lat="43.56023" lon="2.79466">
        <ele>968.9</ele>
        <time>2021-06-30T16:10:45.999+02:00</time>
      </trkpt>
      <trkpt lat="43.56023" lon="2.79466">
        <ele>968.9</ele>
        <time>2021-06-30T16:10:46.999+02:00</time>
      </trkpt>
      <trkpt lat="43.56023" lon="2.79467">
        <ele>968.9</ele>
        <time>2021-06-30T16:10:47.999+02:00</time>
      </trkpt>
      <trkpt lat="43.56022" lon="2.79467">
        <ele>968.8</ele>
        <time>2021-06-30T16:10:48.999+02:00</time>
      </trkpt>
      <trkpt lat="43.56021" lon="2.79468">
        <ele>968.7</ele>
        <time>2021-06-30T16:10:49.999+02:00</time>
      </trkpt>
      <trkpt lat="43.5602" lon="2.79468">
        <ele>968.6</ele>
        <time>2021-06-30T16:10:50.999+02:00</time>
      </trkpt>
      <trkpt lat="43.56019" lon="2.79469">
        <ele>968.6</ele>
        <time>2021-06-30T16:10:51.999+02:00</time>
      </trkpt>
      <trkpt lat="43.56019" lon="2.79469">
        <ele>968.5</ele>
        <time>2021-06-30T16:10:52.999+02:00</time>
      </trkpt>
      <trkpt lat="43.56018" lon="2.7947">
        <ele>968.4</ele>
        <time>2021-06-30T16:10:53.999+02:00</time>
      </trkpt>
      <trkpt lat="43.56017" lon="2.7947">
        <ele>968.3</ele>
        <time>2021-06-30T16:10:54.999+02:00</time>
      </trkpt>
      <trkpt lat="43.56017" lon="2.79471">
        <ele>968.1</ele>
        <time>2021-06-30T16:10:55.999+02:00</time>
      </trkpt>
      <trkpt lat="43.56016" lon="2.79472">
        <ele>968</ele>
        <time>2021-06-30T16:10:56.999+02:00</time>
      </trkpt>
      <trkpt lat="43.56015" lon="2.79473">
        <ele>967.9</ele>
        <time>2021-06-30T16:10:57.999+02:00</time>
      </trkpt>
      <trkpt lat="43.56014" lon="2.79474">
        <ele>967.8</ele>
        <time>2021-06-30T16:10:58.999+02:00</time>
      </trkpt>
      <trkpt lat="43.56013" lon="2.79474">
        <ele>967.7</ele>
        <time>2021-06-30T16:10:59.999+02:00</time>
      </trkpt>
      <trkpt lat="43.56012" lon="2.79475">
        <ele>967.6</ele>
        <time>2021-06-30T16:11:00.999+02:00</time>
      </trkpt>
      <trkpt lat="43.56011" lon="2.79476">
        <ele>967.4</ele>
        <time>2021-06-30T16:11:01.999+02:00</time>
      </trkpt>
      <trkpt lat="43.5601" lon="2.79476">
        <ele>967.4</ele>
        <time>2021-06-30T16:11:02.999+02:00</time>
      </trkpt>
      <trkpt lat="43.5601" lon="2.79477">
        <ele>967.3</ele>
        <time>2021-06-30T16:11:03.999+02:00</time>
      </trkpt>
      <trkpt lat="43.56009" lon="2.79477">
        <ele>967.3</ele>
        <time>2021-06-30T16:11:04.999+02:00</time>
      </trkpt>
      <trkpt lat="43.56009" lon="2.79477">
        <ele>967.2</ele>
        <time>2021-06-30T16:11:05.999+02:00</time>
      </trkpt>
      <trkpt lat="43.56008" lon="2.79478">
        <ele>967.1</ele>
        <time>2021-06-30T16:11:06.999+02:00</time>
      </trkpt>
      <trkpt lat="43.56007" lon="2.79479">
        <ele>966.9</ele>
        <time>2021-06-30T16:11:07.999+02:00</time>
      </trkpt>
      <trkpt lat="43.56006" lon="2.79481">
        <ele>966.6</ele>
        <time>2021-06-30T16:11:08.999+02:00</time>
      </trkpt>
      <trkpt lat="43.56005" lon="2.79482">
        <ele>966.4</ele>
        <time>2021-06-30T16:11:09.999+02:00</time>
      </trkpt>
      <trkpt lat="43.56004" lon="2.79483">
        <ele>966.3</ele>
        <time>2021-06-30T16:11:10.999+02:00</time>
      </trkpt>
      <trkpt lat="43.56004" lon="2.79483">
        <ele>966.1</ele>
        <time>2021-06-30T16:11:11.999+02:00</time>
      </trkpt>
      <trkpt lat="43.56003" lon="2.79484">
        <ele>966</ele>
        <time>2021-06-30T16:11:12.999+02:00</time>
      </trkpt>
      <trkpt lat="43.56003" lon="2.79485">
        <ele>965.8</ele>
        <time>2021-06-30T16:11:13.999+02:00</time>
      </trkpt>
      <trkpt lat="43.56003" lon="2.79486">
        <ele>965.7</ele>
        <time>2021-06-30T16:11:14.999+02:00</time>
      </trkpt>
      <trkpt lat="43.56003" lon="2.79486">
        <ele>965.6</ele>
        <time>2021-06-30T16:11:15.999+02:00</time>
      </trkpt>
      <trkpt lat="43.56002" lon="2.79487">
        <ele>965.5</ele>
        <time>2021-06-30T16:11:16.999+02:00</time>
      </trkpt>
      <trkpt lat="43.56002" lon="2.79488">
        <ele>965.4</ele>
        <time>2021-06-30T16:11:17.999+02:00</time>
      </trkpt>
      <trkpt lat="43.56001" lon="2.79489">
        <ele>965.1</ele>
        <time>2021-06-30T16:11:18.999+02:00</time>
      </trkpt>
      <trkpt lat="43.56" lon="2.79489">
        <ele>965</ele>
        <time>2021-06-30T16:11:19.999+02:00</time>
      </trkpt>
      <trkpt lat="43.56" lon="2.7949">
        <ele>965</ele>
        <time>2021-06-30T16:11:20.999+02:00</time>
      </trkpt>
      <trkpt lat="43.55999" lon="2.79491">
        <ele>964.9</ele>
        <time>2021-06-30T16:11:21.999+02:00</time>
      </trkpt>
      <trkpt lat="43.55999" lon="2.79491">
        <ele>964.9</ele>
        <time>2021-06-30T16:11:22.999+02:00</time>
      </trkpt>
      <trkpt lat="43.55999" lon="2.79491">
        <ele>964.9</ele>
        <time>2021-06-30T16:11:23.999+02:00</time>
      </trkpt>
      <trkpt lat="43.55998" lon="2.79491">
        <ele>964.9</ele>
        <time>2021-06-30T16:11:24.999+02:00</time>
      </trkpt>
      <trkpt lat="43.55998" lon="2.79491">
        <ele>964.9</ele>
        <time>2021-06-30T16:11:25.999+02:00</time>
      </trkpt>
      <trkpt lat="43.55998" lon="2.79492">
        <ele>964.9</ele>
        <time>2021-06-30T16:11:26.999+02:00</time>
      </trkpt>
      <trkpt lat="43.55998" lon="2.79492">
        <ele>964.9</ele>
        <time>2021-06-30T16:11:27.999+02:00</time>
      </trkpt>
      <trkpt lat="43.55996" lon="2.79493">
        <ele>965</ele>
        <time>2021-06-30T16:11:28.999+02:00</time>
      </trkpt>
      <trkpt lat="43.55996" lon="2.79494">
        <ele>965</ele>
        <time>2021-06-30T16:11:29.999+02:00</time>
      </trkpt>
      <trkpt lat="43.55995" lon="2.79495">
        <ele>964.9</ele>
        <time>2021-06-30T16:11:30.999+02:00</time>
      </trkpt>
      <trkpt lat="43.55994" lon="2.79496">
        <ele>964.8</ele>
        <time>2021-06-30T16:11:31.999+02:00</time>
      </trkpt>
      <trkpt lat="43.55993" lon="2.79498">
        <ele>964.8</ele>
        <time>2021-06-30T16:11:32.999+02:00</time>
      </trkpt>
      <trkpt lat="43.55992" lon="2.79498">
        <ele>964.7</ele>
        <time>2021-06-30T16:11:33.999+02:00</time>
      </trkpt>
      <trkpt lat="43.55992" lon="2.79499">
        <ele>964.8</ele>
        <time>2021-06-30T16:11:34.999+02:00</time>
      </trkpt>
      <trkpt lat="43.55991" lon="2.795">
        <ele>964.7</ele>
        <time>2021-06-30T16:11:35.999+02:00</time>
      </trkpt>
      <trkpt lat="43.5599" lon="2.795">
        <ele>964.8</ele>
        <time>2021-06-30T16:11:36.999+02:00</time>
      </trkpt>
      <trkpt lat="43.5599" lon="2.79501">
        <ele>964.8</ele>
        <time>2021-06-30T16:11:37.999+02:00</time>
      </trkpt>
      <trkpt lat="43.55989" lon="2.79501">
        <ele>964.9</ele>
        <time>2021-06-30T16:11:38.999+02:00</time>
      </trkpt>
      <trkpt lat="43.55989" lon="2.79501">
        <ele>965</ele>
        <time>2021-06-30T16:11:39.999+02:00</time>
      </trkpt>
      <trkpt lat="43.55988" lon="2.79501">
        <ele>965.1</ele>
        <time>2021-06-30T16:11:40.999+02:00</time>
      </trkpt>
      <trkpt lat="43.55988" lon="2.79502">
        <ele>965.1</ele>
        <time>2021-06-30T16:11:41.999+02:00</time>
      </trkpt>
      <trkpt lat="43.55988" lon="2.79502">
        <ele>965.1</ele>
        <time>2021-06-30T16:11:42.999+02:00</time>
      </trkpt>
      <trkpt lat="43.55988" lon="2.79502">
        <ele>965.1</ele>
        <time>2021-06-30T16:11:43.999+02:00</time>
      </trkpt>
      <trkpt lat="43.55986" lon="2.79503">
        <ele>965.4</ele>
        <time>2021-06-30T16:11:44.999+02:00</time>
      </trkpt>
      <trkpt lat="43.55986" lon="2.79504">
        <ele>965.4</ele>
        <time>2021-06-30T16:11:45.999+02:00</time>
      </trkpt>
      <trkpt lat="43.55986" lon="2.79504">
        <ele>965.4</ele>
        <time>2021-06-30T16:11:46.999+02:00</time>
      </trkpt>
      <trkpt lat="43.55985" lon="2.79505">
        <ele>965.5</ele>
        <time>2021-06-30T16:11:47.999+02:00</time>
      </trkpt>
      <trkpt lat="43.55984" lon="2.79506">
        <ele>965.7</ele>
        <time>2021-06-30T16:11:48.999+02:00</time>
      </trkpt>
      <trkpt lat="43.55983" lon="2.79508">
        <ele>965.8</ele>
        <time>2021-06-30T16:11:49.999+02:00</time>
      </trkpt>
      <trkpt lat="43.55981" lon="2.79509">
        <ele>966</ele>
        <time>2021-06-30T16:11:50.999+02:00</time>
      </trkpt>
      <trkpt lat="43.55981" lon="2.79511">
        <ele>966</ele>
        <time>2021-06-30T16:11:51.999+02:00</time>
      </trkpt>
      <trkpt lat="43.55979" lon="2.79513">
        <ele>966.2</ele>
        <time>2021-06-30T16:11:52.999+02:00</time>
      </trkpt>
      <trkpt lat="43.55979" lon="2.79514">
        <ele>966.2</ele>
        <time>2021-06-30T16:11:53.999+02:00</time>
      </trkpt>
      <trkpt lat="43.55977" lon="2.79515">
        <ele>966.3</ele>
        <time>2021-06-30T16:11:54.999+02:00</time>
      </trkpt>
      <trkpt lat="43.55976" lon="2.79516">
        <ele>966.5</ele>
        <time>2021-06-30T16:11:55.999+02:00</time>
      </trkpt>
      <trkpt lat="43.55974" lon="2.79517">
        <ele>966.7</ele>
        <time>2021-06-30T16:11:56.999+02:00</time>
      </trkpt>
      <trkpt lat="43.55973" lon="2.79518">
        <ele>966.8</ele>
        <time>2021-06-30T16:11:57.999+02:00</time>
      </trkpt>
      <trkpt lat="43.55973" lon="2.79518">
        <ele>966.9</ele>
        <time>2021-06-30T16:11:58.999+02:00</time>
      </trkpt>
      <trkpt lat="43.55972" lon="2.7952">
        <ele>966.8</ele>
        <time>2021-06-30T16:11:59.999+02:00</time>
      </trkpt>
      <trkpt lat="43.55972" lon="2.7952">
        <ele>966.8</ele>
        <time>2021-06-30T16:12:00.999+02:00</time>
      </trkpt>
      <trkpt lat="43.55971" lon="2.79521">
        <ele>966.9</ele>
        <time>2021-06-30T16:12:01.999+02:00</time>
      </trkpt>
      <trkpt lat="43.55971" lon="2.79522">
        <ele>966.9</ele>
        <time>2021-06-30T16:12:02.999+02:00</time>
      </trkpt>
      <trkpt lat="43.5597" lon="2.79523">
        <ele>967</ele>
        <time>2021-06-30T16:12:03.999+02:00</time>
      </trkpt>
      <trkpt lat="43.55968" lon="2.79523">
        <ele>967.1</ele>
        <time>2021-06-30T16:12:04.999+02:00</time>
      </trkpt>
      <trkpt lat="43.55968" lon="2.79524">
        <ele>967.2</ele>
        <time>2021-06-30T16:12:05.999+02:00</time>
      </trkpt>
      <trkpt lat="43.55967" lon="2.79524">
        <ele>967.2</ele>
        <time>2021-06-30T16:12:06.999+02:00</time>
      </trkpt>
      <trkpt lat="43.55966" lon="2.79526">
        <ele>967.2</ele>
        <time>2021-06-30T16:12:07.999+02:00</time>
      </trkpt>
      <trkpt lat="43.55965" lon="2.79526">
        <ele>967.3</ele>
        <time>2021-06-30T16:12:08.999+02:00</time>
      </trkpt>
      <trkpt lat="43.55965" lon="2.79527">
        <ele>967.3</ele>
        <time>2021-06-30T16:12:09.999+02:00</time>
      </trkpt>
      <trkpt lat="43.55965" lon="2.79527">
        <ele>967.3</ele>
        <time>2021-06-30T16:12:10.999+02:00</time>
      </trkpt>
      <trkpt lat="43.55964" lon="2.79528">
        <ele>967.3</ele>
        <time>2021-06-30T16:12:11.999+02:00</time>
      </trkpt>
      <trkpt lat="43.55963" lon="2.79528">
        <ele>967.4</ele>
        <time>2021-06-30T16:12:12.999+02:00</time>
      </trkpt>
      <trkpt lat="43.55963" lon="2.79528">
        <ele>967.4</ele>
        <time>2021-06-30T16:12:13.999+02:00</time>
      </trkpt>
      <trkpt lat="43.55963" lon="2.79528">
        <ele>967.4</ele>
        <time>2021-06-30T16:12:14.999+02:00</time>
      </trkpt>
      <trkpt lat="43.55962" lon="2.79528">
        <ele>967.5</ele>
        <time>2021-06-30T16:12:15.999+02:00</time>
      </trkpt>
      <trkpt lat="43.55961" lon="2.79528">
        <ele>967.6</ele>
        <time>2021-06-30T16:12:16.999+02:00</time>
      </trkpt>
      <trkpt lat="43.5596" lon="2.79529">
        <ele>967.7</ele>
        <time>2021-06-30T16:12:17.999+02:00</time>
      </trkpt>
      <trkpt lat="43.5596" lon="2.79529">
        <ele>967.7</ele>
        <time>2021-06-30T16:12:18.999+02:00</time>
      </trkpt>
      <trkpt lat="43.55958" lon="2.7953">
        <ele>967.8</ele>
        <time>2021-06-30T16:12:19.999+02:00</time>
      </trkpt>
      <trkpt lat="43.55957" lon="2.7953">
        <ele>967.9</ele>
        <time>2021-06-30T16:12:20.999+02:00</time>
      </trkpt>
      <trkpt lat="43.55955" lon="2.7953">
        <ele>968.1</ele>
        <time>2021-06-30T16:12:21.999+02:00</time>
      </trkpt>
      <trkpt lat="43.55954" lon="2.79531">
        <ele>968.2</ele>
        <time>2021-06-30T16:12:22.999+02:00</time>
      </trkpt>
      <trkpt lat="43.55953" lon="2.79531">
        <ele>968.3</ele>
        <time>2021-06-30T16:12:23.999+02:00</time>
      </trkpt>
      <trkpt lat="43.55953" lon="2.79531">
        <ele>968.3</ele>
        <time>2021-06-30T16:12:24.999+02:00</time>
      </trkpt>
      <trkpt lat="43.55953" lon="2.79531">
        <ele>968.3</ele>
        <time>2021-06-30T16:12:25.999+02:00</time>
      </trkpt>
      <trkpt lat="43.55953" lon="2.79531">
        <ele>968.4</ele>
        <time>2021-06-30T16:12:26.999+02:00</time>
      </trkpt>
      <trkpt lat="43.55953" lon="2.79531">
        <ele>968.4</ele>
        <time>2021-06-30T16:12:27.999+02:00</time>
      </trkpt>
      <trkpt lat="43.55952" lon="2.79531">
        <ele>968.4</ele>
        <time>2021-06-30T16:12:28.999+02:00</time>
      </trkpt>
      <trkpt lat="43.55951" lon="2.79531">
        <ele>968.5</ele>
        <time>2021-06-30T16:12:29.999+02:00</time>
      </trkpt>
      <trkpt lat="43.55951" lon="2.79531">
        <ele>968.6</ele>
        <time>2021-06-30T16:12:30.999+02:00</time>
      </trkpt>
      <trkpt lat="43.5595" lon="2.79531">
        <ele>968.6</ele>
        <time>2021-06-30T16:12:31.999+02:00</time>
      </trkpt>
      <trkpt lat="43.5595" lon="2.79531">
        <ele>968.7</ele>
        <time>2021-06-30T16:12:32.999+02:00</time>
      </trkpt>
      <trkpt lat="43.55949" lon="2.79531">
        <ele>968.8</ele>
        <time>2021-06-30T16:12:33.999+02:00</time>
      </trkpt>
      <trkpt lat="43.55947" lon="2.79531">
        <ele>968.9</ele>
        <time>2021-06-30T16:12:34.999+02:00</time>
      </trkpt>
      <trkpt lat="43.55947" lon="2.79532">
        <ele>968.9</ele>
        <time>2021-06-30T16:12:35.999+02:00</time>
      </trkpt>
      <trkpt lat="43.55946" lon="2.79532">
        <ele>969</ele>
        <time>2021-06-30T16:12:36.999+02:00</time>
      </trkpt>
      <trkpt lat="43.55945" lon="2.79533">
        <ele>969</ele>
        <time>2021-06-30T16:12:37.999+02:00</time>
      </trkpt>
      <trkpt lat="43.55945" lon="2.79533">
        <ele>969</ele>
        <time>2021-06-30T16:12:38.999+02:00</time>
      </trkpt>
      <trkpt lat="43.55944" lon="2.79533">
        <ele>969.1</ele>
        <time>2021-06-30T16:12:39.999+02:00</time>
      </trkpt>
      <trkpt lat="43.55941" lon="2.79534">
        <ele>969.2</ele>
        <time>2021-06-30T16:12:40.999+02:00</time>
      </trkpt>
      <trkpt lat="43.55939" lon="2.79534">
        <ele>969.5</ele>
        <time>2021-06-30T16:12:41.999+02:00</time>
      </trkpt>
      <trkpt lat="43.55938" lon="2.79535">
        <ele>969.5</ele>
        <time>2021-06-30T16:12:42.999+02:00</time>
      </trkpt>
      <trkpt lat="43.55935" lon="2.79534">
        <ele>969.9</ele>
        <time>2021-06-30T16:12:43.999+02:00</time>
      </trkpt>
      <trkpt lat="43.55933" lon="2.79533">
        <ele>970.2</ele>
        <time>2021-06-30T16:12:44.999+02:00</time>
      </trkpt>
      <trkpt lat="43.55932" lon="2.79533">
        <ele>970.3</ele>
        <time>2021-06-30T16:12:45.999+02:00</time>
      </trkpt>
      <trkpt lat="43.55932" lon="2.79533">
        <ele>970.4</ele>
        <time>2021-06-30T16:12:46.999+02:00</time>
      </trkpt>
      <trkpt lat="43.55931" lon="2.79533">
        <ele>970.5</ele>
        <time>2021-06-30T16:12:47.999+02:00</time>
      </trkpt>
      <trkpt lat="43.5593" lon="2.79533">
        <ele>970.6</ele>
        <time>2021-06-30T16:12:48.999+02:00</time>
      </trkpt>
      <trkpt lat="43.55928" lon="2.79533">
        <ele>970.8</ele>
        <time>2021-06-30T16:12:49.999+02:00</time>
      </trkpt>
      <trkpt lat="43.55927" lon="2.79533">
        <ele>970.9</ele>
        <time>2021-06-30T16:12:50.999+02:00</time>
      </trkpt>
      <trkpt lat="43.55926" lon="2.79534">
        <ele>971</ele>
        <time>2021-06-30T16:12:51.999+02:00</time>
      </trkpt>
      <trkpt lat="43.55925" lon="2.79534">
        <ele>971</ele>
        <time>2021-06-30T16:12:52.999+02:00</time>
      </trkpt>
      <trkpt lat="43.55924" lon="2.79534">
        <ele>971.2</ele>
        <time>2021-06-30T16:12:53.999+02:00</time>
      </trkpt>
      <trkpt lat="43.55924" lon="2.79534">
        <ele>971.2</ele>
        <time>2021-06-30T16:12:54.999+02:00</time>
      </trkpt>
      <trkpt lat="43.55922" lon="2.79533">
        <ele>971.4</ele>
        <time>2021-06-30T16:12:55.999+02:00</time>
      </trkpt>
      <trkpt lat="43.55921" lon="2.79534">
        <ele>971.5</ele>
        <time>2021-06-30T16:12:56.999+02:00</time>
      </trkpt>
      <trkpt lat="43.5592" lon="2.79534">
        <ele>971.6</ele>
        <time>2021-06-30T16:12:57.999+02:00</time>
      </trkpt>
      <trkpt lat="43.55919" lon="2.79534">
        <ele>971.6</ele>
        <time>2021-06-30T16:12:58.999+02:00</time>
      </trkpt>
      <trkpt lat="43.55919" lon="2.79534">
        <ele>971.7</ele>
        <time>2021-06-30T16:12:59.999+02:00</time>
      </trkpt>
      <trkpt lat="43.55918" lon="2.79534">
        <ele>971.7</ele>
        <time>2021-06-30T16:13:00.999+02:00</time>
      </trkpt>
      <trkpt lat="43.55918" lon="2.79534">
        <ele>971.8</ele>
        <time>2021-06-30T16:13:01.999+02:00</time>
      </trkpt>
      <trkpt lat="43.55917" lon="2.79533">
        <ele>972</ele>
        <time>2021-06-30T16:13:02.999+02:00</time>
      </trkpt>
      <trkpt lat="43.55915" lon="2.79529">
        <ele>972.7</ele>
        <time>2021-06-30T16:13:03.999+02:00</time>
      </trkpt>
      <trkpt lat="43.55914" lon="2.79527">
        <ele>973.2</ele>
        <time>2021-06-30T16:13:04.999+02:00</time>
      </trkpt>
      <trkpt lat="43.55912" lon="2.79526">
        <ele>973.3</ele>
        <time>2021-06-30T16:13:05.999+02:00</time>
      </trkpt>
      <trkpt lat="43.55911" lon="2.79526">
        <ele>973.4</ele>
        <time>2021-06-30T16:13:06.999+02:00</time>
      </trkpt>
      <trkpt lat="43.5591" lon="2.79526">
        <ele>973.4</ele>
        <time>2021-06-30T16:13:07.999+02:00</time>
      </trkpt>
      <trkpt lat="43.55909" lon="2.79526">
        <ele>973.3</ele>
        <time>2021-06-30T16:13:08.999+02:00</time>
      </trkpt>
      <trkpt lat="43.55908" lon="2.79526">
        <ele>973.4</ele>
        <time>2021-06-30T16:13:09.999+02:00</time>
      </trkpt>
      <trkpt lat="43.55908" lon="2.79525">
        <ele>973.4</ele>
        <time>2021-06-30T16:13:10.999+02:00</time>
      </trkpt>
      <trkpt lat="43.55907" lon="2.79525">
        <ele>973.5</ele>
        <time>2021-06-30T16:13:11.999+02:00</time>
      </trkpt>
      <trkpt lat="43.55906" lon="2.79525">
        <ele>973.5</ele>
        <time>2021-06-30T16:13:12.999+02:00</time>
      </trkpt>
      <trkpt lat="43.55905" lon="2.79525">
        <ele>973.6</ele>
        <time>2021-06-30T16:13:13.999+02:00</time>
      </trkpt>
      <trkpt lat="43.55904" lon="2.79524">
        <ele>973.7</ele>
        <time>2021-06-30T16:13:14.999+02:00</time>
      </trkpt>
      <trkpt lat="43.55904" lon="2.79524">
        <ele>973.7</ele>
        <time>2021-06-30T16:13:15.999+02:00</time>
      </trkpt>
      <trkpt lat="43.55903" lon="2.79524">
        <ele>973.7</ele>
        <time>2021-06-30T16:13:16.999+02:00</time>
      </trkpt>
      <trkpt lat="43.55902" lon="2.79524">
        <ele>973.7</ele>
        <time>2021-06-30T16:13:17.999+02:00</time>
      </trkpt>
      <trkpt lat="43.55902" lon="2.79524">
        <ele>973.7</ele>
        <time>2021-06-30T16:13:18.999+02:00</time>
      </trkpt>
      <trkpt lat="43.55901" lon="2.79523">
        <ele>973.8</ele>
        <time>2021-06-30T16:13:19.999+02:00</time>
      </trkpt>
      <trkpt lat="43.55901" lon="2.79523">
        <ele>973.8</ele>
        <time>2021-06-30T16:13:20.999+02:00</time>
      </trkpt>
      <trkpt lat="43.55899" lon="2.79523">
        <ele>973.9</ele>
        <time>2021-06-30T16:13:21.999+02:00</time>
      </trkpt>
      <trkpt lat="43.55899" lon="2.79523">
        <ele>973.9</ele>
        <time>2021-06-30T16:13:22.999+02:00</time>
      </trkpt>
      <trkpt lat="43.55898" lon="2.79523">
        <ele>973.9</ele>
        <time>2021-06-30T16:13:23.999+02:00</time>
      </trkpt>
      <trkpt lat="43.55897" lon="2.79523">
        <ele>973.8</ele>
        <time>2021-06-30T16:13:24.999+02:00</time>
      </trkpt>
      <trkpt lat="43.55896" lon="2.79524">
        <ele>973.8</ele>
        <time>2021-06-30T16:13:25.999+02:00</time>
      </trkpt>
      <trkpt lat="43.55896" lon="2.79523">
        <ele>973.8</ele>
        <time>2021-06-30T16:13:26.999+02:00</time>
      </trkpt>
      <trkpt lat="43.55895" lon="2.79523">
        <ele>973.9</ele>
        <time>2021-06-30T16:13:27.999+02:00</time>
      </trkpt>
      <trkpt lat="43.55894" lon="2.79522">
        <ele>974</ele>
        <time>2021-06-30T16:13:28.999+02:00</time>
      </trkpt>
      <trkpt lat="43.55892" lon="2.79521">
        <ele>974.2</ele>
        <time>2021-06-30T16:13:29.999+02:00</time>
      </trkpt>
      <trkpt lat="43.55891" lon="2.7952">
        <ele>974.3</ele>
        <time>2021-06-30T16:13:30.999+02:00</time>
      </trkpt>
      <trkpt lat="43.55891" lon="2.7952">
        <ele>974.3</ele>
        <time>2021-06-30T16:13:31.999+02:00</time>
      </trkpt>
      <trkpt lat="43.5589" lon="2.7952">
        <ele>974.4</ele>
        <time>2021-06-30T16:13:32.999+02:00</time>
      </trkpt>
      <trkpt lat="43.55889" lon="2.7952">
        <ele>974.4</ele>
        <time>2021-06-30T16:13:33.999+02:00</time>
      </trkpt>
      <trkpt lat="43.55888" lon="2.79519">
        <ele>974.5</ele>
        <time>2021-06-30T16:13:34.999+02:00</time>
      </trkpt>
      <trkpt lat="43.55887" lon="2.7952">
        <ele>974.5</ele>
        <time>2021-06-30T16:13:35.999+02:00</time>
      </trkpt>
      <trkpt lat="43.55885" lon="2.79518">
        <ele>974.7</ele>
        <time>2021-06-30T16:13:36.999+02:00</time>
      </trkpt>
      <trkpt lat="43.55885" lon="2.79518">
        <ele>974.7</ele>
        <time>2021-06-30T16:13:37.999+02:00</time>
      </trkpt>
      <trkpt lat="43.55885" lon="2.79518">
        <ele>974.7</ele>
        <time>2021-06-30T16:13:38.999+02:00</time>
      </trkpt>
      <trkpt lat="43.55885" lon="2.79518">
        <ele>974.8</ele>
        <time>2021-06-30T16:13:39.999+02:00</time>
      </trkpt>
      <trkpt lat="43.55884" lon="2.79518">
        <ele>974.8</ele>
        <time>2021-06-30T16:13:40.999+02:00</time>
      </trkpt>
      <trkpt lat="43.55883" lon="2.79518">
        <ele>974.8</ele>
        <time>2021-06-30T16:13:41.999+02:00</time>
      </trkpt>
      <trkpt lat="43.55882" lon="2.79518">
        <ele>974.7</ele>
        <time>2021-06-30T16:13:42.999+02:00</time>
      </trkpt>
      <trkpt lat="43.55882" lon="2.79518">
        <ele>974.8</ele>
        <time>2021-06-30T16:13:43.999+02:00</time>
      </trkpt>
      <trkpt lat="43.5588" lon="2.79518">
        <ele>974.7</ele>
        <time>2021-06-30T16:13:44.999+02:00</time>
      </trkpt>
      <trkpt lat="43.55878" lon="2.7952">
        <ele>974.5</ele>
        <time>2021-06-30T16:13:45.999+02:00</time>
      </trkpt>
      <trkpt lat="43.55876" lon="2.7952">
        <ele>974.5</ele>
        <time>2021-06-30T16:13:46.999+02:00</time>
      </trkpt>
      <trkpt lat="43.55875" lon="2.79519">
        <ele>974.6</ele>
        <time>2021-06-30T16:13:47.999+02:00</time>
      </trkpt>
      <trkpt lat="43.55873" lon="2.79518">
        <ele>974.8</ele>
        <time>2021-06-30T16:13:48.999+02:00</time>
      </trkpt>
      <trkpt lat="43.55871" lon="2.79518">
        <ele>974.8</ele>
        <time>2021-06-30T16:13:49.999+02:00</time>
      </trkpt>
      <trkpt lat="43.55871" lon="2.79518">
        <ele>974.8</ele>
        <time>2021-06-30T16:13:50.999+02:00</time>
      </trkpt>
      <trkpt lat="43.55871" lon="2.79518">
        <ele>974.8</ele>
        <time>2021-06-30T16:13:51.999+02:00</time>
      </trkpt>
      <trkpt lat="43.5587" lon="2.79517">
        <ele>974.9</ele>
        <time>2021-06-30T16:13:52.999+02:00</time>
      </trkpt>
      <trkpt lat="43.55869" lon="2.79517">
        <ele>974.9</ele>
        <time>2021-06-30T16:13:53.999+02:00</time>
      </trkpt>
      <trkpt lat="43.55869" lon="2.79517">
        <ele>974.9</ele>
        <time>2021-06-30T16:13:54.999+02:00</time>
      </trkpt>
      <trkpt lat="43.55869" lon="2.79517">
        <ele>974.9</ele>
        <time>2021-06-30T16:13:55.999+02:00</time>
      </trkpt>
      <trkpt lat="43.55868" lon="2.79517">
        <ele>974.9</ele>
        <time>2021-06-30T16:13:56.999+02:00</time>
      </trkpt>
      <trkpt lat="43.55867" lon="2.79517">
        <ele>975</ele>
        <time>2021-06-30T16:13:57.999+02:00</time>
      </trkpt>
      <trkpt lat="43.55865" lon="2.79518">
        <ele>974.8</ele>
        <time>2021-06-30T16:13:58.999+02:00</time>
      </trkpt>
      <trkpt lat="43.55864" lon="2.79518">
        <ele>974.8</ele>
        <time>2021-06-30T16:13:59.999+02:00</time>
      </trkpt>
      <trkpt lat="43.55864" lon="2.79518">
        <ele>974.7</ele>
        <time>2021-06-30T16:14:00.999+02:00</time>
      </trkpt>
      <trkpt lat="43.55864" lon="2.79519">
        <ele>974.7</ele>
        <time>2021-06-30T16:14:01.999+02:00</time>
      </trkpt>
      <trkpt lat="43.55862" lon="2.79518">
        <ele>974.7</ele>
        <time>2021-06-30T16:14:02.999+02:00</time>
      </trkpt>
      <trkpt lat="43.55861" lon="2.79519">
        <ele>974.6</ele>
        <time>2021-06-30T16:14:03.999+02:00</time>
      </trkpt>
      <trkpt lat="43.55859" lon="2.79519">
        <ele>974.6</ele>
        <time>2021-06-30T16:14:04.999+02:00</time>
      </trkpt>
      <trkpt lat="43.55857" lon="2.79519">
        <ele>974.5</ele>
        <time>2021-06-30T16:14:05.999+02:00</time>
      </trkpt>
      <trkpt lat="43.55855" lon="2.7952">
        <ele>974.4</ele>
        <time>2021-06-30T16:14:06.999+02:00</time>
      </trkpt>
      <trkpt lat="43.55855" lon="2.7952">
        <ele>974.4</ele>
        <time>2021-06-30T16:14:07.999+02:00</time>
      </trkpt>
      <trkpt lat="43.55854" lon="2.79521">
        <ele>974.3</ele>
        <time>2021-06-30T16:14:08.999+02:00</time>
      </trkpt>
      <trkpt lat="43.55853" lon="2.79521">
        <ele>974.2</ele>
        <time>2021-06-30T16:14:09.999+02:00</time>
      </trkpt>
      <trkpt lat="43.55853" lon="2.79522">
        <ele>974.1</ele>
        <time>2021-06-30T16:14:10.999+02:00</time>
      </trkpt>
      <trkpt lat="43.55852" lon="2.79522">
        <ele>974</ele>
        <time>2021-06-30T16:14:11.999+02:00</time>
      </trkpt>
      <trkpt lat="43.55851" lon="2.79523">
        <ele>973.9</ele>
        <time>2021-06-30T16:14:12.999+02:00</time>
      </trkpt>
      <trkpt lat="43.5585" lon="2.79523">
        <ele>973.8</ele>
        <time>2021-06-30T16:14:13.999+02:00</time>
      </trkpt>
      <trkpt lat="43.55848" lon="2.79524">
        <ele>973.7</ele>
        <time>2021-06-30T16:14:14.999+02:00</time>
      </trkpt>
      <trkpt lat="43.55847" lon="2.79525">
        <ele>973.5</ele>
        <time>2021-06-30T16:14:15.999+02:00</time>
      </trkpt>
      <trkpt lat="43.55846" lon="2.79525">
        <ele>973.5</ele>
        <time>2021-06-30T16:14:16.999+02:00</time>
      </trkpt>
      <trkpt lat="43.55845" lon="2.79525">
        <ele>973.6</ele>
        <time>2021-06-30T16:14:17.999+02:00</time>
      </trkpt>
      <trkpt lat="43.55844" lon="2.79525">
        <ele>973.6</ele>
        <time>2021-06-30T16:14:18.999+02:00</time>
      </trkpt>
      <trkpt lat="43.55844" lon="2.79524">
        <ele>973.6</ele>
        <time>2021-06-30T16:14:19.999+02:00</time>
      </trkpt>
      <trkpt lat="43.55842" lon="2.79524">
        <ele>973.7</ele>
        <time>2021-06-30T16:14:20.999+02:00</time>
      </trkpt>
      <trkpt lat="43.5584" lon="2.79524">
        <ele>973.7</ele>
        <time>2021-06-30T16:14:21.999+02:00</time>
      </trkpt>
      <trkpt lat="43.55839" lon="2.79523">
        <ele>973.8</ele>
        <time>2021-06-30T16:14:22.999+02:00</time>
      </trkpt>
      <trkpt lat="43.55838" lon="2.79523">
        <ele>973.8</ele>
        <time>2021-06-30T16:14:23.999+02:00</time>
      </trkpt>
      <trkpt lat="43.55837" lon="2.79523">
        <ele>973.8</ele>
        <time>2021-06-30T16:14:24.999+02:00</time>
      </trkpt>
      <trkpt lat="43.55835" lon="2.79523">
        <ele>973.8</ele>
        <time>2021-06-30T16:14:25.999+02:00</time>
      </trkpt>
      <trkpt lat="43.55835" lon="2.79523">
        <ele>973.8</ele>
        <time>2021-06-30T16:14:26.999+02:00</time>
      </trkpt>
      <trkpt lat="43.55833" lon="2.79522">
        <ele>973.9</ele>
        <time>2021-06-30T16:14:27.999+02:00</time>
      </trkpt>
      <trkpt lat="43.55832" lon="2.79522">
        <ele>973.8</ele>
        <time>2021-06-30T16:14:28.999+02:00</time>
      </trkpt>
      <trkpt lat="43.55831" lon="2.79522">
        <ele>973.7</ele>
        <time>2021-06-30T16:14:29.999+02:00</time>
      </trkpt>
      <trkpt lat="43.55831" lon="2.79522">
        <ele>973.7</ele>
        <time>2021-06-30T16:14:30.999+02:00</time>
      </trkpt>
      <trkpt lat="43.5583" lon="2.79521">
        <ele>973.7</ele>
        <time>2021-06-30T16:14:31.999+02:00</time>
      </trkpt>
      <trkpt lat="43.55829" lon="2.79521">
        <ele>973.6</ele>
        <time>2021-06-30T16:14:32.999+02:00</time>
      </trkpt>
      <trkpt lat="43.55828" lon="2.79521">
        <ele>973.5</ele>
        <time>2021-06-30T16:14:33.999+02:00</time>
      </trkpt>
      <trkpt lat="43.55828" lon="2.79521">
        <ele>973.5</ele>
        <time>2021-06-30T16:14:34.999+02:00</time>
      </trkpt>
      <trkpt lat="43.55827" lon="2.7952">
        <ele>973.4</ele>
        <time>2021-06-30T16:14:35.999+02:00</time>
      </trkpt>
      <trkpt lat="43.55826" lon="2.79522">
        <ele>973.1</ele>
        <time>2021-06-30T16:14:36.999+02:00</time>
      </trkpt>
      <trkpt lat="43.55825" lon="2.79522">
        <ele>973</ele>
        <time>2021-06-30T16:14:37.999+02:00</time>
      </trkpt>
      <trkpt lat="43.55825" lon="2.79522">
        <ele>972.9</ele>
        <time>2021-06-30T16:14:38.999+02:00</time>
      </trkpt>
      <trkpt lat="43.55824" lon="2.79521">
        <ele>972.9</ele>
        <time>2021-06-30T16:14:39.999+02:00</time>
      </trkpt>
      <trkpt lat="43.55823" lon="2.79521">
        <ele>972.9</ele>
        <time>2021-06-30T16:14:40.999+02:00</time>
      </trkpt>
      <trkpt lat="43.55822" lon="2.79521">
        <ele>972.8</ele>
        <time>2021-06-30T16:14:41.999+02:00</time>
      </trkpt>
      <trkpt lat="43.55822" lon="2.79522">
        <ele>972.5</ele>
        <time>2021-06-30T16:14:42.999+02:00</time>
      </trkpt>
      <trkpt lat="43.55821" lon="2.79522">
        <ele>972.3</ele>
        <time>2021-06-30T16:14:43.999+02:00</time>
      </trkpt>
      <trkpt lat="43.5582" lon="2.79523">
        <ele>972.2</ele>
        <time>2021-06-30T16:14:44.999+02:00</time>
      </trkpt>
      <trkpt lat="43.55818" lon="2.79522">
        <ele>972</ele>
        <time>2021-06-30T16:14:45.999+02:00</time>
      </trkpt>
      <trkpt lat="43.55817" lon="2.79521">
        <ele>972</ele>
        <time>2021-06-30T16:14:46.999+02:00</time>
      </trkpt>
      <trkpt lat="43.55817" lon="2.79522">
        <ele>971.8</ele>
        <time>2021-06-30T16:14:47.999+02:00</time>
      </trkpt>
      <trkpt lat="43.55816" lon="2.79522">
        <ele>971.7</ele>
        <time>2021-06-30T16:14:48.999+02:00</time>
      </trkpt>
      <trkpt lat="43.55815" lon="2.79522">
        <ele>971.6</ele>
        <time>2021-06-30T16:14:49.999+02:00</time>
      </trkpt>
      <trkpt lat="43.55815" lon="2.79522">
        <ele>971.7</ele>
        <time>2021-06-30T16:14:50.999+02:00</time>
      </trkpt>
      <trkpt lat="43.55815" lon="2.79522">
        <ele>971.7</ele>
        <time>2021-06-30T16:14:51.999+02:00</time>
      </trkpt>
      <trkpt lat="43.55815" lon="2.79522">
        <ele>971.6</ele>
        <time>2021-06-30T16:14:52.999+02:00</time>
      </trkpt>
      <trkpt lat="43.55813" lon="2.79522">
        <ele>971.4</ele>
        <time>2021-06-30T16:14:53.999+02:00</time>
      </trkpt>
      <trkpt lat="43.55812" lon="2.7952">
        <ele>971.4</ele>
        <time>2021-06-30T16:14:54.999+02:00</time>
      </trkpt>
      <trkpt lat="43.5581" lon="2.7952">
        <ele>971.3</ele>
        <time>2021-06-30T16:14:55.999+02:00</time>
      </trkpt>
      <trkpt lat="43.5581" lon="2.79521">
        <ele>971.2</ele>
        <time>2021-06-30T16:14:56.999+02:00</time>
      </trkpt>
      <trkpt lat="43.5581" lon="2.7952">
        <ele>971.2</ele>
        <time>2021-06-30T16:14:57.999+02:00</time>
      </trkpt>
      <trkpt lat="43.55809" lon="2.7952">
        <ele>971.2</ele>
        <time>2021-06-30T16:14:58.999+02:00</time>
      </trkpt>
      <trkpt lat="43.5581" lon="2.7952">
        <ele>971.2</ele>
        <time>2021-06-30T16:14:59.999+02:00</time>
      </trkpt>
      <trkpt lat="43.55809" lon="2.79519">
        <ele>971.2</ele>
        <time>2021-06-30T16:15:00.999+02:00</time>
      </trkpt>
      <trkpt lat="43.55808" lon="2.79518">
        <ele>971.2</ele>
        <time>2021-06-30T16:15:01.999+02:00</time>
      </trkpt>
      <trkpt lat="43.55807" lon="2.79516">
        <ele>971.3</ele>
        <time>2021-06-30T16:15:02.999+02:00</time>
      </trkpt>
      <trkpt lat="43.55806" lon="2.79515">
        <ele>971.2</ele>
        <time>2021-06-30T16:15:03.999+02:00</time>
      </trkpt>
      <trkpt lat="43.55806" lon="2.79514">
        <ele>971.3</ele>
        <time>2021-06-30T16:15:04.999+02:00</time>
      </trkpt>
      <trkpt lat="43.55805" lon="2.79514">
        <ele>971.3</ele>
        <time>2021-06-30T16:15:05.999+02:00</time>
      </trkpt>
      <trkpt lat="43.55805" lon="2.79514">
        <ele>971.2</ele>
        <time>2021-06-30T16:15:06.999+02:00</time>
      </trkpt>
      <trkpt lat="43.55803" lon="2.79514">
        <ele>971</ele>
        <time>2021-06-30T16:15:07.999+02:00</time>
      </trkpt>
      <trkpt lat="43.55802" lon="2.79512">
        <ele>971</ele>
        <time>2021-06-30T16:15:08.999+02:00</time>
      </trkpt>
      <trkpt lat="43.55801" lon="2.79511">
        <ele>971</ele>
        <time>2021-06-30T16:15:09.999+02:00</time>
      </trkpt>
      <trkpt lat="43.55801" lon="2.79511">
        <ele>970.9</ele>
        <time>2021-06-30T16:15:10.999+02:00</time>
      </trkpt>
      <trkpt lat="43.558" lon="2.7951">
        <ele>970.9</ele>
        <time>2021-06-30T16:15:11.999+02:00</time>
      </trkpt>
      <trkpt lat="43.55799" lon="2.7951">
        <ele>970.9</ele>
        <time>2021-06-30T16:15:12.999+02:00</time>
      </trkpt>
      <trkpt lat="43.55799" lon="2.79509">
        <ele>970.9</ele>
        <time>2021-06-30T16:15:13.999+02:00</time>
      </trkpt>
      <trkpt lat="43.55798" lon="2.79508">
        <ele>970.8</ele>
        <time>2021-06-30T16:15:14.999+02:00</time>
      </trkpt>
      <trkpt lat="43.55797" lon="2.79507">
        <ele>970.8</ele>
        <time>2021-06-30T16:15:15.999+02:00</time>
      </trkpt>
      <trkpt lat="43.55797" lon="2.79507">
        <ele>970.8</ele>
        <time>2021-06-30T16:15:16.999+02:00</time>
      </trkpt>
      <trkpt lat="43.55797" lon="2.79507">
        <ele>970.8</ele>
        <time>2021-06-30T16:15:17.999+02:00</time>
      </trkpt>
      <trkpt lat="43.55798" lon="2.79507">
        <ele>970.8</ele>
        <time>2021-06-30T16:15:18.999+02:00</time>
      </trkpt>
      <trkpt lat="43.55797" lon="2.79506">
        <ele>970.8</ele>
        <time>2021-06-30T16:15:19.999+02:00</time>
      </trkpt>
      <trkpt lat="43.55796" lon="2.79505">
        <ele>970.8</ele>
        <time>2021-06-30T16:15:20.999+02:00</time>
      </trkpt>
      <trkpt lat="43.55796" lon="2.79504">
        <ele>970.9</ele>
        <time>2021-06-30T16:15:21.999+02:00</time>
      </trkpt>
      <trkpt lat="43.55795" lon="2.79503">
        <ele>970.9</ele>
        <time>2021-06-30T16:15:22.999+02:00</time>
      </trkpt>
      <trkpt lat="43.55795" lon="2.79503">
        <ele>970.9</ele>
        <time>2021-06-30T16:15:23.999+02:00</time>
      </trkpt>
      <trkpt lat="43.55795" lon="2.79502">
        <ele>971</ele>
        <time>2021-06-30T16:15:24.999+02:00</time>
      </trkpt>
      <trkpt lat="43.55795" lon="2.79501">
        <ele>971</ele>
        <time>2021-06-30T16:15:25.999+02:00</time>
      </trkpt>
      <trkpt lat="43.55795" lon="2.79501">
        <ele>970.9</ele>
        <time>2021-06-30T16:15:26.999+02:00</time>
      </trkpt>
      <trkpt lat="43.55794" lon="2.79501">
        <ele>970.9</ele>
        <time>2021-06-30T16:15:27.999+02:00</time>
      </trkpt>
      <trkpt lat="43.55794" lon="2.795">
        <ele>971</ele>
        <time>2021-06-30T16:15:28.999+02:00</time>
      </trkpt>
      <trkpt lat="43.55794" lon="2.795">
        <ele>970.9</ele>
        <time>2021-06-30T16:15:29.999+02:00</time>
      </trkpt>
      <trkpt lat="43.55794" lon="2.795">
        <ele>971</ele>
        <time>2021-06-30T16:15:30.999+02:00</time>
      </trkpt>
      <trkpt lat="43.55794" lon="2.795">
        <ele>971</ele>
        <time>2021-06-30T16:15:31.999+02:00</time>
      </trkpt>
      <trkpt lat="43.55794" lon="2.795">
        <ele>971</ele>
        <time>2021-06-30T16:15:32.999+02:00</time>
      </trkpt>
      <trkpt lat="43.55794" lon="2.79499">
        <ele>971</ele>
        <time>2021-06-30T16:15:33.999+02:00</time>
      </trkpt>
      <trkpt lat="43.55794" lon="2.79499">
        <ele>971</ele>
        <time>2021-06-30T16:15:34.999+02:00</time>
      </trkpt>
      <trkpt lat="43.55794" lon="2.79499">
        <ele>971</ele>
        <time>2021-06-30T16:15:35.999+02:00</time>
      </trkpt>
      <trkpt lat="43.55794" lon="2.79499">
        <ele>971</ele>
        <time>2021-06-30T16:15:36.999+02:00</time>
      </trkpt>
      <trkpt lat="43.55793" lon="2.79498">
        <ele>970.8</ele>
        <time>2021-06-30T16:15:37.999+02:00</time>
      </trkpt>
      <trkpt lat="43.55793" lon="2.79499">
        <ele>970.8</ele>
        <time>2021-06-30T16:15:38.999+02:00</time>
      </trkpt>
      <trkpt lat="43.55793" lon="2.79499">
        <ele>970.8</ele>
        <time>2021-06-30T16:15:39.999+02:00</time>
      </trkpt>
      <trkpt lat="43.55793" lon="2.79499">
        <ele>970.8</ele>
        <time>2021-06-30T16:15:40.999+02:00</time>
      </trkpt>
      <trkpt lat="43.55793" lon="2.79499">
        <ele>970.8</ele>
        <time>2021-06-30T16:15:41.999+02:00</time>
      </trkpt>
      <trkpt lat="43.55793" lon="2.79498">
        <ele>970.8</ele>
        <time>2021-06-30T16:15:42.999+02:00</time>
      </trkpt>
      <trkpt lat="43.55793" lon="2.79498">
        <ele>970.9</ele>
        <time>2021-06-30T16:15:43.999+02:00</time>
      </trkpt>
      <trkpt lat="43.55793" lon="2.79498">
        <ele>970.9</ele>
        <time>2021-06-30T16:15:44.999+02:00</time>
      </trkpt>
      <trkpt lat="43.55793" lon="2.79498">
        <ele>970.9</ele>
        <time>2021-06-30T16:15:45.999+02:00</time>
      </trkpt>
      <trkpt lat="43.55793" lon="2.79498">
        <ele>970.9</ele>
        <time>2021-06-30T16:15:46.999+02:00</time>
      </trkpt>
      <trkpt lat="43.55793" lon="2.79497">
        <ele>970.9</ele>
        <time>2021-06-30T16:15:47.999+02:00</time>
      </trkpt>
      <trkpt lat="43.55793" lon="2.79497">
        <ele>970.9</ele>
        <time>2021-06-30T16:15:48.999+02:00</time>
      </trkpt>
      <trkpt lat="43.55793" lon="2.79494">
        <ele>971</ele>
        <time>2021-06-30T16:15:49.999+02:00</time>
      </trkpt>
      <trkpt lat="43.55794" lon="2.79494">
        <ele>971.2</ele>
        <time>2021-06-30T16:15:50.999+02:00</time>
      </trkpt>
      <trkpt lat="43.55795" lon="2.79493">
        <ele>971.3</ele>
        <time>2021-06-30T16:15:51.999+02:00</time>
      </trkpt>
      <trkpt lat="43.55796" lon="2.79491">
        <ele>971.6</ele>
        <time>2021-06-30T16:15:52.999+02:00</time>
      </trkpt>
      <trkpt lat="43.55797" lon="2.79488">
        <ele>971.8</ele>
        <time>2021-06-30T16:15:53.999+02:00</time>
      </trkpt>
      <trkpt lat="43.55797" lon="2.79488">
        <ele>971.9</ele>
        <time>2021-06-30T16:15:54.999+02:00</time>
      </trkpt>
      <trkpt lat="43.55797" lon="2.79488">
        <ele>971.9</ele>
        <time>2021-06-30T16:15:55.999+02:00</time>
      </trkpt>
      <trkpt lat="43.55797" lon="2.79487">
        <ele>971.9</ele>
        <time>2021-06-30T16:15:56.999+02:00</time>
      </trkpt>
      <trkpt lat="43.55797" lon="2.79487">
        <ele>971.9</ele>
        <time>2021-06-30T16:15:57.999+02:00</time>
      </trkpt>
      <trkpt lat="43.55797" lon="2.79487">
        <ele>971.9</ele>
        <time>2021-06-30T16:15:58.999+02:00</time>
      </trkpt>
      <trkpt lat="43.55797" lon="2.79486">
        <ele>972</ele>
        <time>2021-06-30T16:15:59.999+02:00</time>
      </trkpt>
      <trkpt lat="43.55797" lon="2.79486">
        <ele>972</ele>
        <time>2021-06-30T16:16:00.999+02:00</time>
      </trkpt>
      <trkpt lat="43.55797" lon="2.79486">
        <ele>972</ele>
        <time>2021-06-30T16:16:01.999+02:00</time>
      </trkpt>
      <trkpt lat="43.55797" lon="2.79486">
        <ele>972</ele>
        <time>2021-06-30T16:16:02.999+02:00</time>
      </trkpt>
      <trkpt lat="43.55797" lon="2.79486">
        <ele>972</ele>
        <time>2021-06-30T16:16:03.999+02:00</time>
      </trkpt>
      <trkpt lat="43.55798" lon="2.79486">
        <ele>972</ele>
        <time>2021-06-30T16:16:04.999+02:00</time>
      </trkpt>
      <trkpt lat="43.55798" lon="2.79486">
        <ele>972.1</ele>
        <time>2021-06-30T16:16:05.999+02:00</time>
      </trkpt>
      <trkpt lat="43.55798" lon="2.79486">
        <ele>972.1</ele>
        <time>2021-06-30T16:16:06.999+02:00</time>
      </trkpt>
      <trkpt lat="43.55798" lon="2.79486">
        <ele>972.1</ele>
        <time>2021-06-30T16:16:07.999+02:00</time>
      </trkpt>
      <trkpt lat="43.55797" lon="2.79487">
        <ele>971.9</ele>
        <time>2021-06-30T16:16:08.999+02:00</time>
      </trkpt>
      <trkpt lat="43.55797" lon="2.79486">
        <ele>971.9</ele>
        <time>2021-06-30T16:16:09.999+02:00</time>
      </trkpt>
      <trkpt lat="43.55797" lon="2.79485">
        <ele>971.9</ele>
        <time>2021-06-30T16:16:10.999+02:00</time>
      </trkpt>
      <trkpt lat="43.55796" lon="2.79485">
        <ele>971.8</ele>
        <time>2021-06-30T16:16:11.999+02:00</time>
      </trkpt>
      <trkpt lat="43.55797" lon="2.79485">
        <ele>971.9</ele>
        <time>2021-06-30T16:16:12.999+02:00</time>
      </trkpt>
      <trkpt lat="43.55796" lon="2.79485">
        <ele>971.8</ele>
        <time>2021-06-30T16:16:13.999+02:00</time>
      </trkpt>
      <trkpt lat="43.55796" lon="2.79485">
        <ele>971.8</ele>
        <time>2021-06-30T16:16:14.999+02:00</time>
      </trkpt>
      <trkpt lat="43.55795" lon="2.79485">
        <ele>971.7</ele>
        <time>2021-06-30T16:16:15.999+02:00</time>
      </trkpt>
      <trkpt lat="43.55795" lon="2.79484">
        <ele>971.7</ele>
        <time>2021-06-30T16:16:16.999+02:00</time>
      </trkpt>
      <trkpt lat="43.55795" lon="2.79483">
        <ele>971.7</ele>
        <time>2021-06-30T16:16:17.999+02:00</time>
      </trkpt>
      <trkpt lat="43.55795" lon="2.79482">
        <ele>971.7</ele>
        <time>2021-06-30T16:16:18.999+02:00</time>
      </trkpt>
      <trkpt lat="43.55795" lon="2.79481">
        <ele>971.8</ele>
        <time>2021-06-30T16:16:19.999+02:00</time>
      </trkpt>
      <trkpt lat="43.55796" lon="2.79481">
        <ele>971.8</ele>
        <time>2021-06-30T16:16:20.999+02:00</time>
      </trkpt>
      <trkpt lat="43.55796" lon="2.7948">
        <ele>971.9</ele>
        <time>2021-06-30T16:16:21.999+02:00</time>
      </trkpt>
      <trkpt lat="43.55796" lon="2.79479">
        <ele>972</ele>
        <time>2021-06-30T16:16:22.999+02:00</time>
      </trkpt>
      <trkpt lat="43.55796" lon="2.79479">
        <ele>972</ele>
        <time>2021-06-30T16:16:23.999+02:00</time>
      </trkpt>
      <trkpt lat="43.55796" lon="2.79478">
        <ele>972</ele>
        <time>2021-06-30T16:16:24.999+02:00</time>
      </trkpt>
      <trkpt lat="43.55796" lon="2.79478">
        <ele>972</ele>
        <time>2021-06-30T16:16:25.999+02:00</time>
      </trkpt>
      <trkpt lat="43.55796" lon="2.79478">
        <ele>972</ele>
        <time>2021-06-30T16:16:26.999+02:00</time>
      </trkpt>
      <trkpt lat="43.55796" lon="2.79476">
        <ele>972</ele>
        <time>2021-06-30T16:16:27.999+02:00</time>
      </trkpt>
      <trkpt lat="43.55795" lon="2.79476">
        <ele>972</ele>
        <time>2021-06-30T16:16:28.999+02:00</time>
      </trkpt>
      <trkpt lat="43.55796" lon="2.79475">
        <ele>972</ele>
        <time>2021-06-30T16:16:29.999+02:00</time>
      </trkpt>
      <trkpt lat="43.55796" lon="2.79475">
        <ele>972.1</ele>
        <time>2021-06-30T16:16:30.999+02:00</time>
      </trkpt>
      <trkpt lat="43.55796" lon="2.79474">
        <ele>972.1</ele>
        <time>2021-06-30T16:16:31.999+02:00</time>
      </trkpt>
      <trkpt lat="43.55795" lon="2.79473">
        <ele>972</ele>
        <time>2021-06-30T16:16:32.999+02:00</time>
      </trkpt>
      <trkpt lat="43.55795" lon="2.79472">
        <ele>972</ele>
        <time>2021-06-30T16:16:33.999+02:00</time>
      </trkpt>
      <trkpt lat="43.55795" lon="2.79472">
        <ele>971.9</ele>
        <time>2021-06-30T16:16:34.999+02:00</time>
      </trkpt>
      <trkpt lat="43.55795" lon="2.79472">
        <ele>971.9</ele>
        <time>2021-06-30T16:16:35.999+02:00</time>
      </trkpt>
      <trkpt lat="43.55794" lon="2.79471">
        <ele>971.9</ele>
        <time>2021-06-30T16:16:36.999+02:00</time>
      </trkpt>
      <trkpt lat="43.55794" lon="2.7947">
        <ele>971.9</ele>
        <time>2021-06-30T16:16:37.999+02:00</time>
      </trkpt>
      <trkpt lat="43.55793" lon="2.79468">
        <ele>971.8</ele>
        <time>2021-06-30T16:16:38.999+02:00</time>
      </trkpt>
      <trkpt lat="43.55792" lon="2.79467">
        <ele>971.6</ele>
        <time>2021-06-30T16:16:39.999+02:00</time>
      </trkpt>
      <trkpt lat="43.55791" lon="2.79465">
        <ele>971.5</ele>
        <time>2021-06-30T16:16:40.999+02:00</time>
      </trkpt>
      <trkpt lat="43.55791" lon="2.79465">
        <ele>971.5</ele>
        <time>2021-06-30T16:16:41.999+02:00</time>
      </trkpt>
      <trkpt lat="43.55791" lon="2.79464">
        <ele>971.5</ele>
        <time>2021-06-30T16:16:42.999+02:00</time>
      </trkpt>
      <trkpt lat="43.5579" lon="2.79462">
        <ele>971.4</ele>
        <time>2021-06-30T16:16:43.999+02:00</time>
      </trkpt>
      <trkpt lat="43.5579" lon="2.79461">
        <ele>971.3</ele>
        <time>2021-06-30T16:16:44.999+02:00</time>
      </trkpt>
      <trkpt lat="43.5579" lon="2.7946">
        <ele>971.3</ele>
        <time>2021-06-30T16:16:45.999+02:00</time>
      </trkpt>
      <trkpt lat="43.55789" lon="2.79461">
        <ele>971.2</ele>
        <time>2021-06-30T16:16:46.999+02:00</time>
      </trkpt>
      <trkpt lat="43.5579" lon="2.79458">
        <ele>971.4</ele>
        <time>2021-06-30T16:16:47.999+02:00</time>
      </trkpt>
      <trkpt lat="43.55791" lon="2.79454">
        <ele>971.7</ele>
        <time>2021-06-30T16:16:48.999+02:00</time>
      </trkpt>
      <trkpt lat="43.55791" lon="2.79451">
        <ele>971.8</ele>
        <time>2021-06-30T16:16:49.999+02:00</time>
      </trkpt>
      <trkpt lat="43.55791" lon="2.79449">
        <ele>971.9</ele>
        <time>2021-06-30T16:16:50.999+02:00</time>
      </trkpt>
      <trkpt lat="43.55792" lon="2.79448">
        <ele>972.1</ele>
        <time>2021-06-30T16:16:51.999+02:00</time>
      </trkpt>
      <trkpt lat="43.55792" lon="2.79448">
        <ele>972.1</ele>
        <time>2021-06-30T16:16:52.999+02:00</time>
      </trkpt>
      <trkpt lat="43.55792" lon="2.79447">
        <ele>972.1</ele>
        <time>2021-06-30T16:16:53.999+02:00</time>
      </trkpt>
      <trkpt lat="43.55792" lon="2.79447">
        <ele>972.1</ele>
        <time>2021-06-30T16:16:54.999+02:00</time>
      </trkpt>
      <trkpt lat="43.55792" lon="2.79445">
        <ele>972.2</ele>
        <time>2021-06-30T16:16:55.999+02:00</time>
      </trkpt>
      <trkpt lat="43.55792" lon="2.79443">
        <ele>972.3</ele>
        <time>2021-06-30T16:16:56.999+02:00</time>
      </trkpt>
      <trkpt lat="43.55792" lon="2.79442">
        <ele>972.4</ele>
        <time>2021-06-30T16:16:57.999+02:00</time>
      </trkpt>
      <trkpt lat="43.55792" lon="2.7944">
        <ele>972.4</ele>
        <time>2021-06-30T16:16:58.999+02:00</time>
      </trkpt>
      <trkpt lat="43.55792" lon="2.79439">
        <ele>972.4</ele>
        <time>2021-06-30T16:16:59.999+02:00</time>
      </trkpt>
      <trkpt lat="43.55792" lon="2.79437">
        <ele>972.5</ele>
        <time>2021-06-30T16:17:00.999+02:00</time>
      </trkpt>
      <trkpt lat="43.55792" lon="2.79436">
        <ele>972.6</ele>
        <time>2021-06-30T16:17:01.999+02:00</time>
      </trkpt>
      <trkpt lat="43.55792" lon="2.79435">
        <ele>972.6</ele>
        <time>2021-06-30T16:17:02.999+02:00</time>
      </trkpt>
      <trkpt lat="43.55792" lon="2.79434">
        <ele>972.7</ele>
        <time>2021-06-30T16:17:03.999+02:00</time>
      </trkpt>
      <trkpt lat="43.55793" lon="2.79433">
        <ele>972.8</ele>
        <time>2021-06-30T16:17:04.999+02:00</time>
      </trkpt>
      <trkpt lat="43.55794" lon="2.79431">
        <ele>973</ele>
        <time>2021-06-30T16:17:05.999+02:00</time>
      </trkpt>
      <trkpt lat="43.55794" lon="2.7943">
        <ele>973</ele>
        <time>2021-06-30T16:17:06.999+02:00</time>
      </trkpt>
      <trkpt lat="43.55794" lon="2.79429">
        <ele>973.1</ele>
        <time>2021-06-30T16:17:07.999+02:00</time>
      </trkpt>
      <trkpt lat="43.55794" lon="2.79428">
        <ele>973.1</ele>
        <time>2021-06-30T16:17:08.999+02:00</time>
      </trkpt>
      <trkpt lat="43.55794" lon="2.79426">
        <ele>973.2</ele>
        <time>2021-06-30T16:17:09.999+02:00</time>
      </trkpt>
      <trkpt lat="43.55794" lon="2.79425">
        <ele>973.2</ele>
        <time>2021-06-30T16:17:10.999+02:00</time>
      </trkpt>
      <trkpt lat="43.55794" lon="2.79423">
        <ele>973.4</ele>
        <time>2021-06-30T16:17:11.999+02:00</time>
      </trkpt>
      <trkpt lat="43.55794" lon="2.7942">
        <ele>973.5</ele>
        <time>2021-06-30T16:17:12.999+02:00</time>
      </trkpt>
      <trkpt lat="43.55794" lon="2.7942">
        <ele>973.5</ele>
        <time>2021-06-30T16:17:13.999+02:00</time>
      </trkpt>
      <trkpt lat="43.55794" lon="2.7942">
        <ele>973.5</ele>
        <time>2021-06-30T16:17:14.999+02:00</time>
      </trkpt>
      <trkpt lat="43.55795" lon="2.79419">
        <ele>973.8</ele>
        <time>2021-06-30T16:17:15.999+02:00</time>
      </trkpt>
      <trkpt lat="43.55795" lon="2.79418">
        <ele>973.8</ele>
        <time>2021-06-30T16:17:16.999+02:00</time>
      </trkpt>
      <trkpt lat="43.55795" lon="2.79417">
        <ele>973.9</ele>
        <time>2021-06-30T16:17:17.999+02:00</time>
      </trkpt>
      <trkpt lat="43.55795" lon="2.79416">
        <ele>973.9</ele>
        <time>2021-06-30T16:17:18.999+02:00</time>
      </trkpt>
      <trkpt lat="43.55795" lon="2.79415">
        <ele>974</ele>
        <time>2021-06-30T16:17:19.999+02:00</time>
      </trkpt>
      <trkpt lat="43.55795" lon="2.79414">
        <ele>974</ele>
        <time>2021-06-30T16:17:20.999+02:00</time>
      </trkpt>
      <trkpt lat="43.55796" lon="2.79413">
        <ele>974.1</ele>
        <time>2021-06-30T16:17:21.999+02:00</time>
      </trkpt>
      <trkpt lat="43.55796" lon="2.79412">
        <ele>974.3</ele>
        <time>2021-06-30T16:17:22.999+02:00</time>
      </trkpt>
      <trkpt lat="43.55796" lon="2.7941">
        <ele>974.5</ele>
        <time>2021-06-30T16:17:23.999+02:00</time>
      </trkpt>
      <trkpt lat="43.55797" lon="2.79409">
        <ele>974.6</ele>
        <time>2021-06-30T16:17:24.999+02:00</time>
      </trkpt>
      <trkpt lat="43.55797" lon="2.79409">
        <ele>974.6</ele>
        <time>2021-06-30T16:17:25.999+02:00</time>
      </trkpt>
      <trkpt lat="43.55797" lon="2.79408">
        <ele>974.6</ele>
        <time>2021-06-30T16:17:26.999+02:00</time>
      </trkpt>
      <trkpt lat="43.55797" lon="2.79408">
        <ele>974.7</ele>
        <time>2021-06-30T16:17:27.999+02:00</time>
      </trkpt>
      <trkpt lat="43.55797" lon="2.79406">
        <ele>974.9</ele>
        <time>2021-06-30T16:17:28.999+02:00</time>
      </trkpt>
      <trkpt lat="43.55797" lon="2.79405">
        <ele>974.9</ele>
        <time>2021-06-30T16:17:29.999+02:00</time>
      </trkpt>
      <trkpt lat="43.55797" lon="2.79405">
        <ele>975</ele>
        <time>2021-06-30T16:17:30.999+02:00</time>
      </trkpt>
      <trkpt lat="43.55798" lon="2.79404">
        <ele>975</ele>
        <time>2021-06-30T16:17:31.999+02:00</time>
      </trkpt>
      <trkpt lat="43.55798" lon="2.79404">
        <ele>975</ele>
        <time>2021-06-30T16:17:32.999+02:00</time>
      </trkpt>
      <trkpt lat="43.55798" lon="2.79404">
        <ele>975.1</ele>
        <time>2021-06-30T16:17:33.999+02:00</time>
      </trkpt>
      <trkpt lat="43.55799" lon="2.79401">
        <ele>975.4</ele>
        <time>2021-06-30T16:17:34.999+02:00</time>
      </trkpt>
      <trkpt lat="43.55799" lon="2.794">
        <ele>975.5</ele>
        <time>2021-06-30T16:17:35.999+02:00</time>
      </trkpt>
      <trkpt lat="43.55798" lon="2.79399">
        <ele>975.5</ele>
        <time>2021-06-30T16:17:36.999+02:00</time>
      </trkpt>
      <trkpt lat="43.55799" lon="2.79397">
        <ele>975.7</ele>
        <time>2021-06-30T16:17:37.999+02:00</time>
      </trkpt>
      <trkpt lat="43.55799" lon="2.79394">
        <ele>975.8</ele>
        <time>2021-06-30T16:17:38.999+02:00</time>
      </trkpt>
      <trkpt lat="43.55799" lon="2.79392">
        <ele>976</ele>
        <time>2021-06-30T16:17:39.999+02:00</time>
      </trkpt>
      <trkpt lat="43.558" lon="2.79391">
        <ele>976.1</ele>
        <time>2021-06-30T16:17:40.999+02:00</time>
      </trkpt>
      <trkpt lat="43.558" lon="2.7939">
        <ele>976.2</ele>
        <time>2021-06-30T16:17:41.999+02:00</time>
      </trkpt>
      <trkpt lat="43.558" lon="2.79389">
        <ele>976.4</ele>
        <time>2021-06-30T16:17:42.999+02:00</time>
      </trkpt>
      <trkpt lat="43.558" lon="2.79389">
        <ele>976.4</ele>
        <time>2021-06-30T16:17:43.999+02:00</time>
      </trkpt>
      <trkpt lat="43.55801" lon="2.79388">
        <ele>976.5</ele>
        <time>2021-06-30T16:17:44.999+02:00</time>
      </trkpt>
      <trkpt lat="43.55802" lon="2.79386">
        <ele>976.7</ele>
        <time>2021-06-30T16:17:45.999+02:00</time>
      </trkpt>
      <trkpt lat="43.55803" lon="2.79385">
        <ele>977</ele>
        <time>2021-06-30T16:17:46.999+02:00</time>
      </trkpt>
      <trkpt lat="43.55803" lon="2.79384">
        <ele>977.1</ele>
        <time>2021-06-30T16:17:47.999+02:00</time>
      </trkpt>
      <trkpt lat="43.55804" lon="2.79383">
        <ele>977.3</ele>
        <time>2021-06-30T16:17:48.999+02:00</time>
      </trkpt>
      <trkpt lat="43.55804" lon="2.79382">
        <ele>977.5</ele>
        <time>2021-06-30T16:17:49.999+02:00</time>
      </trkpt>
      <trkpt lat="43.55805" lon="2.79381">
        <ele>977.6</ele>
        <time>2021-06-30T16:17:50.999+02:00</time>
      </trkpt>
      <trkpt lat="43.55806" lon="2.7938">
        <ele>977.8</ele>
        <time>2021-06-30T16:17:51.999+02:00</time>
      </trkpt>
      <trkpt lat="43.55806" lon="2.79379">
        <ele>977.8</ele>
        <time>2021-06-30T16:17:52.999+02:00</time>
      </trkpt>
      <trkpt lat="43.55806" lon="2.79378">
        <ele>978</ele>
        <time>2021-06-30T16:17:53.999+02:00</time>
      </trkpt>
      <trkpt lat="43.55807" lon="2.79376">
        <ele>978.2</ele>
        <time>2021-06-30T16:17:54.999+02:00</time>
      </trkpt>
      <trkpt lat="43.55808" lon="2.79375">
        <ele>978.4</ele>
        <time>2021-06-30T16:17:55.999+02:00</time>
      </trkpt>
      <trkpt lat="43.55808" lon="2.79373">
        <ele>978.6</ele>
        <time>2021-06-30T16:17:56.999+02:00</time>
      </trkpt>
      <trkpt lat="43.55808" lon="2.79371">
        <ele>978.7</ele>
        <time>2021-06-30T16:17:57.999+02:00</time>
      </trkpt>
      <trkpt lat="43.55809" lon="2.79369">
        <ele>978.9</ele>
        <time>2021-06-30T16:17:58.999+02:00</time>
      </trkpt>
      <trkpt lat="43.55809" lon="2.79368">
        <ele>978.9</ele>
        <time>2021-06-30T16:17:59.999+02:00</time>
      </trkpt>
      <trkpt lat="43.55809" lon="2.79367">
        <ele>978.9</ele>
        <time>2021-06-30T16:18:00.999+02:00</time>
      </trkpt>
      <trkpt lat="43.55809" lon="2.79366">
        <ele>978.9</ele>
        <time>2021-06-30T16:18:01.999+02:00</time>
      </trkpt>
      <trkpt lat="43.55808" lon="2.79365">
        <ele>979</ele>
        <time>2021-06-30T16:18:02.999+02:00</time>
      </trkpt>
      <trkpt lat="43.55808" lon="2.79364">
        <ele>978.9</ele>
        <time>2021-06-30T16:18:03.999+02:00</time>
      </trkpt>
      <trkpt lat="43.55808" lon="2.79362">
        <ele>979</ele>
        <time>2021-06-30T16:18:04.999+02:00</time>
      </trkpt>
      <trkpt lat="43.55808" lon="2.79361">
        <ele>979.1</ele>
        <time>2021-06-30T16:18:05.999+02:00</time>
      </trkpt>
      <trkpt lat="43.55808" lon="2.79359">
        <ele>979.1</ele>
        <time>2021-06-30T16:18:06.999+02:00</time>
      </trkpt>
      <trkpt lat="43.55808" lon="2.79356">
        <ele>979.2</ele>
        <time>2021-06-30T16:18:07.999+02:00</time>
      </trkpt>
      <trkpt lat="43.55807" lon="2.79354">
        <ele>979.1</ele>
        <time>2021-06-30T16:18:08.999+02:00</time>
      </trkpt>
      <trkpt lat="43.55806" lon="2.79353">
        <ele>979</ele>
        <time>2021-06-30T16:18:09.999+02:00</time>
      </trkpt>
      <trkpt lat="43.55806" lon="2.79352">
        <ele>979</ele>
        <time>2021-06-30T16:18:10.999+02:00</time>
      </trkpt>
      <trkpt lat="43.55806" lon="2.79349">
        <ele>979.1</ele>
        <time>2021-06-30T16:18:11.999+02:00</time>
      </trkpt>
      <trkpt lat="43.55806" lon="2.79347">
        <ele>979.2</ele>
        <time>2021-06-30T16:18:12.999+02:00</time>
      </trkpt>
      <trkpt lat="43.55806" lon="2.79346">
        <ele>979.2</ele>
        <time>2021-06-30T16:18:13.999+02:00</time>
      </trkpt>
      <trkpt lat="43.55805" lon="2.79345">
        <ele>979.2</ele>
        <time>2021-06-30T16:18:14.999+02:00</time>
      </trkpt>
      <trkpt lat="43.55805" lon="2.79344">
        <ele>979.2</ele>
        <time>2021-06-30T16:18:15.999+02:00</time>
      </trkpt>
      <trkpt lat="43.55806" lon="2.79343">
        <ele>979.3</ele>
        <time>2021-06-30T16:18:16.999+02:00</time>
      </trkpt>
      <trkpt lat="43.55806" lon="2.79342">
        <ele>979.4</ele>
        <time>2021-06-30T16:18:17.999+02:00</time>
      </trkpt>
      <trkpt lat="43.55806" lon="2.79342">
        <ele>979.5</ele>
        <time>2021-06-30T16:18:18.999+02:00</time>
      </trkpt>
      <trkpt lat="43.55807" lon="2.79341">
        <ele>979.5</ele>
        <time>2021-06-30T16:18:19.999+02:00</time>
      </trkpt>
      <trkpt lat="43.55807" lon="2.79341">
        <ele>979.6</ele>
        <time>2021-06-30T16:18:20.999+02:00</time>
      </trkpt>
      <trkpt lat="43.55808" lon="2.7934">
        <ele>979.7</ele>
        <time>2021-06-30T16:18:21.999+02:00</time>
      </trkpt>
      <trkpt lat="43.55807" lon="2.79339">
        <ele>979.7</ele>
        <time>2021-06-30T16:18:22.999+02:00</time>
      </trkpt>
      <trkpt lat="43.55808" lon="2.79338">
        <ele>979.9</ele>
        <time>2021-06-30T16:18:23.999+02:00</time>
      </trkpt>
      <trkpt lat="43.55808" lon="2.79336">
        <ele>980</ele>
        <time>2021-06-30T16:18:24.999+02:00</time>
      </trkpt>
      <trkpt lat="43.55808" lon="2.79334">
        <ele>980.1</ele>
        <time>2021-06-30T16:18:25.999+02:00</time>
      </trkpt>
      <trkpt lat="43.55809" lon="2.79332">
        <ele>980.2</ele>
        <time>2021-06-30T16:18:26.999+02:00</time>
      </trkpt>
      <trkpt lat="43.55809" lon="2.79331">
        <ele>980.2</ele>
        <time>2021-06-30T16:18:27.999+02:00</time>
      </trkpt>
      <trkpt lat="43.55809" lon="2.7933">
        <ele>980.2</ele>
        <time>2021-06-30T16:18:28.999+02:00</time>
      </trkpt>
      <trkpt lat="43.55809" lon="2.79327">
        <ele>980.2</ele>
        <time>2021-06-30T16:18:29.999+02:00</time>
      </trkpt>
      <trkpt lat="43.55809" lon="2.79325">
        <ele>980.3</ele>
        <time>2021-06-30T16:18:30.999+02:00</time>
      </trkpt>
      <trkpt lat="43.5581" lon="2.79324">
        <ele>980.4</ele>
        <time>2021-06-30T16:18:31.999+02:00</time>
      </trkpt>
      <trkpt lat="43.5581" lon="2.79322">
        <ele>980.4</ele>
        <time>2021-06-30T16:18:32.999+02:00</time>
      </trkpt>
      <trkpt lat="43.5581" lon="2.79321">
        <ele>980.4</ele>
        <time>2021-06-30T16:18:33.999+02:00</time>
      </trkpt>
      <trkpt lat="43.5581" lon="2.7932">
        <ele>980.4</ele>
        <time>2021-06-30T16:18:34.999+02:00</time>
      </trkpt>
      <trkpt lat="43.5581" lon="2.7932">
        <ele>980.4</ele>
        <time>2021-06-30T16:18:35.999+02:00</time>
      </trkpt>
      <trkpt lat="43.5581" lon="2.7932">
        <ele>980.4</ele>
        <time>2021-06-30T16:18:36.999+02:00</time>
      </trkpt>
      <trkpt lat="43.5581" lon="2.7932">
        <ele>980.4</ele>
        <time>2021-06-30T16:18:37.999+02:00</time>
      </trkpt>
      <trkpt lat="43.5581" lon="2.79319">
        <ele>980.4</ele>
        <time>2021-06-30T16:18:38.999+02:00</time>
      </trkpt>
      <trkpt lat="43.5581" lon="2.79316">
        <ele>980.4</ele>
        <time>2021-06-30T16:18:39.999+02:00</time>
      </trkpt>
      <trkpt lat="43.5581" lon="2.79314">
        <ele>980.5</ele>
        <time>2021-06-30T16:18:40.999+02:00</time>
      </trkpt>
      <trkpt lat="43.5581" lon="2.79314">
        <ele>980.5</ele>
        <time>2021-06-30T16:18:41.999+02:00</time>
      </trkpt>
      <trkpt lat="43.5581" lon="2.79313">
        <ele>980.5</ele>
        <time>2021-06-30T16:18:42.999+02:00</time>
      </trkpt>
      <trkpt lat="43.55811" lon="2.79312">
        <ele>980.6</ele>
        <time>2021-06-30T16:18:43.999+02:00</time>
      </trkpt>
      <trkpt lat="43.55811" lon="2.79312">
        <ele>980.6</ele>
        <time>2021-06-30T16:18:44.999+02:00</time>
      </trkpt>
      <trkpt lat="43.5581" lon="2.79311">
        <ele>980.5</ele>
        <time>2021-06-30T16:18:45.999+02:00</time>
      </trkpt>
      <trkpt lat="43.5581" lon="2.7931">
        <ele>980.5</ele>
        <time>2021-06-30T16:18:46.999+02:00</time>
      </trkpt>
      <trkpt lat="43.5581" lon="2.79308">
        <ele>980.6</ele>
        <time>2021-06-30T16:18:47.999+02:00</time>
      </trkpt>
      <trkpt lat="43.5581" lon="2.79307">
        <ele>980.6</ele>
        <time>2021-06-30T16:18:48.999+02:00</time>
      </trkpt>
      <trkpt lat="43.55811" lon="2.79306">
        <ele>980.6</ele>
        <time>2021-06-30T16:18:49.999+02:00</time>
      </trkpt>
      <trkpt lat="43.5581" lon="2.79306">
        <ele>980.6</ele>
        <time>2021-06-30T16:18:50.999+02:00</time>
      </trkpt>
      <trkpt lat="43.55811" lon="2.79305">
        <ele>980.7</ele>
        <time>2021-06-30T16:18:51.999+02:00</time>
      </trkpt>
      <trkpt lat="43.55812" lon="2.79305">
        <ele>980.9</ele>
        <time>2021-06-30T16:18:52.999+02:00</time>
      </trkpt>
      <trkpt lat="43.55813" lon="2.79303">
        <ele>981</ele>
        <time>2021-06-30T16:18:53.999+02:00</time>
      </trkpt>
      <trkpt lat="43.55813" lon="2.79303">
        <ele>981</ele>
        <time>2021-06-30T16:18:54.999+02:00</time>
      </trkpt>
      <trkpt lat="43.55813" lon="2.793">
        <ele>981.1</ele>
        <time>2021-06-30T16:18:55.999+02:00</time>
      </trkpt>
      <trkpt lat="43.55813" lon="2.79299">
        <ele>981</ele>
        <time>2021-06-30T16:18:56.999+02:00</time>
      </trkpt>
      <trkpt lat="43.55813" lon="2.79297">
        <ele>981</ele>
        <time>2021-06-30T16:18:57.999+02:00</time>
      </trkpt>
      <trkpt lat="43.55812" lon="2.79294">
        <ele>981</ele>
        <time>2021-06-30T16:18:58.999+02:00</time>
      </trkpt>
      <trkpt lat="43.55812" lon="2.79292">
        <ele>980.9</ele>
        <time>2021-06-30T16:18:59.999+02:00</time>
      </trkpt>
      <trkpt lat="43.55812" lon="2.79291">
        <ele>980.9</ele>
        <time>2021-06-30T16:19:00.999+02:00</time>
      </trkpt>
      <trkpt lat="43.55812" lon="2.7929">
        <ele>980.9</ele>
        <time>2021-06-30T16:19:01.999+02:00</time>
      </trkpt>
      <trkpt lat="43.55811" lon="2.79289">
        <ele>980.8</ele>
        <time>2021-06-30T16:19:02.999+02:00</time>
      </trkpt>
      <trkpt lat="43.55811" lon="2.79289">
        <ele>980.8</ele>
        <time>2021-06-30T16:19:03.999+02:00</time>
      </trkpt>
      <trkpt lat="43.55811" lon="2.79289">
        <ele>980.8</ele>
        <time>2021-06-30T16:19:04.999+02:00</time>
      </trkpt>
      <trkpt lat="43.55811" lon="2.79287">
        <ele>980.8</ele>
        <time>2021-06-30T16:19:05.999+02:00</time>
      </trkpt>
      <trkpt lat="43.55811" lon="2.79286">
        <ele>980.8</ele>
        <time>2021-06-30T16:19:06.999+02:00</time>
      </trkpt>
      <trkpt lat="43.55811" lon="2.79285">
        <ele>980.9</ele>
        <time>2021-06-30T16:19:07.999+02:00</time>
      </trkpt>
      <trkpt lat="43.55812" lon="2.79285">
        <ele>980.9</ele>
        <time>2021-06-30T16:19:08.999+02:00</time>
      </trkpt>
      <trkpt lat="43.55812" lon="2.79285">
        <ele>980.9</ele>
        <time>2021-06-30T16:19:09.999+02:00</time>
      </trkpt>
      <trkpt lat="43.55813" lon="2.79283">
        <ele>981.1</ele>
        <time>2021-06-30T16:19:10.999+02:00</time>
      </trkpt>
      <trkpt lat="43.55813" lon="2.7928">
        <ele>981.1</ele>
        <time>2021-06-30T16:19:11.999+02:00</time>
      </trkpt>
      <trkpt lat="43.55814" lon="2.79278">
        <ele>981.3</ele>
        <time>2021-06-30T16:19:12.999+02:00</time>
      </trkpt>
      <trkpt lat="43.55814" lon="2.79276">
        <ele>981.4</ele>
        <time>2021-06-30T16:19:13.999+02:00</time>
      </trkpt>
      <trkpt lat="43.55815" lon="2.79274">
        <ele>981.5</ele>
        <time>2021-06-30T16:19:14.999+02:00</time>
      </trkpt>
      <trkpt lat="43.55816" lon="2.79273">
        <ele>981.6</ele>
        <time>2021-06-30T16:19:15.999+02:00</time>
      </trkpt>
      <trkpt lat="43.55816" lon="2.79271">
        <ele>981.7</ele>
        <time>2021-06-30T16:19:16.999+02:00</time>
      </trkpt>
      <trkpt lat="43.55816" lon="2.7927">
        <ele>981.7</ele>
        <time>2021-06-30T16:19:17.999+02:00</time>
      </trkpt>
      <trkpt lat="43.55817" lon="2.79268">
        <ele>981.7</ele>
        <time>2021-06-30T16:19:18.999+02:00</time>
      </trkpt>
      <trkpt lat="43.55817" lon="2.79267">
        <ele>981.7</ele>
        <time>2021-06-30T16:19:19.999+02:00</time>
      </trkpt>
      <trkpt lat="43.55816" lon="2.79267">
        <ele>981.7</ele>
        <time>2021-06-30T16:19:20.999+02:00</time>
      </trkpt>
      <trkpt lat="43.55816" lon="2.79267">
        <ele>981.7</ele>
        <time>2021-06-30T16:19:21.999+02:00</time>
      </trkpt>
      <trkpt lat="43.55816" lon="2.79267">
        <ele>981.6</ele>
        <time>2021-06-30T16:19:22.999+02:00</time>
      </trkpt>
      <trkpt lat="43.55816" lon="2.79266">
        <ele>981.6</ele>
        <time>2021-06-30T16:19:23.999+02:00</time>
      </trkpt>
      <trkpt lat="43.55814" lon="2.79265">
        <ele>981.4</ele>
        <time>2021-06-30T16:19:24.999+02:00</time>
      </trkpt>
      <trkpt lat="43.55813" lon="2.79265">
        <ele>981.2</ele>
        <time>2021-06-30T16:19:25.999+02:00</time>
      </trkpt>
      <trkpt lat="43.55812" lon="2.79265">
        <ele>981.1</ele>
        <time>2021-06-30T16:19:26.999+02:00</time>
      </trkpt>
      <trkpt lat="43.55811" lon="2.79265">
        <ele>980.9</ele>
        <time>2021-06-30T16:19:27.999+02:00</time>
      </trkpt>
      <trkpt lat="43.5581" lon="2.79266">
        <ele>980.8</ele>
        <time>2021-06-30T16:19:28.999+02:00</time>
      </trkpt>
      <trkpt lat="43.55809" lon="2.79267">
        <ele>980.6</ele>
        <time>2021-06-30T16:19:29.999+02:00</time>
      </trkpt>
      <trkpt lat="43.55808" lon="2.79267">
        <ele>980.5</ele>
        <time>2021-06-30T16:19:30.999+02:00</time>
      </trkpt>
      <trkpt lat="43.55807" lon="2.79266">
        <ele>980.3</ele>
        <time>2021-06-30T16:19:31.999+02:00</time>
      </trkpt>
      <trkpt lat="43.55806" lon="2.79266">
        <ele>980.2</ele>
        <time>2021-06-30T16:19:32.999+02:00</time>
      </trkpt>
      <trkpt lat="43.55805" lon="2.79266">
        <ele>980.1</ele>
        <time>2021-06-30T16:19:33.999+02:00</time>
      </trkpt>
      <trkpt lat="43.55804" lon="2.79265">
        <ele>979.9</ele>
        <time>2021-06-30T16:19:34.999+02:00</time>
      </trkpt>
      <trkpt lat="43.55804" lon="2.79265">
        <ele>980</ele>
        <time>2021-06-30T16:19:35.999+02:00</time>
      </trkpt>
      <trkpt lat="43.55802" lon="2.79266">
        <ele>979.8</ele>
        <time>2021-06-30T16:19:36.999+02:00</time>
      </trkpt>
      <trkpt lat="43.55802" lon="2.79265">
        <ele>979.7</ele>
        <time>2021-06-30T16:19:37.999+02:00</time>
      </trkpt>
      <trkpt lat="43.558" lon="2.79265">
        <ele>979.5</ele>
        <time>2021-06-30T16:19:38.999+02:00</time>
      </trkpt>
      <trkpt lat="43.55798" lon="2.79264">
        <ele>979.2</ele>
        <time>2021-06-30T16:19:39.999+02:00</time>
      </trkpt>
      <trkpt lat="43.55797" lon="2.79264">
        <ele>979.1</ele>
        <time>2021-06-30T16:19:40.999+02:00</time>
      </trkpt>
      <trkpt lat="43.55796" lon="2.79264">
        <ele>978.9</ele>
        <time>2021-06-30T16:19:41.999+02:00</time>
      </trkpt>
      <trkpt lat="43.55794" lon="2.79263">
        <ele>978.7</ele>
        <time>2021-06-30T16:19:42.999+02:00</time>
      </trkpt>
      <trkpt lat="43.55793" lon="2.79262">
        <ele>978.6</ele>
        <time>2021-06-30T16:19:43.999+02:00</time>
      </trkpt>
      <trkpt lat="43.55793" lon="2.79261">
        <ele>978.5</ele>
        <time>2021-06-30T16:19:44.999+02:00</time>
      </trkpt>
      <trkpt lat="43.55791" lon="2.79261">
        <ele>978.3</ele>
        <time>2021-06-30T16:19:45.999+02:00</time>
      </trkpt>
      <trkpt lat="43.5579" lon="2.79261">
        <ele>978.2</ele>
        <time>2021-06-30T16:19:46.999+02:00</time>
      </trkpt>
      <trkpt lat="43.55789" lon="2.7926">
        <ele>978</ele>
        <time>2021-06-30T16:19:47.999+02:00</time>
      </trkpt>
      <trkpt lat="43.55788" lon="2.7926">
        <ele>977.9</ele>
        <time>2021-06-30T16:19:48.999+02:00</time>
      </trkpt>
      <trkpt lat="43.55786" lon="2.7926">
        <ele>977.7</ele>
        <time>2021-06-30T16:19:49.999+02:00</time>
      </trkpt>
      <trkpt lat="43.55785" lon="2.7926">
        <ele>977.5</ele>
        <time>2021-06-30T16:19:50.999+02:00</time>
      </trkpt>
      <trkpt lat="43.55784" lon="2.79261">
        <ele>977.4</ele>
        <time>2021-06-30T16:19:51.999+02:00</time>
      </trkpt>
      <trkpt lat="43.55784" lon="2.79261">
        <ele>977.3</ele>
        <time>2021-06-30T16:19:52.999+02:00</time>
      </trkpt>
      <trkpt lat="43.55784" lon="2.79261">
        <ele>977.3</ele>
        <time>2021-06-30T16:19:53.999+02:00</time>
      </trkpt>
      <trkpt lat="43.55783" lon="2.79261">
        <ele>977.1</ele>
        <time>2021-06-30T16:19:54.999+02:00</time>
      </trkpt>
      <trkpt lat="43.55781" lon="2.79261">
        <ele>976.9</ele>
        <time>2021-06-30T16:19:55.999+02:00</time>
      </trkpt>
      <trkpt lat="43.5578" lon="2.79263">
        <ele>976.7</ele>
        <time>2021-06-30T16:19:56.999+02:00</time>
      </trkpt>
      <trkpt lat="43.55778" lon="2.79263">
        <ele>976.5</ele>
        <time>2021-06-30T16:19:57.999+02:00</time>
      </trkpt>
      <trkpt lat="43.55776" lon="2.79264">
        <ele>976.3</ele>
        <time>2021-06-30T16:19:58.999+02:00</time>
      </trkpt>
      <trkpt lat="43.55775" lon="2.79264">
        <ele>976</ele>
        <time>2021-06-30T16:19:59.999+02:00</time>
      </trkpt>
      <trkpt lat="43.55773" lon="2.79265">
        <ele>975.8</ele>
        <time>2021-06-30T16:20:00.999+02:00</time>
      </trkpt>
      <trkpt lat="43.55772" lon="2.79267">
        <ele>975.6</ele>
        <time>2021-06-30T16:20:01.999+02:00</time>
      </trkpt>
      <trkpt lat="43.55771" lon="2.79267">
        <ele>975.5</ele>
        <time>2021-06-30T16:20:02.999+02:00</time>
      </trkpt>
      <trkpt lat="43.5577" lon="2.79268">
        <ele>975.4</ele>
        <time>2021-06-30T16:20:03.999+02:00</time>
      </trkpt>
      <trkpt lat="43.5577" lon="2.79268">
        <ele>975.3</ele>
        <time>2021-06-30T16:20:04.999+02:00</time>
      </trkpt>
      <trkpt lat="43.55769" lon="2.79269">
        <ele>975.2</ele>
        <time>2021-06-30T16:20:05.999+02:00</time>
      </trkpt>
      <trkpt lat="43.55768" lon="2.79269">
        <ele>975.1</ele>
        <time>2021-06-30T16:20:06.999+02:00</time>
      </trkpt>
      <trkpt lat="43.55767" lon="2.7927">
        <ele>974.9</ele>
        <time>2021-06-30T16:20:07.999+02:00</time>
      </trkpt>
      <trkpt lat="43.55767" lon="2.7927">
        <ele>974.8</ele>
        <time>2021-06-30T16:20:08.999+02:00</time>
      </trkpt>
      <trkpt lat="43.55765" lon="2.79271">
        <ele>974.6</ele>
        <time>2021-06-30T16:20:09.999+02:00</time>
      </trkpt>
      <trkpt lat="43.55765" lon="2.79271">
        <ele>974.5</ele>
        <time>2021-06-30T16:20:10.999+02:00</time>
      </trkpt>
      <trkpt lat="43.55764" lon="2.79271">
        <ele>974.4</ele>
        <time>2021-06-30T16:20:11.999+02:00</time>
      </trkpt>
      <trkpt lat="43.55763" lon="2.79271">
        <ele>974.3</ele>
        <time>2021-06-30T16:20:12.999+02:00</time>
      </trkpt>
      <trkpt lat="43.55762" lon="2.79271">
        <ele>974.2</ele>
        <time>2021-06-30T16:20:13.999+02:00</time>
      </trkpt>
      <trkpt lat="43.55762" lon="2.79271">
        <ele>974.2</ele>
        <time>2021-06-30T16:20:14.999+02:00</time>
      </trkpt>
      <trkpt lat="43.55762" lon="2.79271">
        <ele>974.2</ele>
        <time>2021-06-30T16:20:15.999+02:00</time>
      </trkpt>
      <trkpt lat="43.55762" lon="2.79271">
        <ele>974.1</ele>
        <time>2021-06-30T16:20:16.999+02:00</time>
      </trkpt>
      <trkpt lat="43.55762" lon="2.79271">
        <ele>974.1</ele>
        <time>2021-06-30T16:20:17.999+02:00</time>
      </trkpt>
      <trkpt lat="43.55759" lon="2.7927">
        <ele>973.8</ele>
        <time>2021-06-30T16:20:18.999+02:00</time>
      </trkpt>
      <trkpt lat="43.55757" lon="2.7927">
        <ele>973.5</ele>
        <time>2021-06-30T16:20:19.999+02:00</time>
      </trkpt>
      <trkpt lat="43.55754" lon="2.7927">
        <ele>973</ele>
        <time>2021-06-30T16:20:20.999+02:00</time>
      </trkpt>
      <trkpt lat="43.55752" lon="2.7927">
        <ele>972.8</ele>
        <time>2021-06-30T16:20:21.999+02:00</time>
      </trkpt>
      <trkpt lat="43.55752" lon="2.7927">
        <ele>972.8</ele>
        <time>2021-06-30T16:20:22.999+02:00</time>
      </trkpt>
      <trkpt lat="43.5575" lon="2.7927">
        <ele>972.6</ele>
        <time>2021-06-30T16:20:23.999+02:00</time>
      </trkpt>
      <trkpt lat="43.55749" lon="2.79271">
        <ele>972.4</ele>
        <time>2021-06-30T16:20:24.999+02:00</time>
      </trkpt>
      <trkpt lat="43.55748" lon="2.79273">
        <ele>972.2</ele>
        <time>2021-06-30T16:20:25.999+02:00</time>
      </trkpt>
      <trkpt lat="43.55747" lon="2.79273">
        <ele>972.1</ele>
        <time>2021-06-30T16:20:26.999+02:00</time>
      </trkpt>
      <trkpt lat="43.55746" lon="2.79273">
        <ele>972</ele>
        <time>2021-06-30T16:20:27.999+02:00</time>
      </trkpt>
      <trkpt lat="43.55746" lon="2.79274">
        <ele>971.9</ele>
        <time>2021-06-30T16:20:28.999+02:00</time>
      </trkpt>
      <trkpt lat="43.55745" lon="2.79274">
        <ele>971.8</ele>
        <time>2021-06-30T16:20:29.999+02:00</time>
      </trkpt>
      <trkpt lat="43.55744" lon="2.79274">
        <ele>971.7</ele>
        <time>2021-06-30T16:20:30.999+02:00</time>
      </trkpt>
      <trkpt lat="43.55743" lon="2.79275">
        <ele>971.6</ele>
        <time>2021-06-30T16:20:31.999+02:00</time>
      </trkpt>
      <trkpt lat="43.55742" lon="2.79275">
        <ele>971.5</ele>
        <time>2021-06-30T16:20:32.999+02:00</time>
      </trkpt>
      <trkpt lat="43.55741" lon="2.79275">
        <ele>971.4</ele>
        <time>2021-06-30T16:20:33.999+02:00</time>
      </trkpt>
      <trkpt lat="43.5574" lon="2.79275">
        <ele>971.2</ele>
        <time>2021-06-30T16:20:34.999+02:00</time>
      </trkpt>
      <trkpt lat="43.55738" lon="2.79275">
        <ele>971.1</ele>
        <time>2021-06-30T16:20:35.999+02:00</time>
      </trkpt>
      <trkpt lat="43.55736" lon="2.79274">
        <ele>970.8</ele>
        <time>2021-06-30T16:20:36.999+02:00</time>
      </trkpt>
      <trkpt lat="43.55734" lon="2.79274">
        <ele>970.6</ele>
        <time>2021-06-30T16:20:37.999+02:00</time>
      </trkpt>
      <trkpt lat="43.55733" lon="2.79274">
        <ele>970.5</ele>
        <time>2021-06-30T16:20:38.999+02:00</time>
      </trkpt>
      <trkpt lat="43.55732" lon="2.79273">
        <ele>970.4</ele>
        <time>2021-06-30T16:20:39.999+02:00</time>
      </trkpt>
      <trkpt lat="43.5573" lon="2.79272">
        <ele>970.2</ele>
        <time>2021-06-30T16:20:40.999+02:00</time>
      </trkpt>
      <trkpt lat="43.55728" lon="2.79272">
        <ele>970</ele>
        <time>2021-06-30T16:20:41.999+02:00</time>
      </trkpt>
      <trkpt lat="43.55726" lon="2.79271">
        <ele>969.8</ele>
        <time>2021-06-30T16:20:42.999+02:00</time>
      </trkpt>
      <trkpt lat="43.55724" lon="2.7927">
        <ele>969.6</ele>
        <time>2021-06-30T16:20:43.999+02:00</time>
      </trkpt>
      <trkpt lat="43.55723" lon="2.79269">
        <ele>969.4</ele>
        <time>2021-06-30T16:20:44.999+02:00</time>
      </trkpt>
      <trkpt lat="43.55722" lon="2.79269">
        <ele>969.3</ele>
        <time>2021-06-30T16:20:45.999+02:00</time>
      </trkpt>
      <trkpt lat="43.5572" lon="2.79268">
        <ele>969.1</ele>
        <time>2021-06-30T16:20:46.999+02:00</time>
      </trkpt>
      <trkpt lat="43.55719" lon="2.79267">
        <ele>969</ele>
        <time>2021-06-30T16:20:47.999+02:00</time>
      </trkpt>
      <trkpt lat="43.55718" lon="2.79266">
        <ele>968.9</ele>
        <time>2021-06-30T16:20:48.999+02:00</time>
      </trkpt>
      <trkpt lat="43.55717" lon="2.79265">
        <ele>968.8</ele>
        <time>2021-06-30T16:20:49.999+02:00</time>
      </trkpt>
      <trkpt lat="43.55715" lon="2.79264">
        <ele>968.6</ele>
        <time>2021-06-30T16:20:50.999+02:00</time>
      </trkpt>
      <trkpt lat="43.55714" lon="2.79263">
        <ele>968.5</ele>
        <time>2021-06-30T16:20:51.999+02:00</time>
      </trkpt>
      <trkpt lat="43.55713" lon="2.79263">
        <ele>968.4</ele>
        <time>2021-06-30T16:20:52.999+02:00</time>
      </trkpt>
      <trkpt lat="43.55712" lon="2.79262">
        <ele>968.3</ele>
        <time>2021-06-30T16:20:53.999+02:00</time>
      </trkpt>
      <trkpt lat="43.55711" lon="2.79261">
        <ele>968.2</ele>
        <time>2021-06-30T16:20:54.999+02:00</time>
      </trkpt>
      <trkpt lat="43.5571" lon="2.7926">
        <ele>968.1</ele>
        <time>2021-06-30T16:20:55.999+02:00</time>
      </trkpt>
      <trkpt lat="43.55709" lon="2.79259">
        <ele>968</ele>
        <time>2021-06-30T16:20:56.999+02:00</time>
      </trkpt>
      <trkpt lat="43.55708" lon="2.79258">
        <ele>967.9</ele>
        <time>2021-06-30T16:20:57.999+02:00</time>
      </trkpt>
      <trkpt lat="43.55708" lon="2.79256">
        <ele>967.9</ele>
        <time>2021-06-30T16:20:58.999+02:00</time>
      </trkpt>
      <trkpt lat="43.55707" lon="2.79255">
        <ele>967.8</ele>
        <time>2021-06-30T16:20:59.999+02:00</time>
      </trkpt>
      <trkpt lat="43.55706" lon="2.79253">
        <ele>967.7</ele>
        <time>2021-06-30T16:21:00.999+02:00</time>
      </trkpt>
      <trkpt lat="43.55705" lon="2.79252">
        <ele>967.6</ele>
        <time>2021-06-30T16:21:01.999+02:00</time>
      </trkpt>
      <trkpt lat="43.55705" lon="2.7925">
        <ele>967.6</ele>
        <time>2021-06-30T16:21:02.999+02:00</time>
      </trkpt>
      <trkpt lat="43.55704" lon="2.79249">
        <ele>967.6</ele>
        <time>2021-06-30T16:21:03.999+02:00</time>
      </trkpt>
      <trkpt lat="43.55704" lon="2.79248">
        <ele>967.7</ele>
        <time>2021-06-30T16:21:04.999+02:00</time>
      </trkpt>
      <trkpt lat="43.55703" lon="2.79246">
        <ele>967.9</ele>
        <time>2021-06-30T16:21:05.999+02:00</time>
      </trkpt>
      <trkpt lat="43.55703" lon="2.79245">
        <ele>968</ele>
        <time>2021-06-30T16:21:06.999+02:00</time>
      </trkpt>
      <trkpt lat="43.55702" lon="2.79243">
        <ele>968.1</ele>
        <time>2021-06-30T16:21:07.999+02:00</time>
      </trkpt>
      <trkpt lat="43.55702" lon="2.79242">
        <ele>968.2</ele>
        <time>2021-06-30T16:21:08.999+02:00</time>
      </trkpt>
      <trkpt lat="43.55701" lon="2.79241">
        <ele>968.3</ele>
        <time>2021-06-30T16:21:09.999+02:00</time>
      </trkpt>
      <trkpt lat="43.55701" lon="2.7924">
        <ele>968.4</ele>
        <time>2021-06-30T16:21:10.999+02:00</time>
      </trkpt>
      <trkpt lat="43.55701" lon="2.79239">
        <ele>968.5</ele>
        <time>2021-06-30T16:21:11.999+02:00</time>
      </trkpt>
      <trkpt lat="43.55701" lon="2.79238">
        <ele>968.6</ele>
        <time>2021-06-30T16:21:12.999+02:00</time>
      </trkpt>
      <trkpt lat="43.557" lon="2.79237">
        <ele>968.7</ele>
        <time>2021-06-30T16:21:13.999+02:00</time>
      </trkpt>
      <trkpt lat="43.557" lon="2.79236">
        <ele>968.7</ele>
        <time>2021-06-30T16:21:14.999+02:00</time>
      </trkpt>
      <trkpt lat="43.55699" lon="2.79235">
        <ele>968.9</ele>
        <time>2021-06-30T16:21:15.999+02:00</time>
      </trkpt>
      <trkpt lat="43.55699" lon="2.79234">
        <ele>968.9</ele>
        <time>2021-06-30T16:21:16.999+02:00</time>
      </trkpt>
      <trkpt lat="43.55698" lon="2.79232">
        <ele>969</ele>
        <time>2021-06-30T16:21:17.999+02:00</time>
      </trkpt>
      <trkpt lat="43.55698" lon="2.79231">
        <ele>969.1</ele>
        <time>2021-06-30T16:21:18.999+02:00</time>
      </trkpt>
      <trkpt lat="43.55698" lon="2.79231">
        <ele>969.2</ele>
        <time>2021-06-30T16:21:19.999+02:00</time>
      </trkpt>
      <trkpt lat="43.55697" lon="2.7923">
        <ele>969.3</ele>
        <time>2021-06-30T16:21:20.999+02:00</time>
      </trkpt>
      <trkpt lat="43.55697" lon="2.79228">
        <ele>969.4</ele>
        <time>2021-06-30T16:21:21.999+02:00</time>
      </trkpt>
      <trkpt lat="43.55696" lon="2.79227">
        <ele>969.5</ele>
        <time>2021-06-30T16:21:22.999+02:00</time>
      </trkpt>
      <trkpt lat="43.55696" lon="2.79225">
        <ele>969.7</ele>
        <time>2021-06-30T16:21:23.999+02:00</time>
      </trkpt>
      <trkpt lat="43.55695" lon="2.79224">
        <ele>969.7</ele>
        <time>2021-06-30T16:21:24.999+02:00</time>
      </trkpt>
      <trkpt lat="43.55694" lon="2.79223">
        <ele>969.7</ele>
        <time>2021-06-30T16:21:25.999+02:00</time>
      </trkpt>
      <trkpt lat="43.55693" lon="2.79222">
        <ele>969.7</ele>
        <time>2021-06-30T16:21:26.999+02:00</time>
      </trkpt>
      <trkpt lat="43.55691" lon="2.79222">
        <ele>969.5</ele>
        <time>2021-06-30T16:21:27.999+02:00</time>
      </trkpt>
      <trkpt lat="43.5569" lon="2.79222">
        <ele>969.5</ele>
        <time>2021-06-30T16:21:28.999+02:00</time>
      </trkpt>
      <trkpt lat="43.5569" lon="2.79221">
        <ele>969.5</ele>
        <time>2021-06-30T16:21:29.999+02:00</time>
      </trkpt>
      <trkpt lat="43.55689" lon="2.79221">
        <ele>969.4</ele>
        <time>2021-06-30T16:21:30.999+02:00</time>
      </trkpt>
      <trkpt lat="43.55688" lon="2.79221">
        <ele>969.4</ele>
        <time>2021-06-30T16:21:31.999+02:00</time>
      </trkpt>
      <trkpt lat="43.55688" lon="2.7922">
        <ele>969.4</ele>
        <time>2021-06-30T16:21:32.999+02:00</time>
      </trkpt>
      <trkpt lat="43.55687" lon="2.79219">
        <ele>969.4</ele>
        <time>2021-06-30T16:21:33.999+02:00</time>
      </trkpt>
      <trkpt lat="43.55686" lon="2.79218">
        <ele>969.4</ele>
        <time>2021-06-30T16:21:34.999+02:00</time>
      </trkpt>
      <trkpt lat="43.55686" lon="2.79217">
        <ele>969.5</ele>
        <time>2021-06-30T16:21:35.999+02:00</time>
      </trkpt>
      <trkpt lat="43.55685" lon="2.79216">
        <ele>969.7</ele>
        <time>2021-06-30T16:21:36.999+02:00</time>
      </trkpt>
      <trkpt lat="43.55684" lon="2.79214">
        <ele>969.8</ele>
        <time>2021-06-30T16:21:37.999+02:00</time>
      </trkpt>
      <trkpt lat="43.55684" lon="2.79212">
        <ele>969.9</ele>
        <time>2021-06-30T16:21:38.999+02:00</time>
      </trkpt>
      <trkpt lat="43.55683" lon="2.79211">
        <ele>970.1</ele>
        <time>2021-06-30T16:21:39.999+02:00</time>
      </trkpt>
      <trkpt lat="43.55683" lon="2.7921">
        <ele>970.1</ele>
        <time>2021-06-30T16:21:40.999+02:00</time>
      </trkpt>
      <trkpt lat="43.55682" lon="2.79208">
        <ele>970.3</ele>
        <time>2021-06-30T16:21:41.999+02:00</time>
      </trkpt>
      <trkpt lat="43.55681" lon="2.79206">
        <ele>970.4</ele>
        <time>2021-06-30T16:21:42.999+02:00</time>
      </trkpt>
      <trkpt lat="43.5568" lon="2.79205">
        <ele>970.5</ele>
        <time>2021-06-30T16:21:43.999+02:00</time>
      </trkpt>
      <trkpt lat="43.5568" lon="2.79202">
        <ele>970.8</ele>
        <time>2021-06-30T16:21:44.999+02:00</time>
      </trkpt>
      <trkpt lat="43.55679" lon="2.79201">
        <ele>970.9</ele>
        <time>2021-06-30T16:21:45.999+02:00</time>
      </trkpt>
      <trkpt lat="43.55679" lon="2.79199">
        <ele>971.1</ele>
        <time>2021-06-30T16:21:46.999+02:00</time>
      </trkpt>
      <trkpt lat="43.55679" lon="2.79198">
        <ele>971.2</ele>
        <time>2021-06-30T16:21:47.999+02:00</time>
      </trkpt>
      <trkpt lat="43.55678" lon="2.79197">
        <ele>971.3</ele>
        <time>2021-06-30T16:21:48.999+02:00</time>
      </trkpt>
      <trkpt lat="43.55678" lon="2.79196">
        <ele>971.4</ele>
        <time>2021-06-30T16:21:49.999+02:00</time>
      </trkpt>
      <trkpt lat="43.55678" lon="2.79195">
        <ele>971.6</ele>
        <time>2021-06-30T16:21:50.999+02:00</time>
      </trkpt>
      <trkpt lat="43.55678" lon="2.79194">
        <ele>971.6</ele>
        <time>2021-06-30T16:21:51.999+02:00</time>
      </trkpt>
      <trkpt lat="43.55678" lon="2.79193">
        <ele>971.8</ele>
        <time>2021-06-30T16:21:52.999+02:00</time>
      </trkpt>
      <trkpt lat="43.55677" lon="2.79192">
        <ele>971.9</ele>
        <time>2021-06-30T16:21:53.999+02:00</time>
      </trkpt>
      <trkpt lat="43.55677" lon="2.79191">
        <ele>971.9</ele>
        <time>2021-06-30T16:21:54.999+02:00</time>
      </trkpt>
      <trkpt lat="43.55677" lon="2.7919">
        <ele>972.1</ele>
        <time>2021-06-30T16:21:55.999+02:00</time>
      </trkpt>
      <trkpt lat="43.55676" lon="2.79189">
        <ele>972.2</ele>
        <time>2021-06-30T16:21:56.999+02:00</time>
      </trkpt>
      <trkpt lat="43.55676" lon="2.79188">
        <ele>972.2</ele>
        <time>2021-06-30T16:21:57.999+02:00</time>
      </trkpt>
      <trkpt lat="43.55676" lon="2.79187">
        <ele>972.3</ele>
        <time>2021-06-30T16:21:58.999+02:00</time>
      </trkpt>
      <trkpt lat="43.55675" lon="2.79186">
        <ele>972.4</ele>
        <time>2021-06-30T16:21:59.999+02:00</time>
      </trkpt>
      <trkpt lat="43.55675" lon="2.79185">
        <ele>972.5</ele>
        <time>2021-06-30T16:22:00.999+02:00</time>
      </trkpt>
      <trkpt lat="43.55675" lon="2.79184">
        <ele>972.6</ele>
        <time>2021-06-30T16:22:01.999+02:00</time>
      </trkpt>
      <trkpt lat="43.55674" lon="2.79183">
        <ele>972.7</ele>
        <time>2021-06-30T16:22:02.999+02:00</time>
      </trkpt>
      <trkpt lat="43.55673" lon="2.79182">
        <ele>972.8</ele>
        <time>2021-06-30T16:22:03.999+02:00</time>
      </trkpt>
      <trkpt lat="43.55673" lon="2.79181">
        <ele>972.8</ele>
        <time>2021-06-30T16:22:04.999+02:00</time>
      </trkpt>
      <trkpt lat="43.55672" lon="2.7918">
        <ele>972.9</ele>
        <time>2021-06-30T16:22:05.999+02:00</time>
      </trkpt>
      <trkpt lat="43.55672" lon="2.79179">
        <ele>973</ele>
        <time>2021-06-30T16:22:06.999+02:00</time>
      </trkpt>
      <trkpt lat="43.55671" lon="2.79178">
        <ele>973</ele>
        <time>2021-06-30T16:22:07.999+02:00</time>
      </trkpt>
      <trkpt lat="43.5567" lon="2.79176">
        <ele>973.1</ele>
        <time>2021-06-30T16:22:08.999+02:00</time>
      </trkpt>
      <trkpt lat="43.55669" lon="2.79175">
        <ele>973.2</ele>
        <time>2021-06-30T16:22:09.999+02:00</time>
      </trkpt>
      <trkpt lat="43.55668" lon="2.79173">
        <ele>973.3</ele>
        <time>2021-06-30T16:22:10.999+02:00</time>
      </trkpt>
      <trkpt lat="43.55668" lon="2.79172">
        <ele>973.5</ele>
        <time>2021-06-30T16:22:11.999+02:00</time>
      </trkpt>
      <trkpt lat="43.55667" lon="2.7917">
        <ele>973.6</ele>
        <time>2021-06-30T16:22:12.999+02:00</time>
      </trkpt>
      <trkpt lat="43.55667" lon="2.79169">
        <ele>973.6</ele>
        <time>2021-06-30T16:22:13.999+02:00</time>
      </trkpt>
      <trkpt lat="43.55666" lon="2.79168">
        <ele>973.7</ele>
        <time>2021-06-30T16:22:14.999+02:00</time>
      </trkpt>
      <trkpt lat="43.55665" lon="2.79167">
        <ele>973.8</ele>
        <time>2021-06-30T16:22:15.999+02:00</time>
      </trkpt>
      <trkpt lat="43.55664" lon="2.79166">
        <ele>973.7</ele>
        <time>2021-06-30T16:22:16.999+02:00</time>
      </trkpt>
      <trkpt lat="43.55664" lon="2.79165">
        <ele>973.7</ele>
        <time>2021-06-30T16:22:17.999+02:00</time>
      </trkpt>
      <trkpt lat="43.55663" lon="2.79163">
        <ele>973.6</ele>
        <time>2021-06-30T16:22:18.999+02:00</time>
      </trkpt>
      <trkpt lat="43.55662" lon="2.79163">
        <ele>973.5</ele>
        <time>2021-06-30T16:22:19.999+02:00</time>
      </trkpt>
      <trkpt lat="43.55661" lon="2.79161">
        <ele>973.3</ele>
        <time>2021-06-30T16:22:20.999+02:00</time>
      </trkpt>
      <trkpt lat="43.55659" lon="2.7916">
        <ele>973.1</ele>
        <time>2021-06-30T16:22:21.999+02:00</time>
      </trkpt>
      <trkpt lat="43.55658" lon="2.79159">
        <ele>973</ele>
        <time>2021-06-30T16:22:22.999+02:00</time>
      </trkpt>
      <trkpt lat="43.55658" lon="2.79157">
        <ele>973</ele>
        <time>2021-06-30T16:22:23.999+02:00</time>
      </trkpt>
      <trkpt lat="43.55657" lon="2.79157">
        <ele>972.9</ele>
        <time>2021-06-30T16:22:24.999+02:00</time>
      </trkpt>
      <trkpt lat="43.55656" lon="2.79156">
        <ele>972.7</ele>
        <time>2021-06-30T16:22:25.999+02:00</time>
      </trkpt>
      <trkpt lat="43.55655" lon="2.79155">
        <ele>972.6</ele>
        <time>2021-06-30T16:22:26.999+02:00</time>
      </trkpt>
      <trkpt lat="43.55654" lon="2.79154">
        <ele>972.5</ele>
        <time>2021-06-30T16:22:27.999+02:00</time>
      </trkpt>
      <trkpt lat="43.55653" lon="2.79154">
        <ele>972.4</ele>
        <time>2021-06-30T16:22:28.999+02:00</time>
      </trkpt>
      <trkpt lat="43.55652" lon="2.79153">
        <ele>972.3</ele>
        <time>2021-06-30T16:22:29.999+02:00</time>
      </trkpt>
      <trkpt lat="43.55651" lon="2.79152">
        <ele>972.3</ele>
        <time>2021-06-30T16:22:30.999+02:00</time>
      </trkpt>
      <trkpt lat="43.55651" lon="2.79151">
        <ele>972.2</ele>
        <time>2021-06-30T16:22:31.999+02:00</time>
      </trkpt>
      <trkpt lat="43.5565" lon="2.79151">
        <ele>972.1</ele>
        <time>2021-06-30T16:22:32.999+02:00</time>
      </trkpt>
      <trkpt lat="43.55649" lon="2.7915">
        <ele>972</ele>
        <time>2021-06-30T16:22:33.999+02:00</time>
      </trkpt>
      <trkpt lat="43.55648" lon="2.79149">
        <ele>971.9</ele>
        <time>2021-06-30T16:22:34.999+02:00</time>
      </trkpt>
      <trkpt lat="43.55647" lon="2.79148">
        <ele>971.8</ele>
        <time>2021-06-30T16:22:35.999+02:00</time>
      </trkpt>
      <trkpt lat="43.55646" lon="2.79146">
        <ele>971.7</ele>
        <time>2021-06-30T16:22:36.999+02:00</time>
      </trkpt>
      <trkpt lat="43.55645" lon="2.79145">
        <ele>971.6</ele>
        <time>2021-06-30T16:22:37.999+02:00</time>
      </trkpt>
      <trkpt lat="43.55644" lon="2.79144">
        <ele>971.6</ele>
        <time>2021-06-30T16:22:38.999+02:00</time>
      </trkpt>
      <trkpt lat="43.55644" lon="2.79142">
        <ele>971.5</ele>
        <time>2021-06-30T16:22:39.999+02:00</time>
      </trkpt>
      <trkpt lat="43.55644" lon="2.79141">
        <ele>971.5</ele>
        <time>2021-06-30T16:22:40.999+02:00</time>
      </trkpt>
      <trkpt lat="43.55643" lon="2.7914">
        <ele>971.5</ele>
        <time>2021-06-30T16:22:41.999+02:00</time>
      </trkpt>
      <trkpt lat="43.55642" lon="2.79138">
        <ele>971.5</ele>
        <time>2021-06-30T16:22:42.999+02:00</time>
      </trkpt>
      <trkpt lat="43.55642" lon="2.79136">
        <ele>971.4</ele>
        <time>2021-06-30T16:22:43.999+02:00</time>
      </trkpt>
      <trkpt lat="43.55642" lon="2.79135">
        <ele>971.4</ele>
        <time>2021-06-30T16:22:44.999+02:00</time>
      </trkpt>
      <trkpt lat="43.55642" lon="2.79134">
        <ele>971.4</ele>
        <time>2021-06-30T16:22:45.999+02:00</time>
      </trkpt>
      <trkpt lat="43.55641" lon="2.79133">
        <ele>971.4</ele>
        <time>2021-06-30T16:22:46.999+02:00</time>
      </trkpt>
      <trkpt lat="43.55641" lon="2.79131">
        <ele>971.5</ele>
        <time>2021-06-30T16:22:47.999+02:00</time>
      </trkpt>
      <trkpt lat="43.55641" lon="2.79129">
        <ele>971.4</ele>
        <time>2021-06-30T16:22:48.999+02:00</time>
      </trkpt>
      <trkpt lat="43.5564" lon="2.79127">
        <ele>971.4</ele>
        <time>2021-06-30T16:22:49.999+02:00</time>
      </trkpt>
      <trkpt lat="43.55639" lon="2.79125">
        <ele>971.4</ele>
        <time>2021-06-30T16:22:50.999+02:00</time>
      </trkpt>
      <trkpt lat="43.55639" lon="2.79124">
        <ele>971.4</ele>
        <time>2021-06-30T16:22:51.999+02:00</time>
      </trkpt>
      <trkpt lat="43.55639" lon="2.79123">
        <ele>971.4</ele>
        <time>2021-06-30T16:22:52.999+02:00</time>
      </trkpt>
      <trkpt lat="43.55638" lon="2.79121">
        <ele>971.3</ele>
        <time>2021-06-30T16:22:53.999+02:00</time>
      </trkpt>
      <trkpt lat="43.55638" lon="2.7912">
        <ele>971.3</ele>
        <time>2021-06-30T16:22:54.999+02:00</time>
      </trkpt>
      <trkpt lat="43.55638" lon="2.79118">
        <ele>971.3</ele>
        <time>2021-06-30T16:22:55.999+02:00</time>
      </trkpt>
      <trkpt lat="43.55637" lon="2.79117">
        <ele>971.3</ele>
        <time>2021-06-30T16:22:56.999+02:00</time>
      </trkpt>
      <trkpt lat="43.55637" lon="2.79115">
        <ele>971.4</ele>
        <time>2021-06-30T16:22:57.999+02:00</time>
      </trkpt>
      <trkpt lat="43.55637" lon="2.79114">
        <ele>971.4</ele>
        <time>2021-06-30T16:22:58.999+02:00</time>
      </trkpt>
      <trkpt lat="43.55637" lon="2.79114">
        <ele>971.4</ele>
        <time>2021-06-30T16:22:59.999+02:00</time>
      </trkpt>
      <trkpt lat="43.55637" lon="2.79113">
        <ele>971.5</ele>
        <time>2021-06-30T16:23:00.999+02:00</time>
      </trkpt>
      <trkpt lat="43.55637" lon="2.79112">
        <ele>971.5</ele>
        <time>2021-06-30T16:23:01.999+02:00</time>
      </trkpt>
      <trkpt lat="43.55637" lon="2.79111">
        <ele>971.4</ele>
        <time>2021-06-30T16:23:02.999+02:00</time>
      </trkpt>
      <trkpt lat="43.55637" lon="2.79111">
        <ele>971.5</ele>
        <time>2021-06-30T16:23:03.999+02:00</time>
      </trkpt>
      <trkpt lat="43.55637" lon="2.79109">
        <ele>971.5</ele>
        <time>2021-06-30T16:23:04.999+02:00</time>
      </trkpt>
      <trkpt lat="43.55637" lon="2.79107">
        <ele>971.6</ele>
        <time>2021-06-30T16:23:05.999+02:00</time>
      </trkpt>
      <trkpt lat="43.55637" lon="2.79105">
        <ele>971.6</ele>
        <time>2021-06-30T16:23:06.999+02:00</time>
      </trkpt>
      <trkpt lat="43.55637" lon="2.79103">
        <ele>971.6</ele>
        <time>2021-06-30T16:23:07.999+02:00</time>
      </trkpt>
      <trkpt lat="43.55636" lon="2.79102">
        <ele>971.6</ele>
        <time>2021-06-30T16:23:08.999+02:00</time>
      </trkpt>
      <trkpt lat="43.55636" lon="2.79101">
        <ele>971.6</ele>
        <time>2021-06-30T16:23:09.999+02:00</time>
      </trkpt>
      <trkpt lat="43.55636" lon="2.791">
        <ele>971.6</ele>
        <time>2021-06-30T16:23:10.999+02:00</time>
      </trkpt>
      <trkpt lat="43.55635" lon="2.79098">
        <ele>971.6</ele>
        <time>2021-06-30T16:23:11.999+02:00</time>
      </trkpt>
      <trkpt lat="43.55635" lon="2.79097">
        <ele>971.6</ele>
        <time>2021-06-30T16:23:12.999+02:00</time>
      </trkpt>
      <trkpt lat="43.55634" lon="2.79096">
        <ele>971.6</ele>
        <time>2021-06-30T16:23:13.999+02:00</time>
      </trkpt>
      <trkpt lat="43.55634" lon="2.79096">
        <ele>971.6</ele>
        <time>2021-06-30T16:23:14.999+02:00</time>
      </trkpt>
      <trkpt lat="43.55634" lon="2.79095">
        <ele>971.6</ele>
        <time>2021-06-30T16:23:15.999+02:00</time>
      </trkpt>
      <trkpt lat="43.55634" lon="2.79094">
        <ele>971.6</ele>
        <time>2021-06-30T16:23:16.999+02:00</time>
      </trkpt>
      <trkpt lat="43.55634" lon="2.79093">
        <ele>971.6</ele>
        <time>2021-06-30T16:23:17.999+02:00</time>
      </trkpt>
      <trkpt lat="43.55634" lon="2.79092">
        <ele>971.6</ele>
        <time>2021-06-30T16:23:18.999+02:00</time>
      </trkpt>
      <trkpt lat="43.55634" lon="2.79092">
        <ele>971.7</ele>
        <time>2021-06-30T16:23:19.999+02:00</time>
      </trkpt>
      <trkpt lat="43.55634" lon="2.79091">
        <ele>971.7</ele>
        <time>2021-06-30T16:23:20.999+02:00</time>
      </trkpt>
      <trkpt lat="43.55634" lon="2.7909">
        <ele>971.7</ele>
        <time>2021-06-30T16:23:21.999+02:00</time>
      </trkpt>
      <trkpt lat="43.55634" lon="2.79089">
        <ele>971.8</ele>
        <time>2021-06-30T16:23:22.999+02:00</time>
      </trkpt>
      <trkpt lat="43.55634" lon="2.79087">
        <ele>971.7</ele>
        <time>2021-06-30T16:23:23.999+02:00</time>
      </trkpt>
      <trkpt lat="43.55634" lon="2.79087">
        <ele>971.8</ele>
        <time>2021-06-30T16:23:24.999+02:00</time>
      </trkpt>
      <trkpt lat="43.55634" lon="2.79086">
        <ele>971.8</ele>
        <time>2021-06-30T16:23:25.999+02:00</time>
      </trkpt>
      <trkpt lat="43.55633" lon="2.79084">
        <ele>971.8</ele>
        <time>2021-06-30T16:23:26.999+02:00</time>
      </trkpt>
      <trkpt lat="43.55633" lon="2.79083">
        <ele>971.8</ele>
        <time>2021-06-30T16:23:27.999+02:00</time>
      </trkpt>
      <trkpt lat="43.55633" lon="2.79081">
        <ele>971.8</ele>
        <time>2021-06-30T16:23:28.999+02:00</time>
      </trkpt>
      <trkpt lat="43.55633" lon="2.7908">
        <ele>971.8</ele>
        <time>2021-06-30T16:23:29.999+02:00</time>
      </trkpt>
      <trkpt lat="43.55632" lon="2.79079">
        <ele>971.8</ele>
        <time>2021-06-30T16:23:30.999+02:00</time>
      </trkpt>
      <trkpt lat="43.55632" lon="2.79077">
        <ele>971.8</ele>
        <time>2021-06-30T16:23:31.999+02:00</time>
      </trkpt>
      <trkpt lat="43.55631" lon="2.79075">
        <ele>971.9</ele>
        <time>2021-06-30T16:23:32.999+02:00</time>
      </trkpt>
      <trkpt lat="43.55631" lon="2.79074">
        <ele>971.9</ele>
        <time>2021-06-30T16:23:33.999+02:00</time>
      </trkpt>
      <trkpt lat="43.55631" lon="2.79073">
        <ele>971.9</ele>
        <time>2021-06-30T16:23:34.999+02:00</time>
      </trkpt>
      <trkpt lat="43.55631" lon="2.79072">
        <ele>971.9</ele>
        <time>2021-06-30T16:23:35.999+02:00</time>
      </trkpt>
      <trkpt lat="43.5563" lon="2.79071">
        <ele>971.9</ele>
        <time>2021-06-30T16:23:36.999+02:00</time>
      </trkpt>
      <trkpt lat="43.5563" lon="2.79069">
        <ele>972</ele>
        <time>2021-06-30T16:23:37.999+02:00</time>
      </trkpt>
      <trkpt lat="43.5563" lon="2.79068">
        <ele>972</ele>
        <time>2021-06-30T16:23:38.999+02:00</time>
      </trkpt>
      <trkpt lat="43.5563" lon="2.79067">
        <ele>972</ele>
        <time>2021-06-30T16:23:39.999+02:00</time>
      </trkpt>
      <trkpt lat="43.55629" lon="2.79066">
        <ele>972</ele>
        <time>2021-06-30T16:23:40.999+02:00</time>
      </trkpt>
      <trkpt lat="43.55629" lon="2.79065">
        <ele>972</ele>
        <time>2021-06-30T16:23:41.999+02:00</time>
      </trkpt>
      <trkpt lat="43.55629" lon="2.79064">
        <ele>972.1</ele>
        <time>2021-06-30T16:23:42.999+02:00</time>
      </trkpt>
      <trkpt lat="43.55629" lon="2.79063">
        <ele>972.1</ele>
        <time>2021-06-30T16:23:43.999+02:00</time>
      </trkpt>
      <trkpt lat="43.55629" lon="2.79062">
        <ele>972.1</ele>
        <time>2021-06-30T16:23:44.999+02:00</time>
      </trkpt>
      <trkpt lat="43.55628" lon="2.79061">
        <ele>972.1</ele>
        <time>2021-06-30T16:23:45.999+02:00</time>
      </trkpt>
      <trkpt lat="43.55628" lon="2.79061">
        <ele>972.1</ele>
        <time>2021-06-30T16:23:46.999+02:00</time>
      </trkpt>
      <trkpt lat="43.55628" lon="2.7906">
        <ele>972.1</ele>
        <time>2021-06-30T16:23:47.999+02:00</time>
      </trkpt>
      <trkpt lat="43.55628" lon="2.7906">
        <ele>972.1</ele>
        <time>2021-06-30T16:23:48.999+02:00</time>
      </trkpt>
      <trkpt lat="43.55628" lon="2.7906">
        <ele>972.1</ele>
        <time>2021-06-30T16:23:49.999+02:00</time>
      </trkpt>
      <trkpt lat="43.55628" lon="2.7906">
        <ele>972.1</ele>
        <time>2021-06-30T16:23:50.999+02:00</time>
      </trkpt>
      <trkpt lat="43.55627" lon="2.7906">
        <ele>972</ele>
        <time>2021-06-30T16:23:51.999+02:00</time>
      </trkpt>
      <trkpt lat="43.55627" lon="2.7906">
        <ele>972</ele>
        <time>2021-06-30T16:23:52.999+02:00</time>
      </trkpt>
      <trkpt lat="43.55626" lon="2.7906">
        <ele>971.9</ele>
        <time>2021-06-30T16:23:53.999+02:00</time>
      </trkpt>
      <trkpt lat="43.55625" lon="2.7906">
        <ele>971.9</ele>
        <time>2021-06-30T16:23:54.999+02:00</time>
      </trkpt>
      <trkpt lat="43.55624" lon="2.7906">
        <ele>971.8</ele>
        <time>2021-06-30T16:23:55.999+02:00</time>
      </trkpt>
      <trkpt lat="43.55624" lon="2.7906">
        <ele>971.8</ele>
        <time>2021-06-30T16:23:56.999+02:00</time>
      </trkpt>
      <trkpt lat="43.55624" lon="2.79059">
        <ele>971.8</ele>
        <time>2021-06-30T16:23:57.999+02:00</time>
      </trkpt>
      <trkpt lat="43.55624" lon="2.79058">
        <ele>971.8</ele>
        <time>2021-06-30T16:23:58.999+02:00</time>
      </trkpt>
      <trkpt lat="43.55624" lon="2.79058">
        <ele>971.8</ele>
        <time>2021-06-30T16:23:59.999+02:00</time>
      </trkpt>
      <trkpt lat="43.55623" lon="2.79057">
        <ele>971.8</ele>
        <time>2021-06-30T16:24:00.999+02:00</time>
      </trkpt>
      <trkpt lat="43.55623" lon="2.79057">
        <ele>971.8</ele>
        <time>2021-06-30T16:24:01.999+02:00</time>
      </trkpt>
      <trkpt lat="43.55624" lon="2.79057">
        <ele>971.8</ele>
        <time>2021-06-30T16:24:02.999+02:00</time>
      </trkpt>
      <trkpt lat="43.55624" lon="2.79056">
        <ele>971.9</ele>
        <time>2021-06-30T16:24:03.999+02:00</time>
      </trkpt>
      <trkpt lat="43.55624" lon="2.79055">
        <ele>971.9</ele>
        <time>2021-06-30T16:24:04.999+02:00</time>
      </trkpt>
      <trkpt lat="43.55624" lon="2.79055">
        <ele>972</ele>
        <time>2021-06-30T16:24:05.999+02:00</time>
      </trkpt>
      <trkpt lat="43.55624" lon="2.79049">
        <ele>972.1</ele>
        <time>2021-06-30T16:24:06.999+02:00</time>
      </trkpt>
      <trkpt lat="43.55624" lon="2.79047">
        <ele>972.2</ele>
        <time>2021-06-30T16:24:07.999+02:00</time>
      </trkpt>
      <trkpt lat="43.55625" lon="2.79046">
        <ele>972.4</ele>
        <time>2021-06-30T16:24:08.999+02:00</time>
      </trkpt>
      <trkpt lat="43.55625" lon="2.79043">
        <ele>972.5</ele>
        <time>2021-06-30T16:24:09.999+02:00</time>
      </trkpt>
      <trkpt lat="43.55625" lon="2.79042">
        <ele>972.5</ele>
        <time>2021-06-30T16:24:10.999+02:00</time>
      </trkpt>
      <trkpt lat="43.55625" lon="2.79041">
        <ele>972.5</ele>
        <time>2021-06-30T16:24:11.999+02:00</time>
      </trkpt>
      <trkpt lat="43.55625" lon="2.79038">
        <ele>972.6</ele>
        <time>2021-06-30T16:24:12.999+02:00</time>
      </trkpt>
      <trkpt lat="43.55625" lon="2.79033">
        <ele>972.8</ele>
        <time>2021-06-30T16:24:13.999+02:00</time>
      </trkpt>
      <trkpt lat="43.55625" lon="2.79032">
        <ele>972.8</ele>
        <time>2021-06-30T16:24:14.999+02:00</time>
      </trkpt>
      <trkpt lat="43.55625" lon="2.79029">
        <ele>973</ele>
        <time>2021-06-30T16:24:15.999+02:00</time>
      </trkpt>
      <trkpt lat="43.55625" lon="2.79027">
        <ele>973</ele>
        <time>2021-06-30T16:24:16.999+02:00</time>
      </trkpt>
      <trkpt lat="43.55626" lon="2.79026">
        <ele>973.1</ele>
        <time>2021-06-30T16:24:17.999+02:00</time>
      </trkpt>
      <trkpt lat="43.55626" lon="2.79024">
        <ele>973.2</ele>
        <time>2021-06-30T16:24:18.999+02:00</time>
      </trkpt>
      <trkpt lat="43.55626" lon="2.79022">
        <ele>973.3</ele>
        <time>2021-06-30T16:24:19.999+02:00</time>
      </trkpt>
      <trkpt lat="43.55626" lon="2.79023">
        <ele>973.3</ele>
        <time>2021-06-30T16:24:20.999+02:00</time>
      </trkpt>
      <trkpt lat="43.55625" lon="2.79023">
        <ele>973.2</ele>
        <time>2021-06-30T16:24:21.999+02:00</time>
      </trkpt>
      <trkpt lat="43.55624" lon="2.79023">
        <ele>973.1</ele>
        <time>2021-06-30T16:24:22.999+02:00</time>
      </trkpt>
      <trkpt lat="43.55624" lon="2.79023">
        <ele>973.1</ele>
        <time>2021-06-30T16:24:23.999+02:00</time>
      </trkpt>
      <trkpt lat="43.55625" lon="2.79021">
        <ele>973.3</ele>
        <time>2021-06-30T16:24:24.999+02:00</time>
      </trkpt>
      <trkpt lat="43.55625" lon="2.79019">
        <ele>973.3</ele>
        <time>2021-06-30T16:24:25.999+02:00</time>
      </trkpt>
      <trkpt lat="43.55625" lon="2.79018">
        <ele>973.4</ele>
        <time>2021-06-30T16:24:26.999+02:00</time>
      </trkpt>
      <trkpt lat="43.55625" lon="2.79017">
        <ele>973.4</ele>
        <time>2021-06-30T16:24:27.999+02:00</time>
      </trkpt>
      <trkpt lat="43.55625" lon="2.79017">
        <ele>973.4</ele>
        <time>2021-06-30T16:24:28.999+02:00</time>
      </trkpt>
      <trkpt lat="43.55625" lon="2.79017">
        <ele>973.4</ele>
        <time>2021-06-30T16:24:29.999+02:00</time>
      </trkpt>
      <trkpt lat="43.55625" lon="2.79016">
        <ele>973.4</ele>
        <time>2021-06-30T16:24:30.999+02:00</time>
      </trkpt>
      <trkpt lat="43.55626" lon="2.79014">
        <ele>973.6</ele>
        <time>2021-06-30T16:24:31.999+02:00</time>
      </trkpt>
      <trkpt lat="43.55627" lon="2.79012">
        <ele>973.7</ele>
        <time>2021-06-30T16:24:32.999+02:00</time>
      </trkpt>
      <trkpt lat="43.55627" lon="2.79011">
        <ele>973.7</ele>
        <time>2021-06-30T16:24:33.999+02:00</time>
      </trkpt>
      <trkpt lat="43.55627" lon="2.79011">
        <ele>973.7</ele>
        <time>2021-06-30T16:24:34.999+02:00</time>
      </trkpt>
      <trkpt lat="43.55627" lon="2.79011">
        <ele>973.7</ele>
        <time>2021-06-30T16:24:35.999+02:00</time>
      </trkpt>
      <trkpt lat="43.55627" lon="2.7901">
        <ele>973.8</ele>
        <time>2021-06-30T16:24:36.999+02:00</time>
      </trkpt>
      <trkpt lat="43.55627" lon="2.79007">
        <ele>973.9</ele>
        <time>2021-06-30T16:24:37.999+02:00</time>
      </trkpt>
      <trkpt lat="43.55627" lon="2.79005">
        <ele>974</ele>
        <time>2021-06-30T16:24:38.999+02:00</time>
      </trkpt>
      <trkpt lat="43.55627" lon="2.79003">
        <ele>974.1</ele>
        <time>2021-06-30T16:24:39.999+02:00</time>
      </trkpt>
      <trkpt lat="43.55627" lon="2.79002">
        <ele>974.1</ele>
        <time>2021-06-30T16:24:40.999+02:00</time>
      </trkpt>
      <trkpt lat="43.55627" lon="2.79001">
        <ele>974.1</ele>
        <time>2021-06-30T16:24:41.999+02:00</time>
      </trkpt>
      <trkpt lat="43.55627" lon="2.78999">
        <ele>974.3</ele>
        <time>2021-06-30T16:24:42.999+02:00</time>
      </trkpt>
      <trkpt lat="43.55627" lon="2.78998">
        <ele>974.3</ele>
        <time>2021-06-30T16:24:43.999+02:00</time>
      </trkpt>
      <trkpt lat="43.55626" lon="2.78997">
        <ele>974.3</ele>
        <time>2021-06-30T16:24:44.999+02:00</time>
      </trkpt>
      <trkpt lat="43.55626" lon="2.78997">
        <ele>974.4</ele>
        <time>2021-06-30T16:24:45.999+02:00</time>
      </trkpt>
      <trkpt lat="43.55626" lon="2.78996">
        <ele>974.4</ele>
        <time>2021-06-30T16:24:46.999+02:00</time>
      </trkpt>
      <trkpt lat="43.55625" lon="2.78995">
        <ele>974.5</ele>
        <time>2021-06-30T16:24:47.999+02:00</time>
      </trkpt>
      <trkpt lat="43.55625" lon="2.78994">
        <ele>974.6</ele>
        <time>2021-06-30T16:24:48.999+02:00</time>
      </trkpt>
      <trkpt lat="43.55625" lon="2.78994">
        <ele>974.6</ele>
        <time>2021-06-30T16:24:49.999+02:00</time>
      </trkpt>
      <trkpt lat="43.55625" lon="2.78992">
        <ele>974.8</ele>
        <time>2021-06-30T16:24:50.999+02:00</time>
      </trkpt>
      <trkpt lat="43.55624" lon="2.78991">
        <ele>974.8</ele>
        <time>2021-06-30T16:24:51.999+02:00</time>
      </trkpt>
      <trkpt lat="43.55624" lon="2.7899">
        <ele>974.9</ele>
        <time>2021-06-30T16:24:52.999+02:00</time>
      </trkpt>
      <trkpt lat="43.55624" lon="2.7899">
        <ele>974.9</ele>
        <time>2021-06-30T16:24:53.999+02:00</time>
      </trkpt>
      <trkpt lat="43.55624" lon="2.7899">
        <ele>974.9</ele>
        <time>2021-06-30T16:24:54.999+02:00</time>
      </trkpt>
      <trkpt lat="43.55624" lon="2.78988">
        <ele>975.1</ele>
        <time>2021-06-30T16:24:55.999+02:00</time>
      </trkpt>
      <trkpt lat="43.55624" lon="2.78985">
        <ele>975.4</ele>
        <time>2021-06-30T16:24:56.999+02:00</time>
      </trkpt>
      <trkpt lat="43.55624" lon="2.78983">
        <ele>975.6</ele>
        <time>2021-06-30T16:24:57.999+02:00</time>
      </trkpt>
      <trkpt lat="43.55625" lon="2.78981">
        <ele>975.8</ele>
        <time>2021-06-30T16:24:58.999+02:00</time>
      </trkpt>
      <trkpt lat="43.55625" lon="2.78977">
        <ele>976.2</ele>
        <time>2021-06-30T16:24:59.999+02:00</time>
      </trkpt>
      <trkpt lat="43.55624" lon="2.78977">
        <ele>976.2</ele>
        <time>2021-06-30T16:25:00.999+02:00</time>
      </trkpt>
      <trkpt lat="43.55624" lon="2.78976">
        <ele>976.2</ele>
        <time>2021-06-30T16:25:01.999+02:00</time>
      </trkpt>
      <trkpt lat="43.55624" lon="2.78976">
        <ele>976.2</ele>
        <time>2021-06-30T16:25:02.999+02:00</time>
      </trkpt>
      <trkpt lat="43.55624" lon="2.78976">
        <ele>976.2</ele>
        <time>2021-06-30T16:25:03.999+02:00</time>
      </trkpt>
      <trkpt lat="43.55624" lon="2.78976">
        <ele>976.2</ele>
        <time>2021-06-30T16:25:04.999+02:00</time>
      </trkpt>
      <trkpt lat="43.55624" lon="2.78976">
        <ele>976.2</ele>
        <time>2021-06-30T16:25:05.999+02:00</time>
      </trkpt>
      <trkpt lat="43.55624" lon="2.78976">
        <ele>976.3</ele>
        <time>2021-06-30T16:25:06.999+02:00</time>
      </trkpt>
      <trkpt lat="43.55624" lon="2.78976">
        <ele>976.3</ele>
        <time>2021-06-30T16:25:07.999+02:00</time>
      </trkpt>
      <trkpt lat="43.55624" lon="2.78976">
        <ele>976.3</ele>
        <time>2021-06-30T16:25:08.999+02:00</time>
      </trkpt>
      <trkpt lat="43.55624" lon="2.78976">
        <ele>976.3</ele>
        <time>2021-06-30T16:25:09.999+02:00</time>
      </trkpt>
      <trkpt lat="43.55624" lon="2.78976">
        <ele>976.3</ele>
        <time>2021-06-30T16:25:10.999+02:00</time>
      </trkpt>
      <trkpt lat="43.55624" lon="2.78976">
        <ele>976.3</ele>
        <time>2021-06-30T16:25:11.999+02:00</time>
      </trkpt>
      <trkpt lat="43.55624" lon="2.78976">
        <ele>976.3</ele>
        <time>2021-06-30T16:25:12.999+02:00</time>
      </trkpt>
      <trkpt lat="43.55624" lon="2.78976">
        <ele>976.3</ele>
        <time>2021-06-30T16:25:13.999+02:00</time>
      </trkpt>
      <trkpt lat="43.55624" lon="2.78976">
        <ele>976.3</ele>
        <time>2021-06-30T16:25:14.999+02:00</time>
      </trkpt>
      <trkpt lat="43.55624" lon="2.78976">
        <ele>976.3</ele>
        <time>2021-06-30T16:25:15.999+02:00</time>
      </trkpt>
      <trkpt lat="43.55624" lon="2.78976">
        <ele>976.3</ele>
        <time>2021-06-30T16:25:16.999+02:00</time>
      </trkpt>
      <trkpt lat="43.55624" lon="2.78976">
        <ele>976.3</ele>
        <time>2021-06-30T16:25:17.999+02:00</time>
      </trkpt>
      <trkpt lat="43.55624" lon="2.78976">
        <ele>976.3</ele>
        <time>2021-06-30T16:25:18.999+02:00</time>
      </trkpt>
      <trkpt lat="43.55624" lon="2.78976">
        <ele>976.3</ele>
        <time>2021-06-30T16:25:19.999+02:00</time>
      </trkpt>
      <trkpt lat="43.55624" lon="2.78976">
        <ele>976.3</ele>
        <time>2021-06-30T16:25:20.999+02:00</time>
      </trkpt>
      <trkpt lat="43.55624" lon="2.78976">
        <ele>976.3</ele>
        <time>2021-06-30T16:25:21.999+02:00</time>
      </trkpt>
      <trkpt lat="43.55625" lon="2.78974">
        <ele>976.4</ele>
        <time>2021-06-30T16:25:22.999+02:00</time>
      </trkpt>
      <trkpt lat="43.55625" lon="2.78974">
        <ele>976.5</ele>
        <time>2021-06-30T16:25:23.999+02:00</time>
      </trkpt>
      <trkpt lat="43.55625" lon="2.78974">
        <ele>976.5</ele>
        <time>2021-06-30T16:25:24.999+02:00</time>
      </trkpt>
      <trkpt lat="43.55625" lon="2.78974">
        <ele>976.5</ele>
        <time>2021-06-30T16:25:25.999+02:00</time>
      </trkpt>
      <trkpt lat="43.55625" lon="2.78974">
        <ele>976.5</ele>
        <time>2021-06-30T16:25:26.999+02:00</time>
      </trkpt>
      <trkpt lat="43.55625" lon="2.78974">
        <ele>976.5</ele>
        <time>2021-06-30T16:25:27.999+02:00</time>
      </trkpt>
      <trkpt lat="43.55625" lon="2.78974">
        <ele>976.5</ele>
        <time>2021-06-30T16:25:28.999+02:00</time>
      </trkpt>
      <trkpt lat="43.55625" lon="2.78974">
        <ele>976.5</ele>
        <time>2021-06-30T16:25:29.999+02:00</time>
      </trkpt>
      <trkpt lat="43.55625" lon="2.78974">
        <ele>976.5</ele>
        <time>2021-06-30T16:25:30.999+02:00</time>
      </trkpt>
      <trkpt lat="43.55625" lon="2.78974">
        <ele>976.5</ele>
        <time>2021-06-30T16:25:31.999+02:00</time>
      </trkpt>
      <trkpt lat="43.55625" lon="2.78974">
        <ele>976.5</ele>
        <time>2021-06-30T16:25:32.999+02:00</time>
      </trkpt>
      <trkpt lat="43.55625" lon="2.78974">
        <ele>976.5</ele>
        <time>2021-06-30T16:25:33.999+02:00</time>
      </trkpt>
      <trkpt lat="43.55625" lon="2.78974">
        <ele>976.5</ele>
        <time>2021-06-30T16:25:34.999+02:00</time>
      </trkpt>
      <trkpt lat="43.55624" lon="2.78974">
        <ele>976.4</ele>
        <time>2021-06-30T16:25:35.999+02:00</time>
      </trkpt>
      <trkpt lat="43.55624" lon="2.78975">
        <ele>976.3</ele>
        <time>2021-06-30T16:25:36.999+02:00</time>
      </trkpt>
      <trkpt lat="43.55624" lon="2.78976">
        <ele>976.3</ele>
        <time>2021-06-30T16:25:37.999+02:00</time>
      </trkpt>
      <trkpt lat="43.55624" lon="2.78976">
        <ele>976.3</ele>
        <time>2021-06-30T16:25:38.999+02:00</time>
      </trkpt>
      <trkpt lat="43.55624" lon="2.78976">
        <ele>976.2</ele>
        <time>2021-06-30T16:25:39.999+02:00</time>
      </trkpt>
      <trkpt lat="43.55624" lon="2.78976">
        <ele>976.2</ele>
        <time>2021-06-30T16:25:40.999+02:00</time>
      </trkpt>
      <trkpt lat="43.55624" lon="2.78976">
        <ele>976.2</ele>
        <time>2021-06-30T16:25:41.999+02:00</time>
      </trkpt>
      <trkpt lat="43.55624" lon="2.78976">
        <ele>976.2</ele>
        <time>2021-06-30T16:25:42.999+02:00</time>
      </trkpt>
      <trkpt lat="43.55624" lon="2.78974">
        <ele>976.5</ele>
        <time>2021-06-30T16:25:43.999+02:00</time>
      </trkpt>
      <trkpt lat="43.55624" lon="2.78973">
        <ele>976.5</ele>
        <time>2021-06-30T16:25:44.999+02:00</time>
      </trkpt>
      <trkpt lat="43.55624" lon="2.78973">
        <ele>976.6</ele>
        <time>2021-06-30T16:25:45.999+02:00</time>
      </trkpt>
      <trkpt lat="43.55624" lon="2.78973">
        <ele>976.6</ele>
        <time>2021-06-30T16:25:46.999+02:00</time>
      </trkpt>
      <trkpt lat="43.55624" lon="2.78973">
        <ele>976.6</ele>
        <time>2021-06-30T16:25:47.999+02:00</time>
      </trkpt>
      <trkpt lat="43.55624" lon="2.78973">
        <ele>976.6</ele>
        <time>2021-06-30T16:25:48.999+02:00</time>
      </trkpt>
      <trkpt lat="43.55624" lon="2.78973">
        <ele>976.6</ele>
        <time>2021-06-30T16:25:49.999+02:00</time>
      </trkpt>
      <trkpt lat="43.55624" lon="2.78973">
        <ele>976.6</ele>
        <time>2021-06-30T16:25:50.999+02:00</time>
      </trkpt>
      <trkpt lat="43.55624" lon="2.78973">
        <ele>976.6</ele>
        <time>2021-06-30T16:25:51.999+02:00</time>
      </trkpt>
      <trkpt lat="43.55624" lon="2.78971">
        <ele>976.7</ele>
        <time>2021-06-30T16:25:52.999+02:00</time>
      </trkpt>
      <trkpt lat="43.55624" lon="2.78971">
        <ele>976.7</ele>
        <time>2021-06-30T16:25:53.999+02:00</time>
      </trkpt>
      <trkpt lat="43.55623" lon="2.78971">
        <ele>976.7</ele>
        <time>2021-06-30T16:25:54.999+02:00</time>
      </trkpt>
      <trkpt lat="43.55623" lon="2.78969">
        <ele>976.8</ele>
        <time>2021-06-30T16:25:55.999+02:00</time>
      </trkpt>
      <trkpt lat="43.55623" lon="2.78968">
        <ele>977</ele>
        <time>2021-06-30T16:25:56.999+02:00</time>
      </trkpt>
      <trkpt lat="43.55624" lon="2.78967">
        <ele>977.1</ele>
        <time>2021-06-30T16:25:57.999+02:00</time>
      </trkpt>
      <trkpt lat="43.55623" lon="2.78967">
        <ele>977</ele>
        <time>2021-06-30T16:25:58.999+02:00</time>
      </trkpt>
      <trkpt lat="43.55623" lon="2.78967">
        <ele>977.1</ele>
        <time>2021-06-30T16:25:59.999+02:00</time>
      </trkpt>
      <trkpt lat="43.55623" lon="2.78967">
        <ele>977.1</ele>
        <time>2021-06-30T16:26:00.999+02:00</time>
      </trkpt>
      <trkpt lat="43.55623" lon="2.78967">
        <ele>977.1</ele>
        <time>2021-06-30T16:26:01.999+02:00</time>
      </trkpt>
      <trkpt lat="43.55623" lon="2.78967">
        <ele>977.1</ele>
        <time>2021-06-30T16:26:02.999+02:00</time>
      </trkpt>
      <trkpt lat="43.55623" lon="2.78967">
        <ele>977.1</ele>
        <time>2021-06-30T16:26:03.999+02:00</time>
      </trkpt>
      <trkpt lat="43.55624" lon="2.78966">
        <ele>977.2</ele>
        <time>2021-06-30T16:26:04.999+02:00</time>
      </trkpt>
      <trkpt lat="43.55625" lon="2.78964">
        <ele>977.4</ele>
        <time>2021-06-30T16:26:05.999+02:00</time>
      </trkpt>
      <trkpt lat="43.55626" lon="2.78963">
        <ele>977.6</ele>
        <time>2021-06-30T16:26:06.999+02:00</time>
      </trkpt>
      <trkpt lat="43.55626" lon="2.78962">
        <ele>977.7</ele>
        <time>2021-06-30T16:26:07.999+02:00</time>
      </trkpt>
      <trkpt lat="43.55626" lon="2.78962">
        <ele>977.7</ele>
        <time>2021-06-30T16:26:08.999+02:00</time>
      </trkpt>
      <trkpt lat="43.55626" lon="2.78962">
        <ele>977.7</ele>
        <time>2021-06-30T16:26:09.999+02:00</time>
      </trkpt>
      <trkpt lat="43.55626" lon="2.78962">
        <ele>977.7</ele>
        <time>2021-06-30T16:26:10.999+02:00</time>
      </trkpt>
      <trkpt lat="43.55626" lon="2.78962">
        <ele>977.7</ele>
        <time>2021-06-30T16:26:11.999+02:00</time>
      </trkpt>
      <trkpt lat="43.55626" lon="2.78963">
        <ele>977.7</ele>
        <time>2021-06-30T16:26:12.999+02:00</time>
      </trkpt>
      <trkpt lat="43.55626" lon="2.78963">
        <ele>977.7</ele>
        <time>2021-06-30T16:26:13.999+02:00</time>
      </trkpt>
      <trkpt lat="43.55626" lon="2.78963">
        <ele>977.6</ele>
        <time>2021-06-30T16:26:14.999+02:00</time>
      </trkpt>
      <trkpt lat="43.55626" lon="2.78963">
        <ele>977.6</ele>
        <time>2021-06-30T16:26:15.999+02:00</time>
      </trkpt>
      <trkpt lat="43.55626" lon="2.78962">
        <ele>977.7</ele>
        <time>2021-06-30T16:26:16.999+02:00</time>
      </trkpt>
      <trkpt lat="43.55626" lon="2.78962">
        <ele>977.8</ele>
        <time>2021-06-30T16:26:17.999+02:00</time>
      </trkpt>
      <trkpt lat="43.55627" lon="2.78961">
        <ele>977.9</ele>
        <time>2021-06-30T16:26:18.999+02:00</time>
      </trkpt>
      <trkpt lat="43.55627" lon="2.7896">
        <ele>978</ele>
        <time>2021-06-30T16:26:19.999+02:00</time>
      </trkpt>
      <trkpt lat="43.55627" lon="2.7896">
        <ele>978</ele>
        <time>2021-06-30T16:26:20.999+02:00</time>
      </trkpt>
      <trkpt lat="43.55627" lon="2.78959">
        <ele>978</ele>
        <time>2021-06-30T16:26:21.999+02:00</time>
      </trkpt>
      <trkpt lat="43.55627" lon="2.78959">
        <ele>978</ele>
        <time>2021-06-30T16:26:22.999+02:00</time>
      </trkpt>
      <trkpt lat="43.55627" lon="2.78959">
        <ele>978</ele>
        <time>2021-06-30T16:26:23.999+02:00</time>
      </trkpt>
      <trkpt lat="43.55627" lon="2.78959">
        <ele>978</ele>
        <time>2021-06-30T16:26:24.999+02:00</time>
      </trkpt>
      <trkpt lat="43.55627" lon="2.78959">
        <ele>978</ele>
        <time>2021-06-30T16:26:25.999+02:00</time>
      </trkpt>
      <trkpt lat="43.55627" lon="2.78959">
        <ele>978</ele>
        <time>2021-06-30T16:26:26.999+02:00</time>
      </trkpt>
      <trkpt lat="43.55627" lon="2.78959">
        <ele>978</ele>
        <time>2021-06-30T16:26:27.999+02:00</time>
      </trkpt>
      <trkpt lat="43.55627" lon="2.78959">
        <ele>978</ele>
        <time>2021-06-30T16:26:28.999+02:00</time>
      </trkpt>
      <trkpt lat="43.55627" lon="2.78959">
        <ele>978</ele>
        <time>2021-06-30T16:26:29.999+02:00</time>
      </trkpt>
      <trkpt lat="43.55627" lon="2.7896">
        <ele>978</ele>
        <time>2021-06-30T16:26:30.999+02:00</time>
      </trkpt>
      <trkpt lat="43.55627" lon="2.78959">
        <ele>978</ele>
        <time>2021-06-30T16:26:31.999+02:00</time>
      </trkpt>
      <trkpt lat="43.55628" lon="2.78958">
        <ele>978.1</ele>
        <time>2021-06-30T16:26:32.999+02:00</time>
      </trkpt>
      <trkpt lat="43.55628" lon="2.78958">
        <ele>978.2</ele>
        <time>2021-06-30T16:26:33.999+02:00</time>
      </trkpt>
      <trkpt lat="43.55628" lon="2.78958">
        <ele>978.2</ele>
        <time>2021-06-30T16:26:34.999+02:00</time>
      </trkpt>
      <trkpt lat="43.55629" lon="2.78958">
        <ele>978.2</ele>
        <time>2021-06-30T16:26:35.999+02:00</time>
      </trkpt>
      <trkpt lat="43.55629" lon="2.78958">
        <ele>978.2</ele>
        <time>2021-06-30T16:26:36.999+02:00</time>
      </trkpt>
      <trkpt lat="43.5563" lon="2.78959">
        <ele>978.2</ele>
        <time>2021-06-30T16:26:37.999+02:00</time>
      </trkpt>
      <trkpt lat="43.5563" lon="2.78959">
        <ele>978.2</ele>
        <time>2021-06-30T16:26:38.999+02:00</time>
      </trkpt>
      <trkpt lat="43.55631" lon="2.7896">
        <ele>978.2</ele>
        <time>2021-06-30T16:26:39.999+02:00</time>
      </trkpt>
      <trkpt lat="43.55631" lon="2.7896">
        <ele>978.2</ele>
        <time>2021-06-30T16:26:40.999+02:00</time>
      </trkpt>
      <trkpt lat="43.55632" lon="2.7896">
        <ele>978.2</ele>
        <time>2021-06-30T16:26:41.999+02:00</time>
      </trkpt>
      <trkpt lat="43.55632" lon="2.78959">
        <ele>978.2</ele>
        <time>2021-06-30T16:26:42.999+02:00</time>
      </trkpt>
      <trkpt lat="43.55631" lon="2.7896">
        <ele>978.1</ele>
        <time>2021-06-30T16:26:43.999+02:00</time>
      </trkpt>
      <trkpt lat="43.55631" lon="2.7896">
        <ele>978.1</ele>
        <time>2021-06-30T16:26:44.999+02:00</time>
      </trkpt>
      <trkpt lat="43.55631" lon="2.78961">
        <ele>978.1</ele>
        <time>2021-06-30T16:26:45.999+02:00</time>
      </trkpt>
      <trkpt lat="43.55631" lon="2.78961">
        <ele>978</ele>
        <time>2021-06-30T16:26:46.999+02:00</time>
      </trkpt>
      <trkpt lat="43.55631" lon="2.7896">
        <ele>978.1</ele>
        <time>2021-06-30T16:26:47.999+02:00</time>
      </trkpt>
      <trkpt lat="43.55631" lon="2.7896">
        <ele>978.1</ele>
        <time>2021-06-30T16:26:48.999+02:00</time>
      </trkpt>
      <trkpt lat="43.55632" lon="2.7896">
        <ele>978.2</ele>
        <time>2021-06-30T16:26:49.999+02:00</time>
      </trkpt>
      <trkpt lat="43.55633" lon="2.78959">
        <ele>978.3</ele>
        <time>2021-06-30T16:26:50.999+02:00</time>
      </trkpt>
      <trkpt lat="43.55633" lon="2.7896">
        <ele>978.3</ele>
        <time>2021-06-30T16:26:51.999+02:00</time>
      </trkpt>
      <trkpt lat="43.55633" lon="2.7896">
        <ele>978.3</ele>
        <time>2021-06-30T16:26:52.999+02:00</time>
      </trkpt>
      <trkpt lat="43.55633" lon="2.7896">
        <ele>978.3</ele>
        <time>2021-06-30T16:26:53.999+02:00</time>
      </trkpt>
      <trkpt lat="43.55633" lon="2.7896">
        <ele>978.3</ele>
        <time>2021-06-30T16:26:54.999+02:00</time>
      </trkpt>
      <trkpt lat="43.55633" lon="2.7896">
        <ele>978.2</ele>
        <time>2021-06-30T16:26:55.999+02:00</time>
      </trkpt>
      <trkpt lat="43.55633" lon="2.7896">
        <ele>978.2</ele>
        <time>2021-06-30T16:26:56.999+02:00</time>
      </trkpt>
      <trkpt lat="43.55633" lon="2.7896">
        <ele>978.2</ele>
        <time>2021-06-30T16:26:57.999+02:00</time>
      </trkpt>
      <trkpt lat="43.55634" lon="2.78961">
        <ele>978.2</ele>
        <time>2021-06-30T16:26:58.999+02:00</time>
      </trkpt>
      <trkpt lat="43.55634" lon="2.78961">
        <ele>978.2</ele>
        <time>2021-06-30T16:26:59.999+02:00</time>
      </trkpt>
      <trkpt lat="43.55634" lon="2.78961">
        <ele>978.2</ele>
        <time>2021-06-30T16:27:00.999+02:00</time>
      </trkpt>
      <trkpt lat="43.55634" lon="2.78961">
        <ele>978.2</ele>
        <time>2021-06-30T16:27:01.999+02:00</time>
      </trkpt>
      <trkpt lat="43.55634" lon="2.78961">
        <ele>978.2</ele>
        <time>2021-06-30T16:27:02.999+02:00</time>
      </trkpt>
      <trkpt lat="43.55634" lon="2.78961">
        <ele>978.2</ele>
        <time>2021-06-30T16:27:03.999+02:00</time>
      </trkpt>
      <trkpt lat="43.55634" lon="2.78961">
        <ele>978.2</ele>
        <time>2021-06-30T16:27:04.999+02:00</time>
      </trkpt>
      <trkpt lat="43.55634" lon="2.78961">
        <ele>978.2</ele>
        <time>2021-06-30T16:27:05.999+02:00</time>
      </trkpt>
      <trkpt lat="43.55634" lon="2.78961">
        <ele>978.2</ele>
        <time>2021-06-30T16:27:06.999+02:00</time>
      </trkpt>
      <trkpt lat="43.55634" lon="2.7896">
        <ele>978.2</ele>
        <time>2021-06-30T16:27:07.999+02:00</time>
      </trkpt>
      <trkpt lat="43.55634" lon="2.7896">
        <ele>978.2</ele>
        <time>2021-06-30T16:27:08.999+02:00</time>
      </trkpt>
      <trkpt lat="43.55634" lon="2.7896">
        <ele>978.2</ele>
        <time>2021-06-30T16:27:09.999+02:00</time>
      </trkpt>
      <trkpt lat="43.55634" lon="2.78961">
        <ele>978.2</ele>
        <time>2021-06-30T16:27:10.999+02:00</time>
      </trkpt>
      <trkpt lat="43.55632" lon="2.78961">
        <ele>978.1</ele>
        <time>2021-06-30T16:27:11.999+02:00</time>
      </trkpt>
      <trkpt lat="43.55633" lon="2.78962">
        <ele>978</ele>
        <time>2021-06-30T16:27:12.999+02:00</time>
      </trkpt>
      <trkpt lat="43.55631" lon="2.78963">
        <ele>977.9</ele>
        <time>2021-06-30T16:27:13.999+02:00</time>
      </trkpt>
      <trkpt lat="43.5563" lon="2.78963">
        <ele>977.8</ele>
        <time>2021-06-30T16:27:14.999+02:00</time>
      </trkpt>
      <trkpt lat="43.5563" lon="2.78964">
        <ele>977.7</ele>
        <time>2021-06-30T16:27:15.999+02:00</time>
      </trkpt>
      <trkpt lat="43.55631" lon="2.78964">
        <ele>977.7</ele>
        <time>2021-06-30T16:27:16.999+02:00</time>
      </trkpt>
      <trkpt lat="43.55631" lon="2.78965">
        <ele>977.6</ele>
        <time>2021-06-30T16:27:17.999+02:00</time>
      </trkpt>
      <trkpt lat="43.55631" lon="2.78966">
        <ele>977.6</ele>
        <time>2021-06-30T16:27:18.999+02:00</time>
      </trkpt>
      <trkpt lat="43.55631" lon="2.78966">
        <ele>977.6</ele>
        <time>2021-06-30T16:27:19.999+02:00</time>
      </trkpt>
      <trkpt lat="43.5563" lon="2.78966">
        <ele>977.6</ele>
        <time>2021-06-30T16:27:20.999+02:00</time>
      </trkpt>
      <trkpt lat="43.5563" lon="2.78967">
        <ele>977.4</ele>
        <time>2021-06-30T16:27:21.999+02:00</time>
      </trkpt>
      <trkpt lat="43.5563" lon="2.78967">
        <ele>977.4</ele>
        <time>2021-06-30T16:27:22.999+02:00</time>
      </trkpt>
      <trkpt lat="43.5563" lon="2.78966">
        <ele>977.5</ele>
        <time>2021-06-30T16:27:23.999+02:00</time>
      </trkpt>
      <trkpt lat="43.55629" lon="2.78967">
        <ele>977.4</ele>
        <time>2021-06-30T16:27:24.999+02:00</time>
      </trkpt>
      <trkpt lat="43.5563" lon="2.78966">
        <ele>977.5</ele>
        <time>2021-06-30T16:27:25.999+02:00</time>
      </trkpt>
      <trkpt lat="43.55629" lon="2.78965">
        <ele>977.6</ele>
        <time>2021-06-30T16:27:26.999+02:00</time>
      </trkpt>
      <trkpt lat="43.55629" lon="2.78965">
        <ele>977.6</ele>
        <time>2021-06-30T16:27:27.999+02:00</time>
      </trkpt>
      <trkpt lat="43.55629" lon="2.78965">
        <ele>977.6</ele>
        <time>2021-06-30T16:27:28.999+02:00</time>
      </trkpt>
      <trkpt lat="43.5563" lon="2.78963">
        <ele>977.7</ele>
        <time>2021-06-30T16:27:29.999+02:00</time>
      </trkpt>
      <trkpt lat="43.5563" lon="2.78962">
        <ele>977.9</ele>
        <time>2021-06-30T16:27:30.999+02:00</time>
      </trkpt>
      <trkpt lat="43.55631" lon="2.78961">
        <ele>978</ele>
        <time>2021-06-30T16:27:31.999+02:00</time>
      </trkpt>
      <trkpt lat="43.55631" lon="2.78961">
        <ele>978</ele>
        <time>2021-06-30T16:27:32.999+02:00</time>
      </trkpt>
      <trkpt lat="43.55632" lon="2.78962">
        <ele>978</ele>
        <time>2021-06-30T16:27:33.999+02:00</time>
      </trkpt>
      <trkpt lat="43.55632" lon="2.78961">
        <ele>978.1</ele>
        <time>2021-06-30T16:27:34.999+02:00</time>
      </trkpt>
      <trkpt lat="43.55633" lon="2.78959">
        <ele>978.3</ele>
        <time>2021-06-30T16:27:35.999+02:00</time>
      </trkpt>
      <trkpt lat="43.55633" lon="2.7896">
        <ele>978.2</ele>
        <time>2021-06-30T16:27:36.999+02:00</time>
      </trkpt>
      <trkpt lat="43.55633" lon="2.78959">
        <ele>978.3</ele>
        <time>2021-06-30T16:27:37.999+02:00</time>
      </trkpt>
      <trkpt lat="43.55632" lon="2.78958">
        <ele>978.4</ele>
        <time>2021-06-30T16:27:38.999+02:00</time>
      </trkpt>
      <trkpt lat="43.55632" lon="2.78958">
        <ele>978.4</ele>
        <time>2021-06-30T16:27:39.999+02:00</time>
      </trkpt>
      <trkpt lat="43.55632" lon="2.78957">
        <ele>978.5</ele>
        <time>2021-06-30T16:27:40.999+02:00</time>
      </trkpt>
      <trkpt lat="43.55632" lon="2.78956">
        <ele>978.5</ele>
        <time>2021-06-30T16:27:41.999+02:00</time>
      </trkpt>
      <trkpt lat="43.55632" lon="2.78956">
        <ele>978.6</ele>
        <time>2021-06-30T16:27:42.999+02:00</time>
      </trkpt>
      <trkpt lat="43.55633" lon="2.78955">
        <ele>978.7</ele>
        <time>2021-06-30T16:27:43.999+02:00</time>
      </trkpt>
      <trkpt lat="43.55634" lon="2.78954">
        <ele>978.8</ele>
        <time>2021-06-30T16:27:44.999+02:00</time>
      </trkpt>
      <trkpt lat="43.55634" lon="2.78953">
        <ele>978.9</ele>
        <time>2021-06-30T16:27:45.999+02:00</time>
      </trkpt>
      <trkpt lat="43.55635" lon="2.78953">
        <ele>978.9</ele>
        <time>2021-06-30T16:27:46.999+02:00</time>
      </trkpt>
      <trkpt lat="43.55635" lon="2.78952">
        <ele>979</ele>
        <time>2021-06-30T16:27:47.999+02:00</time>
      </trkpt>
      <trkpt lat="43.55635" lon="2.78952">
        <ele>979</ele>
        <time>2021-06-30T16:27:48.999+02:00</time>
      </trkpt>
      <trkpt lat="43.55636" lon="2.78952">
        <ele>979.1</ele>
        <time>2021-06-30T16:27:49.999+02:00</time>
      </trkpt>
      <trkpt lat="43.55636" lon="2.78951">
        <ele>979.2</ele>
        <time>2021-06-30T16:27:50.999+02:00</time>
      </trkpt>
      <trkpt lat="43.55637" lon="2.78951">
        <ele>979.2</ele>
        <time>2021-06-30T16:27:51.999+02:00</time>
      </trkpt>
      <trkpt lat="43.55637" lon="2.78951">
        <ele>979.2</ele>
        <time>2021-06-30T16:27:52.999+02:00</time>
      </trkpt>
      <trkpt lat="43.55637" lon="2.78951">
        <ele>979.2</ele>
        <time>2021-06-30T16:27:53.999+02:00</time>
      </trkpt>
      <trkpt lat="43.55637" lon="2.7895">
        <ele>979.3</ele>
        <time>2021-06-30T16:27:54.999+02:00</time>
      </trkpt>
      <trkpt lat="43.55638" lon="2.7895">
        <ele>979.3</ele>
        <time>2021-06-30T16:27:55.999+02:00</time>
      </trkpt>
      <trkpt lat="43.55638" lon="2.78949">
        <ele>979.4</ele>
        <time>2021-06-30T16:27:56.999+02:00</time>
      </trkpt>
      <trkpt lat="43.55639" lon="2.78949">
        <ele>979.5</ele>
        <time>2021-06-30T16:27:57.999+02:00</time>
      </trkpt>
      <trkpt lat="43.5564" lon="2.78948">
        <ele>979.7</ele>
        <time>2021-06-30T16:27:58.999+02:00</time>
      </trkpt>
      <trkpt lat="43.55641" lon="2.78947">
        <ele>979.8</ele>
        <time>2021-06-30T16:27:59.999+02:00</time>
      </trkpt>
      <trkpt lat="43.55643" lon="2.78945">
        <ele>980</ele>
        <time>2021-06-30T16:28:00.999+02:00</time>
      </trkpt>
      <trkpt lat="43.55643" lon="2.78944">
        <ele>980.1</ele>
        <time>2021-06-30T16:28:01.999+02:00</time>
      </trkpt>
      <trkpt lat="43.55644" lon="2.78943">
        <ele>980.2</ele>
        <time>2021-06-30T16:28:02.999+02:00</time>
      </trkpt>
      <trkpt lat="43.55644" lon="2.78943">
        <ele>980.2</ele>
        <time>2021-06-30T16:28:03.999+02:00</time>
      </trkpt>
      <trkpt lat="43.55645" lon="2.78942">
        <ele>980.3</ele>
        <time>2021-06-30T16:28:04.999+02:00</time>
      </trkpt>
      <trkpt lat="43.55646" lon="2.78942">
        <ele>980.4</ele>
        <time>2021-06-30T16:28:05.999+02:00</time>
      </trkpt>
      <trkpt lat="43.55647" lon="2.7894">
        <ele>980.6</ele>
        <time>2021-06-30T16:28:06.999+02:00</time>
      </trkpt>
      <trkpt lat="43.55648" lon="2.78938">
        <ele>980.8</ele>
        <time>2021-06-30T16:28:07.999+02:00</time>
      </trkpt>
      <trkpt lat="43.55648" lon="2.78938">
        <ele>980.8</ele>
        <time>2021-06-30T16:28:08.999+02:00</time>
      </trkpt>
      <trkpt lat="43.55649" lon="2.78936">
        <ele>981</ele>
        <time>2021-06-30T16:28:09.999+02:00</time>
      </trkpt>
      <trkpt lat="43.55649" lon="2.78935">
        <ele>981.1</ele>
        <time>2021-06-30T16:28:10.999+02:00</time>
      </trkpt>
      <trkpt lat="43.5565" lon="2.78935">
        <ele>981.1</ele>
        <time>2021-06-30T16:28:11.999+02:00</time>
      </trkpt>
      <trkpt lat="43.55651" lon="2.78935">
        <ele>981.1</ele>
        <time>2021-06-30T16:28:12.999+02:00</time>
      </trkpt>
      <trkpt lat="43.55651" lon="2.78935">
        <ele>981.1</ele>
        <time>2021-06-30T16:28:13.999+02:00</time>
      </trkpt>
      <trkpt lat="43.55652" lon="2.78935">
        <ele>981.2</ele>
        <time>2021-06-30T16:28:14.999+02:00</time>
      </trkpt>
      <trkpt lat="43.55653" lon="2.78934">
        <ele>981.3</ele>
        <time>2021-06-30T16:28:15.999+02:00</time>
      </trkpt>
      <trkpt lat="43.55654" lon="2.78933">
        <ele>981.4</ele>
        <time>2021-06-30T16:28:16.999+02:00</time>
      </trkpt>
      <trkpt lat="43.55655" lon="2.78931">
        <ele>981.6</ele>
        <time>2021-06-30T16:28:17.999+02:00</time>
      </trkpt>
      <trkpt lat="43.55655" lon="2.78931">
        <ele>981.6</ele>
        <time>2021-06-30T16:28:18.999+02:00</time>
      </trkpt>
      <trkpt lat="43.55655" lon="2.7893">
        <ele>981.7</ele>
        <time>2021-06-30T16:28:19.999+02:00</time>
      </trkpt>
      <trkpt lat="43.55657" lon="2.78929">
        <ele>981.8</ele>
        <time>2021-06-30T16:28:20.999+02:00</time>
      </trkpt>
      <trkpt lat="43.55657" lon="2.78928">
        <ele>981.9</ele>
        <time>2021-06-30T16:28:21.999+02:00</time>
      </trkpt>
      <trkpt lat="43.55658" lon="2.78928">
        <ele>981.9</ele>
        <time>2021-06-30T16:28:22.999+02:00</time>
      </trkpt>
      <trkpt lat="43.55658" lon="2.78927">
        <ele>982</ele>
        <time>2021-06-30T16:28:23.999+02:00</time>
      </trkpt>
      <trkpt lat="43.55658" lon="2.78925">
        <ele>982.1</ele>
        <time>2021-06-30T16:28:24.999+02:00</time>
      </trkpt>
      <trkpt lat="43.55658" lon="2.78925">
        <ele>982.2</ele>
        <time>2021-06-30T16:28:25.999+02:00</time>
      </trkpt>
      <trkpt lat="43.55659" lon="2.78923">
        <ele>982.3</ele>
        <time>2021-06-30T16:28:26.999+02:00</time>
      </trkpt>
      <trkpt lat="43.55659" lon="2.78923">
        <ele>982.3</ele>
        <time>2021-06-30T16:28:27.999+02:00</time>
      </trkpt>
      <trkpt lat="43.5566" lon="2.78923">
        <ele>982.4</ele>
        <time>2021-06-30T16:28:28.999+02:00</time>
      </trkpt>
      <trkpt lat="43.5566" lon="2.78922">
        <ele>982.5</ele>
        <time>2021-06-30T16:28:29.999+02:00</time>
      </trkpt>
      <trkpt lat="43.55661" lon="2.78921">
        <ele>982.5</ele>
        <time>2021-06-30T16:28:30.999+02:00</time>
      </trkpt>
      <trkpt lat="43.55661" lon="2.78919">
        <ele>982.7</ele>
        <time>2021-06-30T16:28:31.999+02:00</time>
      </trkpt>
      <trkpt lat="43.55662" lon="2.78917">
        <ele>982.9</ele>
        <time>2021-06-30T16:28:32.999+02:00</time>
      </trkpt>
      <trkpt lat="43.55662" lon="2.78916">
        <ele>983</ele>
        <time>2021-06-30T16:28:33.999+02:00</time>
      </trkpt>
      <trkpt lat="43.55662" lon="2.78915">
        <ele>983</ele>
        <time>2021-06-30T16:28:34.999+02:00</time>
      </trkpt>
      <trkpt lat="43.55662" lon="2.78916">
        <ele>982.9</ele>
        <time>2021-06-30T16:28:35.999+02:00</time>
      </trkpt>
      <trkpt lat="43.55662" lon="2.78916">
        <ele>983</ele>
        <time>2021-06-30T16:28:36.999+02:00</time>
      </trkpt>
      <trkpt lat="43.55663" lon="2.78915">
        <ele>983.1</ele>
        <time>2021-06-30T16:28:37.999+02:00</time>
      </trkpt>
      <trkpt lat="43.55663" lon="2.78914">
        <ele>983.2</ele>
        <time>2021-06-30T16:28:38.999+02:00</time>
      </trkpt>
      <trkpt lat="43.55663" lon="2.78913">
        <ele>983.3</ele>
        <time>2021-06-30T16:28:39.999+02:00</time>
      </trkpt>
      <trkpt lat="43.55664" lon="2.78912">
        <ele>983.4</ele>
        <time>2021-06-30T16:28:40.999+02:00</time>
      </trkpt>
      <trkpt lat="43.55664" lon="2.78911">
        <ele>983.5</ele>
        <time>2021-06-30T16:28:41.999+02:00</time>
      </trkpt>
      <trkpt lat="43.55665" lon="2.7891">
        <ele>983.6</ele>
        <time>2021-06-30T16:28:42.999+02:00</time>
      </trkpt>
      <trkpt lat="43.55665" lon="2.78909">
        <ele>983.7</ele>
        <time>2021-06-30T16:28:43.999+02:00</time>
      </trkpt>
      <trkpt lat="43.55665" lon="2.78908">
        <ele>983.8</ele>
        <time>2021-06-30T16:28:44.999+02:00</time>
      </trkpt>
      <trkpt lat="43.55666" lon="2.78907">
        <ele>983.9</ele>
        <time>2021-06-30T16:28:45.999+02:00</time>
      </trkpt>
      <trkpt lat="43.55667" lon="2.78907">
        <ele>984</ele>
        <time>2021-06-30T16:28:46.999+02:00</time>
      </trkpt>
      <trkpt lat="43.55668" lon="2.78905">
        <ele>984.2</ele>
        <time>2021-06-30T16:28:47.999+02:00</time>
      </trkpt>
      <trkpt lat="43.55668" lon="2.78903">
        <ele>984.4</ele>
        <time>2021-06-30T16:28:48.999+02:00</time>
      </trkpt>
      <trkpt lat="43.55669" lon="2.78902">
        <ele>984.6</ele>
        <time>2021-06-30T16:28:49.999+02:00</time>
      </trkpt>
      <trkpt lat="43.55669" lon="2.78901">
        <ele>984.6</ele>
        <time>2021-06-30T16:28:50.999+02:00</time>
      </trkpt>
      <trkpt lat="43.55669" lon="2.78899">
        <ele>984.8</ele>
        <time>2021-06-30T16:28:51.999+02:00</time>
      </trkpt>
      <trkpt lat="43.5567" lon="2.78898">
        <ele>984.9</ele>
        <time>2021-06-30T16:28:52.999+02:00</time>
      </trkpt>
      <trkpt lat="43.5567" lon="2.78897">
        <ele>985.1</ele>
        <time>2021-06-30T16:28:53.999+02:00</time>
      </trkpt>
      <trkpt lat="43.55672" lon="2.78896">
        <ele>985.3</ele>
        <time>2021-06-30T16:28:54.999+02:00</time>
      </trkpt>
      <trkpt lat="43.55672" lon="2.78894">
        <ele>985.5</ele>
        <time>2021-06-30T16:28:55.999+02:00</time>
      </trkpt>
      <trkpt lat="43.55673" lon="2.78892">
        <ele>985.7</ele>
        <time>2021-06-30T16:28:56.999+02:00</time>
      </trkpt>
      <trkpt lat="43.55673" lon="2.78891">
        <ele>985.8</ele>
        <time>2021-06-30T16:28:57.999+02:00</time>
      </trkpt>
      <trkpt lat="43.55674" lon="2.78889">
        <ele>985.9</ele>
        <time>2021-06-30T16:28:58.999+02:00</time>
      </trkpt>
      <trkpt lat="43.55674" lon="2.78888">
        <ele>986.1</ele>
        <time>2021-06-30T16:28:59.999+02:00</time>
      </trkpt>
      <trkpt lat="43.55675" lon="2.78888">
        <ele>986.2</ele>
        <time>2021-06-30T16:29:00.999+02:00</time>
      </trkpt>
      <trkpt lat="43.55676" lon="2.78887">
        <ele>986.3</ele>
        <time>2021-06-30T16:29:01.999+02:00</time>
      </trkpt>
      <trkpt lat="43.55677" lon="2.78886">
        <ele>986.4</ele>
        <time>2021-06-30T16:29:02.999+02:00</time>
      </trkpt>
      <trkpt lat="43.55678" lon="2.78885">
        <ele>986.5</ele>
        <time>2021-06-30T16:29:03.999+02:00</time>
      </trkpt>
      <trkpt lat="43.55678" lon="2.78886">
        <ele>986.5</ele>
        <time>2021-06-30T16:29:04.999+02:00</time>
      </trkpt>
      <trkpt lat="43.55679" lon="2.78886">
        <ele>986.5</ele>
        <time>2021-06-30T16:29:05.999+02:00</time>
      </trkpt>
      <trkpt lat="43.5568" lon="2.78884">
        <ele>986.6</ele>
        <time>2021-06-30T16:29:06.999+02:00</time>
      </trkpt>
      <trkpt lat="43.55682" lon="2.78884">
        <ele>986.8</ele>
        <time>2021-06-30T16:29:07.999+02:00</time>
      </trkpt>
      <trkpt lat="43.55683" lon="2.78883">
        <ele>986.9</ele>
        <time>2021-06-30T16:29:08.999+02:00</time>
      </trkpt>
      <trkpt lat="43.55684" lon="2.78882">
        <ele>987</ele>
        <time>2021-06-30T16:29:09.999+02:00</time>
      </trkpt>
      <trkpt lat="43.55685" lon="2.78883">
        <ele>987</ele>
        <time>2021-06-30T16:29:10.999+02:00</time>
      </trkpt>
      <trkpt lat="43.55686" lon="2.78883">
        <ele>987</ele>
        <time>2021-06-30T16:29:11.999+02:00</time>
      </trkpt>
      <trkpt lat="43.55687" lon="2.78883">
        <ele>987</ele>
        <time>2021-06-30T16:29:12.999+02:00</time>
      </trkpt>
      <trkpt lat="43.55687" lon="2.78882">
        <ele>987.1</ele>
        <time>2021-06-30T16:29:13.999+02:00</time>
      </trkpt>
      <trkpt lat="43.55688" lon="2.78882">
        <ele>987.2</ele>
        <time>2021-06-30T16:29:14.999+02:00</time>
      </trkpt>
      <trkpt lat="43.55688" lon="2.78881">
        <ele>987.3</ele>
        <time>2021-06-30T16:29:15.999+02:00</time>
      </trkpt>
      <trkpt lat="43.55689" lon="2.7888">
        <ele>987.4</ele>
        <time>2021-06-30T16:29:16.999+02:00</time>
      </trkpt>
      <trkpt lat="43.5569" lon="2.78879">
        <ele>987.5</ele>
        <time>2021-06-30T16:29:17.999+02:00</time>
      </trkpt>
      <trkpt lat="43.55691" lon="2.78878">
        <ele>987.6</ele>
        <time>2021-06-30T16:29:18.999+02:00</time>
      </trkpt>
      <trkpt lat="43.55692" lon="2.78878">
        <ele>987.7</ele>
        <time>2021-06-30T16:29:19.999+02:00</time>
      </trkpt>
      <trkpt lat="43.55691" lon="2.78877">
        <ele>987.7</ele>
        <time>2021-06-30T16:29:20.999+02:00</time>
      </trkpt>
      <trkpt lat="43.55692" lon="2.78876">
        <ele>987.8</ele>
        <time>2021-06-30T16:29:21.999+02:00</time>
      </trkpt>
      <trkpt lat="43.55692" lon="2.78875">
        <ele>987.9</ele>
        <time>2021-06-30T16:29:22.999+02:00</time>
      </trkpt>
      <trkpt lat="43.55693" lon="2.78873">
        <ele>988.1</ele>
        <time>2021-06-30T16:29:23.999+02:00</time>
      </trkpt>
      <trkpt lat="43.55694" lon="2.78872">
        <ele>988.2</ele>
        <time>2021-06-30T16:29:24.999+02:00</time>
      </trkpt>
      <trkpt lat="43.55694" lon="2.78871">
        <ele>988.3</ele>
        <time>2021-06-30T16:29:25.999+02:00</time>
      </trkpt>
      <trkpt lat="43.55695" lon="2.7887">
        <ele>988.4</ele>
        <time>2021-06-30T16:29:26.999+02:00</time>
      </trkpt>
      <trkpt lat="43.55696" lon="2.78869">
        <ele>988.6</ele>
        <time>2021-06-30T16:29:27.999+02:00</time>
      </trkpt>
      <trkpt lat="43.55697" lon="2.78867">
        <ele>988.7</ele>
        <time>2021-06-30T16:29:28.999+02:00</time>
      </trkpt>
      <trkpt lat="43.55698" lon="2.78866">
        <ele>988.8</ele>
        <time>2021-06-30T16:29:29.999+02:00</time>
      </trkpt>
      <trkpt lat="43.55699" lon="2.78864">
        <ele>989</ele>
        <time>2021-06-30T16:29:30.999+02:00</time>
      </trkpt>
      <trkpt lat="43.557" lon="2.78863">
        <ele>989.1</ele>
        <time>2021-06-30T16:29:31.999+02:00</time>
      </trkpt>
      <trkpt lat="43.557" lon="2.78862">
        <ele>989.2</ele>
        <time>2021-06-30T16:29:32.999+02:00</time>
      </trkpt>
      <trkpt lat="43.55701" lon="2.78862">
        <ele>989.2</ele>
        <time>2021-06-30T16:29:33.999+02:00</time>
      </trkpt>
      <trkpt lat="43.55701" lon="2.78861">
        <ele>989.3</ele>
        <time>2021-06-30T16:29:34.999+02:00</time>
      </trkpt>
      <trkpt lat="43.55702" lon="2.7886">
        <ele>989.4</ele>
        <time>2021-06-30T16:29:35.999+02:00</time>
      </trkpt>
      <trkpt lat="43.55702" lon="2.78859">
        <ele>989.5</ele>
        <time>2021-06-30T16:29:36.999+02:00</time>
      </trkpt>
      <trkpt lat="43.55703" lon="2.78858">
        <ele>989.6</ele>
        <time>2021-06-30T16:29:37.999+02:00</time>
      </trkpt>
      <trkpt lat="43.55703" lon="2.78857">
        <ele>989.6</ele>
        <time>2021-06-30T16:29:38.999+02:00</time>
      </trkpt>
      <trkpt lat="43.55704" lon="2.78857">
        <ele>989.7</ele>
        <time>2021-06-30T16:29:39.999+02:00</time>
      </trkpt>
      <trkpt lat="43.55704" lon="2.78856">
        <ele>989.8</ele>
        <time>2021-06-30T16:29:40.999+02:00</time>
      </trkpt>
      <trkpt lat="43.55705" lon="2.78854">
        <ele>989.9</ele>
        <time>2021-06-30T16:29:41.999+02:00</time>
      </trkpt>
      <trkpt lat="43.55706" lon="2.78855">
        <ele>989.9</ele>
        <time>2021-06-30T16:29:42.999+02:00</time>
      </trkpt>
      <trkpt lat="43.55706" lon="2.78855">
        <ele>989.9</ele>
        <time>2021-06-30T16:29:43.999+02:00</time>
      </trkpt>
      <trkpt lat="43.55707" lon="2.78854">
        <ele>990</ele>
        <time>2021-06-30T16:29:44.999+02:00</time>
      </trkpt>
      <trkpt lat="43.55708" lon="2.78853">
        <ele>990.1</ele>
        <time>2021-06-30T16:29:45.999+02:00</time>
      </trkpt>
      <trkpt lat="43.55708" lon="2.78853">
        <ele>990.1</ele>
        <time>2021-06-30T16:29:46.999+02:00</time>
      </trkpt>
      <trkpt lat="43.55709" lon="2.78852">
        <ele>990.1</ele>
        <time>2021-06-30T16:29:47.999+02:00</time>
      </trkpt>
      <trkpt lat="43.55709" lon="2.78852">
        <ele>990.2</ele>
        <time>2021-06-30T16:29:48.999+02:00</time>
      </trkpt>
      <trkpt lat="43.5571" lon="2.78851">
        <ele>990.2</ele>
        <time>2021-06-30T16:29:49.999+02:00</time>
      </trkpt>
      <trkpt lat="43.5571" lon="2.7885">
        <ele>990.3</ele>
        <time>2021-06-30T16:29:50.999+02:00</time>
      </trkpt>
      <trkpt lat="43.55711" lon="2.78849">
        <ele>990.4</ele>
        <time>2021-06-30T16:29:51.999+02:00</time>
      </trkpt>
      <trkpt lat="43.55711" lon="2.78848">
        <ele>990.5</ele>
        <time>2021-06-30T16:29:52.999+02:00</time>
      </trkpt>
      <trkpt lat="43.55711" lon="2.78847">
        <ele>990.6</ele>
        <time>2021-06-30T16:29:53.999+02:00</time>
      </trkpt>
      <trkpt lat="43.55712" lon="2.78846">
        <ele>990.6</ele>
        <time>2021-06-30T16:29:54.999+02:00</time>
      </trkpt>
      <trkpt lat="43.55713" lon="2.78846">
        <ele>990.7</ele>
        <time>2021-06-30T16:29:55.999+02:00</time>
      </trkpt>
      <trkpt lat="43.55713" lon="2.78845">
        <ele>990.7</ele>
        <time>2021-06-30T16:29:56.999+02:00</time>
      </trkpt>
      <trkpt lat="43.55713" lon="2.78845">
        <ele>990.8</ele>
        <time>2021-06-30T16:29:57.999+02:00</time>
      </trkpt>
      <trkpt lat="43.55713" lon="2.78844">
        <ele>990.9</ele>
        <time>2021-06-30T16:29:58.999+02:00</time>
      </trkpt>
      <trkpt lat="43.55713" lon="2.78843">
        <ele>990.9</ele>
        <time>2021-06-30T16:29:59.999+02:00</time>
      </trkpt>
      <trkpt lat="43.55713" lon="2.78843">
        <ele>990.9</ele>
        <time>2021-06-30T16:30:00.999+02:00</time>
      </trkpt>
      <trkpt lat="43.55714" lon="2.78843">
        <ele>990.9</ele>
        <time>2021-06-30T16:30:01.999+02:00</time>
      </trkpt>
      <trkpt lat="43.55714" lon="2.78843">
        <ele>990.9</ele>
        <time>2021-06-30T16:30:02.999+02:00</time>
      </trkpt>
      <trkpt lat="43.55714" lon="2.78843">
        <ele>990.9</ele>
        <time>2021-06-30T16:30:03.999+02:00</time>
      </trkpt>
      <trkpt lat="43.55714" lon="2.78843">
        <ele>990.9</ele>
        <time>2021-06-30T16:30:04.999+02:00</time>
      </trkpt>
      <trkpt lat="43.55713" lon="2.78844">
        <ele>990.8</ele>
        <time>2021-06-30T16:30:05.999+02:00</time>
      </trkpt>
      <trkpt lat="43.55713" lon="2.78844">
        <ele>990.8</ele>
        <time>2021-06-30T16:30:06.999+02:00</time>
      </trkpt>
      <trkpt lat="43.55713" lon="2.78844">
        <ele>990.8</ele>
        <time>2021-06-30T16:30:07.999+02:00</time>
      </trkpt>
      <trkpt lat="43.55714" lon="2.78845">
        <ele>990.8</ele>
        <time>2021-06-30T16:30:08.999+02:00</time>
      </trkpt>
      <trkpt lat="43.55714" lon="2.78845">
        <ele>990.8</ele>
        <time>2021-06-30T16:30:09.999+02:00</time>
      </trkpt>
      <trkpt lat="43.55714" lon="2.78846">
        <ele>990.7</ele>
        <time>2021-06-30T16:30:10.999+02:00</time>
      </trkpt>
      <trkpt lat="43.55714" lon="2.78846">
        <ele>990.7</ele>
        <time>2021-06-30T16:30:11.999+02:00</time>
      </trkpt>
      <trkpt lat="43.55714" lon="2.78846">
        <ele>990.7</ele>
        <time>2021-06-30T16:30:12.999+02:00</time>
      </trkpt>
      <trkpt lat="43.55714" lon="2.78847">
        <ele>990.6</ele>
        <time>2021-06-30T16:30:13.999+02:00</time>
      </trkpt>
      <trkpt lat="43.55714" lon="2.78847">
        <ele>990.6</ele>
        <time>2021-06-30T16:30:14.999+02:00</time>
      </trkpt>
      <trkpt lat="43.55714" lon="2.78848">
        <ele>990.6</ele>
        <time>2021-06-30T16:30:15.999+02:00</time>
      </trkpt>
      <trkpt lat="43.55714" lon="2.78849">
        <ele>990.5</ele>
        <time>2021-06-30T16:30:16.999+02:00</time>
      </trkpt>
      <trkpt lat="43.55714" lon="2.78851">
        <ele>990.4</ele>
        <time>2021-06-30T16:30:17.999+02:00</time>
      </trkpt>
      <trkpt lat="43.55713" lon="2.78852">
        <ele>990.3</ele>
        <time>2021-06-30T16:30:18.999+02:00</time>
      </trkpt>
      <trkpt lat="43.55713" lon="2.78853">
        <ele>990.2</ele>
        <time>2021-06-30T16:30:19.999+02:00</time>
      </trkpt>
      <trkpt lat="43.55712" lon="2.78854">
        <ele>990.1</ele>
        <time>2021-06-30T16:30:20.999+02:00</time>
      </trkpt>
      <trkpt lat="43.55712" lon="2.78855">
        <ele>990</ele>
        <time>2021-06-30T16:30:21.999+02:00</time>
      </trkpt>
      <trkpt lat="43.55711" lon="2.78856">
        <ele>989.9</ele>
        <time>2021-06-30T16:30:22.999+02:00</time>
      </trkpt>
      <trkpt lat="43.5571" lon="2.78856">
        <ele>989.9</ele>
        <time>2021-06-30T16:30:23.999+02:00</time>
      </trkpt>
      <trkpt lat="43.55709" lon="2.78856">
        <ele>989.9</ele>
        <time>2021-06-30T16:30:24.999+02:00</time>
      </trkpt>
      <trkpt lat="43.55709" lon="2.78856">
        <ele>989.9</ele>
        <time>2021-06-30T16:30:25.999+02:00</time>
      </trkpt>
      <trkpt lat="43.55709" lon="2.78856">
        <ele>989.9</ele>
        <time>2021-06-30T16:30:26.999+02:00</time>
      </trkpt>
      <trkpt lat="43.55705" lon="2.78855">
        <ele>989.8</ele>
        <time>2021-06-30T16:30:27.999+02:00</time>
      </trkpt>
      <trkpt lat="43.55703" lon="2.78855">
        <ele>989.8</ele>
        <time>2021-06-30T16:30:28.999+02:00</time>
      </trkpt>
      <trkpt lat="43.55701" lon="2.78858">
        <ele>989.6</ele>
        <time>2021-06-30T16:30:29.999+02:00</time>
      </trkpt>
      <trkpt lat="43.55701" lon="2.78858">
        <ele>989.5</ele>
        <time>2021-06-30T16:30:30.999+02:00</time>
      </trkpt>
      <trkpt lat="43.55701" lon="2.78858">
        <ele>989.5</ele>
        <time>2021-06-30T16:30:31.999+02:00</time>
      </trkpt>
      <trkpt lat="43.55701" lon="2.78858">
        <ele>989.5</ele>
        <time>2021-06-30T16:30:32.999+02:00</time>
      </trkpt>
      <trkpt lat="43.55701" lon="2.78859">
        <ele>989.5</ele>
        <time>2021-06-30T16:30:33.999+02:00</time>
      </trkpt>
      <trkpt lat="43.55701" lon="2.78859">
        <ele>989.5</ele>
        <time>2021-06-30T16:30:34.999+02:00</time>
      </trkpt>
      <trkpt lat="43.55701" lon="2.78858">
        <ele>989.5</ele>
        <time>2021-06-30T16:30:35.999+02:00</time>
      </trkpt>
      <trkpt lat="43.55701" lon="2.78858">
        <ele>989.5</ele>
        <time>2021-06-30T16:30:36.999+02:00</time>
      </trkpt>
      <trkpt lat="43.55701" lon="2.78859">
        <ele>989.5</ele>
        <time>2021-06-30T16:30:37.999+02:00</time>
      </trkpt>
      <trkpt lat="43.55701" lon="2.78859">
        <ele>989.5</ele>
        <time>2021-06-30T16:30:38.999+02:00</time>
      </trkpt>
      <trkpt lat="43.55701" lon="2.78859">
        <ele>989.5</ele>
        <time>2021-06-30T16:30:39.999+02:00</time>
      </trkpt>
      <trkpt lat="43.55701" lon="2.78859">
        <ele>989.5</ele>
        <time>2021-06-30T16:30:40.999+02:00</time>
      </trkpt>
      <trkpt lat="43.55701" lon="2.78859">
        <ele>989.5</ele>
        <time>2021-06-30T16:30:41.999+02:00</time>
      </trkpt>
      <trkpt lat="43.55701" lon="2.78859">
        <ele>989.5</ele>
        <time>2021-06-30T16:30:42.999+02:00</time>
      </trkpt>
      <trkpt lat="43.55701" lon="2.78859">
        <ele>989.5</ele>
        <time>2021-06-30T16:30:43.999+02:00</time>
      </trkpt>
      <trkpt lat="43.55701" lon="2.78859">
        <ele>989.4</ele>
        <time>2021-06-30T16:30:44.999+02:00</time>
      </trkpt>
      <trkpt lat="43.55701" lon="2.78859">
        <ele>989.4</ele>
        <time>2021-06-30T16:30:45.999+02:00</time>
      </trkpt>
      <trkpt lat="43.55701" lon="2.78859">
        <ele>989.4</ele>
        <time>2021-06-30T16:30:46.999+02:00</time>
      </trkpt>
      <trkpt lat="43.55701" lon="2.78859">
        <ele>989.4</ele>
        <time>2021-06-30T16:30:47.999+02:00</time>
      </trkpt>
      <trkpt lat="43.55701" lon="2.78859">
        <ele>989.4</ele>
        <time>2021-06-30T16:30:48.999+02:00</time>
      </trkpt>
      <trkpt lat="43.55701" lon="2.78859">
        <ele>989.4</ele>
        <time>2021-06-30T16:30:49.999+02:00</time>
      </trkpt>
      <trkpt lat="43.55701" lon="2.78859">
        <ele>989.4</ele>
        <time>2021-06-30T16:30:50.999+02:00</time>
      </trkpt>
      <trkpt lat="43.55701" lon="2.78859">
        <ele>989.4</ele>
        <time>2021-06-30T16:30:51.999+02:00</time>
      </trkpt>
      <trkpt lat="43.55701" lon="2.78859">
        <ele>989.4</ele>
        <time>2021-06-30T16:30:52.999+02:00</time>
      </trkpt>
      <trkpt lat="43.55701" lon="2.78859">
        <ele>989.4</ele>
        <time>2021-06-30T16:30:53.999+02:00</time>
      </trkpt>
      <trkpt lat="43.55701" lon="2.78859">
        <ele>989.4</ele>
        <time>2021-06-30T16:30:54.999+02:00</time>
      </trkpt>
      <trkpt lat="43.55701" lon="2.78859">
        <ele>989.4</ele>
        <time>2021-06-30T16:30:55.999+02:00</time>
      </trkpt>
      <trkpt lat="43.55701" lon="2.78859">
        <ele>989.4</ele>
        <time>2021-06-30T16:30:56.999+02:00</time>
      </trkpt>
      <trkpt lat="43.55701" lon="2.78859">
        <ele>989.4</ele>
        <time>2021-06-30T16:30:57.999+02:00</time>
      </trkpt>
      <trkpt lat="43.55701" lon="2.78859">
        <ele>989.4</ele>
        <time>2021-06-30T16:30:58.999+02:00</time>
      </trkpt>
      <trkpt lat="43.55701" lon="2.78859">
        <ele>989.4</ele>
        <time>2021-06-30T16:30:59.999+02:00</time>
      </trkpt>
      <trkpt lat="43.55701" lon="2.78859">
        <ele>989.4</ele>
        <time>2021-06-30T16:31:00.999+02:00</time>
      </trkpt>
      <trkpt lat="43.55701" lon="2.7886">
        <ele>989.4</ele>
        <time>2021-06-30T16:31:01.999+02:00</time>
      </trkpt>
      <trkpt lat="43.55701" lon="2.78859">
        <ele>989.4</ele>
        <time>2021-06-30T16:31:02.999+02:00</time>
      </trkpt>
      <trkpt lat="43.55701" lon="2.78859">
        <ele>989.4</ele>
        <time>2021-06-30T16:31:03.999+02:00</time>
      </trkpt>
      <trkpt lat="43.55701" lon="2.78859">
        <ele>989.4</ele>
        <time>2021-06-30T16:31:04.999+02:00</time>
      </trkpt>
      <trkpt lat="43.55701" lon="2.78859">
        <ele>989.4</ele>
        <time>2021-06-30T16:31:05.999+02:00</time>
      </trkpt>
      <trkpt lat="43.55701" lon="2.78859">
        <ele>989.5</ele>
        <time>2021-06-30T16:31:06.999+02:00</time>
      </trkpt>
      <trkpt lat="43.55701" lon="2.78859">
        <ele>989.5</ele>
        <time>2021-06-30T16:31:07.999+02:00</time>
      </trkpt>
      <trkpt lat="43.55701" lon="2.78859">
        <ele>989.5</ele>
        <time>2021-06-30T16:31:08.999+02:00</time>
      </trkpt>
      <trkpt lat="43.55701" lon="2.78859">
        <ele>989.5</ele>
        <time>2021-06-30T16:31:09.999+02:00</time>
      </trkpt>
      <trkpt lat="43.55701" lon="2.78859">
        <ele>989.4</ele>
        <time>2021-06-30T16:31:10.999+02:00</time>
      </trkpt>
      <trkpt lat="43.55701" lon="2.78859">
        <ele>989.4</ele>
        <time>2021-06-30T16:31:11.999+02:00</time>
      </trkpt>
      <trkpt lat="43.55701" lon="2.78859">
        <ele>989.4</ele>
        <time>2021-06-30T16:31:12.999+02:00</time>
      </trkpt>
      <trkpt lat="43.55701" lon="2.78859">
        <ele>989.4</ele>
        <time>2021-06-30T16:31:13.999+02:00</time>
      </trkpt>
      <trkpt lat="43.55701" lon="2.7886">
        <ele>989.4</ele>
        <time>2021-06-30T16:31:14.999+02:00</time>
      </trkpt>
      <trkpt lat="43.55701" lon="2.7886">
        <ele>989.4</ele>
        <time>2021-06-30T16:31:15.999+02:00</time>
      </trkpt>
      <trkpt lat="43.55701" lon="2.7886">
        <ele>989.4</ele>
        <time>2021-06-30T16:31:16.999+02:00</time>
      </trkpt>
      <trkpt lat="43.55701" lon="2.7886">
        <ele>989.4</ele>
        <time>2021-06-30T16:31:17.999+02:00</time>
      </trkpt>
      <trkpt lat="43.55701" lon="2.7886">
        <ele>989.4</ele>
        <time>2021-06-30T16:31:18.999+02:00</time>
      </trkpt>
      <trkpt lat="43.55701" lon="2.7886">
        <ele>989.4</ele>
        <time>2021-06-30T16:31:19.999+02:00</time>
      </trkpt>
      <trkpt lat="43.55701" lon="2.7886">
        <ele>989.4</ele>
        <time>2021-06-30T16:31:20.999+02:00</time>
      </trkpt>
      <trkpt lat="43.557" lon="2.78861">
        <ele>989.3</ele>
        <time>2021-06-30T16:31:21.999+02:00</time>
      </trkpt>
      <trkpt lat="43.557" lon="2.78861">
        <ele>989.2</ele>
        <time>2021-06-30T16:31:22.999+02:00</time>
      </trkpt>
      <trkpt lat="43.55699" lon="2.78862">
        <ele>989.1</ele>
        <time>2021-06-30T16:31:23.999+02:00</time>
      </trkpt>
      <trkpt lat="43.55697" lon="2.78863">
        <ele>989</ele>
        <time>2021-06-30T16:31:24.999+02:00</time>
      </trkpt>
      <trkpt lat="43.55696" lon="2.78864">
        <ele>988.9</ele>
        <time>2021-06-30T16:31:25.999+02:00</time>
      </trkpt>
      <trkpt lat="43.55695" lon="2.78865">
        <ele>988.8</ele>
        <time>2021-06-30T16:31:26.999+02:00</time>
      </trkpt>
      <trkpt lat="43.55695" lon="2.78866">
        <ele>988.7</ele>
        <time>2021-06-30T16:31:27.999+02:00</time>
      </trkpt>
      <trkpt lat="43.55694" lon="2.78867">
        <ele>988.6</ele>
        <time>2021-06-30T16:31:28.999+02:00</time>
      </trkpt>
      <trkpt lat="43.55694" lon="2.78868">
        <ele>988.5</ele>
        <time>2021-06-30T16:31:29.999+02:00</time>
      </trkpt>
      <trkpt lat="43.55693" lon="2.78869">
        <ele>988.5</ele>
        <time>2021-06-30T16:31:30.999+02:00</time>
      </trkpt>
      <trkpt lat="43.55692" lon="2.7887">
        <ele>988.3</ele>
        <time>2021-06-30T16:31:31.999+02:00</time>
      </trkpt>
      <trkpt lat="43.55692" lon="2.78871">
        <ele>988.2</ele>
        <time>2021-06-30T16:31:32.999+02:00</time>
      </trkpt>
      <trkpt lat="43.55692" lon="2.78872">
        <ele>988.2</ele>
        <time>2021-06-30T16:31:33.999+02:00</time>
      </trkpt>
      <trkpt lat="43.55691" lon="2.78873">
        <ele>988.1</ele>
        <time>2021-06-30T16:31:34.999+02:00</time>
      </trkpt>
      <trkpt lat="43.5569" lon="2.78874">
        <ele>987.9</ele>
        <time>2021-06-30T16:31:35.999+02:00</time>
      </trkpt>
      <trkpt lat="43.5569" lon="2.78876">
        <ele>987.8</ele>
        <time>2021-06-30T16:31:36.999+02:00</time>
      </trkpt>
      <trkpt lat="43.55689" lon="2.78877">
        <ele>987.7</ele>
        <time>2021-06-30T16:31:37.999+02:00</time>
      </trkpt>
      <trkpt lat="43.55688" lon="2.78878">
        <ele>987.5</ele>
        <time>2021-06-30T16:31:38.999+02:00</time>
      </trkpt>
      <trkpt lat="43.55688" lon="2.7888">
        <ele>987.4</ele>
        <time>2021-06-30T16:31:39.999+02:00</time>
      </trkpt>
      <trkpt lat="43.55687" lon="2.78881">
        <ele>987.3</ele>
        <time>2021-06-30T16:31:40.999+02:00</time>
      </trkpt>
      <trkpt lat="43.55686" lon="2.78882">
        <ele>987.1</ele>
        <time>2021-06-30T16:31:41.999+02:00</time>
      </trkpt>
      <trkpt lat="43.55686" lon="2.78883">
        <ele>987</ele>
        <time>2021-06-30T16:31:42.999+02:00</time>
      </trkpt>
      <trkpt lat="43.55685" lon="2.78884">
        <ele>986.9</ele>
        <time>2021-06-30T16:31:43.999+02:00</time>
      </trkpt>
      <trkpt lat="43.55684" lon="2.78885">
        <ele>986.8</ele>
        <time>2021-06-30T16:31:44.999+02:00</time>
      </trkpt>
      <trkpt lat="43.55684" lon="2.78886">
        <ele>986.7</ele>
        <time>2021-06-30T16:31:45.999+02:00</time>
      </trkpt>
      <trkpt lat="43.55683" lon="2.78887">
        <ele>986.6</ele>
        <time>2021-06-30T16:31:46.999+02:00</time>
      </trkpt>
      <trkpt lat="43.55682" lon="2.78887">
        <ele>986.5</ele>
        <time>2021-06-30T16:31:47.999+02:00</time>
      </trkpt>
      <trkpt lat="43.55681" lon="2.78888">
        <ele>986.4</ele>
        <time>2021-06-30T16:31:48.999+02:00</time>
      </trkpt>
      <trkpt lat="43.5568" lon="2.78889">
        <ele>986.2</ele>
        <time>2021-06-30T16:31:49.999+02:00</time>
      </trkpt>
      <trkpt lat="43.55679" lon="2.7889">
        <ele>986.1</ele>
        <time>2021-06-30T16:31:50.999+02:00</time>
      </trkpt>
      <trkpt lat="43.55679" lon="2.7889">
        <ele>986.1</ele>
        <time>2021-06-30T16:31:51.999+02:00</time>
      </trkpt>
      <trkpt lat="43.55678" lon="2.78891">
        <ele>986</ele>
        <time>2021-06-30T16:31:52.999+02:00</time>
      </trkpt>
      <trkpt lat="43.55677" lon="2.78892">
        <ele>985.8</ele>
        <time>2021-06-30T16:31:53.999+02:00</time>
      </trkpt>
      <trkpt lat="43.55676" lon="2.78893">
        <ele>985.8</ele>
        <time>2021-06-30T16:31:54.999+02:00</time>
      </trkpt>
      <trkpt lat="43.55675" lon="2.78893">
        <ele>985.6</ele>
        <time>2021-06-30T16:31:55.999+02:00</time>
      </trkpt>
      <trkpt lat="43.55675" lon="2.78894">
        <ele>985.5</ele>
        <time>2021-06-30T16:31:56.999+02:00</time>
      </trkpt>
      <trkpt lat="43.55674" lon="2.78895">
        <ele>985.5</ele>
        <time>2021-06-30T16:31:57.999+02:00</time>
      </trkpt>
      <trkpt lat="43.55674" lon="2.78895">
        <ele>985.4</ele>
        <time>2021-06-30T16:31:58.999+02:00</time>
      </trkpt>
      <trkpt lat="43.55674" lon="2.78896">
        <ele>985.3</ele>
        <time>2021-06-30T16:31:59.999+02:00</time>
      </trkpt>
      <trkpt lat="43.55673" lon="2.78896">
        <ele>985.3</ele>
        <time>2021-06-30T16:32:00.999+02:00</time>
      </trkpt>
      <trkpt lat="43.55673" lon="2.78897">
        <ele>985.2</ele>
        <time>2021-06-30T16:32:01.999+02:00</time>
      </trkpt>
      <trkpt lat="43.55673" lon="2.78897">
        <ele>985.2</ele>
        <time>2021-06-30T16:32:02.999+02:00</time>
      </trkpt>
      <trkpt lat="43.55673" lon="2.78897">
        <ele>985.2</ele>
        <time>2021-06-30T16:32:03.999+02:00</time>
      </trkpt>
      <trkpt lat="43.55673" lon="2.78897">
        <ele>985.2</ele>
        <time>2021-06-30T16:32:04.999+02:00</time>
      </trkpt>
      <trkpt lat="43.55672" lon="2.78898">
        <ele>985.1</ele>
        <time>2021-06-30T16:32:05.999+02:00</time>
      </trkpt>
      <trkpt lat="43.55672" lon="2.789">
        <ele>984.9</ele>
        <time>2021-06-30T16:32:06.999+02:00</time>
      </trkpt>
      <trkpt lat="43.55672" lon="2.789">
        <ele>984.8</ele>
        <time>2021-06-30T16:32:07.999+02:00</time>
      </trkpt>
      <trkpt lat="43.55671" lon="2.789">
        <ele>984.8</ele>
        <time>2021-06-30T16:32:08.999+02:00</time>
      </trkpt>
      <trkpt lat="43.55671" lon="2.78901">
        <ele>984.8</ele>
        <time>2021-06-30T16:32:09.999+02:00</time>
      </trkpt>
      <trkpt lat="43.55671" lon="2.78901">
        <ele>984.7</ele>
        <time>2021-06-30T16:32:10.999+02:00</time>
      </trkpt>
      <trkpt lat="43.55671" lon="2.78902">
        <ele>984.6</ele>
        <time>2021-06-30T16:32:11.999+02:00</time>
      </trkpt>
      <trkpt lat="43.5567" lon="2.78903">
        <ele>984.5</ele>
        <time>2021-06-30T16:32:12.999+02:00</time>
      </trkpt>
      <trkpt lat="43.5567" lon="2.78904">
        <ele>984.4</ele>
        <time>2021-06-30T16:32:13.999+02:00</time>
      </trkpt>
      <trkpt lat="43.55669" lon="2.78905">
        <ele>984.2</ele>
        <time>2021-06-30T16:32:14.999+02:00</time>
      </trkpt>
      <trkpt lat="43.55669" lon="2.78906">
        <ele>984.1</ele>
        <time>2021-06-30T16:32:15.999+02:00</time>
      </trkpt>
      <trkpt lat="43.55668" lon="2.78907">
        <ele>984</ele>
        <time>2021-06-30T16:32:16.999+02:00</time>
      </trkpt>
      <trkpt lat="43.55667" lon="2.78908">
        <ele>983.9</ele>
        <time>2021-06-30T16:32:17.999+02:00</time>
      </trkpt>
      <trkpt lat="43.55666" lon="2.78909">
        <ele>983.8</ele>
        <time>2021-06-30T16:32:18.999+02:00</time>
      </trkpt>
      <trkpt lat="43.55665" lon="2.78909">
        <ele>983.7</ele>
        <time>2021-06-30T16:32:19.999+02:00</time>
      </trkpt>
      <trkpt lat="43.55665" lon="2.7891">
        <ele>983.6</ele>
        <time>2021-06-30T16:32:20.999+02:00</time>
      </trkpt>
      <trkpt lat="43.55664" lon="2.78911">
        <ele>983.5</ele>
        <time>2021-06-30T16:32:21.999+02:00</time>
      </trkpt>
      <trkpt lat="43.55663" lon="2.78912">
        <ele>983.3</ele>
        <time>2021-06-30T16:32:22.999+02:00</time>
      </trkpt>
      <trkpt lat="43.55662" lon="2.78913">
        <ele>983.3</ele>
        <time>2021-06-30T16:32:23.999+02:00</time>
      </trkpt>
      <trkpt lat="43.55662" lon="2.78914">
        <ele>983.2</ele>
        <time>2021-06-30T16:32:24.999+02:00</time>
      </trkpt>
      <trkpt lat="43.55662" lon="2.78914">
        <ele>983.1</ele>
        <time>2021-06-30T16:32:25.999+02:00</time>
      </trkpt>
      <trkpt lat="43.55662" lon="2.78915">
        <ele>983.1</ele>
        <time>2021-06-30T16:32:26.999+02:00</time>
      </trkpt>
      <trkpt lat="43.55661" lon="2.78916">
        <ele>983</ele>
        <time>2021-06-30T16:32:27.999+02:00</time>
      </trkpt>
      <trkpt lat="43.55661" lon="2.78916">
        <ele>982.9</ele>
        <time>2021-06-30T16:32:28.999+02:00</time>
      </trkpt>
      <trkpt lat="43.5566" lon="2.78917">
        <ele>982.8</ele>
        <time>2021-06-30T16:32:29.999+02:00</time>
      </trkpt>
      <trkpt lat="43.5566" lon="2.78918">
        <ele>982.8</ele>
        <time>2021-06-30T16:32:30.999+02:00</time>
      </trkpt>
      <trkpt lat="43.55659" lon="2.78919">
        <ele>982.7</ele>
        <time>2021-06-30T16:32:31.999+02:00</time>
      </trkpt>
      <trkpt lat="43.55659" lon="2.7892">
        <ele>982.6</ele>
        <time>2021-06-30T16:32:32.999+02:00</time>
      </trkpt>
      <trkpt lat="43.55658" lon="2.78921">
        <ele>982.5</ele>
        <time>2021-06-30T16:32:33.999+02:00</time>
      </trkpt>
      <trkpt lat="43.55658" lon="2.78922">
        <ele>982.4</ele>
        <time>2021-06-30T16:32:34.999+02:00</time>
      </trkpt>
      <trkpt lat="43.55657" lon="2.78923">
        <ele>982.3</ele>
        <time>2021-06-30T16:32:35.999+02:00</time>
      </trkpt>
      <trkpt lat="43.55657" lon="2.78924">
        <ele>982.2</ele>
        <time>2021-06-30T16:32:36.999+02:00</time>
      </trkpt>
      <trkpt lat="43.55656" lon="2.78926">
        <ele>982.1</ele>
        <time>2021-06-30T16:32:37.999+02:00</time>
      </trkpt>
      <trkpt lat="43.55656" lon="2.78927">
        <ele>981.9</ele>
        <time>2021-06-30T16:32:38.999+02:00</time>
      </trkpt>
      <trkpt lat="43.55655" lon="2.78928">
        <ele>981.9</ele>
        <time>2021-06-30T16:32:39.999+02:00</time>
      </trkpt>
      <trkpt lat="43.55655" lon="2.78928">
        <ele>981.8</ele>
        <time>2021-06-30T16:32:40.999+02:00</time>
      </trkpt>
      <trkpt lat="43.55655" lon="2.78929">
        <ele>981.8</ele>
        <time>2021-06-30T16:32:41.999+02:00</time>
      </trkpt>
      <trkpt lat="43.55654" lon="2.78929">
        <ele>981.7</ele>
        <time>2021-06-30T16:32:42.999+02:00</time>
      </trkpt>
      <trkpt lat="43.55654" lon="2.7893">
        <ele>981.6</ele>
        <time>2021-06-30T16:32:43.999+02:00</time>
      </trkpt>
      <trkpt lat="43.55653" lon="2.78931">
        <ele>981.5</ele>
        <time>2021-06-30T16:32:44.999+02:00</time>
      </trkpt>
      <trkpt lat="43.55652" lon="2.78932">
        <ele>981.4</ele>
        <time>2021-06-30T16:32:45.999+02:00</time>
      </trkpt>
      <trkpt lat="43.55651" lon="2.78933">
        <ele>981.3</ele>
        <time>2021-06-30T16:32:46.999+02:00</time>
      </trkpt>
      <trkpt lat="43.55651" lon="2.78933">
        <ele>981.3</ele>
        <time>2021-06-30T16:32:47.999+02:00</time>
      </trkpt>
      <trkpt lat="43.5565" lon="2.78934">
        <ele>981.2</ele>
        <time>2021-06-30T16:32:48.999+02:00</time>
      </trkpt>
      <trkpt lat="43.55649" lon="2.78935">
        <ele>981.1</ele>
        <time>2021-06-30T16:32:49.999+02:00</time>
      </trkpt>
      <trkpt lat="43.55649" lon="2.78935">
        <ele>981.1</ele>
        <time>2021-06-30T16:32:50.999+02:00</time>
      </trkpt>
      <trkpt lat="43.55649" lon="2.78935">
        <ele>981.1</ele>
        <time>2021-06-30T16:32:51.999+02:00</time>
      </trkpt>
      <trkpt lat="43.55649" lon="2.78935">
        <ele>981.1</ele>
        <time>2021-06-30T16:32:52.999+02:00</time>
      </trkpt>
      <trkpt lat="43.55649" lon="2.78935">
        <ele>981.1</ele>
        <time>2021-06-30T16:32:53.999+02:00</time>
      </trkpt>
      <trkpt lat="43.55649" lon="2.78934">
        <ele>981.1</ele>
        <time>2021-06-30T16:32:54.999+02:00</time>
      </trkpt>
      <trkpt lat="43.55649" lon="2.78934">
        <ele>981.1</ele>
        <time>2021-06-30T16:32:55.999+02:00</time>
      </trkpt>
      <trkpt lat="43.55649" lon="2.78934">
        <ele>981.1</ele>
        <time>2021-06-30T16:32:56.999+02:00</time>
      </trkpt>
      <trkpt lat="43.55648" lon="2.78935">
        <ele>981.1</ele>
        <time>2021-06-30T16:32:57.999+02:00</time>
      </trkpt>
      <trkpt lat="43.55648" lon="2.78935">
        <ele>981</ele>
        <time>2021-06-30T16:32:58.999+02:00</time>
      </trkpt>
      <trkpt lat="43.55648" lon="2.78936">
        <ele>981</ele>
        <time>2021-06-30T16:32:59.999+02:00</time>
      </trkpt>
      <trkpt lat="43.55647" lon="2.78936">
        <ele>980.9</ele>
        <time>2021-06-30T16:33:00.999+02:00</time>
      </trkpt>
      <trkpt lat="43.55647" lon="2.78937">
        <ele>980.9</ele>
        <time>2021-06-30T16:33:01.999+02:00</time>
      </trkpt>
      <trkpt lat="43.55647" lon="2.78936">
        <ele>980.9</ele>
        <time>2021-06-30T16:33:02.999+02:00</time>
      </trkpt>
      <trkpt lat="43.55647" lon="2.78936">
        <ele>980.9</ele>
        <time>2021-06-30T16:33:03.999+02:00</time>
      </trkpt>
      <trkpt lat="43.55647" lon="2.78937">
        <ele>980.9</ele>
        <time>2021-06-30T16:33:04.999+02:00</time>
      </trkpt>
      <trkpt lat="43.55647" lon="2.78938">
        <ele>980.7</ele>
        <time>2021-06-30T16:33:05.999+02:00</time>
      </trkpt>
      <trkpt lat="43.55646" lon="2.7894">
        <ele>980.6</ele>
        <time>2021-06-30T16:33:06.999+02:00</time>
      </trkpt>
      <trkpt lat="43.55645" lon="2.78941">
        <ele>980.4</ele>
        <time>2021-06-30T16:33:07.999+02:00</time>
      </trkpt>
      <trkpt lat="43.55645" lon="2.78942">
        <ele>980.3</ele>
        <time>2021-06-30T16:33:08.999+02:00</time>
      </trkpt>
      <trkpt lat="43.55644" lon="2.78943">
        <ele>980.2</ele>
        <time>2021-06-30T16:33:09.999+02:00</time>
      </trkpt>
      <trkpt lat="43.55643" lon="2.78943">
        <ele>980.2</ele>
        <time>2021-06-30T16:33:10.999+02:00</time>
      </trkpt>
      <trkpt lat="43.55644" lon="2.78943">
        <ele>980.2</ele>
        <time>2021-06-30T16:33:11.999+02:00</time>
      </trkpt>
      <trkpt lat="43.55644" lon="2.78943">
        <ele>980.2</ele>
        <time>2021-06-30T16:33:12.999+02:00</time>
      </trkpt>
      <trkpt lat="43.55644" lon="2.78943">
        <ele>980.2</ele>
        <time>2021-06-30T16:33:13.999+02:00</time>
      </trkpt>
      <trkpt lat="43.55643" lon="2.78943">
        <ele>980.2</ele>
        <time>2021-06-30T16:33:14.999+02:00</time>
      </trkpt>
      <trkpt lat="43.55643" lon="2.78943">
        <ele>980.2</ele>
        <time>2021-06-30T16:33:15.999+02:00</time>
      </trkpt>
      <trkpt lat="43.55643" lon="2.78943">
        <ele>980.2</ele>
        <time>2021-06-30T16:33:16.999+02:00</time>
      </trkpt>
      <trkpt lat="43.55643" lon="2.78944">
        <ele>980.1</ele>
        <time>2021-06-30T16:33:17.999+02:00</time>
      </trkpt>
      <trkpt lat="43.55642" lon="2.78945">
        <ele>980</ele>
        <time>2021-06-30T16:33:18.999+02:00</time>
      </trkpt>
      <trkpt lat="43.55642" lon="2.78945">
        <ele>979.9</ele>
        <time>2021-06-30T16:33:19.999+02:00</time>
      </trkpt>
      <trkpt lat="43.55641" lon="2.78945">
        <ele>979.9</ele>
        <time>2021-06-30T16:33:20.999+02:00</time>
      </trkpt>
      <trkpt lat="43.5564" lon="2.78946">
        <ele>979.8</ele>
        <time>2021-06-30T16:33:21.999+02:00</time>
      </trkpt>
      <trkpt lat="43.55639" lon="2.78947">
        <ele>979.7</ele>
        <time>2021-06-30T16:33:22.999+02:00</time>
      </trkpt>
      <trkpt lat="43.55639" lon="2.78948">
        <ele>979.6</ele>
        <time>2021-06-30T16:33:23.999+02:00</time>
      </trkpt>
      <trkpt lat="43.55638" lon="2.78948">
        <ele>979.5</ele>
        <time>2021-06-30T16:33:24.999+02:00</time>
      </trkpt>
      <trkpt lat="43.55637" lon="2.7895">
        <ele>979.3</ele>
        <time>2021-06-30T16:33:25.999+02:00</time>
      </trkpt>
      <trkpt lat="43.55636" lon="2.78951">
        <ele>979.2</ele>
        <time>2021-06-30T16:33:26.999+02:00</time>
      </trkpt>
      <trkpt lat="43.55636" lon="2.78952">
        <ele>979.1</ele>
        <time>2021-06-30T16:33:27.999+02:00</time>
      </trkpt>
      <trkpt lat="43.55635" lon="2.78952">
        <ele>979</ele>
        <time>2021-06-30T16:33:28.999+02:00</time>
      </trkpt>
      <trkpt lat="43.55635" lon="2.78953">
        <ele>979</ele>
        <time>2021-06-30T16:33:29.999+02:00</time>
      </trkpt>
      <trkpt lat="43.55635" lon="2.78953">
        <ele>978.9</ele>
        <time>2021-06-30T16:33:30.999+02:00</time>
      </trkpt>
      <trkpt lat="43.55634" lon="2.78954">
        <ele>978.8</ele>
        <time>2021-06-30T16:33:31.999+02:00</time>
      </trkpt>
      <trkpt lat="43.55633" lon="2.78955">
        <ele>978.7</ele>
        <time>2021-06-30T16:33:32.999+02:00</time>
      </trkpt>
      <trkpt lat="43.55632" lon="2.78955">
        <ele>978.6</ele>
        <time>2021-06-30T16:33:33.999+02:00</time>
      </trkpt>
      <trkpt lat="43.55631" lon="2.78955">
        <ele>978.6</ele>
        <time>2021-06-30T16:33:34.999+02:00</time>
      </trkpt>
      <trkpt lat="43.5563" lon="2.78956">
        <ele>978.5</ele>
        <time>2021-06-30T16:33:35.999+02:00</time>
      </trkpt>
      <trkpt lat="43.55629" lon="2.78956">
        <ele>978.4</ele>
        <time>2021-06-30T16:33:36.999+02:00</time>
      </trkpt>
      <trkpt lat="43.55627" lon="2.78955">
        <ele>978.4</ele>
        <time>2021-06-30T16:33:37.999+02:00</time>
      </trkpt>
      <trkpt lat="43.55627" lon="2.78955">
        <ele>978.4</ele>
        <time>2021-06-30T16:33:38.999+02:00</time>
      </trkpt>
      <trkpt lat="43.55626" lon="2.78955">
        <ele>978.4</ele>
        <time>2021-06-30T16:33:39.999+02:00</time>
      </trkpt>
      <trkpt lat="43.55626" lon="2.78955">
        <ele>978.4</ele>
        <time>2021-06-30T16:33:40.999+02:00</time>
      </trkpt>
      <trkpt lat="43.55625" lon="2.78955">
        <ele>978.4</ele>
        <time>2021-06-30T16:33:41.999+02:00</time>
      </trkpt>
      <trkpt lat="43.55625" lon="2.78955">
        <ele>978.3</ele>
        <time>2021-06-30T16:33:42.999+02:00</time>
      </trkpt>
      <trkpt lat="43.55624" lon="2.78954">
        <ele>978.4</ele>
        <time>2021-06-30T16:33:43.999+02:00</time>
      </trkpt>
      <trkpt lat="43.55623" lon="2.78954">
        <ele>978.4</ele>
        <time>2021-06-30T16:33:44.999+02:00</time>
      </trkpt>
      <trkpt lat="43.55623" lon="2.78953">
        <ele>978.4</ele>
        <time>2021-06-30T16:33:45.999+02:00</time>
      </trkpt>
      <trkpt lat="43.55622" lon="2.78951">
        <ele>978.5</ele>
        <time>2021-06-30T16:33:46.999+02:00</time>
      </trkpt>
      <trkpt lat="43.55621" lon="2.78949">
        <ele>978.7</ele>
        <time>2021-06-30T16:33:47.999+02:00</time>
      </trkpt>
      <trkpt lat="43.5562" lon="2.78947">
        <ele>978.9</ele>
        <time>2021-06-30T16:33:48.999+02:00</time>
      </trkpt>
      <trkpt lat="43.5562" lon="2.78946">
        <ele>978.9</ele>
        <time>2021-06-30T16:33:49.999+02:00</time>
      </trkpt>
      <trkpt lat="43.55619" lon="2.78946">
        <ele>978.9</ele>
        <time>2021-06-30T16:33:50.999+02:00</time>
      </trkpt>
      <trkpt lat="43.55618" lon="2.78945">
        <ele>979</ele>
        <time>2021-06-30T16:33:51.999+02:00</time>
      </trkpt>
      <trkpt lat="43.55617" lon="2.78945">
        <ele>979</ele>
        <time>2021-06-30T16:33:52.999+02:00</time>
      </trkpt>
      <trkpt lat="43.55616" lon="2.78944">
        <ele>979</ele>
        <time>2021-06-30T16:33:53.999+02:00</time>
      </trkpt>
      <trkpt lat="43.55614" lon="2.78944">
        <ele>979</ele>
        <time>2021-06-30T16:33:54.999+02:00</time>
      </trkpt>
      <trkpt lat="43.55614" lon="2.78943">
        <ele>979</ele>
        <time>2021-06-30T16:33:55.999+02:00</time>
      </trkpt>
      <trkpt lat="43.55613" lon="2.78943">
        <ele>979.1</ele>
        <time>2021-06-30T16:33:56.999+02:00</time>
      </trkpt>
      <trkpt lat="43.55611" lon="2.78941">
        <ele>979.1</ele>
        <time>2021-06-30T16:33:57.999+02:00</time>
      </trkpt>
      <trkpt lat="43.5561" lon="2.78942">
        <ele>979</ele>
        <time>2021-06-30T16:33:58.999+02:00</time>
      </trkpt>
      <trkpt lat="43.55608" lon="2.78942">
        <ele>979</ele>
        <time>2021-06-30T16:33:59.999+02:00</time>
      </trkpt>
      <trkpt lat="43.55607" lon="2.78942">
        <ele>978.9</ele>
        <time>2021-06-30T16:34:00.999+02:00</time>
      </trkpt>
      <trkpt lat="43.55606" lon="2.78942">
        <ele>978.9</ele>
        <time>2021-06-30T16:34:01.999+02:00</time>
      </trkpt>
      <trkpt lat="43.55606" lon="2.78942">
        <ele>978.9</ele>
        <time>2021-06-30T16:34:02.999+02:00</time>
      </trkpt>
      <trkpt lat="43.55605" lon="2.78942">
        <ele>978.8</ele>
        <time>2021-06-30T16:34:03.999+02:00</time>
      </trkpt>
      <trkpt lat="43.55605" lon="2.78943">
        <ele>978.7</ele>
        <time>2021-06-30T16:34:04.999+02:00</time>
      </trkpt>
      <trkpt lat="43.55604" lon="2.78944">
        <ele>978.6</ele>
        <time>2021-06-30T16:34:05.999+02:00</time>
      </trkpt>
      <trkpt lat="43.55603" lon="2.78944">
        <ele>978.5</ele>
        <time>2021-06-30T16:34:06.999+02:00</time>
      </trkpt>
      <trkpt lat="43.55602" lon="2.78945">
        <ele>978.4</ele>
        <time>2021-06-30T16:34:07.999+02:00</time>
      </trkpt>
      <trkpt lat="43.55601" lon="2.78945">
        <ele>978.3</ele>
        <time>2021-06-30T16:34:08.999+02:00</time>
      </trkpt>
      <trkpt lat="43.556" lon="2.78945">
        <ele>978.2</ele>
        <time>2021-06-30T16:34:09.999+02:00</time>
      </trkpt>
      <trkpt lat="43.55599" lon="2.78946">
        <ele>978.2</ele>
        <time>2021-06-30T16:34:10.999+02:00</time>
      </trkpt>
      <trkpt lat="43.55599" lon="2.78946">
        <ele>978.1</ele>
        <time>2021-06-30T16:34:11.999+02:00</time>
      </trkpt>
      <trkpt lat="43.55598" lon="2.78946">
        <ele>978.1</ele>
        <time>2021-06-30T16:34:12.999+02:00</time>
      </trkpt>
      <trkpt lat="43.55597" lon="2.78946">
        <ele>978</ele>
        <time>2021-06-30T16:34:13.999+02:00</time>
      </trkpt>
      <trkpt lat="43.55596" lon="2.78947">
        <ele>977.9</ele>
        <time>2021-06-30T16:34:14.999+02:00</time>
      </trkpt>
      <trkpt lat="43.55595" lon="2.78947">
        <ele>977.9</ele>
        <time>2021-06-30T16:34:15.999+02:00</time>
      </trkpt>
      <trkpt lat="43.55594" lon="2.78947">
        <ele>977.8</ele>
        <time>2021-06-30T16:34:16.999+02:00</time>
      </trkpt>
      <trkpt lat="43.55593" lon="2.78947">
        <ele>977.8</ele>
        <time>2021-06-30T16:34:17.999+02:00</time>
      </trkpt>
      <trkpt lat="43.55592" lon="2.78947">
        <ele>977.7</ele>
        <time>2021-06-30T16:34:18.999+02:00</time>
      </trkpt>
      <trkpt lat="43.55591" lon="2.78947">
        <ele>977.7</ele>
        <time>2021-06-30T16:34:19.999+02:00</time>
      </trkpt>
      <trkpt lat="43.5559" lon="2.78948">
        <ele>977.5</ele>
        <time>2021-06-30T16:34:20.999+02:00</time>
      </trkpt>
      <trkpt lat="43.55589" lon="2.78949">
        <ele>977.4</ele>
        <time>2021-06-30T16:34:21.999+02:00</time>
      </trkpt>
      <trkpt lat="43.55588" lon="2.7895">
        <ele>977.2</ele>
        <time>2021-06-30T16:34:22.999+02:00</time>
      </trkpt>
      <trkpt lat="43.55587" lon="2.78951">
        <ele>977</ele>
        <time>2021-06-30T16:34:23.999+02:00</time>
      </trkpt>
      <trkpt lat="43.55586" lon="2.78952">
        <ele>976.9</ele>
        <time>2021-06-30T16:34:24.999+02:00</time>
      </trkpt>
      <trkpt lat="43.55584" lon="2.78953">
        <ele>976.6</ele>
        <time>2021-06-30T16:34:25.999+02:00</time>
      </trkpt>
      <trkpt lat="43.55583" lon="2.78955">
        <ele>976.4</ele>
        <time>2021-06-30T16:34:26.999+02:00</time>
      </trkpt>
      <trkpt lat="43.55582" lon="2.78956">
        <ele>976.2</ele>
        <time>2021-06-30T16:34:27.999+02:00</time>
      </trkpt>
      <trkpt lat="43.55582" lon="2.78957">
        <ele>976.1</ele>
        <time>2021-06-30T16:34:28.999+02:00</time>
      </trkpt>
      <trkpt lat="43.55581" lon="2.78958">
        <ele>976</ele>
        <time>2021-06-30T16:34:29.999+02:00</time>
      </trkpt>
      <trkpt lat="43.5558" lon="2.78959">
        <ele>975.8</ele>
        <time>2021-06-30T16:34:30.999+02:00</time>
      </trkpt>
      <trkpt lat="43.55579" lon="2.7896">
        <ele>975.7</ele>
        <time>2021-06-30T16:34:31.999+02:00</time>
      </trkpt>
      <trkpt lat="43.55578" lon="2.78961">
        <ele>975.6</ele>
        <time>2021-06-30T16:34:32.999+02:00</time>
      </trkpt>
      <trkpt lat="43.55577" lon="2.78962">
        <ele>975.5</ele>
        <time>2021-06-30T16:34:33.999+02:00</time>
      </trkpt>
      <trkpt lat="43.55576" lon="2.78963">
        <ele>975.4</ele>
        <time>2021-06-30T16:34:34.999+02:00</time>
      </trkpt>
      <trkpt lat="43.55574" lon="2.78964">
        <ele>975.2</ele>
        <time>2021-06-30T16:34:35.999+02:00</time>
      </trkpt>
      <trkpt lat="43.55573" lon="2.78965">
        <ele>975.1</ele>
        <time>2021-06-30T16:34:36.999+02:00</time>
      </trkpt>
      <trkpt lat="43.55572" lon="2.78966">
        <ele>975</ele>
        <time>2021-06-30T16:34:37.999+02:00</time>
      </trkpt>
      <trkpt lat="43.55571" lon="2.78967">
        <ele>974.9</ele>
        <time>2021-06-30T16:34:38.999+02:00</time>
      </trkpt>
      <trkpt lat="43.5557" lon="2.78968">
        <ele>974.7</ele>
        <time>2021-06-30T16:34:39.999+02:00</time>
      </trkpt>
      <trkpt lat="43.55569" lon="2.78969">
        <ele>974.6</ele>
        <time>2021-06-30T16:34:40.999+02:00</time>
      </trkpt>
      <trkpt lat="43.55568" lon="2.7897">
        <ele>974.5</ele>
        <time>2021-06-30T16:34:41.999+02:00</time>
      </trkpt>
      <trkpt lat="43.55568" lon="2.78971">
        <ele>974.4</ele>
        <time>2021-06-30T16:34:42.999+02:00</time>
      </trkpt>
      <trkpt lat="43.55567" lon="2.78972">
        <ele>974.2</ele>
        <time>2021-06-30T16:34:43.999+02:00</time>
      </trkpt>
      <trkpt lat="43.55565" lon="2.78973">
        <ele>974.1</ele>
        <time>2021-06-30T16:34:44.999+02:00</time>
      </trkpt>
      <trkpt lat="43.55564" lon="2.78973">
        <ele>974</ele>
        <time>2021-06-30T16:34:45.999+02:00</time>
      </trkpt>
      <trkpt lat="43.55563" lon="2.78974">
        <ele>973.9</ele>
        <time>2021-06-30T16:34:46.999+02:00</time>
      </trkpt>
      <trkpt lat="43.55562" lon="2.78975">
        <ele>973.9</ele>
        <time>2021-06-30T16:34:47.999+02:00</time>
      </trkpt>
      <trkpt lat="43.55561" lon="2.78975">
        <ele>973.8</ele>
        <time>2021-06-30T16:34:48.999+02:00</time>
      </trkpt>
      <trkpt lat="43.5556" lon="2.78976">
        <ele>973.7</ele>
        <time>2021-06-30T16:34:49.999+02:00</time>
      </trkpt>
      <trkpt lat="43.55559" lon="2.78977">
        <ele>973.6</ele>
        <time>2021-06-30T16:34:50.999+02:00</time>
      </trkpt>
      <trkpt lat="43.55558" lon="2.78978">
        <ele>973.5</ele>
        <time>2021-06-30T16:34:51.999+02:00</time>
      </trkpt>
      <trkpt lat="43.55558" lon="2.78979">
        <ele>973.4</ele>
        <time>2021-06-30T16:34:52.999+02:00</time>
      </trkpt>
      <trkpt lat="43.55557" lon="2.7898">
        <ele>973.3</ele>
        <time>2021-06-30T16:34:53.999+02:00</time>
      </trkpt>
      <trkpt lat="43.55556" lon="2.78981">
        <ele>973.2</ele>
        <time>2021-06-30T16:34:54.999+02:00</time>
      </trkpt>
      <trkpt lat="43.55556" lon="2.78981">
        <ele>973.1</ele>
        <time>2021-06-30T16:34:55.999+02:00</time>
      </trkpt>
      <trkpt lat="43.55555" lon="2.78983">
        <ele>973</ele>
        <time>2021-06-30T16:34:56.999+02:00</time>
      </trkpt>
      <trkpt lat="43.55554" lon="2.78984">
        <ele>972.8</ele>
        <time>2021-06-30T16:34:57.999+02:00</time>
      </trkpt>
      <trkpt lat="43.55553" lon="2.78985">
        <ele>972.7</ele>
        <time>2021-06-30T16:34:58.999+02:00</time>
      </trkpt>
      <trkpt lat="43.55552" lon="2.78986">
        <ele>972.6</ele>
        <time>2021-06-30T16:34:59.999+02:00</time>
      </trkpt>
      <trkpt lat="43.55551" lon="2.78987">
        <ele>972.5</ele>
        <time>2021-06-30T16:35:00.999+02:00</time>
      </trkpt>
      <trkpt lat="43.55551" lon="2.78988">
        <ele>972.4</ele>
        <time>2021-06-30T16:35:01.999+02:00</time>
      </trkpt>
      <trkpt lat="43.5555" lon="2.78988">
        <ele>972.3</ele>
        <time>2021-06-30T16:35:02.999+02:00</time>
      </trkpt>
      <trkpt lat="43.55549" lon="2.78989">
        <ele>972.2</ele>
        <time>2021-06-30T16:35:03.999+02:00</time>
      </trkpt>
      <trkpt lat="43.55549" lon="2.7899">
        <ele>972.1</ele>
        <time>2021-06-30T16:35:04.999+02:00</time>
      </trkpt>
      <trkpt lat="43.55548" lon="2.78991">
        <ele>972</ele>
        <time>2021-06-30T16:35:05.999+02:00</time>
      </trkpt>
      <trkpt lat="43.55547" lon="2.78991">
        <ele>972</ele>
        <time>2021-06-30T16:35:06.999+02:00</time>
      </trkpt>
      <trkpt lat="43.55547" lon="2.78992">
        <ele>971.9</ele>
        <time>2021-06-30T16:35:07.999+02:00</time>
      </trkpt>
      <trkpt lat="43.55547" lon="2.78992">
        <ele>971.9</ele>
        <time>2021-06-30T16:35:08.999+02:00</time>
      </trkpt>
      <trkpt lat="43.55546" lon="2.78992">
        <ele>971.9</ele>
        <time>2021-06-30T16:35:09.999+02:00</time>
      </trkpt>
      <trkpt lat="43.55545" lon="2.78993">
        <ele>971.8</ele>
        <time>2021-06-30T16:35:10.999+02:00</time>
      </trkpt>
      <trkpt lat="43.55544" lon="2.78994">
        <ele>971.7</ele>
        <time>2021-06-30T16:35:11.999+02:00</time>
      </trkpt>
      <trkpt lat="43.55543" lon="2.78995">
        <ele>971.6</ele>
        <time>2021-06-30T16:35:12.999+02:00</time>
      </trkpt>
      <trkpt lat="43.55542" lon="2.78996">
        <ele>971.5</ele>
        <time>2021-06-30T16:35:13.999+02:00</time>
      </trkpt>
      <trkpt lat="43.55541" lon="2.78996">
        <ele>971.4</ele>
        <time>2021-06-30T16:35:14.999+02:00</time>
      </trkpt>
      <trkpt lat="43.55541" lon="2.78996">
        <ele>971.4</ele>
        <time>2021-06-30T16:35:15.999+02:00</time>
      </trkpt>
      <trkpt lat="43.5554" lon="2.78997">
        <ele>971.3</ele>
        <time>2021-06-30T16:35:16.999+02:00</time>
      </trkpt>
      <trkpt lat="43.55539" lon="2.78998">
        <ele>971.2</ele>
        <time>2021-06-30T16:35:17.999+02:00</time>
      </trkpt>
      <trkpt lat="43.55538" lon="2.78999">
        <ele>971.1</ele>
        <time>2021-06-30T16:35:18.999+02:00</time>
      </trkpt>
      <trkpt lat="43.55537" lon="2.79">
        <ele>971</ele>
        <time>2021-06-30T16:35:19.999+02:00</time>
      </trkpt>
      <trkpt lat="43.55536" lon="2.79001">
        <ele>970.9</ele>
        <time>2021-06-30T16:35:20.999+02:00</time>
      </trkpt>
      <trkpt lat="43.55535" lon="2.79002">
        <ele>970.9</ele>
        <time>2021-06-30T16:35:21.999+02:00</time>
      </trkpt>
      <trkpt lat="43.55534" lon="2.79002">
        <ele>970.8</ele>
        <time>2021-06-30T16:35:22.999+02:00</time>
      </trkpt>
      <trkpt lat="43.55533" lon="2.79003">
        <ele>970.8</ele>
        <time>2021-06-30T16:35:23.999+02:00</time>
      </trkpt>
      <trkpt lat="43.55532" lon="2.79004">
        <ele>970.7</ele>
        <time>2021-06-30T16:35:24.999+02:00</time>
      </trkpt>
      <trkpt lat="43.55531" lon="2.79005">
        <ele>970.6</ele>
        <time>2021-06-30T16:35:25.999+02:00</time>
      </trkpt>
      <trkpt lat="43.5553" lon="2.79005">
        <ele>970.6</ele>
        <time>2021-06-30T16:35:26.999+02:00</time>
      </trkpt>
      <trkpt lat="43.55529" lon="2.79006">
        <ele>970.5</ele>
        <time>2021-06-30T16:35:27.999+02:00</time>
      </trkpt>
      <trkpt lat="43.55528" lon="2.79006">
        <ele>970.5</ele>
        <time>2021-06-30T16:35:28.999+02:00</time>
      </trkpt>
      <trkpt lat="43.55527" lon="2.79007">
        <ele>970.5</ele>
        <time>2021-06-30T16:35:29.999+02:00</time>
      </trkpt>
      <trkpt lat="43.55525" lon="2.79006">
        <ele>970.5</ele>
        <time>2021-06-30T16:35:30.999+02:00</time>
      </trkpt>
      <trkpt lat="43.55525" lon="2.79006">
        <ele>970.5</ele>
        <time>2021-06-30T16:35:31.999+02:00</time>
      </trkpt>
      <trkpt lat="43.55524" lon="2.79006">
        <ele>970.5</ele>
        <time>2021-06-30T16:35:32.999+02:00</time>
      </trkpt>
      <trkpt lat="43.55523" lon="2.79005">
        <ele>970.6</ele>
        <time>2021-06-30T16:35:33.999+02:00</time>
      </trkpt>
      <trkpt lat="43.55522" lon="2.79005">
        <ele>970.6</ele>
        <time>2021-06-30T16:35:34.999+02:00</time>
      </trkpt>
      <trkpt lat="43.55521" lon="2.79004">
        <ele>970.6</ele>
        <time>2021-06-30T16:35:35.999+02:00</time>
      </trkpt>
      <trkpt lat="43.5552" lon="2.79004">
        <ele>970.7</ele>
        <time>2021-06-30T16:35:36.999+02:00</time>
      </trkpt>
      <trkpt lat="43.55519" lon="2.79003">
        <ele>970.8</ele>
        <time>2021-06-30T16:35:37.999+02:00</time>
      </trkpt>
      <trkpt lat="43.55518" lon="2.79002">
        <ele>970.8</ele>
        <time>2021-06-30T16:35:38.999+02:00</time>
      </trkpt>
      <trkpt lat="43.55517" lon="2.79001">
        <ele>970.9</ele>
        <time>2021-06-30T16:35:39.999+02:00</time>
      </trkpt>
      <trkpt lat="43.55516" lon="2.79">
        <ele>971</ele>
        <time>2021-06-30T16:35:40.999+02:00</time>
      </trkpt>
      <trkpt lat="43.55515" lon="2.78999">
        <ele>971.1</ele>
        <time>2021-06-30T16:35:41.999+02:00</time>
      </trkpt>
      <trkpt lat="43.55514" lon="2.78998">
        <ele>971.2</ele>
        <time>2021-06-30T16:35:42.999+02:00</time>
      </trkpt>
      <trkpt lat="43.55513" lon="2.78997">
        <ele>971.3</ele>
        <time>2021-06-30T16:35:43.999+02:00</time>
      </trkpt>
      <trkpt lat="43.55512" lon="2.78996">
        <ele>971.4</ele>
        <time>2021-06-30T16:35:44.999+02:00</time>
      </trkpt>
      <trkpt lat="43.55511" lon="2.78995">
        <ele>971.5</ele>
        <time>2021-06-30T16:35:45.999+02:00</time>
      </trkpt>
      <trkpt lat="43.5551" lon="2.78994">
        <ele>971.6</ele>
        <time>2021-06-30T16:35:46.999+02:00</time>
      </trkpt>
      <trkpt lat="43.5551" lon="2.78993">
        <ele>971.7</ele>
        <time>2021-06-30T16:35:47.999+02:00</time>
      </trkpt>
      <trkpt lat="43.55509" lon="2.78992">
        <ele>971.8</ele>
        <time>2021-06-30T16:35:48.999+02:00</time>
      </trkpt>
      <trkpt lat="43.55508" lon="2.78992">
        <ele>971.8</ele>
        <time>2021-06-30T16:35:49.999+02:00</time>
      </trkpt>
      <trkpt lat="43.55507" lon="2.78991">
        <ele>971.9</ele>
        <time>2021-06-30T16:35:50.999+02:00</time>
      </trkpt>
      <trkpt lat="43.55506" lon="2.7899">
        <ele>972</ele>
        <time>2021-06-30T16:35:51.999+02:00</time>
      </trkpt>
      <trkpt lat="43.55505" lon="2.78989">
        <ele>972.1</ele>
        <time>2021-06-30T16:35:52.999+02:00</time>
      </trkpt>
      <trkpt lat="43.55504" lon="2.78988">
        <ele>972.2</ele>
        <time>2021-06-30T16:35:53.999+02:00</time>
      </trkpt>
      <trkpt lat="43.55503" lon="2.78987">
        <ele>972.2</ele>
        <time>2021-06-30T16:35:54.999+02:00</time>
      </trkpt>
      <trkpt lat="43.55502" lon="2.78986">
        <ele>972.3</ele>
        <time>2021-06-30T16:35:55.999+02:00</time>
      </trkpt>
      <trkpt lat="43.55501" lon="2.78986">
        <ele>972.4</ele>
        <time>2021-06-30T16:35:56.999+02:00</time>
      </trkpt>
      <trkpt lat="43.55501" lon="2.78984">
        <ele>972.5</ele>
        <time>2021-06-30T16:35:57.999+02:00</time>
      </trkpt>
      <trkpt lat="43.555" lon="2.78983">
        <ele>972.6</ele>
        <time>2021-06-30T16:35:58.999+02:00</time>
      </trkpt>
      <trkpt lat="43.555" lon="2.78983">
        <ele>972.7</ele>
        <time>2021-06-30T16:35:59.999+02:00</time>
      </trkpt>
      <trkpt lat="43.55499" lon="2.78982">
        <ele>972.7</ele>
        <time>2021-06-30T16:36:00.999+02:00</time>
      </trkpt>
      <trkpt lat="43.55498" lon="2.78981">
        <ele>972.8</ele>
        <time>2021-06-30T16:36:01.999+02:00</time>
      </trkpt>
      <trkpt lat="43.55498" lon="2.7898">
        <ele>972.9</ele>
        <time>2021-06-30T16:36:02.999+02:00</time>
      </trkpt>
      <trkpt lat="43.55497" lon="2.78979">
        <ele>973</ele>
        <time>2021-06-30T16:36:03.999+02:00</time>
      </trkpt>
      <trkpt lat="43.55496" lon="2.78978">
        <ele>973.1</ele>
        <time>2021-06-30T16:36:04.999+02:00</time>
      </trkpt>
      <trkpt lat="43.55495" lon="2.78978">
        <ele>973.2</ele>
        <time>2021-06-30T16:36:05.999+02:00</time>
      </trkpt>
      <trkpt lat="43.55495" lon="2.78977">
        <ele>973.2</ele>
        <time>2021-06-30T16:36:06.999+02:00</time>
      </trkpt>
      <trkpt lat="43.55493" lon="2.78977">
        <ele>973.2</ele>
        <time>2021-06-30T16:36:07.999+02:00</time>
      </trkpt>
      <trkpt lat="43.55492" lon="2.78977">
        <ele>973.3</ele>
        <time>2021-06-30T16:36:08.999+02:00</time>
      </trkpt>
      <trkpt lat="43.55491" lon="2.78977">
        <ele>973.3</ele>
        <time>2021-06-30T16:36:09.999+02:00</time>
      </trkpt>
      <trkpt lat="43.5549" lon="2.78976">
        <ele>973.4</ele>
        <time>2021-06-30T16:36:10.999+02:00</time>
      </trkpt>
      <trkpt lat="43.55489" lon="2.78976">
        <ele>973.4</ele>
        <time>2021-06-30T16:36:11.999+02:00</time>
      </trkpt>
      <trkpt lat="43.55488" lon="2.78975">
        <ele>973.5</ele>
        <time>2021-06-30T16:36:12.999+02:00</time>
      </trkpt>
      <trkpt lat="43.55488" lon="2.78975">
        <ele>973.6</ele>
        <time>2021-06-30T16:36:13.999+02:00</time>
      </trkpt>
      <trkpt lat="43.55487" lon="2.78974">
        <ele>973.6</ele>
        <time>2021-06-30T16:36:14.999+02:00</time>
      </trkpt>
      <trkpt lat="43.55486" lon="2.78974">
        <ele>973.6</ele>
        <time>2021-06-30T16:36:15.999+02:00</time>
      </trkpt>
      <trkpt lat="43.55485" lon="2.78974">
        <ele>973.7</ele>
        <time>2021-06-30T16:36:16.999+02:00</time>
      </trkpt>
      <trkpt lat="43.55484" lon="2.78973">
        <ele>973.7</ele>
        <time>2021-06-30T16:36:17.999+02:00</time>
      </trkpt>
      <trkpt lat="43.55484" lon="2.78973">
        <ele>973.7</ele>
        <time>2021-06-30T16:36:18.999+02:00</time>
      </trkpt>
      <trkpt lat="43.55483" lon="2.78973">
        <ele>973.7</ele>
        <time>2021-06-30T16:36:19.999+02:00</time>
      </trkpt>
      <trkpt lat="43.55482" lon="2.78973">
        <ele>973.7</ele>
        <time>2021-06-30T16:36:20.999+02:00</time>
      </trkpt>
      <trkpt lat="43.55482" lon="2.78974">
        <ele>973.7</ele>
        <time>2021-06-30T16:36:21.999+02:00</time>
      </trkpt>
      <trkpt lat="43.55481" lon="2.78974">
        <ele>973.6</ele>
        <time>2021-06-30T16:36:22.999+02:00</time>
      </trkpt>
      <trkpt lat="43.5548" lon="2.78975">
        <ele>973.6</ele>
        <time>2021-06-30T16:36:23.999+02:00</time>
      </trkpt>
      <trkpt lat="43.55478" lon="2.78975">
        <ele>973.6</ele>
        <time>2021-06-30T16:36:24.999+02:00</time>
      </trkpt>
      <trkpt lat="43.55477" lon="2.78975">
        <ele>973.6</ele>
        <time>2021-06-30T16:36:25.999+02:00</time>
      </trkpt>
      <trkpt lat="43.55476" lon="2.78975">
        <ele>973.6</ele>
        <time>2021-06-30T16:36:26.999+02:00</time>
      </trkpt>
      <trkpt lat="43.55474" lon="2.78977">
        <ele>973.5</ele>
        <time>2021-06-30T16:36:27.999+02:00</time>
      </trkpt>
      <trkpt lat="43.55472" lon="2.78978">
        <ele>973.4</ele>
        <time>2021-06-30T16:36:28.999+02:00</time>
      </trkpt>
      <trkpt lat="43.5547" lon="2.78979">
        <ele>973.4</ele>
        <time>2021-06-30T16:36:29.999+02:00</time>
      </trkpt>
      <trkpt lat="43.55469" lon="2.7898">
        <ele>973.3</ele>
        <time>2021-06-30T16:36:30.999+02:00</time>
      </trkpt>
      <trkpt lat="43.55468" lon="2.78981">
        <ele>973.3</ele>
        <time>2021-06-30T16:36:31.999+02:00</time>
      </trkpt>
      <trkpt lat="43.55467" lon="2.78981">
        <ele>973.2</ele>
        <time>2021-06-30T16:36:32.999+02:00</time>
      </trkpt>
      <trkpt lat="43.55466" lon="2.78982">
        <ele>973.2</ele>
        <time>2021-06-30T16:36:33.999+02:00</time>
      </trkpt>
      <trkpt lat="43.55465" lon="2.78983">
        <ele>973.1</ele>
        <time>2021-06-30T16:36:34.999+02:00</time>
      </trkpt>
      <trkpt lat="43.55464" lon="2.78984">
        <ele>973.1</ele>
        <time>2021-06-30T16:36:35.999+02:00</time>
      </trkpt>
      <trkpt lat="43.55463" lon="2.78984">
        <ele>973</ele>
        <time>2021-06-30T16:36:36.999+02:00</time>
      </trkpt>
      <trkpt lat="43.55462" lon="2.78986">
        <ele>973</ele>
        <time>2021-06-30T16:36:37.999+02:00</time>
      </trkpt>
      <trkpt lat="43.55461" lon="2.78987">
        <ele>972.9</ele>
        <time>2021-06-30T16:36:38.999+02:00</time>
      </trkpt>
      <trkpt lat="43.55461" lon="2.78987">
        <ele>972.9</ele>
        <time>2021-06-30T16:36:39.999+02:00</time>
      </trkpt>
      <trkpt lat="43.5546" lon="2.78988">
        <ele>972.8</ele>
        <time>2021-06-30T16:36:40.999+02:00</time>
      </trkpt>
      <trkpt lat="43.5546" lon="2.78989">
        <ele>972.8</ele>
        <time>2021-06-30T16:36:41.999+02:00</time>
      </trkpt>
      <trkpt lat="43.55459" lon="2.7899">
        <ele>972.7</ele>
        <time>2021-06-30T16:36:42.999+02:00</time>
      </trkpt>
      <trkpt lat="43.55459" lon="2.78991">
        <ele>972.6</ele>
        <time>2021-06-30T16:36:43.999+02:00</time>
      </trkpt>
      <trkpt lat="43.55459" lon="2.78992">
        <ele>972.5</ele>
        <time>2021-06-30T16:36:44.999+02:00</time>
      </trkpt>
      <trkpt lat="43.55458" lon="2.78994">
        <ele>972.5</ele>
        <time>2021-06-30T16:36:45.999+02:00</time>
      </trkpt>
      <trkpt lat="43.55458" lon="2.78995">
        <ele>972.4</ele>
        <time>2021-06-30T16:36:46.999+02:00</time>
      </trkpt>
      <trkpt lat="43.55458" lon="2.78996">
        <ele>972.3</ele>
        <time>2021-06-30T16:36:47.999+02:00</time>
      </trkpt>
      <trkpt lat="43.55457" lon="2.78997">
        <ele>972.3</ele>
        <time>2021-06-30T16:36:48.999+02:00</time>
      </trkpt>
      <trkpt lat="43.55457" lon="2.78997">
        <ele>972.2</ele>
        <time>2021-06-30T16:36:49.999+02:00</time>
      </trkpt>
      <trkpt lat="43.55457" lon="2.78998">
        <ele>972.2</ele>
        <time>2021-06-30T16:36:50.999+02:00</time>
      </trkpt>
      <trkpt lat="43.55457" lon="2.78999">
        <ele>972.1</ele>
        <time>2021-06-30T16:36:51.999+02:00</time>
      </trkpt>
      <trkpt lat="43.55457" lon="2.78999">
        <ele>972.1</ele>
        <time>2021-06-30T16:36:52.999+02:00</time>
      </trkpt>
      <trkpt lat="43.55457" lon="2.79">
        <ele>972.1</ele>
        <time>2021-06-30T16:36:53.999+02:00</time>
      </trkpt>
      <trkpt lat="43.55456" lon="2.79">
        <ele>972</ele>
        <time>2021-06-30T16:36:54.999+02:00</time>
      </trkpt>
      <trkpt lat="43.55456" lon="2.79001">
        <ele>972</ele>
        <time>2021-06-30T16:36:55.999+02:00</time>
      </trkpt>
      <trkpt lat="43.55456" lon="2.79001">
        <ele>972</ele>
        <time>2021-06-30T16:36:56.999+02:00</time>
      </trkpt>
      <trkpt lat="43.55456" lon="2.79002">
        <ele>971.9</ele>
        <time>2021-06-30T16:36:57.999+02:00</time>
      </trkpt>
      <trkpt lat="43.55456" lon="2.79003">
        <ele>971.9</ele>
        <time>2021-06-30T16:36:58.999+02:00</time>
      </trkpt>
      <trkpt lat="43.55455" lon="2.79003">
        <ele>971.9</ele>
        <time>2021-06-30T16:36:59.999+02:00</time>
      </trkpt>
      <trkpt lat="43.55455" lon="2.79004">
        <ele>971.8</ele>
        <time>2021-06-30T16:37:00.999+02:00</time>
      </trkpt>
      <trkpt lat="43.55454" lon="2.79004">
        <ele>971.8</ele>
        <time>2021-06-30T16:37:01.999+02:00</time>
      </trkpt>
      <trkpt lat="43.55454" lon="2.79005">
        <ele>971.8</ele>
        <time>2021-06-30T16:37:02.999+02:00</time>
      </trkpt>
      <trkpt lat="43.55454" lon="2.79005">
        <ele>971.8</ele>
        <time>2021-06-30T16:37:03.999+02:00</time>
      </trkpt>
      <trkpt lat="43.55453" lon="2.79006">
        <ele>971.7</ele>
        <time>2021-06-30T16:37:04.999+02:00</time>
      </trkpt>
      <trkpt lat="43.55452" lon="2.79008">
        <ele>971.7</ele>
        <time>2021-06-30T16:37:05.999+02:00</time>
      </trkpt>
      <trkpt lat="43.55451" lon="2.79009">
        <ele>971.6</ele>
        <time>2021-06-30T16:37:06.999+02:00</time>
      </trkpt>
      <trkpt lat="43.55448" lon="2.79014">
        <ele>971.4</ele>
        <time>2021-06-30T16:37:07.999+02:00</time>
      </trkpt>
      <trkpt lat="43.55448" lon="2.79015">
        <ele>971.4</ele>
        <time>2021-06-30T16:37:08.999+02:00</time>
      </trkpt>
      <trkpt lat="43.55447" lon="2.79015">
        <ele>971.4</ele>
        <time>2021-06-30T16:37:09.999+02:00</time>
      </trkpt>
      <trkpt lat="43.55447" lon="2.79016">
        <ele>971.3</ele>
        <time>2021-06-30T16:37:10.999+02:00</time>
      </trkpt>
      <trkpt lat="43.55447" lon="2.79017">
        <ele>971.3</ele>
        <time>2021-06-30T16:37:11.999+02:00</time>
      </trkpt>
      <trkpt lat="43.55447" lon="2.79018">
        <ele>971.3</ele>
        <time>2021-06-30T16:37:12.999+02:00</time>
      </trkpt>
      <trkpt lat="43.55446" lon="2.79018">
        <ele>971.3</ele>
        <time>2021-06-30T16:37:13.999+02:00</time>
      </trkpt>
      <trkpt lat="43.55446" lon="2.79019">
        <ele>971.2</ele>
        <time>2021-06-30T16:37:14.999+02:00</time>
      </trkpt>
      <trkpt lat="43.55446" lon="2.79019">
        <ele>971.2</ele>
        <time>2021-06-30T16:37:15.999+02:00</time>
      </trkpt>
      <trkpt lat="43.55445" lon="2.7902">
        <ele>971.2</ele>
        <time>2021-06-30T16:37:16.999+02:00</time>
      </trkpt>
      <trkpt lat="43.55445" lon="2.7902">
        <ele>971.2</ele>
        <time>2021-06-30T16:37:17.999+02:00</time>
      </trkpt>
      <trkpt lat="43.55445" lon="2.79022">
        <ele>971.1</ele>
        <time>2021-06-30T16:37:18.999+02:00</time>
      </trkpt>
      <trkpt lat="43.55444" lon="2.79023">
        <ele>971.1</ele>
        <time>2021-06-30T16:37:19.999+02:00</time>
      </trkpt>
      <trkpt lat="43.55444" lon="2.79024">
        <ele>971</ele>
        <time>2021-06-30T16:37:20.999+02:00</time>
      </trkpt>
      <trkpt lat="43.55444" lon="2.79025">
        <ele>971</ele>
        <time>2021-06-30T16:37:21.999+02:00</time>
      </trkpt>
      <trkpt lat="43.55444" lon="2.79027">
        <ele>970.9</ele>
        <time>2021-06-30T16:37:22.999+02:00</time>
      </trkpt>
      <trkpt lat="43.55443" lon="2.79028">
        <ele>970.8</ele>
        <time>2021-06-30T16:37:23.999+02:00</time>
      </trkpt>
      <trkpt lat="43.55443" lon="2.7903">
        <ele>970.7</ele>
        <time>2021-06-30T16:37:24.999+02:00</time>
      </trkpt>
      <trkpt lat="43.55443" lon="2.79031">
        <ele>970.6</ele>
        <time>2021-06-30T16:37:25.999+02:00</time>
      </trkpt>
      <trkpt lat="43.55443" lon="2.79033">
        <ele>970.6</ele>
        <time>2021-06-30T16:37:26.999+02:00</time>
      </trkpt>
      <trkpt lat="43.55443" lon="2.79034">
        <ele>970.5</ele>
        <time>2021-06-30T16:37:27.999+02:00</time>
      </trkpt>
      <trkpt lat="43.55443" lon="2.79035">
        <ele>970.4</ele>
        <time>2021-06-30T16:37:28.999+02:00</time>
      </trkpt>
      <trkpt lat="43.55443" lon="2.79037">
        <ele>970.4</ele>
        <time>2021-06-30T16:37:29.999+02:00</time>
      </trkpt>
      <trkpt lat="43.55443" lon="2.79038">
        <ele>970.3</ele>
        <time>2021-06-30T16:37:30.999+02:00</time>
      </trkpt>
      <trkpt lat="43.55443" lon="2.79039">
        <ele>970.2</ele>
        <time>2021-06-30T16:37:31.999+02:00</time>
      </trkpt>
      <trkpt lat="43.55443" lon="2.7904">
        <ele>970.1</ele>
        <time>2021-06-30T16:37:32.999+02:00</time>
      </trkpt>
      <trkpt lat="43.55443" lon="2.79041">
        <ele>970.1</ele>
        <time>2021-06-30T16:37:33.999+02:00</time>
      </trkpt>
      <trkpt lat="43.55443" lon="2.79042">
        <ele>970</ele>
        <time>2021-06-30T16:37:34.999+02:00</time>
      </trkpt>
      <trkpt lat="43.55443" lon="2.79044">
        <ele>970</ele>
        <time>2021-06-30T16:37:35.999+02:00</time>
      </trkpt>
      <trkpt lat="43.55443" lon="2.79045">
        <ele>969.9</ele>
        <time>2021-06-30T16:37:36.999+02:00</time>
      </trkpt>
      <trkpt lat="43.55443" lon="2.79047">
        <ele>969.8</ele>
        <time>2021-06-30T16:37:37.999+02:00</time>
      </trkpt>
      <trkpt lat="43.55443" lon="2.79048">
        <ele>969.7</ele>
        <time>2021-06-30T16:37:38.999+02:00</time>
      </trkpt>
      <trkpt lat="43.55443" lon="2.7905">
        <ele>969.6</ele>
        <time>2021-06-30T16:37:39.999+02:00</time>
      </trkpt>
      <trkpt lat="43.55444" lon="2.79052">
        <ele>969.5</ele>
        <time>2021-06-30T16:37:40.999+02:00</time>
      </trkpt>
      <trkpt lat="43.55443" lon="2.79053">
        <ele>969.4</ele>
        <time>2021-06-30T16:37:41.999+02:00</time>
      </trkpt>
      <trkpt lat="43.55443" lon="2.79055">
        <ele>969.3</ele>
        <time>2021-06-30T16:37:42.999+02:00</time>
      </trkpt>
      <trkpt lat="43.55443" lon="2.79057">
        <ele>969.3</ele>
        <time>2021-06-30T16:37:43.999+02:00</time>
      </trkpt>
      <trkpt lat="43.55442" lon="2.79059">
        <ele>969.2</ele>
        <time>2021-06-30T16:37:44.999+02:00</time>
      </trkpt>
      <trkpt lat="43.55442" lon="2.7906">
        <ele>969.1</ele>
        <time>2021-06-30T16:37:45.999+02:00</time>
      </trkpt>
      <trkpt lat="43.55441" lon="2.79062">
        <ele>969.1</ele>
        <time>2021-06-30T16:37:46.999+02:00</time>
      </trkpt>
      <trkpt lat="43.5544" lon="2.79063">
        <ele>969.1</ele>
        <time>2021-06-30T16:37:47.999+02:00</time>
      </trkpt>
      <trkpt lat="43.55439" lon="2.79063">
        <ele>969.1</ele>
        <time>2021-06-30T16:37:48.999+02:00</time>
      </trkpt>
      <trkpt lat="43.55438" lon="2.79064">
        <ele>969.2</ele>
        <time>2021-06-30T16:37:49.999+02:00</time>
      </trkpt>
      <trkpt lat="43.55437" lon="2.79065">
        <ele>969.2</ele>
        <time>2021-06-30T16:37:50.999+02:00</time>
      </trkpt>
      <trkpt lat="43.55436" lon="2.79066">
        <ele>969.2</ele>
        <time>2021-06-30T16:37:51.999+02:00</time>
      </trkpt>
      <trkpt lat="43.55435" lon="2.79067">
        <ele>969.3</ele>
        <time>2021-06-30T16:37:52.999+02:00</time>
      </trkpt>
      <trkpt lat="43.55434" lon="2.79068">
        <ele>969.3</ele>
        <time>2021-06-30T16:37:53.999+02:00</time>
      </trkpt>
      <trkpt lat="43.55433" lon="2.79069">
        <ele>969.3</ele>
        <time>2021-06-30T16:37:54.999+02:00</time>
      </trkpt>
      <trkpt lat="43.55432" lon="2.7907">
        <ele>969.3</ele>
        <time>2021-06-30T16:37:55.999+02:00</time>
      </trkpt>
      <trkpt lat="43.5543" lon="2.79072">
        <ele>969.4</ele>
        <time>2021-06-30T16:37:56.999+02:00</time>
      </trkpt>
      <trkpt lat="43.55429" lon="2.79072">
        <ele>969.4</ele>
        <time>2021-06-30T16:37:57.999+02:00</time>
      </trkpt>
      <trkpt lat="43.55428" lon="2.79074">
        <ele>969.4</ele>
        <time>2021-06-30T16:37:58.999+02:00</time>
      </trkpt>
      <trkpt lat="43.55428" lon="2.79075">
        <ele>969.5</ele>
        <time>2021-06-30T16:37:59.999+02:00</time>
      </trkpt>
      <trkpt lat="43.55427" lon="2.79076">
        <ele>969.5</ele>
        <time>2021-06-30T16:38:00.999+02:00</time>
      </trkpt>
      <trkpt lat="43.55426" lon="2.79077">
        <ele>969.5</ele>
        <time>2021-06-30T16:38:01.999+02:00</time>
      </trkpt>
      <trkpt lat="43.55425" lon="2.79078">
        <ele>969.5</ele>
        <time>2021-06-30T16:38:02.999+02:00</time>
      </trkpt>
      <trkpt lat="43.55424" lon="2.79081">
        <ele>969.5</ele>
        <time>2021-06-30T16:38:03.999+02:00</time>
      </trkpt>
      <trkpt lat="43.55423" lon="2.79084">
        <ele>969.5</ele>
        <time>2021-06-30T16:38:04.999+02:00</time>
      </trkpt>
      <trkpt lat="43.55422" lon="2.79086">
        <ele>969.5</ele>
        <time>2021-06-30T16:38:05.999+02:00</time>
      </trkpt>
      <trkpt lat="43.55421" lon="2.79087">
        <ele>969.5</ele>
        <time>2021-06-30T16:38:06.999+02:00</time>
      </trkpt>
      <trkpt lat="43.55421" lon="2.79087">
        <ele>969.5</ele>
        <time>2021-06-30T16:38:07.999+02:00</time>
      </trkpt>
      <trkpt lat="43.5542" lon="2.79088">
        <ele>969.6</ele>
        <time>2021-06-30T16:38:08.999+02:00</time>
      </trkpt>
      <trkpt lat="43.55419" lon="2.79089">
        <ele>969.6</ele>
        <time>2021-06-30T16:38:09.999+02:00</time>
      </trkpt>
      <trkpt lat="43.55419" lon="2.7909">
        <ele>969.6</ele>
        <time>2021-06-30T16:38:10.999+02:00</time>
      </trkpt>
      <trkpt lat="43.55418" lon="2.79091">
        <ele>969.6</ele>
        <time>2021-06-30T16:38:11.999+02:00</time>
      </trkpt>
      <trkpt lat="43.55417" lon="2.79092">
        <ele>969.6</ele>
        <time>2021-06-30T16:38:12.999+02:00</time>
      </trkpt>
      <trkpt lat="43.55417" lon="2.79092">
        <ele>969.7</ele>
        <time>2021-06-30T16:38:13.999+02:00</time>
      </trkpt>
      <trkpt lat="43.55416" lon="2.79094">
        <ele>969.7</ele>
        <time>2021-06-30T16:38:14.999+02:00</time>
      </trkpt>
      <trkpt lat="43.55416" lon="2.79095">
        <ele>969.7</ele>
        <time>2021-06-30T16:38:15.999+02:00</time>
      </trkpt>
      <trkpt lat="43.55415" lon="2.79096">
        <ele>969.7</ele>
        <time>2021-06-30T16:38:16.999+02:00</time>
      </trkpt>
      <trkpt lat="43.55414" lon="2.79097">
        <ele>969.7</ele>
        <time>2021-06-30T16:38:17.999+02:00</time>
      </trkpt>
      <trkpt lat="43.55414" lon="2.79098">
        <ele>969.6</ele>
        <time>2021-06-30T16:38:18.999+02:00</time>
      </trkpt>
      <trkpt lat="43.55413" lon="2.79099">
        <ele>969.6</ele>
        <time>2021-06-30T16:38:19.999+02:00</time>
      </trkpt>
      <trkpt lat="43.55413" lon="2.791">
        <ele>969.6</ele>
        <time>2021-06-30T16:38:20.999+02:00</time>
      </trkpt>
      <trkpt lat="43.55412" lon="2.79101">
        <ele>969.6</ele>
        <time>2021-06-30T16:38:21.999+02:00</time>
      </trkpt>
      <trkpt lat="43.55412" lon="2.79102">
        <ele>969.6</ele>
        <time>2021-06-30T16:38:22.999+02:00</time>
      </trkpt>
      <trkpt lat="43.55411" lon="2.79103">
        <ele>969.6</ele>
        <time>2021-06-30T16:38:23.999+02:00</time>
      </trkpt>
      <trkpt lat="43.55411" lon="2.79104">
        <ele>969.6</ele>
        <time>2021-06-30T16:38:24.999+02:00</time>
      </trkpt>
      <trkpt lat="43.5541" lon="2.79105">
        <ele>969.6</ele>
        <time>2021-06-30T16:38:25.999+02:00</time>
      </trkpt>
      <trkpt lat="43.5541" lon="2.79106">
        <ele>969.6</ele>
        <time>2021-06-30T16:38:26.999+02:00</time>
      </trkpt>
      <trkpt lat="43.55409" lon="2.79107">
        <ele>969.6</ele>
        <time>2021-06-30T16:38:27.999+02:00</time>
      </trkpt>
      <trkpt lat="43.55408" lon="2.79108">
        <ele>969.6</ele>
        <time>2021-06-30T16:38:28.999+02:00</time>
      </trkpt>
      <trkpt lat="43.55408" lon="2.79108">
        <ele>969.6</ele>
        <time>2021-06-30T16:38:29.999+02:00</time>
      </trkpt>
      <trkpt lat="43.55407" lon="2.79109">
        <ele>969.7</ele>
        <time>2021-06-30T16:38:30.999+02:00</time>
      </trkpt>
      <trkpt lat="43.55406" lon="2.7911">
        <ele>969.7</ele>
        <time>2021-06-30T16:38:31.999+02:00</time>
      </trkpt>
      <trkpt lat="43.55405" lon="2.7911">
        <ele>969.7</ele>
        <time>2021-06-30T16:38:32.999+02:00</time>
      </trkpt>
      <trkpt lat="43.55404" lon="2.79111">
        <ele>969.7</ele>
        <time>2021-06-30T16:38:33.999+02:00</time>
      </trkpt>
      <trkpt lat="43.55404" lon="2.79112">
        <ele>969.8</ele>
        <time>2021-06-30T16:38:34.999+02:00</time>
      </trkpt>
      <trkpt lat="43.55403" lon="2.79113">
        <ele>969.8</ele>
        <time>2021-06-30T16:38:35.999+02:00</time>
      </trkpt>
      <trkpt lat="43.55402" lon="2.79113">
        <ele>969.8</ele>
        <time>2021-06-30T16:38:36.999+02:00</time>
      </trkpt>
      <trkpt lat="43.55401" lon="2.79114">
        <ele>969.8</ele>
        <time>2021-06-30T16:38:37.999+02:00</time>
      </trkpt>
      <trkpt lat="43.554" lon="2.79115">
        <ele>969.9</ele>
        <time>2021-06-30T16:38:38.999+02:00</time>
      </trkpt>
      <trkpt lat="43.55399" lon="2.79116">
        <ele>969.9</ele>
        <time>2021-06-30T16:38:39.999+02:00</time>
      </trkpt>
      <trkpt lat="43.55398" lon="2.79116">
        <ele>969.9</ele>
        <time>2021-06-30T16:38:40.999+02:00</time>
      </trkpt>
      <trkpt lat="43.55397" lon="2.79117">
        <ele>970</ele>
        <time>2021-06-30T16:38:41.999+02:00</time>
      </trkpt>
      <trkpt lat="43.55396" lon="2.79118">
        <ele>970</ele>
        <time>2021-06-30T16:38:42.999+02:00</time>
      </trkpt>
      <trkpt lat="43.55396" lon="2.79118">
        <ele>970</ele>
        <time>2021-06-30T16:38:43.999+02:00</time>
      </trkpt>
      <trkpt lat="43.55396" lon="2.79119">
        <ele>970</ele>
        <time>2021-06-30T16:38:44.999+02:00</time>
      </trkpt>
      <trkpt lat="43.55394" lon="2.79121">
        <ele>970</ele>
        <time>2021-06-30T16:38:45.999+02:00</time>
      </trkpt>
      <trkpt lat="43.55391" lon="2.79127">
        <ele>969.9</ele>
        <time>2021-06-30T16:38:46.999+02:00</time>
      </trkpt>
      <trkpt lat="43.5539" lon="2.79132">
        <ele>969.8</ele>
        <time>2021-06-30T16:38:47.999+02:00</time>
      </trkpt>
      <trkpt lat="43.5539" lon="2.79133">
        <ele>969.8</ele>
        <time>2021-06-30T16:38:48.999+02:00</time>
      </trkpt>
      <trkpt lat="43.55389" lon="2.79134">
        <ele>969.8</ele>
        <time>2021-06-30T16:38:49.999+02:00</time>
      </trkpt>
      <trkpt lat="43.55389" lon="2.79135">
        <ele>969.8</ele>
        <time>2021-06-30T16:38:50.999+02:00</time>
      </trkpt>
      <trkpt lat="43.55389" lon="2.79136">
        <ele>969.8</ele>
        <time>2021-06-30T16:38:51.999+02:00</time>
      </trkpt>
      <trkpt lat="43.55388" lon="2.79137">
        <ele>969.8</ele>
        <time>2021-06-30T16:38:52.999+02:00</time>
      </trkpt>
      <trkpt lat="43.55387" lon="2.79138">
        <ele>969.8</ele>
        <time>2021-06-30T16:38:53.999+02:00</time>
      </trkpt>
      <trkpt lat="43.55387" lon="2.79139">
        <ele>969.8</ele>
        <time>2021-06-30T16:38:54.999+02:00</time>
      </trkpt>
      <trkpt lat="43.55386" lon="2.7914">
        <ele>969.8</ele>
        <time>2021-06-30T16:38:55.999+02:00</time>
      </trkpt>
      <trkpt lat="43.55385" lon="2.7914">
        <ele>969.9</ele>
        <time>2021-06-30T16:38:56.999+02:00</time>
      </trkpt>
      <trkpt lat="43.55384" lon="2.7914">
        <ele>969.9</ele>
        <time>2021-06-30T16:38:57.999+02:00</time>
      </trkpt>
      <trkpt lat="43.55383" lon="2.79141">
        <ele>969.9</ele>
        <time>2021-06-30T16:38:58.999+02:00</time>
      </trkpt>
      <trkpt lat="43.55382" lon="2.79141">
        <ele>970</ele>
        <time>2021-06-30T16:38:59.999+02:00</time>
      </trkpt>
      <trkpt lat="43.55382" lon="2.79141">
        <ele>970</ele>
        <time>2021-06-30T16:39:00.999+02:00</time>
      </trkpt>
      <trkpt lat="43.55381" lon="2.79142">
        <ele>970</ele>
        <time>2021-06-30T16:39:01.999+02:00</time>
      </trkpt>
      <trkpt lat="43.5538" lon="2.79143">
        <ele>970.1</ele>
        <time>2021-06-30T16:39:02.999+02:00</time>
      </trkpt>
      <trkpt lat="43.55379" lon="2.79143">
        <ele>970.1</ele>
        <time>2021-06-30T16:39:03.999+02:00</time>
      </trkpt>
      <trkpt lat="43.55378" lon="2.79144">
        <ele>970.1</ele>
        <time>2021-06-30T16:39:04.999+02:00</time>
      </trkpt>
      <trkpt lat="43.55378" lon="2.79145">
        <ele>970.1</ele>
        <time>2021-06-30T16:39:05.999+02:00</time>
      </trkpt>
      <trkpt lat="43.55377" lon="2.79146">
        <ele>970.1</ele>
        <time>2021-06-30T16:39:06.999+02:00</time>
      </trkpt>
      <trkpt lat="43.55377" lon="2.79146">
        <ele>970.1</ele>
        <time>2021-06-30T16:39:07.999+02:00</time>
      </trkpt>
      <trkpt lat="43.55376" lon="2.79147">
        <ele>970.1</ele>
        <time>2021-06-30T16:39:08.999+02:00</time>
      </trkpt>
      <trkpt lat="43.55376" lon="2.79148">
        <ele>970.1</ele>
        <time>2021-06-30T16:39:09.999+02:00</time>
      </trkpt>
      <trkpt lat="43.55376" lon="2.79149">
        <ele>970.1</ele>
        <time>2021-06-30T16:39:10.999+02:00</time>
      </trkpt>
      <trkpt lat="43.55376" lon="2.7915">
        <ele>970</ele>
        <time>2021-06-30T16:39:11.999+02:00</time>
      </trkpt>
      <trkpt lat="43.55376" lon="2.79152">
        <ele>970</ele>
        <time>2021-06-30T16:39:12.999+02:00</time>
      </trkpt>
      <trkpt lat="43.55376" lon="2.79153">
        <ele>970</ele>
        <time>2021-06-30T16:39:13.999+02:00</time>
      </trkpt>
      <trkpt lat="43.55376" lon="2.79154">
        <ele>969.9</ele>
        <time>2021-06-30T16:39:14.999+02:00</time>
      </trkpt>
      <trkpt lat="43.55375" lon="2.79156">
        <ele>969.9</ele>
        <time>2021-06-30T16:39:15.999+02:00</time>
      </trkpt>
      <trkpt lat="43.55375" lon="2.79157">
        <ele>969.8</ele>
        <time>2021-06-30T16:39:16.999+02:00</time>
      </trkpt>
      <trkpt lat="43.55376" lon="2.79158">
        <ele>969.8</ele>
        <time>2021-06-30T16:39:17.999+02:00</time>
      </trkpt>
      <trkpt lat="43.55375" lon="2.79159">
        <ele>969.7</ele>
        <time>2021-06-30T16:39:18.999+02:00</time>
      </trkpt>
      <trkpt lat="43.55375" lon="2.79161">
        <ele>969.7</ele>
        <time>2021-06-30T16:39:19.999+02:00</time>
      </trkpt>
      <trkpt lat="43.55375" lon="2.79162">
        <ele>969.7</ele>
        <time>2021-06-30T16:39:20.999+02:00</time>
      </trkpt>
      <trkpt lat="43.55374" lon="2.79164">
        <ele>969.7</ele>
        <time>2021-06-30T16:39:21.999+02:00</time>
      </trkpt>
      <trkpt lat="43.55374" lon="2.79165">
        <ele>969.7</ele>
        <time>2021-06-30T16:39:22.999+02:00</time>
      </trkpt>
      <trkpt lat="43.55373" lon="2.79166">
        <ele>969.6</ele>
        <time>2021-06-30T16:39:23.999+02:00</time>
      </trkpt>
      <trkpt lat="43.55373" lon="2.79167">
        <ele>969.6</ele>
        <time>2021-06-30T16:39:24.999+02:00</time>
      </trkpt>
      <trkpt lat="43.55373" lon="2.79168">
        <ele>969.6</ele>
        <time>2021-06-30T16:39:25.999+02:00</time>
      </trkpt>
      <trkpt lat="43.55373" lon="2.79169">
        <ele>969.6</ele>
        <time>2021-06-30T16:39:26.999+02:00</time>
      </trkpt>
      <trkpt lat="43.55372" lon="2.7917">
        <ele>969.6</ele>
        <time>2021-06-30T16:39:27.999+02:00</time>
      </trkpt>
      <trkpt lat="43.55372" lon="2.79171">
        <ele>969.5</ele>
        <time>2021-06-30T16:39:28.999+02:00</time>
      </trkpt>
      <trkpt lat="43.55371" lon="2.79173">
        <ele>969.5</ele>
        <time>2021-06-30T16:39:29.999+02:00</time>
      </trkpt>
      <trkpt lat="43.5537" lon="2.79174">
        <ele>969.5</ele>
        <time>2021-06-30T16:39:30.999+02:00</time>
      </trkpt>
      <trkpt lat="43.55369" lon="2.79175">
        <ele>969.6</ele>
        <time>2021-06-30T16:39:31.999+02:00</time>
      </trkpt>
      <trkpt lat="43.55368" lon="2.79176">
        <ele>969.6</ele>
        <time>2021-06-30T16:39:32.999+02:00</time>
      </trkpt>
      <trkpt lat="43.55367" lon="2.79177">
        <ele>969.6</ele>
        <time>2021-06-30T16:39:33.999+02:00</time>
      </trkpt>
      <trkpt lat="43.55366" lon="2.79179">
        <ele>969.6</ele>
        <time>2021-06-30T16:39:34.999+02:00</time>
      </trkpt>
      <trkpt lat="43.55365" lon="2.7918">
        <ele>969.6</ele>
        <time>2021-06-30T16:39:35.999+02:00</time>
      </trkpt>
      <trkpt lat="43.55364" lon="2.79181">
        <ele>969.7</ele>
        <time>2021-06-30T16:39:36.999+02:00</time>
      </trkpt>
      <trkpt lat="43.55363" lon="2.79182">
        <ele>969.7</ele>
        <time>2021-06-30T16:39:37.999+02:00</time>
      </trkpt>
      <trkpt lat="43.55363" lon="2.79183">
        <ele>969.7</ele>
        <time>2021-06-30T16:39:38.999+02:00</time>
      </trkpt>
      <trkpt lat="43.55362" lon="2.79184">
        <ele>969.7</ele>
        <time>2021-06-30T16:39:39.999+02:00</time>
      </trkpt>
      <trkpt lat="43.55361" lon="2.79185">
        <ele>969.8</ele>
        <time>2021-06-30T16:39:40.999+02:00</time>
      </trkpt>
      <trkpt lat="43.5536" lon="2.79186">
        <ele>969.8</ele>
        <time>2021-06-30T16:39:41.999+02:00</time>
      </trkpt>
      <trkpt lat="43.55359" lon="2.79187">
        <ele>969.8</ele>
        <time>2021-06-30T16:39:42.999+02:00</time>
      </trkpt>
      <trkpt lat="43.55358" lon="2.79188">
        <ele>969.8</ele>
        <time>2021-06-30T16:39:43.999+02:00</time>
      </trkpt>
      <trkpt lat="43.55358" lon="2.79189">
        <ele>969.8</ele>
        <time>2021-06-30T16:39:44.999+02:00</time>
      </trkpt>
      <trkpt lat="43.55357" lon="2.7919">
        <ele>969.9</ele>
        <time>2021-06-30T16:39:45.999+02:00</time>
      </trkpt>
      <trkpt lat="43.55356" lon="2.7919">
        <ele>969.9</ele>
        <time>2021-06-30T16:39:46.999+02:00</time>
      </trkpt>
      <trkpt lat="43.55356" lon="2.79191">
        <ele>969.9</ele>
        <time>2021-06-30T16:39:47.999+02:00</time>
      </trkpt>
      <trkpt lat="43.55355" lon="2.79191">
        <ele>969.9</ele>
        <time>2021-06-30T16:39:48.999+02:00</time>
      </trkpt>
      <trkpt lat="43.55354" lon="2.79193">
        <ele>970</ele>
        <time>2021-06-30T16:39:49.999+02:00</time>
      </trkpt>
      <trkpt lat="43.55354" lon="2.79194">
        <ele>970</ele>
        <time>2021-06-30T16:39:50.999+02:00</time>
      </trkpt>
      <trkpt lat="43.55353" lon="2.79195">
        <ele>970</ele>
        <time>2021-06-30T16:39:51.999+02:00</time>
      </trkpt>
      <trkpt lat="43.55352" lon="2.79196">
        <ele>970</ele>
        <time>2021-06-30T16:39:52.999+02:00</time>
      </trkpt>
      <trkpt lat="43.55352" lon="2.79197">
        <ele>970</ele>
        <time>2021-06-30T16:39:53.999+02:00</time>
      </trkpt>
      <trkpt lat="43.55351" lon="2.79199">
        <ele>970</ele>
        <time>2021-06-30T16:39:54.999+02:00</time>
      </trkpt>
      <trkpt lat="43.55351" lon="2.792">
        <ele>970</ele>
        <time>2021-06-30T16:39:55.999+02:00</time>
      </trkpt>
      <trkpt lat="43.5535" lon="2.79201">
        <ele>970</ele>
        <time>2021-06-30T16:39:56.999+02:00</time>
      </trkpt>
      <trkpt lat="43.5535" lon="2.79201">
        <ele>970</ele>
        <time>2021-06-30T16:39:57.999+02:00</time>
      </trkpt>
      <trkpt lat="43.55349" lon="2.79202">
        <ele>970.1</ele>
        <time>2021-06-30T16:39:58.999+02:00</time>
      </trkpt>
      <trkpt lat="43.55348" lon="2.79203">
        <ele>970.1</ele>
        <time>2021-06-30T16:39:59.999+02:00</time>
      </trkpt>
      <trkpt lat="43.55347" lon="2.79203">
        <ele>970.2</ele>
        <time>2021-06-30T16:40:00.999+02:00</time>
      </trkpt>
      <trkpt lat="43.55346" lon="2.79204">
        <ele>970.2</ele>
        <time>2021-06-30T16:40:01.999+02:00</time>
      </trkpt>
      <trkpt lat="43.55345" lon="2.79205">
        <ele>970.2</ele>
        <time>2021-06-30T16:40:02.999+02:00</time>
      </trkpt>
      <trkpt lat="43.55345" lon="2.79206">
        <ele>970.3</ele>
        <time>2021-06-30T16:40:03.999+02:00</time>
      </trkpt>
      <trkpt lat="43.55344" lon="2.79207">
        <ele>970.3</ele>
        <time>2021-06-30T16:40:04.999+02:00</time>
      </trkpt>
      <trkpt lat="43.55343" lon="2.79208">
        <ele>970.3</ele>
        <time>2021-06-30T16:40:05.999+02:00</time>
      </trkpt>
      <trkpt lat="43.55342" lon="2.79209">
        <ele>970.3</ele>
        <time>2021-06-30T16:40:06.999+02:00</time>
      </trkpt>
      <trkpt lat="43.55341" lon="2.7921">
        <ele>970.4</ele>
        <time>2021-06-30T16:40:07.999+02:00</time>
      </trkpt>
      <trkpt lat="43.55341" lon="2.79211">
        <ele>970.4</ele>
        <time>2021-06-30T16:40:08.999+02:00</time>
      </trkpt>
      <trkpt lat="43.5534" lon="2.79212">
        <ele>970.4</ele>
        <time>2021-06-30T16:40:09.999+02:00</time>
      </trkpt>
      <trkpt lat="43.55339" lon="2.79213">
        <ele>970.5</ele>
        <time>2021-06-30T16:40:10.999+02:00</time>
      </trkpt>
      <trkpt lat="43.55339" lon="2.79213">
        <ele>970.5</ele>
        <time>2021-06-30T16:40:11.999+02:00</time>
      </trkpt>
      <trkpt lat="43.55338" lon="2.79214">
        <ele>970.5</ele>
        <time>2021-06-30T16:40:12.999+02:00</time>
      </trkpt>
      <trkpt lat="43.55337" lon="2.79215">
        <ele>970.5</ele>
        <time>2021-06-30T16:40:13.999+02:00</time>
      </trkpt>
      <trkpt lat="43.55337" lon="2.79216">
        <ele>970.6</ele>
        <time>2021-06-30T16:40:14.999+02:00</time>
      </trkpt>
      <trkpt lat="43.55336" lon="2.79217">
        <ele>970.6</ele>
        <time>2021-06-30T16:40:15.999+02:00</time>
      </trkpt>
      <trkpt lat="43.55335" lon="2.79219">
        <ele>970.6</ele>
        <time>2021-06-30T16:40:16.999+02:00</time>
      </trkpt>
      <trkpt lat="43.55334" lon="2.7922">
        <ele>970.7</ele>
        <time>2021-06-30T16:40:17.999+02:00</time>
      </trkpt>
      <trkpt lat="43.55333" lon="2.79221">
        <ele>970.7</ele>
        <time>2021-06-30T16:40:18.999+02:00</time>
      </trkpt>
      <trkpt lat="43.55333" lon="2.79222">
        <ele>970.7</ele>
        <time>2021-06-30T16:40:19.999+02:00</time>
      </trkpt>
      <trkpt lat="43.55332" lon="2.79223">
        <ele>970.7</ele>
        <time>2021-06-30T16:40:20.999+02:00</time>
      </trkpt>
      <trkpt lat="43.55332" lon="2.79223">
        <ele>970.7</ele>
        <time>2021-06-30T16:40:21.999+02:00</time>
      </trkpt>
      <trkpt lat="43.55331" lon="2.79224">
        <ele>970.7</ele>
        <time>2021-06-30T16:40:22.999+02:00</time>
      </trkpt>
      <trkpt lat="43.5533" lon="2.79225">
        <ele>970.7</ele>
        <time>2021-06-30T16:40:23.999+02:00</time>
      </trkpt>
      <trkpt lat="43.5533" lon="2.79226">
        <ele>970.8</ele>
        <time>2021-06-30T16:40:24.999+02:00</time>
      </trkpt>
      <trkpt lat="43.55329" lon="2.79227">
        <ele>970.8</ele>
        <time>2021-06-30T16:40:25.999+02:00</time>
      </trkpt>
      <trkpt lat="43.55328" lon="2.79228">
        <ele>970.8</ele>
        <time>2021-06-30T16:40:26.999+02:00</time>
      </trkpt>
      <trkpt lat="43.55327" lon="2.79229">
        <ele>970.8</ele>
        <time>2021-06-30T16:40:27.999+02:00</time>
      </trkpt>
      <trkpt lat="43.55326" lon="2.79229">
        <ele>970.8</ele>
        <time>2021-06-30T16:40:28.999+02:00</time>
      </trkpt>
      <trkpt lat="43.55326" lon="2.7923">
        <ele>970.8</ele>
        <time>2021-06-30T16:40:29.999+02:00</time>
      </trkpt>
      <trkpt lat="43.55325" lon="2.79231">
        <ele>970.8</ele>
        <time>2021-06-30T16:40:30.999+02:00</time>
      </trkpt>
      <trkpt lat="43.55324" lon="2.79232">
        <ele>970.8</ele>
        <time>2021-06-30T16:40:31.999+02:00</time>
      </trkpt>
      <trkpt lat="43.55324" lon="2.79232">
        <ele>970.8</ele>
        <time>2021-06-30T16:40:32.999+02:00</time>
      </trkpt>
      <trkpt lat="43.55323" lon="2.79233">
        <ele>970.8</ele>
        <time>2021-06-30T16:40:33.999+02:00</time>
      </trkpt>
      <trkpt lat="43.55323" lon="2.79234">
        <ele>970.9</ele>
        <time>2021-06-30T16:40:34.999+02:00</time>
      </trkpt>
      <trkpt lat="43.55322" lon="2.79235">
        <ele>970.9</ele>
        <time>2021-06-30T16:40:35.999+02:00</time>
      </trkpt>
      <trkpt lat="43.55322" lon="2.79236">
        <ele>970.8</ele>
        <time>2021-06-30T16:40:36.999+02:00</time>
      </trkpt>
      <trkpt lat="43.55321" lon="2.79237">
        <ele>970.8</ele>
        <time>2021-06-30T16:40:37.999+02:00</time>
      </trkpt>
      <trkpt lat="43.55321" lon="2.79238">
        <ele>970.8</ele>
        <time>2021-06-30T16:40:38.999+02:00</time>
      </trkpt>
      <trkpt lat="43.5532" lon="2.79239">
        <ele>970.8</ele>
        <time>2021-06-30T16:40:39.999+02:00</time>
      </trkpt>
      <trkpt lat="43.55319" lon="2.7924">
        <ele>970.8</ele>
        <time>2021-06-30T16:40:40.999+02:00</time>
      </trkpt>
      <trkpt lat="43.55318" lon="2.79241">
        <ele>970.8</ele>
        <time>2021-06-30T16:40:41.999+02:00</time>
      </trkpt>
      <trkpt lat="43.55317" lon="2.79242">
        <ele>970.8</ele>
        <time>2021-06-30T16:40:42.999+02:00</time>
      </trkpt>
      <trkpt lat="43.55316" lon="2.79243">
        <ele>970.8</ele>
        <time>2021-06-30T16:40:43.999+02:00</time>
      </trkpt>
      <trkpt lat="43.55315" lon="2.79244">
        <ele>970.8</ele>
        <time>2021-06-30T16:40:44.999+02:00</time>
      </trkpt>
      <trkpt lat="43.55314" lon="2.79245">
        <ele>970.8</ele>
        <time>2021-06-30T16:40:45.999+02:00</time>
      </trkpt>
      <trkpt lat="43.55314" lon="2.79246">
        <ele>970.8</ele>
        <time>2021-06-30T16:40:46.999+02:00</time>
      </trkpt>
      <trkpt lat="43.55313" lon="2.79247">
        <ele>970.8</ele>
        <time>2021-06-30T16:40:47.999+02:00</time>
      </trkpt>
      <trkpt lat="43.55312" lon="2.79248">
        <ele>970.8</ele>
        <time>2021-06-30T16:40:48.999+02:00</time>
      </trkpt>
      <trkpt lat="43.55311" lon="2.79249">
        <ele>970.8</ele>
        <time>2021-06-30T16:40:49.999+02:00</time>
      </trkpt>
      <trkpt lat="43.5531" lon="2.79251">
        <ele>970.8</ele>
        <time>2021-06-30T16:40:50.999+02:00</time>
      </trkpt>
      <trkpt lat="43.55308" lon="2.79256">
        <ele>970.2</ele>
        <time>2021-06-30T16:40:51.999+02:00</time>
      </trkpt>
      <trkpt lat="43.55306" lon="2.7926">
        <ele>969.8</ele>
        <time>2021-06-30T16:40:52.999+02:00</time>
      </trkpt>
      <trkpt lat="43.55302" lon="2.79261">
        <ele>969.9</ele>
        <time>2021-06-30T16:40:53.999+02:00</time>
      </trkpt>
      <trkpt lat="43.55298" lon="2.79263">
        <ele>969.8</ele>
        <time>2021-06-30T16:40:54.999+02:00</time>
      </trkpt>
      <trkpt lat="43.55296" lon="2.79268">
        <ele>969.4</ele>
        <time>2021-06-30T16:40:55.999+02:00</time>
      </trkpt>
      <trkpt lat="43.55295" lon="2.7927">
        <ele>969.1</ele>
        <time>2021-06-30T16:40:56.999+02:00</time>
      </trkpt>
      <trkpt lat="43.55295" lon="2.79272">
        <ele>968.9</ele>
        <time>2021-06-30T16:40:57.999+02:00</time>
      </trkpt>
      <trkpt lat="43.55294" lon="2.79273">
        <ele>968.8</ele>
        <time>2021-06-30T16:40:58.999+02:00</time>
      </trkpt>
      <trkpt lat="43.55293" lon="2.79275">
        <ele>968.7</ele>
        <time>2021-06-30T16:40:59.999+02:00</time>
      </trkpt>
      <trkpt lat="43.55292" lon="2.79276">
        <ele>968.5</ele>
        <time>2021-06-30T16:41:00.999+02:00</time>
      </trkpt>
      <trkpt lat="43.55291" lon="2.79278">
        <ele>968.4</ele>
        <time>2021-06-30T16:41:01.999+02:00</time>
      </trkpt>
      <trkpt lat="43.5529" lon="2.79279">
        <ele>968.3</ele>
        <time>2021-06-30T16:41:02.999+02:00</time>
      </trkpt>
      <trkpt lat="43.55289" lon="2.79279">
        <ele>968.2</ele>
        <time>2021-06-30T16:41:03.999+02:00</time>
      </trkpt>
      <trkpt lat="43.55288" lon="2.7928">
        <ele>968.1</ele>
        <time>2021-06-30T16:41:04.999+02:00</time>
      </trkpt>
      <trkpt lat="43.55287" lon="2.79282">
        <ele>968</ele>
        <time>2021-06-30T16:41:05.999+02:00</time>
      </trkpt>
      <trkpt lat="43.55286" lon="2.79283">
        <ele>967.9</ele>
        <time>2021-06-30T16:41:06.999+02:00</time>
      </trkpt>
      <trkpt lat="43.55285" lon="2.79284">
        <ele>967.8</ele>
        <time>2021-06-30T16:41:07.999+02:00</time>
      </trkpt>
      <trkpt lat="43.55284" lon="2.79285">
        <ele>967.7</ele>
        <time>2021-06-30T16:41:08.999+02:00</time>
      </trkpt>
      <trkpt lat="43.55283" lon="2.79287">
        <ele>967.5</ele>
        <time>2021-06-30T16:41:09.999+02:00</time>
      </trkpt>
      <trkpt lat="43.55282" lon="2.79288">
        <ele>967.4</ele>
        <time>2021-06-30T16:41:10.999+02:00</time>
      </trkpt>
      <trkpt lat="43.55281" lon="2.79289">
        <ele>967.3</ele>
        <time>2021-06-30T16:41:11.999+02:00</time>
      </trkpt>
      <trkpt lat="43.5528" lon="2.7929">
        <ele>967.2</ele>
        <time>2021-06-30T16:41:12.999+02:00</time>
      </trkpt>
      <trkpt lat="43.55279" lon="2.7929">
        <ele>967.2</ele>
        <time>2021-06-30T16:41:13.999+02:00</time>
      </trkpt>
      <trkpt lat="43.55278" lon="2.7929">
        <ele>967.2</ele>
        <time>2021-06-30T16:41:14.999+02:00</time>
      </trkpt>
      <trkpt lat="43.55277" lon="2.7929">
        <ele>967.2</ele>
        <time>2021-06-30T16:41:15.999+02:00</time>
      </trkpt>
      <trkpt lat="43.55276" lon="2.7929">
        <ele>967.2</ele>
        <time>2021-06-30T16:41:16.999+02:00</time>
      </trkpt>
      <trkpt lat="43.55275" lon="2.7929">
        <ele>967.3</ele>
        <time>2021-06-30T16:41:17.999+02:00</time>
      </trkpt>
      <trkpt lat="43.55274" lon="2.79288">
        <ele>967.5</ele>
        <time>2021-06-30T16:41:18.999+02:00</time>
      </trkpt>
      <trkpt lat="43.55273" lon="2.79288">
        <ele>967.6</ele>
        <time>2021-06-30T16:41:19.999+02:00</time>
      </trkpt>
      <trkpt lat="43.55272" lon="2.79287">
        <ele>967.6</ele>
        <time>2021-06-30T16:41:20.999+02:00</time>
      </trkpt>
      <trkpt lat="43.55271" lon="2.79286">
        <ele>967.8</ele>
        <time>2021-06-30T16:41:21.999+02:00</time>
      </trkpt>
      <trkpt lat="43.5527" lon="2.79285">
        <ele>968</ele>
        <time>2021-06-30T16:41:22.999+02:00</time>
      </trkpt>
      <trkpt lat="43.5527" lon="2.79284">
        <ele>968.1</ele>
        <time>2021-06-30T16:41:23.999+02:00</time>
      </trkpt>
      <trkpt lat="43.55269" lon="2.79283">
        <ele>968.2</ele>
        <time>2021-06-30T16:41:24.999+02:00</time>
      </trkpt>
      <trkpt lat="43.55268" lon="2.79282">
        <ele>968.3</ele>
        <time>2021-06-30T16:41:25.999+02:00</time>
      </trkpt>
      <trkpt lat="43.55268" lon="2.79282">
        <ele>968.4</ele>
        <time>2021-06-30T16:41:26.999+02:00</time>
      </trkpt>
      <trkpt lat="43.55268" lon="2.79281">
        <ele>968.6</ele>
        <time>2021-06-30T16:41:27.999+02:00</time>
      </trkpt>
      <trkpt lat="43.55268" lon="2.79281">
        <ele>968.5</ele>
        <time>2021-06-30T16:41:28.999+02:00</time>
      </trkpt>
      <trkpt lat="43.55267" lon="2.79282">
        <ele>968.4</ele>
        <time>2021-06-30T16:41:29.999+02:00</time>
      </trkpt>
      <trkpt lat="43.55268" lon="2.79281">
        <ele>968.5</ele>
        <time>2021-06-30T16:41:30.999+02:00</time>
      </trkpt>
      <trkpt lat="43.55269" lon="2.79281">
        <ele>968.4</ele>
        <time>2021-06-30T16:41:31.999+02:00</time>
      </trkpt>
      <trkpt lat="43.55268" lon="2.79279">
        <ele>968.7</ele>
        <time>2021-06-30T16:41:32.999+02:00</time>
      </trkpt>
      <trkpt lat="43.55267" lon="2.79279">
        <ele>968.8</ele>
        <time>2021-06-30T16:41:33.999+02:00</time>
      </trkpt>
      <trkpt lat="43.55266" lon="2.79277">
        <ele>969</ele>
        <time>2021-06-30T16:41:34.999+02:00</time>
      </trkpt>
      <trkpt lat="43.55265" lon="2.79276">
        <ele>969.1</ele>
        <time>2021-06-30T16:41:35.999+02:00</time>
      </trkpt>
      <trkpt lat="43.55265" lon="2.79275">
        <ele>969.3</ele>
        <time>2021-06-30T16:41:36.999+02:00</time>
      </trkpt>
      <trkpt lat="43.55265" lon="2.79274">
        <ele>969.5</ele>
        <time>2021-06-30T16:41:37.999+02:00</time>
      </trkpt>
      <trkpt lat="43.55264" lon="2.79273">
        <ele>969.6</ele>
        <time>2021-06-30T16:41:38.999+02:00</time>
      </trkpt>
      <trkpt lat="43.55264" lon="2.79272">
        <ele>969.8</ele>
        <time>2021-06-30T16:41:39.999+02:00</time>
      </trkpt>
      <trkpt lat="43.55263" lon="2.79271">
        <ele>969.9</ele>
        <time>2021-06-30T16:41:40.999+02:00</time>
      </trkpt>
      <trkpt lat="43.5526" lon="2.79271">
        <ele>969.9</ele>
        <time>2021-06-30T16:41:41.999+02:00</time>
      </trkpt>
      <trkpt lat="43.55259" lon="2.79271">
        <ele>970</ele>
        <time>2021-06-30T16:41:42.999+02:00</time>
      </trkpt>
      <trkpt lat="43.55258" lon="2.7927">
        <ele>970.1</ele>
        <time>2021-06-30T16:41:43.999+02:00</time>
      </trkpt>
      <trkpt lat="43.55255" lon="2.7927">
        <ele>970.2</ele>
        <time>2021-06-30T16:41:44.999+02:00</time>
      </trkpt>
      <trkpt lat="43.55254" lon="2.79269">
        <ele>970.4</ele>
        <time>2021-06-30T16:41:45.999+02:00</time>
      </trkpt>
      <trkpt lat="43.55252" lon="2.79269">
        <ele>970.4</ele>
        <time>2021-06-30T16:41:46.999+02:00</time>
      </trkpt>
      <trkpt lat="43.5525" lon="2.79269">
        <ele>970.5</ele>
        <time>2021-06-30T16:41:47.999+02:00</time>
      </trkpt>
      <trkpt lat="43.55249" lon="2.79269">
        <ele>970.5</ele>
        <time>2021-06-30T16:41:48.999+02:00</time>
      </trkpt>
      <trkpt lat="43.55248" lon="2.79269">
        <ele>970.5</ele>
        <time>2021-06-30T16:41:49.999+02:00</time>
      </trkpt>
      <trkpt lat="43.55246" lon="2.79269">
        <ele>970.5</ele>
        <time>2021-06-30T16:41:50.999+02:00</time>
      </trkpt>
      <trkpt lat="43.55245" lon="2.79269">
        <ele>970.5</ele>
        <time>2021-06-30T16:41:51.999+02:00</time>
      </trkpt>
      <trkpt lat="43.55244" lon="2.79269">
        <ele>970.6</ele>
        <time>2021-06-30T16:41:52.999+02:00</time>
      </trkpt>
      <trkpt lat="43.55244" lon="2.79268">
        <ele>970.7</ele>
        <time>2021-06-30T16:41:53.999+02:00</time>
      </trkpt>
      <trkpt lat="43.55243" lon="2.79267">
        <ele>970.8</ele>
        <time>2021-06-30T16:41:54.999+02:00</time>
      </trkpt>
      <trkpt lat="43.55241" lon="2.79267">
        <ele>970.9</ele>
        <time>2021-06-30T16:41:55.999+02:00</time>
      </trkpt>
      <trkpt lat="43.55239" lon="2.79266">
        <ele>971</ele>
        <time>2021-06-30T16:41:56.999+02:00</time>
      </trkpt>
      <trkpt lat="43.55238" lon="2.79265">
        <ele>971.1</ele>
        <time>2021-06-30T16:41:57.999+02:00</time>
      </trkpt>
      <trkpt lat="43.55237" lon="2.79265">
        <ele>971.2</ele>
        <time>2021-06-30T16:41:58.999+02:00</time>
      </trkpt>
      <trkpt lat="43.55236" lon="2.79264">
        <ele>971.3</ele>
        <time>2021-06-30T16:41:59.999+02:00</time>
      </trkpt>
      <trkpt lat="43.55235" lon="2.79264">
        <ele>971.4</ele>
        <time>2021-06-30T16:42:00.999+02:00</time>
      </trkpt>
      <trkpt lat="43.55234" lon="2.79263">
        <ele>971.5</ele>
        <time>2021-06-30T16:42:01.999+02:00</time>
      </trkpt>
      <trkpt lat="43.55233" lon="2.79262">
        <ele>971.7</ele>
        <time>2021-06-30T16:42:02.999+02:00</time>
      </trkpt>
      <trkpt lat="43.55232" lon="2.79262">
        <ele>971.7</ele>
        <time>2021-06-30T16:42:03.999+02:00</time>
      </trkpt>
      <trkpt lat="43.55232" lon="2.79262">
        <ele>971.7</ele>
        <time>2021-06-30T16:42:04.999+02:00</time>
      </trkpt>
      <trkpt lat="43.55231" lon="2.79262">
        <ele>971.8</ele>
        <time>2021-06-30T16:42:05.999+02:00</time>
      </trkpt>
      <trkpt lat="43.55231" lon="2.79261">
        <ele>971.9</ele>
        <time>2021-06-30T16:42:06.999+02:00</time>
      </trkpt>
      <trkpt lat="43.55231" lon="2.79261">
        <ele>971.9</ele>
        <time>2021-06-30T16:42:07.999+02:00</time>
      </trkpt>
      <trkpt lat="43.5523" lon="2.7926">
        <ele>972</ele>
        <time>2021-06-30T16:42:08.999+02:00</time>
      </trkpt>
      <trkpt lat="43.55229" lon="2.79259">
        <ele>972.2</ele>
        <time>2021-06-30T16:42:09.999+02:00</time>
      </trkpt>
      <trkpt lat="43.55228" lon="2.79258">
        <ele>972.4</ele>
        <time>2021-06-30T16:42:10.999+02:00</time>
      </trkpt>
      <trkpt lat="43.55227" lon="2.79257">
        <ele>972.6</ele>
        <time>2021-06-30T16:42:11.999+02:00</time>
      </trkpt>
      <trkpt lat="43.55226" lon="2.79256">
        <ele>972.7</ele>
        <time>2021-06-30T16:42:12.999+02:00</time>
      </trkpt>
      <trkpt lat="43.55225" lon="2.79255">
        <ele>972.8</ele>
        <time>2021-06-30T16:42:13.999+02:00</time>
      </trkpt>
      <trkpt lat="43.55225" lon="2.79255">
        <ele>972.9</ele>
        <time>2021-06-30T16:42:14.999+02:00</time>
      </trkpt>
      <trkpt lat="43.55224" lon="2.79254">
        <ele>973.1</ele>
        <time>2021-06-30T16:42:15.999+02:00</time>
      </trkpt>
      <trkpt lat="43.55223" lon="2.79253">
        <ele>973.3</ele>
        <time>2021-06-30T16:42:16.999+02:00</time>
      </trkpt>
      <trkpt lat="43.55222" lon="2.79252">
        <ele>973.4</ele>
        <time>2021-06-30T16:42:17.999+02:00</time>
      </trkpt>
      <trkpt lat="43.55221" lon="2.79251">
        <ele>973.6</ele>
        <time>2021-06-30T16:42:18.999+02:00</time>
      </trkpt>
      <trkpt lat="43.5522" lon="2.7925">
        <ele>973.7</ele>
        <time>2021-06-30T16:42:19.999+02:00</time>
      </trkpt>
      <trkpt lat="43.55219" lon="2.79249">
        <ele>973.8</ele>
        <time>2021-06-30T16:42:20.999+02:00</time>
      </trkpt>
      <trkpt lat="43.55218" lon="2.79248">
        <ele>973.9</ele>
        <time>2021-06-30T16:42:21.999+02:00</time>
      </trkpt>
      <trkpt lat="43.55217" lon="2.79247">
        <ele>973.9</ele>
        <time>2021-06-30T16:42:22.999+02:00</time>
      </trkpt>
      <trkpt lat="43.55216" lon="2.79247">
        <ele>974</ele>
        <time>2021-06-30T16:42:23.999+02:00</time>
      </trkpt>
      <trkpt lat="43.55216" lon="2.79247">
        <ele>973.9</ele>
        <time>2021-06-30T16:42:24.999+02:00</time>
      </trkpt>
      <trkpt lat="43.55215" lon="2.79246">
        <ele>974</ele>
        <time>2021-06-30T16:42:25.999+02:00</time>
      </trkpt>
      <trkpt lat="43.55215" lon="2.79245">
        <ele>974.1</ele>
        <time>2021-06-30T16:42:26.999+02:00</time>
      </trkpt>
      <trkpt lat="43.55214" lon="2.79244">
        <ele>974.1</ele>
        <time>2021-06-30T16:42:27.999+02:00</time>
      </trkpt>
      <trkpt lat="43.55214" lon="2.79243">
        <ele>974.2</ele>
        <time>2021-06-30T16:42:28.999+02:00</time>
      </trkpt>
      <trkpt lat="43.55213" lon="2.79241">
        <ele>974.3</ele>
        <time>2021-06-30T16:42:29.999+02:00</time>
      </trkpt>
      <trkpt lat="43.55212" lon="2.7924">
        <ele>974.3</ele>
        <time>2021-06-30T16:42:30.999+02:00</time>
      </trkpt>
      <trkpt lat="43.55211" lon="2.79239">
        <ele>974.4</ele>
        <time>2021-06-30T16:42:31.999+02:00</time>
      </trkpt>
      <trkpt lat="43.55211" lon="2.79238">
        <ele>974.5</ele>
        <time>2021-06-30T16:42:32.999+02:00</time>
      </trkpt>
      <trkpt lat="43.5521" lon="2.79237">
        <ele>974.5</ele>
        <time>2021-06-30T16:42:33.999+02:00</time>
      </trkpt>
      <trkpt lat="43.55209" lon="2.79236">
        <ele>974.6</ele>
        <time>2021-06-30T16:42:34.999+02:00</time>
      </trkpt>
      <trkpt lat="43.55208" lon="2.79235">
        <ele>974.6</ele>
        <time>2021-06-30T16:42:35.999+02:00</time>
      </trkpt>
      <trkpt lat="43.55207" lon="2.79234">
        <ele>974.7</ele>
        <time>2021-06-30T16:42:36.999+02:00</time>
      </trkpt>
      <trkpt lat="43.55206" lon="2.79233">
        <ele>974.8</ele>
        <time>2021-06-30T16:42:37.999+02:00</time>
      </trkpt>
      <trkpt lat="43.55205" lon="2.79232">
        <ele>974.8</ele>
        <time>2021-06-30T16:42:38.999+02:00</time>
      </trkpt>
      <trkpt lat="43.55204" lon="2.79231">
        <ele>974.9</ele>
        <time>2021-06-30T16:42:39.999+02:00</time>
      </trkpt>
      <trkpt lat="43.55203" lon="2.7923">
        <ele>974.9</ele>
        <time>2021-06-30T16:42:40.999+02:00</time>
      </trkpt>
      <trkpt lat="43.55202" lon="2.79229">
        <ele>975</ele>
        <time>2021-06-30T16:42:41.999+02:00</time>
      </trkpt>
      <trkpt lat="43.55201" lon="2.79228">
        <ele>975</ele>
        <time>2021-06-30T16:42:42.999+02:00</time>
      </trkpt>
      <trkpt lat="43.552" lon="2.79227">
        <ele>975.1</ele>
        <time>2021-06-30T16:42:43.999+02:00</time>
      </trkpt>
      <trkpt lat="43.55199" lon="2.79227">
        <ele>975.1</ele>
        <time>2021-06-30T16:42:44.999+02:00</time>
      </trkpt>
      <trkpt lat="43.55198" lon="2.79226">
        <ele>975.2</ele>
        <time>2021-06-30T16:42:45.999+02:00</time>
      </trkpt>
      <trkpt lat="43.55198" lon="2.79224">
        <ele>975.2</ele>
        <time>2021-06-30T16:42:46.999+02:00</time>
      </trkpt>
      <trkpt lat="43.55197" lon="2.79223">
        <ele>975.3</ele>
        <time>2021-06-30T16:42:47.999+02:00</time>
      </trkpt>
      <trkpt lat="43.55196" lon="2.79222">
        <ele>975.3</ele>
        <time>2021-06-30T16:42:48.999+02:00</time>
      </trkpt>
      <trkpt lat="43.55195" lon="2.79221">
        <ele>975.4</ele>
        <time>2021-06-30T16:42:49.999+02:00</time>
      </trkpt>
      <trkpt lat="43.55195" lon="2.79219">
        <ele>975.4</ele>
        <time>2021-06-30T16:42:50.999+02:00</time>
      </trkpt>
      <trkpt lat="43.55194" lon="2.79218">
        <ele>975.5</ele>
        <time>2021-06-30T16:42:51.999+02:00</time>
      </trkpt>
      <trkpt lat="43.55194" lon="2.79217">
        <ele>975.5</ele>
        <time>2021-06-30T16:42:52.999+02:00</time>
      </trkpt>
      <trkpt lat="43.55194" lon="2.79217">
        <ele>975.5</ele>
        <time>2021-06-30T16:42:53.999+02:00</time>
      </trkpt>
      <trkpt lat="43.55194" lon="2.79217">
        <ele>975.5</ele>
        <time>2021-06-30T16:42:54.999+02:00</time>
      </trkpt>
      <trkpt lat="43.55194" lon="2.79217">
        <ele>975.5</ele>
        <time>2021-06-30T16:42:55.999+02:00</time>
      </trkpt>
      <trkpt lat="43.55194" lon="2.79219">
        <ele>975.5</ele>
        <time>2021-06-30T16:42:56.999+02:00</time>
      </trkpt>
      <trkpt lat="43.55194" lon="2.79219">
        <ele>975.4</ele>
        <time>2021-06-30T16:42:57.999+02:00</time>
      </trkpt>
      <trkpt lat="43.55194" lon="2.79219">
        <ele>975.4</ele>
        <time>2021-06-30T16:42:58.999+02:00</time>
      </trkpt>
      <trkpt lat="43.55194" lon="2.79219">
        <ele>975.4</ele>
        <time>2021-06-30T16:42:59.999+02:00</time>
      </trkpt>
      <trkpt lat="43.55194" lon="2.79219">
        <ele>975.4</ele>
        <time>2021-06-30T16:43:00.999+02:00</time>
      </trkpt>
      <trkpt lat="43.55194" lon="2.79219">
        <ele>975.4</ele>
        <time>2021-06-30T16:43:01.999+02:00</time>
      </trkpt>
      <trkpt lat="43.55195" lon="2.7922">
        <ele>975.4</ele>
        <time>2021-06-30T16:43:02.999+02:00</time>
      </trkpt>
      <trkpt lat="43.55195" lon="2.7922">
        <ele>975.4</ele>
        <time>2021-06-30T16:43:03.999+02:00</time>
      </trkpt>
      <trkpt lat="43.55195" lon="2.7922">
        <ele>975.4</ele>
        <time>2021-06-30T16:43:04.999+02:00</time>
      </trkpt>
      <trkpt lat="43.55195" lon="2.7922">
        <ele>975.4</ele>
        <time>2021-06-30T16:43:05.999+02:00</time>
      </trkpt>
      <trkpt lat="43.55195" lon="2.7922">
        <ele>975.4</ele>
        <time>2021-06-30T16:43:06.999+02:00</time>
      </trkpt>
      <trkpt lat="43.55195" lon="2.7922">
        <ele>975.4</ele>
        <time>2021-06-30T16:43:07.999+02:00</time>
      </trkpt>
      <trkpt lat="43.55195" lon="2.79221">
        <ele>975.4</ele>
        <time>2021-06-30T16:43:08.999+02:00</time>
      </trkpt>
      <trkpt lat="43.55194" lon="2.79221">
        <ele>975.4</ele>
        <time>2021-06-30T16:43:09.999+02:00</time>
      </trkpt>
      <trkpt lat="43.55194" lon="2.79222">
        <ele>975.3</ele>
        <time>2021-06-30T16:43:10.999+02:00</time>
      </trkpt>
      <trkpt lat="43.55193" lon="2.79222">
        <ele>975.3</ele>
        <time>2021-06-30T16:43:11.999+02:00</time>
      </trkpt>
      <trkpt lat="43.55193" lon="2.79223">
        <ele>975.3</ele>
        <time>2021-06-30T16:43:12.999+02:00</time>
      </trkpt>
      <trkpt lat="43.55193" lon="2.79223">
        <ele>975.3</ele>
        <time>2021-06-30T16:43:13.999+02:00</time>
      </trkpt>
      <trkpt lat="43.55193" lon="2.79223">
        <ele>975.3</ele>
        <time>2021-06-30T16:43:14.999+02:00</time>
      </trkpt>
      <trkpt lat="43.55193" lon="2.79223">
        <ele>975.3</ele>
        <time>2021-06-30T16:43:15.999+02:00</time>
      </trkpt>
      <trkpt lat="43.55193" lon="2.79223">
        <ele>975.3</ele>
        <time>2021-06-30T16:43:16.999+02:00</time>
      </trkpt>
      <trkpt lat="43.55193" lon="2.79223">
        <ele>975.3</ele>
        <time>2021-06-30T16:43:17.999+02:00</time>
      </trkpt>
      <trkpt lat="43.55193" lon="2.79223">
        <ele>975.3</ele>
        <time>2021-06-30T16:43:18.999+02:00</time>
      </trkpt>
      <trkpt lat="43.55193" lon="2.79223">
        <ele>975.3</ele>
        <time>2021-06-30T16:43:19.999+02:00</time>
      </trkpt>
      <trkpt lat="43.55193" lon="2.79223">
        <ele>975.3</ele>
        <time>2021-06-30T16:43:20.999+02:00</time>
      </trkpt>
      <trkpt lat="43.55193" lon="2.79223">
        <ele>975.3</ele>
        <time>2021-06-30T16:43:21.999+02:00</time>
      </trkpt>
      <trkpt lat="43.55193" lon="2.79223">
        <ele>975.3</ele>
        <time>2021-06-30T16:43:22.999+02:00</time>
      </trkpt>
      <trkpt lat="43.55193" lon="2.79223">
        <ele>975.3</ele>
        <time>2021-06-30T16:43:23.999+02:00</time>
      </trkpt>
      <trkpt lat="43.55193" lon="2.79223">
        <ele>975.3</ele>
        <time>2021-06-30T16:43:24.999+02:00</time>
      </trkpt>
      <trkpt lat="43.55193" lon="2.79223">
        <ele>975.3</ele>
        <time>2021-06-30T16:43:25.999+02:00</time>
      </trkpt>
      <trkpt lat="43.55193" lon="2.79223">
        <ele>975.3</ele>
        <time>2021-06-30T16:43:26.999+02:00</time>
      </trkpt>
      <trkpt lat="43.55193" lon="2.79223">
        <ele>975.3</ele>
        <time>2021-06-30T16:43:27.999+02:00</time>
      </trkpt>
      <trkpt lat="43.55193" lon="2.79223">
        <ele>975.3</ele>
        <time>2021-06-30T16:43:28.999+02:00</time>
      </trkpt>
      <trkpt lat="43.55193" lon="2.79223">
        <ele>975.3</ele>
        <time>2021-06-30T16:43:29.999+02:00</time>
      </trkpt>
      <trkpt lat="43.55193" lon="2.79223">
        <ele>975.3</ele>
        <time>2021-06-30T16:43:30.999+02:00</time>
      </trkpt>
      <trkpt lat="43.55193" lon="2.79223">
        <ele>975.3</ele>
        <time>2021-06-30T16:43:31.999+02:00</time>
      </trkpt>
      <trkpt lat="43.55193" lon="2.79224">
        <ele>975.3</ele>
        <time>2021-06-30T16:43:32.999+02:00</time>
      </trkpt>
      <trkpt lat="43.55193" lon="2.79224">
        <ele>975.3</ele>
        <time>2021-06-30T16:43:33.999+02:00</time>
      </trkpt>
      <trkpt lat="43.55193" lon="2.79224">
        <ele>975.3</ele>
        <time>2021-06-30T16:43:34.999+02:00</time>
      </trkpt>
      <trkpt lat="43.55193" lon="2.79224">
        <ele>975.3</ele>
        <time>2021-06-30T16:43:35.999+02:00</time>
      </trkpt>
      <trkpt lat="43.55193" lon="2.79223">
        <ele>975.3</ele>
        <time>2021-06-30T16:43:36.999+02:00</time>
      </trkpt>
      <trkpt lat="43.55193" lon="2.79224">
        <ele>975.3</ele>
        <time>2021-06-30T16:43:37.999+02:00</time>
      </trkpt>
      <trkpt lat="43.55193" lon="2.79224">
        <ele>975.3</ele>
        <time>2021-06-30T16:43:38.999+02:00</time>
      </trkpt>
      <trkpt lat="43.55194" lon="2.79225">
        <ele>975.3</ele>
        <time>2021-06-30T16:43:39.999+02:00</time>
      </trkpt>
      <trkpt lat="43.55193" lon="2.79225">
        <ele>975.3</ele>
        <time>2021-06-30T16:43:40.999+02:00</time>
      </trkpt>
      <trkpt lat="43.55193" lon="2.79224">
        <ele>975.3</ele>
        <time>2021-06-30T16:43:41.999+02:00</time>
      </trkpt>
      <trkpt lat="43.55192" lon="2.79223">
        <ele>975.3</ele>
        <time>2021-06-30T16:43:42.999+02:00</time>
      </trkpt>
      <trkpt lat="43.55192" lon="2.79223">
        <ele>975.3</ele>
        <time>2021-06-30T16:43:43.999+02:00</time>
      </trkpt>
      <trkpt lat="43.55192" lon="2.79222">
        <ele>975.4</ele>
        <time>2021-06-30T16:43:44.999+02:00</time>
      </trkpt>
      <trkpt lat="43.55191" lon="2.7922">
        <ele>975.4</ele>
        <time>2021-06-30T16:43:45.999+02:00</time>
      </trkpt>
      <trkpt lat="43.5519" lon="2.79218">
        <ele>975.5</ele>
        <time>2021-06-30T16:43:46.999+02:00</time>
      </trkpt>
      <trkpt lat="43.5519" lon="2.79216">
        <ele>975.6</ele>
        <time>2021-06-30T16:43:47.999+02:00</time>
      </trkpt>
      <trkpt lat="43.55189" lon="2.79214">
        <ele>975.7</ele>
        <time>2021-06-30T16:43:48.999+02:00</time>
      </trkpt>
      <trkpt lat="43.55189" lon="2.79212">
        <ele>975.8</ele>
        <time>2021-06-30T16:43:49.999+02:00</time>
      </trkpt>
      <trkpt lat="43.55189" lon="2.79209">
        <ele>975.8</ele>
        <time>2021-06-30T16:43:50.999+02:00</time>
      </trkpt>
      <trkpt lat="43.55189" lon="2.79207">
        <ele>975.9</ele>
        <time>2021-06-30T16:43:51.999+02:00</time>
      </trkpt>
      <trkpt lat="43.55189" lon="2.79205">
        <ele>976</ele>
        <time>2021-06-30T16:43:52.999+02:00</time>
      </trkpt>
      <trkpt lat="43.55189" lon="2.79202">
        <ele>976.1</ele>
        <time>2021-06-30T16:43:53.999+02:00</time>
      </trkpt>
      <trkpt lat="43.55189" lon="2.79201">
        <ele>976.1</ele>
        <time>2021-06-30T16:43:54.999+02:00</time>
      </trkpt>
      <trkpt lat="43.55189" lon="2.79199">
        <ele>976.2</ele>
        <time>2021-06-30T16:43:55.999+02:00</time>
      </trkpt>
      <trkpt lat="43.55189" lon="2.79198">
        <ele>976.2</ele>
        <time>2021-06-30T16:43:56.999+02:00</time>
      </trkpt>
      <trkpt lat="43.5519" lon="2.79196">
        <ele>976.3</ele>
        <time>2021-06-30T16:43:57.999+02:00</time>
      </trkpt>
      <trkpt lat="43.55191" lon="2.79195">
        <ele>976.3</ele>
        <time>2021-06-30T16:43:58.999+02:00</time>
      </trkpt>
      <trkpt lat="43.55191" lon="2.79193">
        <ele>976.4</ele>
        <time>2021-06-30T16:43:59.999+02:00</time>
      </trkpt>
      <trkpt lat="43.55192" lon="2.79192">
        <ele>976.4</ele>
        <time>2021-06-30T16:44:00.999+02:00</time>
      </trkpt>
      <trkpt lat="43.55193" lon="2.7919">
        <ele>976.5</ele>
        <time>2021-06-30T16:44:01.999+02:00</time>
      </trkpt>
      <trkpt lat="43.55193" lon="2.79189">
        <ele>976.5</ele>
        <time>2021-06-30T16:44:02.999+02:00</time>
      </trkpt>
      <trkpt lat="43.55194" lon="2.79187">
        <ele>976.6</ele>
        <time>2021-06-30T16:44:03.999+02:00</time>
      </trkpt>
      <trkpt lat="43.55194" lon="2.79185">
        <ele>976.7</ele>
        <time>2021-06-30T16:44:04.999+02:00</time>
      </trkpt>
      <trkpt lat="43.55195" lon="2.79184">
        <ele>976.7</ele>
        <time>2021-06-30T16:44:05.999+02:00</time>
      </trkpt>
      <trkpt lat="43.55195" lon="2.79181">
        <ele>976.8</ele>
        <time>2021-06-30T16:44:06.999+02:00</time>
      </trkpt>
      <trkpt lat="43.55196" lon="2.7918">
        <ele>976.8</ele>
        <time>2021-06-30T16:44:07.999+02:00</time>
      </trkpt>
      <trkpt lat="43.55196" lon="2.7918">
        <ele>976.9</ele>
        <time>2021-06-30T16:44:08.999+02:00</time>
      </trkpt>
      <trkpt lat="43.55196" lon="2.7918">
        <ele>976.9</ele>
        <time>2021-06-30T16:44:09.999+02:00</time>
      </trkpt>
      <trkpt lat="43.55196" lon="2.7918">
        <ele>976.9</ele>
        <time>2021-06-30T16:44:10.999+02:00</time>
      </trkpt>
      <trkpt lat="43.55197" lon="2.79181">
        <ele>976.8</ele>
        <time>2021-06-30T16:44:11.999+02:00</time>
      </trkpt>
      <trkpt lat="43.55196" lon="2.79182">
        <ele>976.8</ele>
        <time>2021-06-30T16:44:12.999+02:00</time>
      </trkpt>
      <trkpt lat="43.55196" lon="2.79183">
        <ele>976.8</ele>
        <time>2021-06-30T16:44:13.999+02:00</time>
      </trkpt>
      <trkpt lat="43.55196" lon="2.79185">
        <ele>976.7</ele>
        <time>2021-06-30T16:44:14.999+02:00</time>
      </trkpt>
      <trkpt lat="43.55196" lon="2.79187">
        <ele>976.6</ele>
        <time>2021-06-30T16:44:15.999+02:00</time>
      </trkpt>
      <trkpt lat="43.55196" lon="2.79188">
        <ele>976.6</ele>
        <time>2021-06-30T16:44:16.999+02:00</time>
      </trkpt>
      <trkpt lat="43.55196" lon="2.79189">
        <ele>976.5</ele>
        <time>2021-06-30T16:44:17.999+02:00</time>
      </trkpt>
      <trkpt lat="43.55196" lon="2.79191">
        <ele>976.5</ele>
        <time>2021-06-30T16:44:18.999+02:00</time>
      </trkpt>
      <trkpt lat="43.55197" lon="2.79192">
        <ele>976.4</ele>
        <time>2021-06-30T16:44:19.999+02:00</time>
      </trkpt>
      <trkpt lat="43.55197" lon="2.79194">
        <ele>976.4</ele>
        <time>2021-06-30T16:44:20.999+02:00</time>
      </trkpt>
      <trkpt lat="43.55198" lon="2.79196">
        <ele>976.3</ele>
        <time>2021-06-30T16:44:21.999+02:00</time>
      </trkpt>
      <trkpt lat="43.552" lon="2.79197">
        <ele>976.2</ele>
        <time>2021-06-30T16:44:22.999+02:00</time>
      </trkpt>
      <trkpt lat="43.552" lon="2.79198">
        <ele>976.2</ele>
        <time>2021-06-30T16:44:23.999+02:00</time>
      </trkpt>
      <trkpt lat="43.552" lon="2.79198">
        <ele>976.2</ele>
        <time>2021-06-30T16:44:24.999+02:00</time>
      </trkpt>
      <trkpt lat="43.552" lon="2.79198">
        <ele>976.2</ele>
        <time>2021-06-30T16:44:25.999+02:00</time>
      </trkpt>
      <trkpt lat="43.552" lon="2.79197">
        <ele>976.2</ele>
        <time>2021-06-30T16:44:26.999+02:00</time>
      </trkpt>
      <trkpt lat="43.552" lon="2.79197">
        <ele>976.2</ele>
        <time>2021-06-30T16:44:27.999+02:00</time>
      </trkpt>
      <trkpt lat="43.55199" lon="2.79197">
        <ele>976.2</ele>
        <time>2021-06-30T16:44:28.999+02:00</time>
      </trkpt>
      <trkpt lat="43.55199" lon="2.79197">
        <ele>976.2</ele>
        <time>2021-06-30T16:44:29.999+02:00</time>
      </trkpt>
      <trkpt lat="43.55199" lon="2.79197">
        <ele>976.2</ele>
        <time>2021-06-30T16:44:30.999+02:00</time>
      </trkpt>
      <trkpt lat="43.552" lon="2.79197">
        <ele>976.2</ele>
        <time>2021-06-30T16:44:31.999+02:00</time>
      </trkpt>
      <trkpt lat="43.55199" lon="2.79197">
        <ele>976.2</ele>
        <time>2021-06-30T16:44:32.999+02:00</time>
      </trkpt>
      <trkpt lat="43.55199" lon="2.79197">
        <ele>976.2</ele>
        <time>2021-06-30T16:44:33.999+02:00</time>
      </trkpt>
      <trkpt lat="43.55199" lon="2.79197">
        <ele>976.3</ele>
        <time>2021-06-30T16:44:34.999+02:00</time>
      </trkpt>
      <trkpt lat="43.55199" lon="2.79197">
        <ele>976.3</ele>
        <time>2021-06-30T16:44:35.999+02:00</time>
      </trkpt>
      <trkpt lat="43.55199" lon="2.79196">
        <ele>976.3</ele>
        <time>2021-06-30T16:44:36.999+02:00</time>
      </trkpt>
      <trkpt lat="43.55199" lon="2.79196">
        <ele>976.3</ele>
        <time>2021-06-30T16:44:37.999+02:00</time>
      </trkpt>
      <trkpt lat="43.55199" lon="2.79196">
        <ele>976.3</ele>
        <time>2021-06-30T16:44:38.999+02:00</time>
      </trkpt>
      <trkpt lat="43.55199" lon="2.79196">
        <ele>976.3</ele>
        <time>2021-06-30T16:44:39.999+02:00</time>
      </trkpt>
      <trkpt lat="43.55199" lon="2.79196">
        <ele>976.3</ele>
        <time>2021-06-30T16:44:40.999+02:00</time>
      </trkpt>
      <trkpt lat="43.55199" lon="2.79196">
        <ele>976.3</ele>
        <time>2021-06-30T16:44:41.999+02:00</time>
      </trkpt>
      <trkpt lat="43.55199" lon="2.79196">
        <ele>976.3</ele>
        <time>2021-06-30T16:44:42.999+02:00</time>
      </trkpt>
      <trkpt lat="43.55199" lon="2.79196">
        <ele>976.3</ele>
        <time>2021-06-30T16:44:43.999+02:00</time>
      </trkpt>
      <trkpt lat="43.55199" lon="2.79196">
        <ele>976.3</ele>
        <time>2021-06-30T16:44:44.999+02:00</time>
      </trkpt>
      <trkpt lat="43.55199" lon="2.79196">
        <ele>976.3</ele>
        <time>2021-06-30T16:44:45.999+02:00</time>
      </trkpt>
      <trkpt lat="43.55199" lon="2.79196">
        <ele>976.3</ele>
        <time>2021-06-30T16:44:46.999+02:00</time>
      </trkpt>
      <trkpt lat="43.55199" lon="2.79196">
        <ele>976.3</ele>
        <time>2021-06-30T16:44:47.999+02:00</time>
      </trkpt>
      <trkpt lat="43.55199" lon="2.79196">
        <ele>976.3</ele>
        <time>2021-06-30T16:44:48.999+02:00</time>
      </trkpt>
      <trkpt lat="43.55199" lon="2.79196">
        <ele>976.3</ele>
        <time>2021-06-30T16:44:49.999+02:00</time>
      </trkpt>
      <trkpt lat="43.55199" lon="2.79196">
        <ele>976.3</ele>
        <time>2021-06-30T16:44:50.999+02:00</time>
      </trkpt>
      <trkpt lat="43.55199" lon="2.79196">
        <ele>976.3</ele>
        <time>2021-06-30T16:44:51.999+02:00</time>
      </trkpt>
      <trkpt lat="43.55199" lon="2.79196">
        <ele>976.3</ele>
        <time>2021-06-30T16:44:52.999+02:00</time>
      </trkpt>
      <trkpt lat="43.55199" lon="2.79196">
        <ele>976.3</ele>
        <time>2021-06-30T16:44:53.999+02:00</time>
      </trkpt>
      <trkpt lat="43.55199" lon="2.79196">
        <ele>976.3</ele>
        <time>2021-06-30T16:44:54.999+02:00</time>
      </trkpt>
      <trkpt lat="43.55199" lon="2.79196">
        <ele>976.3</ele>
        <time>2021-06-30T16:44:55.999+02:00</time>
      </trkpt>
      <trkpt lat="43.55199" lon="2.79196">
        <ele>976.3</ele>
        <time>2021-06-30T16:44:56.999+02:00</time>
      </trkpt>
      <trkpt lat="43.55199" lon="2.79196">
        <ele>976.3</ele>
        <time>2021-06-30T16:44:57.999+02:00</time>
      </trkpt>
      <trkpt lat="43.55199" lon="2.79196">
        <ele>976.3</ele>
        <time>2021-06-30T16:44:58.999+02:00</time>
      </trkpt>
      <trkpt lat="43.55199" lon="2.79196">
        <ele>976.3</ele>
        <time>2021-06-30T16:44:59.999+02:00</time>
      </trkpt>
      <trkpt lat="43.55199" lon="2.79196">
        <ele>976.3</ele>
        <time>2021-06-30T16:45:00.999+02:00</time>
      </trkpt>
      <trkpt lat="43.55199" lon="2.79196">
        <ele>976.3</ele>
        <time>2021-06-30T16:45:01.999+02:00</time>
      </trkpt>
      <trkpt lat="43.552" lon="2.79196">
        <ele>976.3</ele>
        <time>2021-06-30T16:45:02.999+02:00</time>
      </trkpt>
      <trkpt lat="43.552" lon="2.79196">
        <ele>976.3</ele>
        <time>2021-06-30T16:45:03.999+02:00</time>
      </trkpt>
      <trkpt lat="43.552" lon="2.79196">
        <ele>976.3</ele>
        <time>2021-06-30T16:45:04.999+02:00</time>
      </trkpt>
      <trkpt lat="43.552" lon="2.79196">
        <ele>976.3</ele>
        <time>2021-06-30T16:45:05.999+02:00</time>
      </trkpt>
      <trkpt lat="43.552" lon="2.79195">
        <ele>976.3</ele>
        <time>2021-06-30T16:45:06.999+02:00</time>
      </trkpt>
      <trkpt lat="43.552" lon="2.79195">
        <ele>976.3</ele>
        <time>2021-06-30T16:45:07.999+02:00</time>
      </trkpt>
      <trkpt lat="43.552" lon="2.79195">
        <ele>976.3</ele>
        <time>2021-06-30T16:45:08.999+02:00</time>
      </trkpt>
      <trkpt lat="43.552" lon="2.79195">
        <ele>976.3</ele>
        <time>2021-06-30T16:45:09.999+02:00</time>
      </trkpt>
      <trkpt lat="43.552" lon="2.79195">
        <ele>976.3</ele>
        <time>2021-06-30T16:45:10.999+02:00</time>
      </trkpt>
      <trkpt lat="43.552" lon="2.79195">
        <ele>976.3</ele>
        <time>2021-06-30T16:45:11.999+02:00</time>
      </trkpt>
      <trkpt lat="43.55201" lon="2.79195">
        <ele>976.3</ele>
        <time>2021-06-30T16:45:12.999+02:00</time>
      </trkpt>
      <trkpt lat="43.552" lon="2.79194">
        <ele>976.3</ele>
        <time>2021-06-30T16:45:13.999+02:00</time>
      </trkpt>
      <trkpt lat="43.552" lon="2.79193">
        <ele>976.4</ele>
        <time>2021-06-30T16:45:14.999+02:00</time>
      </trkpt>
      <trkpt lat="43.552" lon="2.79193">
        <ele>976.4</ele>
        <time>2021-06-30T16:45:15.999+02:00</time>
      </trkpt>
      <trkpt lat="43.552" lon="2.79193">
        <ele>976.4</ele>
        <time>2021-06-30T16:45:16.999+02:00</time>
      </trkpt>
      <trkpt lat="43.552" lon="2.79192">
        <ele>976.4</ele>
        <time>2021-06-30T16:45:17.999+02:00</time>
      </trkpt>
      <trkpt lat="43.552" lon="2.79192">
        <ele>976.4</ele>
        <time>2021-06-30T16:45:18.999+02:00</time>
      </trkpt>
      <trkpt lat="43.552" lon="2.79192">
        <ele>976.4</ele>
        <time>2021-06-30T16:45:19.999+02:00</time>
      </trkpt>
      <trkpt lat="43.552" lon="2.79191">
        <ele>976.5</ele>
        <time>2021-06-30T16:45:20.999+02:00</time>
      </trkpt>
      <trkpt lat="43.55201" lon="2.7919">
        <ele>976.5</ele>
        <time>2021-06-30T16:45:21.999+02:00</time>
      </trkpt>
      <trkpt lat="43.55201" lon="2.79189">
        <ele>976.5</ele>
        <time>2021-06-30T16:45:22.999+02:00</time>
      </trkpt>
      <trkpt lat="43.552" lon="2.79187">
        <ele>976.6</ele>
        <time>2021-06-30T16:45:23.999+02:00</time>
      </trkpt>
      <trkpt lat="43.55201" lon="2.79186">
        <ele>976.7</ele>
        <time>2021-06-30T16:45:24.999+02:00</time>
      </trkpt>
      <trkpt lat="43.552" lon="2.79184">
        <ele>976.7</ele>
        <time>2021-06-30T16:45:25.999+02:00</time>
      </trkpt>
      <trkpt lat="43.552" lon="2.79181">
        <ele>976.8</ele>
        <time>2021-06-30T16:45:26.999+02:00</time>
      </trkpt>
      <trkpt lat="43.552" lon="2.79179">
        <ele>976.9</ele>
        <time>2021-06-30T16:45:27.999+02:00</time>
      </trkpt>
      <trkpt lat="43.55201" lon="2.79177">
        <ele>977</ele>
        <time>2021-06-30T16:45:28.999+02:00</time>
      </trkpt>
      <trkpt lat="43.552" lon="2.79175">
        <ele>977.1</ele>
        <time>2021-06-30T16:45:29.999+02:00</time>
      </trkpt>
      <trkpt lat="43.55201" lon="2.79174">
        <ele>977.1</ele>
        <time>2021-06-30T16:45:30.999+02:00</time>
      </trkpt>
      <trkpt lat="43.55201" lon="2.79172">
        <ele>977.2</ele>
        <time>2021-06-30T16:45:31.999+02:00</time>
      </trkpt>
      <trkpt lat="43.55201" lon="2.7917">
        <ele>977.3</ele>
        <time>2021-06-30T16:45:32.999+02:00</time>
      </trkpt>
      <trkpt lat="43.55201" lon="2.79168">
        <ele>977.3</ele>
        <time>2021-06-30T16:45:33.999+02:00</time>
      </trkpt>
      <trkpt lat="43.55201" lon="2.79167">
        <ele>977.4</ele>
        <time>2021-06-30T16:45:34.999+02:00</time>
      </trkpt>
      <trkpt lat="43.55202" lon="2.79165">
        <ele>977.5</ele>
        <time>2021-06-30T16:45:35.999+02:00</time>
      </trkpt>
      <trkpt lat="43.55203" lon="2.79164">
        <ele>977.6</ele>
        <time>2021-06-30T16:45:36.999+02:00</time>
      </trkpt>
      <trkpt lat="43.55204" lon="2.79162">
        <ele>977.7</ele>
        <time>2021-06-30T16:45:37.999+02:00</time>
      </trkpt>
      <trkpt lat="43.55204" lon="2.79162">
        <ele>977.7</ele>
        <time>2021-06-30T16:45:38.999+02:00</time>
      </trkpt>
      <trkpt lat="43.55204" lon="2.79162">
        <ele>977.7</ele>
        <time>2021-06-30T16:45:39.999+02:00</time>
      </trkpt>
      <trkpt lat="43.55204" lon="2.7916">
        <ele>977.8</ele>
        <time>2021-06-30T16:45:40.999+02:00</time>
      </trkpt>
      <trkpt lat="43.55205" lon="2.79159">
        <ele>977.9</ele>
        <time>2021-06-30T16:45:41.999+02:00</time>
      </trkpt>
      <trkpt lat="43.55206" lon="2.79157">
        <ele>978</ele>
        <time>2021-06-30T16:45:42.999+02:00</time>
      </trkpt>
      <trkpt lat="43.55207" lon="2.79156">
        <ele>978.1</ele>
        <time>2021-06-30T16:45:43.999+02:00</time>
      </trkpt>
      <trkpt lat="43.55207" lon="2.79154">
        <ele>978.2</ele>
        <time>2021-06-30T16:45:44.999+02:00</time>
      </trkpt>
      <trkpt lat="43.55208" lon="2.79153">
        <ele>978.2</ele>
        <time>2021-06-30T16:45:45.999+02:00</time>
      </trkpt>
      <trkpt lat="43.55209" lon="2.79152">
        <ele>978.3</ele>
        <time>2021-06-30T16:45:46.999+02:00</time>
      </trkpt>
      <trkpt lat="43.5521" lon="2.7915">
        <ele>978.4</ele>
        <time>2021-06-30T16:45:47.999+02:00</time>
      </trkpt>
      <trkpt lat="43.55211" lon="2.79148">
        <ele>978.5</ele>
        <time>2021-06-30T16:45:48.999+02:00</time>
      </trkpt>
      <trkpt lat="43.55212" lon="2.79146">
        <ele>978.6</ele>
        <time>2021-06-30T16:45:49.999+02:00</time>
      </trkpt>
      <trkpt lat="43.55212" lon="2.79144">
        <ele>978.8</ele>
        <time>2021-06-30T16:45:50.999+02:00</time>
      </trkpt>
      <trkpt lat="43.55213" lon="2.79143">
        <ele>978.8</ele>
        <time>2021-06-30T16:45:51.999+02:00</time>
      </trkpt>
      <trkpt lat="43.55214" lon="2.79142">
        <ele>978.9</ele>
        <time>2021-06-30T16:45:52.999+02:00</time>
      </trkpt>
      <trkpt lat="43.55214" lon="2.79141">
        <ele>978.9</ele>
        <time>2021-06-30T16:45:53.999+02:00</time>
      </trkpt>
      <trkpt lat="43.55215" lon="2.79139">
        <ele>979</ele>
        <time>2021-06-30T16:45:54.999+02:00</time>
      </trkpt>
      <trkpt lat="43.55216" lon="2.79138">
        <ele>979.1</ele>
        <time>2021-06-30T16:45:55.999+02:00</time>
      </trkpt>
      <trkpt lat="43.55216" lon="2.79136">
        <ele>979.2</ele>
        <time>2021-06-30T16:45:56.999+02:00</time>
      </trkpt>
      <trkpt lat="43.55216" lon="2.79135">
        <ele>979.3</ele>
        <time>2021-06-30T16:45:57.999+02:00</time>
      </trkpt>
      <trkpt lat="43.55217" lon="2.79133">
        <ele>979.4</ele>
        <time>2021-06-30T16:45:58.999+02:00</time>
      </trkpt>
      <trkpt lat="43.55217" lon="2.79131">
        <ele>979.5</ele>
        <time>2021-06-30T16:45:59.999+02:00</time>
      </trkpt>
      <trkpt lat="43.55218" lon="2.7913">
        <ele>979.5</ele>
        <time>2021-06-30T16:46:00.999+02:00</time>
      </trkpt>
      <trkpt lat="43.55218" lon="2.79128">
        <ele>979.6</ele>
        <time>2021-06-30T16:46:01.999+02:00</time>
      </trkpt>
      <trkpt lat="43.55219" lon="2.79126">
        <ele>979.8</ele>
        <time>2021-06-30T16:46:02.999+02:00</time>
      </trkpt>
      <trkpt lat="43.5522" lon="2.79125">
        <ele>979.8</ele>
        <time>2021-06-30T16:46:03.999+02:00</time>
      </trkpt>
      <trkpt lat="43.55221" lon="2.79123">
        <ele>979.9</ele>
        <time>2021-06-30T16:46:04.999+02:00</time>
      </trkpt>
      <trkpt lat="43.55221" lon="2.79121">
        <ele>980</ele>
        <time>2021-06-30T16:46:05.999+02:00</time>
      </trkpt>
      <trkpt lat="43.55221" lon="2.79121">
        <ele>980.1</ele>
        <time>2021-06-30T16:46:06.999+02:00</time>
      </trkpt>
      <trkpt lat="43.55222" lon="2.79119">
        <ele>980.1</ele>
        <time>2021-06-30T16:46:07.999+02:00</time>
      </trkpt>
      <trkpt lat="43.55222" lon="2.79118">
        <ele>980.2</ele>
        <time>2021-06-30T16:46:08.999+02:00</time>
      </trkpt>
      <trkpt lat="43.55222" lon="2.79117">
        <ele>980.2</ele>
        <time>2021-06-30T16:46:09.999+02:00</time>
      </trkpt>
      <trkpt lat="43.55222" lon="2.79116">
        <ele>980.3</ele>
        <time>2021-06-30T16:46:10.999+02:00</time>
      </trkpt>
      <trkpt lat="43.55223" lon="2.79115">
        <ele>980.4</ele>
        <time>2021-06-30T16:46:11.999+02:00</time>
      </trkpt>
      <trkpt lat="43.55223" lon="2.79114">
        <ele>980.4</ele>
        <time>2021-06-30T16:46:12.999+02:00</time>
      </trkpt>
      <trkpt lat="43.55223" lon="2.79112">
        <ele>980.5</ele>
        <time>2021-06-30T16:46:13.999+02:00</time>
      </trkpt>
      <trkpt lat="43.55224" lon="2.79111">
        <ele>980.6</ele>
        <time>2021-06-30T16:46:14.999+02:00</time>
      </trkpt>
      <trkpt lat="43.55224" lon="2.79109">
        <ele>980.7</ele>
        <time>2021-06-30T16:46:15.999+02:00</time>
      </trkpt>
      <trkpt lat="43.55225" lon="2.79108">
        <ele>980.7</ele>
        <time>2021-06-30T16:46:16.999+02:00</time>
      </trkpt>
      <trkpt lat="43.55225" lon="2.79107">
        <ele>980.8</ele>
        <time>2021-06-30T16:46:17.999+02:00</time>
      </trkpt>
      <trkpt lat="43.55226" lon="2.79105">
        <ele>980.9</ele>
        <time>2021-06-30T16:46:18.999+02:00</time>
      </trkpt>
      <trkpt lat="43.55226" lon="2.79103">
        <ele>981</ele>
        <time>2021-06-30T16:46:19.999+02:00</time>
      </trkpt>
      <trkpt lat="43.55227" lon="2.79102">
        <ele>981.1</ele>
        <time>2021-06-30T16:46:20.999+02:00</time>
      </trkpt>
      <trkpt lat="43.55227" lon="2.79101">
        <ele>981.1</ele>
        <time>2021-06-30T16:46:21.999+02:00</time>
      </trkpt>
      <trkpt lat="43.55227" lon="2.791">
        <ele>981.1</ele>
        <time>2021-06-30T16:46:22.999+02:00</time>
      </trkpt>
      <trkpt lat="43.55228" lon="2.79099">
        <ele>981.2</ele>
        <time>2021-06-30T16:46:23.999+02:00</time>
      </trkpt>
      <trkpt lat="43.55229" lon="2.79098">
        <ele>981.3</ele>
        <time>2021-06-30T16:46:24.999+02:00</time>
      </trkpt>
      <trkpt lat="43.55229" lon="2.79096">
        <ele>981.3</ele>
        <time>2021-06-30T16:46:25.999+02:00</time>
      </trkpt>
      <trkpt lat="43.5523" lon="2.79095">
        <ele>981.4</ele>
        <time>2021-06-30T16:46:26.999+02:00</time>
      </trkpt>
      <trkpt lat="43.55232" lon="2.79094">
        <ele>981.5</ele>
        <time>2021-06-30T16:46:27.999+02:00</time>
      </trkpt>
      <trkpt lat="43.55232" lon="2.79092">
        <ele>981.5</ele>
        <time>2021-06-30T16:46:28.999+02:00</time>
      </trkpt>
      <trkpt lat="43.55233" lon="2.79091">
        <ele>981.6</ele>
        <time>2021-06-30T16:46:29.999+02:00</time>
      </trkpt>
      <trkpt lat="43.55234" lon="2.79089">
        <ele>981.7</ele>
        <time>2021-06-30T16:46:30.999+02:00</time>
      </trkpt>
      <trkpt lat="43.55235" lon="2.79088">
        <ele>981.8</ele>
        <time>2021-06-30T16:46:31.999+02:00</time>
      </trkpt>
      <trkpt lat="43.55235" lon="2.79087">
        <ele>981.8</ele>
        <time>2021-06-30T16:46:32.999+02:00</time>
      </trkpt>
      <trkpt lat="43.55235" lon="2.79086">
        <ele>981.9</ele>
        <time>2021-06-30T16:46:33.999+02:00</time>
      </trkpt>
      <trkpt lat="43.55237" lon="2.79084">
        <ele>982</ele>
        <time>2021-06-30T16:46:34.999+02:00</time>
      </trkpt>
      <trkpt lat="43.55237" lon="2.79083">
        <ele>982</ele>
        <time>2021-06-30T16:46:35.999+02:00</time>
      </trkpt>
      <trkpt lat="43.55238" lon="2.79081">
        <ele>982.2</ele>
        <time>2021-06-30T16:46:36.999+02:00</time>
      </trkpt>
      <trkpt lat="43.55238" lon="2.7908">
        <ele>982.2</ele>
        <time>2021-06-30T16:46:37.999+02:00</time>
      </trkpt>
      <trkpt lat="43.55238" lon="2.79078">
        <ele>982.3</ele>
        <time>2021-06-30T16:46:38.999+02:00</time>
      </trkpt>
      <trkpt lat="43.55238" lon="2.79078">
        <ele>982.4</ele>
        <time>2021-06-30T16:46:39.999+02:00</time>
      </trkpt>
      <trkpt lat="43.55239" lon="2.79077">
        <ele>982.5</ele>
        <time>2021-06-30T16:46:40.999+02:00</time>
      </trkpt>
      <trkpt lat="43.55239" lon="2.79074">
        <ele>982.6</ele>
        <time>2021-06-30T16:46:41.999+02:00</time>
      </trkpt>
      <trkpt lat="43.5524" lon="2.79072">
        <ele>982.7</ele>
        <time>2021-06-30T16:46:42.999+02:00</time>
      </trkpt>
      <trkpt lat="43.55241" lon="2.79071">
        <ele>982.8</ele>
        <time>2021-06-30T16:46:43.999+02:00</time>
      </trkpt>
      <trkpt lat="43.55241" lon="2.79069">
        <ele>983</ele>
        <time>2021-06-30T16:46:44.999+02:00</time>
      </trkpt>
      <trkpt lat="43.55242" lon="2.79068">
        <ele>983</ele>
        <time>2021-06-30T16:46:45.999+02:00</time>
      </trkpt>
      <trkpt lat="43.55242" lon="2.79067">
        <ele>983.1</ele>
        <time>2021-06-30T16:46:46.999+02:00</time>
      </trkpt>
      <trkpt lat="43.55242" lon="2.79065">
        <ele>983.2</ele>
        <time>2021-06-30T16:46:47.999+02:00</time>
      </trkpt>
      <trkpt lat="43.55242" lon="2.79064">
        <ele>983.3</ele>
        <time>2021-06-30T16:46:48.999+02:00</time>
      </trkpt>
      <trkpt lat="43.55242" lon="2.79062">
        <ele>983.4</ele>
        <time>2021-06-30T16:46:49.999+02:00</time>
      </trkpt>
      <trkpt lat="43.55242" lon="2.7906">
        <ele>983.5</ele>
        <time>2021-06-30T16:46:50.999+02:00</time>
      </trkpt>
      <trkpt lat="43.55242" lon="2.7906">
        <ele>983.6</ele>
        <time>2021-06-30T16:46:51.999+02:00</time>
      </trkpt>
      <trkpt lat="43.55242" lon="2.79059">
        <ele>983.6</ele>
        <time>2021-06-30T16:46:52.999+02:00</time>
      </trkpt>
      <trkpt lat="43.55242" lon="2.79056">
        <ele>983.8</ele>
        <time>2021-06-30T16:46:53.999+02:00</time>
      </trkpt>
      <trkpt lat="43.55242" lon="2.79055">
        <ele>983.9</ele>
        <time>2021-06-30T16:46:54.999+02:00</time>
      </trkpt>
      <trkpt lat="43.55242" lon="2.79053">
        <ele>984</ele>
        <time>2021-06-30T16:46:55.999+02:00</time>
      </trkpt>
      <trkpt lat="43.55242" lon="2.79051">
        <ele>984.1</ele>
        <time>2021-06-30T16:46:56.999+02:00</time>
      </trkpt>
      <trkpt lat="43.55242" lon="2.7905">
        <ele>984.2</ele>
        <time>2021-06-30T16:46:57.999+02:00</time>
      </trkpt>
      <trkpt lat="43.55242" lon="2.79048">
        <ele>984.3</ele>
        <time>2021-06-30T16:46:58.999+02:00</time>
      </trkpt>
      <trkpt lat="43.55242" lon="2.79048">
        <ele>984.3</ele>
        <time>2021-06-30T16:46:59.999+02:00</time>
      </trkpt>
      <trkpt lat="43.55242" lon="2.79047">
        <ele>984.4</ele>
        <time>2021-06-30T16:47:00.999+02:00</time>
      </trkpt>
      <trkpt lat="43.55243" lon="2.79046">
        <ele>984.4</ele>
        <time>2021-06-30T16:47:01.999+02:00</time>
      </trkpt>
      <trkpt lat="43.55243" lon="2.79045">
        <ele>984.5</ele>
        <time>2021-06-30T16:47:02.999+02:00</time>
      </trkpt>
      <trkpt lat="43.55243" lon="2.79044">
        <ele>984.6</ele>
        <time>2021-06-30T16:47:03.999+02:00</time>
      </trkpt>
      <trkpt lat="43.55244" lon="2.79042">
        <ele>984.7</ele>
        <time>2021-06-30T16:47:04.999+02:00</time>
      </trkpt>
      <trkpt lat="43.55244" lon="2.79041">
        <ele>984.7</ele>
        <time>2021-06-30T16:47:05.999+02:00</time>
      </trkpt>
      <trkpt lat="43.55245" lon="2.7904">
        <ele>984.7</ele>
        <time>2021-06-30T16:47:06.999+02:00</time>
      </trkpt>
      <trkpt lat="43.55245" lon="2.7904">
        <ele>984.8</ele>
        <time>2021-06-30T16:47:07.999+02:00</time>
      </trkpt>
      <trkpt lat="43.55246" lon="2.79038">
        <ele>984.8</ele>
        <time>2021-06-30T16:47:08.999+02:00</time>
      </trkpt>
      <trkpt lat="43.55247" lon="2.79037">
        <ele>984.9</ele>
        <time>2021-06-30T16:47:09.999+02:00</time>
      </trkpt>
      <trkpt lat="43.55247" lon="2.79035">
        <ele>985</ele>
        <time>2021-06-30T16:47:10.999+02:00</time>
      </trkpt>
      <trkpt lat="43.55248" lon="2.79034">
        <ele>985.1</ele>
        <time>2021-06-30T16:47:11.999+02:00</time>
      </trkpt>
      <trkpt lat="43.55248" lon="2.79032">
        <ele>985.1</ele>
        <time>2021-06-30T16:47:12.999+02:00</time>
      </trkpt>
      <trkpt lat="43.55248" lon="2.79031">
        <ele>985.2</ele>
        <time>2021-06-30T16:47:13.999+02:00</time>
      </trkpt>
      <trkpt lat="43.55249" lon="2.79029">
        <ele>985.3</ele>
        <time>2021-06-30T16:47:14.999+02:00</time>
      </trkpt>
      <trkpt lat="43.5525" lon="2.79028">
        <ele>985.3</ele>
        <time>2021-06-30T16:47:15.999+02:00</time>
      </trkpt>
      <trkpt lat="43.5525" lon="2.79026">
        <ele>985.4</ele>
        <time>2021-06-30T16:47:16.999+02:00</time>
      </trkpt>
      <trkpt lat="43.55251" lon="2.79024">
        <ele>985.5</ele>
        <time>2021-06-30T16:47:17.999+02:00</time>
      </trkpt>
      <trkpt lat="43.55251" lon="2.79024">
        <ele>985.5</ele>
        <time>2021-06-30T16:47:18.999+02:00</time>
      </trkpt>
      <trkpt lat="43.55251" lon="2.79022">
        <ele>985.5</ele>
        <time>2021-06-30T16:47:19.999+02:00</time>
      </trkpt>
      <trkpt lat="43.55252" lon="2.79021">
        <ele>985.6</ele>
        <time>2021-06-30T16:47:20.999+02:00</time>
      </trkpt>
      <trkpt lat="43.55252" lon="2.79019">
        <ele>985.6</ele>
        <time>2021-06-30T16:47:21.999+02:00</time>
      </trkpt>
      <trkpt lat="43.55253" lon="2.79018">
        <ele>985.6</ele>
        <time>2021-06-30T16:47:22.999+02:00</time>
      </trkpt>
      <trkpt lat="43.55253" lon="2.79017">
        <ele>985.6</ele>
        <time>2021-06-30T16:47:23.999+02:00</time>
      </trkpt>
      <trkpt lat="43.55254" lon="2.79016">
        <ele>985.6</ele>
        <time>2021-06-30T16:47:24.999+02:00</time>
      </trkpt>
      <trkpt lat="43.55255" lon="2.79015">
        <ele>985.6</ele>
        <time>2021-06-30T16:47:25.999+02:00</time>
      </trkpt>
      <trkpt lat="43.55255" lon="2.79014">
        <ele>985.6</ele>
        <time>2021-06-30T16:47:26.999+02:00</time>
      </trkpt>
      <trkpt lat="43.55256" lon="2.79013">
        <ele>985.6</ele>
        <time>2021-06-30T16:47:27.999+02:00</time>
      </trkpt>
      <trkpt lat="43.55256" lon="2.79012">
        <ele>985.6</ele>
        <time>2021-06-30T16:47:28.999+02:00</time>
      </trkpt>
      <trkpt lat="43.55256" lon="2.79012">
        <ele>985.6</ele>
        <time>2021-06-30T16:47:29.999+02:00</time>
      </trkpt>
      <trkpt lat="43.55257" lon="2.79011">
        <ele>985.6</ele>
        <time>2021-06-30T16:47:30.999+02:00</time>
      </trkpt>
      <trkpt lat="43.55258" lon="2.79009">
        <ele>985.6</ele>
        <time>2021-06-30T16:47:31.999+02:00</time>
      </trkpt>
      <trkpt lat="43.55258" lon="2.79008">
        <ele>985.7</ele>
        <time>2021-06-30T16:47:32.999+02:00</time>
      </trkpt>
      <trkpt lat="43.55259" lon="2.79007">
        <ele>985.7</ele>
        <time>2021-06-30T16:47:33.999+02:00</time>
      </trkpt>
      <trkpt lat="43.55259" lon="2.79006">
        <ele>985.7</ele>
        <time>2021-06-30T16:47:34.999+02:00</time>
      </trkpt>
      <trkpt lat="43.5526" lon="2.79005">
        <ele>985.7</ele>
        <time>2021-06-30T16:47:35.999+02:00</time>
      </trkpt>
      <trkpt lat="43.55261" lon="2.79004">
        <ele>985.6</ele>
        <time>2021-06-30T16:47:36.999+02:00</time>
      </trkpt>
      <trkpt lat="43.55261" lon="2.79002">
        <ele>985.7</ele>
        <time>2021-06-30T16:47:37.999+02:00</time>
      </trkpt>
      <trkpt lat="43.55261" lon="2.79001">
        <ele>985.7</ele>
        <time>2021-06-30T16:47:38.999+02:00</time>
      </trkpt>
      <trkpt lat="43.55261" lon="2.79">
        <ele>985.8</ele>
        <time>2021-06-30T16:47:39.999+02:00</time>
      </trkpt>
      <trkpt lat="43.55262" lon="2.78998">
        <ele>985.9</ele>
        <time>2021-06-30T16:47:40.999+02:00</time>
      </trkpt>
      <trkpt lat="43.55263" lon="2.78997">
        <ele>986.1</ele>
        <time>2021-06-30T16:47:41.999+02:00</time>
      </trkpt>
      <trkpt lat="43.55263" lon="2.78995">
        <ele>986.2</ele>
        <time>2021-06-30T16:47:42.999+02:00</time>
      </trkpt>
      <trkpt lat="43.55264" lon="2.78994">
        <ele>986.3</ele>
        <time>2021-06-30T16:47:43.999+02:00</time>
      </trkpt>
      <trkpt lat="43.55264" lon="2.78993">
        <ele>986.4</ele>
        <time>2021-06-30T16:47:44.999+02:00</time>
      </trkpt>
      <trkpt lat="43.55264" lon="2.78991">
        <ele>986.7</ele>
        <time>2021-06-30T16:47:45.999+02:00</time>
      </trkpt>
      <trkpt lat="43.55265" lon="2.78989">
        <ele>986.9</ele>
        <time>2021-06-30T16:47:46.999+02:00</time>
      </trkpt>
      <trkpt lat="43.55265" lon="2.78987">
        <ele>987.1</ele>
        <time>2021-06-30T16:47:47.999+02:00</time>
      </trkpt>
      <trkpt lat="43.55264" lon="2.78986">
        <ele>987.4</ele>
        <time>2021-06-30T16:47:48.999+02:00</time>
      </trkpt>
      <trkpt lat="43.55264" lon="2.78984">
        <ele>987.7</ele>
        <time>2021-06-30T16:47:49.999+02:00</time>
      </trkpt>
      <trkpt lat="43.55265" lon="2.78982">
        <ele>987.8</ele>
        <time>2021-06-30T16:47:50.999+02:00</time>
      </trkpt>
      <trkpt lat="43.55265" lon="2.78981">
        <ele>987.9</ele>
        <time>2021-06-30T16:47:51.999+02:00</time>
      </trkpt>
      <trkpt lat="43.55266" lon="2.78979">
        <ele>988.2</ele>
        <time>2021-06-30T16:47:52.999+02:00</time>
      </trkpt>
      <trkpt lat="43.55266" lon="2.78977">
        <ele>988.3</ele>
        <time>2021-06-30T16:47:53.999+02:00</time>
      </trkpt>
      <trkpt lat="43.55266" lon="2.78977">
        <ele>988.4</ele>
        <time>2021-06-30T16:47:54.999+02:00</time>
      </trkpt>
      <trkpt lat="43.55266" lon="2.78975">
        <ele>988.6</ele>
        <time>2021-06-30T16:47:55.999+02:00</time>
      </trkpt>
      <trkpt lat="43.55266" lon="2.78974">
        <ele>988.7</ele>
        <time>2021-06-30T16:47:56.999+02:00</time>
      </trkpt>
      <trkpt lat="43.55267" lon="2.78974">
        <ele>988.7</ele>
        <time>2021-06-30T16:47:57.999+02:00</time>
      </trkpt>
      <trkpt lat="43.55267" lon="2.78972">
        <ele>988.9</ele>
        <time>2021-06-30T16:47:58.999+02:00</time>
      </trkpt>
      <trkpt lat="43.55268" lon="2.78971">
        <ele>989</ele>
        <time>2021-06-30T16:47:59.999+02:00</time>
      </trkpt>
      <trkpt lat="43.55269" lon="2.7897">
        <ele>989</ele>
        <time>2021-06-30T16:48:00.999+02:00</time>
      </trkpt>
      <trkpt lat="43.55269" lon="2.78969">
        <ele>989.1</ele>
        <time>2021-06-30T16:48:01.999+02:00</time>
      </trkpt>
      <trkpt lat="43.55269" lon="2.78968">
        <ele>989.2</ele>
        <time>2021-06-30T16:48:02.999+02:00</time>
      </trkpt>
      <trkpt lat="43.55269" lon="2.78966">
        <ele>989.5</ele>
        <time>2021-06-30T16:48:03.999+02:00</time>
      </trkpt>
      <trkpt lat="43.5527" lon="2.78965">
        <ele>989.5</ele>
        <time>2021-06-30T16:48:04.999+02:00</time>
      </trkpt>
      <trkpt lat="43.5527" lon="2.78964">
        <ele>989.7</ele>
        <time>2021-06-30T16:48:05.999+02:00</time>
      </trkpt>
      <trkpt lat="43.5527" lon="2.78962">
        <ele>989.9</ele>
        <time>2021-06-30T16:48:06.999+02:00</time>
      </trkpt>
      <trkpt lat="43.5527" lon="2.7896">
        <ele>990.1</ele>
        <time>2021-06-30T16:48:07.999+02:00</time>
      </trkpt>
      <trkpt lat="43.5527" lon="2.78959">
        <ele>990.2</ele>
        <time>2021-06-30T16:48:08.999+02:00</time>
      </trkpt>
      <trkpt lat="43.5527" lon="2.78958">
        <ele>990.3</ele>
        <time>2021-06-30T16:48:09.999+02:00</time>
      </trkpt>
      <trkpt lat="43.55271" lon="2.78958">
        <ele>990.3</ele>
        <time>2021-06-30T16:48:10.999+02:00</time>
      </trkpt>
      <trkpt lat="43.55271" lon="2.78957">
        <ele>990.4</ele>
        <time>2021-06-30T16:48:11.999+02:00</time>
      </trkpt>
      <trkpt lat="43.55271" lon="2.78956">
        <ele>990.6</ele>
        <time>2021-06-30T16:48:12.999+02:00</time>
      </trkpt>
      <trkpt lat="43.55271" lon="2.78954">
        <ele>990.8</ele>
        <time>2021-06-30T16:48:13.999+02:00</time>
      </trkpt>
      <trkpt lat="43.55271" lon="2.78953">
        <ele>991</ele>
        <time>2021-06-30T16:48:14.999+02:00</time>
      </trkpt>
      <trkpt lat="43.55271" lon="2.78952">
        <ele>991.2</ele>
        <time>2021-06-30T16:48:15.999+02:00</time>
      </trkpt>
      <trkpt lat="43.55271" lon="2.7895">
        <ele>991.3</ele>
        <time>2021-06-30T16:48:16.999+02:00</time>
      </trkpt>
      <trkpt lat="43.55271" lon="2.78949">
        <ele>991.4</ele>
        <time>2021-06-30T16:48:17.999+02:00</time>
      </trkpt>
      <trkpt lat="43.55271" lon="2.78948">
        <ele>991.6</ele>
        <time>2021-06-30T16:48:18.999+02:00</time>
      </trkpt>
      <trkpt lat="43.55271" lon="2.78946">
        <ele>991.8</ele>
        <time>2021-06-30T16:48:19.999+02:00</time>
      </trkpt>
      <trkpt lat="43.55271" lon="2.78946">
        <ele>991.9</ele>
        <time>2021-06-30T16:48:20.999+02:00</time>
      </trkpt>
      <trkpt lat="43.55271" lon="2.78945">
        <ele>992</ele>
        <time>2021-06-30T16:48:21.999+02:00</time>
      </trkpt>
      <trkpt lat="43.55272" lon="2.78943">
        <ele>992.2</ele>
        <time>2021-06-30T16:48:22.999+02:00</time>
      </trkpt>
      <trkpt lat="43.55273" lon="2.78941">
        <ele>992.3</ele>
        <time>2021-06-30T16:48:23.999+02:00</time>
      </trkpt>
      <trkpt lat="43.55273" lon="2.7894">
        <ele>992.4</ele>
        <time>2021-06-30T16:48:24.999+02:00</time>
      </trkpt>
      <trkpt lat="43.55274" lon="2.78939">
        <ele>992.5</ele>
        <time>2021-06-30T16:48:25.999+02:00</time>
      </trkpt>
      <trkpt lat="43.55274" lon="2.78938">
        <ele>992.5</ele>
        <time>2021-06-30T16:48:26.999+02:00</time>
      </trkpt>
      <trkpt lat="43.55275" lon="2.78938">
        <ele>992.4</ele>
        <time>2021-06-30T16:48:27.999+02:00</time>
      </trkpt>
      <trkpt lat="43.55276" lon="2.78937">
        <ele>992.4</ele>
        <time>2021-06-30T16:48:28.999+02:00</time>
      </trkpt>
      <trkpt lat="43.55276" lon="2.78936">
        <ele>992.5</ele>
        <time>2021-06-30T16:48:29.999+02:00</time>
      </trkpt>
      <trkpt lat="43.55277" lon="2.78934">
        <ele>992.5</ele>
        <time>2021-06-30T16:48:30.999+02:00</time>
      </trkpt>
      <trkpt lat="43.55279" lon="2.7893">
        <ele>992.8</ele>
        <time>2021-06-30T16:48:31.999+02:00</time>
      </trkpt>
      <trkpt lat="43.5528" lon="2.78929">
        <ele>992.8</ele>
        <time>2021-06-30T16:48:32.999+02:00</time>
      </trkpt>
      <trkpt lat="43.5528" lon="2.78929">
        <ele>992.8</ele>
        <time>2021-06-30T16:48:33.999+02:00</time>
      </trkpt>
      <trkpt lat="43.5528" lon="2.78928">
        <ele>992.8</ele>
        <time>2021-06-30T16:48:34.999+02:00</time>
      </trkpt>
      <trkpt lat="43.5528" lon="2.78927">
        <ele>993</ele>
        <time>2021-06-30T16:48:35.999+02:00</time>
      </trkpt>
      <trkpt lat="43.55281" lon="2.78925">
        <ele>993</ele>
        <time>2021-06-30T16:48:36.999+02:00</time>
      </trkpt>
      <trkpt lat="43.55282" lon="2.78926">
        <ele>992.8</ele>
        <time>2021-06-30T16:48:37.999+02:00</time>
      </trkpt>
      <trkpt lat="43.55283" lon="2.78925">
        <ele>992.8</ele>
        <time>2021-06-30T16:48:38.999+02:00</time>
      </trkpt>
      <trkpt lat="43.55284" lon="2.78925">
        <ele>992.8</ele>
        <time>2021-06-30T16:48:39.999+02:00</time>
      </trkpt>
      <trkpt lat="43.55284" lon="2.78924">
        <ele>992.7</ele>
        <time>2021-06-30T16:48:40.999+02:00</time>
      </trkpt>
      <trkpt lat="43.55285" lon="2.78924">
        <ele>992.7</ele>
        <time>2021-06-30T16:48:41.999+02:00</time>
      </trkpt>
      <trkpt lat="43.55286" lon="2.78922">
        <ele>992.8</ele>
        <time>2021-06-30T16:48:42.999+02:00</time>
      </trkpt>
      <trkpt lat="43.55285" lon="2.78921">
        <ele>992.9</ele>
        <time>2021-06-30T16:48:43.999+02:00</time>
      </trkpt>
      <trkpt lat="43.55286" lon="2.78921">
        <ele>992.9</ele>
        <time>2021-06-30T16:48:44.999+02:00</time>
      </trkpt>
      <trkpt lat="43.55287" lon="2.78919">
        <ele>992.9</ele>
        <time>2021-06-30T16:48:45.999+02:00</time>
      </trkpt>
      <trkpt lat="43.55288" lon="2.78919">
        <ele>992.9</ele>
        <time>2021-06-30T16:48:46.999+02:00</time>
      </trkpt>
      <trkpt lat="43.55287" lon="2.78917">
        <ele>993.1</ele>
        <time>2021-06-30T16:48:47.999+02:00</time>
      </trkpt>
      <trkpt lat="43.55288" lon="2.78916">
        <ele>993.1</ele>
        <time>2021-06-30T16:48:48.999+02:00</time>
      </trkpt>
      <trkpt lat="43.55288" lon="2.78915">
        <ele>993.1</ele>
        <time>2021-06-30T16:48:49.999+02:00</time>
      </trkpt>
      <trkpt lat="43.55288" lon="2.78912">
        <ele>993.2</ele>
        <time>2021-06-30T16:48:50.999+02:00</time>
      </trkpt>
      <trkpt lat="43.55288" lon="2.78911">
        <ele>993.2</ele>
        <time>2021-06-30T16:48:51.999+02:00</time>
      </trkpt>
      <trkpt lat="43.55288" lon="2.78909">
        <ele>993.3</ele>
        <time>2021-06-30T16:48:52.999+02:00</time>
      </trkpt>
      <trkpt lat="43.55288" lon="2.78907">
        <ele>993.4</ele>
        <time>2021-06-30T16:48:53.999+02:00</time>
      </trkpt>
      <trkpt lat="43.55288" lon="2.78905">
        <ele>993.5</ele>
        <time>2021-06-30T16:48:54.999+02:00</time>
      </trkpt>
      <trkpt lat="43.55288" lon="2.78904">
        <ele>993.6</ele>
        <time>2021-06-30T16:48:55.999+02:00</time>
      </trkpt>
      <trkpt lat="43.55288" lon="2.78902">
        <ele>993.6</ele>
        <time>2021-06-30T16:48:56.999+02:00</time>
      </trkpt>
      <trkpt lat="43.55288" lon="2.789">
        <ele>993.6</ele>
        <time>2021-06-30T16:48:57.999+02:00</time>
      </trkpt>
      <trkpt lat="43.55288" lon="2.78898">
        <ele>993.8</ele>
        <time>2021-06-30T16:48:58.999+02:00</time>
      </trkpt>
      <trkpt lat="43.55288" lon="2.78897">
        <ele>993.8</ele>
        <time>2021-06-30T16:48:59.999+02:00</time>
      </trkpt>
      <trkpt lat="43.55288" lon="2.78895">
        <ele>993.9</ele>
        <time>2021-06-30T16:49:00.999+02:00</time>
      </trkpt>
      <trkpt lat="43.55288" lon="2.78894">
        <ele>993.9</ele>
        <time>2021-06-30T16:49:01.999+02:00</time>
      </trkpt>
      <trkpt lat="43.55288" lon="2.78893">
        <ele>993.9</ele>
        <time>2021-06-30T16:49:02.999+02:00</time>
      </trkpt>
      <trkpt lat="43.55289" lon="2.78893">
        <ele>993.8</ele>
        <time>2021-06-30T16:49:03.999+02:00</time>
      </trkpt>
      <trkpt lat="43.55289" lon="2.78893">
        <ele>993.7</ele>
        <time>2021-06-30T16:49:04.999+02:00</time>
      </trkpt>
      <trkpt lat="43.55289" lon="2.78892">
        <ele>993.7</ele>
        <time>2021-06-30T16:49:05.999+02:00</time>
      </trkpt>
      <trkpt lat="43.5529" lon="2.78891">
        <ele>993.7</ele>
        <time>2021-06-30T16:49:06.999+02:00</time>
      </trkpt>
      <trkpt lat="43.5529" lon="2.78889">
        <ele>993.8</ele>
        <time>2021-06-30T16:49:07.999+02:00</time>
      </trkpt>
      <trkpt lat="43.5529" lon="2.78889">
        <ele>993.8</ele>
        <time>2021-06-30T16:49:08.999+02:00</time>
      </trkpt>
      <trkpt lat="43.5529" lon="2.78887">
        <ele>993.8</ele>
        <time>2021-06-30T16:49:09.999+02:00</time>
      </trkpt>
      <trkpt lat="43.55289" lon="2.78886">
        <ele>993.9</ele>
        <time>2021-06-30T16:49:10.999+02:00</time>
      </trkpt>
      <trkpt lat="43.5529" lon="2.78885">
        <ele>993.9</ele>
        <time>2021-06-30T16:49:11.999+02:00</time>
      </trkpt>
      <trkpt lat="43.5529" lon="2.78885">
        <ele>993.8</ele>
        <time>2021-06-30T16:49:12.999+02:00</time>
      </trkpt>
      <trkpt lat="43.55291" lon="2.78884">
        <ele>993.8</ele>
        <time>2021-06-30T16:49:13.999+02:00</time>
      </trkpt>
      <trkpt lat="43.55291" lon="2.78881">
        <ele>993.8</ele>
        <time>2021-06-30T16:49:14.999+02:00</time>
      </trkpt>
      <trkpt lat="43.55292" lon="2.78879">
        <ele>993.9</ele>
        <time>2021-06-30T16:49:15.999+02:00</time>
      </trkpt>
      <trkpt lat="43.55292" lon="2.78878">
        <ele>993.8</ele>
        <time>2021-06-30T16:49:16.999+02:00</time>
      </trkpt>
      <trkpt lat="43.55292" lon="2.78875">
        <ele>993.9</ele>
        <time>2021-06-30T16:49:17.999+02:00</time>
      </trkpt>
      <trkpt lat="43.55292" lon="2.78873">
        <ele>994</ele>
        <time>2021-06-30T16:49:18.999+02:00</time>
      </trkpt>
      <trkpt lat="43.55293" lon="2.78871">
        <ele>994</ele>
        <time>2021-06-30T16:49:19.999+02:00</time>
      </trkpt>
      <trkpt lat="43.55294" lon="2.78869">
        <ele>993.9</ele>
        <time>2021-06-30T16:49:20.999+02:00</time>
      </trkpt>
      <trkpt lat="43.55294" lon="2.78867">
        <ele>993.9</ele>
        <time>2021-06-30T16:49:21.999+02:00</time>
      </trkpt>
      <trkpt lat="43.55295" lon="2.78866">
        <ele>993.9</ele>
        <time>2021-06-30T16:49:22.999+02:00</time>
      </trkpt>
      <trkpt lat="43.55296" lon="2.78865">
        <ele>993.8</ele>
        <time>2021-06-30T16:49:23.999+02:00</time>
      </trkpt>
      <trkpt lat="43.55296" lon="2.78863">
        <ele>993.8</ele>
        <time>2021-06-30T16:49:24.999+02:00</time>
      </trkpt>
      <trkpt lat="43.55297" lon="2.78862">
        <ele>993.8</ele>
        <time>2021-06-30T16:49:25.999+02:00</time>
      </trkpt>
      <trkpt lat="43.55297" lon="2.78861">
        <ele>993.8</ele>
        <time>2021-06-30T16:49:26.999+02:00</time>
      </trkpt>
      <trkpt lat="43.55297" lon="2.78859">
        <ele>993.8</ele>
        <time>2021-06-30T16:49:27.999+02:00</time>
      </trkpt>
      <trkpt lat="43.55298" lon="2.78858">
        <ele>993.8</ele>
        <time>2021-06-30T16:49:28.999+02:00</time>
      </trkpt>
      <trkpt lat="43.55298" lon="2.78855">
        <ele>993.8</ele>
        <time>2021-06-30T16:49:29.999+02:00</time>
      </trkpt>
      <trkpt lat="43.55298" lon="2.78854">
        <ele>993.9</ele>
        <time>2021-06-30T16:49:30.999+02:00</time>
      </trkpt>
      <trkpt lat="43.55298" lon="2.78853">
        <ele>993.9</ele>
        <time>2021-06-30T16:49:31.999+02:00</time>
      </trkpt>
      <trkpt lat="43.55299" lon="2.78852">
        <ele>993.9</ele>
        <time>2021-06-30T16:49:32.999+02:00</time>
      </trkpt>
      <trkpt lat="43.55299" lon="2.78851">
        <ele>993.9</ele>
        <time>2021-06-30T16:49:33.999+02:00</time>
      </trkpt>
      <trkpt lat="43.55299" lon="2.78849">
        <ele>993.9</ele>
        <time>2021-06-30T16:49:34.999+02:00</time>
      </trkpt>
      <trkpt lat="43.553" lon="2.78847">
        <ele>993.9</ele>
        <time>2021-06-30T16:49:35.999+02:00</time>
      </trkpt>
      <trkpt lat="43.553" lon="2.78847">
        <ele>993.9</ele>
        <time>2021-06-30T16:49:36.999+02:00</time>
      </trkpt>
      <trkpt lat="43.553" lon="2.78845">
        <ele>993.9</ele>
        <time>2021-06-30T16:49:37.999+02:00</time>
      </trkpt>
      <trkpt lat="43.55301" lon="2.78844">
        <ele>993.9</ele>
        <time>2021-06-30T16:49:38.999+02:00</time>
      </trkpt>
      <trkpt lat="43.55302" lon="2.78842">
        <ele>993.8</ele>
        <time>2021-06-30T16:49:39.999+02:00</time>
      </trkpt>
      <trkpt lat="43.55302" lon="2.78841">
        <ele>993.8</ele>
        <time>2021-06-30T16:49:40.999+02:00</time>
      </trkpt>
      <trkpt lat="43.55302" lon="2.7884">
        <ele>993.8</ele>
        <time>2021-06-30T16:49:41.999+02:00</time>
      </trkpt>
      <trkpt lat="43.55302" lon="2.78839">
        <ele>993.9</ele>
        <time>2021-06-30T16:49:42.999+02:00</time>
      </trkpt>
      <trkpt lat="43.55303" lon="2.78838">
        <ele>993.8</ele>
        <time>2021-06-30T16:49:43.999+02:00</time>
      </trkpt>
      <trkpt lat="43.55303" lon="2.78836">
        <ele>993.8</ele>
        <time>2021-06-30T16:49:44.999+02:00</time>
      </trkpt>
      <trkpt lat="43.55304" lon="2.78835">
        <ele>993.8</ele>
        <time>2021-06-30T16:49:45.999+02:00</time>
      </trkpt>
      <trkpt lat="43.55305" lon="2.78834">
        <ele>993.7</ele>
        <time>2021-06-30T16:49:46.999+02:00</time>
      </trkpt>
      <trkpt lat="43.55306" lon="2.78833">
        <ele>993.6</ele>
        <time>2021-06-30T16:49:47.999+02:00</time>
      </trkpt>
      <trkpt lat="43.55306" lon="2.78833">
        <ele>993.6</ele>
        <time>2021-06-30T16:49:48.999+02:00</time>
      </trkpt>
      <trkpt lat="43.55307" lon="2.78832">
        <ele>993.5</ele>
        <time>2021-06-30T16:49:49.999+02:00</time>
      </trkpt>
      <trkpt lat="43.55307" lon="2.78831">
        <ele>993.5</ele>
        <time>2021-06-30T16:49:50.999+02:00</time>
      </trkpt>
      <trkpt lat="43.55307" lon="2.78829">
        <ele>993.5</ele>
        <time>2021-06-30T16:49:51.999+02:00</time>
      </trkpt>
      <trkpt lat="43.55308" lon="2.78828">
        <ele>993.4</ele>
        <time>2021-06-30T16:49:52.999+02:00</time>
      </trkpt>
      <trkpt lat="43.55309" lon="2.78827">
        <ele>993.3</ele>
        <time>2021-06-30T16:49:53.999+02:00</time>
      </trkpt>
      <trkpt lat="43.55309" lon="2.78826">
        <ele>993.3</ele>
        <time>2021-06-30T16:49:54.999+02:00</time>
      </trkpt>
      <trkpt lat="43.55309" lon="2.78824">
        <ele>993.4</ele>
        <time>2021-06-30T16:49:55.999+02:00</time>
      </trkpt>
      <trkpt lat="43.55309" lon="2.78823">
        <ele>993.4</ele>
        <time>2021-06-30T16:49:56.999+02:00</time>
      </trkpt>
      <trkpt lat="43.5531" lon="2.78821">
        <ele>993.3</ele>
        <time>2021-06-30T16:49:57.999+02:00</time>
      </trkpt>
      <trkpt lat="43.55312" lon="2.78819">
        <ele>993.2</ele>
        <time>2021-06-30T16:49:58.999+02:00</time>
      </trkpt>
      <trkpt lat="43.55313" lon="2.78818">
        <ele>993</ele>
        <time>2021-06-30T16:49:59.999+02:00</time>
      </trkpt>
      <trkpt lat="43.55314" lon="2.78817">
        <ele>992.9</ele>
        <time>2021-06-30T16:50:00.999+02:00</time>
      </trkpt>
      <trkpt lat="43.55315" lon="2.78816">
        <ele>992.8</ele>
        <time>2021-06-30T16:50:01.999+02:00</time>
      </trkpt>
      <trkpt lat="43.55316" lon="2.78815">
        <ele>992.7</ele>
        <time>2021-06-30T16:50:02.999+02:00</time>
      </trkpt>
      <trkpt lat="43.55317" lon="2.78814">
        <ele>992.6</ele>
        <time>2021-06-30T16:50:03.999+02:00</time>
      </trkpt>
      <trkpt lat="43.55319" lon="2.78812">
        <ele>992.5</ele>
        <time>2021-06-30T16:50:04.999+02:00</time>
      </trkpt>
      <trkpt lat="43.5532" lon="2.78811">
        <ele>992.3</ele>
        <time>2021-06-30T16:50:05.999+02:00</time>
      </trkpt>
      <trkpt lat="43.55321" lon="2.7881">
        <ele>992.2</ele>
        <time>2021-06-30T16:50:06.999+02:00</time>
      </trkpt>
      <trkpt lat="43.55322" lon="2.78809">
        <ele>992.2</ele>
        <time>2021-06-30T16:50:07.999+02:00</time>
      </trkpt>
      <trkpt lat="43.55323" lon="2.78807">
        <ele>992.1</ele>
        <time>2021-06-30T16:50:08.999+02:00</time>
      </trkpt>
      <trkpt lat="43.55323" lon="2.78807">
        <ele>992.1</ele>
        <time>2021-06-30T16:50:09.999+02:00</time>
      </trkpt>
      <trkpt lat="43.55323" lon="2.78806">
        <ele>992.1</ele>
        <time>2021-06-30T16:50:10.999+02:00</time>
      </trkpt>
      <trkpt lat="43.55323" lon="2.78804">
        <ele>992.2</ele>
        <time>2021-06-30T16:50:11.999+02:00</time>
      </trkpt>
      <trkpt lat="43.55322" lon="2.78803">
        <ele>992.3</ele>
        <time>2021-06-30T16:50:12.999+02:00</time>
      </trkpt>
      <trkpt lat="43.55322" lon="2.78802">
        <ele>992.4</ele>
        <time>2021-06-30T16:50:13.999+02:00</time>
      </trkpt>
      <trkpt lat="43.55322" lon="2.788">
        <ele>992.4</ele>
        <time>2021-06-30T16:50:14.999+02:00</time>
      </trkpt>
      <trkpt lat="43.55322" lon="2.78799">
        <ele>992.4</ele>
        <time>2021-06-30T16:50:15.999+02:00</time>
      </trkpt>
      <trkpt lat="43.55324" lon="2.78798">
        <ele>992.3</ele>
        <time>2021-06-30T16:50:16.999+02:00</time>
      </trkpt>
      <trkpt lat="43.55325" lon="2.78796">
        <ele>992.2</ele>
        <time>2021-06-30T16:50:17.999+02:00</time>
      </trkpt>
      <trkpt lat="43.55327" lon="2.78796">
        <ele>992</ele>
        <time>2021-06-30T16:50:18.999+02:00</time>
      </trkpt>
      <trkpt lat="43.55328" lon="2.78795">
        <ele>991.9</ele>
        <time>2021-06-30T16:50:19.999+02:00</time>
      </trkpt>
      <trkpt lat="43.55329" lon="2.78793">
        <ele>991.9</ele>
        <time>2021-06-30T16:50:20.999+02:00</time>
      </trkpt>
      <trkpt lat="43.55329" lon="2.78791">
        <ele>992</ele>
        <time>2021-06-30T16:50:21.999+02:00</time>
      </trkpt>
      <trkpt lat="43.55329" lon="2.7879">
        <ele>992</ele>
        <time>2021-06-30T16:50:22.999+02:00</time>
      </trkpt>
      <trkpt lat="43.5533" lon="2.78788">
        <ele>992</ele>
        <time>2021-06-30T16:50:23.999+02:00</time>
      </trkpt>
      <trkpt lat="43.5533" lon="2.78786">
        <ele>992</ele>
        <time>2021-06-30T16:50:24.999+02:00</time>
      </trkpt>
      <trkpt lat="43.5533" lon="2.78785">
        <ele>992.1</ele>
        <time>2021-06-30T16:50:25.999+02:00</time>
      </trkpt>
      <trkpt lat="43.5533" lon="2.78783">
        <ele>992.2</ele>
        <time>2021-06-30T16:50:26.999+02:00</time>
      </trkpt>
      <trkpt lat="43.5533" lon="2.7878">
        <ele>992.3</ele>
        <time>2021-06-30T16:50:27.999+02:00</time>
      </trkpt>
      <trkpt lat="43.55329" lon="2.78777">
        <ele>992.4</ele>
        <time>2021-06-30T16:50:28.999+02:00</time>
      </trkpt>
      <trkpt lat="43.55328" lon="2.78775">
        <ele>992.6</ele>
        <time>2021-06-30T16:50:29.999+02:00</time>
      </trkpt>
      <trkpt lat="43.55327" lon="2.78774">
        <ele>992.7</ele>
        <time>2021-06-30T16:50:30.999+02:00</time>
      </trkpt>
      <trkpt lat="43.55327" lon="2.78772">
        <ele>992.7</ele>
        <time>2021-06-30T16:50:31.999+02:00</time>
      </trkpt>
      <trkpt lat="43.55327" lon="2.7877">
        <ele>992.8</ele>
        <time>2021-06-30T16:50:32.999+02:00</time>
      </trkpt>
      <trkpt lat="43.55327" lon="2.78768">
        <ele>992.9</ele>
        <time>2021-06-30T16:50:33.999+02:00</time>
      </trkpt>
      <trkpt lat="43.55327" lon="2.78768">
        <ele>992.9</ele>
        <time>2021-06-30T16:50:34.999+02:00</time>
      </trkpt>
      <trkpt lat="43.55327" lon="2.78767">
        <ele>992.9</ele>
        <time>2021-06-30T16:50:35.999+02:00</time>
      </trkpt>
      <trkpt lat="43.55327" lon="2.78765">
        <ele>993</ele>
        <time>2021-06-30T16:50:36.999+02:00</time>
      </trkpt>
      <trkpt lat="43.55327" lon="2.78765">
        <ele>993</ele>
        <time>2021-06-30T16:50:37.999+02:00</time>
      </trkpt>
      <trkpt lat="43.55327" lon="2.78764">
        <ele>993</ele>
        <time>2021-06-30T16:50:38.999+02:00</time>
      </trkpt>
      <trkpt lat="43.55328" lon="2.78764">
        <ele>992.9</ele>
        <time>2021-06-30T16:50:39.999+02:00</time>
      </trkpt>
      <trkpt lat="43.55328" lon="2.78762">
        <ele>993</ele>
        <time>2021-06-30T16:50:40.999+02:00</time>
      </trkpt>
      <trkpt lat="43.55328" lon="2.78761">
        <ele>993</ele>
        <time>2021-06-30T16:50:41.999+02:00</time>
      </trkpt>
      <trkpt lat="43.55329" lon="2.78759">
        <ele>993</ele>
        <time>2021-06-30T16:50:42.999+02:00</time>
      </trkpt>
      <trkpt lat="43.55328" lon="2.78757">
        <ele>993.1</ele>
        <time>2021-06-30T16:50:43.999+02:00</time>
      </trkpt>
      <trkpt lat="43.55328" lon="2.78757">
        <ele>993.2</ele>
        <time>2021-06-30T16:50:44.999+02:00</time>
      </trkpt>
      <trkpt lat="43.55328" lon="2.78757">
        <ele>993.1</ele>
        <time>2021-06-30T16:50:45.999+02:00</time>
      </trkpt>
      <trkpt lat="43.55328" lon="2.78757">
        <ele>993.2</ele>
        <time>2021-06-30T16:50:46.999+02:00</time>
      </trkpt>
      <trkpt lat="43.55328" lon="2.78757">
        <ele>993.1</ele>
        <time>2021-06-30T16:50:47.999+02:00</time>
      </trkpt>
      <trkpt lat="43.55329" lon="2.78756">
        <ele>993.1</ele>
        <time>2021-06-30T16:50:48.999+02:00</time>
      </trkpt>
      <trkpt lat="43.55329" lon="2.78754">
        <ele>993.2</ele>
        <time>2021-06-30T16:50:49.999+02:00</time>
      </trkpt>
      <trkpt lat="43.55329" lon="2.78752">
        <ele>993.3</ele>
        <time>2021-06-30T16:50:50.999+02:00</time>
      </trkpt>
      <trkpt lat="43.55329" lon="2.7875">
        <ele>993.3</ele>
        <time>2021-06-30T16:50:51.999+02:00</time>
      </trkpt>
      <trkpt lat="43.5533" lon="2.78749">
        <ele>993.2</ele>
        <time>2021-06-30T16:50:52.999+02:00</time>
      </trkpt>
      <trkpt lat="43.55331" lon="2.78748">
        <ele>993.2</ele>
        <time>2021-06-30T16:50:53.999+02:00</time>
      </trkpt>
      <trkpt lat="43.55331" lon="2.78747">
        <ele>993.2</ele>
        <time>2021-06-30T16:50:54.999+02:00</time>
      </trkpt>
      <trkpt lat="43.55331" lon="2.78746">
        <ele>993.2</ele>
        <time>2021-06-30T16:50:55.999+02:00</time>
      </trkpt>
      <trkpt lat="43.55332" lon="2.78745">
        <ele>993.1</ele>
        <time>2021-06-30T16:50:56.999+02:00</time>
      </trkpt>
      <trkpt lat="43.55333" lon="2.78744">
        <ele>993</ele>
        <time>2021-06-30T16:50:57.999+02:00</time>
      </trkpt>
      <trkpt lat="43.55333" lon="2.78743">
        <ele>993</ele>
        <time>2021-06-30T16:50:58.999+02:00</time>
      </trkpt>
      <trkpt lat="43.55334" lon="2.78742">
        <ele>993</ele>
        <time>2021-06-30T16:50:59.999+02:00</time>
      </trkpt>
      <trkpt lat="43.55334" lon="2.78742">
        <ele>993</ele>
        <time>2021-06-30T16:51:00.999+02:00</time>
      </trkpt>
      <trkpt lat="43.55334" lon="2.78742">
        <ele>993</ele>
        <time>2021-06-30T16:51:01.999+02:00</time>
      </trkpt>
      <trkpt lat="43.55334" lon="2.78741">
        <ele>993</ele>
        <time>2021-06-30T16:51:02.999+02:00</time>
      </trkpt>
      <trkpt lat="43.55334" lon="2.7874">
        <ele>992.9</ele>
        <time>2021-06-30T16:51:03.999+02:00</time>
      </trkpt>
      <trkpt lat="43.55334" lon="2.78739">
        <ele>993</ele>
        <time>2021-06-30T16:51:04.999+02:00</time>
      </trkpt>
      <trkpt lat="43.55334" lon="2.78738">
        <ele>993</ele>
        <time>2021-06-30T16:51:05.999+02:00</time>
      </trkpt>
      <trkpt lat="43.55334" lon="2.78737">
        <ele>993</ele>
        <time>2021-06-30T16:51:06.999+02:00</time>
      </trkpt>
      <trkpt lat="43.55334" lon="2.78737">
        <ele>993</ele>
        <time>2021-06-30T16:51:07.999+02:00</time>
      </trkpt>
      <trkpt lat="43.55334" lon="2.78736">
        <ele>993</ele>
        <time>2021-06-30T16:51:08.999+02:00</time>
      </trkpt>
      <trkpt lat="43.55334" lon="2.78736">
        <ele>993</ele>
        <time>2021-06-30T16:51:09.999+02:00</time>
      </trkpt>
      <trkpt lat="43.55334" lon="2.78735">
        <ele>993</ele>
        <time>2021-06-30T16:51:10.999+02:00</time>
      </trkpt>
      <trkpt lat="43.55334" lon="2.78734">
        <ele>993</ele>
        <time>2021-06-30T16:51:11.999+02:00</time>
      </trkpt>
      <trkpt lat="43.55334" lon="2.78733">
        <ele>993</ele>
        <time>2021-06-30T16:51:12.999+02:00</time>
      </trkpt>
      <trkpt lat="43.55334" lon="2.78731">
        <ele>993</ele>
        <time>2021-06-30T16:51:13.999+02:00</time>
      </trkpt>
      <trkpt lat="43.55333" lon="2.78731">
        <ele>993</ele>
        <time>2021-06-30T16:51:14.999+02:00</time>
      </trkpt>
      <trkpt lat="43.55333" lon="2.7873">
        <ele>993</ele>
        <time>2021-06-30T16:51:15.999+02:00</time>
      </trkpt>
      <trkpt lat="43.55334" lon="2.78728">
        <ele>993</ele>
        <time>2021-06-30T16:51:16.999+02:00</time>
      </trkpt>
      <trkpt lat="43.55335" lon="2.78725">
        <ele>992.9</ele>
        <time>2021-06-30T16:51:17.999+02:00</time>
      </trkpt>
      <trkpt lat="43.55335" lon="2.78723">
        <ele>992.9</ele>
        <time>2021-06-30T16:51:18.999+02:00</time>
      </trkpt>
      <trkpt lat="43.55335" lon="2.78722">
        <ele>992.9</ele>
        <time>2021-06-30T16:51:19.999+02:00</time>
      </trkpt>
      <trkpt lat="43.55336" lon="2.7872">
        <ele>992.8</ele>
        <time>2021-06-30T16:51:20.999+02:00</time>
      </trkpt>
      <trkpt lat="43.55337" lon="2.78719">
        <ele>992.8</ele>
        <time>2021-06-30T16:51:21.999+02:00</time>
      </trkpt>
      <trkpt lat="43.55337" lon="2.78718">
        <ele>992.8</ele>
        <time>2021-06-30T16:51:22.999+02:00</time>
      </trkpt>
      <trkpt lat="43.55337" lon="2.78716">
        <ele>992.8</ele>
        <time>2021-06-30T16:51:23.999+02:00</time>
      </trkpt>
      <trkpt lat="43.55336" lon="2.78714">
        <ele>992.8</ele>
        <time>2021-06-30T16:51:24.999+02:00</time>
      </trkpt>
      <trkpt lat="43.55337" lon="2.78713">
        <ele>992.8</ele>
        <time>2021-06-30T16:51:25.999+02:00</time>
      </trkpt>
      <trkpt lat="43.55337" lon="2.78711">
        <ele>992.8</ele>
        <time>2021-06-30T16:51:26.999+02:00</time>
      </trkpt>
      <trkpt lat="43.55338" lon="2.7871">
        <ele>992.8</ele>
        <time>2021-06-30T16:51:27.999+02:00</time>
      </trkpt>
      <trkpt lat="43.55337" lon="2.78707">
        <ele>992.8</ele>
        <time>2021-06-30T16:51:28.999+02:00</time>
      </trkpt>
      <trkpt lat="43.55338" lon="2.78706">
        <ele>992.8</ele>
        <time>2021-06-30T16:51:29.999+02:00</time>
      </trkpt>
      <trkpt lat="43.55337" lon="2.78706">
        <ele>992.8</ele>
        <time>2021-06-30T16:51:30.999+02:00</time>
      </trkpt>
      <trkpt lat="43.55335" lon="2.78705">
        <ele>992.9</ele>
        <time>2021-06-30T16:51:31.999+02:00</time>
      </trkpt>
      <trkpt lat="43.55335" lon="2.78704">
        <ele>992.9</ele>
        <time>2021-06-30T16:51:32.999+02:00</time>
      </trkpt>
      <trkpt lat="43.55334" lon="2.78703">
        <ele>993</ele>
        <time>2021-06-30T16:51:33.999+02:00</time>
      </trkpt>
      <trkpt lat="43.55333" lon="2.78701">
        <ele>993</ele>
        <time>2021-06-30T16:51:34.999+02:00</time>
      </trkpt>
      <trkpt lat="43.55332" lon="2.78701">
        <ele>993.1</ele>
        <time>2021-06-30T16:51:35.999+02:00</time>
      </trkpt>
      <trkpt lat="43.55332" lon="2.787">
        <ele>993.1</ele>
        <time>2021-06-30T16:51:36.999+02:00</time>
      </trkpt>
      <trkpt lat="43.55332" lon="2.78699">
        <ele>993.1</ele>
        <time>2021-06-30T16:51:37.999+02:00</time>
      </trkpt>
      <trkpt lat="43.55332" lon="2.78698">
        <ele>993.1</ele>
        <time>2021-06-30T16:51:38.999+02:00</time>
      </trkpt>
      <trkpt lat="43.55332" lon="2.78696">
        <ele>993.1</ele>
        <time>2021-06-30T16:51:39.999+02:00</time>
      </trkpt>
      <trkpt lat="43.55332" lon="2.78695">
        <ele>993.1</ele>
        <time>2021-06-30T16:51:40.999+02:00</time>
      </trkpt>
      <trkpt lat="43.55332" lon="2.78694">
        <ele>993.1</ele>
        <time>2021-06-30T16:51:41.999+02:00</time>
      </trkpt>
      <trkpt lat="43.55333" lon="2.78692">
        <ele>993</ele>
        <time>2021-06-30T16:51:42.999+02:00</time>
      </trkpt>
      <trkpt lat="43.55334" lon="2.78691">
        <ele>993</ele>
        <time>2021-06-30T16:51:43.999+02:00</time>
      </trkpt>
      <trkpt lat="43.55334" lon="2.7869">
        <ele>993</ele>
        <time>2021-06-30T16:51:44.999+02:00</time>
      </trkpt>
      <trkpt lat="43.55334" lon="2.78689">
        <ele>993</ele>
        <time>2021-06-30T16:51:45.999+02:00</time>
      </trkpt>
      <trkpt lat="43.55334" lon="2.78687">
        <ele>992.9</ele>
        <time>2021-06-30T16:51:46.999+02:00</time>
      </trkpt>
      <trkpt lat="43.55335" lon="2.78684">
        <ele>992.9</ele>
        <time>2021-06-30T16:51:47.999+02:00</time>
      </trkpt>
      <trkpt lat="43.55335" lon="2.78682">
        <ele>992.9</ele>
        <time>2021-06-30T16:51:48.999+02:00</time>
      </trkpt>
      <trkpt lat="43.55335" lon="2.78681">
        <ele>992.9</ele>
        <time>2021-06-30T16:51:49.999+02:00</time>
      </trkpt>
      <trkpt lat="43.55335" lon="2.7868">
        <ele>992.9</ele>
        <time>2021-06-30T16:51:50.999+02:00</time>
      </trkpt>
      <trkpt lat="43.55335" lon="2.78679">
        <ele>992.9</ele>
        <time>2021-06-30T16:51:51.999+02:00</time>
      </trkpt>
      <trkpt lat="43.55335" lon="2.78678">
        <ele>992.9</ele>
        <time>2021-06-30T16:51:52.999+02:00</time>
      </trkpt>
      <trkpt lat="43.55336" lon="2.78677">
        <ele>992.9</ele>
        <time>2021-06-30T16:51:53.999+02:00</time>
      </trkpt>
      <trkpt lat="43.55337" lon="2.78677">
        <ele>992.8</ele>
        <time>2021-06-30T16:51:54.999+02:00</time>
      </trkpt>
      <trkpt lat="43.55337" lon="2.78677">
        <ele>992.8</ele>
        <time>2021-06-30T16:51:55.999+02:00</time>
      </trkpt>
      <trkpt lat="43.55337" lon="2.78677">
        <ele>992.8</ele>
        <time>2021-06-30T16:51:56.999+02:00</time>
      </trkpt>
      <trkpt lat="43.55337" lon="2.78677">
        <ele>992.8</ele>
        <time>2021-06-30T16:51:57.999+02:00</time>
      </trkpt>
      <trkpt lat="43.55337" lon="2.78676">
        <ele>992.8</ele>
        <time>2021-06-30T16:51:58.999+02:00</time>
      </trkpt>
      <trkpt lat="43.55337" lon="2.78675">
        <ele>992.8</ele>
        <time>2021-06-30T16:51:59.999+02:00</time>
      </trkpt>
      <trkpt lat="43.55337" lon="2.78674">
        <ele>992.8</ele>
        <time>2021-06-30T16:52:00.999+02:00</time>
      </trkpt>
      <trkpt lat="43.55338" lon="2.78674">
        <ele>992.8</ele>
        <time>2021-06-30T16:52:01.999+02:00</time>
      </trkpt>
      <trkpt lat="43.55337" lon="2.78674">
        <ele>992.8</ele>
        <time>2021-06-30T16:52:02.999+02:00</time>
      </trkpt>
      <trkpt lat="43.55337" lon="2.78673">
        <ele>992.8</ele>
        <time>2021-06-30T16:52:03.999+02:00</time>
      </trkpt>
      <trkpt lat="43.55336" lon="2.78672">
        <ele>992.9</ele>
        <time>2021-06-30T16:52:04.999+02:00</time>
      </trkpt>
      <trkpt lat="43.55336" lon="2.78671">
        <ele>992.9</ele>
        <time>2021-06-30T16:52:05.999+02:00</time>
      </trkpt>
      <trkpt lat="43.55336" lon="2.7867">
        <ele>992.9</ele>
        <time>2021-06-30T16:52:06.999+02:00</time>
      </trkpt>
      <trkpt lat="43.55336" lon="2.7867">
        <ele>992.9</ele>
        <time>2021-06-30T16:52:07.999+02:00</time>
      </trkpt>
      <trkpt lat="43.55335" lon="2.78668">
        <ele>992.9</ele>
        <time>2021-06-30T16:52:08.999+02:00</time>
      </trkpt>
      <trkpt lat="43.55335" lon="2.78668">
        <ele>992.9</ele>
        <time>2021-06-30T16:52:09.999+02:00</time>
      </trkpt>
      <trkpt lat="43.55335" lon="2.78666">
        <ele>993</ele>
        <time>2021-06-30T16:52:10.999+02:00</time>
      </trkpt>
      <trkpt lat="43.55334" lon="2.78664">
        <ele>993</ele>
        <time>2021-06-30T16:52:11.999+02:00</time>
      </trkpt>
      <trkpt lat="43.55334" lon="2.78661">
        <ele>993.1</ele>
        <time>2021-06-30T16:52:12.999+02:00</time>
      </trkpt>
      <trkpt lat="43.55334" lon="2.7866">
        <ele>993.1</ele>
        <time>2021-06-30T16:52:13.999+02:00</time>
      </trkpt>
      <trkpt lat="43.55333" lon="2.78659">
        <ele>993.2</ele>
        <time>2021-06-30T16:52:14.999+02:00</time>
      </trkpt>
      <trkpt lat="43.55333" lon="2.78658">
        <ele>993.2</ele>
        <time>2021-06-30T16:52:15.999+02:00</time>
      </trkpt>
      <trkpt lat="43.55333" lon="2.78658">
        <ele>993.2</ele>
        <time>2021-06-30T16:52:16.999+02:00</time>
      </trkpt>
      <trkpt lat="43.55333" lon="2.78658">
        <ele>993.3</ele>
        <time>2021-06-30T16:52:17.999+02:00</time>
      </trkpt>
      <trkpt lat="43.55332" lon="2.78657">
        <ele>993.3</ele>
        <time>2021-06-30T16:52:18.999+02:00</time>
      </trkpt>
      <trkpt lat="43.55332" lon="2.78657">
        <ele>993.3</ele>
        <time>2021-06-30T16:52:19.999+02:00</time>
      </trkpt>
      <trkpt lat="43.55332" lon="2.78657">
        <ele>993.3</ele>
        <time>2021-06-30T16:52:20.999+02:00</time>
      </trkpt>
      <trkpt lat="43.55332" lon="2.78657">
        <ele>993.3</ele>
        <time>2021-06-30T16:52:21.999+02:00</time>
      </trkpt>
      <trkpt lat="43.55332" lon="2.78657">
        <ele>993.3</ele>
        <time>2021-06-30T16:52:22.999+02:00</time>
      </trkpt>
      <trkpt lat="43.55332" lon="2.78657">
        <ele>993.3</ele>
        <time>2021-06-30T16:52:23.999+02:00</time>
      </trkpt>
      <trkpt lat="43.55332" lon="2.78657">
        <ele>993.3</ele>
        <time>2021-06-30T16:52:24.999+02:00</time>
      </trkpt>
      <trkpt lat="43.55332" lon="2.78657">
        <ele>993.3</ele>
        <time>2021-06-30T16:52:25.999+02:00</time>
      </trkpt>
      <trkpt lat="43.55332" lon="2.78657">
        <ele>993.3</ele>
        <time>2021-06-30T16:52:26.999+02:00</time>
      </trkpt>
      <trkpt lat="43.55332" lon="2.78657">
        <ele>993.3</ele>
        <time>2021-06-30T16:52:27.999+02:00</time>
      </trkpt>
      <trkpt lat="43.55332" lon="2.78657">
        <ele>993.4</ele>
        <time>2021-06-30T16:52:28.999+02:00</time>
      </trkpt>
      <trkpt lat="43.55332" lon="2.78657">
        <ele>993.4</ele>
        <time>2021-06-30T16:52:29.999+02:00</time>
      </trkpt>
      <trkpt lat="43.55332" lon="2.78657">
        <ele>993.4</ele>
        <time>2021-06-30T16:52:30.999+02:00</time>
      </trkpt>
      <trkpt lat="43.55332" lon="2.78656">
        <ele>993.4</ele>
        <time>2021-06-30T16:52:31.999+02:00</time>
      </trkpt>
      <trkpt lat="43.55332" lon="2.78656">
        <ele>993.4</ele>
        <time>2021-06-30T16:52:32.999+02:00</time>
      </trkpt>
      <trkpt lat="43.55332" lon="2.78656">
        <ele>993.4</ele>
        <time>2021-06-30T16:52:33.999+02:00</time>
      </trkpt>
      <trkpt lat="43.55332" lon="2.78656">
        <ele>993.4</ele>
        <time>2021-06-30T16:52:34.999+02:00</time>
      </trkpt>
      <trkpt lat="43.55332" lon="2.78656">
        <ele>993.4</ele>
        <time>2021-06-30T16:52:35.999+02:00</time>
      </trkpt>
      <trkpt lat="43.55332" lon="2.78656">
        <ele>993.4</ele>
        <time>2021-06-30T16:52:36.999+02:00</time>
      </trkpt>
      <trkpt lat="43.55332" lon="2.78656">
        <ele>993.4</ele>
        <time>2021-06-30T16:52:37.999+02:00</time>
      </trkpt>
      <trkpt lat="43.55332" lon="2.78656">
        <ele>993.4</ele>
        <time>2021-06-30T16:52:38.999+02:00</time>
      </trkpt>
      <trkpt lat="43.55332" lon="2.78655">
        <ele>993.4</ele>
        <time>2021-06-30T16:52:39.999+02:00</time>
      </trkpt>
      <trkpt lat="43.55332" lon="2.78655">
        <ele>993.4</ele>
        <time>2021-06-30T16:52:40.999+02:00</time>
      </trkpt>
      <trkpt lat="43.55332" lon="2.78655">
        <ele>993.4</ele>
        <time>2021-06-30T16:52:41.999+02:00</time>
      </trkpt>
      <trkpt lat="43.55332" lon="2.78655">
        <ele>993.4</ele>
        <time>2021-06-30T16:52:42.999+02:00</time>
      </trkpt>
      <trkpt lat="43.55332" lon="2.78655">
        <ele>993.4</ele>
        <time>2021-06-30T16:52:43.999+02:00</time>
      </trkpt>
      <trkpt lat="43.55332" lon="2.78655">
        <ele>993.4</ele>
        <time>2021-06-30T16:52:44.999+02:00</time>
      </trkpt>
      <trkpt lat="43.55332" lon="2.78655">
        <ele>993.4</ele>
        <time>2021-06-30T16:52:45.999+02:00</time>
      </trkpt>
      <trkpt lat="43.55332" lon="2.78655">
        <ele>993.4</ele>
        <time>2021-06-30T16:52:46.999+02:00</time>
      </trkpt>
      <trkpt lat="43.55332" lon="2.78655">
        <ele>993.4</ele>
        <time>2021-06-30T16:52:47.999+02:00</time>
      </trkpt>
      <trkpt lat="43.55332" lon="2.78654">
        <ele>993.4</ele>
        <time>2021-06-30T16:52:48.999+02:00</time>
      </trkpt>
      <trkpt lat="43.55332" lon="2.78654">
        <ele>993.5</ele>
        <time>2021-06-30T16:52:49.999+02:00</time>
      </trkpt>
      <trkpt lat="43.55332" lon="2.78654">
        <ele>993.5</ele>
        <time>2021-06-30T16:52:50.999+02:00</time>
      </trkpt>
      <trkpt lat="43.55332" lon="2.78654">
        <ele>993.5</ele>
        <time>2021-06-30T16:52:51.999+02:00</time>
      </trkpt>
      <trkpt lat="43.55332" lon="2.78654">
        <ele>993.5</ele>
        <time>2021-06-30T16:52:52.999+02:00</time>
      </trkpt>
      <trkpt lat="43.55332" lon="2.78654">
        <ele>993.5</ele>
        <time>2021-06-30T16:52:53.999+02:00</time>
      </trkpt>
      <trkpt lat="43.55332" lon="2.78654">
        <ele>993.5</ele>
        <time>2021-06-30T16:52:54.999+02:00</time>
      </trkpt>
      <trkpt lat="43.55332" lon="2.78653">
        <ele>993.5</ele>
        <time>2021-06-30T16:52:55.999+02:00</time>
      </trkpt>
      <trkpt lat="43.55332" lon="2.78653">
        <ele>993.5</ele>
        <time>2021-06-30T16:52:56.999+02:00</time>
      </trkpt>
      <trkpt lat="43.55331" lon="2.78653">
        <ele>993.5</ele>
        <time>2021-06-30T16:52:57.999+02:00</time>
      </trkpt>
      <trkpt lat="43.55332" lon="2.78653">
        <ele>993.5</ele>
        <time>2021-06-30T16:52:58.999+02:00</time>
      </trkpt>
      <trkpt lat="43.55331" lon="2.78652">
        <ele>993.5</ele>
        <time>2021-06-30T16:52:59.999+02:00</time>
      </trkpt>
      <trkpt lat="43.55331" lon="2.78652">
        <ele>993.6</ele>
        <time>2021-06-30T16:53:00.999+02:00</time>
      </trkpt>
      <trkpt lat="43.55331" lon="2.78652">
        <ele>993.6</ele>
        <time>2021-06-30T16:53:01.999+02:00</time>
      </trkpt>
      <trkpt lat="43.55331" lon="2.78652">
        <ele>993.6</ele>
        <time>2021-06-30T16:53:02.999+02:00</time>
      </trkpt>
      <trkpt lat="43.55331" lon="2.78652">
        <ele>993.6</ele>
        <time>2021-06-30T16:53:03.999+02:00</time>
      </trkpt>
      <trkpt lat="43.55331" lon="2.78652">
        <ele>993.6</ele>
        <time>2021-06-30T16:53:04.999+02:00</time>
      </trkpt>
      <trkpt lat="43.55331" lon="2.78651">
        <ele>993.6</ele>
        <time>2021-06-30T16:53:05.999+02:00</time>
      </trkpt>
      <trkpt lat="43.55331" lon="2.78651">
        <ele>993.6</ele>
        <time>2021-06-30T16:53:06.999+02:00</time>
      </trkpt>
      <trkpt lat="43.5533" lon="2.78651">
        <ele>993.6</ele>
        <time>2021-06-30T16:53:07.999+02:00</time>
      </trkpt>
      <trkpt lat="43.55331" lon="2.78651">
        <ele>993.6</ele>
        <time>2021-06-30T16:53:08.999+02:00</time>
      </trkpt>
      <trkpt lat="43.55331" lon="2.78651">
        <ele>993.6</ele>
        <time>2021-06-30T16:53:09.999+02:00</time>
      </trkpt>
      <trkpt lat="43.55331" lon="2.78651">
        <ele>993.6</ele>
        <time>2021-06-30T16:53:10.999+02:00</time>
      </trkpt>
      <trkpt lat="43.55331" lon="2.78651">
        <ele>993.6</ele>
        <time>2021-06-30T16:53:11.999+02:00</time>
      </trkpt>
      <trkpt lat="43.55331" lon="2.78651">
        <ele>993.6</ele>
        <time>2021-06-30T16:53:12.999+02:00</time>
      </trkpt>
      <trkpt lat="43.55331" lon="2.78651">
        <ele>993.6</ele>
        <time>2021-06-30T16:53:13.999+02:00</time>
      </trkpt>
      <trkpt lat="43.55331" lon="2.78652">
        <ele>993.6</ele>
        <time>2021-06-30T16:53:14.999+02:00</time>
      </trkpt>
      <trkpt lat="43.5533" lon="2.78653">
        <ele>993.6</ele>
        <time>2021-06-30T16:53:15.999+02:00</time>
      </trkpt>
      <trkpt lat="43.55329" lon="2.78654">
        <ele>993.7</ele>
        <time>2021-06-30T16:53:16.999+02:00</time>
      </trkpt>
      <trkpt lat="43.55329" lon="2.78654">
        <ele>993.7</ele>
        <time>2021-06-30T16:53:17.999+02:00</time>
      </trkpt>
      <trkpt lat="43.55329" lon="2.78656">
        <ele>993.6</ele>
        <time>2021-06-30T16:53:18.999+02:00</time>
      </trkpt>
      <trkpt lat="43.5533" lon="2.78656">
        <ele>993.6</ele>
        <time>2021-06-30T16:53:19.999+02:00</time>
      </trkpt>
      <trkpt lat="43.5533" lon="2.78657">
        <ele>993.5</ele>
        <time>2021-06-30T16:53:20.999+02:00</time>
      </trkpt>
      <trkpt lat="43.55334" lon="2.78659">
        <ele>993.2</ele>
        <time>2021-06-30T16:53:21.999+02:00</time>
      </trkpt>
      <trkpt lat="43.55334" lon="2.78659">
        <ele>993.2</ele>
        <time>2021-06-30T16:53:22.999+02:00</time>
      </trkpt>
      <trkpt lat="43.55335" lon="2.7866">
        <ele>993.1</ele>
        <time>2021-06-30T16:53:23.999+02:00</time>
      </trkpt>
      <trkpt lat="43.55337" lon="2.78661">
        <ele>993</ele>
        <time>2021-06-30T16:53:24.999+02:00</time>
      </trkpt>
      <trkpt lat="43.55338" lon="2.78662">
        <ele>992.9</ele>
        <time>2021-06-30T16:53:25.999+02:00</time>
      </trkpt>
      <trkpt lat="43.55339" lon="2.78664">
        <ele>992.8</ele>
        <time>2021-06-30T16:53:26.999+02:00</time>
      </trkpt>
      <trkpt lat="43.5534" lon="2.78664">
        <ele>992.8</ele>
        <time>2021-06-30T16:53:27.999+02:00</time>
      </trkpt>
      <trkpt lat="43.5534" lon="2.78665">
        <ele>992.7</ele>
        <time>2021-06-30T16:53:28.999+02:00</time>
      </trkpt>
      <trkpt lat="43.55341" lon="2.78665">
        <ele>992.7</ele>
        <time>2021-06-30T16:53:29.999+02:00</time>
      </trkpt>
      <trkpt lat="43.55342" lon="2.78665">
        <ele>992.6</ele>
        <time>2021-06-30T16:53:30.999+02:00</time>
      </trkpt>
      <trkpt lat="43.55342" lon="2.78665">
        <ele>992.6</ele>
        <time>2021-06-30T16:53:31.999+02:00</time>
      </trkpt>
      <trkpt lat="43.55342" lon="2.78665">
        <ele>992.6</ele>
        <time>2021-06-30T16:53:32.999+02:00</time>
      </trkpt>
      <trkpt lat="43.55342" lon="2.78665">
        <ele>992.6</ele>
        <time>2021-06-30T16:53:33.999+02:00</time>
      </trkpt>
      <trkpt lat="43.55342" lon="2.78666">
        <ele>992.6</ele>
        <time>2021-06-30T16:53:34.999+02:00</time>
      </trkpt>
      <trkpt lat="43.55342" lon="2.78666">
        <ele>992.6</ele>
        <time>2021-06-30T16:53:35.999+02:00</time>
      </trkpt>
      <trkpt lat="43.55342" lon="2.78666">
        <ele>992.6</ele>
        <time>2021-06-30T16:53:36.999+02:00</time>
      </trkpt>
      <trkpt lat="43.55342" lon="2.78666">
        <ele>992.6</ele>
        <time>2021-06-30T16:53:37.999+02:00</time>
      </trkpt>
      <trkpt lat="43.55342" lon="2.78666">
        <ele>992.6</ele>
        <time>2021-06-30T16:53:38.999+02:00</time>
      </trkpt>
      <trkpt lat="43.55342" lon="2.78666">
        <ele>992.6</ele>
        <time>2021-06-30T16:53:39.999+02:00</time>
      </trkpt>
      <trkpt lat="43.55342" lon="2.78666">
        <ele>992.6</ele>
        <time>2021-06-30T16:53:40.999+02:00</time>
      </trkpt>
      <trkpt lat="43.55342" lon="2.78666">
        <ele>992.6</ele>
        <time>2021-06-30T16:53:41.999+02:00</time>
      </trkpt>
      <trkpt lat="43.55342" lon="2.78666">
        <ele>992.6</ele>
        <time>2021-06-30T16:53:42.999+02:00</time>
      </trkpt>
      <trkpt lat="43.55342" lon="2.78666">
        <ele>992.6</ele>
        <time>2021-06-30T16:53:43.999+02:00</time>
      </trkpt>
      <trkpt lat="43.55342" lon="2.78666">
        <ele>992.6</ele>
        <time>2021-06-30T16:53:44.999+02:00</time>
      </trkpt>
      <trkpt lat="43.55342" lon="2.78666">
        <ele>992.6</ele>
        <time>2021-06-30T16:53:45.999+02:00</time>
      </trkpt>
    </trkseg>
  </trk>
</gpx>